<?xml version='1.0' encoding='UTF-8'?><gpx version="1.1" creator="JPX - https://github.com/jenetics/jpx" xmlns="http://www.topografix.com/GPX/1/1"><trk><trkseg><trkpt lat="43.32808840378386" lon="-0.41518568787871063"><ele>187.0</ele><time>2026-05-03T08:45:05Z</time></trkpt><trkpt lat="43.32808367198867" lon="-0.4152837830934504"><ele>187.0</ele><time>2026-05-03T08:45:07Z</time></trkpt><trkpt lat="43.328143126909055" lon="-0.4153816496266927"><ele>187.0</ele><time>2026-05-03T08:45:09Z</time></trkpt><trkpt lat="43.328238552210486" lon="-0.4153978476908817"><ele>187.0</ele><time>2026-05-03T08:45:11Z</time></trkpt><trkpt lat="43.32832973831641" lon="-0.41539648814258007"><ele>187.0</ele><time>2026-05-03T08:45:13Z</time></trkpt><trkpt lat="43.3284259691775" lon="-0.4154424404263691"><ele>187.0</ele><time>2026-05-03T08:45:15Z</time></trkpt><trkpt lat="43.3285065172507" lon="-0.41553103857286505"><ele>187.0</ele><time>2026-05-03T08:45:17Z</time></trkpt><trkpt lat="43.32857954035422" lon="-0.41560037240881803"><ele>187.0</ele><time>2026-05-03T08:45:19Z</time></trkpt><trkpt lat="43.32867879682831" lon="-0.4155463318835356"><ele>187.0</ele><time>2026-05-03T08:45:21Z</time></trkpt><trkpt lat="43.32877028105606" lon="-0.41544903263748745"><ele>187.0</ele><time>2026-05-03T08:45:22.999Z</time></trkpt><trkpt lat="43.32881740510401" lon="-0.41538184886696955"><ele>187.0</ele><time>2026-05-03T08:45:23.999Z</time></trkpt><trkpt lat="43.32891882180151" lon="-0.41527901492507796"><ele>187.0</ele><time>2026-05-03T08:45:25.999Z</time></trkpt><trkpt lat="43.32898255064667" lon="-0.41523294200725147"><ele>187.0</ele><time>2026-05-03T08:45:26.999Z</time></trkpt><trkpt lat="43.329049523503535" lon="-0.41520689310043063"><ele>187.0</ele><time>2026-05-03T08:45:27.999Z</time></trkpt><trkpt lat="43.32911948429014" lon="-0.4152038428450146"><ele>187.0</ele><time>2026-05-03T08:45:28.999Z</time></trkpt><trkpt lat="43.32919366332439" lon="-0.4152295495721151"><ele>187.0</ele><time>2026-05-03T08:45:29.999Z</time></trkpt><trkpt lat="43.32925877097398" lon="-0.4152663143745972"><ele>187.0</ele><time>2026-05-03T08:45:30.999Z</time></trkpt><trkpt lat="43.32932754142453" lon="-0.41527573093279907"><ele>187.0</ele><time>2026-05-03T08:45:31.999Z</time></trkpt><trkpt lat="43.32939082623703" lon="-0.41528811392068"><ele>187.0</ele><time>2026-05-03T08:45:32.999Z</time></trkpt><trkpt lat="43.329509900576326" lon="-0.4153228635621913"><ele>187.0</ele><time>2026-05-03T08:45:34.999Z</time></trkpt><trkpt lat="43.32960918257318" lon="-0.41536034049117904"><ele>187.0</ele><time>2026-05-03T08:45:36.999Z</time></trkpt><trkpt lat="43.329683939303195" lon="-0.4153762284094941"><ele>187.0</ele><time>2026-05-03T08:45:38.999Z</time></trkpt><trkpt lat="43.32974691098822" lon="-0.4153857665840864"><ele>187.0</ele><time>2026-05-03T08:45:41.999Z</time></trkpt><trkpt lat="43.32977678001941" lon="-0.41556949228715756"><ele>187.0</ele><time>2026-05-03T08:45:44.999Z</time></trkpt><trkpt lat="43.329786257511266" lon="-0.4156979665609398"><ele>187.0</ele><time>2026-05-03T08:45:46.999Z</time></trkpt><trkpt lat="43.32979409689247" lon="-0.4158429706440173"><ele>187.0</ele><time>2026-05-03T08:45:48.999Z</time></trkpt><trkpt lat="43.32979443016306" lon="-0.41598965397943466"><ele>187.0</ele><time>2026-05-03T08:45:50.999Z</time></trkpt><trkpt lat="43.32979669688579" lon="-0.4161274657571221"><ele>187.0</ele><time>2026-05-03T08:45:52.999Z</time></trkpt><trkpt lat="43.329803877789686" lon="-0.41628131925438466"><ele>187.0</ele><time>2026-05-03T08:45:54.999Z</time></trkpt><trkpt lat="43.32980957019993" lon="-0.4164445078380407"><ele>187.0</ele><time>2026-05-03T08:45:56.999Z</time></trkpt><trkpt lat="43.3298129615659" lon="-0.4166159826951437"><ele>187.0</ele><time>2026-05-03T08:45:58.999Z</time></trkpt><trkpt lat="43.329814072166194" lon="-0.4167069917084376"><ele>187.0</ele><time>2026-05-03T08:45:59.999Z</time></trkpt><trkpt lat="43.329807998695074" lon="-0.41679830279862834"><ele>187.0</ele><time>2026-05-03T08:46:00.999Z</time></trkpt><trkpt lat="43.329805524468334" lon="-0.41688693787880243"><ele>187.0</ele><time>2026-05-03T08:46:01.999Z</time></trkpt><trkpt lat="43.329807127434776" lon="-0.416979958610438"><ele>187.0</ele><time>2026-05-03T08:46:02.999Z</time></trkpt><trkpt lat="43.329808118413965" lon="-0.417071493008108"><ele>187.0</ele><time>2026-05-03T08:46:03.999Z</time></trkpt><trkpt lat="43.3298062261992" lon="-0.41716359311990947"><ele>187.0</ele><time>2026-05-03T08:46:04.999Z</time></trkpt><trkpt lat="43.329809815137146" lon="-0.41725859918158165"><ele>187.0</ele><time>2026-05-03T08:46:05.999Z</time></trkpt><trkpt lat="43.32981336255086" lon="-0.4173526590766603"><ele>187.0</ele><time>2026-05-03T08:46:06.999Z</time></trkpt><trkpt lat="43.329816653419094" lon="-0.4174475619474915"><ele>187.0</ele><time>2026-05-03T08:46:07.999Z</time></trkpt><trkpt lat="43.32982781785491" lon="-0.4175436852159262"><ele>187.0</ele><time>2026-05-03T08:46:08.999Z</time></trkpt><trkpt lat="43.329836936244945" lon="-0.417640974171292"><ele>187.0</ele><time>2026-05-03T08:46:09.999Z</time></trkpt><trkpt lat="43.32984096014158" lon="-0.41774109132594955"><ele>187.0</ele><time>2026-05-03T08:46:10.999Z</time></trkpt><trkpt lat="43.32984690568704" lon="-0.41783481931982736"><ele>187.0</ele><time>2026-05-03T08:46:11.999Z</time></trkpt><trkpt lat="43.32985508357645" lon="-0.41793094779340956"><ele>187.0</ele><time>2026-05-03T08:46:12.999Z</time></trkpt><trkpt lat="43.32986325663287" lon="-0.41803023716839566"><ele>187.0</ele><time>2026-05-03T08:46:13.999Z</time></trkpt><trkpt lat="43.3298710853602" lon="-0.41812806596567975"><ele>187.0</ele><time>2026-05-03T08:46:14.999Z</time></trkpt><trkpt lat="43.329878488988676" lon="-0.4182278575587191"><ele>187.0</ele><time>2026-05-03T08:46:15.999Z</time></trkpt><trkpt lat="43.329884832945346" lon="-0.4183275906198181"><ele>187.0</ele><time>2026-05-03T08:46:17Z</time></trkpt><trkpt lat="43.329893180200386" lon="-0.41842889515203535"><ele>187.0</ele><time>2026-05-03T08:46:18Z</time></trkpt><trkpt lat="43.32990064440373" lon="-0.41852887389308546"><ele>187.0</ele><time>2026-05-03T08:46:19Z</time></trkpt><trkpt lat="43.329906275558386" lon="-0.41863014856843334"><ele>187.0</ele><time>2026-05-03T08:46:20Z</time></trkpt><trkpt lat="43.329910872546186" lon="-0.4187311891045998"><ele>187.0</ele><time>2026-05-03T08:46:21Z</time></trkpt><trkpt lat="43.3299209654989" lon="-0.41882890808505024"><ele>187.0</ele><time>2026-05-03T08:46:22Z</time></trkpt><trkpt lat="43.3299289859238" lon="-0.4189281533098728"><ele>187.0</ele><time>2026-05-03T08:46:23Z</time></trkpt><trkpt lat="43.329937343239365" lon="-0.419027402084659"><ele>187.0</ele><time>2026-05-03T08:46:24Z</time></trkpt><trkpt lat="43.32994341785694" lon="-0.4191264718591309"><ele>187.0</ele><time>2026-05-03T08:46:25Z</time></trkpt><trkpt lat="43.329950876329356" lon="-0.4192247011716764"><ele>187.0</ele><time>2026-05-03T08:46:26Z</time></trkpt><trkpt lat="43.329957871947315" lon="-0.41932332294299474"><ele>187.0</ele><time>2026-05-03T08:46:27Z</time></trkpt><trkpt lat="43.3299609502635" lon="-0.41942052355293835"><ele>187.0</ele><time>2026-05-03T08:46:28Z</time></trkpt><trkpt lat="43.329961843466634" lon="-0.4195275198425977"><ele>187.0</ele><time>2026-05-03T08:46:29Z</time></trkpt><trkpt lat="43.329956147496695" lon="-0.4196249194383819"><ele>187.0</ele><time>2026-05-03T08:46:30Z</time></trkpt><trkpt lat="43.329944105865145" lon="-0.4197138513296408"><ele>187.0</ele><time>2026-05-03T08:46:31Z</time></trkpt><trkpt lat="43.32992344267485" lon="-0.4198200437463113"><ele>187.0</ele><time>2026-05-03T08:46:32Z</time></trkpt><trkpt lat="43.3299062286002" lon="-0.41992161978699416"><ele>187.0</ele><time>2026-05-03T08:46:33Z</time></trkpt><trkpt lat="43.32989690403172" lon="-0.42001703962968123"><ele>187.0</ele><time>2026-05-03T08:46:34Z</time></trkpt><trkpt lat="43.32989261621467" lon="-0.42012671502210364"><ele>187.0</ele><time>2026-05-03T08:46:35Z</time></trkpt><trkpt lat="43.32989163569587" lon="-0.42023242200986477"><ele>186.83333333333334</ele><time>2026-05-03T08:46:36Z</time></trkpt><trkpt lat="43.32990182962388" lon="-0.42033571849595563"><ele>186.66666666666669</ele><time>2026-05-03T08:46:37Z</time></trkpt><trkpt lat="43.3299117079902" lon="-0.4204388466595842"><ele>186.5</ele><time>2026-05-03T08:46:38Z</time></trkpt><trkpt lat="43.32993955211235" lon="-0.42054532509657716"><ele>186.33333333333334</ele><time>2026-05-03T08:46:39Z</time></trkpt><trkpt lat="43.32996194583693" lon="-0.42063902380203255"><ele>186.16666666666666</ele><time>2026-05-03T08:46:40Z</time></trkpt><trkpt lat="43.329987333713675" lon="-0.4207377499716664"><ele>186.0</ele><time>2026-05-03T08:46:41Z</time></trkpt><trkpt lat="43.3300092430167" lon="-0.4208386732162048"><ele>186.0</ele><time>2026-05-03T08:46:42Z</time></trkpt><trkpt lat="43.33003297733118" lon="-0.42094093876651417"><ele>186.0</ele><time>2026-05-03T08:46:43Z</time></trkpt><trkpt lat="43.330049684510186" lon="-0.4210390654439098"><ele>186.0</ele><time>2026-05-03T08:46:44Z</time></trkpt><trkpt lat="43.33007455525903" lon="-0.42114283097609734"><ele>186.0</ele><time>2026-05-03T08:46:45Z</time></trkpt><trkpt lat="43.3300938757308" lon="-0.4212393742811528"><ele>186.0</ele><time>2026-05-03T08:46:46Z</time></trkpt><trkpt lat="43.330112475597936" lon="-0.4213367792822391"><ele>186.0</ele><time>2026-05-03T08:46:47Z</time></trkpt><trkpt lat="43.33013749384006" lon="-0.42143184500510833"><ele>186.0</ele><time>2026-05-03T08:46:48Z</time></trkpt><trkpt lat="43.33015875468327" lon="-0.42152951843729697"><ele>186.0</ele><time>2026-05-03T08:46:49Z</time></trkpt><trkpt lat="43.33017657561209" lon="-0.42162689944732507"><ele>186.0</ele><time>2026-05-03T08:46:50Z</time></trkpt><trkpt lat="43.33018711774781" lon="-0.42172754216104447"><ele>186.0</ele><time>2026-05-03T08:46:51Z</time></trkpt><trkpt lat="43.33019897996282" lon="-0.42183202214149296"><ele>186.0</ele><time>2026-05-03T08:46:52Z</time></trkpt><trkpt lat="43.33021944198272" lon="-0.4219340301115183"><ele>186.0</ele><time>2026-05-03T08:46:53Z</time></trkpt><trkpt lat="43.33023306922958" lon="-0.4220364565797577"><ele>186.16666666666666</ele><time>2026-05-03T08:46:54Z</time></trkpt><trkpt lat="43.330250411425304" lon="-0.42223242317143483"><ele>186.33333333333334</ele><time>2026-05-03T08:46:56Z</time></trkpt><trkpt lat="43.33026566935911" lon="-0.4223298643414467"><ele>186.5</ele><time>2026-05-03T08:46:57Z</time></trkpt><trkpt lat="43.33028106070912" lon="-0.42243226804210243"><ele>186.66666666666669</ele><time>2026-05-03T08:46:58Z</time></trkpt><trkpt lat="43.33029270324698" lon="-0.42253049276307336"><ele>186.83333333333334</ele><time>2026-05-03T08:46:59Z</time></trkpt><trkpt lat="43.330304700403424" lon="-0.42263011011611284"><ele>187.0</ele><time>2026-05-03T08:47:00Z</time></trkpt><trkpt lat="43.33031879942985" lon="-0.42272975688776704"><ele>187.0</ele><time>2026-05-03T08:47:01Z</time></trkpt><trkpt lat="43.330331814746586" lon="-0.42283094222654943"><ele>187.0</ele><time>2026-05-03T08:47:02Z</time></trkpt><trkpt lat="43.330344790580625" lon="-0.422933413171727"><ele>187.0</ele><time>2026-05-03T08:47:03Z</time></trkpt><trkpt lat="43.3303570848552" lon="-0.4230347279155239"><ele>187.0</ele><time>2026-05-03T08:47:04Z</time></trkpt><trkpt lat="43.330370306401534" lon="-0.423134052052772"><ele>187.0</ele><time>2026-05-03T08:47:05Z</time></trkpt><trkpt lat="43.330383631876046" lon="-0.4232368755231495"><ele>187.0</ele><time>2026-05-03T08:47:06Z</time></trkpt><trkpt lat="43.33039720812519" lon="-0.42333304054781884"><ele>187.0</ele><time>2026-05-03T08:47:07Z</time></trkpt><trkpt lat="43.33040723392641" lon="-0.4234374974454819"><ele>187.16666666666669</ele><time>2026-05-03T08:47:08Z</time></trkpt><trkpt lat="43.33042031596215" lon="-0.423540271651975"><ele>187.33333333333334</ele><time>2026-05-03T08:47:09Z</time></trkpt><trkpt lat="43.33043416118371" lon="-0.42364514274233045"><ele>187.5</ele><time>2026-05-03T08:47:10Z</time></trkpt><trkpt lat="43.330448404172934" lon="-0.4237483051242499"><ele>187.66666666666666</ele><time>2026-05-03T08:47:11Z</time></trkpt><trkpt lat="43.33045895118168" lon="-0.4238502444290262"><ele>187.83333333333331</ele><time>2026-05-03T08:47:12Z</time></trkpt><trkpt lat="43.33047193413639" lon="-0.42395274503136937"><ele>188.0</ele><time>2026-05-03T08:47:13Z</time></trkpt><trkpt lat="43.33048413831757" lon="-0.4240535089995929"><ele>188.0</ele><time>2026-05-03T08:47:14Z</time></trkpt><trkpt lat="43.33049640136379" lon="-0.4241563079233037"><ele>188.0</ele><time>2026-05-03T08:47:15Z</time></trkpt><trkpt lat="43.33051318923147" lon="-0.42425559467841517"><ele>188.0</ele><time>2026-05-03T08:47:16Z</time></trkpt><trkpt lat="43.3305256525855" lon="-0.424357664818957"><ele>188.0</ele><time>2026-05-03T08:47:17Z</time></trkpt><trkpt lat="43.33053631182989" lon="-0.4244556621617367"><ele>188.0</ele><time>2026-05-03T08:47:18Z</time></trkpt><trkpt lat="43.33054676007421" lon="-0.4245446420131763"><ele>188.0</ele><time>2026-05-03T08:47:19Z</time></trkpt><trkpt lat="43.330579728662485" lon="-0.4246824942413979"><ele>188.0</ele><time>2026-05-03T08:47:21Z</time></trkpt><trkpt lat="43.33058370739299" lon="-0.4247902889332094"><ele>188.0</ele><time>2026-05-03T08:47:23Z</time></trkpt><trkpt lat="43.330600692315734" lon="-0.4248782226730056"><ele>188.0</ele><time>2026-05-03T08:47:25Z</time></trkpt><trkpt lat="43.330620228222664" lon="-0.42497936331172964"><ele>188.0</ele><time>2026-05-03T08:47:27Z</time></trkpt><trkpt lat="43.3306383134102" lon="-0.42507064993548127"><ele>188.0</ele><time>2026-05-03T08:47:29Z</time></trkpt><trkpt lat="43.33066394374733" lon="-0.42520362468741946"><ele>188.0</ele><time>2026-05-03T08:47:31Z</time></trkpt><trkpt lat="43.33069175386356" lon="-0.4253474138900427"><ele>187.8</ele><time>2026-05-03T08:47:33Z</time></trkpt><trkpt lat="43.33072239214782" lon="-0.4255058258245935"><ele>187.60000000000002</ele><time>2026-05-03T08:47:35Z</time></trkpt><trkpt lat="43.330753907887285" lon="-0.42566877457112645"><ele>187.39999999999998</ele><time>2026-05-03T08:47:37Z</time></trkpt><trkpt lat="43.330786727871015" lon="-0.42583846674946646"><ele>187.2</ele><time>2026-05-03T08:47:39Z</time></trkpt><trkpt lat="43.33081178283144" lon="-0.4259267216578093"><ele>187.0</ele><time>2026-05-03T08:47:40Z</time></trkpt><trkpt lat="43.33083566972625" lon="-0.42601057958372585"><ele>187.0</ele><time>2026-05-03T08:47:41Z</time></trkpt><trkpt lat="43.33085084383808" lon="-0.4260980792342614"><ele>187.0</ele><time>2026-05-03T08:47:42Z</time></trkpt><trkpt lat="43.33086691065342" lon="-0.4261873699191427"><ele>187.0</ele><time>2026-05-03T08:47:43Z</time></trkpt><trkpt lat="43.33088451065054" lon="-0.4262746456351023"><ele>187.0</ele><time>2026-05-03T08:47:44Z</time></trkpt><trkpt lat="43.33090038678485" lon="-0.4263655524385075"><ele>187.0</ele><time>2026-05-03T08:47:45Z</time></trkpt><trkpt lat="43.330918572098675" lon="-0.4264523935573252"><ele>187.0</ele><time>2026-05-03T08:47:46Z</time></trkpt><trkpt lat="43.330945432409905" lon="-0.42654179772340756"><ele>187.0</ele><time>2026-05-03T08:47:47Z</time></trkpt><trkpt lat="43.330975470876375" lon="-0.42662198524874634"><ele>186.7142857142857</ele><time>2026-05-03T08:47:48Z</time></trkpt><trkpt lat="43.3310051291395" lon="-0.4267061811436678"><ele>186.42857142857144</ele><time>2026-05-03T08:47:48.999Z</time></trkpt><trkpt lat="43.33104706507739" lon="-0.4267805039703546"><ele>186.14285714285714</ele><time>2026-05-03T08:47:49.999Z</time></trkpt><trkpt lat="43.331082334782884" lon="-0.42685887967624747"><ele>185.85714285714283</ele><time>2026-05-03T08:47:50.999Z</time></trkpt><trkpt lat="43.3311201427886" lon="-0.4269348603325408"><ele>185.57142857142856</ele><time>2026-05-03T08:47:51.999Z</time></trkpt><trkpt lat="43.331153825916815" lon="-0.4270164770968546"><ele>185.28571428571428</ele><time>2026-05-03T08:47:52.999Z</time></trkpt><trkpt lat="43.331182647359284" lon="-0.4270984207177152"><ele>185.0</ele><time>2026-05-03T08:47:53.999Z</time></trkpt><trkpt lat="43.33122795278929" lon="-0.4271704122270329"><ele>185.0</ele><time>2026-05-03T08:47:54.999Z</time></trkpt><trkpt lat="43.331262178686416" lon="-0.42724892616985577"><ele>185.0</ele><time>2026-05-03T08:47:55.999Z</time></trkpt><trkpt lat="43.331295759581" lon="-0.42733185658415646"><ele>185.0</ele><time>2026-05-03T08:47:56.999Z</time></trkpt><trkpt lat="43.33135276481325" lon="-0.4274529658514723"><ele>185.0</ele><time>2026-05-03T08:47:58.999Z</time></trkpt><trkpt lat="43.33140043961627" lon="-0.4275541531928618"><ele>185.0</ele><time>2026-05-03T08:48:00.999Z</time></trkpt><trkpt lat="43.331399002013285" lon="-0.4276452599250176"><ele>185.0</ele><time>2026-05-03T08:48:03.999Z</time></trkpt><trkpt lat="43.33141083958609" lon="-0.4277366387860032"><ele>185.0</ele><time>2026-05-03T08:48:05.999Z</time></trkpt><trkpt lat="43.3314600818317" lon="-0.42782286966395344"><ele>185.0</ele><time>2026-05-03T08:48:07.999Z</time></trkpt><trkpt lat="43.33151742563536" lon="-0.42792823257496143"><ele>185.0</ele><time>2026-05-03T08:48:09.999Z</time></trkpt><trkpt lat="43.33156912914504" lon="-0.4280449695624626"><ele>185.0</ele><time>2026-05-03T08:48:11.999Z</time></trkpt><trkpt lat="43.33162930723053" lon="-0.42817897623024215"><ele>185.0</ele><time>2026-05-03T08:48:13.999Z</time></trkpt><trkpt lat="43.33169643022852" lon="-0.4283133920249607"><ele>185.4</ele><time>2026-05-03T08:48:15.999Z</time></trkpt><trkpt lat="43.33177577531573" lon="-0.428438173047909"><ele>185.8</ele><time>2026-05-03T08:48:17.999Z</time></trkpt><trkpt lat="43.33185167774077" lon="-0.42856692569959604"><ele>186.2</ele><time>2026-05-03T08:48:19.999Z</time></trkpt><trkpt lat="43.33189025891884" lon="-0.42863927308081623"><ele>186.6</ele><time>2026-05-03T08:48:20.999Z</time></trkpt><trkpt lat="43.33196256060267" lon="-0.42877818132898005"><ele>187.0</ele><time>2026-05-03T08:48:23Z</time></trkpt><trkpt lat="43.33199835408901" lon="-0.4288549413233073"><ele>187.0</ele><time>2026-05-03T08:48:24Z</time></trkpt><trkpt lat="43.332032410614495" lon="-0.42893163279468255"><ele>187.0</ele><time>2026-05-03T08:48:25Z</time></trkpt><trkpt lat="43.332067397559506" lon="-0.4290075963270868"><ele>187.0</ele><time>2026-05-03T08:48:26Z</time></trkpt><trkpt lat="43.332101165150924" lon="-0.4290900205640156"><ele>187.0</ele><time>2026-05-03T08:48:27Z</time></trkpt><trkpt lat="43.33215795465464" lon="-0.4292447932403792"><ele>187.0</ele><time>2026-05-03T08:48:29Z</time></trkpt><trkpt lat="43.3322102573102" lon="-0.42940028023804533"><ele>186.5</ele><time>2026-05-03T08:48:31Z</time></trkpt><trkpt lat="43.33228132871217" lon="-0.42952031428648857"><ele>186.0</ele><time>2026-05-03T08:48:33Z</time></trkpt><trkpt lat="43.33235865290584" lon="-0.4296417791759833"><ele>185.5</ele><time>2026-05-03T08:48:35Z</time></trkpt><trkpt lat="43.332447234085535" lon="-0.4297441222715952"><ele>185.0</ele><time>2026-05-03T08:48:37Z</time></trkpt><trkpt lat="43.332515589377294" lon="-0.4298610490069084"><ele>185.0</ele><time>2026-05-03T08:48:39Z</time></trkpt><trkpt lat="43.33257716926439" lon="-0.42997662373851625"><ele>185.0</ele><time>2026-05-03T08:48:41Z</time></trkpt><trkpt lat="43.33262484455939" lon="-0.4300925325380689"><ele>185.0</ele><time>2026-05-03T08:48:43Z</time></trkpt><trkpt lat="43.33264343861488" lon="-0.43019930474129464"><ele>185.0</ele><time>2026-05-03T08:48:45Z</time></trkpt><trkpt lat="43.33260103886847" lon="-0.4302635777596009"><ele>185.0</ele><time>2026-05-03T08:48:46Z</time></trkpt><trkpt lat="43.33256679477931" lon="-0.4303764052123343"><ele>185.0</ele><time>2026-05-03T08:48:48Z</time></trkpt><trkpt lat="43.33255267204388" lon="-0.4305038628139368"><ele>184.5</ele><time>2026-05-03T08:48:50Z</time></trkpt><trkpt lat="43.33253420605702" lon="-0.43063063470485224"><ele>184.0</ele><time>2026-05-03T08:48:52Z</time></trkpt><trkpt lat="43.33249165973969" lon="-0.43072416498064653"><ele>183.5</ele><time>2026-05-03T08:48:54Z</time></trkpt><trkpt lat="43.33246978306839" lon="-0.4308370814776012"><ele>183.0</ele><time>2026-05-03T08:48:56Z</time></trkpt><trkpt lat="43.332415045651146" lon="-0.4309123444164745"><ele>182.5</ele><time>2026-05-03T08:48:58Z</time></trkpt><trkpt lat="43.33236345893345" lon="-0.43098327590512053"><ele>182.0</ele><time>2026-05-03T08:49:00Z</time></trkpt><trkpt lat="43.332304531877185" lon="-0.4310575400978421"><ele>181.39999999999998</ele><time>2026-05-03T08:49:02Z</time></trkpt><trkpt lat="43.332216021403895" lon="-0.4311184749504839"><ele>180.79999999999998</ele><time>2026-05-03T08:49:04Z</time></trkpt><trkpt lat="43.332132124408076" lon="-0.43117210727800415"><ele>180.2</ele><time>2026-05-03T08:49:06Z</time></trkpt><trkpt lat="43.332046622502375" lon="-0.43126412937959974"><ele>179.6</ele><time>2026-05-03T08:49:08Z</time></trkpt><trkpt lat="43.331981271067335" lon="-0.4312828766915112"><ele>179.0</ele><time>2026-05-03T08:49:09Z</time></trkpt><trkpt lat="43.331883971674756" lon="-0.43134554193212615"><ele>178.66666666666666</ele><time>2026-05-03T08:49:11Z</time></trkpt><trkpt lat="43.33180596007478" lon="-0.4313847877017992"><ele>178.33333333333331</ele><time>2026-05-03T08:49:13Z</time></trkpt><trkpt lat="43.33173839762967" lon="-0.43143134672072214"><ele>178.0</ele><time>2026-05-03T08:49:15Z</time></trkpt><trkpt lat="43.33167225127009" lon="-0.4314846045029053"><ele>177.66666666666666</ele><time>2026-05-03T08:49:17Z</time></trkpt><trkpt lat="43.33159410055273" lon="-0.4315065981888753"><ele>177.33333333333334</ele><time>2026-05-03T08:49:19Z</time></trkpt><trkpt lat="43.33150763896495" lon="-0.4315500012470531"><ele>177.0</ele><time>2026-05-03T08:49:21Z</time></trkpt><trkpt lat="43.33140482172614" lon="-0.43153994587126915"><ele>173.5</ele><time>2026-05-03T08:49:23Z</time></trkpt><trkpt lat="43.331302389952384" lon="-0.4314810968272494"><ele>170.0</ele><time>2026-05-03T08:49:25Z</time></trkpt><trkpt lat="43.33122883237892" lon="-0.43137094581160634"><ele>166.5</ele><time>2026-05-03T08:49:27Z</time></trkpt><trkpt lat="43.331181435456664" lon="-0.4312244520727325"><ele>163.0</ele><time>2026-05-03T08:49:29Z</time></trkpt><trkpt lat="43.33113221316524" lon="-0.43106362525689423"><ele>163.0</ele><time>2026-05-03T08:49:31Z</time></trkpt><trkpt lat="43.331104339826595" lon="-0.4309747172366635"><ele>163.0</ele><time>2026-05-03T08:49:32Z</time></trkpt><trkpt lat="43.331075027615974" lon="-0.43089565786880174"><ele>163.0</ele><time>2026-05-03T08:49:33Z</time></trkpt><trkpt lat="43.33104316040696" lon="-0.43081842910209667"><ele>163.0</ele><time>2026-05-03T08:49:34Z</time></trkpt><trkpt lat="43.33099850337677" lon="-0.4306745010958219"><ele>163.0</ele><time>2026-05-03T08:49:36Z</time></trkpt><trkpt lat="43.33095234685534" lon="-0.4305387760978889"><ele>163.0</ele><time>2026-05-03T08:49:38Z</time></trkpt><trkpt lat="43.330920240000566" lon="-0.4304119504438641"><ele>163.5</ele><time>2026-05-03T08:49:40Z</time></trkpt><trkpt lat="43.33088751769789" lon="-0.4303054475765012"><ele>164.0</ele><time>2026-05-03T08:49:42Z</time></trkpt><trkpt lat="43.330849140228615" lon="-0.4302190811353894"><ele>164.5</ele><time>2026-05-03T08:49:44Z</time></trkpt><trkpt lat="43.330798936785826" lon="-0.4301302563987763"><ele>165.0</ele><time>2026-05-03T08:49:48Z</time></trkpt><trkpt lat="43.33083137027544" lon="-0.43023676219878965"><ele>165.5</ele><time>2026-05-03T08:49:51Z</time></trkpt><trkpt lat="43.330848057643195" lon="-0.43034057509715407"><ele>166.0</ele><time>2026-05-03T08:49:53Z</time></trkpt><trkpt lat="43.33088767930483" lon="-0.43043829065758077"><ele>165.5</ele><time>2026-05-03T08:49:55Z</time></trkpt><trkpt lat="43.33091601255821" lon="-0.43056237543601994"><ele>165.0</ele><time>2026-05-03T08:49:57Z</time></trkpt><trkpt lat="43.33094373786213" lon="-0.430720481240873"><ele>164.5</ele><time>2026-05-03T08:49:59Z</time></trkpt><trkpt lat="43.33096719995991" lon="-0.43080285482806824"><ele>164.0</ele><time>2026-05-03T08:50:00Z</time></trkpt><trkpt lat="43.33098157508289" lon="-0.4308918294784103"><ele>163.5</ele><time>2026-05-03T08:50:01Z</time></trkpt><trkpt lat="43.33100053571292" lon="-0.43097801129255775"><ele>163.0</ele><time>2026-05-03T08:50:02Z</time></trkpt><trkpt lat="43.33101794145849" lon="-0.431068206787986"><ele>163.0</ele><time>2026-05-03T08:50:03Z</time></trkpt><trkpt lat="43.33102983807855" lon="-0.4311535202596083"><ele>163.0</ele><time>2026-05-03T08:50:04Z</time></trkpt><trkpt lat="43.33103839005848" lon="-0.4312412842525637"><ele>163.0</ele><time>2026-05-03T08:50:05Z</time></trkpt><trkpt lat="43.331049057888045" lon="-0.43133055650747004"><ele>163.0</ele><time>2026-05-03T08:50:05.999Z</time></trkpt><trkpt lat="43.33105611565568" lon="-0.4314194856301539"><ele>163.0</ele><time>2026-05-03T08:50:06.999Z</time></trkpt><trkpt lat="43.331057306909756" lon="-0.43158490018727114"><ele>163.0</ele><time>2026-05-03T08:50:08.999Z</time></trkpt><trkpt lat="43.331062016257924" lon="-0.4317280911254485"><ele>162.85714285714286</ele><time>2026-05-03T08:50:10.999Z</time></trkpt><trkpt lat="43.3310621540759" lon="-0.43183024767350536"><ele>162.7142857142857</ele><time>2026-05-03T08:50:12.999Z</time></trkpt><trkpt lat="43.33098240078391" lon="-0.43191209583023704"><ele>162.57142857142856</ele><time>2026-05-03T08:50:14.999Z</time></trkpt><trkpt lat="43.3309262058653" lon="-0.43195356302880444"><ele>162.42857142857144</ele><time>2026-05-03T08:50:15.999Z</time></trkpt><trkpt lat="43.33087194091291" lon="-0.4320035063525245"><ele>162.28571428571428</ele><time>2026-05-03T08:50:16.999Z</time></trkpt><trkpt lat="43.330829924379415" lon="-0.4320683555965626"><ele>162.14285714285714</ele><time>2026-05-03T08:50:17.999Z</time></trkpt><trkpt lat="43.33080324122468" lon="-0.43216889349138105"><ele>162.0</ele><time>2026-05-03T08:50:18.999Z</time></trkpt><trkpt lat="43.330788051885904" lon="-0.43227275904766965"><ele>161.5</ele><time>2026-05-03T08:50:19.999Z</time></trkpt><trkpt lat="43.33077360681458" lon="-0.43237407289730373"><ele>161.0</ele><time>2026-05-03T08:50:20.999Z</time></trkpt><trkpt lat="43.33075528028205" lon="-0.4324741604186855"><ele>160.5</ele><time>2026-05-03T08:50:21.999Z</time></trkpt><trkpt lat="43.33073168363514" lon="-0.43257635908983794"><ele>160.0</ele><time>2026-05-03T08:50:22.999Z</time></trkpt><trkpt lat="43.330708520190484" lon="-0.4326743856472752"><ele>159.5</ele><time>2026-05-03T08:50:23.999Z</time></trkpt><trkpt lat="43.33068786641105" lon="-0.43277373918652173"><ele>159.0</ele><time>2026-05-03T08:50:24.999Z</time></trkpt><trkpt lat="43.330662838456114" lon="-0.4328727391904913"><ele>159.0</ele><time>2026-05-03T08:50:25.999Z</time></trkpt><trkpt lat="43.33064010437232" lon="-0.43296984331264204"><ele>159.0</ele><time>2026-05-03T08:50:26.999Z</time></trkpt><trkpt lat="43.33061905544335" lon="-0.4330690643972001"><ele>159.0</ele><time>2026-05-03T08:50:27.999Z</time></trkpt><trkpt lat="43.33060525090846" lon="-0.4331603824249886"><ele>159.0</ele><time>2026-05-03T08:50:29Z</time></trkpt><trkpt lat="43.330607831228264" lon="-0.433267278412315"><ele>159.0</ele><time>2026-05-03T08:50:30Z</time></trkpt><trkpt lat="43.33060234004772" lon="-0.43337000687465616"><ele>159.0</ele><time>2026-05-03T08:50:31Z</time></trkpt><trkpt lat="43.33059349007529" lon="-0.43347150237556553"><ele>159.0</ele><time>2026-05-03T08:50:32Z</time></trkpt><trkpt lat="43.330596201421706" lon="-0.4335746681339709"><ele>158.5</ele><time>2026-05-03T08:50:33Z</time></trkpt><trkpt lat="43.33060528141381" lon="-0.43367804381748837"><ele>158.0</ele><time>2026-05-03T08:50:34Z</time></trkpt><trkpt lat="43.33061374620224" lon="-0.4337811617556079"><ele>157.5</ele><time>2026-05-03T08:50:35Z</time></trkpt><trkpt lat="43.33062098817323" lon="-0.43388188361568175"><ele>157.0</ele><time>2026-05-03T08:50:36Z</time></trkpt><trkpt lat="43.330624214767475" lon="-0.43398666579501693"><ele>156.5</ele><time>2026-05-03T08:50:37Z</time></trkpt><trkpt lat="43.3306154870187" lon="-0.43418696747103674"><ele>156.0</ele><time>2026-05-03T08:50:39Z</time></trkpt><trkpt lat="43.33062005602402" lon="-0.43429094477420727"><ele>156.0</ele><time>2026-05-03T08:50:40Z</time></trkpt><trkpt lat="43.33061744266211" lon="-0.4343955631731585"><ele>156.0</ele><time>2026-05-03T08:50:41Z</time></trkpt><trkpt lat="43.330615635794096" lon="-0.4344972731016699"><ele>156.0</ele><time>2026-05-03T08:50:42Z</time></trkpt><trkpt lat="43.33061436213451" lon="-0.4346007596053729"><ele>156.0</ele><time>2026-05-03T08:50:43Z</time></trkpt><trkpt lat="43.33061236233054" lon="-0.4347053168922477"><ele>156.0</ele><time>2026-05-03T08:50:44Z</time></trkpt><trkpt lat="43.330611646247924" lon="-0.43480876438246163"><ele>156.0</ele><time>2026-05-03T08:50:45Z</time></trkpt><trkpt lat="43.33061140564643" lon="-0.434914713826947"><ele>156.0</ele><time>2026-05-03T08:50:46Z</time></trkpt><trkpt lat="43.33061337927084" lon="-0.435011001064618"><ele>156.0</ele><time>2026-05-03T08:50:47Z</time></trkpt><trkpt lat="43.33061188360275" lon="-0.4351128948162878"><ele>156.0</ele><time>2026-05-03T08:50:48Z</time></trkpt><trkpt lat="43.33060820105369" lon="-0.43521354337699975"><ele>156.0</ele><time>2026-05-03T08:50:49Z</time></trkpt><trkpt lat="43.33060790697871" lon="-0.43531530343760844"><ele>156.0</ele><time>2026-05-03T08:50:50Z</time></trkpt><trkpt lat="43.330613454466096" lon="-0.4354101515808315"><ele>156.0</ele><time>2026-05-03T08:50:51Z</time></trkpt><trkpt lat="43.33061436944608" lon="-0.43550813413773415"><ele>156.0</ele><time>2026-05-03T08:50:52Z</time></trkpt><trkpt lat="43.330614892303636" lon="-0.43560358048283776"><ele>156.0</ele><time>2026-05-03T08:50:53Z</time></trkpt><trkpt lat="43.330610849516624" lon="-0.4357052539300891"><ele>156.0</ele><time>2026-05-03T08:50:54Z</time></trkpt><trkpt lat="43.33060466746962" lon="-0.43580129514171373"><ele>156.0</ele><time>2026-05-03T08:50:55Z</time></trkpt><trkpt lat="43.33060380390781" lon="-0.4358883410891135"><ele>156.0</ele><time>2026-05-03T08:50:56Z</time></trkpt><trkpt lat="43.33060094982787" lon="-0.43598019704033353"><ele>156.0</ele><time>2026-05-03T08:50:57Z</time></trkpt><trkpt lat="43.3306170341875" lon="-0.43615151607400726"><ele>156.0</ele><time>2026-05-03T08:50:59Z</time></trkpt><trkpt lat="43.330628674434394" lon="-0.43624202670767726"><ele>156.33333333333334</ele><time>2026-05-03T08:51:00Z</time></trkpt><trkpt lat="43.33063690075296" lon="-0.43633636639384205"><ele>156.66666666666666</ele><time>2026-05-03T08:51:01Z</time></trkpt><trkpt lat="43.33064699019943" lon="-0.4364254543069159"><ele>157.0</ele><time>2026-05-03T08:51:02Z</time></trkpt><trkpt lat="43.33066446499593" lon="-0.4365695461130445"><ele>157.33333333333331</ele><time>2026-05-03T08:51:04Z</time></trkpt><trkpt lat="43.330681662273506" lon="-0.4366923833905634"><ele>157.66666666666666</ele><time>2026-05-03T08:51:06Z</time></trkpt><trkpt lat="43.330704675754575" lon="-0.43678586417410253"><ele>158.0</ele><time>2026-05-03T08:51:08Z</time></trkpt><trkpt lat="43.33077459794595" lon="-0.43681901899941405"><ele>158.0</ele><time>2026-05-03T08:51:10Z</time></trkpt><trkpt lat="43.33085473369059" lon="-0.4368794982345999"><ele>158.0</ele><time>2026-05-03T08:51:12Z</time></trkpt><trkpt lat="43.33090156650835" lon="-0.437011769203266"><ele>158.0</ele><time>2026-05-03T08:51:14Z</time></trkpt><trkpt lat="43.330950089767434" lon="-0.4371436266541086"><ele>158.0</ele><time>2026-05-03T08:51:16Z</time></trkpt><trkpt lat="43.33098082903104" lon="-0.4372242930437479"><ele>158.0</ele><time>2026-05-03T08:51:17Z</time></trkpt><trkpt lat="43.331049442267144" lon="-0.4373540531360699"><ele>157.8</ele><time>2026-05-03T08:51:19Z</time></trkpt><trkpt lat="43.331142448393955" lon="-0.43746060090533034"><ele>157.60000000000002</ele><time>2026-05-03T08:51:21Z</time></trkpt><trkpt lat="43.331201989510255" lon="-0.43749457648414636"><ele>157.39999999999998</ele><time>2026-05-03T08:51:22Z</time></trkpt><trkpt lat="43.33131171507525" lon="-0.4375559942209474"><ele>157.2</ele><time>2026-05-03T08:51:24Z</time></trkpt><trkpt lat="43.331428541488556" lon="-0.4376040502378238"><ele>157.0</ele><time>2026-05-03T08:51:26Z</time></trkpt><trkpt lat="43.331494829921866" lon="-0.43762371515492887"><ele>157.0</ele><time>2026-05-03T08:51:27Z</time></trkpt><trkpt lat="43.33159604720961" lon="-0.4376899687328226"><ele>157.0</ele><time>2026-05-03T08:51:29Z</time></trkpt><trkpt lat="43.331661488685604" lon="-0.43771246751796256"><ele>157.0</ele><time>2026-05-03T08:51:30Z</time></trkpt><trkpt lat="43.331725853757995" lon="-0.43771692924997907"><ele>157.0</ele><time>2026-05-03T08:51:31Z</time></trkpt><trkpt lat="43.331840714609655" lon="-0.43767143121033353"><ele>157.0</ele><time>2026-05-03T08:51:33Z</time></trkpt><trkpt lat="43.33190135384126" lon="-0.4376214939121683"><ele>157.0</ele><time>2026-05-03T08:51:34Z</time></trkpt><trkpt lat="43.33201108226927" lon="-0.43754900885180253"><ele>157.0</ele><time>2026-05-03T08:51:36Z</time></trkpt><trkpt lat="43.33213010714336" lon="-0.43750879128991443"><ele>157.0</ele><time>2026-05-03T08:51:38Z</time></trkpt><trkpt lat="43.33224624438746" lon="-0.43752063427252696"><ele>157.0</ele><time>2026-05-03T08:51:40Z</time></trkpt><trkpt lat="43.33235928411979" lon="-0.4375736879317876"><ele>157.0</ele><time>2026-05-03T08:51:42Z</time></trkpt><trkpt lat="43.33245908888252" lon="-0.437619101197075"><ele>157.4</ele><time>2026-05-03T08:51:44Z</time></trkpt><trkpt lat="43.33256574148957" lon="-0.43767619634285143"><ele>157.79999999999998</ele><time>2026-05-03T08:51:46Z</time></trkpt><trkpt lat="43.33265859747389" lon="-0.437750679059726"><ele>158.2</ele><time>2026-05-03T08:51:48Z</time></trkpt><trkpt lat="43.33275256682889" lon="-0.43777052501109437"><ele>158.6</ele><time>2026-05-03T08:51:50Z</time></trkpt><trkpt lat="43.33275441710073" lon="-0.43793291578767357"><ele>159.0</ele><time>2026-05-03T08:51:51Z</time></trkpt><trkpt lat="43.33276821801104" lon="-0.4380253150311281"><ele>159.0</ele><time>2026-05-03T08:51:52Z</time></trkpt><trkpt lat="43.33275207347903" lon="-0.43812252620002656"><ele>159.0</ele><time>2026-05-03T08:51:53Z</time></trkpt><trkpt lat="43.332768287145186" lon="-0.43822597107219"><ele>159.0</ele><time>2026-05-03T08:51:54Z</time></trkpt><trkpt lat="43.33277693275669" lon="-0.438329171090129"><ele>159.0</ele><time>2026-05-03T08:51:55Z</time></trkpt><trkpt lat="43.33277866966152" lon="-0.4384274490253935"><ele>159.0</ele><time>2026-05-03T08:51:56Z</time></trkpt><trkpt lat="43.33278390233601" lon="-0.43852445056887995"><ele>159.0</ele><time>2026-05-03T08:51:57Z</time></trkpt><trkpt lat="43.33278844857781" lon="-0.4386270194524582"><ele>159.0</ele><time>2026-05-03T08:51:58Z</time></trkpt><trkpt lat="43.33279741293419" lon="-0.4387302558807643"><ele>158.66666666666666</ele><time>2026-05-03T08:51:59Z</time></trkpt><trkpt lat="43.33280972262803" lon="-0.4388445548386973"><ele>158.33333333333334</ele><time>2026-05-03T08:52:00Z</time></trkpt><trkpt lat="43.33282776076374" lon="-0.43893968081734386"><ele>158.0</ele><time>2026-05-03T08:52:01Z</time></trkpt><trkpt lat="43.33283823357939" lon="-0.4390396894515625"><ele>157.66666666666669</ele><time>2026-05-03T08:52:02Z</time></trkpt><trkpt lat="43.33285231128174" lon="-0.43914101513357584"><ele>157.33333333333334</ele><time>2026-05-03T08:52:03Z</time></trkpt><trkpt lat="43.33285599271269" lon="-0.4392426108059006"><ele>157.0</ele><time>2026-05-03T08:52:04Z</time></trkpt><trkpt lat="43.33285250870384" lon="-0.4393411697742042"><ele>156.99999999999997</ele><time>2026-05-03T08:52:05Z</time></trkpt><trkpt lat="43.33282663626261" lon="-0.43944216390468815"><ele>157.0</ele><time>2026-05-03T08:52:06Z</time></trkpt><trkpt lat="43.33281230318919" lon="-0.43953856292027527"><ele>157.0</ele><time>2026-05-03T08:52:07Z</time></trkpt><trkpt lat="43.33278873141593" lon="-0.439624188495031"><ele>157.0</ele><time>2026-05-03T08:52:08Z</time></trkpt><trkpt lat="43.332771476522026" lon="-0.43972484308408133"><ele>157.0</ele><time>2026-05-03T08:52:09Z</time></trkpt><trkpt lat="43.332743369065234" lon="-0.43981563888759867"><ele>156.99999999999997</ele><time>2026-05-03T08:52:10Z</time></trkpt><trkpt lat="43.332724594405825" lon="-0.43990456321543225"><ele>157.0</ele><time>2026-05-03T08:52:11Z</time></trkpt><trkpt lat="43.332705544126945" lon="-0.4400023686361912"><ele>156.85714285714283</ele><time>2026-05-03T08:52:12Z</time></trkpt><trkpt lat="43.33268190223132" lon="-0.44010098635053896"><ele>156.71428571428572</ele><time>2026-05-03T08:52:13Z</time></trkpt><trkpt lat="43.332688487163566" lon="-0.44020134775853165"><ele>156.57142857142856</ele><time>2026-05-03T08:52:14Z</time></trkpt><trkpt lat="43.33268088356639" lon="-0.44029737912087874"><ele>156.42857142857142</ele><time>2026-05-03T08:52:15Z</time></trkpt><trkpt lat="43.33268989917485" lon="-0.44039444389142274"><ele>156.28571428571428</ele><time>2026-05-03T08:52:16Z</time></trkpt><trkpt lat="43.33270452517751" lon="-0.4404925195884692"><ele>156.14285714285714</ele><time>2026-05-03T08:52:17Z</time></trkpt><trkpt lat="43.33272606176073" lon="-0.44058592998022794"><ele>156.0</ele><time>2026-05-03T08:52:18Z</time></trkpt><trkpt lat="43.33275054306884" lon="-0.4406825734643189"><ele>156.0</ele><time>2026-05-03T08:52:19Z</time></trkpt><trkpt lat="43.33278327330889" lon="-0.44077015849359025"><ele>156.0</ele><time>2026-05-03T08:52:20Z</time></trkpt><trkpt lat="43.33280773781617" lon="-0.44086451217865763"><ele>156.0</ele><time>2026-05-03T08:52:21Z</time></trkpt><trkpt lat="43.332836569631546" lon="-0.44095294927759143"><ele>156.0</ele><time>2026-05-03T08:52:22Z</time></trkpt><trkpt lat="43.33286181239934" lon="-0.44104749153494055"><ele>156.0</ele><time>2026-05-03T08:52:23Z</time></trkpt><trkpt lat="43.33288451226132" lon="-0.44114353229025405"><ele>156.0</ele><time>2026-05-03T08:52:24Z</time></trkpt><trkpt lat="43.332905124856026" lon="-0.4412369562221309"><ele>156.0</ele><time>2026-05-03T08:52:25Z</time></trkpt><trkpt lat="43.33292516577711" lon="-0.44133138136326483"><ele>156.0</ele><time>2026-05-03T08:52:26Z</time></trkpt><trkpt lat="43.33295756975999" lon="-0.4414214594379036"><ele>156.0</ele><time>2026-05-03T08:52:27Z</time></trkpt><trkpt lat="43.33298519542515" lon="-0.44151563827986684"><ele>156.0</ele><time>2026-05-03T08:52:28Z</time></trkpt><trkpt lat="43.333009256543974" lon="-0.4416088378693768"><ele>156.0</ele><time>2026-05-03T08:52:29Z</time></trkpt><trkpt lat="43.33303585324132" lon="-0.4416965585766264"><ele>156.0</ele><time>2026-05-03T08:52:30Z</time></trkpt><trkpt lat="43.33306391404375" lon="-0.4417766285253755"><ele>156.0</ele><time>2026-05-03T08:52:31Z</time></trkpt><trkpt lat="43.333083363040075" lon="-0.4419194140775132"><ele>156.0</ele><time>2026-05-03T08:52:33Z</time></trkpt><trkpt lat="43.33310098822063" lon="-0.44203153706251463"><ele>156.0</ele><time>2026-05-03T08:52:35Z</time></trkpt><trkpt lat="43.33315195217025" lon="-0.4421314489086877"><ele>156.0</ele><time>2026-05-03T08:52:37Z</time></trkpt><trkpt lat="43.33308262190919" lon="-0.44221220065884403"><ele>156.0</ele><time>2026-05-03T08:52:41Z</time></trkpt><trkpt lat="43.33310562255397" lon="-0.44237389911031627"><ele>156.0</ele><time>2026-05-03T08:52:43Z</time></trkpt><trkpt lat="43.33312739573087" lon="-0.4425261739757398"><ele>155.66666666666666</ele><time>2026-05-03T08:52:45Z</time></trkpt><trkpt lat="43.33314578838376" lon="-0.4426915187127269"><ele>155.33333333333334</ele><time>2026-05-03T08:52:47Z</time></trkpt><trkpt lat="43.33315561201278" lon="-0.4427820122409053"><ele>155.0</ele><time>2026-05-03T08:52:48Z</time></trkpt><trkpt lat="43.33316797203608" lon="-0.4428767034600571"><ele>154.66666666666669</ele><time>2026-05-03T08:52:49Z</time></trkpt><trkpt lat="43.33317717946423" lon="-0.442976398192461"><ele>154.33333333333334</ele><time>2026-05-03T08:52:50Z</time></trkpt><trkpt lat="43.33318895454465" lon="-0.4430733547255817"><ele>154.0</ele><time>2026-05-03T08:52:51Z</time></trkpt><trkpt lat="43.33320159453066" lon="-0.4431701533739541"><ele>153.85714285714286</ele><time>2026-05-03T08:52:52Z</time></trkpt><trkpt lat="43.3332131911544" lon="-0.44327035072758086"><ele>153.71428571428572</ele><time>2026-05-03T08:52:53Z</time></trkpt><trkpt lat="43.33322436733226" lon="-0.4433702189431191"><ele>153.57142857142856</ele><time>2026-05-03T08:52:54Z</time></trkpt><trkpt lat="43.33323404685538" lon="-0.4434690449726892"><ele>153.42857142857144</ele><time>2026-05-03T08:52:55Z</time></trkpt><trkpt lat="43.33324882702328" lon="-0.4435690406558612"><ele>153.28571428571428</ele><time>2026-05-03T08:52:56Z</time></trkpt><trkpt lat="43.333263013166274" lon="-0.4436699663960488"><ele>153.14285714285714</ele><time>2026-05-03T08:52:57Z</time></trkpt><trkpt lat="43.333279168050524" lon="-0.4437699686733437"><ele>153.0</ele><time>2026-05-03T08:52:58Z</time></trkpt><trkpt lat="43.33329520293327" lon="-0.44387091349672736"><ele>153.0</ele><time>2026-05-03T08:52:59Z</time></trkpt><trkpt lat="43.33330775867334" lon="-0.4439702709959355"><ele>153.0</ele><time>2026-05-03T08:53:00Z</time></trkpt><trkpt lat="43.33332643254644" lon="-0.4440689828832345"><ele>153.0</ele><time>2026-05-03T08:53:01Z</time></trkpt><trkpt lat="43.33334375095743" lon="-0.4441717228598316"><ele>153.0</ele><time>2026-05-03T08:53:02Z</time></trkpt><trkpt lat="43.3333642687786" lon="-0.4442692065828414"><ele>153.0</ele><time>2026-05-03T08:53:03Z</time></trkpt><trkpt lat="43.33338773854272" lon="-0.4443665799084665"><ele>153.0</ele><time>2026-05-03T08:53:04Z</time></trkpt><trkpt lat="43.33340847113128" lon="-0.4444649782092026"><ele>153.0</ele><time>2026-05-03T08:53:05Z</time></trkpt><trkpt lat="43.33342686116573" lon="-0.4445611649630912"><ele>153.0</ele><time>2026-05-03T08:53:06Z</time></trkpt><trkpt lat="43.333446711390145" lon="-0.4446564156470741"><ele>153.0</ele><time>2026-05-03T08:53:07Z</time></trkpt><trkpt lat="43.333467452928915" lon="-0.44475194412322105"><ele>153.0</ele><time>2026-05-03T08:53:08Z</time></trkpt><trkpt lat="43.3334882620054" lon="-0.4448485599147127"><ele>153.0</ele><time>2026-05-03T08:53:09Z</time></trkpt><trkpt lat="43.333504798226905" lon="-0.44494629707084543"><ele>153.0</ele><time>2026-05-03T08:53:10Z</time></trkpt><trkpt lat="43.33352333908789" lon="-0.44504362736014547"><ele>153.0</ele><time>2026-05-03T08:53:11Z</time></trkpt><trkpt lat="43.333539299930266" lon="-0.44513803850986794"><ele>153.0</ele><time>2026-05-03T08:53:12Z</time></trkpt><trkpt lat="43.33355461790956" lon="-0.4452377193578793"><ele>153.0</ele><time>2026-05-03T08:53:13Z</time></trkpt><trkpt lat="43.33356418268148" lon="-0.44533727943646834"><ele>153.0</ele><time>2026-05-03T08:53:14Z</time></trkpt><trkpt lat="43.333564461706686" lon="-0.44543575204660524"><ele>153.0</ele><time>2026-05-03T08:53:15Z</time></trkpt><trkpt lat="43.33356156973052" lon="-0.4455374657935347"><ele>153.0</ele><time>2026-05-03T08:53:16Z</time></trkpt><trkpt lat="43.33355613578362" lon="-0.4456348802284971"><ele>153.0</ele><time>2026-05-03T08:53:17Z</time></trkpt><trkpt lat="43.333547644015994" lon="-0.4457350340532538"><ele>153.0</ele><time>2026-05-03T08:53:18Z</time></trkpt><trkpt lat="43.333534894066595" lon="-0.4458352404630467"><ele>153.0</ele><time>2026-05-03T08:53:19Z</time></trkpt><trkpt lat="43.33352730293295" lon="-0.4459346431719003"><ele>153.0</ele><time>2026-05-03T08:53:20Z</time></trkpt><trkpt lat="43.33351838166584" lon="-0.4460360397438484"><ele>153.0</ele><time>2026-05-03T08:53:21Z</time></trkpt><trkpt lat="43.333505704741114" lon="-0.44613609815815497"><ele>153.0</ele><time>2026-05-03T08:53:22Z</time></trkpt><trkpt lat="43.33349491550842" lon="-0.44623955370386614"><ele>153.0</ele><time>2026-05-03T08:53:23Z</time></trkpt><trkpt lat="43.33348707407118" lon="-0.44634180813529273"><ele>153.0</ele><time>2026-05-03T08:53:24Z</time></trkpt><trkpt lat="43.33348011678678" lon="-0.44644305456451777"><ele>153.0</ele><time>2026-05-03T08:53:25Z</time></trkpt><trkpt lat="43.33347202478005" lon="-0.4465474124691074"><ele>153.0</ele><time>2026-05-03T08:53:26Z</time></trkpt><trkpt lat="43.333466560731466" lon="-0.4466491448466984"><ele>152.83333333333334</ele><time>2026-05-03T08:53:27Z</time></trkpt><trkpt lat="43.33345676481318" lon="-0.4467555719242532"><ele>152.66666666666666</ele><time>2026-05-03T08:53:28Z</time></trkpt><trkpt lat="43.33345122694225" lon="-0.44685743679341666"><ele>152.5</ele><time>2026-05-03T08:53:29Z</time></trkpt><trkpt lat="43.333445163672216" lon="-0.4469600389717541"><ele>152.33333333333331</ele><time>2026-05-03T08:53:30Z</time></trkpt><trkpt lat="43.33344325410811" lon="-0.44706458308932834"><ele>152.16666666666666</ele><time>2026-05-03T08:53:31Z</time></trkpt><trkpt lat="43.33344490848611" lon="-0.44716962863072984"><ele>152.0</ele><time>2026-05-03T08:53:32Z</time></trkpt><trkpt lat="43.3334405530886" lon="-0.44727552277402627"><ele>151.66666666666666</ele><time>2026-05-03T08:53:33Z</time></trkpt><trkpt lat="43.333439718167966" lon="-0.44738267339369764"><ele>151.33333333333331</ele><time>2026-05-03T08:53:34Z</time></trkpt><trkpt lat="43.333440775347405" lon="-0.44748736279958573"><ele>151.0</ele><time>2026-05-03T08:53:35Z</time></trkpt><trkpt lat="43.33343650642695" lon="-0.44759532856599954"><ele>150.66666666666666</ele><time>2026-05-03T08:53:36Z</time></trkpt><trkpt lat="43.333435775501016" lon="-0.44770055692960115"><ele>150.33333333333334</ele><time>2026-05-03T08:53:37Z</time></trkpt><trkpt lat="43.33343242925087" lon="-0.4478046894610659"><ele>150.0</ele><time>2026-05-03T08:53:38Z</time></trkpt><trkpt lat="43.33342962846955" lon="-0.44790896940106"><ele>150.14285714285714</ele><time>2026-05-03T08:53:39Z</time></trkpt><trkpt lat="43.33343165505244" lon="-0.448007123881195"><ele>150.28571428571428</ele><time>2026-05-03T08:53:40Z</time></trkpt><trkpt lat="43.33343300276213" lon="-0.44810683209851376"><ele>150.42857142857144</ele><time>2026-05-03T08:53:41Z</time></trkpt><trkpt lat="43.333432024235364" lon="-0.44820992766835627"><ele>150.57142857142856</ele><time>2026-05-03T08:53:42Z</time></trkpt><trkpt lat="43.33342940780015" lon="-0.44831047219579007"><ele>150.71428571428572</ele><time>2026-05-03T08:53:43Z</time></trkpt><trkpt lat="43.33342372956965" lon="-0.44840770157146065"><ele>150.85714285714286</ele><time>2026-05-03T08:53:44Z</time></trkpt><trkpt lat="43.333419464741944" lon="-0.4485034673815209"><ele>151.0</ele><time>2026-05-03T08:53:45Z</time></trkpt><trkpt lat="43.33341692662771" lon="-0.44859854428877094"><ele>151.00000000000003</ele><time>2026-05-03T08:53:46Z</time></trkpt><trkpt lat="43.33341829642733" lon="-0.4486916474089241"><ele>151.0</ele><time>2026-05-03T08:53:47Z</time></trkpt><trkpt lat="43.33341963825391" lon="-0.44878332173676816"><ele>151.0</ele><time>2026-05-03T08:53:48Z</time></trkpt><trkpt lat="43.33342107306214" lon="-0.44888030066371826"><ele>151.0</ele><time>2026-05-03T08:53:49Z</time></trkpt><trkpt lat="43.33342643592604" lon="-0.4489804840277039"><ele>151.0</ele><time>2026-05-03T08:53:50Z</time></trkpt><trkpt lat="43.33342923446338" lon="-0.4490790941515164"><ele>151.00000000000003</ele><time>2026-05-03T08:53:51Z</time></trkpt><trkpt lat="43.33343656663241" lon="-0.449179031587382"><ele>151.0</ele><time>2026-05-03T08:53:52Z</time></trkpt><trkpt lat="43.33344007915313" lon="-0.44928197276769377"><ele>151.16666666666669</ele><time>2026-05-03T08:53:53Z</time></trkpt><trkpt lat="43.333451886447655" lon="-0.4493809382259948"><ele>151.33333333333334</ele><time>2026-05-03T08:53:54Z</time></trkpt><trkpt lat="43.33345795047439" lon="-0.44948532423430565"><ele>151.5</ele><time>2026-05-03T08:53:55Z</time></trkpt><trkpt lat="43.33345956069787" lon="-0.4495891865700013"><ele>151.66666666666666</ele><time>2026-05-03T08:53:56Z</time></trkpt><trkpt lat="43.33346058257349" lon="-0.4496949438650834"><ele>151.83333333333331</ele><time>2026-05-03T08:53:57Z</time></trkpt><trkpt lat="43.33346108951005" lon="-0.4497971703213628"><ele>152.0</ele><time>2026-05-03T08:53:58Z</time></trkpt><trkpt lat="43.33346224725172" lon="-0.4498982759452677"><ele>152.0</ele><time>2026-05-03T08:53:59Z</time></trkpt><trkpt lat="43.3334634117265" lon="-0.44999883287153764"><ele>152.0</ele><time>2026-05-03T08:54:00Z</time></trkpt><trkpt lat="43.33346361271349" lon="-0.45010501289079174"><ele>152.0</ele><time>2026-05-03T08:54:01Z</time></trkpt><trkpt lat="43.33345947220575" lon="-0.45020574015890863"><ele>152.0</ele><time>2026-05-03T08:54:02Z</time></trkpt><trkpt lat="43.33345824856071" lon="-0.4503071676385856"><ele>152.0</ele><time>2026-05-03T08:54:03Z</time></trkpt><trkpt lat="43.33345578731049" lon="-0.4504091935763889"><ele>152.0</ele><time>2026-05-03T08:54:04Z</time></trkpt><trkpt lat="43.333453641471536" lon="-0.4505172955519654"><ele>152.14285714285714</ele><time>2026-05-03T08:54:05Z</time></trkpt><trkpt lat="43.33345189657077" lon="-0.4506192044893283"><ele>152.2857142857143</ele><time>2026-05-03T08:54:06Z</time></trkpt><trkpt lat="43.333446346530536" lon="-0.4507223246297967"><ele>152.42857142857144</ele><time>2026-05-03T08:54:07Z</time></trkpt><trkpt lat="43.33344489659766" lon="-0.4508251647303439"><ele>152.57142857142856</ele><time>2026-05-03T08:54:08Z</time></trkpt><trkpt lat="43.33344333679688" lon="-0.45092959426726137"><ele>152.71428571428572</ele><time>2026-05-03T08:54:09Z</time></trkpt><trkpt lat="43.333441929415464" lon="-0.4510315653941973"><ele>152.85714285714286</ele><time>2026-05-03T08:54:10Z</time></trkpt><trkpt lat="43.33343886502875" lon="-0.4511342468324476"><ele>153.0</ele><time>2026-05-03T08:54:11Z</time></trkpt><trkpt lat="43.33342966758514" lon="-0.4512372222748251"><ele>153.57142857142856</ele><time>2026-05-03T08:54:12Z</time></trkpt><trkpt lat="43.333422923689845" lon="-0.4513393672627516"><ele>154.14285714285714</ele><time>2026-05-03T08:54:13Z</time></trkpt><trkpt lat="43.333421992577904" lon="-0.4514405504217864"><ele>154.71428571428572</ele><time>2026-05-03T08:54:14Z</time></trkpt><trkpt lat="43.333423932553124" lon="-0.4515438160324411"><ele>155.28571428571428</ele><time>2026-05-03T08:54:15Z</time></trkpt><trkpt lat="43.33341135315078" lon="-0.4516446160415388"><ele>155.85714285714286</ele><time>2026-05-03T08:54:16Z</time></trkpt><trkpt lat="43.33339469913036" lon="-0.45174720737211704"><ele>156.42857142857142</ele><time>2026-05-03T08:54:17Z</time></trkpt><trkpt lat="43.33337343751296" lon="-0.45184219647582763"><ele>157.0</ele><time>2026-05-03T08:54:18Z</time></trkpt><trkpt lat="43.333360494220614" lon="-0.45194094433295157"><ele>156.99999999999997</ele><time>2026-05-03T08:54:19Z</time></trkpt><trkpt lat="43.33334978770111" lon="-0.45203757779845133"><ele>157.0</ele><time>2026-05-03T08:54:20Z</time></trkpt><trkpt lat="43.333336622369" lon="-0.45213407660166793"><ele>157.0</ele><time>2026-05-03T08:54:21Z</time></trkpt><trkpt lat="43.33332497235207" lon="-0.45223203237375026"><ele>157.0</ele><time>2026-05-03T08:54:22Z</time></trkpt><trkpt lat="43.33330978766457" lon="-0.45233003961817964"><ele>157.0</ele><time>2026-05-03T08:54:23Z</time></trkpt><trkpt lat="43.33329946725188" lon="-0.4524221840639938"><ele>156.99999999999997</ele><time>2026-05-03T08:54:24Z</time></trkpt><trkpt lat="43.33329051319734" lon="-0.452518250846877"><ele>157.0</ele><time>2026-05-03T08:54:25Z</time></trkpt><trkpt lat="43.33328107655882" lon="-0.4526148887874573"><ele>156.4</ele><time>2026-05-03T08:54:26Z</time></trkpt><trkpt lat="43.33326831151434" lon="-0.45270610084225277"><ele>155.79999999999998</ele><time>2026-05-03T08:54:27Z</time></trkpt><trkpt lat="43.33324549287635" lon="-0.4528422267997745"><ele>155.2</ele><time>2026-05-03T08:54:29Z</time></trkpt><trkpt lat="43.33319742507911" lon="-0.4530765580843007"><ele>154.6</ele><time>2026-05-03T08:55:24Z</time></trkpt><trkpt lat="43.33319058774923" lon="-0.45319063414828736"><ele>154.0</ele><time>2026-05-03T08:55:26Z</time></trkpt><trkpt lat="43.333234563168766" lon="-0.45332523269697117"><ele>154.0</ele><time>2026-05-03T08:55:28Z</time></trkpt><trkpt lat="43.333311370133366" lon="-0.45344671224545846"><ele>154.0</ele><time>2026-05-03T08:55:30Z</time></trkpt><trkpt lat="43.3333915028497" lon="-0.45358234463785624"><ele>154.0</ele><time>2026-05-03T08:55:32Z</time></trkpt><trkpt lat="43.33346837947813" lon="-0.45373232324860857"><ele>154.0</ele><time>2026-05-03T08:55:34Z</time></trkpt><trkpt lat="43.33351193398801" lon="-0.45380450534720806"><ele>154.0</ele><time>2026-05-03T08:55:35Z</time></trkpt><trkpt lat="43.33355346084092" lon="-0.4538863135191962"><ele>153.57142857142858</ele><time>2026-05-03T08:55:36Z</time></trkpt><trkpt lat="43.333593912451875" lon="-0.4539654925012733"><ele>153.14285714285714</ele><time>2026-05-03T08:55:37Z</time></trkpt><trkpt lat="43.33363844015168" lon="-0.4540489968571764"><ele>152.71428571428572</ele><time>2026-05-03T08:55:38Z</time></trkpt><trkpt lat="43.333683775936066" lon="-0.4541293377317682"><ele>152.28571428571428</ele><time>2026-05-03T08:55:39Z</time></trkpt><trkpt lat="43.333730598987366" lon="-0.4542079690055286"><ele>151.85714285714286</ele><time>2026-05-03T08:55:40Z</time></trkpt><trkpt lat="43.333779403934486" lon="-0.45428844219141795"><ele>151.42857142857144</ele><time>2026-05-03T08:55:41Z</time></trkpt><trkpt lat="43.33382356088024" lon="-0.45437349398821414"><ele>151.0</ele><time>2026-05-03T08:55:42Z</time></trkpt><trkpt lat="43.33386838530547" lon="-0.45445579445829426"><ele>151.0</ele><time>2026-05-03T08:55:43Z</time></trkpt><trkpt lat="43.33391468706093" lon="-0.454535391130511"><ele>151.0</ele><time>2026-05-03T08:55:44Z</time></trkpt><trkpt lat="43.33395861930277" lon="-0.45461843904274685"><ele>151.0</ele><time>2026-05-03T08:55:45Z</time></trkpt><trkpt lat="43.334001341573604" lon="-0.45470044710045215"><ele>151.0</ele><time>2026-05-03T08:55:46Z</time></trkpt><trkpt lat="43.3340449612824" lon="-0.4547886489545063"><ele>151.0</ele><time>2026-05-03T08:55:47Z</time></trkpt><trkpt lat="43.334089078790925" lon="-0.4548739743671277"><ele>151.0</ele><time>2026-05-03T08:55:48Z</time></trkpt><trkpt lat="43.334131613838366" lon="-0.4549582443305423"><ele>150.5</ele><time>2026-05-03T08:55:49Z</time></trkpt><trkpt lat="43.33417504261388" lon="-0.45504454483224327"><ele>150.0</ele><time>2026-05-03T08:55:50Z</time></trkpt><trkpt lat="43.334220742021486" lon="-0.4551268026364363"><ele>149.5</ele><time>2026-05-03T08:55:51Z</time></trkpt><trkpt lat="43.334267338428106" lon="-0.4552155327917761"><ele>149.0</ele><time>2026-05-03T08:55:52Z</time></trkpt><trkpt lat="43.33431526272069" lon="-0.4553017564585573"><ele>148.5</ele><time>2026-05-03T08:55:53Z</time></trkpt><trkpt lat="43.33436373820647" lon="-0.4553906969599333"><ele>148.0</ele><time>2026-05-03T08:55:54Z</time></trkpt><trkpt lat="43.33441316820507" lon="-0.455479378888596"><ele>148.0</ele><time>2026-05-03T08:55:55Z</time></trkpt><trkpt lat="43.334463416146605" lon="-0.4555654820678795"><ele>148.0</ele><time>2026-05-03T08:55:56Z</time></trkpt><trkpt lat="43.33451116055815" lon="-0.455656246459132"><ele>148.0</ele><time>2026-05-03T08:55:57Z</time></trkpt><trkpt lat="43.334560962278296" lon="-0.4557437227135262"><ele>148.0</ele><time>2026-05-03T08:55:58Z</time></trkpt><trkpt lat="43.33460683885504" lon="-0.455834735824339"><ele>148.0</ele><time>2026-05-03T08:55:59Z</time></trkpt><trkpt lat="43.334654530348416" lon="-0.4559241804078848"><ele>148.0</ele><time>2026-05-03T08:56:00Z</time></trkpt><trkpt lat="43.33470295752757" lon="-0.4560145410957447"><ele>148.0</ele><time>2026-05-03T08:56:01Z</time></trkpt><trkpt lat="43.334749379621485" lon="-0.456103993319148"><ele>148.0</ele><time>2026-05-03T08:56:02Z</time></trkpt><trkpt lat="43.33479638977794" lon="-0.45619325451358783"><ele>148.0</ele><time>2026-05-03T08:56:03Z</time></trkpt><trkpt lat="43.33484446570355" lon="-0.456282244297051"><ele>148.0</ele><time>2026-05-03T08:56:04Z</time></trkpt><trkpt lat="43.334892861581515" lon="-0.4563704918743034"><ele>148.0</ele><time>2026-05-03T08:56:05Z</time></trkpt><trkpt lat="43.33494139569818" lon="-0.456460551896214"><ele>148.0</ele><time>2026-05-03T08:56:06Z</time></trkpt><trkpt lat="43.33498942002478" lon="-0.4565496595375292"><ele>148.16666666666669</ele><time>2026-05-03T08:56:07Z</time></trkpt><trkpt lat="43.33504076193393" lon="-0.4566380640195949"><ele>148.33333333333334</ele><time>2026-05-03T08:56:08Z</time></trkpt><trkpt lat="43.335089158660985" lon="-0.4567314567656688"><ele>148.5</ele><time>2026-05-03T08:56:09Z</time></trkpt><trkpt lat="43.335137910837" lon="-0.45682698644072794"><ele>148.66666666666666</ele><time>2026-05-03T08:56:10Z</time></trkpt><trkpt lat="43.3351899643649" lon="-0.4569083863990022"><ele>148.83333333333331</ele><time>2026-05-03T08:56:11Z</time></trkpt><trkpt lat="43.33523602952156" lon="-0.45699977838813144"><ele>149.0</ele><time>2026-05-03T08:56:12Z</time></trkpt><trkpt lat="43.33528306254508" lon="-0.4570881127652563"><ele>149.0</ele><time>2026-05-03T08:56:13Z</time></trkpt><trkpt lat="43.33532743437825" lon="-0.4571805828773663"><ele>149.0</ele><time>2026-05-03T08:56:14Z</time></trkpt><trkpt lat="43.335376166198955" lon="-0.4572663734974346"><ele>149.0</ele><time>2026-05-03T08:56:15Z</time></trkpt><trkpt lat="43.335423127336604" lon="-0.45735553863552086"><ele>149.0</ele><time>2026-05-03T08:56:16Z</time></trkpt><trkpt lat="43.335469976947294" lon="-0.45744639836330075"><ele>149.0</ele><time>2026-05-03T08:56:17Z</time></trkpt><trkpt lat="43.33552180606021" lon="-0.45752664426773165"><ele>149.0</ele><time>2026-05-03T08:56:18Z</time></trkpt><trkpt lat="43.335567758589086" lon="-0.45761982365770515"><ele>148.5</ele><time>2026-05-03T08:56:19Z</time></trkpt><trkpt lat="43.33561396816455" lon="-0.4577124181190554"><ele>148.0</ele><time>2026-05-03T08:56:20Z</time></trkpt><trkpt lat="43.33566301046776" lon="-0.4577979764381694"><ele>147.5</ele><time>2026-05-03T08:56:21Z</time></trkpt><trkpt lat="43.33571084516965" lon="-0.45788783349213297"><ele>147.0</ele><time>2026-05-03T08:56:22Z</time></trkpt><trkpt lat="43.33575850297602" lon="-0.4579771073803699"><ele>146.5</ele><time>2026-05-03T08:56:23Z</time></trkpt><trkpt lat="43.33580626037451" lon="-0.45806590196743546"><ele>146.0</ele><time>2026-05-03T08:56:24Z</time></trkpt><trkpt lat="43.335855239678644" lon="-0.45815336951126717"><ele>145.66666666666666</ele><time>2026-05-03T08:56:25Z</time></trkpt><trkpt lat="43.33590455694217" lon="-0.45824005498394654"><ele>145.33333333333331</ele><time>2026-05-03T08:56:26Z</time></trkpt><trkpt lat="43.33595348697287" lon="-0.45832599299771015"><ele>145.0</ele><time>2026-05-03T08:56:27Z</time></trkpt><trkpt lat="43.33600190212199" lon="-0.45841685479827843"><ele>144.66666666666666</ele><time>2026-05-03T08:56:28Z</time></trkpt><trkpt lat="43.33605075414415" lon="-0.45850493586329816"><ele>144.33333333333334</ele><time>2026-05-03T08:56:29Z</time></trkpt><trkpt lat="43.33610009390123" lon="-0.45859213043813213"><ele>144.0</ele><time>2026-05-03T08:56:30Z</time></trkpt><trkpt lat="43.336148584812896" lon="-0.4586848473980624"><ele>144.0</ele><time>2026-05-03T08:56:31Z</time></trkpt><trkpt lat="43.336193932968335" lon="-0.45877595490638745"><ele>144.0</ele><time>2026-05-03T08:56:32Z</time></trkpt><trkpt lat="43.336238943910416" lon="-0.4588651250464851"><ele>144.0</ele><time>2026-05-03T08:56:33Z</time></trkpt><trkpt lat="43.33628063329587" lon="-0.45896190048119806"><ele>144.0</ele><time>2026-05-03T08:56:34Z</time></trkpt><trkpt lat="43.336317110158866" lon="-0.45906026976265774"><ele>144.0</ele><time>2026-05-03T08:56:35Z</time></trkpt><trkpt lat="43.3363480512629" lon="-0.45915908655356175"><ele>144.0</ele><time>2026-05-03T08:56:36Z</time></trkpt><trkpt lat="43.33638408713102" lon="-0.45925618867410256"><ele>144.16666666666666</ele><time>2026-05-03T08:56:37Z</time></trkpt><trkpt lat="43.33641707513071" lon="-0.4593508239912456"><ele>144.33333333333334</ele><time>2026-05-03T08:56:38Z</time></trkpt><trkpt lat="43.336430965227905" lon="-0.45945732917422655"><ele>144.5</ele><time>2026-05-03T08:56:39Z</time></trkpt><trkpt lat="43.336458874030434" lon="-0.4595511634774745"><ele>144.66666666666669</ele><time>2026-05-03T08:56:40Z</time></trkpt><trkpt lat="43.336486906009995" lon="-0.45964541115633284"><ele>144.83333333333334</ele><time>2026-05-03T08:56:41Z</time></trkpt><trkpt lat="43.33653871157784" lon="-0.4597179645154335"><ele>145.0</ele><time>2026-05-03T08:56:42Z</time></trkpt><trkpt lat="43.33660702958784" lon="-0.4598421248012277"><ele>145.0</ele><time>2026-05-03T08:56:44Z</time></trkpt><trkpt lat="43.336646449643496" lon="-0.45992365611251484"><ele>145.0</ele><time>2026-05-03T08:56:46Z</time></trkpt><trkpt lat="43.336694614042564" lon="-0.45998789939541634"><ele>145.0</ele><time>2026-05-03T08:56:50Z</time></trkpt><trkpt lat="43.336764577821235" lon="-0.4600540813663404"><ele>145.0</ele><time>2026-05-03T08:56:53Z</time></trkpt><trkpt lat="43.336841561300034" lon="-0.46009418516834394"><ele>145.0</ele><time>2026-05-03T08:56:55Z</time></trkpt><trkpt lat="43.33693288380131" lon="-0.46012036464369155"><ele>145.0</ele><time>2026-05-03T08:56:57Z</time></trkpt><trkpt lat="43.337018054007174" lon="-0.4602231933153589"><ele>145.0</ele><time>2026-05-03T08:56:59Z</time></trkpt><trkpt lat="43.3370724275007" lon="-0.4603674351367043"><ele>145.0</ele><time>2026-05-03T08:57:01Z</time></trkpt><trkpt lat="43.337082618416844" lon="-0.4604542219148477"><ele>145.0</ele><time>2026-05-03T08:57:02Z</time></trkpt><trkpt lat="43.33707225506694" lon="-0.46054617536328885"><ele>145.0</ele><time>2026-05-03T08:57:03Z</time></trkpt><trkpt lat="43.33705091360959" lon="-0.4606388516273327"><ele>145.0</ele><time>2026-05-03T08:57:04Z</time></trkpt><trkpt lat="43.337013806029354" lon="-0.4607215595307083"><ele>145.0</ele><time>2026-05-03T08:57:05Z</time></trkpt><trkpt lat="43.336959537844976" lon="-0.460785499631859"><ele>145.0</ele><time>2026-05-03T08:57:06Z</time></trkpt><trkpt lat="43.33689462007348" lon="-0.4608355982340826"><ele>145.0</ele><time>2026-05-03T08:57:07Z</time></trkpt><trkpt lat="43.336742773262266" lon="-0.4608640994781911"><ele>145.0</ele><time>2026-05-03T08:57:09Z</time></trkpt><trkpt lat="43.33666419380621" lon="-0.4608568381494046"><ele>145.0</ele><time>2026-05-03T08:57:10Z</time></trkpt><trkpt lat="43.33658825446054" lon="-0.4608362027206454"><ele>145.0</ele><time>2026-05-03T08:57:11Z</time></trkpt><trkpt lat="43.336511223844404" lon="-0.46081490570716216"><ele>145.0</ele><time>2026-05-03T08:57:12Z</time></trkpt><trkpt lat="43.336429436330555" lon="-0.46081413635243895"><ele>145.0</ele><time>2026-05-03T08:57:13Z</time></trkpt><trkpt lat="43.336349842796864" lon="-0.46084168968155825"><ele>145.0</ele><time>2026-05-03T08:57:14Z</time></trkpt><trkpt lat="43.336271591825664" lon="-0.4608820037545256"><ele>145.0</ele><time>2026-05-03T08:57:15Z</time></trkpt><trkpt lat="43.33620184350268" lon="-0.4609394770688995"><ele>145.0</ele><time>2026-05-03T08:57:16Z</time></trkpt><trkpt lat="43.33613348204331" lon="-0.4609890348996624"><ele>145.0</ele><time>2026-05-03T08:57:17Z</time></trkpt><trkpt lat="43.33606276343677" lon="-0.4610341505091495"><ele>145.16666666666669</ele><time>2026-05-03T08:57:18Z</time></trkpt><trkpt lat="43.33598967921231" lon="-0.4610739514970112"><ele>145.33333333333334</ele><time>2026-05-03T08:57:19Z</time></trkpt><trkpt lat="43.335919296244995" lon="-0.46111263708960626"><ele>145.5</ele><time>2026-05-03T08:57:20Z</time></trkpt><trkpt lat="43.33584719333909" lon="-0.4611488004876879"><ele>145.66666666666666</ele><time>2026-05-03T08:57:21Z</time></trkpt><trkpt lat="43.33578033506855" lon="-0.4611848505790686"><ele>145.83333333333331</ele><time>2026-05-03T08:57:22Z</time></trkpt><trkpt lat="43.33570946271395" lon="-0.46122351351172347"><ele>146.0</ele><time>2026-05-03T08:57:23Z</time></trkpt><trkpt lat="43.33564143084928" lon="-0.4612601230177848"><ele>146.0</ele><time>2026-05-03T08:57:24Z</time></trkpt><trkpt lat="43.33557407941109" lon="-0.4613023281201001"><ele>146.0</ele><time>2026-05-03T08:57:25Z</time></trkpt><trkpt lat="43.33551043073004" lon="-0.4613509915599494"><ele>146.0</ele><time>2026-05-03T08:57:26Z</time></trkpt><trkpt lat="43.33544484713874" lon="-0.46139869728752814"><ele>146.0</ele><time>2026-05-03T08:57:27Z</time></trkpt><trkpt lat="43.33538436244672" lon="-0.46145660614863165"><ele>146.0</ele><time>2026-05-03T08:57:28Z</time></trkpt><trkpt lat="43.335321508148425" lon="-0.46150927535465125"><ele>146.0</ele><time>2026-05-03T08:57:29Z</time></trkpt><trkpt lat="43.33526202394416" lon="-0.4615606358182357"><ele>146.0</ele><time>2026-05-03T08:57:30Z</time></trkpt><trkpt lat="43.335200382439304" lon="-0.46161761866741563"><ele>146.0</ele><time>2026-05-03T08:57:31Z</time></trkpt><trkpt lat="43.335140227744446" lon="-0.4616711038724753"><ele>146.0</ele><time>2026-05-03T08:57:32Z</time></trkpt><trkpt lat="43.33508286642861" lon="-0.46173018971101487"><ele>146.0</ele><time>2026-05-03T08:57:33Z</time></trkpt><trkpt lat="43.335022497266735" lon="-0.46178422618660864"><ele>146.0</ele><time>2026-05-03T08:57:34Z</time></trkpt><trkpt lat="43.334960664328136" lon="-0.46184235868912626"><ele>146.0</ele><time>2026-05-03T08:57:35Z</time></trkpt><trkpt lat="43.33490678216925" lon="-0.461902714778526"><ele>146.0</ele><time>2026-05-03T08:57:36Z</time></trkpt><trkpt lat="43.33484989689837" lon="-0.4619611576523559"><ele>146.0</ele><time>2026-05-03T08:57:37Z</time></trkpt><trkpt lat="43.33479236322896" lon="-0.46201941423232423"><ele>146.0</ele><time>2026-05-03T08:57:38Z</time></trkpt><trkpt lat="43.33473303714972" lon="-0.4620763458817801"><ele>146.0</ele><time>2026-05-03T08:57:39Z</time></trkpt><trkpt lat="43.33468047858796" lon="-0.46213383262157626"><ele>146.0</ele><time>2026-05-03T08:57:40Z</time></trkpt><trkpt lat="43.33462567381107" lon="-0.4621930891472701"><ele>146.0</ele><time>2026-05-03T08:57:41Z</time></trkpt><trkpt lat="43.334569764602534" lon="-0.46225046270999415"><ele>146.0</ele><time>2026-05-03T08:57:42Z</time></trkpt><trkpt lat="43.33451489276185" lon="-0.46230758276679135"><ele>146.0</ele><time>2026-05-03T08:57:43Z</time></trkpt><trkpt lat="43.334461431615836" lon="-0.46236702397801316"><ele>146.0</ele><time>2026-05-03T08:57:44Z</time></trkpt><trkpt lat="43.334406799526136" lon="-0.46242779520409033"><ele>146.14285714285714</ele><time>2026-05-03T08:57:45Z</time></trkpt><trkpt lat="43.33435614232866" lon="-0.46248520156284195"><ele>146.28571428571428</ele><time>2026-05-03T08:57:46Z</time></trkpt><trkpt lat="43.3343038998246" lon="-0.4625443791263114"><ele>146.42857142857144</ele><time>2026-05-03T08:57:47Z</time></trkpt><trkpt lat="43.33425198771679" lon="-0.4626044589110242"><ele>146.57142857142856</ele><time>2026-05-03T08:57:48Z</time></trkpt><trkpt lat="43.33420115373743" lon="-0.46266177049074186"><ele>146.71428571428572</ele><time>2026-05-03T08:57:49Z</time></trkpt><trkpt lat="43.334149426069615" lon="-0.4627226025282623"><ele>146.85714285714286</ele><time>2026-05-03T08:57:50Z</time></trkpt><trkpt lat="43.33409850728387" lon="-0.4627849541282958"><ele>147.0</ele><time>2026-05-03T08:57:51Z</time></trkpt><trkpt lat="43.33404611393243" lon="-0.46284125321507674"><ele>147.0</ele><time>2026-05-03T08:57:52Z</time></trkpt><trkpt lat="43.33399623824337" lon="-0.46289778969810474"><ele>147.0</ele><time>2026-05-03T08:57:53Z</time></trkpt><trkpt lat="43.33394562490446" lon="-0.462957438087188"><ele>147.0</ele><time>2026-05-03T08:57:54Z</time></trkpt><trkpt lat="43.33389717030754" lon="-0.4630154267431985"><ele>147.0</ele><time>2026-05-03T08:57:55Z</time></trkpt><trkpt lat="43.333847444880305" lon="-0.46307608983087306"><ele>147.0</ele><time>2026-05-03T08:57:56Z</time></trkpt><trkpt lat="43.333796893647815" lon="-0.4631344763674988"><ele>147.0</ele><time>2026-05-03T08:57:57Z</time></trkpt><trkpt lat="43.333749389059456" lon="-0.46319317303401086"><ele>147.0</ele><time>2026-05-03T08:57:58Z</time></trkpt><trkpt lat="43.333695658785906" lon="-0.463250730624836"><ele>147.28571428571428</ele><time>2026-05-03T08:57:59Z</time></trkpt><trkpt lat="43.333649220626754" lon="-0.46331148847632275"><ele>147.57142857142856</ele><time>2026-05-03T08:58:00Z</time></trkpt><trkpt lat="43.33359745932297" lon="-0.4633705422101431"><ele>147.85714285714286</ele><time>2026-05-03T08:58:01Z</time></trkpt><trkpt lat="43.333545912412056" lon="-0.4634295077536176"><ele>148.14285714285714</ele><time>2026-05-03T08:58:02Z</time></trkpt><trkpt lat="43.33349334638562" lon="-0.46349206575614954"><ele>148.42857142857142</ele><time>2026-05-03T08:58:03Z</time></trkpt><trkpt lat="43.333442077648556" lon="-0.4635547355368097"><ele>148.71428571428572</ele><time>2026-05-03T08:58:04Z</time></trkpt><trkpt lat="43.33339314461211" lon="-0.4636154474592329"><ele>149.0</ele><time>2026-05-03T08:58:05Z</time></trkpt><trkpt lat="43.33334258996647" lon="-0.4636743776551865"><ele>149.0</ele><time>2026-05-03T08:58:06Z</time></trkpt><trkpt lat="43.333291151513265" lon="-0.4637338072278319"><ele>149.0</ele><time>2026-05-03T08:58:07Z</time></trkpt><trkpt lat="43.33324072042661" lon="-0.46379322595731154"><ele>149.0</ele><time>2026-05-03T08:58:08Z</time></trkpt><trkpt lat="43.33318878397787" lon="-0.4638523921389655"><ele>149.0</ele><time>2026-05-03T08:58:09Z</time></trkpt><trkpt lat="43.33313690727224" lon="-0.46391194603587715"><ele>149.0</ele><time>2026-05-03T08:58:10Z</time></trkpt><trkpt lat="43.33308577943043" lon="-0.46397379087124524"><ele>149.0</ele><time>2026-05-03T08:58:11Z</time></trkpt><trkpt lat="43.33303342836846" lon="-0.4640336748147608"><ele>149.0</ele><time>2026-05-03T08:58:12Z</time></trkpt><trkpt lat="43.33298363814983" lon="-0.46409296971594405"><ele>148.85714285714286</ele><time>2026-05-03T08:58:13Z</time></trkpt><trkpt lat="43.33293041799233" lon="-0.46415139571167646"><ele>148.7142857142857</ele><time>2026-05-03T08:58:14Z</time></trkpt><trkpt lat="43.332877162486554" lon="-0.4642089037016027"><ele>148.57142857142856</ele><time>2026-05-03T08:58:15Z</time></trkpt><trkpt lat="43.33282638855413" lon="-0.4642652615032301"><ele>148.42857142857142</ele><time>2026-05-03T08:58:16Z</time></trkpt><trkpt lat="43.33276953289221" lon="-0.46432166882028264"><ele>148.28571428571428</ele><time>2026-05-03T08:58:17Z</time></trkpt><trkpt lat="43.33271304823816" lon="-0.4643747090926973"><ele>148.14285714285714</ele><time>2026-05-03T08:58:18Z</time></trkpt><trkpt lat="43.332656270452986" lon="-0.46442853164486336"><ele>148.0</ele><time>2026-05-03T08:58:19Z</time></trkpt><trkpt lat="43.33259992547512" lon="-0.4644790418470782"><ele>148.0</ele><time>2026-05-03T08:58:20Z</time></trkpt><trkpt lat="43.33254084065115" lon="-0.46452830710934323"><ele>148.0</ele><time>2026-05-03T08:58:21Z</time></trkpt><trkpt lat="43.33248360128424" lon="-0.46457485150111577"><ele>148.0</ele><time>2026-05-03T08:58:22Z</time></trkpt><trkpt lat="43.33242123360214" lon="-0.4646191334297262"><ele>148.0</ele><time>2026-05-03T08:58:23Z</time></trkpt><trkpt lat="43.3323630918438" lon="-0.4646661320901075"><ele>148.0</ele><time>2026-05-03T08:58:24Z</time></trkpt><trkpt lat="43.332300126058406" lon="-0.4647118200779953"><ele>148.0</ele><time>2026-05-03T08:58:25Z</time></trkpt><trkpt lat="43.33224093716533" lon="-0.46476032720998767"><ele>148.0</ele><time>2026-05-03T08:58:26Z</time></trkpt><trkpt lat="43.33218064163675" lon="-0.4648041063513854"><ele>147.71428571428572</ele><time>2026-05-03T08:58:27Z</time></trkpt><trkpt lat="43.332119966530534" lon="-0.4648509593093194"><ele>147.42857142857142</ele><time>2026-05-03T08:58:28Z</time></trkpt><trkpt lat="43.33205739980314" lon="-0.4648965879633575"><ele>147.14285714285714</ele><time>2026-05-03T08:58:29Z</time></trkpt><trkpt lat="43.331996296800504" lon="-0.46494502047193115"><ele>146.85714285714286</ele><time>2026-05-03T08:58:30Z</time></trkpt><trkpt lat="43.33193438612531" lon="-0.4649903823867061"><ele>146.57142857142858</ele><time>2026-05-03T08:58:31Z</time></trkpt><trkpt lat="43.33187109017368" lon="-0.46503902967019767"><ele>146.28571428571428</ele><time>2026-05-03T08:58:32Z</time></trkpt><trkpt lat="43.33180946310105" lon="-0.46508724063995555"><ele>146.0</ele><time>2026-05-03T08:58:33Z</time></trkpt><trkpt lat="43.33174533653654" lon="-0.4651363167729921"><ele>146.0</ele><time>2026-05-03T08:58:34Z</time></trkpt><trkpt lat="43.33168198673485" lon="-0.4651828388005853"><ele>146.0</ele><time>2026-05-03T08:58:35Z</time></trkpt><trkpt lat="43.33162043967827" lon="-0.46522934915574116"><ele>146.0</ele><time>2026-05-03T08:58:36Z</time></trkpt><trkpt lat="43.331556734805794" lon="-0.4652780207376672"><ele>146.0</ele><time>2026-05-03T08:58:37Z</time></trkpt><trkpt lat="43.331494963470284" lon="-0.46532340908126624"><ele>146.0</ele><time>2026-05-03T08:58:38Z</time></trkpt><trkpt lat="43.33143366013479" lon="-0.46537548774888504"><ele>146.0</ele><time>2026-05-03T08:58:39Z</time></trkpt><trkpt lat="43.331368232252004" lon="-0.46541883707732257"><ele>146.0</ele><time>2026-05-03T08:58:40Z</time></trkpt><trkpt lat="43.33131068978795" lon="-0.4654658865805023"><ele>146.28571428571428</ele><time>2026-05-03T08:58:41Z</time></trkpt><trkpt lat="43.33124702740192" lon="-0.4655130893523476"><ele>146.57142857142858</ele><time>2026-05-03T08:58:42Z</time></trkpt><trkpt lat="43.33117980508338" lon="-0.4655585779188798"><ele>146.85714285714286</ele><time>2026-05-03T08:58:43Z</time></trkpt><trkpt lat="43.33111926434232" lon="-0.46560456687458834"><ele>147.14285714285714</ele><time>2026-05-03T08:58:44Z</time></trkpt><trkpt lat="43.33105628935596" lon="-0.46564983479971256"><ele>147.42857142857142</ele><time>2026-05-03T08:58:45Z</time></trkpt><trkpt lat="43.33100196763965" lon="-0.4656999336133081"><ele>147.71428571428572</ele><time>2026-05-03T08:58:46Z</time></trkpt><trkpt lat="43.33094311585731" lon="-0.4657477721598626"><ele>148.0</ele><time>2026-05-03T08:58:47Z</time></trkpt><trkpt lat="43.33087816830923" lon="-0.46578870410037165"><ele>148.0</ele><time>2026-05-03T08:58:48Z</time></trkpt><trkpt lat="43.33081640495326" lon="-0.4658329845145902"><ele>148.0</ele><time>2026-05-03T08:58:49Z</time></trkpt><trkpt lat="43.33075652785844" lon="-0.46587942168082314"><ele>148.0</ele><time>2026-05-03T08:58:50Z</time></trkpt><trkpt lat="43.33069414206686" lon="-0.46592519959871237"><ele>148.0</ele><time>2026-05-03T08:58:51Z</time></trkpt><trkpt lat="43.330631560995386" lon="-0.46597198639143206"><ele>148.0</ele><time>2026-05-03T08:58:52Z</time></trkpt><trkpt lat="43.330571596510445" lon="-0.4660245236380531"><ele>148.0</ele><time>2026-05-03T08:58:53Z</time></trkpt><trkpt lat="43.33050821644651" lon="-0.4660748849409729"><ele>148.0</ele><time>2026-05-03T08:58:54Z</time></trkpt><trkpt lat="43.330446526892324" lon="-0.4661284059992746"><ele>148.14285714285714</ele><time>2026-05-03T08:58:55Z</time></trkpt><trkpt lat="43.330385856993075" lon="-0.46617953027109293"><ele>148.28571428571428</ele><time>2026-05-03T08:58:56Z</time></trkpt><trkpt lat="43.330327788190516" lon="-0.46623237959794406"><ele>148.42857142857142</ele><time>2026-05-03T08:58:57Z</time></trkpt><trkpt lat="43.330268325726315" lon="-0.4662900416680095"><ele>148.57142857142856</ele><time>2026-05-03T08:58:58Z</time></trkpt><trkpt lat="43.330208539421804" lon="-0.466350214869444"><ele>148.7142857142857</ele><time>2026-05-03T08:58:59Z</time></trkpt><trkpt lat="43.330147161044295" lon="-0.46640932691365766"><ele>148.85714285714286</ele><time>2026-05-03T08:59:00Z</time></trkpt><trkpt lat="43.33008866321206" lon="-0.46647256200068943"><ele>149.0</ele><time>2026-05-03T08:59:01Z</time></trkpt><trkpt lat="43.330029553803705" lon="-0.46653478545391436"><ele>149.0</ele><time>2026-05-03T08:59:02Z</time></trkpt><trkpt lat="43.32997243708575" lon="-0.46660066519601495"><ele>149.0</ele><time>2026-05-03T08:59:03Z</time></trkpt><trkpt lat="43.32991424845377" lon="-0.4666667137009277"><ele>149.0</ele><time>2026-05-03T08:59:04Z</time></trkpt><trkpt lat="43.32985388918957" lon="-0.4667277069823998"><ele>149.0</ele><time>2026-05-03T08:59:05Z</time></trkpt><trkpt lat="43.32979429322106" lon="-0.46679032750448346"><ele>149.0</ele><time>2026-05-03T08:59:06Z</time></trkpt><trkpt lat="43.32973458211606" lon="-0.4668554572937548"><ele>149.0</ele><time>2026-05-03T08:59:07Z</time></trkpt><trkpt lat="43.329676045459266" lon="-0.4669201373631723"><ele>149.28571428571428</ele><time>2026-05-03T08:59:08Z</time></trkpt><trkpt lat="43.329618022338714" lon="-0.4669855872014224"><ele>149.57142857142856</ele><time>2026-05-03T08:59:09Z</time></trkpt><trkpt lat="43.32955959745592" lon="-0.4670461366306005"><ele>149.85714285714286</ele><time>2026-05-03T08:59:10Z</time></trkpt><trkpt lat="43.32950269081943" lon="-0.46710851818446186"><ele>150.14285714285714</ele><time>2026-05-03T08:59:11Z</time></trkpt><trkpt lat="43.32943708433047" lon="-0.4671628883381339"><ele>150.42857142857144</ele><time>2026-05-03T08:59:12Z</time></trkpt><trkpt lat="43.32937228793629" lon="-0.4672240256998122"><ele>150.71428571428572</ele><time>2026-05-03T08:59:13Z</time></trkpt><trkpt lat="43.32931827077985" lon="-0.46727966989337494"><ele>151.0</ele><time>2026-05-03T08:59:14Z</time></trkpt><trkpt lat="43.32926420567331" lon="-0.46735025580342865"><ele>151.00000000000003</ele><time>2026-05-03T08:59:15Z</time></trkpt><trkpt lat="43.32920751924239" lon="-0.46741616588582446"><ele>151.0</ele><time>2026-05-03T08:59:16Z</time></trkpt><trkpt lat="43.32915050779747" lon="-0.4674784817357183"><ele>151.0</ele><time>2026-05-03T08:59:17Z</time></trkpt><trkpt lat="43.32909191840762" lon="-0.46754068694797607"><ele>151.0</ele><time>2026-05-03T08:59:18Z</time></trkpt><trkpt lat="43.329036005491886" lon="-0.4676018691162423"><ele>151.0</ele><time>2026-05-03T08:59:19Z</time></trkpt><trkpt lat="43.32897885712619" lon="-0.4676644746573929"><ele>151.00000000000003</ele><time>2026-05-03T08:59:20Z</time></trkpt><trkpt lat="43.32892334770884" lon="-0.4677239726027898"><ele>151.0</ele><time>2026-05-03T08:59:21Z</time></trkpt><trkpt lat="43.32886801825155" lon="-0.46778505346531485"><ele>150.85714285714286</ele><time>2026-05-03T08:59:22Z</time></trkpt><trkpt lat="43.32880930415412" lon="-0.4678490408579389"><ele>150.71428571428572</ele><time>2026-05-03T08:59:23Z</time></trkpt><trkpt lat="43.32875201979622" lon="-0.46791600972663333"><ele>150.57142857142856</ele><time>2026-05-03T08:59:24Z</time></trkpt><trkpt lat="43.328694969272554" lon="-0.46797673957566766"><ele>150.42857142857144</ele><time>2026-05-03T08:59:25Z</time></trkpt><trkpt lat="43.32864252302949" lon="-0.4680415126395247"><ele>150.28571428571428</ele><time>2026-05-03T08:59:26Z</time></trkpt><trkpt lat="43.328591933833124" lon="-0.4680950919417304"><ele>150.14285714285714</ele><time>2026-05-03T08:59:27Z</time></trkpt><trkpt lat="43.32853526710112" lon="-0.4681441257806729"><ele>150.0</ele><time>2026-05-03T08:59:28Z</time></trkpt><trkpt lat="43.32847765866514" lon="-0.46820277499608015"><ele>149.99999999999997</ele><time>2026-05-03T08:59:29Z</time></trkpt><trkpt lat="43.32842980564936" lon="-0.46828217717879306"><ele>150.0</ele><time>2026-05-03T08:59:30Z</time></trkpt><trkpt lat="43.32836602027229" lon="-0.4683388186528471"><ele>150.0</ele><time>2026-05-03T08:59:31Z</time></trkpt><trkpt lat="43.32830558172843" lon="-0.46839929071070374"><ele>150.0</ele><time>2026-05-03T08:59:32Z</time></trkpt><trkpt lat="43.3282457873069" lon="-0.46845656833576793"><ele>150.0</ele><time>2026-05-03T08:59:33Z</time></trkpt><trkpt lat="43.328184990979615" lon="-0.4685093792227524"><ele>149.99999999999997</ele><time>2026-05-03T08:59:34Z</time></trkpt><trkpt lat="43.32812343234973" lon="-0.4685764825931862"><ele>150.0</ele><time>2026-05-03T08:59:35Z</time></trkpt><trkpt lat="43.328073345231154" lon="-0.4686296738232537"><ele>150.14285714285714</ele><time>2026-05-03T08:59:36Z</time></trkpt><trkpt lat="43.32801230780502" lon="-0.46867701492270264"><ele>150.28571428571428</ele><time>2026-05-03T08:59:37Z</time></trkpt><trkpt lat="43.3279505363949" lon="-0.4687304350266595"><ele>150.42857142857144</ele><time>2026-05-03T08:59:38Z</time></trkpt><trkpt lat="43.32788885321395" lon="-0.4687776789991774"><ele>150.57142857142856</ele><time>2026-05-03T08:59:39Z</time></trkpt><trkpt lat="43.32782715180207" lon="-0.4688289847653104"><ele>150.71428571428572</ele><time>2026-05-03T08:59:40Z</time></trkpt><trkpt lat="43.32776053769206" lon="-0.4688835368104541"><ele>150.85714285714286</ele><time>2026-05-03T08:59:41Z</time></trkpt><trkpt lat="43.32769841519253" lon="-0.46893668769743535"><ele>151.0</ele><time>2026-05-03T08:59:42Z</time></trkpt><trkpt lat="43.32763209523312" lon="-0.4689877331361472"><ele>151.00000000000003</ele><time>2026-05-03T08:59:43Z</time></trkpt><trkpt lat="43.32756482238762" lon="-0.4690308954135853"><ele>151.0</ele><time>2026-05-03T08:59:44Z</time></trkpt><trkpt lat="43.327499877370414" lon="-0.4690684893260049"><ele>151.0</ele><time>2026-05-03T08:59:45Z</time></trkpt><trkpt lat="43.32743638373221" lon="-0.46910909767763626"><ele>151.0</ele><time>2026-05-03T08:59:46Z</time></trkpt><trkpt lat="43.32736773726111" lon="-0.469148241625077"><ele>151.0</ele><time>2026-05-03T08:59:47Z</time></trkpt><trkpt lat="43.32730185322831" lon="-0.4691880640076257"><ele>151.00000000000003</ele><time>2026-05-03T08:59:48Z</time></trkpt><trkpt lat="43.32723352986899" lon="-0.4692283428629477"><ele>151.0</ele><time>2026-05-03T08:59:49Z</time></trkpt><trkpt lat="43.32716810112793" lon="-0.4692711210324572"><ele>151.0</ele><time>2026-05-03T08:59:50Z</time></trkpt><trkpt lat="43.32710160304051" lon="-0.46931249212211856"><ele>151.0</ele><time>2026-05-03T08:59:51Z</time></trkpt><trkpt lat="43.327039356599236" lon="-0.46936336975001364"><ele>151.0</ele><time>2026-05-03T08:59:52Z</time></trkpt><trkpt lat="43.32697151226717" lon="-0.4694155474334514"><ele>151.0</ele><time>2026-05-03T08:59:53Z</time></trkpt><trkpt lat="43.32684325302617" lon="-0.46951156106513897"><ele>151.0</ele><time>2026-05-03T08:59:55Z</time></trkpt><trkpt lat="43.326780651052225" lon="-0.4695611961194505"><ele>151.0</ele><time>2026-05-03T08:59:56Z</time></trkpt><trkpt lat="43.32671837575999" lon="-0.4696149004861516"><ele>150.5</ele><time>2026-05-03T08:59:57Z</time></trkpt><trkpt lat="43.326661996384374" lon="-0.46967302801486843"><ele>150.0</ele><time>2026-05-03T08:59:58Z</time></trkpt><trkpt lat="43.326578393756094" lon="-0.46969546100409043"><ele>149.5</ele><time>2026-05-03T08:59:59Z</time></trkpt><trkpt lat="43.32652839462718" lon="-0.4697641668235621"><ele>149.0</ele><time>2026-05-03T09:00:00Z</time></trkpt><trkpt lat="43.32648277675709" lon="-0.4698301530010143"><ele>148.5</ele><time>2026-05-03T09:00:01Z</time></trkpt><trkpt lat="43.326410506112246" lon="-0.4699457349377459"><ele>148.0</ele><time>2026-05-03T09:00:03Z</time></trkpt><trkpt lat="43.32635610481753" lon="-0.4700321615211058"><ele>148.0</ele><time>2026-05-03T09:00:05Z</time></trkpt><trkpt lat="43.32634586405641" lon="-0.4701831410622595"><ele>148.0</ele><time>2026-05-03T09:00:07Z</time></trkpt><trkpt lat="43.326351411196114" lon="-0.47033118436623833"><ele>148.0</ele><time>2026-05-03T09:00:09Z</time></trkpt><trkpt lat="43.32632341816713" lon="-0.47049633729026125"><ele>148.0</ele><time>2026-05-03T09:00:11Z</time></trkpt><trkpt lat="43.32627895283596" lon="-0.47056760429122635"><ele>148.0</ele><time>2026-05-03T09:00:12Z</time></trkpt><trkpt lat="43.32621018738592" lon="-0.4707031248780306"><ele>148.0</ele><time>2026-05-03T09:00:14Z</time></trkpt><trkpt lat="43.32629170966125" lon="-0.4708456870039999"><ele>148.0</ele><time>2026-05-03T09:00:15Z</time></trkpt><trkpt lat="43.32632779340818" lon="-0.4709277510773431"><ele>148.0</ele><time>2026-05-03T09:00:16Z</time></trkpt><trkpt lat="43.32636442859717" lon="-0.47100732164726944"><ele>148.0</ele><time>2026-05-03T09:00:17Z</time></trkpt><trkpt lat="43.326395587048715" lon="-0.4710867489225993"><ele>148.0</ele><time>2026-05-03T09:00:18Z</time></trkpt><trkpt lat="43.32640859091333" lon="-0.4711817761923971"><ele>148.0</ele><time>2026-05-03T09:00:19Z</time></trkpt><trkpt lat="43.32642100677028" lon="-0.47127183861898814"><ele>147.85714285714286</ele><time>2026-05-03T09:00:20Z</time></trkpt><trkpt lat="43.326484450503536" lon="-0.47134591845719037"><ele>147.71428571428572</ele><time>2026-05-03T09:00:21Z</time></trkpt><trkpt lat="43.326515007821484" lon="-0.471433805420649"><ele>147.57142857142856</ele><time>2026-05-03T09:00:22Z</time></trkpt><trkpt lat="43.32654864501694" lon="-0.47151880897936876"><ele>147.42857142857144</ele><time>2026-05-03T09:00:23Z</time></trkpt><trkpt lat="43.32658517670904" lon="-0.471606553250842"><ele>147.28571428571428</ele><time>2026-05-03T09:00:24Z</time></trkpt><trkpt lat="43.32661895837033" lon="-0.471695213797359"><ele>147.14285714285714</ele><time>2026-05-03T09:00:25Z</time></trkpt><trkpt lat="43.32665854177647" lon="-0.4717821712095894"><ele>147.0</ele><time>2026-05-03T09:00:26Z</time></trkpt><trkpt lat="43.32670689031151" lon="-0.471863127630239"><ele>147.0</ele><time>2026-05-03T09:00:27Z</time></trkpt><trkpt lat="43.32674989592525" lon="-0.4719437196708983"><ele>147.0</ele><time>2026-05-03T09:00:28Z</time></trkpt><trkpt lat="43.326792530731616" lon="-0.472029803311792"><ele>147.0</ele><time>2026-05-03T09:00:29Z</time></trkpt><trkpt lat="43.326830081706944" lon="-0.47211714672352423"><ele>147.0</ele><time>2026-05-03T09:00:30Z</time></trkpt><trkpt lat="43.3268687295163" lon="-0.47220241805201535"><ele>147.0</ele><time>2026-05-03T09:00:31Z</time></trkpt><trkpt lat="43.32690660826978" lon="-0.47229024154152816"><ele>147.0</ele><time>2026-05-03T09:00:32Z</time></trkpt><trkpt lat="43.32694810596131" lon="-0.4723765099659728"><ele>147.0</ele><time>2026-05-03T09:00:33Z</time></trkpt><trkpt lat="43.326985351617154" lon="-0.47246695767779245"><ele>146.66666666666666</ele><time>2026-05-03T09:00:34Z</time></trkpt><trkpt lat="43.32702305581901" lon="-0.47255586166386315"><ele>146.33333333333334</ele><time>2026-05-03T09:00:35Z</time></trkpt><trkpt lat="43.32705708505148" lon="-0.47264573882110483"><ele>146.0</ele><time>2026-05-03T09:00:36Z</time></trkpt><trkpt lat="43.32708855167143" lon="-0.4727377997963891"><ele>145.66666666666669</ele><time>2026-05-03T09:00:37Z</time></trkpt><trkpt lat="43.327124451656196" lon="-0.4728269541583317"><ele>145.33333333333334</ele><time>2026-05-03T09:00:38Z</time></trkpt><trkpt lat="43.32716020853573" lon="-0.47292077366294016"><ele>145.0</ele><time>2026-05-03T09:00:39Z</time></trkpt><trkpt lat="43.327194347964614" lon="-0.4730146098421836"><ele>144.83333333333334</ele><time>2026-05-03T09:00:40Z</time></trkpt><trkpt lat="43.3272249793707" lon="-0.47310791047557343"><ele>144.66666666666669</ele><time>2026-05-03T09:00:41Z</time></trkpt><trkpt lat="43.32725681093382" lon="-0.4732039513867853"><ele>144.5</ele><time>2026-05-03T09:00:42Z</time></trkpt><trkpt lat="43.3272931126876" lon="-0.47329887516126434"><ele>144.33333333333334</ele><time>2026-05-03T09:00:43Z</time></trkpt><trkpt lat="43.32732648603081" lon="-0.47339325048509945"><ele>144.16666666666666</ele><time>2026-05-03T09:00:44Z</time></trkpt><trkpt lat="43.32736127707299" lon="-0.47348920592594995"><ele>144.0</ele><time>2026-05-03T09:00:45Z</time></trkpt><trkpt lat="43.32739243202997" lon="-0.4735872815327066"><ele>144.33333333333334</ele><time>2026-05-03T09:00:46Z</time></trkpt><trkpt lat="43.327429114976994" lon="-0.47368223041254837"><ele>144.66666666666666</ele><time>2026-05-03T09:00:47Z</time></trkpt><trkpt lat="43.32746390852877" lon="-0.4737769411508646"><ele>145.0</ele><time>2026-05-03T09:00:48Z</time></trkpt><trkpt lat="43.327497955911106" lon="-0.4738762174173651"><ele>145.33333333333331</ele><time>2026-05-03T09:00:49Z</time></trkpt><trkpt lat="43.32753215571235" lon="-0.4739737291326445"><ele>145.66666666666666</ele><time>2026-05-03T09:00:50Z</time></trkpt><trkpt lat="43.32756556294062" lon="-0.47406867904380384"><ele>146.0</ele><time>2026-05-03T09:00:51Z</time></trkpt><trkpt lat="43.32760101883626" lon="-0.4741669821812311"><ele>146.0</ele><time>2026-05-03T09:00:52Z</time></trkpt><trkpt lat="43.32763416389352" lon="-0.4742647487283032"><ele>146.0</ele><time>2026-05-03T09:00:53Z</time></trkpt><trkpt lat="43.32766061650871" lon="-0.4743709754006289"><ele>146.0</ele><time>2026-05-03T09:00:54Z</time></trkpt><trkpt lat="43.32769407516665" lon="-0.47446963907688233"><ele>146.0</ele><time>2026-05-03T09:00:55Z</time></trkpt><trkpt lat="43.32773194298956" lon="-0.47455930730532175"><ele>146.0</ele><time>2026-05-03T09:00:56Z</time></trkpt><trkpt lat="43.327766140960506" lon="-0.4746582980871783"><ele>146.0</ele><time>2026-05-03T09:00:57Z</time></trkpt><trkpt lat="43.32780189965497" lon="-0.47475273250508127"><ele>146.0</ele><time>2026-05-03T09:00:58Z</time></trkpt><trkpt lat="43.32783944414875" lon="-0.4748511537430152"><ele>146.0</ele><time>2026-05-03T09:00:59Z</time></trkpt><trkpt lat="43.32787410497715" lon="-0.47495021838987506"><ele>146.0</ele><time>2026-05-03T09:01:00Z</time></trkpt><trkpt lat="43.32790698041052" lon="-0.47504887939222984"><ele>146.0</ele><time>2026-05-03T09:01:01Z</time></trkpt><trkpt lat="43.32794371137324" lon="-0.47514515435854127"><ele>146.0</ele><time>2026-05-03T09:01:02Z</time></trkpt><trkpt lat="43.32798045015647" lon="-0.4752415188265532"><ele>146.0</ele><time>2026-05-03T09:01:03Z</time></trkpt><trkpt lat="43.32801484024096" lon="-0.4753435067924582"><ele>146.0</ele><time>2026-05-03T09:01:04Z</time></trkpt><trkpt lat="43.32804831009904" lon="-0.475444376508547"><ele>146.0</ele><time>2026-05-03T09:01:05Z</time></trkpt><trkpt lat="43.32808436057944" lon="-0.4755447222770571"><ele>146.0</ele><time>2026-05-03T09:01:06Z</time></trkpt><trkpt lat="43.328121211272176" lon="-0.47564152362523043"><ele>146.0</ele><time>2026-05-03T09:01:07Z</time></trkpt><trkpt lat="43.32815457125958" lon="-0.47574515781477233"><ele>146.0</ele><time>2026-05-03T09:01:08Z</time></trkpt><trkpt lat="43.32818863921374" lon="-0.4758454335721368"><ele>146.0</ele><time>2026-05-03T09:01:09Z</time></trkpt><trkpt lat="43.3282255842915" lon="-0.47594773551245223"><ele>146.0</ele><time>2026-05-03T09:01:10Z</time></trkpt><trkpt lat="43.32826690106551" lon="-0.4760434036457634"><ele>146.0</ele><time>2026-05-03T09:01:11Z</time></trkpt><trkpt lat="43.3283052852439" lon="-0.4761430856683997"><ele>146.0</ele><time>2026-05-03T09:01:12Z</time></trkpt><trkpt lat="43.32833744103297" lon="-0.4762572904550773"><ele>146.0</ele><time>2026-05-03T09:01:13Z</time></trkpt><trkpt lat="43.328374830823606" lon="-0.4763608417007925"><ele>146.0</ele><time>2026-05-03T09:01:14Z</time></trkpt><trkpt lat="43.32840983825806" lon="-0.47646668190345964"><ele>146.0</ele><time>2026-05-03T09:01:15Z</time></trkpt><trkpt lat="43.328446878040495" lon="-0.476568799890519"><ele>146.0</ele><time>2026-05-03T09:01:16Z</time></trkpt><trkpt lat="43.328486145954685" lon="-0.47667068499804266"><ele>146.0</ele><time>2026-05-03T09:01:17Z</time></trkpt><trkpt lat="43.32851906029896" lon="-0.4767724152602288"><ele>146.0</ele><time>2026-05-03T09:01:18Z</time></trkpt><trkpt lat="43.328555620242405" lon="-0.47687702064682996"><ele>146.0</ele><time>2026-05-03T09:01:19Z</time></trkpt><trkpt lat="43.32859201760121" lon="-0.4769807957843588"><ele>146.0</ele><time>2026-05-03T09:01:20Z</time></trkpt><trkpt lat="43.328628125184125" lon="-0.47708442103126947"><ele>146.0</ele><time>2026-05-03T09:01:21Z</time></trkpt><trkpt lat="43.328660600713654" lon="-0.4771937781076105"><ele>146.0</ele><time>2026-05-03T09:01:22Z</time></trkpt><trkpt lat="43.32869889039047" lon="-0.47729217791679196"><ele>146.0</ele><time>2026-05-03T09:01:23Z</time></trkpt><trkpt lat="43.32873623978281" lon="-0.4773989243575733"><ele>146.0</ele><time>2026-05-03T09:01:24Z</time></trkpt><trkpt lat="43.32877164646509" lon="-0.4775022066469227"><ele>146.0</ele><time>2026-05-03T09:01:25Z</time></trkpt><trkpt lat="43.32880823221439" lon="-0.47760621278153537"><ele>146.0</ele><time>2026-05-03T09:01:26Z</time></trkpt><trkpt lat="43.32884911498929" lon="-0.47770611304182536"><ele>146.0</ele><time>2026-05-03T09:01:27Z</time></trkpt><trkpt lat="43.32888090291583" lon="-0.477813055749422"><ele>146.0</ele><time>2026-05-03T09:01:28Z</time></trkpt><trkpt lat="43.328914761376204" lon="-0.47791741646679387"><ele>146.0</ele><time>2026-05-03T09:01:29Z</time></trkpt><trkpt lat="43.32895174978835" lon="-0.47802208874804947"><ele>146.0</ele><time>2026-05-03T09:01:30Z</time></trkpt><trkpt lat="43.32899525591451" lon="-0.478122926584393"><ele>146.0</ele><time>2026-05-03T09:01:31Z</time></trkpt><trkpt lat="43.32902570295774" lon="-0.47823517474345545"><ele>146.0</ele><time>2026-05-03T09:01:32Z</time></trkpt><trkpt lat="43.329065513676724" lon="-0.478335525263921"><ele>146.0</ele><time>2026-05-03T09:01:33Z</time></trkpt><trkpt lat="43.32910261687691" lon="-0.47844158408241105"><ele>146.0</ele><time>2026-05-03T09:01:34Z</time></trkpt><trkpt lat="43.32914121332291" lon="-0.47854687517257777"><ele>146.0</ele><time>2026-05-03T09:01:35Z</time></trkpt><trkpt lat="43.32917357894226" lon="-0.47866082624743267"><ele>146.0</ele><time>2026-05-03T09:01:36Z</time></trkpt><trkpt lat="43.32921258222712" lon="-0.47876352029428637"><ele>146.0</ele><time>2026-05-03T09:01:37Z</time></trkpt><trkpt lat="43.329251090406665" lon="-0.47886818175114754"><ele>146.0</ele><time>2026-05-03T09:01:38Z</time></trkpt><trkpt lat="43.329286690333035" lon="-0.47897579981337324"><ele>146.0</ele><time>2026-05-03T09:01:39Z</time></trkpt><trkpt lat="43.32932231661319" lon="-0.4790841326498662"><ele>145.8</ele><time>2026-05-03T09:01:40Z</time></trkpt><trkpt lat="43.32936058607845" lon="-0.4791911933668012"><ele>145.6</ele><time>2026-05-03T09:01:41Z</time></trkpt><trkpt lat="43.329404222677546" lon="-0.47929179101449526"><ele>145.4</ele><time>2026-05-03T09:01:42Z</time></trkpt><trkpt lat="43.32944589073888" lon="-0.4793959573047394"><ele>145.2</ele><time>2026-05-03T09:01:43Z</time></trkpt><trkpt lat="43.329481530608824" lon="-0.47950827088026476"><ele>145.0</ele><time>2026-05-03T09:01:44Z</time></trkpt><trkpt lat="43.32953238254406" lon="-0.47963236255754654"><ele>145.0</ele><time>2026-05-03T09:01:45Z</time></trkpt><trkpt lat="43.329556856448555" lon="-0.47972354739551465"><ele>145.0</ele><time>2026-05-03T09:01:46Z</time></trkpt><trkpt lat="43.32959461633715" lon="-0.47983035772814037"><ele>145.0</ele><time>2026-05-03T09:01:47Z</time></trkpt><trkpt lat="43.32963093261006" lon="-0.47993803471635527"><ele>145.0</ele><time>2026-05-03T09:01:48Z</time></trkpt><trkpt lat="43.329667929442024" lon="-0.4800453348698753"><ele>145.0</ele><time>2026-05-03T09:01:49Z</time></trkpt><trkpt lat="43.329693937440624" lon="-0.4801574458339514"><ele>145.0</ele><time>2026-05-03T09:01:50Z</time></trkpt><trkpt lat="43.329735434125396" lon="-0.4802616140793117"><ele>144.66666666666669</ele><time>2026-05-03T09:01:51Z</time></trkpt><trkpt lat="43.329772613227746" lon="-0.4803671494769721"><ele>144.33333333333334</ele><time>2026-05-03T09:01:52Z</time></trkpt><trkpt lat="43.32980496980575" lon="-0.480472703298548"><ele>144.0</ele><time>2026-05-03T09:01:53Z</time></trkpt><trkpt lat="43.329843147311244" lon="-0.4805750462652036"><ele>143.66666666666666</ele><time>2026-05-03T09:01:54Z</time></trkpt><trkpt lat="43.329873533388145" lon="-0.48068733538832564"><ele>143.33333333333331</ele><time>2026-05-03T09:01:55Z</time></trkpt><trkpt lat="43.32990531710546" lon="-0.480794810010858"><ele>143.0</ele><time>2026-05-03T09:01:56Z</time></trkpt><trkpt lat="43.32993532170376" lon="-0.48090604837411827"><ele>143.0</ele><time>2026-05-03T09:01:57Z</time></trkpt><trkpt lat="43.32996791431209" lon="-0.48101618034811194"><ele>143.0</ele><time>2026-05-03T09:01:58Z</time></trkpt><trkpt lat="43.32999914176771" lon="-0.48112470237780625"><ele>143.0</ele><time>2026-05-03T09:01:59Z</time></trkpt><trkpt lat="43.330029831581975" lon="-0.4812309728178633"><ele>143.0</ele><time>2026-05-03T09:02:00Z</time></trkpt><trkpt lat="43.33005762297826" lon="-0.4813440566024821"><ele>143.0</ele><time>2026-05-03T09:02:01Z</time></trkpt><trkpt lat="43.330087340631" lon="-0.48145582695315586"><ele>143.0</ele><time>2026-05-03T09:02:02Z</time></trkpt><trkpt lat="43.33011742901222" lon="-0.48156666126683023"><ele>143.0</ele><time>2026-05-03T09:02:03Z</time></trkpt><trkpt lat="43.330147132702386" lon="-0.4816783480895186"><ele>143.0</ele><time>2026-05-03T09:02:04Z</time></trkpt><trkpt lat="43.33017637431305" lon="-0.4817889876667403"><ele>143.0</ele><time>2026-05-03T09:02:05Z</time></trkpt><trkpt lat="43.330206151092646" lon="-0.481897103276661"><ele>143.0</ele><time>2026-05-03T09:02:06Z</time></trkpt><trkpt lat="43.33023375149039" lon="-0.48201022651371817"><ele>143.0</ele><time>2026-05-03T09:02:07Z</time></trkpt><trkpt lat="43.33026202615912" lon="-0.4821223185244191"><ele>143.0</ele><time>2026-05-03T09:02:08Z</time></trkpt><trkpt lat="43.33029208340196" lon="-0.4822328652772342"><ele>143.0</ele><time>2026-05-03T09:02:09Z</time></trkpt><trkpt lat="43.33031735272565" lon="-0.48234467429127426"><ele>143.0</ele><time>2026-05-03T09:02:10Z</time></trkpt><trkpt lat="43.33034680010306" lon="-0.48245724988348576"><ele>143.0</ele><time>2026-05-03T09:02:11Z</time></trkpt><trkpt lat="43.330375586116986" lon="-0.4825652456456967"><ele>143.0</ele><time>2026-05-03T09:02:12Z</time></trkpt><trkpt lat="43.33040639946442" lon="-0.4826746728698625"><ele>143.0</ele><time>2026-05-03T09:02:13Z</time></trkpt><trkpt lat="43.33043386142562" lon="-0.48278731463820657"><ele>143.0</ele><time>2026-05-03T09:02:14Z</time></trkpt><trkpt lat="43.330458852501884" lon="-0.482894100263684"><ele>143.0</ele><time>2026-05-03T09:02:15Z</time></trkpt><trkpt lat="43.33048235236192" lon="-0.4830077293582175"><ele>143.0</ele><time>2026-05-03T09:02:16Z</time></trkpt><trkpt lat="43.330514848588386" lon="-0.48311104485028766"><ele>143.0</ele><time>2026-05-03T09:02:17Z</time></trkpt><trkpt lat="43.330543846918495" lon="-0.4832182136855191"><ele>143.0</ele><time>2026-05-03T09:02:18Z</time></trkpt><trkpt lat="43.33056914977734" lon="-0.4833276983444586"><ele>143.0</ele><time>2026-05-03T09:02:19Z</time></trkpt><trkpt lat="43.33059566093966" lon="-0.48343632543632375"><ele>143.0</ele><time>2026-05-03T09:02:20Z</time></trkpt><trkpt lat="43.330620640899895" lon="-0.4835473113655783"><ele>143.0</ele><time>2026-05-03T09:02:21Z</time></trkpt><trkpt lat="43.33065290131963" lon="-0.4836514292522016"><ele>143.0</ele><time>2026-05-03T09:02:22Z</time></trkpt><trkpt lat="43.330681556275145" lon="-0.4837547137140601"><ele>143.0</ele><time>2026-05-03T09:02:23Z</time></trkpt><trkpt lat="43.330704920886205" lon="-0.48386299274113503"><ele>143.0</ele><time>2026-05-03T09:02:24Z</time></trkpt><trkpt lat="43.330740971361756" lon="-0.48395841212265"><ele>143.0</ele><time>2026-05-03T09:02:25Z</time></trkpt><trkpt lat="43.33076269681634" lon="-0.4840758229210759"><ele>143.0</ele><time>2026-05-03T09:02:26Z</time></trkpt><trkpt lat="43.33078457423552" lon="-0.4841799934948401"><ele>143.0</ele><time>2026-05-03T09:02:27Z</time></trkpt><trkpt lat="43.33081441243793" lon="-0.48428720357864075"><ele>143.0</ele><time>2026-05-03T09:02:28Z</time></trkpt><trkpt lat="43.33084049654561" lon="-0.48439428583245653"><ele>143.0</ele><time>2026-05-03T09:02:29Z</time></trkpt><trkpt lat="43.330862451753255" lon="-0.4845095574812771"><ele>143.0</ele><time>2026-05-03T09:02:30Z</time></trkpt><trkpt lat="43.330888010721885" lon="-0.4846096557821239"><ele>143.0</ele><time>2026-05-03T09:02:31Z</time></trkpt><trkpt lat="43.330919656359825" lon="-0.48471332277419527"><ele>143.0</ele><time>2026-05-03T09:02:32Z</time></trkpt><trkpt lat="43.33094683360137" lon="-0.48481444859626344"><ele>143.16666666666666</ele><time>2026-05-03T09:02:33Z</time></trkpt><trkpt lat="43.330974600266245" lon="-0.48492172398333927"><ele>143.33333333333331</ele><time>2026-05-03T09:02:34Z</time></trkpt><trkpt lat="43.33100514288563" lon="-0.48502569089541936"><ele>143.5</ele><time>2026-05-03T09:02:35Z</time></trkpt><trkpt lat="43.331032995643994" lon="-0.48513106117578086"><ele>143.66666666666666</ele><time>2026-05-03T09:02:36Z</time></trkpt><trkpt lat="43.33105947202375" lon="-0.4852372570084717"><ele>143.83333333333334</ele><time>2026-05-03T09:02:37Z</time></trkpt><trkpt lat="43.331085217138124" lon="-0.48534488344549226"><ele>144.0</ele><time>2026-05-03T09:02:38Z</time></trkpt><trkpt lat="43.33111697092991" lon="-0.4854517661920233"><ele>144.0</ele><time>2026-05-03T09:02:39Z</time></trkpt><trkpt lat="43.33114343821008" lon="-0.48556566516506866"><ele>144.0</ele><time>2026-05-03T09:02:40Z</time></trkpt><trkpt lat="43.33117398725632" lon="-0.48566802026709077"><ele>144.0</ele><time>2026-05-03T09:02:41Z</time></trkpt><trkpt lat="43.33119751437892" lon="-0.4857781918550729"><ele>144.0</ele><time>2026-05-03T09:02:42Z</time></trkpt><trkpt lat="43.331223051156016" lon="-0.48588508191621893"><ele>144.0</ele><time>2026-05-03T09:02:43Z</time></trkpt><trkpt lat="43.331253640635786" lon="-0.48599082210912425"><ele>144.0</ele><time>2026-05-03T09:02:44Z</time></trkpt><trkpt lat="43.331282464836725" lon="-0.4860987397662645"><ele>144.0</ele><time>2026-05-03T09:02:45Z</time></trkpt><trkpt lat="43.33131132644636" lon="-0.4861970591788359"><ele>144.0</ele><time>2026-05-03T09:02:46Z</time></trkpt><trkpt lat="43.33133656579466" lon="-0.48631607732457044"><ele>144.0</ele><time>2026-05-03T09:02:47Z</time></trkpt><trkpt lat="43.331363254906414" lon="-0.486422496357343"><ele>144.0</ele><time>2026-05-03T09:02:48Z</time></trkpt><trkpt lat="43.331390739321684" lon="-0.486529360503985"><ele>144.0</ele><time>2026-05-03T09:02:49Z</time></trkpt><trkpt lat="43.3314152371912" lon="-0.48663795599665555"><ele>144.0</ele><time>2026-05-03T09:02:50Z</time></trkpt><trkpt lat="43.3314430438329" lon="-0.48674383238956803"><ele>144.16666666666666</ele><time>2026-05-03T09:02:51Z</time></trkpt><trkpt lat="43.33147399670656" lon="-0.486844812163079"><ele>144.33333333333334</ele><time>2026-05-03T09:02:52Z</time></trkpt><trkpt lat="43.33150082874668" lon="-0.4869545344020255"><ele>144.5</ele><time>2026-05-03T09:02:53Z</time></trkpt><trkpt lat="43.33153093689059" lon="-0.48705851450680165"><ele>144.66666666666669</ele><time>2026-05-03T09:02:54Z</time></trkpt><trkpt lat="43.33155612778778" lon="-0.4871678690891987"><ele>144.83333333333334</ele><time>2026-05-03T09:02:55Z</time></trkpt><trkpt lat="43.33158515714698" lon="-0.4872735696853894"><ele>145.0</ele><time>2026-05-03T09:02:56Z</time></trkpt><trkpt lat="43.331611540229446" lon="-0.48738452841814717"><ele>144.33333333333334</ele><time>2026-05-03T09:02:57Z</time></trkpt><trkpt lat="43.331640417692164" lon="-0.4874894335219553"><ele>143.66666666666669</ele><time>2026-05-03T09:02:58Z</time></trkpt><trkpt lat="43.33166763602869" lon="-0.48759619213026717"><ele>143.0</ele><time>2026-05-03T09:02:59Z</time></trkpt><trkpt lat="43.33169507076809" lon="-0.48770251667656767"><ele>142.33333333333334</ele><time>2026-05-03T09:03:00Z</time></trkpt><trkpt lat="43.33171814815534" lon="-0.4878078720971561"><ele>141.66666666666666</ele><time>2026-05-03T09:03:01Z</time></trkpt><trkpt lat="43.33174760602754" lon="-0.48791154904118733"><ele>141.0</ele><time>2026-05-03T09:03:02Z</time></trkpt><trkpt lat="43.33177506629936" lon="-0.48801912561909383"><ele>140.66666666666666</ele><time>2026-05-03T09:03:03Z</time></trkpt><trkpt lat="43.33180242551523" lon="-0.4881236494388007"><ele>140.33333333333334</ele><time>2026-05-03T09:03:04Z</time></trkpt><trkpt lat="43.33183186339973" lon="-0.4882288882758894"><ele>140.0</ele><time>2026-05-03T09:03:05Z</time></trkpt><trkpt lat="43.33185708257559" lon="-0.4883358332264853"><ele>139.66666666666669</ele><time>2026-05-03T09:03:06Z</time></trkpt><trkpt lat="43.33188441226339" lon="-0.48844249396279976"><ele>139.33333333333334</ele><time>2026-05-03T09:03:07Z</time></trkpt><trkpt lat="43.33190981962963" lon="-0.48854883557256984"><ele>139.0</ele><time>2026-05-03T09:03:08Z</time></trkpt><trkpt lat="43.331936863712436" lon="-0.48865430969272533"><ele>139.0</ele><time>2026-05-03T09:03:09Z</time></trkpt><trkpt lat="43.331965342309324" lon="-0.4887614583618931"><ele>139.0</ele><time>2026-05-03T09:03:10Z</time></trkpt><trkpt lat="43.331993499410274" lon="-0.4888623837400488"><ele>139.0</ele><time>2026-05-03T09:03:11Z</time></trkpt><trkpt lat="43.332022008435516" lon="-0.4889693018781927"><ele>139.0</ele><time>2026-05-03T09:03:12Z</time></trkpt><trkpt lat="43.33204887528687" lon="-0.4890732533493505"><ele>139.0</ele><time>2026-05-03T09:03:13Z</time></trkpt><trkpt lat="43.33207573798889" lon="-0.4891800444933294"><ele>139.0</ele><time>2026-05-03T09:03:14Z</time></trkpt><trkpt lat="43.3321039269888" lon="-0.4892888740605352"><ele>139.0</ele><time>2026-05-03T09:03:15Z</time></trkpt><trkpt lat="43.332134758500935" lon="-0.4893957480649271"><ele>139.0</ele><time>2026-05-03T09:03:16Z</time></trkpt><trkpt lat="43.33216052674448" lon="-0.48950545424275776"><ele>139.0</ele><time>2026-05-03T09:03:17Z</time></trkpt><trkpt lat="43.332188025725564" lon="-0.48961063330617444"><ele>139.0</ele><time>2026-05-03T09:03:18Z</time></trkpt><trkpt lat="43.33221598928719" lon="-0.48971712889230923"><ele>139.0</ele><time>2026-05-03T09:03:19Z</time></trkpt><trkpt lat="43.332244381389124" lon="-0.4898228681372585"><ele>139.0</ele><time>2026-05-03T09:03:20Z</time></trkpt><trkpt lat="43.33227314087061" lon="-0.48992898751297276"><ele>139.0</ele><time>2026-05-03T09:03:21Z</time></trkpt><trkpt lat="43.33230032295243" lon="-0.4900369568466244"><ele>139.0</ele><time>2026-05-03T09:03:22Z</time></trkpt><trkpt lat="43.332324709441615" lon="-0.4901451828947618"><ele>139.0</ele><time>2026-05-03T09:03:23Z</time></trkpt><trkpt lat="43.33235231163207" lon="-0.49024930761650043"><ele>139.0</ele><time>2026-05-03T09:03:24Z</time></trkpt><trkpt lat="43.33237942174704" lon="-0.49035499861149395"><ele>139.0</ele><time>2026-05-03T09:03:25Z</time></trkpt><trkpt lat="43.33240774761602" lon="-0.4904633792275483"><ele>139.0</ele><time>2026-05-03T09:03:26Z</time></trkpt><trkpt lat="43.33243725616158" lon="-0.4905684212837015"><ele>139.0</ele><time>2026-05-03T09:03:27Z</time></trkpt><trkpt lat="43.33246681259781" lon="-0.49067848029782773"><ele>139.0</ele><time>2026-05-03T09:03:28Z</time></trkpt><trkpt lat="43.332496701704734" lon="-0.49078521496472455"><ele>139.0</ele><time>2026-05-03T09:03:29Z</time></trkpt><trkpt lat="43.332525655319415" lon="-0.49089008548916163"><ele>139.0</ele><time>2026-05-03T09:03:30Z</time></trkpt><trkpt lat="43.33255585782318" lon="-0.49099376831287683"><ele>139.0</ele><time>2026-05-03T09:03:31Z</time></trkpt><trkpt lat="43.332587350634334" lon="-0.4910988638840175"><ele>139.0</ele><time>2026-05-03T09:03:32Z</time></trkpt><trkpt lat="43.3326199326738" lon="-0.49120346354135014"><ele>139.0</ele><time>2026-05-03T09:03:33Z</time></trkpt><trkpt lat="43.33265158963194" lon="-0.49130701041213476"><ele>139.0</ele><time>2026-05-03T09:03:34Z</time></trkpt><trkpt lat="43.332689707362896" lon="-0.4914076618056347"><ele>139.0</ele><time>2026-05-03T09:03:35Z</time></trkpt><trkpt lat="43.332721822128946" lon="-0.49151324824305803"><ele>139.0</ele><time>2026-05-03T09:03:36Z</time></trkpt><trkpt lat="43.33275802862602" lon="-0.49161312332078755"><ele>139.0</ele><time>2026-05-03T09:03:37Z</time></trkpt><trkpt lat="43.33279517094019" lon="-0.49171215268714424"><ele>139.0</ele><time>2026-05-03T09:03:38Z</time></trkpt><trkpt lat="43.33283184249918" lon="-0.4918128605652077"><ele>139.0</ele><time>2026-05-03T09:03:39Z</time></trkpt><trkpt lat="43.33287039037399" lon="-0.49191270953779626"><ele>139.0</ele><time>2026-05-03T09:03:40Z</time></trkpt><trkpt lat="43.33290943574829" lon="-0.4920099943625032"><ele>139.0</ele><time>2026-05-03T09:03:41Z</time></trkpt><trkpt lat="43.33294728968883" lon="-0.49210900116200473"><ele>139.0</ele><time>2026-05-03T09:03:42Z</time></trkpt><trkpt lat="43.332986646811" lon="-0.49220787533774674"><ele>139.0</ele><time>2026-05-03T09:03:43Z</time></trkpt><trkpt lat="43.33302662329048" lon="-0.4923065984625879"><ele>139.0</ele><time>2026-05-03T09:03:44Z</time></trkpt><trkpt lat="43.33306747067183" lon="-0.4924049432179394"><ele>138.66666666666669</ele><time>2026-05-03T09:03:45Z</time></trkpt><trkpt lat="43.33311021871184" lon="-0.49249043516027835"><ele>138.33333333333334</ele><time>2026-05-03T09:03:46Z</time></trkpt><trkpt lat="43.33315482098335" lon="-0.4925869229346209"><ele>138.0</ele><time>2026-05-03T09:03:47Z</time></trkpt><trkpt lat="43.333199767152536" lon="-0.4926723303625621"><ele>137.66666666666666</ele><time>2026-05-03T09:03:48Z</time></trkpt><trkpt lat="43.33324738194018" lon="-0.4927633169902585"><ele>137.33333333333331</ele><time>2026-05-03T09:03:49Z</time></trkpt><trkpt lat="43.33329483887339" lon="-0.49285374868744775"><ele>137.0</ele><time>2026-05-03T09:03:50Z</time></trkpt><trkpt lat="43.33334086288793" lon="-0.4929442929737605"><ele>136.83333333333331</ele><time>2026-05-03T09:03:51Z</time></trkpt><trkpt lat="43.33338922748264" lon="-0.49303075504967425"><ele>136.66666666666666</ele><time>2026-05-03T09:03:52Z</time></trkpt><trkpt lat="43.33343723902679" lon="-0.49311658850052986"><ele>136.5</ele><time>2026-05-03T09:03:53Z</time></trkpt><trkpt lat="43.33348274589298" lon="-0.4932085968750184"><ele>136.33333333333334</ele><time>2026-05-03T09:03:54Z</time></trkpt><trkpt lat="43.33353230237233" lon="-0.4932925434509634"><ele>136.16666666666669</ele><time>2026-05-03T09:03:55Z</time></trkpt><trkpt lat="43.33358558791676" lon="-0.4933779399591291"><ele>136.0</ele><time>2026-05-03T09:03:56Z</time></trkpt><trkpt lat="43.33363639690882" lon="-0.4934577804268317"><ele>136.0</ele><time>2026-05-03T09:03:57Z</time></trkpt><trkpt lat="43.33368980501095" lon="-0.4935452923257159"><ele>136.0</ele><time>2026-05-03T09:03:58Z</time></trkpt><trkpt lat="43.33374455014084" lon="-0.4936232533535654"><ele>136.0</ele><time>2026-05-03T09:03:59Z</time></trkpt><trkpt lat="43.33380027508487" lon="-0.49370893975889835"><ele>136.0</ele><time>2026-05-03T09:04:00Z</time></trkpt><trkpt lat="43.33385618134456" lon="-0.4937889741131421"><ele>136.0</ele><time>2026-05-03T09:04:01Z</time></trkpt><trkpt lat="43.333912516588086" lon="-0.4938667637591444"><ele>136.0</ele><time>2026-05-03T09:04:02Z</time></trkpt><trkpt lat="43.333971715582486" lon="-0.4939439134421686"><ele>136.33333333333334</ele><time>2026-05-03T09:04:03Z</time></trkpt><trkpt lat="43.33402909448773" lon="-0.494026730990616"><ele>136.66666666666669</ele><time>2026-05-03T09:04:04Z</time></trkpt><trkpt lat="43.3340883615167" lon="-0.4941007374191056"><ele>137.0</ele><time>2026-05-03T09:04:05Z</time></trkpt><trkpt lat="43.33414715331463" lon="-0.49418659525774417"><ele>137.33333333333334</ele><time>2026-05-03T09:04:06Z</time></trkpt><trkpt lat="43.33420590320613" lon="-0.49426671553914525"><ele>137.66666666666666</ele><time>2026-05-03T09:04:07Z</time></trkpt><trkpt lat="43.33426345346263" lon="-0.494350541150814"><ele>138.0</ele><time>2026-05-03T09:04:08Z</time></trkpt><trkpt lat="43.33432020564875" lon="-0.49443191128767144"><ele>138.0</ele><time>2026-05-03T09:04:09Z</time></trkpt><trkpt lat="43.33438005348946" lon="-0.4945083492280897"><ele>138.0</ele><time>2026-05-03T09:04:10Z</time></trkpt><trkpt lat="43.33443975490021" lon="-0.4945867830421512"><ele>138.0</ele><time>2026-05-03T09:04:11Z</time></trkpt><trkpt lat="43.33449837341678" lon="-0.4946686892935144"><ele>138.0</ele><time>2026-05-03T09:04:12Z</time></trkpt><trkpt lat="43.33456413007394" lon="-0.4947454736398637"><ele>138.0</ele><time>2026-05-03T09:04:13Z</time></trkpt><trkpt lat="43.33462361900932" lon="-0.49482445281690707"><ele>138.0</ele><time>2026-05-03T09:04:14Z</time></trkpt><trkpt lat="43.334683128319035" lon="-0.49490620872070656"><ele>138.0</ele><time>2026-05-03T09:04:15Z</time></trkpt><trkpt lat="43.33474441416183" lon="-0.49498807389122185"><ele>138.0</ele><time>2026-05-03T09:04:16Z</time></trkpt><trkpt lat="43.33480611305794" lon="-0.49506620113657057"><ele>138.0</ele><time>2026-05-03T09:04:17Z</time></trkpt><trkpt lat="43.33486894864583" lon="-0.49514509266208456"><ele>138.0</ele><time>2026-05-03T09:04:18Z</time></trkpt><trkpt lat="43.334928336236416" lon="-0.4952238778032506"><ele>138.0</ele><time>2026-05-03T09:04:19Z</time></trkpt><trkpt lat="43.33498727416212" lon="-0.49530660933481785"><ele>138.0</ele><time>2026-05-03T09:04:20Z</time></trkpt><trkpt lat="43.3350492894721" lon="-0.4953856695046165"><ele>138.0</ele><time>2026-05-03T09:04:21Z</time></trkpt><trkpt lat="43.3351090406993" lon="-0.49546188281004855"><ele>138.0</ele><time>2026-05-03T09:04:22Z</time></trkpt><trkpt lat="43.335170369951435" lon="-0.49554213282131043"><ele>138.0</ele><time>2026-05-03T09:04:23Z</time></trkpt><trkpt lat="43.33523142177839" lon="-0.49561978183372585"><ele>138.0</ele><time>2026-05-03T09:04:24Z</time></trkpt><trkpt lat="43.335291578764405" lon="-0.49569590580443607"><ele>138.0</ele><time>2026-05-03T09:04:25Z</time></trkpt><trkpt lat="43.335350578555556" lon="-0.49577717826006434"><ele>138.0</ele><time>2026-05-03T09:04:26Z</time></trkpt><trkpt lat="43.335408817090695" lon="-0.49585848451567793"><ele>138.0</ele><time>2026-05-03T09:04:27Z</time></trkpt><trkpt lat="43.33546791410282" lon="-0.49594018326336825"><ele>138.0</ele><time>2026-05-03T09:04:28Z</time></trkpt><trkpt lat="43.33553018221569" lon="-0.4960196872026893"><ele>138.0</ele><time>2026-05-03T09:04:29Z</time></trkpt><trkpt lat="43.33559149198068" lon="-0.49609849620588864"><ele>138.0</ele><time>2026-05-03T09:04:30Z</time></trkpt><trkpt lat="43.33565140157262" lon="-0.4961796465254931"><ele>138.0</ele><time>2026-05-03T09:04:31Z</time></trkpt><trkpt lat="43.33571394557706" lon="-0.4962598664658099"><ele>138.0</ele><time>2026-05-03T09:04:32Z</time></trkpt><trkpt lat="43.33577515283206" lon="-0.4963377037469159"><ele>138.0</ele><time>2026-05-03T09:04:33Z</time></trkpt><trkpt lat="43.33583510797669" lon="-0.4964204063862716"><ele>138.0</ele><time>2026-05-03T09:04:34Z</time></trkpt><trkpt lat="43.33589384192849" lon="-0.49650157989903276"><ele>138.0</ele><time>2026-05-03T09:04:35Z</time></trkpt><trkpt lat="43.33595236670957" lon="-0.4965837724272059"><ele>138.0</ele><time>2026-05-03T09:04:36Z</time></trkpt><trkpt lat="43.33601342327772" lon="-0.4966639035330835"><ele>138.0</ele><time>2026-05-03T09:04:37Z</time></trkpt><trkpt lat="43.33607774469717" lon="-0.496741702458294"><ele>138.0</ele><time>2026-05-03T09:04:38Z</time></trkpt><trkpt lat="43.33613657345997" lon="-0.49681872646228176"><ele>138.0</ele><time>2026-05-03T09:04:39Z</time></trkpt><trkpt lat="43.336198078024225" lon="-0.4969008227293268"><ele>138.0</ele><time>2026-05-03T09:04:40Z</time></trkpt><trkpt lat="43.33625928193078" lon="-0.4969941912676337"><ele>138.0</ele><time>2026-05-03T09:04:41Z</time></trkpt><trkpt lat="43.33631935292507" lon="-0.49706887603894945"><ele>138.0</ele><time>2026-05-03T09:04:42Z</time></trkpt><trkpt lat="43.336370226582275" lon="-0.4971549537071577"><ele>138.0</ele><time>2026-05-03T09:04:43Z</time></trkpt><trkpt lat="43.33642553651081" lon="-0.4972380306661174"><ele>138.0</ele><time>2026-05-03T09:04:44Z</time></trkpt><trkpt lat="43.336479002533366" lon="-0.4973220385590285"><ele>137.66666666666666</ele><time>2026-05-03T09:04:45Z</time></trkpt><trkpt lat="43.33652950675962" lon="-0.4974094268914934"><ele>137.33333333333334</ele><time>2026-05-03T09:04:46Z</time></trkpt><trkpt lat="43.336579043185246" lon="-0.4974977909799374"><ele>137.0</ele><time>2026-05-03T09:04:47Z</time></trkpt><trkpt lat="43.33662820359457" lon="-0.4975880663408906"><ele>136.66666666666669</ele><time>2026-05-03T09:04:48Z</time></trkpt><trkpt lat="43.33667890498809" lon="-0.49767854523584254"><ele>136.33333333333334</ele><time>2026-05-03T09:04:49Z</time></trkpt><trkpt lat="43.336725936539196" lon="-0.4977708088842741"><ele>136.0</ele><time>2026-05-03T09:04:50Z</time></trkpt><trkpt lat="43.33676929274647" lon="-0.4978655093540608"><ele>135.83333333333334</ele><time>2026-05-03T09:04:51Z</time></trkpt><trkpt lat="43.33681579264729" lon="-0.4979545586290933"><ele>135.66666666666669</ele><time>2026-05-03T09:04:52Z</time></trkpt><trkpt lat="43.33686221503429" lon="-0.49804703351973095"><ele>135.5</ele><time>2026-05-03T09:04:53Z</time></trkpt><trkpt lat="43.3369066414172" lon="-0.4981394013845217"><ele>135.33333333333334</ele><time>2026-05-03T09:04:54Z</time></trkpt><trkpt lat="43.336947285867346" lon="-0.49823679410540556"><ele>135.16666666666666</ele><time>2026-05-03T09:04:55Z</time></trkpt><trkpt lat="43.3369873260345" lon="-0.4983330069174654"><ele>135.0</ele><time>2026-05-03T09:04:56Z</time></trkpt><trkpt lat="43.33702580607119" lon="-0.49842962309170497"><ele>135.0</ele><time>2026-05-03T09:04:57Z</time></trkpt><trkpt lat="43.337066438930115" lon="-0.4985269998240623"><ele>135.0</ele><time>2026-05-03T09:04:58Z</time></trkpt><trkpt lat="43.33710741058771" lon="-0.4986237707266324"><ele>135.0</ele><time>2026-05-03T09:04:59Z</time></trkpt><trkpt lat="43.33714713517894" lon="-0.4987224860504386"><ele>135.0</ele><time>2026-05-03T09:05:00Z</time></trkpt><trkpt lat="43.33717908731001" lon="-0.4988273646198843"><ele>135.0</ele><time>2026-05-03T09:05:01Z</time></trkpt><trkpt lat="43.337212748949376" lon="-0.49892914469353905"><ele>135.0</ele><time>2026-05-03T09:05:02Z</time></trkpt><trkpt lat="43.3372461137629" lon="-0.499030905095087"><ele>135.16666666666666</ele><time>2026-05-03T09:05:03Z</time></trkpt><trkpt lat="43.33728141115919" lon="-0.4991319855169845"><ele>135.33333333333334</ele><time>2026-05-03T09:05:04Z</time></trkpt><trkpt lat="43.33731303328312" lon="-0.4992377526273581"><ele>135.5</ele><time>2026-05-03T09:05:05Z</time></trkpt><trkpt lat="43.33734351465556" lon="-0.4993412176295741"><ele>135.66666666666669</ele><time>2026-05-03T09:05:06Z</time></trkpt><trkpt lat="43.33737307389362" lon="-0.4994477033457073"><ele>135.83333333333334</ele><time>2026-05-03T09:05:07Z</time></trkpt><trkpt lat="43.3374005229241" lon="-0.49955161957744576"><ele>136.0</ele><time>2026-05-03T09:05:08Z</time></trkpt><trkpt lat="43.33742710006158" lon="-0.49965764051994416"><ele>136.0</ele><time>2026-05-03T09:05:09Z</time></trkpt><trkpt lat="43.337453104090635" lon="-0.4997632323598646"><ele>136.0</ele><time>2026-05-03T09:05:10Z</time></trkpt><trkpt lat="43.33747928356538" lon="-0.49986821883984633"><ele>136.0</ele><time>2026-05-03T09:05:11Z</time></trkpt><trkpt lat="43.33750099611203" lon="-0.4999829694777139"><ele>136.0</ele><time>2026-05-03T09:05:12Z</time></trkpt><trkpt lat="43.33752290032542" lon="-0.5000902770388047"><ele>136.0</ele><time>2026-05-03T09:05:13Z</time></trkpt><trkpt lat="43.33754542860238" lon="-0.500198586264667"><ele>136.0</ele><time>2026-05-03T09:05:14Z</time></trkpt><trkpt lat="43.33756483979926" lon="-0.5003103129582918"><ele>136.16666666666669</ele><time>2026-05-03T09:05:15Z</time></trkpt><trkpt lat="43.337580697376154" lon="-0.5004239848830024"><ele>136.33333333333334</ele><time>2026-05-03T09:05:16Z</time></trkpt><trkpt lat="43.33760130738084" lon="-0.5005353435553639"><ele>136.5</ele><time>2026-05-03T09:05:17Z</time></trkpt><trkpt lat="43.3376181212361" lon="-0.5006486044964963"><ele>136.66666666666666</ele><time>2026-05-03T09:05:18Z</time></trkpt><trkpt lat="43.33762997898614" lon="-0.5007645126689111"><ele>136.83333333333331</ele><time>2026-05-03T09:05:19Z</time></trkpt><trkpt lat="43.33764354217784" lon="-0.500880403674373"><ele>137.0</ele><time>2026-05-03T09:05:20Z</time></trkpt><trkpt lat="43.3376563035862" lon="-0.500992843690785"><ele>137.0</ele><time>2026-05-03T09:05:21Z</time></trkpt><trkpt lat="43.33766741112603" lon="-0.5011081350936764"><ele>137.0</ele><time>2026-05-03T09:05:22Z</time></trkpt><trkpt lat="43.337680031716864" lon="-0.5012206332705268"><ele>137.0</ele><time>2026-05-03T09:05:23Z</time></trkpt><trkpt lat="43.33769020617167" lon="-0.5013387953436288"><ele>137.0</ele><time>2026-05-03T09:05:24Z</time></trkpt><trkpt lat="43.33770221230165" lon="-0.5014524632026583"><ele>137.0</ele><time>2026-05-03T09:05:25Z</time></trkpt><trkpt lat="43.33771014948699" lon="-0.501570326824163"><ele>137.0</ele><time>2026-05-03T09:05:26Z</time></trkpt><trkpt lat="43.33772026544857" lon="-0.5016839629992109"><ele>137.16666666666666</ele><time>2026-05-03T09:05:27Z</time></trkpt><trkpt lat="43.33773095655018" lon="-0.5018025281139841"><ele>137.33333333333331</ele><time>2026-05-03T09:05:28Z</time></trkpt><trkpt lat="43.337741979569394" lon="-0.501918977917509"><ele>137.5</ele><time>2026-05-03T09:05:29Z</time></trkpt><trkpt lat="43.33775209587515" lon="-0.502036528222641"><ele>137.66666666666666</ele><time>2026-05-03T09:05:30Z</time></trkpt><trkpt lat="43.33776167722604" lon="-0.5021528263661748"><ele>137.83333333333334</ele><time>2026-05-03T09:05:31Z</time></trkpt><trkpt lat="43.337771260605294" lon="-0.5022682530577273"><ele>138.0</ele><time>2026-05-03T09:05:32Z</time></trkpt><trkpt lat="43.33777891755813" lon="-0.5023855742234554"><ele>137.66666666666666</ele><time>2026-05-03T09:05:33Z</time></trkpt><trkpt lat="43.337790226835224" lon="-0.5025022117616756"><ele>137.33333333333334</ele><time>2026-05-03T09:05:34Z</time></trkpt><trkpt lat="43.33780009643908" lon="-0.5026172164378354"><ele>137.0</ele><time>2026-05-03T09:05:35Z</time></trkpt><trkpt lat="43.33780971323725" lon="-0.5027286258941371"><ele>136.66666666666669</ele><time>2026-05-03T09:05:36Z</time></trkpt><trkpt lat="43.337818960967134" lon="-0.5028476354454212"><ele>136.33333333333334</ele><time>2026-05-03T09:05:37Z</time></trkpt><trkpt lat="43.33783037037701" lon="-0.5029641974896861"><ele>136.0</ele><time>2026-05-03T09:05:38Z</time></trkpt><trkpt lat="43.337843073136604" lon="-0.5030744668114734"><ele>136.0</ele><time>2026-05-03T09:05:39Z</time></trkpt><trkpt lat="43.33785085825275" lon="-0.503192096732431"><ele>136.0</ele><time>2026-05-03T09:05:40Z</time></trkpt><trkpt lat="43.337859205533626" lon="-0.5033075427142731"><ele>136.0</ele><time>2026-05-03T09:05:41Z</time></trkpt><trkpt lat="43.33786993306364" lon="-0.5034203706141849"><ele>136.0</ele><time>2026-05-03T09:05:42Z</time></trkpt><trkpt lat="43.33787746612192" lon="-0.5035331891464947"><ele>136.0</ele><time>2026-05-03T09:05:43Z</time></trkpt><trkpt lat="43.33788735367946" lon="-0.5036468579924522"><ele>136.0</ele><time>2026-05-03T09:05:44Z</time></trkpt><trkpt lat="43.33789679752795" lon="-0.5037614291015595"><ele>135.66666666666669</ele><time>2026-05-03T09:05:45Z</time></trkpt><trkpt lat="43.33790615810671" lon="-0.5038719342978254"><ele>135.33333333333334</ele><time>2026-05-03T09:05:46Z</time></trkpt><trkpt lat="43.33791620922923" lon="-0.5039847954471479"><ele>135.0</ele><time>2026-05-03T09:05:47Z</time></trkpt><trkpt lat="43.33792696931781" lon="-0.5040992574620611"><ele>134.66666666666666</ele><time>2026-05-03T09:05:48Z</time></trkpt><trkpt lat="43.337936503042876" lon="-0.5042147065085847"><ele>134.33333333333331</ele><time>2026-05-03T09:05:49Z</time></trkpt><trkpt lat="43.337944201468176" lon="-0.5043257930661728"><ele>134.0</ele><time>2026-05-03T09:05:50Z</time></trkpt><trkpt lat="43.33794992134391" lon="-0.5044404223224171"><ele>134.0</ele><time>2026-05-03T09:05:51Z</time></trkpt><trkpt lat="43.33796149965898" lon="-0.5045527690980796"><ele>134.0</ele><time>2026-05-03T09:05:52Z</time></trkpt><trkpt lat="43.33797162731812" lon="-0.5046636047694203"><ele>134.0</ele><time>2026-05-03T09:05:53Z</time></trkpt><trkpt lat="43.33798016744022" lon="-0.5047740086181505"><ele>134.0</ele><time>2026-05-03T09:05:54Z</time></trkpt><trkpt lat="43.337991073699065" lon="-0.5048855643459224"><ele>134.0</ele><time>2026-05-03T09:05:55Z</time></trkpt><trkpt lat="43.338000120969575" lon="-0.5049982277398443"><ele>134.0</ele><time>2026-05-03T09:05:56Z</time></trkpt><trkpt lat="43.338007061578274" lon="-0.5051097693069021"><ele>134.16666666666666</ele><time>2026-05-03T09:05:57Z</time></trkpt><trkpt lat="43.33801890990587" lon="-0.5052270775680047"><ele>134.33333333333331</ele><time>2026-05-03T09:05:58Z</time></trkpt><trkpt lat="43.33802766466756" lon="-0.5053336860151313"><ele>134.5</ele><time>2026-05-03T09:05:59Z</time></trkpt><trkpt lat="43.33803707891274" lon="-0.5054438964452405"><ele>134.66666666666666</ele><time>2026-05-03T09:06:00Z</time></trkpt><trkpt lat="43.33804788582133" lon="-0.5055533656774656"><ele>134.83333333333334</ele><time>2026-05-03T09:06:01Z</time></trkpt><trkpt lat="43.33805719038785" lon="-0.5056624491408677"><ele>135.0</ele><time>2026-05-03T09:06:02Z</time></trkpt><trkpt lat="43.338070851561746" lon="-0.5057698671379498"><ele>135.33333333333334</ele><time>2026-05-03T09:06:03Z</time></trkpt><trkpt lat="43.338083182084674" lon="-0.5058793600308427"><ele>135.66666666666666</ele><time>2026-05-03T09:06:04Z</time></trkpt><trkpt lat="43.338097462623914" lon="-0.5059838068763239"><ele>136.0</ele><time>2026-05-03T09:06:05Z</time></trkpt><trkpt lat="43.338114880812114" lon="-0.5060922424865221"><ele>136.33333333333331</ele><time>2026-05-03T09:06:06Z</time></trkpt><trkpt lat="43.338131066698374" lon="-0.5062012373325357"><ele>136.66666666666666</ele><time>2026-05-03T09:06:07Z</time></trkpt><trkpt lat="43.338147898523694" lon="-0.5063090525906617"><ele>137.0</ele><time>2026-05-03T09:06:08Z</time></trkpt><trkpt lat="43.338164019913506" lon="-0.506416180901913"><ele>137.0</ele><time>2026-05-03T09:06:09Z</time></trkpt><trkpt lat="43.33818601735673" lon="-0.5065234762463827"><ele>137.0</ele><time>2026-05-03T09:06:10Z</time></trkpt><trkpt lat="43.33820895512755" lon="-0.5066321259933959"><ele>137.0</ele><time>2026-05-03T09:06:11Z</time></trkpt><trkpt lat="43.338235094126055" lon="-0.5067385854267021"><ele>137.0</ele><time>2026-05-03T09:06:12Z</time></trkpt><trkpt lat="43.33826234279333" lon="-0.5068469867355164"><ele>137.0</ele><time>2026-05-03T09:06:13Z</time></trkpt><trkpt lat="43.338284894767135" lon="-0.506957478875908"><ele>137.0</ele><time>2026-05-03T09:06:14Z</time></trkpt><trkpt lat="43.338309864297024" lon="-0.507060468024126"><ele>136.83333333333331</ele><time>2026-05-03T09:06:15Z</time></trkpt><trkpt lat="43.338338749095826" lon="-0.507166657782319"><ele>136.66666666666666</ele><time>2026-05-03T09:06:16Z</time></trkpt><trkpt lat="43.338370332532755" lon="-0.5072713186951688"><ele>136.5</ele><time>2026-05-03T09:06:17Z</time></trkpt><trkpt lat="43.33840198845927" lon="-0.5073743533348822"><ele>136.33333333333334</ele><time>2026-05-03T09:06:18Z</time></trkpt><trkpt lat="43.338434570869225" lon="-0.5074772267187698"><ele>136.16666666666669</ele><time>2026-05-03T09:06:19Z</time></trkpt><trkpt lat="43.33846786508127" lon="-0.5075790723914635"><ele>136.0</ele><time>2026-05-03T09:06:20Z</time></trkpt><trkpt lat="43.338501452045996" lon="-0.5076828606115712"><ele>136.0</ele><time>2026-05-03T09:06:21Z</time></trkpt><trkpt lat="43.33853599817173" lon="-0.507787977265389"><ele>136.0</ele><time>2026-05-03T09:06:22Z</time></trkpt><trkpt lat="43.338571067195005" lon="-0.5078941761226388"><ele>136.0</ele><time>2026-05-03T09:06:23Z</time></trkpt><trkpt lat="43.33860845767402" lon="-0.5079998645587558"><ele>136.0</ele><time>2026-05-03T09:06:24Z</time></trkpt><trkpt lat="43.33864774060606" lon="-0.5081038108764188"><ele>136.0</ele><time>2026-05-03T09:06:25Z</time></trkpt><trkpt lat="43.33869027095141" lon="-0.5082022681191312"><ele>136.0</ele><time>2026-05-03T09:06:26Z</time></trkpt><trkpt lat="43.33873530567602" lon="-0.5083041873804496"><ele>136.0</ele><time>2026-05-03T09:06:27Z</time></trkpt><trkpt lat="43.338782456322036" lon="-0.5084031275162549"><ele>136.0</ele><time>2026-05-03T09:06:28Z</time></trkpt><trkpt lat="43.338828420688465" lon="-0.5084984669662647"><ele>136.0</ele><time>2026-05-03T09:06:29Z</time></trkpt><trkpt lat="43.338875338089984" lon="-0.5085925894996035"><ele>136.0</ele><time>2026-05-03T09:06:30Z</time></trkpt><trkpt lat="43.33892202124952" lon="-0.508687512841953"><ele>136.0</ele><time>2026-05-03T09:06:31Z</time></trkpt><trkpt lat="43.33896910935014" lon="-0.5087817402664014"><ele>136.0</ele><time>2026-05-03T09:06:32Z</time></trkpt><trkpt lat="43.33901533451302" lon="-0.5088765554965624"><ele>136.0</ele><time>2026-05-03T09:06:33Z</time></trkpt><trkpt lat="43.339064208247486" lon="-0.5089674876611785"><ele>136.0</ele><time>2026-05-03T09:06:34Z</time></trkpt><trkpt lat="43.33911384077343" lon="-0.5090597706850488"><ele>136.0</ele><time>2026-05-03T09:06:35Z</time></trkpt><trkpt lat="43.33916713359313" lon="-0.5091508636359723"><ele>136.0</ele><time>2026-05-03T09:06:36Z</time></trkpt><trkpt lat="43.33922207374953" lon="-0.5092348088170652"><ele>136.0</ele><time>2026-05-03T09:06:37Z</time></trkpt><trkpt lat="43.33927736233584" lon="-0.5093219139544491"><ele>136.0</ele><time>2026-05-03T09:06:38Z</time></trkpt><trkpt lat="43.339333896800404" lon="-0.5093996714141442"><ele>136.0</ele><time>2026-05-03T09:06:39Z</time></trkpt><trkpt lat="43.339389068897525" lon="-0.509484560185432"><ele>136.0</ele><time>2026-05-03T09:06:40Z</time></trkpt><trkpt lat="43.33944338437375" lon="-0.5095700752175627"><ele>136.0</ele><time>2026-05-03T09:06:41Z</time></trkpt><trkpt lat="43.33950128273753" lon="-0.5096541267132471"><ele>136.0</ele><time>2026-05-03T09:06:42Z</time></trkpt><trkpt lat="43.33955968823548" lon="-0.509735479375878"><ele>136.0</ele><time>2026-05-03T09:06:43Z</time></trkpt><trkpt lat="43.33962348965511" lon="-0.5098161646168666"><ele>136.0</ele><time>2026-05-03T09:06:44Z</time></trkpt><trkpt lat="43.33968342169015" lon="-0.5098931039540209"><ele>135.5</ele><time>2026-05-03T09:06:45Z</time></trkpt><trkpt lat="43.33974224863352" lon="-0.509971679232061"><ele>135.0</ele><time>2026-05-03T09:06:46Z</time></trkpt><trkpt lat="43.33980255096264" lon="-0.5100539591043125"><ele>134.5</ele><time>2026-05-03T09:06:47Z</time></trkpt><trkpt lat="43.33986187202429" lon="-0.5101357759188982"><ele>134.0</ele><time>2026-05-03T09:06:48Z</time></trkpt><trkpt lat="43.33992228250759" lon="-0.5102140088038732"><ele>133.5</ele><time>2026-05-03T09:06:49Z</time></trkpt><trkpt lat="43.339984515085405" lon="-0.5102900947132191"><ele>133.0</ele><time>2026-05-03T09:06:50Z</time></trkpt><trkpt lat="43.34004694576225" lon="-0.5103700511919103"><ele>132.83333333333334</ele><time>2026-05-03T09:06:51Z</time></trkpt><trkpt lat="43.340108425550284" lon="-0.5104514473186502"><ele>132.66666666666669</ele><time>2026-05-03T09:06:52Z</time></trkpt><trkpt lat="43.34017256609586" lon="-0.5105307628779723"><ele>132.5</ele><time>2026-05-03T09:06:53Z</time></trkpt><trkpt lat="43.340233439200915" lon="-0.5106128244015579"><ele>132.33333333333334</ele><time>2026-05-03T09:06:54Z</time></trkpt><trkpt lat="43.34029662452592" lon="-0.5106957220719831"><ele>132.16666666666666</ele><time>2026-05-03T09:06:55Z</time></trkpt><trkpt lat="43.34035754280321" lon="-0.5107774246161101"><ele>132.0</ele><time>2026-05-03T09:06:56Z</time></trkpt><trkpt lat="43.34042226816955" lon="-0.5108596993432971"><ele>132.0</ele><time>2026-05-03T09:06:57Z</time></trkpt><trkpt lat="43.340483822250064" lon="-0.5109406125588997"><ele>132.0</ele><time>2026-05-03T09:06:58Z</time></trkpt><trkpt lat="43.34054401546463" lon="-0.5110220089058661"><ele>132.0</ele><time>2026-05-03T09:06:59Z</time></trkpt><trkpt lat="43.340605941278916" lon="-0.511105900075547"><ele>132.0</ele><time>2026-05-03T09:07:00Z</time></trkpt><trkpt lat="43.34066764919178" lon="-0.5111840076031151"><ele>132.0</ele><time>2026-05-03T09:07:01Z</time></trkpt><trkpt lat="43.34072852782957" lon="-0.5112632652250731"><ele>132.0</ele><time>2026-05-03T09:07:02Z</time></trkpt><trkpt lat="43.340790104924686" lon="-0.5113420841501229"><ele>132.0</ele><time>2026-05-03T09:07:03Z</time></trkpt><trkpt lat="43.34085155885429" lon="-0.5114227576209321"><ele>132.0</ele><time>2026-05-03T09:07:04Z</time></trkpt><trkpt lat="43.34091173769691" lon="-0.5115017477020625"><ele>132.0</ele><time>2026-05-03T09:07:05Z</time></trkpt><trkpt lat="43.34099371691972" lon="-0.5116005542856167"><ele>132.0</ele><time>2026-05-03T09:07:06Z</time></trkpt><trkpt lat="43.34104126734275" lon="-0.5116661700931882"><ele>132.0</ele><time>2026-05-03T09:07:07Z</time></trkpt><trkpt lat="43.34110021802703" lon="-0.5117457345578622"><ele>132.0</ele><time>2026-05-03T09:07:08Z</time></trkpt><trkpt lat="43.341160158252116" lon="-0.5118244517261001"><ele>132.0</ele><time>2026-05-03T09:07:09Z</time></trkpt><trkpt lat="43.34122034964065" lon="-0.5119008018530071"><ele>132.0</ele><time>2026-05-03T09:07:10Z</time></trkpt><trkpt lat="43.34128278890669" lon="-0.5119783887486993"><ele>132.0</ele><time>2026-05-03T09:07:11Z</time></trkpt><trkpt lat="43.34134503576164" lon="-0.5120541163618881"><ele>132.0</ele><time>2026-05-03T09:07:12Z</time></trkpt><trkpt lat="43.34140119525173" lon="-0.5121382710423565"><ele>132.0</ele><time>2026-05-03T09:07:13Z</time></trkpt><trkpt lat="43.341459881002535" lon="-0.5122183058063132"><ele>132.0</ele><time>2026-05-03T09:07:14Z</time></trkpt><trkpt lat="43.34151891038407" lon="-0.512295792590028"><ele>132.16666666666666</ele><time>2026-05-03T09:07:15Z</time></trkpt><trkpt lat="43.34157961953879" lon="-0.5123748698621939"><ele>132.33333333333334</ele><time>2026-05-03T09:07:16Z</time></trkpt><trkpt lat="43.34163881793575" lon="-0.5124522037922252"><ele>132.5</ele><time>2026-05-03T09:07:17Z</time></trkpt><trkpt lat="43.34169824188126" lon="-0.5125310796684113"><ele>132.66666666666669</ele><time>2026-05-03T09:07:18Z</time></trkpt><trkpt lat="43.341758490638284" lon="-0.5126069390209202"><ele>132.83333333333334</ele><time>2026-05-03T09:07:19Z</time></trkpt><trkpt lat="43.3418168218021" lon="-0.5126856661011471"><ele>133.0</ele><time>2026-05-03T09:07:20Z</time></trkpt><trkpt lat="43.34187373328921" lon="-0.512762423464849"><ele>133.0</ele><time>2026-05-03T09:07:21Z</time></trkpt><trkpt lat="43.341934627518064" lon="-0.5128406958465016"><ele>133.0</ele><time>2026-05-03T09:07:22Z</time></trkpt><trkpt lat="43.34199666532455" lon="-0.5129159428433621"><ele>133.0</ele><time>2026-05-03T09:07:23Z</time></trkpt><trkpt lat="43.342057643563116" lon="-0.5129920924219586"><ele>133.0</ele><time>2026-05-03T09:07:24Z</time></trkpt><trkpt lat="43.3421148818588" lon="-0.5130717142763052"><ele>133.0</ele><time>2026-05-03T09:07:25Z</time></trkpt><trkpt lat="43.34217287023222" lon="-0.5131505091596565"><ele>133.0</ele><time>2026-05-03T09:07:26Z</time></trkpt><trkpt lat="43.342230721296126" lon="-0.5132279703027988"><ele>133.16666666666669</ele><time>2026-05-03T09:07:27Z</time></trkpt><trkpt lat="43.342291733397374" lon="-0.5133036130882288"><ele>133.33333333333334</ele><time>2026-05-03T09:07:28Z</time></trkpt><trkpt lat="43.34235129139797" lon="-0.5133812639307274"><ele>133.5</ele><time>2026-05-03T09:07:29Z</time></trkpt><trkpt lat="43.342410681363326" lon="-0.5134604356677749"><ele>133.66666666666666</ele><time>2026-05-03T09:07:30Z</time></trkpt><trkpt lat="43.34247089826362" lon="-0.5135396051029837"><ele>133.83333333333331</ele><time>2026-05-03T09:07:31Z</time></trkpt><trkpt lat="43.342530451741084" lon="-0.5136177052952172"><ele>134.0</ele><time>2026-05-03T09:07:32Z</time></trkpt><trkpt lat="43.34258952445684" lon="-0.513696609491476"><ele>133.66666666666666</ele><time>2026-05-03T09:07:33Z</time></trkpt><trkpt lat="43.34265107346063" lon="-0.5137732147319397"><ele>133.33333333333331</ele><time>2026-05-03T09:07:34Z</time></trkpt><trkpt lat="43.34271228135635" lon="-0.5138501251913637"><ele>133.0</ele><time>2026-05-03T09:07:35Z</time></trkpt><trkpt lat="43.342772157807" lon="-0.5139291930129097"><ele>132.66666666666666</ele><time>2026-05-03T09:07:36Z</time></trkpt><trkpt lat="43.342834682102286" lon="-0.5140018049576487"><ele>132.33333333333334</ele><time>2026-05-03T09:07:37Z</time></trkpt><trkpt lat="43.34289668361071" lon="-0.5140861181039798"><ele>132.0</ele><time>2026-05-03T09:07:38Z</time></trkpt><trkpt lat="43.342956965600294" lon="-0.514163372512183"><ele>132.0</ele><time>2026-05-03T09:07:39Z</time></trkpt><trkpt lat="43.34301736950524" lon="-0.5142428969040966"><ele>132.0</ele><time>2026-05-03T09:07:40Z</time></trkpt><trkpt lat="43.343078519451474" lon="-0.5143243780118075"><ele>132.0</ele><time>2026-05-03T09:07:41Z</time></trkpt><trkpt lat="43.34313916074124" lon="-0.5144023708725323"><ele>132.0</ele><time>2026-05-03T09:07:42Z</time></trkpt><trkpt lat="43.34319767395025" lon="-0.5144835140548042"><ele>132.0</ele><time>2026-05-03T09:07:43Z</time></trkpt><trkpt lat="43.34325831584101" lon="-0.5145639488847187"><ele>132.0</ele><time>2026-05-03T09:07:44Z</time></trkpt><trkpt lat="43.343320082148374" lon="-0.5146368525375471"><ele>132.16666666666666</ele><time>2026-05-03T09:07:45Z</time></trkpt><trkpt lat="43.34338203139538" lon="-0.5147159073844442"><ele>132.33333333333334</ele><time>2026-05-03T09:07:46Z</time></trkpt><trkpt lat="43.343440420921624" lon="-0.5147993213765008"><ele>132.5</ele><time>2026-05-03T09:07:47Z</time></trkpt><trkpt lat="43.343500951353256" lon="-0.5148764391203692"><ele>132.66666666666669</ele><time>2026-05-03T09:07:48Z</time></trkpt><trkpt lat="43.343561561436495" lon="-0.5149531671805203"><ele>132.83333333333334</ele><time>2026-05-03T09:07:49Z</time></trkpt><trkpt lat="43.343620548663814" lon="-0.5150338534160377"><ele>133.0</ele><time>2026-05-03T09:07:50Z</time></trkpt><trkpt lat="43.343682221341375" lon="-0.51511147706175"><ele>133.0</ele><time>2026-05-03T09:07:51Z</time></trkpt><trkpt lat="43.34374191430409" lon="-0.5151909625719882"><ele>133.0</ele><time>2026-05-03T09:07:52Z</time></trkpt><trkpt lat="43.343802538232" lon="-0.5152666111217855"><ele>133.0</ele><time>2026-05-03T09:07:53Z</time></trkpt><trkpt lat="43.34386355425823" lon="-0.5153409152817405"><ele>133.0</ele><time>2026-05-03T09:07:54Z</time></trkpt><trkpt lat="43.343921437550485" lon="-0.5154225677304161"><ele>133.0</ele><time>2026-05-03T09:07:55Z</time></trkpt><trkpt lat="43.34398106448373" lon="-0.5155065821761264"><ele>133.0</ele><time>2026-05-03T09:07:56Z</time></trkpt><trkpt lat="43.344039994708346" lon="-0.5155797648014797"><ele>132.66666666666669</ele><time>2026-05-03T09:07:57Z</time></trkpt><trkpt lat="43.34410115575672" lon="-0.5156602137653321"><ele>132.33333333333334</ele><time>2026-05-03T09:07:58Z</time></trkpt><trkpt lat="43.34415956135873" lon="-0.5157417180261512"><ele>132.0</ele><time>2026-05-03T09:07:59Z</time></trkpt><trkpt lat="43.34422096513679" lon="-0.5158182587414066"><ele>131.66666666666666</ele><time>2026-05-03T09:08:00Z</time></trkpt><trkpt lat="43.34428095432693" lon="-0.5158994275590723"><ele>131.33333333333331</ele><time>2026-05-03T09:08:01Z</time></trkpt><trkpt lat="43.34434400285395" lon="-0.5159796484047365"><ele>131.0</ele><time>2026-05-03T09:08:02Z</time></trkpt><trkpt lat="43.34440516991016" lon="-0.5160607401017081"><ele>131.0</ele><time>2026-05-03T09:08:03Z</time></trkpt><trkpt lat="43.34446975015546" lon="-0.5161383535755966"><ele>131.0</ele><time>2026-05-03T09:08:04Z</time></trkpt><trkpt lat="43.344531173748855" lon="-0.516220059080071"><ele>131.0</ele><time>2026-05-03T09:08:05Z</time></trkpt><trkpt lat="43.344594534192474" lon="-0.5163009619013891"><ele>131.0</ele><time>2026-05-03T09:08:06Z</time></trkpt><trkpt lat="43.34465556437031" lon="-0.5163782881370619"><ele>131.0</ele><time>2026-05-03T09:08:07Z</time></trkpt><trkpt lat="43.34471655918746" lon="-0.5164591638239694"><ele>131.0</ele><time>2026-05-03T09:08:08Z</time></trkpt><trkpt lat="43.34477647806022" lon="-0.5165402760725901"><ele>131.33333333333331</ele><time>2026-05-03T09:08:09Z</time></trkpt><trkpt lat="43.3448371818102" lon="-0.5166221743152863"><ele>131.66666666666666</ele><time>2026-05-03T09:08:10Z</time></trkpt><trkpt lat="43.3448981725443" lon="-0.5167011273773163"><ele>132.0</ele><time>2026-05-03T09:08:11Z</time></trkpt><trkpt lat="43.34495895090312" lon="-0.516781319279502"><ele>132.33333333333334</ele><time>2026-05-03T09:08:12Z</time></trkpt><trkpt lat="43.345021481581675" lon="-0.5168536941459478"><ele>132.66666666666669</ele><time>2026-05-03T09:08:13Z</time></trkpt><trkpt lat="43.34508338132341" lon="-0.5169355549762532"><ele>133.0</ele><time>2026-05-03T09:08:14Z</time></trkpt><trkpt lat="43.34514300966361" lon="-0.5170164930467821"><ele>132.83333333333334</ele><time>2026-05-03T09:08:15Z</time></trkpt><trkpt lat="43.34520124857418" lon="-0.5170943808339488"><ele>132.66666666666669</ele><time>2026-05-03T09:08:16Z</time></trkpt><trkpt lat="43.345260445166886" lon="-0.5171757605644647"><ele>132.5</ele><time>2026-05-03T09:08:17Z</time></trkpt><trkpt lat="43.34532081944525" lon="-0.5172524072406546"><ele>132.33333333333334</ele><time>2026-05-03T09:08:18Z</time></trkpt><trkpt lat="43.34538363227937" lon="-0.5173314659998756"><ele>132.16666666666666</ele><time>2026-05-03T09:08:19Z</time></trkpt><trkpt lat="43.345441200663885" lon="-0.5174093464481067"><ele>132.0</ele><time>2026-05-03T09:08:20Z</time></trkpt><trkpt lat="43.34550101555102" lon="-0.5174863958720518"><ele>131.83333333333334</ele><time>2026-05-03T09:08:21Z</time></trkpt><trkpt lat="43.34555991665559" lon="-0.5175637793163647"><ele>131.66666666666666</ele><time>2026-05-03T09:08:22Z</time></trkpt><trkpt lat="43.34561856513149" lon="-0.5176459263676122"><ele>131.5</ele><time>2026-05-03T09:08:23Z</time></trkpt><trkpt lat="43.34568048617656" lon="-0.5177223031009129"><ele>131.33333333333331</ele><time>2026-05-03T09:08:24Z</time></trkpt><trkpt lat="43.34574013453352" lon="-0.5178024366487575"><ele>131.16666666666666</ele><time>2026-05-03T09:08:25Z</time></trkpt><trkpt lat="43.34580224650569" lon="-0.5178811820979623"><ele>131.0</ele><time>2026-05-03T09:08:26Z</time></trkpt><trkpt lat="43.345857860242525" lon="-0.5179618033075248"><ele>131.33333333333331</ele><time>2026-05-03T09:08:27Z</time></trkpt><trkpt lat="43.34592052263355" lon="-0.5180377859628827"><ele>131.66666666666666</ele><time>2026-05-03T09:08:28Z</time></trkpt><trkpt lat="43.34597686692009" lon="-0.5181178276115792"><ele>132.0</ele><time>2026-05-03T09:08:29Z</time></trkpt><trkpt lat="43.34603700467774" lon="-0.518194357216877"><ele>132.33333333333334</ele><time>2026-05-03T09:08:30Z</time></trkpt><trkpt lat="43.346097036376634" lon="-0.5182709461768705"><ele>132.66666666666669</ele><time>2026-05-03T09:08:31Z</time></trkpt><trkpt lat="43.3461715094515" lon="-0.5183572278538452"><ele>133.0</ele><time>2026-05-03T09:08:32Z</time></trkpt><trkpt lat="43.34621633356293" lon="-0.5184279656717544"><ele>133.0</ele><time>2026-05-03T09:08:33Z</time></trkpt><trkpt lat="43.346275298682656" lon="-0.5185079052051387"><ele>133.0</ele><time>2026-05-03T09:08:34Z</time></trkpt><trkpt lat="43.34633464825257" lon="-0.5185835769634353"><ele>133.0</ele><time>2026-05-03T09:08:35Z</time></trkpt><trkpt lat="43.34639460786317" lon="-0.518664544351251"><ele>133.0</ele><time>2026-05-03T09:08:36Z</time></trkpt><trkpt lat="43.346453657149624" lon="-0.5187423847860843"><ele>133.0</ele><time>2026-05-03T09:08:37Z</time></trkpt><trkpt lat="43.34651315221498" lon="-0.5188215915352998"><ele>133.0</ele><time>2026-05-03T09:08:38Z</time></trkpt><trkpt lat="43.346573625889654" lon="-0.5189007088379806"><ele>132.83333333333334</ele><time>2026-05-03T09:08:39Z</time></trkpt><trkpt lat="43.346634059283865" lon="-0.5189828435670683"><ele>132.66666666666669</ele><time>2026-05-03T09:08:40Z</time></trkpt><trkpt lat="43.34669638635583" lon="-0.5190593812380273"><ele>132.5</ele><time>2026-05-03T09:08:41Z</time></trkpt><trkpt lat="43.3467589591" lon="-0.5191392782811591"><ele>132.33333333333334</ele><time>2026-05-03T09:08:42Z</time></trkpt><trkpt lat="43.34681784096352" lon="-0.5192222484377053"><ele>132.16666666666666</ele><time>2026-05-03T09:08:43Z</time></trkpt><trkpt lat="43.34688313896534" lon="-0.5192956819438395"><ele>132.0</ele><time>2026-05-03T09:08:44Z</time></trkpt><trkpt lat="43.34694379316697" lon="-0.5193785293381015"><ele>132.0</ele><time>2026-05-03T09:08:45Z</time></trkpt><trkpt lat="43.347003538211" lon="-0.5194620477719086"><ele>132.0</ele><time>2026-05-03T09:08:46Z</time></trkpt><trkpt lat="43.34706489870048" lon="-0.5195416155342928"><ele>132.0</ele><time>2026-05-03T09:08:47Z</time></trkpt><trkpt lat="43.34712603101493" lon="-0.519621614643469"><ele>132.0</ele><time>2026-05-03T09:08:48Z</time></trkpt><trkpt lat="43.34718661981014" lon="-0.519702358813337"><ele>132.0</ele><time>2026-05-03T09:08:49Z</time></trkpt><trkpt lat="43.34724606153302" lon="-0.5197830478582189"><ele>132.0</ele><time>2026-05-03T09:08:50Z</time></trkpt><trkpt lat="43.34730825786195" lon="-0.5198616049580398"><ele>132.0</ele><time>2026-05-03T09:08:51Z</time></trkpt><trkpt lat="43.347372768859486" lon="-0.5199412917285703"><ele>132.0</ele><time>2026-05-03T09:08:52Z</time></trkpt><trkpt lat="43.34743291424087" lon="-0.5200225583143363"><ele>132.0</ele><time>2026-05-03T09:08:53Z</time></trkpt><trkpt lat="43.3474956222832" lon="-0.5201070882381486"><ele>132.0</ele><time>2026-05-03T09:08:54Z</time></trkpt><trkpt lat="43.34755896215126" lon="-0.5201867896151564"><ele>132.0</ele><time>2026-05-03T09:08:55Z</time></trkpt><trkpt lat="43.347621914895726" lon="-0.5202704981455692"><ele>132.0</ele><time>2026-05-03T09:08:56Z</time></trkpt><trkpt lat="43.347683115968934" lon="-0.5203547743235603"><ele>131.83333333333334</ele><time>2026-05-03T09:08:57Z</time></trkpt><trkpt lat="43.34774292701764" lon="-0.5204381930072279"><ele>131.66666666666666</ele><time>2026-05-03T09:08:58Z</time></trkpt><trkpt lat="43.34780860814481" lon="-0.5205156818503647"><ele>131.5</ele><time>2026-05-03T09:08:59Z</time></trkpt><trkpt lat="43.347873270385094" lon="-0.5205957410982821"><ele>131.33333333333331</ele><time>2026-05-03T09:09:00Z</time></trkpt><trkpt lat="43.3479336267967" lon="-0.5206779744987313"><ele>131.16666666666666</ele><time>2026-05-03T09:09:01Z</time></trkpt><trkpt lat="43.34799388061871" lon="-0.5207599802078354"><ele>131.0</ele><time>2026-05-03T09:09:02Z</time></trkpt><trkpt lat="43.348055547286755" lon="-0.5208389700244698"><ele>131.0</ele><time>2026-05-03T09:09:03Z</time></trkpt><trkpt lat="43.34811693137875" lon="-0.5209203279324579"><ele>131.0</ele><time>2026-05-03T09:09:04Z</time></trkpt><trkpt lat="43.34817702007288" lon="-0.5210026943823801"><ele>131.0</ele><time>2026-05-03T09:09:05Z</time></trkpt><trkpt lat="43.34823995852779" lon="-0.5210846165463472"><ele>131.0</ele><time>2026-05-03T09:09:06Z</time></trkpt><trkpt lat="43.348300929466575" lon="-0.5211623625862102"><ele>131.0</ele><time>2026-05-03T09:09:07Z</time></trkpt><trkpt lat="43.348362116807586" lon="-0.5212412070501802"><ele>131.0</ele><time>2026-05-03T09:09:08Z</time></trkpt><trkpt lat="43.34842412516617" lon="-0.5213188560863893"><ele>131.0</ele><time>2026-05-03T09:09:09Z</time></trkpt><trkpt lat="43.34848760618516" lon="-0.5213989463504344"><ele>131.0</ele><time>2026-05-03T09:09:10Z</time></trkpt><trkpt lat="43.348548506145" lon="-0.5214813744256532"><ele>131.0</ele><time>2026-05-03T09:09:11Z</time></trkpt><trkpt lat="43.34861035220281" lon="-0.5215649634695617"><ele>131.0</ele><time>2026-05-03T09:09:12Z</time></trkpt><trkpt lat="43.34867119505661" lon="-0.5216462763821695"><ele>131.0</ele><time>2026-05-03T09:09:13Z</time></trkpt><trkpt lat="43.34880818552372" lon="-0.5217999595716574"><ele>131.0</ele><time>2026-05-03T09:09:15Z</time></trkpt><trkpt lat="43.34885490729493" lon="-0.5218824924549826"><ele>131.0</ele><time>2026-05-03T09:09:16Z</time></trkpt><trkpt lat="43.34891401066722" lon="-0.5219627697229401"><ele>131.0</ele><time>2026-05-03T09:09:17Z</time></trkpt><trkpt lat="43.34897574365989" lon="-0.5220380371972343"><ele>131.0</ele><time>2026-05-03T09:09:18Z</time></trkpt><trkpt lat="43.349037301142225" lon="-0.5221047339207828"><ele>131.0</ele><time>2026-05-03T09:09:19Z</time></trkpt><trkpt lat="43.34909854542014" lon="-0.5221870828682873"><ele>131.0</ele><time>2026-05-03T09:09:20Z</time></trkpt><trkpt lat="43.349156506063196" lon="-0.5222662206035318"><ele>130.83333333333331</ele><time>2026-05-03T09:09:21Z</time></trkpt><trkpt lat="43.34921652265678" lon="-0.5223483784579275"><ele>130.66666666666666</ele><time>2026-05-03T09:09:22Z</time></trkpt><trkpt lat="43.34927580441584" lon="-0.5224278181999398"><ele>130.5</ele><time>2026-05-03T09:09:23Z</time></trkpt><trkpt lat="43.34933894353501" lon="-0.522500506840323"><ele>130.33333333333334</ele><time>2026-05-03T09:09:24Z</time></trkpt><trkpt lat="43.34939644468023" lon="-0.5225774184531445"><ele>130.16666666666669</ele><time>2026-05-03T09:09:25Z</time></trkpt><trkpt lat="43.34945611598178" lon="-0.5226569731684158"><ele>130.0</ele><time>2026-05-03T09:09:26Z</time></trkpt><trkpt lat="43.34951814806005" lon="-0.5227241563351058"><ele>130.0</ele><time>2026-05-03T09:09:27Z</time></trkpt><trkpt lat="43.3495794390614" lon="-0.5228034222275194"><ele>130.0</ele><time>2026-05-03T09:09:28Z</time></trkpt><trkpt lat="43.349636696039795" lon="-0.5228788432923954"><ele>130.0</ele><time>2026-05-03T09:09:29Z</time></trkpt><trkpt lat="43.34969797640154" lon="-0.5229541379779907"><ele>130.0</ele><time>2026-05-03T09:09:30Z</time></trkpt><trkpt lat="43.34975608832812" lon="-0.5230329751008665"><ele>130.0</ele><time>2026-05-03T09:09:31Z</time></trkpt><trkpt lat="43.34981512397761" lon="-0.523109516872945"><ele>130.0</ele><time>2026-05-03T09:09:32Z</time></trkpt><trkpt lat="43.34987260348689" lon="-0.5231906398317193"><ele>130.0</ele><time>2026-05-03T09:09:33Z</time></trkpt><trkpt lat="43.34993365442659" lon="-0.523266102992304"><ele>130.0</ele><time>2026-05-03T09:09:34Z</time></trkpt><trkpt lat="43.3499903596427" lon="-0.5233464485478144"><ele>130.0</ele><time>2026-05-03T09:09:35Z</time></trkpt><trkpt lat="43.350048436629145" lon="-0.5234304888177609"><ele>130.0</ele><time>2026-05-03T09:09:36Z</time></trkpt><trkpt lat="43.35010701918159" lon="-0.5235101140736458"><ele>130.0</ele><time>2026-05-03T09:09:37Z</time></trkpt><trkpt lat="43.350169195522795" lon="-0.5235869078909903"><ele>130.0</ele><time>2026-05-03T09:09:38Z</time></trkpt><trkpt lat="43.350227092199546" lon="-0.5236687728423611"><ele>130.0</ele><time>2026-05-03T09:09:39Z</time></trkpt><trkpt lat="43.3502882612516" lon="-0.5237482853843973"><ele>130.0</ele><time>2026-05-03T09:09:40Z</time></trkpt><trkpt lat="43.35034827676172" lon="-0.5238270530804343"><ele>130.0</ele><time>2026-05-03T09:09:41Z</time></trkpt><trkpt lat="43.35040789340308" lon="-0.5239076943605547"><ele>130.0</ele><time>2026-05-03T09:09:42Z</time></trkpt><trkpt lat="43.35046453939169" lon="-0.5239929892292573"><ele>130.0</ele><time>2026-05-03T09:09:43Z</time></trkpt><trkpt lat="43.35052607865911" lon="-0.5240726743538219"><ele>130.0</ele><time>2026-05-03T09:09:44Z</time></trkpt><trkpt lat="43.35058669426736" lon="-0.5241509015351327"><ele>130.0</ele><time>2026-05-03T09:09:45Z</time></trkpt><trkpt lat="43.350647119672516" lon="-0.5242323162733357"><ele>130.0</ele><time>2026-05-03T09:09:46Z</time></trkpt><trkpt lat="43.350705998013986" lon="-0.5243169636431263"><ele>130.0</ele><time>2026-05-03T09:09:47Z</time></trkpt><trkpt lat="43.3507627614167" lon="-0.5244014049528131"><ele>130.0</ele><time>2026-05-03T09:09:48Z</time></trkpt><trkpt lat="43.35082018968376" lon="-0.5244823242644597"><ele>130.0</ele><time>2026-05-03T09:09:49Z</time></trkpt><trkpt lat="43.35087787228358" lon="-0.5245682993929761"><ele>130.0</ele><time>2026-05-03T09:09:50Z</time></trkpt><trkpt lat="43.35092821062721" lon="-0.5246582266764748"><ele>130.0</ele><time>2026-05-03T09:09:51Z</time></trkpt><trkpt lat="43.35097229131952" lon="-0.5247624944970523"><ele>130.0</ele><time>2026-05-03T09:09:52Z</time></trkpt><trkpt lat="43.35102434229372" lon="-0.5248435062653939"><ele>130.0</ele><time>2026-05-03T09:09:53Z</time></trkpt><trkpt lat="43.35106966844499" lon="-0.5249317061123783"><ele>130.0</ele><time>2026-05-03T09:09:54Z</time></trkpt><trkpt lat="43.35111466657678" lon="-0.525021602584217"><ele>130.0</ele><time>2026-05-03T09:09:55Z</time></trkpt><trkpt lat="43.3511587817125" lon="-0.5251123568208318"><ele>130.0</ele><time>2026-05-03T09:09:56Z</time></trkpt><trkpt lat="43.351194414100775" lon="-0.5251936770054723"><ele>130.0</ele><time>2026-05-03T09:09:57Z</time></trkpt><trkpt lat="43.35126199260649" lon="-0.52532610549388"><ele>130.0</ele><time>2026-05-03T09:09:59Z</time></trkpt><trkpt lat="43.35130534585329" lon="-0.5254468312203919"><ele>130.0</ele><time>2026-05-03T09:10:01Z</time></trkpt><trkpt lat="43.35134791134912" lon="-0.5255641304248083"><ele>130.0</ele><time>2026-05-03T09:10:03Z</time></trkpt><trkpt lat="43.35142366539533" lon="-0.5256559780667308"><ele>130.0</ele><time>2026-05-03T09:10:05Z</time></trkpt><trkpt lat="43.351534207327596" lon="-0.5257043285637669"><ele>129.75</ele><time>2026-05-03T09:10:07Z</time></trkpt><trkpt lat="43.35163052073845" lon="-0.5257718044132564"><ele>129.5</ele><time>2026-05-03T09:10:09Z</time></trkpt><trkpt lat="43.35168250174391" lon="-0.5258980816713414"><ele>129.25</ele><time>2026-05-03T09:10:11Z</time></trkpt><trkpt lat="43.35182425999085" lon="-0.525902400061106"><ele>129.0</ele><time>2026-05-03T09:10:13Z</time></trkpt><trkpt lat="43.35193154850614" lon="-0.5259561044195802"><ele>129.0</ele><time>2026-05-03T09:10:15Z</time></trkpt><trkpt lat="43.352028480204844" lon="-0.5260814968954675"><ele>129.0</ele><time>2026-05-03T09:10:17Z</time></trkpt><trkpt lat="43.35208297942743" lon="-0.5261606622444341"><ele>129.0</ele><time>2026-05-03T09:10:18Z</time></trkpt><trkpt lat="43.3521296337249" lon="-0.5262269383810573"><ele>129.0</ele><time>2026-05-03T09:10:19Z</time></trkpt><trkpt lat="43.35217514186156" lon="-0.5262979023770091"><ele>129.0</ele><time>2026-05-03T09:10:20Z</time></trkpt><trkpt lat="43.35222738428825" lon="-0.5263629102919559"><ele>129.0</ele><time>2026-05-03T09:10:21Z</time></trkpt><trkpt lat="43.35228227738975" lon="-0.5264280008108133"><ele>128.83333333333334</ele><time>2026-05-03T09:10:22Z</time></trkpt><trkpt lat="43.352334277889256" lon="-0.5264964401366261"><ele>128.66666666666666</ele><time>2026-05-03T09:10:23Z</time></trkpt><trkpt lat="43.35240820187094" lon="-0.5265724161889813"><ele>128.5</ele><time>2026-05-03T09:10:24Z</time></trkpt><trkpt lat="43.3525002964829" lon="-0.5267077799627794"><ele>128.33333333333331</ele><time>2026-05-03T09:10:26Z</time></trkpt><trkpt lat="43.3525514451106" lon="-0.5267770710336603"><ele>128.16666666666666</ele><time>2026-05-03T09:10:27Z</time></trkpt><trkpt lat="43.352607430894" lon="-0.5268436159232405"><ele>128.0</ele><time>2026-05-03T09:10:28Z</time></trkpt><trkpt lat="43.3526625620707" lon="-0.526916638633881"><ele>127.99999999999999</ele><time>2026-05-03T09:10:29Z</time></trkpt><trkpt lat="43.35271775229796" lon="-0.526990493949921"><ele>128.0</ele><time>2026-05-03T09:10:30Z</time></trkpt><trkpt lat="43.352773736166945" lon="-0.5270592259979716"><ele>128.0</ele><time>2026-05-03T09:10:31Z</time></trkpt><trkpt lat="43.352830718355115" lon="-0.5271325170870136"><ele>128.0</ele><time>2026-05-03T09:10:32Z</time></trkpt><trkpt lat="43.35288542680745" lon="-0.5272084862832315"><ele>127.99999999999999</ele><time>2026-05-03T09:10:33Z</time></trkpt><trkpt lat="43.35293790459133" lon="-0.5272848802418812"><ele>128.0</ele><time>2026-05-03T09:10:34Z</time></trkpt><trkpt lat="43.352992500525346" lon="-0.5273543682450044"><ele>127.83333333333333</ele><time>2026-05-03T09:10:35Z</time></trkpt><trkpt lat="43.35305041993504" lon="-0.5274259070892793"><ele>127.66666666666666</ele><time>2026-05-03T09:10:36Z</time></trkpt><trkpt lat="43.35310642940439" lon="-0.5274999491524288"><ele>127.5</ele><time>2026-05-03T09:10:37Z</time></trkpt><trkpt lat="43.353162521049065" lon="-0.5275767171912165"><ele>127.33333333333334</ele><time>2026-05-03T09:10:38Z</time></trkpt><trkpt lat="43.353218260160254" lon="-0.5276494544886093"><ele>127.16666666666667</ele><time>2026-05-03T09:10:39Z</time></trkpt><trkpt lat="43.353274258564596" lon="-0.5277240722868115"><ele>127.0</ele><time>2026-05-03T09:10:40Z</time></trkpt><trkpt lat="43.353329468002876" lon="-0.5277981061901252"><ele>127.00000000000001</ele><time>2026-05-03T09:10:41Z</time></trkpt><trkpt lat="43.353383700215325" lon="-0.5278724042100786"><ele>127.0</ele><time>2026-05-03T09:10:42Z</time></trkpt><trkpt lat="43.3534405663134" lon="-0.5279528203971631"><ele>127.0</ele><time>2026-05-03T09:10:43Z</time></trkpt><trkpt lat="43.353495771355576" lon="-0.528033370801765"><ele>127.0</ele><time>2026-05-03T09:10:44Z</time></trkpt><trkpt lat="43.35355083438658" lon="-0.5281135888799646"><ele>127.00000000000001</ele><time>2026-05-03T09:10:45Z</time></trkpt><trkpt lat="43.35360850038225" lon="-0.5281910963421022"><ele>127.0</ele><time>2026-05-03T09:10:46Z</time></trkpt><trkpt lat="43.35366674351051" lon="-0.5282636653693004"><ele>127.16666666666667</ele><time>2026-05-03T09:10:47Z</time></trkpt><trkpt lat="43.35372728460732" lon="-0.5283217463878231"><ele>127.33333333333334</ele><time>2026-05-03T09:10:48Z</time></trkpt><trkpt lat="43.35378916594915" lon="-0.5284016998957887"><ele>127.5</ele><time>2026-05-03T09:10:49Z</time></trkpt><trkpt lat="43.353848610832706" lon="-0.5284775637619944"><ele>127.66666666666666</ele><time>2026-05-03T09:10:50Z</time></trkpt><trkpt lat="43.35391501024035" lon="-0.5285534932526456"><ele>127.83333333333333</ele><time>2026-05-03T09:10:51Z</time></trkpt><trkpt lat="43.35396973888642" lon="-0.5286232417337525"><ele>128.0</ele><time>2026-05-03T09:10:52Z</time></trkpt><trkpt lat="43.3540306860714" lon="-0.5287000072378445"><ele>127.83333333333333</ele><time>2026-05-03T09:10:53Z</time></trkpt><trkpt lat="43.354088042371124" lon="-0.5287742474779891"><ele>127.66666666666666</ele><time>2026-05-03T09:10:54Z</time></trkpt><trkpt lat="43.354148596270505" lon="-0.528854554288715"><ele>127.5</ele><time>2026-05-03T09:10:55Z</time></trkpt><trkpt lat="43.35420525144368" lon="-0.5289293679344885"><ele>127.33333333333334</ele><time>2026-05-03T09:10:56Z</time></trkpt><trkpt lat="43.35426289246993" lon="-0.5290078297037473"><ele>127.16666666666667</ele><time>2026-05-03T09:10:57Z</time></trkpt><trkpt lat="43.35431907928853" lon="-0.5290867277622239"><ele>127.0</ele><time>2026-05-03T09:10:58Z</time></trkpt><trkpt lat="43.35437500749829" lon="-0.529166267294074"><ele>127.00000000000001</ele><time>2026-05-03T09:10:59Z</time></trkpt><trkpt lat="43.354433211491774" lon="-0.5292441397067783"><ele>127.0</ele><time>2026-05-03T09:11:00Z</time></trkpt><trkpt lat="43.35449132843402" lon="-0.5293218027402773"><ele>127.0</ele><time>2026-05-03T09:11:01Z</time></trkpt><trkpt lat="43.354552181008756" lon="-0.5293986112709153"><ele>127.0</ele><time>2026-05-03T09:11:02Z</time></trkpt><trkpt lat="43.35461384682397" lon="-0.5294771756467518"><ele>127.00000000000001</ele><time>2026-05-03T09:11:03Z</time></trkpt><trkpt lat="43.354673159910384" lon="-0.5295606165271023"><ele>127.0</ele><time>2026-05-03T09:11:04Z</time></trkpt><trkpt lat="43.354734351168496" lon="-0.5296399126407938"><ele>126.83333333333334</ele><time>2026-05-03T09:11:05Z</time></trkpt><trkpt lat="43.354789996614585" lon="-0.5297160590971636"><ele>126.66666666666667</ele><time>2026-05-03T09:11:06Z</time></trkpt><trkpt lat="43.354851194419126" lon="-0.529795458596181"><ele>126.5</ele><time>2026-05-03T09:11:07Z</time></trkpt><trkpt lat="43.354911267804766" lon="-0.5298770097385973"><ele>126.33333333333334</ele><time>2026-05-03T09:11:08Z</time></trkpt><trkpt lat="43.354970821285036" lon="-0.5299548868578663"><ele>126.16666666666667</ele><time>2026-05-03T09:11:09Z</time></trkpt><trkpt lat="43.355032140365495" lon="-0.5300352124374064"><ele>126.0</ele><time>2026-05-03T09:11:10Z</time></trkpt><trkpt lat="43.35508081177329" lon="-0.5301222499870866"><ele>126.0</ele><time>2026-05-03T09:11:11Z</time></trkpt><trkpt lat="43.35513301703317" lon="-0.53021189246608"><ele>126.0</ele><time>2026-05-03T09:11:12Z</time></trkpt><trkpt lat="43.35518366708694" lon="-0.5303017800392514"><ele>126.0</ele><time>2026-05-03T09:11:13Z</time></trkpt><trkpt lat="43.355231683987064" lon="-0.5303961339954613"><ele>126.0</ele><time>2026-05-03T09:11:14Z</time></trkpt><trkpt lat="43.35527580358037" lon="-0.530490493108941"><ele>126.0</ele><time>2026-05-03T09:11:15Z</time></trkpt><trkpt lat="43.35531653663455" lon="-0.5305968548138001"><ele>126.0</ele><time>2026-05-03T09:11:16Z</time></trkpt><trkpt lat="43.3553468391382" lon="-0.5307004788465622"><ele>126.0</ele><time>2026-05-03T09:11:17Z</time></trkpt><trkpt lat="43.35537160886707" lon="-0.5308059039356887"><ele>126.0</ele><time>2026-05-03T09:11:18Z</time></trkpt><trkpt lat="43.355393224415735" lon="-0.5309165077998831"><ele>126.0</ele><time>2026-05-03T09:11:19Z</time></trkpt><trkpt lat="43.35541993741121" lon="-0.5310244349392165"><ele>126.0</ele><time>2026-05-03T09:11:20Z</time></trkpt><trkpt lat="43.3554346357484" lon="-0.5311436469048887"><ele>126.0</ele><time>2026-05-03T09:11:21Z</time></trkpt><trkpt lat="43.355458868970885" lon="-0.5312522884874474"><ele>126.0</ele><time>2026-05-03T09:11:22Z</time></trkpt><trkpt lat="43.35547940629023" lon="-0.5313573515422894"><ele>126.16666666666667</ele><time>2026-05-03T09:11:23Z</time></trkpt><trkpt lat="43.35549814097765" lon="-0.531471976828308"><ele>126.33333333333334</ele><time>2026-05-03T09:11:24Z</time></trkpt><trkpt lat="43.35551939985787" lon="-0.5315811540306896"><ele>126.5</ele><time>2026-05-03T09:11:25Z</time></trkpt><trkpt lat="43.355546903295426" lon="-0.531687715173666"><ele>126.66666666666667</ele><time>2026-05-03T09:11:26Z</time></trkpt><trkpt lat="43.3555647940665" lon="-0.531803568922112"><ele>126.83333333333334</ele><time>2026-05-03T09:11:27Z</time></trkpt><trkpt lat="43.35559269823562" lon="-0.5319089464059576"><ele>127.0</ele><time>2026-05-03T09:11:28Z</time></trkpt><trkpt lat="43.35561674226478" lon="-0.5320237032012999"><ele>127.00000000000001</ele><time>2026-05-03T09:11:29Z</time></trkpt><trkpt lat="43.355638867432475" lon="-0.5321378555559848"><ele>127.0</ele><time>2026-05-03T09:11:30Z</time></trkpt><trkpt lat="43.355662778435644" lon="-0.5322513510723461"><ele>127.0</ele><time>2026-05-03T09:11:31Z</time></trkpt><trkpt lat="43.35568964103738" lon="-0.5323609938882697"><ele>127.0</ele><time>2026-05-03T09:11:32Z</time></trkpt><trkpt lat="43.35571928163919" lon="-0.5324735079093423"><ele>127.00000000000001</ele><time>2026-05-03T09:11:33Z</time></trkpt><trkpt lat="43.355749385125414" lon="-0.5325825944685159"><ele>127.0</ele><time>2026-05-03T09:11:34Z</time></trkpt><trkpt lat="43.3557887429725" lon="-0.5326880536235071"><ele>127.00000000000001</ele><time>2026-05-03T09:11:35Z</time></trkpt><trkpt lat="43.35582668249987" lon="-0.5327918256239457"><ele>127.0</ele><time>2026-05-03T09:11:36Z</time></trkpt><trkpt lat="43.3558693707197" lon="-0.532894298825244"><ele>127.0</ele><time>2026-05-03T09:11:37Z</time></trkpt><trkpt lat="43.35591440594657" lon="-0.5329934751738271"><ele>127.0</ele><time>2026-05-03T09:11:38Z</time></trkpt><trkpt lat="43.355958041964485" lon="-0.5330906699207153"><ele>127.00000000000001</ele><time>2026-05-03T09:11:39Z</time></trkpt><trkpt lat="43.35600600863685" lon="-0.5331823572858929"><ele>127.0</ele><time>2026-05-03T09:11:40Z</time></trkpt><trkpt lat="43.35605191505082" lon="-0.5332770383534214"><ele>126.83333333333334</ele><time>2026-05-03T09:11:41Z</time></trkpt><trkpt lat="43.35610434981611" lon="-0.5333696080869956"><ele>126.66666666666667</ele><time>2026-05-03T09:11:42Z</time></trkpt><trkpt lat="43.356159781189504" lon="-0.5334589255414417"><ele>126.5</ele><time>2026-05-03T09:11:43Z</time></trkpt><trkpt lat="43.3562134534972" lon="-0.5335483285291954"><ele>126.33333333333334</ele><time>2026-05-03T09:11:44Z</time></trkpt><trkpt lat="43.356263032636946" lon="-0.5336412378719144"><ele>126.16666666666667</ele><time>2026-05-03T09:11:45Z</time></trkpt><trkpt lat="43.35631056213606" lon="-0.5337368970406108"><ele>126.0</ele><time>2026-05-03T09:11:46Z</time></trkpt><trkpt lat="43.35636070928423" lon="-0.5338271810609706"><ele>126.0</ele><time>2026-05-03T09:11:47Z</time></trkpt><trkpt lat="43.35641152112813" lon="-0.5339152790401107"><ele>126.0</ele><time>2026-05-03T09:11:48Z</time></trkpt><trkpt lat="43.35646004882705" lon="-0.5340087122545888"><ele>126.0</ele><time>2026-05-03T09:11:49Z</time></trkpt><trkpt lat="43.35651045368455" lon="-0.5340978881831756"><ele>126.0</ele><time>2026-05-03T09:11:50Z</time></trkpt><trkpt lat="43.356558624361135" lon="-0.5341901069183005"><ele>126.0</ele><time>2026-05-03T09:11:51Z</time></trkpt><trkpt lat="43.356608136932834" lon="-0.5342738656571698"><ele>126.0</ele><time>2026-05-03T09:11:52Z</time></trkpt><trkpt lat="43.35665928921216" lon="-0.5343571449406057"><ele>126.0</ele><time>2026-05-03T09:11:53Z</time></trkpt><trkpt lat="43.35670843809469" lon="-0.5344405066400192"><ele>126.0</ele><time>2026-05-03T09:11:54Z</time></trkpt><trkpt lat="43.35675528845681" lon="-0.5345285555194287"><ele>126.0</ele><time>2026-05-03T09:11:55Z</time></trkpt><trkpt lat="43.356796438366004" lon="-0.5346175208432103"><ele>126.0</ele><time>2026-05-03T09:11:56Z</time></trkpt><trkpt lat="43.356834677460924" lon="-0.5347114325466245"><ele>126.0</ele><time>2026-05-03T09:11:57Z</time></trkpt><trkpt lat="43.356867707849155" lon="-0.5348079042516388"><ele>126.0</ele><time>2026-05-03T09:11:58Z</time></trkpt><trkpt lat="43.35690369541227" lon="-0.5349031260083758"><ele>126.16666666666667</ele><time>2026-05-03T09:11:59Z</time></trkpt><trkpt lat="43.35693779277407" lon="-0.5350005397180345"><ele>126.33333333333334</ele><time>2026-05-03T09:12:00Z</time></trkpt><trkpt lat="43.356971659742776" lon="-0.5350983362606195"><ele>126.5</ele><time>2026-05-03T09:12:01Z</time></trkpt><trkpt lat="43.35701040803735" lon="-0.5351988687551522"><ele>126.66666666666667</ele><time>2026-05-03T09:12:02Z</time></trkpt><trkpt lat="43.357028813962465" lon="-0.5353097266479847"><ele>126.83333333333334</ele><time>2026-05-03T09:12:03Z</time></trkpt><trkpt lat="43.35703849370778" lon="-0.535423666037605"><ele>127.0</ele><time>2026-05-03T09:12:04Z</time></trkpt><trkpt lat="43.357046680100716" lon="-0.5355350852644624"><ele>127.00000000000001</ele><time>2026-05-03T09:12:05Z</time></trkpt><trkpt lat="43.3570560145793" lon="-0.5356409985662715"><ele>127.0</ele><time>2026-05-03T09:12:06Z</time></trkpt><trkpt lat="43.357066463226346" lon="-0.5357525615965024"><ele>127.0</ele><time>2026-05-03T09:12:07Z</time></trkpt><trkpt lat="43.357076710469634" lon="-0.5358617863538695"><ele>127.0</ele><time>2026-05-03T09:12:08Z</time></trkpt><trkpt lat="43.35708645452905" lon="-0.5359656477003173"><ele>127.00000000000001</ele><time>2026-05-03T09:12:09Z</time></trkpt><trkpt lat="43.35709610235547" lon="-0.536076519882255"><ele>127.0</ele><time>2026-05-03T09:12:10Z</time></trkpt><trkpt lat="43.35710534338927" lon="-0.5361835793071908"><ele>126.66666666666667</ele><time>2026-05-03T09:12:11Z</time></trkpt><trkpt lat="43.3571134891917" lon="-0.5362964849340519"><ele>126.33333333333334</ele><time>2026-05-03T09:12:12Z</time></trkpt><trkpt lat="43.35712177761879" lon="-0.5364107211169206"><ele>126.0</ele><time>2026-05-03T09:12:13Z</time></trkpt><trkpt lat="43.35712890042217" lon="-0.5365088918967804"><ele>125.66666666666666</ele><time>2026-05-03T09:12:14Z</time></trkpt><trkpt lat="43.35713175916273" lon="-0.5366113021756099"><ele>125.33333333333333</ele><time>2026-05-03T09:12:15Z</time></trkpt><trkpt lat="43.357137491427004" lon="-0.5367161284227071"><ele>125.0</ele><time>2026-05-03T09:12:16Z</time></trkpt><trkpt lat="43.35714175442763" lon="-0.5368177776021973"><ele>124.99999999999999</ele><time>2026-05-03T09:12:17Z</time></trkpt><trkpt lat="43.357148517763015" lon="-0.5369228612328485"><ele>125.0</ele><time>2026-05-03T09:12:18Z</time></trkpt><trkpt lat="43.357158736511344" lon="-0.5370360916009931"><ele>125.0</ele><time>2026-05-03T09:12:19Z</time></trkpt><trkpt lat="43.35718523434669" lon="-0.537134888957399"><ele>125.0</ele><time>2026-05-03T09:12:20Z</time></trkpt><trkpt lat="43.357216588025324" lon="-0.5372340126603325"><ele>124.99999999999999</ele><time>2026-05-03T09:12:21Z</time></trkpt><trkpt lat="43.357272656060225" lon="-0.5373130761773082"><ele>125.0</ele><time>2026-05-03T09:12:22Z</time></trkpt><trkpt lat="43.357316772695285" lon="-0.5373998723770169"><ele>125.14285714285714</ele><time>2026-05-03T09:12:23Z</time></trkpt><trkpt lat="43.35736126041093" lon="-0.5374831102875166"><ele>125.28571428571429</ele><time>2026-05-03T09:12:24Z</time></trkpt><trkpt lat="43.357406690226846" lon="-0.5375663116592448"><ele>125.42857142857143</ele><time>2026-05-03T09:12:25Z</time></trkpt><trkpt lat="43.357451326380605" lon="-0.5376476289922556"><ele>125.57142857142857</ele><time>2026-05-03T09:12:26Z</time></trkpt><trkpt lat="43.357491279829844" lon="-0.5377204154912795"><ele>125.71428571428572</ele><time>2026-05-03T09:12:27Z</time></trkpt><trkpt lat="43.35753643071224" lon="-0.5378097639604023"><ele>125.85714285714286</ele><time>2026-05-03T09:12:28Z</time></trkpt><trkpt lat="43.3575793473331" lon="-0.5378899596535793"><ele>126.0</ele><time>2026-05-03T09:12:29Z</time></trkpt><trkpt lat="43.35762745246938" lon="-0.5379727409683928"><ele>125.71428571428572</ele><time>2026-05-03T09:12:30Z</time></trkpt><trkpt lat="43.35766960865703" lon="-0.5380496655435353"><ele>125.42857142857143</ele><time>2026-05-03T09:12:31Z</time></trkpt><trkpt lat="43.357709860996465" lon="-0.5381307546229849"><ele>125.14285714285714</ele><time>2026-05-03T09:12:32Z</time></trkpt><trkpt lat="43.35774876775407" lon="-0.5382117728160684"><ele>124.85714285714286</ele><time>2026-05-03T09:12:33Z</time></trkpt><trkpt lat="43.357796471946564" lon="-0.5382873469931954"><ele>124.57142857142858</ele><time>2026-05-03T09:12:34Z</time></trkpt><trkpt lat="43.35784831792212" lon="-0.5383691205340745"><ele>124.28571428571429</ele><time>2026-05-03T09:12:35Z</time></trkpt><trkpt lat="43.3578939272567" lon="-0.5384385786697563"><ele>124.0</ele><time>2026-05-03T09:12:36Z</time></trkpt><trkpt lat="43.35794909232815" lon="-0.5385144828706043"><ele>124.0</ele><time>2026-05-03T09:12:37Z</time></trkpt><trkpt lat="43.3580095790571" lon="-0.5385830228327182"><ele>124.0</ele><time>2026-05-03T09:12:38Z</time></trkpt><trkpt lat="43.358065969574575" lon="-0.5386548743460202"><ele>124.0</ele><time>2026-05-03T09:12:39Z</time></trkpt><trkpt lat="43.358134503140704" lon="-0.538716954753408"><ele>124.0</ele><time>2026-05-03T09:12:40Z</time></trkpt><trkpt lat="43.358189795792505" lon="-0.5388099795091137"><ele>124.0</ele><time>2026-05-03T09:12:41Z</time></trkpt><trkpt lat="43.35829054805269" lon="-0.5389234016158585"><ele>124.00000000000001</ele><time>2026-05-03T09:12:43Z</time></trkpt><trkpt lat="43.35835400735296" lon="-0.5390013485641101"><ele>124.0</ele><time>2026-05-03T09:12:44Z</time></trkpt><trkpt lat="43.35841425723025" lon="-0.539067094314033"><ele>124.0</ele><time>2026-05-03T09:12:45Z</time></trkpt><trkpt lat="43.358465298786825" lon="-0.5391576750963183"><ele>124.0</ele><time>2026-05-03T09:12:46Z</time></trkpt><trkpt lat="43.35851532560393" lon="-0.5392382437551885"><ele>124.00000000000001</ele><time>2026-05-03T09:12:47Z</time></trkpt><trkpt lat="43.358559032840446" lon="-0.5393170365711398"><ele>124.0</ele><time>2026-05-03T09:12:48Z</time></trkpt><trkpt lat="43.35860248510158" lon="-0.5394093990016653"><ele>124.00000000000001</ele><time>2026-05-03T09:12:49Z</time></trkpt><trkpt lat="43.35863555470873" lon="-0.5395238769272679"><ele>124.0</ele><time>2026-05-03T09:12:50Z</time></trkpt><trkpt lat="43.35866527455997" lon="-0.539615900480499"><ele>124.0</ele><time>2026-05-03T09:12:51Z</time></trkpt><trkpt lat="43.35869952782749" lon="-0.5397139002950071"><ele>124.0</ele><time>2026-05-03T09:12:52Z</time></trkpt><trkpt lat="43.35873862080096" lon="-0.5398080663242731"><ele>124.00000000000001</ele><time>2026-05-03T09:12:53Z</time></trkpt><trkpt lat="43.35876878806945" lon="-0.5399023237206564"><ele>124.0</ele><time>2026-05-03T09:12:54Z</time></trkpt><trkpt lat="43.35879812053208" lon="-0.5400021523757986"><ele>124.00000000000001</ele><time>2026-05-03T09:12:55Z</time></trkpt><trkpt lat="43.35881751731176" lon="-0.540102443166911"><ele>124.0</ele><time>2026-05-03T09:12:56Z</time></trkpt><trkpt lat="43.358831702510564" lon="-0.540202575269151"><ele>124.0</ele><time>2026-05-03T09:12:57Z</time></trkpt><trkpt lat="43.3588428170664" lon="-0.540304450330727"><ele>124.0</ele><time>2026-05-03T09:12:58Z</time></trkpt><trkpt lat="43.3588540063703" lon="-0.5404099786586801"><ele>124.00000000000001</ele><time>2026-05-03T09:12:59Z</time></trkpt><trkpt lat="43.35887408978611" lon="-0.5405176426318524"><ele>124.0</ele><time>2026-05-03T09:13:00Z</time></trkpt><trkpt lat="43.358892040987634" lon="-0.540615777664568"><ele>124.0</ele><time>2026-05-03T09:13:01Z</time></trkpt><trkpt lat="43.358907562153455" lon="-0.5407170106085478"><ele>124.00000000000001</ele><time>2026-05-03T09:13:02Z</time></trkpt><trkpt lat="43.358932891141365" lon="-0.5408125009721312"><ele>124.0</ele><time>2026-05-03T09:13:03Z</time></trkpt><trkpt lat="43.358961195527684" lon="-0.5409083196828094"><ele>124.0</ele><time>2026-05-03T09:13:04Z</time></trkpt><trkpt lat="43.35899671087772" lon="-0.5409945100228841"><ele>124.00000000000001</ele><time>2026-05-03T09:13:05Z</time></trkpt><trkpt lat="43.35903735688742" lon="-0.5410807171863533"><ele>124.0</ele><time>2026-05-03T09:13:06Z</time></trkpt><trkpt lat="43.35907925055983" lon="-0.5411560856929327"><ele>124.0</ele><time>2026-05-03T09:13:07Z</time></trkpt><trkpt lat="43.3591410102896" lon="-0.5412377568149372"><ele>124.0</ele><time>2026-05-03T09:13:08Z</time></trkpt><trkpt lat="43.359205613492755" lon="-0.5412748106556776"><ele>124.00000000000001</ele><time>2026-05-03T09:13:09Z</time></trkpt><trkpt lat="43.359267013634664" lon="-0.5413269544717456"><ele>124.0</ele><time>2026-05-03T09:13:10Z</time></trkpt><trkpt lat="43.359328527839104" lon="-0.5413791527959071"><ele>124.0</ele><time>2026-05-03T09:13:11Z</time></trkpt><trkpt lat="43.35939482088877" lon="-0.5414301488153243"><ele>124.00000000000001</ele><time>2026-05-03T09:13:12Z</time></trkpt><trkpt lat="43.35945769160545" lon="-0.5414675386520016"><ele>124.0</ele><time>2026-05-03T09:13:13Z</time></trkpt><trkpt lat="43.35952954556473" lon="-0.5415191968420511"><ele>124.0</ele><time>2026-05-03T09:13:14Z</time></trkpt><trkpt lat="43.35959622576032" lon="-0.5415834559497417"><ele>124.00000000000001</ele><time>2026-05-03T09:13:15Z</time></trkpt><trkpt lat="43.359656559328144" lon="-0.5416538431864167"><ele>124.0</ele><time>2026-05-03T09:13:16Z</time></trkpt><trkpt lat="43.359711553575174" lon="-0.5417203026618701"><ele>124.0</ele><time>2026-05-03T09:13:17Z</time></trkpt><trkpt lat="43.35977138793342" lon="-0.5417965942412752"><ele>124.0</ele><time>2026-05-03T09:13:18Z</time></trkpt><trkpt lat="43.35982534575829" lon="-0.5418711690731858"><ele>124.00000000000001</ele><time>2026-05-03T09:13:19Z</time></trkpt><trkpt lat="43.359877452102246" lon="-0.5419453345493208"><ele>124.0</ele><time>2026-05-03T09:13:20Z</time></trkpt><trkpt lat="43.359919139330096" lon="-0.5420410885211192"><ele>123.66666666666667</ele><time>2026-05-03T09:13:21Z</time></trkpt><trkpt lat="43.35998165046196" lon="-0.5420993457499343"><ele>123.33333333333334</ele><time>2026-05-03T09:13:22Z</time></trkpt><trkpt lat="43.360027403371284" lon="-0.5421888697532323"><ele>123.0</ele><time>2026-05-03T09:13:23Z</time></trkpt><trkpt lat="43.360080114176334" lon="-0.54226616078137"><ele>122.66666666666666</ele><time>2026-05-03T09:13:24Z</time></trkpt><trkpt lat="43.36012586558158" lon="-0.5423471820007747"><ele>122.33333333333333</ele><time>2026-05-03T09:13:25Z</time></trkpt><trkpt lat="43.3601636484638" lon="-0.542439145531281"><ele>122.0</ele><time>2026-05-03T09:13:26Z</time></trkpt><trkpt lat="43.36019747527617" lon="-0.5425223909582252"><ele>121.99999999999999</ele><time>2026-05-03T09:13:27Z</time></trkpt><trkpt lat="43.360226992448005" lon="-0.5426117236821927"><ele>122.0</ele><time>2026-05-03T09:13:28Z</time></trkpt><trkpt lat="43.360256288300064" lon="-0.5426915287355062"><ele>121.99999999999999</ele><time>2026-05-03T09:13:29Z</time></trkpt><trkpt lat="43.36030199123833" lon="-0.5427574510917911"><ele>121.99999999999999</ele><time>2026-05-03T09:13:30Z</time></trkpt><trkpt lat="43.360377552894555" lon="-0.5427891983732802"><ele>122.0</ele><time>2026-05-03T09:13:31Z</time></trkpt><trkpt lat="43.36041416174007" lon="-0.5428658504873166"><ele>121.99999999999999</ele><time>2026-05-03T09:13:32Z</time></trkpt><trkpt lat="43.36046266901956" lon="-0.5429252808551104"><ele>121.99999999999999</ele><time>2026-05-03T09:13:33Z</time></trkpt><trkpt lat="43.36051354393354" lon="-0.5430013484786234"><ele>122.19999999999999</ele><time>2026-05-03T09:13:34Z</time></trkpt><trkpt lat="43.36060294852028" lon="-0.5431267704398727"><ele>122.39999999999999</ele><time>2026-05-03T09:13:36Z</time></trkpt><trkpt lat="43.36065297489072" lon="-0.5431961785906454"><ele>122.60000000000001</ele><time>2026-05-03T09:13:37Z</time></trkpt><trkpt lat="43.36074966696077" lon="-0.5433208043433084"><ele>122.80000000000001</ele><time>2026-05-03T09:13:39Z</time></trkpt><trkpt lat="43.360794496397624" lon="-0.5434003166856102"><ele>123.0</ele><time>2026-05-03T09:13:40Z</time></trkpt><trkpt lat="43.36083813911619" lon="-0.5434754418184908"><ele>123.00000000000001</ele><time>2026-05-03T09:13:41Z</time></trkpt><trkpt lat="43.36087848781114" lon="-0.5435469478759134"><ele>123.0</ele><time>2026-05-03T09:13:42Z</time></trkpt><trkpt lat="43.360923710991976" lon="-0.5436244759387355"><ele>123.00000000000001</ele><time>2026-05-03T09:13:43Z</time></trkpt><trkpt lat="43.36097563304408" lon="-0.543700940498469"><ele>123.00000000000001</ele><time>2026-05-03T09:13:44Z</time></trkpt><trkpt lat="43.361019120514314" lon="-0.5437691930430819"><ele>123.0</ele><time>2026-05-03T09:13:45Z</time></trkpt><trkpt lat="43.36106219146529" lon="-0.5438416793275115"><ele>123.00000000000001</ele><time>2026-05-03T09:13:46Z</time></trkpt><trkpt lat="43.36111147464679" lon="-0.543923911579283"><ele>123.00000000000001</ele><time>2026-05-03T09:13:47Z</time></trkpt><trkpt lat="43.36115521284606" lon="-0.5440009193279043"><ele>122.83333333333333</ele><time>2026-05-03T09:13:48Z</time></trkpt><trkpt lat="43.36123284234774" lon="-0.5441549666699732"><ele>122.66666666666666</ele><time>2026-05-03T09:13:50Z</time></trkpt><trkpt lat="43.36127138871149" lon="-0.5442301458666705"><ele>122.5</ele><time>2026-05-03T09:13:51Z</time></trkpt><trkpt lat="43.36131640036124" lon="-0.5443016872232803"><ele>122.33333333333333</ele><time>2026-05-03T09:13:52Z</time></trkpt><trkpt lat="43.361352805781486" lon="-0.5443758942734307"><ele>122.16666666666666</ele><time>2026-05-03T09:13:53Z</time></trkpt><trkpt lat="43.361393141721784" lon="-0.5444567917184172"><ele>122.0</ele><time>2026-05-03T09:13:54Z</time></trkpt><trkpt lat="43.36143075285122" lon="-0.5445319533651"><ele>121.99999999999999</ele><time>2026-05-03T09:13:55Z</time></trkpt><trkpt lat="43.36147413497134" lon="-0.5445997368148807"><ele>122.0</ele><time>2026-05-03T09:13:56Z</time></trkpt><trkpt lat="43.361523988891875" lon="-0.5446722093806838"><ele>122.0</ele><time>2026-05-03T09:13:57Z</time></trkpt><trkpt lat="43.36157378016825" lon="-0.5447347566418604"><ele>122.0</ele><time>2026-05-03T09:13:58Z</time></trkpt><trkpt lat="43.36166844566283" lon="-0.5448330241023114"><ele>121.99999999999999</ele><time>2026-05-03T09:14:00Z</time></trkpt><trkpt lat="43.361775649025006" lon="-0.5449125346804998"><ele>122.0</ele><time>2026-05-03T09:14:02Z</time></trkpt><trkpt lat="43.36188126674519" lon="-0.5449892448453336"><ele>121.99999999999999</ele><time>2026-05-03T09:14:04Z</time></trkpt><trkpt lat="43.361941846439514" lon="-0.5450149385969074"><ele>122.0</ele><time>2026-05-03T09:14:05Z</time></trkpt><trkpt lat="43.36199100922312" lon="-0.545070046266861"><ele>122.0</ele><time>2026-05-03T09:14:06Z</time></trkpt><trkpt lat="43.36199539534645" lon="-0.5451862194965081"><ele>122.0</ele><time>2026-05-03T09:14:07Z</time></trkpt><trkpt lat="43.362024474744814" lon="-0.5453519831287963"><ele>121.99999999999999</ele><time>2026-05-03T09:14:09Z</time></trkpt><trkpt lat="43.362033117442664" lon="-0.5454696269892279"><ele>122.0</ele><time>2026-05-03T09:14:11Z</time></trkpt><trkpt lat="43.36206938758649" lon="-0.5456268868459875"><ele>122.39999999999999</ele><time>2026-05-03T09:14:13Z</time></trkpt><trkpt lat="43.362087383178" lon="-0.5457663247750526"><ele>122.79999999999998</ele><time>2026-05-03T09:14:15Z</time></trkpt><trkpt lat="43.36210426265621" lon="-0.5459114194066109"><ele>123.2</ele><time>2026-05-03T09:14:17Z</time></trkpt><trkpt lat="43.36210545891152" lon="-0.5460599235542518"><ele>123.6</ele><time>2026-05-03T09:14:19Z</time></trkpt><trkpt lat="43.36211734965963" lon="-0.546203819443249"><ele>124.0</ele><time>2026-05-03T09:14:21Z</time></trkpt><trkpt lat="43.362128323140205" lon="-0.5463874672142365"><ele>124.2</ele><time>2026-05-03T09:14:23Z</time></trkpt><trkpt lat="43.36213126521916" lon="-0.5465665565366882"><ele>124.4</ele><time>2026-05-03T09:14:25Z</time></trkpt><trkpt lat="43.362133655098496" lon="-0.5467120325623567"><ele>124.6</ele><time>2026-05-03T09:14:27Z</time></trkpt><trkpt lat="43.36213536107588" lon="-0.5468158787431286"><ele>124.8</ele><time>2026-05-03T09:14:28Z</time></trkpt><trkpt lat="43.362137186999284" lon="-0.5469270259656408"><ele>125.0</ele><time>2026-05-03T09:14:29Z</time></trkpt><trkpt lat="43.36213930727058" lon="-0.5470341496149701"><ele>124.8</ele><time>2026-05-03T09:14:30Z</time></trkpt><trkpt lat="43.362146048805634" lon="-0.5472083859695075"><ele>124.6</ele><time>2026-05-03T09:14:32Z</time></trkpt><trkpt lat="43.362152421083444" lon="-0.5472954347755612"><ele>124.4</ele><time>2026-05-03T09:14:33Z</time></trkpt><trkpt lat="43.36216663107263" lon="-0.5474426890513553"><ele>124.2</ele><time>2026-05-03T09:14:35Z</time></trkpt><trkpt lat="43.362185430312756" lon="-0.5476036239703612"><ele>124.0</ele><time>2026-05-03T09:14:37Z</time></trkpt><trkpt lat="43.36221394312146" lon="-0.5477493402420013"><ele>123.6</ele><time>2026-05-03T09:14:39Z</time></trkpt><trkpt lat="43.36226107917553" lon="-0.5478731410063843"><ele>123.2</ele><time>2026-05-03T09:14:41Z</time></trkpt><trkpt lat="43.36229993852316" lon="-0.5480237135235226"><ele>122.79999999999998</ele><time>2026-05-03T09:14:43Z</time></trkpt><trkpt lat="43.362372383843606" lon="-0.5481632378193241"><ele>122.39999999999999</ele><time>2026-05-03T09:14:45Z</time></trkpt><trkpt lat="43.362402882899225" lon="-0.5482548339579645"><ele>122.0</ele><time>2026-05-03T09:14:46Z</time></trkpt><trkpt lat="43.36243858537814" lon="-0.5483610830020219"><ele>121.75</ele><time>2026-05-03T09:14:47Z</time></trkpt><trkpt lat="43.36250838269141" lon="-0.5485066914220567"><ele>121.5</ele><time>2026-05-03T09:14:49Z</time></trkpt><trkpt lat="43.362575202423585" lon="-0.548651097352229"><ele>121.25</ele><time>2026-05-03T09:14:51Z</time></trkpt><trkpt lat="43.36260816226267" lon="-0.5488020366953098"><ele>121.0</ele><time>2026-05-03T09:14:53Z</time></trkpt><trkpt lat="43.36262245812988" lon="-0.5489742466829679"><ele>121.0</ele><time>2026-05-03T09:14:55Z</time></trkpt><trkpt lat="43.36263469262125" lon="-0.5491280567253339"><ele>121.0</ele><time>2026-05-03T09:14:57Z</time></trkpt><trkpt lat="43.36263735490747" lon="-0.5492859677236014"><ele>121.0</ele><time>2026-05-03T09:14:59Z</time></trkpt><trkpt lat="43.36263312003583" lon="-0.5494523631610891"><ele>121.0</ele><time>2026-05-03T09:15:01Z</time></trkpt><trkpt lat="43.36262401463305" lon="-0.549545269156115"><ele>121.0</ele><time>2026-05-03T09:15:02Z</time></trkpt><trkpt lat="43.36260822633203" lon="-0.5496317566492734"><ele>120.85714285714285</ele><time>2026-05-03T09:15:03Z</time></trkpt><trkpt lat="43.36260850079048" lon="-0.5497291406437301"><ele>120.7142857142857</ele><time>2026-05-03T09:15:04Z</time></trkpt><trkpt lat="43.36260463252041" lon="-0.5498163529645071"><ele>120.57142857142857</ele><time>2026-05-03T09:15:05Z</time></trkpt><trkpt lat="43.3626058913935" lon="-0.5499036310663488"><ele>120.42857142857142</ele><time>2026-05-03T09:15:06Z</time></trkpt><trkpt lat="43.362612030214876" lon="-0.5500018818312501"><ele>120.28571428571428</ele><time>2026-05-03T09:15:07Z</time></trkpt><trkpt lat="43.36261601165549" lon="-0.5500938876564506"><ele>120.14285714285714</ele><time>2026-05-03T09:15:08Z</time></trkpt><trkpt lat="43.362629489692296" lon="-0.5501828687986343"><ele>120.0</ele><time>2026-05-03T09:15:09Z</time></trkpt><trkpt lat="43.36264412974217" lon="-0.5502759888196794"><ele>120.0</ele><time>2026-05-03T09:15:10Z</time></trkpt><trkpt lat="43.36267154098766" lon="-0.550362564586158"><ele>120.0</ele><time>2026-05-03T09:15:11Z</time></trkpt><trkpt lat="43.3626904755774" lon="-0.5504461596257525"><ele>120.0</ele><time>2026-05-03T09:15:12Z</time></trkpt><trkpt lat="43.36273518270633" lon="-0.5505966579784679"><ele>120.0</ele><time>2026-05-03T09:15:14Z</time></trkpt><trkpt lat="43.36277730706365" lon="-0.550663696925256"><ele>120.0</ele><time>2026-05-03T09:15:15Z</time></trkpt><trkpt lat="43.362828626935794" lon="-0.5508110350152978"><ele>120.0</ele><time>2026-05-03T09:15:17Z</time></trkpt><trkpt lat="43.36290923110026" lon="-0.5509426197718497"><ele>120.0</ele><time>2026-05-03T09:15:19Z</time></trkpt><trkpt lat="43.36299887184624" lon="-0.5510676584602939"><ele>120.0</ele><time>2026-05-03T09:15:21Z</time></trkpt><trkpt lat="43.363041949697674" lon="-0.5511360639209989"><ele>120.0</ele><time>2026-05-03T09:15:22Z</time></trkpt><trkpt lat="43.363081604371345" lon="-0.5512062951338551"><ele>120.0</ele><time>2026-05-03T09:15:23Z</time></trkpt><trkpt lat="43.363125236748964" lon="-0.5512696649622574"><ele>120.0</ele><time>2026-05-03T09:15:24Z</time></trkpt><trkpt lat="43.363213669978855" lon="-0.5513935908767672"><ele>120.0</ele><time>2026-05-03T09:15:26Z</time></trkpt><trkpt lat="43.36330965977365" lon="-0.5514821056191322"><ele>120.0</ele><time>2026-05-03T09:15:28Z</time></trkpt><trkpt lat="43.36341173656541" lon="-0.5515746118860274"><ele>120.0</ele><time>2026-05-03T09:15:30Z</time></trkpt><trkpt lat="43.36346235401687" lon="-0.5516384878070499"><ele>120.0</ele><time>2026-05-03T09:15:31Z</time></trkpt><trkpt lat="43.36351248711181" lon="-0.5516950764746513"><ele>120.0</ele><time>2026-05-03T09:15:32Z</time></trkpt><trkpt lat="43.36370669733827" lon="-0.5519037423798577"><ele>120.0</ele><time>2026-05-03T09:16:10Z</time></trkpt><trkpt lat="43.36376517571308" lon="-0.551988849850952"><ele>120.0</ele><time>2026-05-03T09:16:14Z</time></trkpt><trkpt lat="43.36381010206082" lon="-0.5520522802746706"><ele>120.0</ele><time>2026-05-03T09:16:16Z</time></trkpt><trkpt lat="43.363869257536685" lon="-0.5521226966304208"><ele>120.0</ele><time>2026-05-03T09:16:18Z</time></trkpt><trkpt lat="43.363946083805786" lon="-0.5522251518498535"><ele>120.0</ele><time>2026-05-03T09:16:20Z</time></trkpt><trkpt lat="43.36401259751555" lon="-0.5523085210004488"><ele>120.0</ele><time>2026-05-03T09:16:22Z</time></trkpt><trkpt lat="43.3640954638396" lon="-0.5524135994416538"><ele>120.0</ele><time>2026-05-03T09:16:24Z</time></trkpt><trkpt lat="43.364193278248955" lon="-0.5525095187676738"><ele>120.0</ele><time>2026-05-03T09:16:26Z</time></trkpt><trkpt lat="43.3642938359741" lon="-0.5526058137933809"><ele>120.0</ele><time>2026-05-03T09:16:28Z</time></trkpt><trkpt lat="43.36440530732845" lon="-0.5526969629250199"><ele>120.0</ele><time>2026-05-03T09:16:30Z</time></trkpt><trkpt lat="43.36445791676534" lon="-0.552757478255246"><ele>120.0</ele><time>2026-05-03T09:16:31Z</time></trkpt><trkpt lat="43.364513790577796" lon="-0.5528070950141261"><ele>120.0</ele><time>2026-05-03T09:16:32Z</time></trkpt><trkpt lat="43.364569232870465" lon="-0.552860044284791"><ele>120.0</ele><time>2026-05-03T09:16:33Z</time></trkpt><trkpt lat="43.3646242538764" lon="-0.5529158742012449"><ele>120.0</ele><time>2026-05-03T09:16:34Z</time></trkpt><trkpt lat="43.36467638122285" lon="-0.5529782048298307"><ele>120.0</ele><time>2026-05-03T09:16:35Z</time></trkpt><trkpt lat="43.36473184176083" lon="-0.5530385392867827"><ele>120.0</ele><time>2026-05-03T09:16:36Z</time></trkpt><trkpt lat="43.36478575915954" lon="-0.553103986332208"><ele>120.0</ele><time>2026-05-03T09:16:37Z</time></trkpt><trkpt lat="43.364839855539834" lon="-0.5531755214755111"><ele>120.0</ele><time>2026-05-03T09:16:38Z</time></trkpt><trkpt lat="43.36489229641456" lon="-0.5532506144302278"><ele>120.14285714285714</ele><time>2026-05-03T09:16:39Z</time></trkpt><trkpt lat="43.36494159381756" lon="-0.5533212956255503"><ele>120.28571428571428</ele><time>2026-05-03T09:16:40Z</time></trkpt><trkpt lat="43.364996854340745" lon="-0.553394049926047"><ele>120.42857142857142</ele><time>2026-05-03T09:16:41Z</time></trkpt><trkpt lat="43.36504266969444" lon="-0.5534730710632629"><ele>120.57142857142857</ele><time>2026-05-03T09:16:42Z</time></trkpt><trkpt lat="43.36508500946596" lon="-0.5535592949971387"><ele>120.7142857142857</ele><time>2026-05-03T09:16:43Z</time></trkpt><trkpt lat="43.36513111624496" lon="-0.5536395962853532"><ele>120.85714285714285</ele><time>2026-05-03T09:16:44Z</time></trkpt><trkpt lat="43.36517490102206" lon="-0.5537215951277594"><ele>121.0</ele><time>2026-05-03T09:16:45Z</time></trkpt><trkpt lat="43.36522127965815" lon="-0.553810941664319"><ele>121.0</ele><time>2026-05-03T09:16:46Z</time></trkpt><trkpt lat="43.36526196528684" lon="-0.5538969352401728"><ele>120.99999999999999</ele><time>2026-05-03T09:16:47Z</time></trkpt><trkpt lat="43.365302879484204" lon="-0.5539823566228033"><ele>121.0</ele><time>2026-05-03T09:16:48Z</time></trkpt><trkpt lat="43.36534561933696" lon="-0.5540651501895867"><ele>121.0</ele><time>2026-05-03T09:16:49Z</time></trkpt><trkpt lat="43.36538882622457" lon="-0.5541441038374872"><ele>120.99999999999999</ele><time>2026-05-03T09:16:50Z</time></trkpt><trkpt lat="43.36543297097632" lon="-0.5542242440786114"><ele>121.0</ele><time>2026-05-03T09:16:51Z</time></trkpt><trkpt lat="43.365477275308" lon="-0.5543082356843345"><ele>121.0</ele><time>2026-05-03T09:16:52Z</time></trkpt><trkpt lat="43.365520460501955" lon="-0.5543868274383128"><ele>121.14285714285714</ele><time>2026-05-03T09:16:53Z</time></trkpt><trkpt lat="43.36556261247794" lon="-0.5544662592809508"><ele>121.28571428571428</ele><time>2026-05-03T09:16:54Z</time></trkpt><trkpt lat="43.365602352894335" lon="-0.554550184989143"><ele>121.42857142857142</ele><time>2026-05-03T09:16:55Z</time></trkpt><trkpt lat="43.3656443141553" lon="-0.5546291926411514"><ele>121.57142857142856</ele><time>2026-05-03T09:16:56Z</time></trkpt><trkpt lat="43.36568614840636" lon="-0.5547239854356599"><ele>121.71428571428571</ele><time>2026-05-03T09:16:57Z</time></trkpt><trkpt lat="43.365729104638916" lon="-0.5548057867211684"><ele>121.85714285714283</ele><time>2026-05-03T09:16:58Z</time></trkpt><trkpt lat="43.36577180318661" lon="-0.554895791752234"><ele>121.99999999999999</ele><time>2026-05-03T09:16:59Z</time></trkpt><trkpt lat="43.365812540083645" lon="-0.5549787960937208"><ele>121.99999999999999</ele><time>2026-05-03T09:17:00Z</time></trkpt><trkpt lat="43.365859135381655" lon="-0.5550655686145157"><ele>122.0</ele><time>2026-05-03T09:17:01Z</time></trkpt><trkpt lat="43.36590325342428" lon="-0.5551484003918608"><ele>122.0</ele><time>2026-05-03T09:17:02Z</time></trkpt><trkpt lat="43.36594435711128" lon="-0.5552377167596764"><ele>122.0</ele><time>2026-05-03T09:17:03Z</time></trkpt><trkpt lat="43.36598477365459" lon="-0.5553234171223835"><ele>121.99999999999999</ele><time>2026-05-03T09:17:04Z</time></trkpt><trkpt lat="43.3660284886018" lon="-0.5554088979520222"><ele>122.0</ele><time>2026-05-03T09:17:05Z</time></trkpt><trkpt lat="43.3660677819905" lon="-0.5554969451994689"><ele>121.99999999999999</ele><time>2026-05-03T09:17:06Z</time></trkpt><trkpt lat="43.366107665659285" lon="-0.5555875580158182"><ele>122.0</ele><time>2026-05-03T09:17:07Z</time></trkpt><trkpt lat="43.36614665428636" lon="-0.555677773629203"><ele>122.0</ele><time>2026-05-03T09:17:08Z</time></trkpt><trkpt lat="43.36618701647538" lon="-0.5557662810973366"><ele>122.0</ele><time>2026-05-03T09:17:09Z</time></trkpt><trkpt lat="43.36622756256326" lon="-0.555856612412813"><ele>121.99999999999999</ele><time>2026-05-03T09:17:10Z</time></trkpt><trkpt lat="43.366279149442974" lon="-0.5559480562515109"><ele>122.0</ele><time>2026-05-03T09:17:11Z</time></trkpt><trkpt lat="43.36631585977336" lon="-0.5560285013725723"><ele>121.99999999999999</ele><time>2026-05-03T09:17:12Z</time></trkpt><trkpt lat="43.366359604903074" lon="-0.5561106406660034"><ele>122.0</ele><time>2026-05-03T09:17:13Z</time></trkpt><trkpt lat="43.36640655730332" lon="-0.5561991816177896"><ele>122.0</ele><time>2026-05-03T09:17:14Z</time></trkpt><trkpt lat="43.36645616759469" lon="-0.5562744556233536"><ele>122.0</ele><time>2026-05-03T09:17:15Z</time></trkpt><trkpt lat="43.36650390214936" lon="-0.5563568952202731"><ele>121.99999999999999</ele><time>2026-05-03T09:17:16Z</time></trkpt><trkpt lat="43.36655143986405" lon="-0.5564362885194958"><ele>122.0</ele><time>2026-05-03T09:17:17Z</time></trkpt><trkpt lat="43.36660330743532" lon="-0.5565098607518892"><ele>121.66666666666666</ele><time>2026-05-03T09:17:18Z</time></trkpt><trkpt lat="43.36665132896406" lon="-0.5565888710923773"><ele>121.33333333333333</ele><time>2026-05-03T09:17:19Z</time></trkpt><trkpt lat="43.36669808666636" lon="-0.5566713644708927"><ele>121.0</ele><time>2026-05-03T09:17:20Z</time></trkpt><trkpt lat="43.36674042031239" lon="-0.5567537422759933"><ele>120.66666666666666</ele><time>2026-05-03T09:17:21Z</time></trkpt><trkpt lat="43.36678268681183" lon="-0.5568207694817293"><ele>120.33333333333333</ele><time>2026-05-03T09:17:22Z</time></trkpt><trkpt lat="43.366864570002285" lon="-0.5569315969167012"><ele>120.0</ele><time>2026-05-03T09:17:24Z</time></trkpt><trkpt lat="43.3669129828195" lon="-0.556987638939878"><ele>119.85714285714286</ele><time>2026-05-03T09:17:25Z</time></trkpt><trkpt lat="43.36696819927775" lon="-0.5570398107136444"><ele>119.71428571428571</ele><time>2026-05-03T09:17:26Z</time></trkpt><trkpt lat="43.367032228390315" lon="-0.557083330390108"><ele>119.57142857142857</ele><time>2026-05-03T09:17:27Z</time></trkpt><trkpt lat="43.36709644783225" lon="-0.5571181695660717"><ele>119.42857142857143</ele><time>2026-05-03T09:17:28Z</time></trkpt><trkpt lat="43.3671575114018" lon="-0.5571677171495648"><ele>119.28571428571428</ele><time>2026-05-03T09:17:29Z</time></trkpt><trkpt lat="43.367217858904944" lon="-0.5572209952047588"><ele>119.14285714285714</ele><time>2026-05-03T09:17:30Z</time></trkpt><trkpt lat="43.36728321285606" lon="-0.5572778833645667"><ele>119.0</ele><time>2026-05-03T09:17:31Z</time></trkpt><trkpt lat="43.367346898403355" lon="-0.5573261889379724"><ele>119.0</ele><time>2026-05-03T09:17:32Z</time></trkpt><trkpt lat="43.36740916905974" lon="-0.5573789207420021"><ele>119.0</ele><time>2026-05-03T09:17:33Z</time></trkpt><trkpt lat="43.36747335433196" lon="-0.5574305692533299"><ele>119.0</ele><time>2026-05-03T09:17:34Z</time></trkpt><trkpt lat="43.367534163017986" lon="-0.5574816476154869"><ele>119.0</ele><time>2026-05-03T09:17:35Z</time></trkpt><trkpt lat="43.367597319440534" lon="-0.5575395421001156"><ele>119.0</ele><time>2026-05-03T09:17:36Z</time></trkpt><trkpt lat="43.367662428529044" lon="-0.5576001330645052"><ele>119.0</ele><time>2026-05-03T09:17:37Z</time></trkpt><trkpt lat="43.36772563475521" lon="-0.5576578047850805"><ele>119.0</ele><time>2026-05-03T09:17:38Z</time></trkpt><trkpt lat="43.36779182853193" lon="-0.5577098005020233"><ele>118.99999999999999</ele><time>2026-05-03T09:17:39Z</time></trkpt><trkpt lat="43.36785701663711" lon="-0.5577535721618696"><ele>119.0</ele><time>2026-05-03T09:17:40Z</time></trkpt><trkpt lat="43.36792272073391" lon="-0.5578045597588336"><ele>119.0</ele><time>2026-05-03T09:17:41Z</time></trkpt><trkpt lat="43.36798684910179" lon="-0.5578601544965592"><ele>119.0</ele><time>2026-05-03T09:17:42Z</time></trkpt><trkpt lat="43.368046685275324" lon="-0.5579181253958696"><ele>118.99999999999999</ele><time>2026-05-03T09:17:43Z</time></trkpt><trkpt lat="43.36811352104433" lon="-0.5579718498685513"><ele>119.0</ele><time>2026-05-03T09:17:44Z</time></trkpt><trkpt lat="43.368178959933" lon="-0.5580240754613776"><ele>119.0</ele><time>2026-05-03T09:17:45Z</time></trkpt><trkpt lat="43.36824756759582" lon="-0.5580800889305034"><ele>119.0</ele><time>2026-05-03T09:17:46Z</time></trkpt><trkpt lat="43.36831435786636" lon="-0.5581385167208766"><ele>119.0</ele><time>2026-05-03T09:17:47Z</time></trkpt><trkpt lat="43.368378276972884" lon="-0.5581931294558592"><ele>119.0</ele><time>2026-05-03T09:17:48Z</time></trkpt><trkpt lat="43.36844112502646" lon="-0.5582472871980666"><ele>119.0</ele><time>2026-05-03T09:17:49Z</time></trkpt><trkpt lat="43.36850936726023" lon="-0.5582666079889907"><ele>119.0</ele><time>2026-05-03T09:17:50Z</time></trkpt><trkpt lat="43.36857561731547" lon="-0.5582468415890502"><ele>119.0</ele><time>2026-05-03T09:17:51Z</time></trkpt><trkpt lat="43.36862796436472" lon="-0.5581694797516097"><ele>119.0</ele><time>2026-05-03T09:17:52Z</time></trkpt><trkpt lat="43.36869165656439" lon="-0.5581480269662128"><ele>119.0</ele><time>2026-05-03T09:17:53Z</time></trkpt><trkpt lat="43.36875539046052" lon="-0.5581313784801045"><ele>119.0</ele><time>2026-05-03T09:17:54Z</time></trkpt><trkpt lat="43.36882417766124" lon="-0.5581522092596921"><ele>119.0</ele><time>2026-05-03T09:17:55Z</time></trkpt><trkpt lat="43.36888560991377" lon="-0.558207903969112"><ele>119.0</ele><time>2026-05-03T09:17:56Z</time></trkpt><trkpt lat="43.36893804605479" lon="-0.5582825590728789"><ele>119.0</ele><time>2026-05-03T09:17:57Z</time></trkpt><trkpt lat="43.36897922416616" lon="-0.5583707219710622"><ele>119.0</ele><time>2026-05-03T09:17:58Z</time></trkpt><trkpt lat="43.369020566682984" lon="-0.558446552204769"><ele>118.99999999999999</ele><time>2026-05-03T09:17:59Z</time></trkpt><trkpt lat="43.369059165030016" lon="-0.5585342546744808"><ele>119.0</ele><time>2026-05-03T09:18:00Z</time></trkpt><trkpt lat="43.3690955779032" lon="-0.5586233537573948"><ele>119.0</ele><time>2026-05-03T09:18:01Z</time></trkpt><trkpt lat="43.36916144533528" lon="-0.5587950138701727"><ele>119.0</ele><time>2026-05-03T09:18:03Z</time></trkpt><trkpt lat="43.36919572577112" lon="-0.5588833537590331"><ele>118.99999999999999</ele><time>2026-05-03T09:18:04Z</time></trkpt><trkpt lat="43.36922575661413" lon="-0.5589772346226715"><ele>119.0</ele><time>2026-05-03T09:18:05Z</time></trkpt><trkpt lat="43.36925683905927" lon="-0.5590651859144713"><ele>119.0</ele><time>2026-05-03T09:18:06Z</time></trkpt><trkpt lat="43.36928739274451" lon="-0.5591603664493867"><ele>119.0</ele><time>2026-05-03T09:18:07Z</time></trkpt><trkpt lat="43.36931461754879" lon="-0.5592533902672439"><ele>119.0</ele><time>2026-05-03T09:18:08Z</time></trkpt><trkpt lat="43.36934766581343" lon="-0.5593419340077168"><ele>119.0</ele><time>2026-05-03T09:18:09Z</time></trkpt><trkpt lat="43.369386490999794" lon="-0.5594300435654663"><ele>119.0</ele><time>2026-05-03T09:18:10Z</time></trkpt><trkpt lat="43.36942134840722" lon="-0.5595175113212422"><ele>119.0</ele><time>2026-05-03T09:18:11Z</time></trkpt><trkpt lat="43.369454298495285" lon="-0.5596098601203443"><ele>119.0</ele><time>2026-05-03T09:18:12Z</time></trkpt><trkpt lat="43.36948968430953" lon="-0.5596998902561715"><ele>118.71428571428572</ele><time>2026-05-03T09:18:13Z</time></trkpt><trkpt lat="43.369528980403516" lon="-0.559784489443146"><ele>118.42857142857143</ele><time>2026-05-03T09:18:14Z</time></trkpt><trkpt lat="43.36956495877467" lon="-0.5598735797121853"><ele>118.14285714285714</ele><time>2026-05-03T09:18:15Z</time></trkpt><trkpt lat="43.36960390564046" lon="-0.5599586708119486"><ele>117.85714285714286</ele><time>2026-05-03T09:18:16Z</time></trkpt><trkpt lat="43.36964502701537" lon="-0.5600438223640992"><ele>117.57142857142858</ele><time>2026-05-03T09:18:17Z</time></trkpt><trkpt lat="43.36969279908243" lon="-0.5601202503846104"><ele>117.28571428571429</ele><time>2026-05-03T09:18:18Z</time></trkpt><trkpt lat="43.369737952590484" lon="-0.5601951549995974"><ele>117.0</ele><time>2026-05-03T09:18:19Z</time></trkpt><trkpt lat="43.369790916001634" lon="-0.560271116787298"><ele>116.83333333333333</ele><time>2026-05-03T09:18:20Z</time></trkpt><trkpt lat="43.369842366964605" lon="-0.5603490435885653"><ele>116.66666666666666</ele><time>2026-05-03T09:18:21Z</time></trkpt><trkpt lat="43.36988876933951" lon="-0.5604341601441747"><ele>116.5</ele><time>2026-05-03T09:18:22Z</time></trkpt><trkpt lat="43.369938422026244" lon="-0.5605160282839969"><ele>116.33333333333333</ele><time>2026-05-03T09:18:23Z</time></trkpt><trkpt lat="43.36999149518195" lon="-0.5605891322449228"><ele>116.16666666666666</ele><time>2026-05-03T09:18:24Z</time></trkpt><trkpt lat="43.370046505849345" lon="-0.5606729370808133"><ele>116.0</ele><time>2026-05-03T09:18:25Z</time></trkpt><trkpt lat="43.370103592791935" lon="-0.560751447611391"><ele>116.33333333333333</ele><time>2026-05-03T09:18:26Z</time></trkpt><trkpt lat="43.37015615910546" lon="-0.5608378428241606"><ele>116.66666666666666</ele><time>2026-05-03T09:18:27Z</time></trkpt><trkpt lat="43.37020403958865" lon="-0.5609258766377627"><ele>117.0</ele><time>2026-05-03T09:18:28Z</time></trkpt><trkpt lat="43.37025677837264" lon="-0.5610107917847779"><ele>117.33333333333334</ele><time>2026-05-03T09:18:29Z</time></trkpt><trkpt lat="43.37030638692124" lon="-0.5610967807088625"><ele>117.66666666666667</ele><time>2026-05-03T09:18:30Z</time></trkpt><trkpt lat="43.37035695429796" lon="-0.5611798982311041"><ele>118.0</ele><time>2026-05-03T09:18:31Z</time></trkpt><trkpt lat="43.37040562268907" lon="-0.5612744745776431"><ele>118.00000000000001</ele><time>2026-05-03T09:18:32Z</time></trkpt><trkpt lat="43.3704534599599" lon="-0.561361004630002"><ele>118.0</ele><time>2026-05-03T09:18:33Z</time></trkpt><trkpt lat="43.370506986231035" lon="-0.5614365905145151"><ele>118.0</ele><time>2026-05-03T09:18:34Z</time></trkpt><trkpt lat="43.37055607670222" lon="-0.5615226585953002"><ele>118.0</ele><time>2026-05-03T09:18:35Z</time></trkpt><trkpt lat="43.37060596938373" lon="-0.5616027082065302"><ele>118.00000000000001</ele><time>2026-05-03T09:18:36Z</time></trkpt><trkpt lat="43.37064330245837" lon="-0.5616953177089714"><ele>118.0</ele><time>2026-05-03T09:18:37Z</time></trkpt><trkpt lat="43.370675948379414" lon="-0.5617872718929932"><ele>117.83333333333334</ele><time>2026-05-03T09:18:38Z</time></trkpt><trkpt lat="43.37070358849266" lon="-0.5618806233519839"><ele>117.66666666666667</ele><time>2026-05-03T09:18:39Z</time></trkpt><trkpt lat="43.37073246004437" lon="-0.561978116236996"><ele>117.5</ele><time>2026-05-03T09:18:40Z</time></trkpt><trkpt lat="43.37075777871133" lon="-0.5620769645667484"><ele>117.33333333333334</ele><time>2026-05-03T09:18:41Z</time></trkpt><trkpt lat="43.37077769846472" lon="-0.562180139603918"><ele>117.16666666666667</ele><time>2026-05-03T09:18:42Z</time></trkpt><trkpt lat="43.370791274778945" lon="-0.5622873814918248"><ele>117.0</ele><time>2026-05-03T09:18:43Z</time></trkpt><trkpt lat="43.37079577348847" lon="-0.5623955007615322"><ele>116.66666666666667</ele><time>2026-05-03T09:18:44Z</time></trkpt><trkpt lat="43.370798783011466" lon="-0.5625064250461749"><ele>116.33333333333334</ele><time>2026-05-03T09:18:45Z</time></trkpt><trkpt lat="43.37079930292384" lon="-0.5626175511504669"><ele>116.0</ele><time>2026-05-03T09:18:46Z</time></trkpt><trkpt lat="43.37079850759896" lon="-0.5627319735061376"><ele>115.66666666666667</ele><time>2026-05-03T09:18:47Z</time></trkpt><trkpt lat="43.37079612355209" lon="-0.5628469030945787"><ele>115.33333333333334</ele><time>2026-05-03T09:18:48Z</time></trkpt><trkpt lat="43.37079442167249" lon="-0.5629610939766124"><ele>115.0</ele><time>2026-05-03T09:18:49Z</time></trkpt><trkpt lat="43.370798187847" lon="-0.5630773587768884"><ele>115.00000000000001</ele><time>2026-05-03T09:18:50Z</time></trkpt><trkpt lat="43.370813812172045" lon="-0.5631912625146768"><ele>115.0</ele><time>2026-05-03T09:18:51Z</time></trkpt><trkpt lat="43.37083084537193" lon="-0.5633031112040748"><ele>115.0</ele><time>2026-05-03T09:18:52Z</time></trkpt><trkpt lat="43.37084100929091" lon="-0.563413648956773"><ele>115.0</ele><time>2026-05-03T09:18:53Z</time></trkpt><trkpt lat="43.37084308881687" lon="-0.5635256079123449"><ele>115.00000000000001</ele><time>2026-05-03T09:18:54Z</time></trkpt><trkpt lat="43.370840441980384" lon="-0.5636362039086318"><ele>115.0</ele><time>2026-05-03T09:18:55Z</time></trkpt><trkpt lat="43.370840016425454" lon="-0.5637480156350582"><ele>115.16666666666667</ele><time>2026-05-03T09:18:56Z</time></trkpt><trkpt lat="43.370839093619416" lon="-0.5638573833543018"><ele>115.33333333333334</ele><time>2026-05-03T09:18:57Z</time></trkpt><trkpt lat="43.37083564923534" lon="-0.563962704391744"><ele>115.5</ele><time>2026-05-03T09:18:58Z</time></trkpt><trkpt lat="43.37081875410745" lon="-0.5640706903776597"><ele>115.66666666666666</ele><time>2026-05-03T09:18:59Z</time></trkpt><trkpt lat="43.37080003800133" lon="-0.5641758653137028"><ele>115.83333333333333</ele><time>2026-05-03T09:19:00Z</time></trkpt><trkpt lat="43.37078973532809" lon="-0.5642840954622204"><ele>116.0</ele><time>2026-05-03T09:19:01Z</time></trkpt><trkpt lat="43.37078468338734" lon="-0.5643867424676516"><ele>115.99999999999999</ele><time>2026-05-03T09:19:02Z</time></trkpt><trkpt lat="43.370771824055346" lon="-0.5644926336100006"><ele>116.0</ele><time>2026-05-03T09:19:03Z</time></trkpt><trkpt lat="43.370755961260954" lon="-0.564595173780431"><ele>116.0</ele><time>2026-05-03T09:19:04Z</time></trkpt><trkpt lat="43.37074156140642" lon="-0.5646964328012691"><ele>116.0</ele><time>2026-05-03T09:19:05Z</time></trkpt><trkpt lat="43.37072941910072" lon="-0.5648010775482438"><ele>115.99999999999999</ele><time>2026-05-03T09:19:06Z</time></trkpt><trkpt lat="43.37071465300982" lon="-0.5649037888883487"><ele>116.0</ele><time>2026-05-03T09:19:07Z</time></trkpt><trkpt lat="43.37070708390505" lon="-0.5650092565113729"><ele>115.99999999999999</ele><time>2026-05-03T09:19:08Z</time></trkpt><trkpt lat="43.37070042061765" lon="-0.5651120277532578"><ele>116.0</ele><time>2026-05-03T09:19:09Z</time></trkpt><trkpt lat="43.37070065513428" lon="-0.5652167320017182"><ele>116.0</ele><time>2026-05-03T09:19:10Z</time></trkpt><trkpt lat="43.37070909975105" lon="-0.5653218361209469"><ele>116.0</ele><time>2026-05-03T09:19:11Z</time></trkpt><trkpt lat="43.370721862383604" lon="-0.5654224876928459"><ele>115.99999999999999</ele><time>2026-05-03T09:19:12Z</time></trkpt><trkpt lat="43.37074671146452" lon="-0.5655226735475829"><ele>116.0</ele><time>2026-05-03T09:19:13Z</time></trkpt><trkpt lat="43.37078246925229" lon="-0.5656195503712832"><ele>115.99999999999999</ele><time>2026-05-03T09:19:14Z</time></trkpt><trkpt lat="43.370815823604175" lon="-0.565711932336275"><ele>116.0</ele><time>2026-05-03T09:19:15Z</time></trkpt><trkpt lat="43.37085777262829" lon="-0.565805990025944"><ele>116.0</ele><time>2026-05-03T09:19:16Z</time></trkpt><trkpt lat="43.37090624938962" lon="-0.5658876510119668"><ele>116.0</ele><time>2026-05-03T09:19:17Z</time></trkpt><trkpt lat="43.370961133021666" lon="-0.5659607807900225"><ele>115.99999999999999</ele><time>2026-05-03T09:19:18Z</time></trkpt><trkpt lat="43.37101570862924" lon="-0.566037966265491"><ele>116.0</ele><time>2026-05-03T09:19:19Z</time></trkpt><trkpt lat="43.37107613854265" lon="-0.5661076804068246"><ele>115.99999999999999</ele><time>2026-05-03T09:19:20Z</time></trkpt><trkpt lat="43.37113411505536" lon="-0.5661652346364431"><ele>116.0</ele><time>2026-05-03T09:19:21Z</time></trkpt><trkpt lat="43.371204975277166" lon="-0.5662208539848087"><ele>116.0</ele><time>2026-05-03T09:19:22Z</time></trkpt><trkpt lat="43.3712644950418" lon="-0.5662727630168689"><ele>116.0</ele><time>2026-05-03T09:19:23Z</time></trkpt><trkpt lat="43.37133392622445" lon="-0.5663472421552366"><ele>115.99999999999999</ele><time>2026-05-03T09:19:24Z</time></trkpt><trkpt lat="43.37139567192849" lon="-0.5664088415120866"><ele>116.0</ele><time>2026-05-03T09:19:25Z</time></trkpt><trkpt lat="43.37145641108863" lon="-0.5664637930400482"><ele>115.66666666666666</ele><time>2026-05-03T09:19:26Z</time></trkpt><trkpt lat="43.37151527256483" lon="-0.5665243333554796"><ele>115.33333333333333</ele><time>2026-05-03T09:19:27Z</time></trkpt><trkpt lat="43.37157401215096" lon="-0.5665922720595741"><ele>115.0</ele><time>2026-05-03T09:19:28Z</time></trkpt><trkpt lat="43.37162820794823" lon="-0.5666656845652803"><ele>114.66666666666666</ele><time>2026-05-03T09:19:29Z</time></trkpt><trkpt lat="43.3716844796987" lon="-0.5667365131431754"><ele>114.33333333333333</ele><time>2026-05-03T09:19:30Z</time></trkpt><trkpt lat="43.37173879552276" lon="-0.566806391148358"><ele>114.0</ele><time>2026-05-03T09:19:31Z</time></trkpt><trkpt lat="43.37179350512163" lon="-0.5668749292415063"><ele>114.0</ele><time>2026-05-03T09:19:32Z</time></trkpt><trkpt lat="43.371845927662065" lon="-0.5669511399525938"><ele>114.0</ele><time>2026-05-03T09:19:33Z</time></trkpt><trkpt lat="43.371898865971566" lon="-0.5670200533706351"><ele>114.0</ele><time>2026-05-03T09:19:34Z</time></trkpt><trkpt lat="43.37195828142663" lon="-0.567095239065099"><ele>114.0</ele><time>2026-05-03T09:19:35Z</time></trkpt><trkpt lat="43.372015536827405" lon="-0.5671722669656433"><ele>114.0</ele><time>2026-05-03T09:19:36Z</time></trkpt><trkpt lat="43.372075541498894" lon="-0.5672446209395942"><ele>114.0</ele><time>2026-05-03T09:19:37Z</time></trkpt><trkpt lat="43.3721426780932" lon="-0.5673092163631266"><ele>113.66666666666667</ele><time>2026-05-03T09:19:38Z</time></trkpt><trkpt lat="43.3722021455273" lon="-0.5673810297831116"><ele>113.33333333333334</ele><time>2026-05-03T09:19:39Z</time></trkpt><trkpt lat="43.37226378192467" lon="-0.5674497239467792"><ele>113.0</ele><time>2026-05-03T09:19:40Z</time></trkpt><trkpt lat="43.37231969019902" lon="-0.5675250576242905"><ele>112.66666666666667</ele><time>2026-05-03T09:19:41Z</time></trkpt><trkpt lat="43.37235920449468" lon="-0.567610370394797"><ele>112.33333333333334</ele><time>2026-05-03T09:19:42Z</time></trkpt><trkpt lat="43.37237766012244" lon="-0.5677079706365397"><ele>112.0</ele><time>2026-05-03T09:19:43Z</time></trkpt><trkpt lat="43.37240098915055" lon="-0.567807669420309"><ele>112.42857142857143</ele><time>2026-05-03T09:19:44Z</time></trkpt><trkpt lat="43.37241322775797" lon="-0.5678992360450729"><ele>112.85714285714286</ele><time>2026-05-03T09:19:45Z</time></trkpt><trkpt lat="43.37241921734441" lon="-0.5679889795392676"><ele>113.28571428571428</ele><time>2026-05-03T09:19:46Z</time></trkpt><trkpt lat="43.372437633261036" lon="-0.5680825282651529"><ele>113.71428571428571</ele><time>2026-05-03T09:19:47Z</time></trkpt><trkpt lat="43.37245839645126" lon="-0.5681732632322012"><ele>114.14285714285714</ele><time>2026-05-03T09:19:48Z</time></trkpt><trkpt lat="43.37247809525666" lon="-0.5682596328897205"><ele>114.57142857142856</ele><time>2026-05-03T09:19:49Z</time></trkpt><trkpt lat="43.37250858088927" lon="-0.5683425921679056"><ele>114.99999999999999</ele><time>2026-05-03T09:19:50Z</time></trkpt><trkpt lat="43.37253767291654" lon="-0.5684344404492975"><ele>115.00000000000001</ele><time>2026-05-03T09:19:51Z</time></trkpt><trkpt lat="43.37256671176981" lon="-0.5685278514492385"><ele>115.0</ele><time>2026-05-03T09:19:52Z</time></trkpt><trkpt lat="43.37259721648092" lon="-0.5686171506188867"><ele>115.0</ele><time>2026-05-03T09:19:53Z</time></trkpt><trkpt lat="43.37262704918658" lon="-0.5687174719428467"><ele>115.0</ele><time>2026-05-03T09:19:54Z</time></trkpt><trkpt lat="43.3726571213873" lon="-0.5688201181889855"><ele>115.00000000000001</ele><time>2026-05-03T09:19:55Z</time></trkpt><trkpt lat="43.37268306867811" lon="-0.5689160390121446"><ele>115.0</ele><time>2026-05-03T09:19:56Z</time></trkpt><trkpt lat="43.372710181696895" lon="-0.5690132751683099"><ele>114.99999999999999</ele><time>2026-05-03T09:19:57Z</time></trkpt><trkpt lat="43.37274343212132" lon="-0.5691085172275219"><ele>115.0</ele><time>2026-05-03T09:19:58Z</time></trkpt><trkpt lat="43.37277800124674" lon="-0.5692032607123936"><ele>114.99999999999999</ele><time>2026-05-03T09:19:59Z</time></trkpt><trkpt lat="43.37280826739138" lon="-0.5692955776065493"><ele>114.99999999999999</ele><time>2026-05-03T09:20:00Z</time></trkpt><trkpt lat="43.37283548783704" lon="-0.5693849800103776"><ele>115.0</ele><time>2026-05-03T09:20:01Z</time></trkpt><trkpt lat="43.37285912554399" lon="-0.5694762897889595"><ele>114.99999999999999</ele><time>2026-05-03T09:20:02Z</time></trkpt><trkpt lat="43.37288490461301" lon="-0.5695668560419306"><ele>114.99999999999999</ele><time>2026-05-03T09:20:03Z</time></trkpt><trkpt lat="43.372911719628554" lon="-0.5696547732512404"><ele>114.99999999999999</ele><time>2026-05-03T09:20:04Z</time></trkpt><trkpt lat="43.37293943554162" lon="-0.5697438828096576"><ele>115.0</ele><time>2026-05-03T09:20:05Z</time></trkpt><trkpt lat="43.37297018010321" lon="-0.5698359017562858"><ele>114.99999999999999</ele><time>2026-05-03T09:20:06Z</time></trkpt><trkpt lat="43.37301668907672" lon="-0.5699122873451758"><ele>114.99999999999999</ele><time>2026-05-03T09:20:07Z</time></trkpt><trkpt lat="43.373069865694625" lon="-0.5699726586213502"><ele>115.0</ele><time>2026-05-03T09:20:08Z</time></trkpt><trkpt lat="43.37309522254733" lon="-0.5700826479808855"><ele>114.99999999999999</ele><time>2026-05-03T09:20:09Z</time></trkpt><trkpt lat="43.37311359709128" lon="-0.5701865062720958"><ele>114.99999999999999</ele><time>2026-05-03T09:20:10Z</time></trkpt><trkpt lat="43.37313608674503" lon="-0.5702910140538725"><ele>115.00000000000001</ele><time>2026-05-03T09:20:11Z</time></trkpt><trkpt lat="43.37315877256162" lon="-0.5703975853592507"><ele>115.0</ele><time>2026-05-03T09:20:12Z</time></trkpt><trkpt lat="43.373193498472666" lon="-0.5705024753779631"><ele>115.0</ele><time>2026-05-03T09:20:13Z</time></trkpt><trkpt lat="43.373234997701395" lon="-0.5706052579377283"><ele>115.0</ele><time>2026-05-03T09:20:14Z</time></trkpt><trkpt lat="43.373280720183" lon="-0.5706987877795721"><ele>115.00000000000001</ele><time>2026-05-03T09:20:15Z</time></trkpt><trkpt lat="43.37333485240607" lon="-0.570789327792349"><ele>115.0</ele><time>2026-05-03T09:20:16Z</time></trkpt><trkpt lat="43.37339114551009" lon="-0.5708718071302277"><ele>115.0</ele><time>2026-05-03T09:20:17Z</time></trkpt><trkpt lat="43.37345068175354" lon="-0.5709487665687242"><ele>115.0</ele><time>2026-05-03T09:20:18Z</time></trkpt><trkpt lat="43.37351085953951" lon="-0.571023334682665"><ele>115.0</ele><time>2026-05-03T09:20:19Z</time></trkpt><trkpt lat="43.37357548299736" lon="-0.5710890195452792"><ele>115.0</ele><time>2026-05-03T09:20:20Z</time></trkpt><trkpt lat="43.373687163004504" lon="-0.571254450646039"><ele>115.0</ele><time>2026-05-03T09:20:22Z</time></trkpt><trkpt lat="43.37374809102229" lon="-0.5713182690575305"><ele>115.33333333333334</ele><time>2026-05-03T09:20:23Z</time></trkpt><trkpt lat="43.373819726490346" lon="-0.5713675353573137"><ele>115.66666666666667</ele><time>2026-05-03T09:20:24Z</time></trkpt><trkpt lat="43.37388010599496" lon="-0.5714362104742708"><ele>116.0</ele><time>2026-05-03T09:20:25Z</time></trkpt><trkpt lat="43.37394337390724" lon="-0.5714968346981839"><ele>116.33333333333334</ele><time>2026-05-03T09:20:26Z</time></trkpt><trkpt lat="43.37400177318012" lon="-0.571563254353185"><ele>116.66666666666667</ele><time>2026-05-03T09:20:27Z</time></trkpt><trkpt lat="43.374066395419874" lon="-0.5716277416795066"><ele>117.0</ele><time>2026-05-03T09:20:28Z</time></trkpt><trkpt lat="43.374126850730384" lon="-0.5716939704480475"><ele>117.0</ele><time>2026-05-03T09:20:29Z</time></trkpt><trkpt lat="43.374185554035776" lon="-0.5717602256095436"><ele>117.0</ele><time>2026-05-03T09:20:30Z</time></trkpt><trkpt lat="43.37424861116965" lon="-0.571825105833781"><ele>117.0</ele><time>2026-05-03T09:20:31Z</time></trkpt><trkpt lat="43.37430731371596" lon="-0.5718931329371431"><ele>117.0</ele><time>2026-05-03T09:20:32Z</time></trkpt><trkpt lat="43.37437100898822" lon="-0.5719541449588021"><ele>117.0</ele><time>2026-05-03T09:20:33Z</time></trkpt><trkpt lat="43.374432111340326" lon="-0.5720214137859938"><ele>117.0</ele><time>2026-05-03T09:20:34Z</time></trkpt><trkpt lat="43.37448996825343" lon="-0.5720894214378972"><ele>117.0</ele><time>2026-05-03T09:20:35Z</time></trkpt><trkpt lat="43.37455798415003" lon="-0.5721602513544284"><ele>117.0</ele><time>2026-05-03T09:20:36Z</time></trkpt><trkpt lat="43.374612330115006" lon="-0.5722145199344091"><ele>117.0</ele><time>2026-05-03T09:20:37Z</time></trkpt><trkpt lat="43.374671347496935" lon="-0.5722817005462624"><ele>117.0</ele><time>2026-05-03T09:20:38Z</time></trkpt><trkpt lat="43.3747270190911" lon="-0.5723479217507929"><ele>117.0</ele><time>2026-05-03T09:20:39Z</time></trkpt><trkpt lat="43.374783148846426" lon="-0.5724227749361389"><ele>117.0</ele><time>2026-05-03T09:20:40Z</time></trkpt><trkpt lat="43.374825168047465" lon="-0.5725124752557073"><ele>117.0</ele><time>2026-05-03T09:20:41Z</time></trkpt><trkpt lat="43.37488576261339" lon="-0.57257697349906"><ele>117.0</ele><time>2026-05-03T09:20:42Z</time></trkpt><trkpt lat="43.374935417039154" lon="-0.5726560743115472"><ele>117.0</ele><time>2026-05-03T09:20:43Z</time></trkpt><trkpt lat="43.374984795562526" lon="-0.572738169265611"><ele>117.0</ele><time>2026-05-03T09:20:44Z</time></trkpt><trkpt lat="43.375029750959435" lon="-0.572820769104463"><ele>117.0</ele><time>2026-05-03T09:20:45Z</time></trkpt><trkpt lat="43.37507811173431" lon="-0.5728981716126773"><ele>117.0</ele><time>2026-05-03T09:20:46Z</time></trkpt><trkpt lat="43.37512688606607" lon="-0.5729765173210428"><ele>117.5</ele><time>2026-05-03T09:20:47Z</time></trkpt><trkpt lat="43.37517452503461" lon="-0.5730593852018999"><ele>118.0</ele><time>2026-05-03T09:20:48Z</time></trkpt><trkpt lat="43.37522375956561" lon="-0.5731406407762691"><ele>118.5</ele><time>2026-05-03T09:20:49Z</time></trkpt><trkpt lat="43.37527330658887" lon="-0.5732222192787925"><ele>119.0</ele><time>2026-05-03T09:20:50Z</time></trkpt><trkpt lat="43.375323657548684" lon="-0.5733009265915521"><ele>119.5</ele><time>2026-05-03T09:20:51Z</time></trkpt><trkpt lat="43.375360276656416" lon="-0.5733998956829638"><ele>120.0</ele><time>2026-05-03T09:20:52Z</time></trkpt><trkpt lat="43.375412277046266" lon="-0.5734869999086613"><ele>120.0</ele><time>2026-05-03T09:20:53Z</time></trkpt><trkpt lat="43.375462778091986" lon="-0.5735689879467226"><ele>120.0</ele><time>2026-05-03T09:20:54Z</time></trkpt><trkpt lat="43.37551334502991" lon="-0.5736510833156074"><ele>120.0</ele><time>2026-05-03T09:20:55Z</time></trkpt><trkpt lat="43.375565037230174" lon="-0.5737346893172731"><ele>120.0</ele><time>2026-05-03T09:20:56Z</time></trkpt><trkpt lat="43.37562791812291" lon="-0.5738029659240181"><ele>120.0</ele><time>2026-05-03T09:20:57Z</time></trkpt><trkpt lat="43.375678962410376" lon="-0.5738863084560414"><ele>120.0</ele><time>2026-05-03T09:20:58Z</time></trkpt><trkpt lat="43.375728283553116" lon="-0.5739695160967994"><ele>119.5</ele><time>2026-05-03T09:20:59Z</time></trkpt><trkpt lat="43.37577970317356" lon="-0.574045828144978"><ele>119.0</ele><time>2026-05-03T09:21:00Z</time></trkpt><trkpt lat="43.37582771915007" lon="-0.5741345154845056"><ele>118.5</ele><time>2026-05-03T09:21:01Z</time></trkpt><trkpt lat="43.37587782236325" lon="-0.5742184280256102"><ele>118.0</ele><time>2026-05-03T09:21:02Z</time></trkpt><trkpt lat="43.3759153970246" lon="-0.5743099642661148"><ele>117.5</ele><time>2026-05-03T09:21:03Z</time></trkpt><trkpt lat="43.375962228548566" lon="-0.5743930789828671"><ele>117.0</ele><time>2026-05-03T09:21:04Z</time></trkpt><trkpt lat="43.37602199330372" lon="-0.5744621043687805"><ele>116.66666666666667</ele><time>2026-05-03T09:21:05Z</time></trkpt><trkpt lat="43.376057352980645" lon="-0.574558889428832"><ele>116.33333333333334</ele><time>2026-05-03T09:21:06Z</time></trkpt><trkpt lat="43.37610691448157" lon="-0.5746389501755499"><ele>116.0</ele><time>2026-05-03T09:21:07Z</time></trkpt><trkpt lat="43.37615603673614" lon="-0.574716898935785"><ele>115.66666666666667</ele><time>2026-05-03T09:21:08Z</time></trkpt><trkpt lat="43.37620417678918" lon="-0.5747932888768714"><ele>115.33333333333334</ele><time>2026-05-03T09:21:09Z</time></trkpt><trkpt lat="43.37625338616696" lon="-0.5748716622479163"><ele>115.0</ele><time>2026-05-03T09:21:10Z</time></trkpt><trkpt lat="43.376301550528275" lon="-0.5749492249367985"><ele>115.00000000000001</ele><time>2026-05-03T09:21:11Z</time></trkpt><trkpt lat="43.37635585354884" lon="-0.5750195161065514"><ele>115.0</ele><time>2026-05-03T09:21:12Z</time></trkpt><trkpt lat="43.3764061200749" lon="-0.5750927137843183"><ele>115.0</ele><time>2026-05-03T09:21:13Z</time></trkpt><trkpt lat="43.376454906375685" lon="-0.5751727838289122"><ele>115.0</ele><time>2026-05-03T09:21:14Z</time></trkpt><trkpt lat="43.37650211282543" lon="-0.5752681407582835"><ele>115.00000000000001</ele><time>2026-05-03T09:21:15Z</time></trkpt><trkpt lat="43.37654717558942" lon="-0.5753398077732439"><ele>115.0</ele><time>2026-05-03T09:21:16Z</time></trkpt><trkpt lat="43.376606546350516" lon="-0.5754374170677515"><ele>115.00000000000001</ele><time>2026-05-03T09:21:17Z</time></trkpt><trkpt lat="43.37669327086555" lon="-0.5755708585524293"><ele>115.0</ele><time>2026-05-03T09:21:19Z</time></trkpt><trkpt lat="43.376739149612916" lon="-0.5756470657720761"><ele>115.0</ele><time>2026-05-03T09:21:20Z</time></trkpt><trkpt lat="43.37678591847188" lon="-0.5757188578380746"><ele>115.0</ele><time>2026-05-03T09:21:21Z</time></trkpt><trkpt lat="43.3768320888619" lon="-0.5757972334805528"><ele>115.00000000000001</ele><time>2026-05-03T09:21:22Z</time></trkpt><trkpt lat="43.37687441708378" lon="-0.5758822742935067"><ele>115.0</ele><time>2026-05-03T09:21:23Z</time></trkpt><trkpt lat="43.376924407429826" lon="-0.5759457635073825"><ele>114.99999999999999</ele><time>2026-05-03T09:21:24Z</time></trkpt><trkpt lat="43.37697096428024" lon="-0.576013685860945"><ele>115.0</ele><time>2026-05-03T09:21:25Z</time></trkpt><trkpt lat="43.37701621260781" lon="-0.5760927146619945"><ele>114.99999999999999</ele><time>2026-05-03T09:21:26Z</time></trkpt><trkpt lat="43.37705817524472" lon="-0.5761646517250145"><ele>114.99999999999999</ele><time>2026-05-03T09:21:27Z</time></trkpt><trkpt lat="43.377100920347246" lon="-0.5762438999053678"><ele>115.0</ele><time>2026-05-03T09:21:28Z</time></trkpt><trkpt lat="43.37714154685188" lon="-0.5763188803588534"><ele>114.99999999999999</ele><time>2026-05-03T09:21:29Z</time></trkpt><trkpt lat="43.377186863162464" lon="-0.5763906014420875"><ele>114.99999999999999</ele><time>2026-05-03T09:21:30Z</time></trkpt><trkpt lat="43.377228754029744" lon="-0.5764705620484373"><ele>115.00000000000001</ele><time>2026-05-03T09:21:31Z</time></trkpt><trkpt lat="43.37727357580805" lon="-0.5765476011599128"><ele>115.0</ele><time>2026-05-03T09:21:32Z</time></trkpt><trkpt lat="43.37732232669606" lon="-0.5766133230909855"><ele>115.0</ele><time>2026-05-03T09:21:33Z</time></trkpt><trkpt lat="43.377407408365954" lon="-0.5767702542284343"><ele>115.0</ele><time>2026-05-03T09:21:35Z</time></trkpt><trkpt lat="43.377450164385465" lon="-0.5768475936491504"><ele>115.00000000000001</ele><time>2026-05-03T09:21:36Z</time></trkpt><trkpt lat="43.37749307079446" lon="-0.5769277051570021"><ele>115.0</ele><time>2026-05-03T09:21:37Z</time></trkpt><trkpt lat="43.37753047555832" lon="-0.5770086619268172"><ele>115.42857142857142</ele><time>2026-05-03T09:21:38Z</time></trkpt><trkpt lat="43.37754996454958" lon="-0.5771036372779337"><ele>115.85714285714286</ele><time>2026-05-03T09:21:39Z</time></trkpt><trkpt lat="43.37759137070058" lon="-0.5771843681488846"><ele>116.28571428571428</ele><time>2026-05-03T09:21:40Z</time></trkpt><trkpt lat="43.37762219071636" lon="-0.5772726518458461"><ele>116.71428571428571</ele><time>2026-05-03T09:21:41Z</time></trkpt><trkpt lat="43.37765007264058" lon="-0.5773658673834404"><ele>117.14285714285714</ele><time>2026-05-03T09:21:42Z</time></trkpt><trkpt lat="43.377677585381505" lon="-0.5774511677883476"><ele>117.57142857142857</ele><time>2026-05-03T09:21:43Z</time></trkpt><trkpt lat="43.377708896079966" lon="-0.5775380991044637"><ele>118.0</ele><time>2026-05-03T09:21:44Z</time></trkpt><trkpt lat="43.37774055017725" lon="-0.5776311359033962"><ele>118.00000000000001</ele><time>2026-05-03T09:21:45Z</time></trkpt><trkpt lat="43.377774529039705" lon="-0.5777162517292307"><ele>118.0</ele><time>2026-05-03T09:21:46Z</time></trkpt><trkpt lat="43.37780164525378" lon="-0.5778103928148801"><ele>118.0</ele><time>2026-05-03T09:21:47Z</time></trkpt><trkpt lat="43.377830377246845" lon="-0.5778993218893553"><ele>118.0</ele><time>2026-05-03T09:21:48Z</time></trkpt><trkpt lat="43.37785558989609" lon="-0.5780069338136156"><ele>118.00000000000001</ele><time>2026-05-03T09:21:49Z</time></trkpt><trkpt lat="43.377922278065974" lon="-0.5781622901698555"><ele>118.0</ele><time>2026-05-03T09:21:51Z</time></trkpt><trkpt lat="43.377934875897914" lon="-0.5782586526751144"><ele>117.71428571428571</ele><time>2026-05-03T09:21:52Z</time></trkpt><trkpt lat="43.37796196571814" lon="-0.5783441950540266"><ele>117.42857142857144</ele><time>2026-05-03T09:21:53Z</time></trkpt><trkpt lat="43.37799226960931" lon="-0.5784377513153466"><ele>117.14285714285715</ele><time>2026-05-03T09:21:54Z</time></trkpt><trkpt lat="43.378021797881765" lon="-0.5785273613481485"><ele>116.85714285714286</ele><time>2026-05-03T09:21:55Z</time></trkpt><trkpt lat="43.37807363270372" lon="-0.5786021403516"><ele>116.57142857142858</ele><time>2026-05-03T09:21:56Z</time></trkpt><trkpt lat="43.37810015947642" lon="-0.5786930444828947"><ele>116.2857142857143</ele><time>2026-05-03T09:21:57Z</time></trkpt><trkpt lat="43.378129816524584" lon="-0.578783134828207"><ele>116.00000000000001</ele><time>2026-05-03T09:21:58Z</time></trkpt><trkpt lat="43.3781647327831" lon="-0.5788723494466763"><ele>116.00000000000001</ele><time>2026-05-03T09:21:59Z</time></trkpt><trkpt lat="43.37819334938179" lon="-0.5789635352415207"><ele>116.0</ele><time>2026-05-03T09:22:00Z</time></trkpt><trkpt lat="43.378236637404186" lon="-0.5790515625095422"><ele>116.00000000000001</ele><time>2026-05-03T09:22:01Z</time></trkpt><trkpt lat="43.37826057905611" lon="-0.5791466656902995"><ele>116.00000000000001</ele><time>2026-05-03T09:22:02Z</time></trkpt><trkpt lat="43.37828634396382" lon="-0.5792344827486282"><ele>116.0</ele><time>2026-05-03T09:22:03Z</time></trkpt><trkpt lat="43.378315962622736" lon="-0.5793225943395812"><ele>116.00000000000001</ele><time>2026-05-03T09:22:04Z</time></trkpt><trkpt lat="43.37834569699113" lon="-0.5794121080898924"><ele>116.00000000000001</ele><time>2026-05-03T09:22:05Z</time></trkpt><trkpt lat="43.37837728628909" lon="-0.5795010862148018"><ele>115.85714285714288</ele><time>2026-05-03T09:22:06Z</time></trkpt><trkpt lat="43.37841008044456" lon="-0.5795901118302751"><ele>115.71428571428572</ele><time>2026-05-03T09:22:07Z</time></trkpt><trkpt lat="43.37843718405112" lon="-0.5796793049674082"><ele>115.57142857142857</ele><time>2026-05-03T09:22:08Z</time></trkpt><trkpt lat="43.378468215784956" lon="-0.5797639128203627"><ele>115.42857142857143</ele><time>2026-05-03T09:22:09Z</time></trkpt><trkpt lat="43.37849713742708" lon="-0.5798527467094341"><ele>115.28571428571428</ele><time>2026-05-03T09:22:10Z</time></trkpt><trkpt lat="43.37852506971297" lon="-0.5799375972419879"><ele>115.14285714285712</ele><time>2026-05-03T09:22:11Z</time></trkpt><trkpt lat="43.378550240160955" lon="-0.5800323578336519"><ele>114.99999999999999</ele><time>2026-05-03T09:22:12Z</time></trkpt><trkpt lat="43.3785834679749" lon="-0.580120041587858"><ele>114.99999999999999</ele><time>2026-05-03T09:22:13Z</time></trkpt><trkpt lat="43.37861494914878" lon="-0.5802065776857696"><ele>115.0</ele><time>2026-05-03T09:22:14Z</time></trkpt><trkpt lat="43.37864440700041" lon="-0.5802918931803002"><ele>114.99999999999999</ele><time>2026-05-03T09:22:15Z</time></trkpt><trkpt lat="43.378671358088994" lon="-0.580380396390091"><ele>114.99999999999999</ele><time>2026-05-03T09:22:16Z</time></trkpt><trkpt lat="43.37870176023252" lon="-0.5804673029477211"><ele>115.0</ele><time>2026-05-03T09:22:17Z</time></trkpt><trkpt lat="43.378734121856525" lon="-0.5805550578803025"><ele>114.99999999999999</ele><time>2026-05-03T09:22:18Z</time></trkpt><trkpt lat="43.37876376056215" lon="-0.5806466498439895"><ele>114.99999999999999</ele><time>2026-05-03T09:22:19Z</time></trkpt><trkpt lat="43.378793429030594" lon="-0.5807402015334083"><ele>114.99999999999999</ele><time>2026-05-03T09:22:20Z</time></trkpt><trkpt lat="43.37882039912663" lon="-0.5808308959932332"><ele>115.0</ele><time>2026-05-03T09:22:21Z</time></trkpt><trkpt lat="43.378852240881315" lon="-0.5809237004188842"><ele>114.99999999999999</ele><time>2026-05-03T09:22:22Z</time></trkpt><trkpt lat="43.37888010591034" lon="-0.5810180019382888"><ele>114.99999999999999</ele><time>2026-05-03T09:22:23Z</time></trkpt><trkpt lat="43.378909192504445" lon="-0.581114307822018"><ele>115.0</ele><time>2026-05-03T09:22:24Z</time></trkpt><trkpt lat="43.37893975359671" lon="-0.5812073618423405"><ele>114.99999999999999</ele><time>2026-05-03T09:22:25Z</time></trkpt><trkpt lat="43.37897310356014" lon="-0.5812987585711927"><ele>114.99999999999999</ele><time>2026-05-03T09:22:26Z</time></trkpt><trkpt lat="43.379006847987306" lon="-0.5813883002587511"><ele>114.99999999999999</ele><time>2026-05-03T09:22:27Z</time></trkpt><trkpt lat="43.37903553745002" lon="-0.5814835242678346"><ele>115.0</ele><time>2026-05-03T09:22:28Z</time></trkpt><trkpt lat="43.37907062989479" lon="-0.5815718394061167"><ele>114.99999999999999</ele><time>2026-05-03T09:22:29Z</time></trkpt><trkpt lat="43.37910504102457" lon="-0.5816572300208221"><ele>114.99999999999999</ele><time>2026-05-03T09:22:30Z</time></trkpt><trkpt lat="43.37912815781296" lon="-0.5817530417782488"><ele>115.0</ele><time>2026-05-03T09:22:31Z</time></trkpt><trkpt lat="43.37915702715512" lon="-0.5818462181850752"><ele>114.99999999999999</ele><time>2026-05-03T09:22:32Z</time></trkpt><trkpt lat="43.37918743369409" lon="-0.5819377583051968"><ele>114.99999999999999</ele><time>2026-05-03T09:22:33Z</time></trkpt><trkpt lat="43.37922457247815" lon="-0.5820225366903388"><ele>114.85714285714283</ele><time>2026-05-03T09:22:34Z</time></trkpt><trkpt lat="43.379252870185674" lon="-0.5821121570587056"><ele>114.71428571428571</ele><time>2026-05-03T09:22:35Z</time></trkpt><trkpt lat="43.3792810074858" lon="-0.5822038348970924"><ele>114.57142857142856</ele><time>2026-05-03T09:22:36Z</time></trkpt><trkpt lat="43.379314220462355" lon="-0.5822929343619061"><ele>114.42857142857142</ele><time>2026-05-03T09:22:37Z</time></trkpt><trkpt lat="43.37932983963722" lon="-0.5823964227286683"><ele>114.28571428571428</ele><time>2026-05-03T09:22:38Z</time></trkpt><trkpt lat="43.379361027450194" lon="-0.5824878591016689"><ele>114.14285714285714</ele><time>2026-05-03T09:22:39Z</time></trkpt><trkpt lat="43.37939359601493" lon="-0.5825843473273477"><ele>114.0</ele><time>2026-05-03T09:22:40Z</time></trkpt><trkpt lat="43.37942589691905" lon="-0.5826800422767314"><ele>114.0</ele><time>2026-05-03T09:22:41Z</time></trkpt><trkpt lat="43.37945808024779" lon="-0.5827747346150933"><ele>114.0</ele><time>2026-05-03T09:22:42Z</time></trkpt><trkpt lat="43.3794946514204" lon="-0.5828702007724897"><ele>114.0</ele><time>2026-05-03T09:22:43Z</time></trkpt><trkpt lat="43.37953687655982" lon="-0.5829623809881844"><ele>114.0</ele><time>2026-05-03T09:22:44Z</time></trkpt><trkpt lat="43.37958628205727" lon="-0.5830473025201306"><ele>114.0</ele><time>2026-05-03T09:22:45Z</time></trkpt><trkpt lat="43.379642317844066" lon="-0.5831228256268527"><ele>114.0</ele><time>2026-05-03T09:22:46Z</time></trkpt><trkpt lat="43.37969706511981" lon="-0.5831959679635826"><ele>113.66666666666667</ele><time>2026-05-03T09:22:47Z</time></trkpt><trkpt lat="43.37976598071317" lon="-0.5832596752548833"><ele>113.33333333333334</ele><time>2026-05-03T09:22:48Z</time></trkpt><trkpt lat="43.379839833889825" lon="-0.5833077304336088"><ele>113.0</ele><time>2026-05-03T09:22:49Z</time></trkpt><trkpt lat="43.379912087623346" lon="-0.5833441758573175"><ele>112.66666666666667</ele><time>2026-05-03T09:22:50Z</time></trkpt><trkpt lat="43.37999043650945" lon="-0.5833543877773296"><ele>112.33333333333334</ele><time>2026-05-03T09:22:51Z</time></trkpt><trkpt lat="43.380061328989875" lon="-0.5834042430054105"><ele>112.0</ele><time>2026-05-03T09:22:52Z</time></trkpt><trkpt lat="43.3801451266662" lon="-0.5834000175097792"><ele>112.00000000000001</ele><time>2026-05-03T09:22:53Z</time></trkpt><trkpt lat="43.38021968350513" lon="-0.5834228958005402"><ele>112.0</ele><time>2026-05-03T09:22:54Z</time></trkpt><trkpt lat="43.380294633415126" lon="-0.5834406063243901"><ele>112.0</ele><time>2026-05-03T09:22:55Z</time></trkpt><trkpt lat="43.38036896041071" lon="-0.5834740596064547"><ele>112.0</ele><time>2026-05-03T09:22:56Z</time></trkpt><trkpt lat="43.38044432080708" lon="-0.5835010691406862"><ele>112.00000000000001</ele><time>2026-05-03T09:22:57Z</time></trkpt><trkpt lat="43.38051656751032" lon="-0.5835308908428136"><ele>112.0</ele><time>2026-05-03T09:22:58Z</time></trkpt><trkpt lat="43.380590806208204" lon="-0.583576332106603"><ele>112.00000000000001</ele><time>2026-05-03T09:22:59Z</time></trkpt><trkpt lat="43.380660073562595" lon="-0.583624010136498"><ele>112.0</ele><time>2026-05-03T09:23:00Z</time></trkpt><trkpt lat="43.380726896885356" lon="-0.5836764851974312"><ele>112.0</ele><time>2026-05-03T09:23:01Z</time></trkpt><trkpt lat="43.38079105868037" lon="-0.5837405693251926"><ele>112.0</ele><time>2026-05-03T09:23:02Z</time></trkpt><trkpt lat="43.38085265303229" lon="-0.5838089953967722"><ele>112.00000000000001</ele><time>2026-05-03T09:23:03Z</time></trkpt><trkpt lat="43.38091191128902" lon="-0.583880243426522"><ele>112.0</ele><time>2026-05-03T09:23:04Z</time></trkpt><trkpt lat="43.38096778885426" lon="-0.5839577877307812"><ele>112.00000000000001</ele><time>2026-05-03T09:23:05Z</time></trkpt><trkpt lat="43.38102770218958" lon="-0.584028405360835"><ele>112.0</ele><time>2026-05-03T09:23:06Z</time></trkpt><trkpt lat="43.38108657921375" lon="-0.5840993935788413"><ele>112.0</ele><time>2026-05-03T09:23:07Z</time></trkpt><trkpt lat="43.38114481832581" lon="-0.5841704806217208"><ele>112.0</ele><time>2026-05-03T09:23:08Z</time></trkpt><trkpt lat="43.38120241795174" lon="-0.5842431987037778"><ele>112.00000000000001</ele><time>2026-05-03T09:23:09Z</time></trkpt><trkpt lat="43.38126037347835" lon="-0.5843161146792849"><ele>112.0</ele><time>2026-05-03T09:23:10Z</time></trkpt><trkpt lat="43.38130889697512" lon="-0.5843970154492721"><ele>112.16666666666667</ele><time>2026-05-03T09:23:11Z</time></trkpt><trkpt lat="43.38137824191587" lon="-0.5844527158975437"><ele>112.33333333333334</ele><time>2026-05-03T09:23:12Z</time></trkpt><trkpt lat="43.38143581440046" lon="-0.5845238382570972"><ele>112.5</ele><time>2026-05-03T09:23:13Z</time></trkpt><trkpt lat="43.38148844090882" lon="-0.5846052747025615"><ele>112.66666666666666</ele><time>2026-05-03T09:23:14Z</time></trkpt><trkpt lat="43.381548065446026" lon="-0.5846803920978819"><ele>112.83333333333333</ele><time>2026-05-03T09:23:15Z</time></trkpt><trkpt lat="43.38159832453037" lon="-0.5847437571705687"><ele>113.0</ele><time>2026-05-03T09:23:16Z</time></trkpt><trkpt lat="43.38165427939159" lon="-0.5848393703700295"><ele>112.99999999999999</ele><time>2026-05-03T09:23:17Z</time></trkpt><trkpt lat="43.381710761457704" lon="-0.5849120117510919"><ele>113.0</ele><time>2026-05-03T09:23:18Z</time></trkpt><trkpt lat="43.38177117072186" lon="-0.5849888556565492"><ele>113.0</ele><time>2026-05-03T09:23:19Z</time></trkpt><trkpt lat="43.381832194522204" lon="-0.5850576260720046"><ele>113.0</ele><time>2026-05-03T09:23:20Z</time></trkpt><trkpt lat="43.381890471218284" lon="-0.5851233009325029"><ele>112.99999999999999</ele><time>2026-05-03T09:23:21Z</time></trkpt><trkpt lat="43.38195222497363" lon="-0.5851890111195225"><ele>113.0</ele><time>2026-05-03T09:23:22Z</time></trkpt><trkpt lat="43.38202374392647" lon="-0.5852382503170228"><ele>112.99999999999999</ele><time>2026-05-03T09:23:23Z</time></trkpt><trkpt lat="43.382080917343245" lon="-0.5853102317637826"><ele>113.0</ele><time>2026-05-03T09:23:24Z</time></trkpt><trkpt lat="43.382141761121055" lon="-0.5853731221790872"><ele>113.0</ele><time>2026-05-03T09:23:25Z</time></trkpt><trkpt lat="43.3822007057446" lon="-0.585443971501639"><ele>113.0</ele><time>2026-05-03T09:23:26Z</time></trkpt><trkpt lat="43.38225903983463" lon="-0.5855120951085903"><ele>112.99999999999999</ele><time>2026-05-03T09:23:27Z</time></trkpt><trkpt lat="43.38231725394531" lon="-0.5855801103131397"><ele>113.0</ele><time>2026-05-03T09:23:28Z</time></trkpt><trkpt lat="43.38237327339122" lon="-0.5856462929183406"><ele>113.0</ele><time>2026-05-03T09:23:29Z</time></trkpt><trkpt lat="43.38243331238013" lon="-0.5857147136492814"><ele>113.00000000000001</ele><time>2026-05-03T09:23:30Z</time></trkpt><trkpt lat="43.38248633799424" lon="-0.5857925232993398"><ele>113.00000000000001</ele><time>2026-05-03T09:23:31Z</time></trkpt><trkpt lat="43.38253900824724" lon="-0.5858699632984637"><ele>113.0</ele><time>2026-05-03T09:23:32Z</time></trkpt><trkpt lat="43.382581034290915" lon="-0.5859539223160012"><ele>113.0</ele><time>2026-05-03T09:23:33Z</time></trkpt><trkpt lat="43.3826929187759" lon="-0.586090888605797"><ele>113.0</ele><time>2026-05-03T09:23:35Z</time></trkpt><trkpt lat="43.38274296470598" lon="-0.5861672467401301"><ele>113.0</ele><time>2026-05-03T09:23:36Z</time></trkpt><trkpt lat="43.382787648374965" lon="-0.5862465465503507"><ele>113.0</ele><time>2026-05-03T09:23:37Z</time></trkpt><trkpt lat="43.38284253968915" lon="-0.5863179339748076"><ele>113.0</ele><time>2026-05-03T09:23:38Z</time></trkpt><trkpt lat="43.382892856965746" lon="-0.5863938096513434"><ele>113.0</ele><time>2026-05-03T09:23:39Z</time></trkpt><trkpt lat="43.38294098022759" lon="-0.5864690200261616"><ele>113.0</ele><time>2026-05-03T09:23:40Z</time></trkpt><trkpt lat="43.38299286441152" lon="-0.586529483306673"><ele>113.0</ele><time>2026-05-03T09:23:41Z</time></trkpt><trkpt lat="43.383033214310665" lon="-0.5866187149470058"><ele>113.14285714285714</ele><time>2026-05-03T09:23:42Z</time></trkpt><trkpt lat="43.38308460948172" lon="-0.5866939113173254"><ele>113.28571428571428</ele><time>2026-05-03T09:23:43Z</time></trkpt><trkpt lat="43.38313532853691" lon="-0.5867662405313989"><ele>113.42857142857142</ele><time>2026-05-03T09:23:44Z</time></trkpt><trkpt lat="43.38317987706098" lon="-0.5868453763256483"><ele>113.57142857142857</ele><time>2026-05-03T09:23:45Z</time></trkpt><trkpt lat="43.383227433076534" lon="-0.5869192726611263"><ele>113.7142857142857</ele><time>2026-05-03T09:23:46Z</time></trkpt><trkpt lat="43.383275667675115" lon="-0.5869917785646369"><ele>113.85714285714285</ele><time>2026-05-03T09:23:47Z</time></trkpt><trkpt lat="43.38332853003005" lon="-0.5870551031572957"><ele>114.0</ele><time>2026-05-03T09:23:48Z</time></trkpt><trkpt lat="43.383386763317915" lon="-0.5871231067875659"><ele>114.16666666666667</ele><time>2026-05-03T09:23:49Z</time></trkpt><trkpt lat="43.38343345145816" lon="-0.5871952913884305"><ele>114.33333333333334</ele><time>2026-05-03T09:23:50Z</time></trkpt><trkpt lat="43.38352983264738" lon="-0.5873397468435961"><ele>114.5</ele><time>2026-05-03T09:23:52Z</time></trkpt><trkpt lat="43.38357870789328" lon="-0.5874135042046708"><ele>114.66666666666667</ele><time>2026-05-03T09:23:53Z</time></trkpt><trkpt lat="43.38362898246167" lon="-0.5874808296378908"><ele>114.83333333333334</ele><time>2026-05-03T09:23:54Z</time></trkpt><trkpt lat="43.383673889887206" lon="-0.5875627923337471"><ele>115.0</ele><time>2026-05-03T09:23:55Z</time></trkpt><trkpt lat="43.3837233309145" lon="-0.5876279923643207"><ele>115.00000000000001</ele><time>2026-05-03T09:23:56Z</time></trkpt><trkpt lat="43.38378341966375" lon="-0.5876910774488798"><ele>115.0</ele><time>2026-05-03T09:23:57Z</time></trkpt><trkpt lat="43.38384738272444" lon="-0.5877323812793112"><ele>115.0</ele><time>2026-05-03T09:23:58Z</time></trkpt><trkpt lat="43.38398004256593" lon="-0.5877861548038563"><ele>115.0</ele><time>2026-05-03T09:24:00Z</time></trkpt><trkpt lat="43.3840460749649" lon="-0.5878058090440937"><ele>115.00000000000001</ele><time>2026-05-03T09:24:01Z</time></trkpt><trkpt lat="43.38411976034799" lon="-0.587810251994145"><ele>115.0</ele><time>2026-05-03T09:24:02Z</time></trkpt><trkpt lat="43.38418732520868" lon="-0.587843892187087"><ele>114.33333333333334</ele><time>2026-05-03T09:24:03Z</time></trkpt><trkpt lat="43.38425849793215" lon="-0.5878448071304871"><ele>113.66666666666667</ele><time>2026-05-03T09:24:04Z</time></trkpt><trkpt lat="43.384394365192975" lon="-0.587817492682702"><ele>113.0</ele><time>2026-05-03T09:24:06Z</time></trkpt><trkpt lat="43.384460232478496" lon="-0.5877892620031061"><ele>112.33333333333334</ele><time>2026-05-03T09:24:07Z</time></trkpt><trkpt lat="43.38452119817352" lon="-0.587752585375279"><ele>111.66666666666667</ele><time>2026-05-03T09:24:08Z</time></trkpt><trkpt lat="43.384567306793265" lon="-0.5876765734450182"><ele>111.0</ele><time>2026-05-03T09:24:09Z</time></trkpt><trkpt lat="43.384624901489424" lon="-0.5876268285173927"><ele>111.0</ele><time>2026-05-03T09:24:10Z</time></trkpt><trkpt lat="43.38468367491553" lon="-0.5875763560403563"><ele>111.0</ele><time>2026-05-03T09:24:11Z</time></trkpt><trkpt lat="43.38477909281955" lon="-0.5874604982656737"><ele>111.0</ele><time>2026-05-03T09:24:13Z</time></trkpt><trkpt lat="43.38482215859721" lon="-0.5873954698405566"><ele>111.0</ele><time>2026-05-03T09:24:14Z</time></trkpt><trkpt lat="43.3848592225151" lon="-0.5873190715133195"><ele>111.0</ele><time>2026-05-03T09:24:15Z</time></trkpt><trkpt lat="43.384932400549985" lon="-0.5871860785421876"><ele>111.0</ele><time>2026-05-03T09:24:17Z</time></trkpt><trkpt lat="43.38500060605968" lon="-0.5871275672688682"><ele>111.0</ele><time>2026-05-03T09:24:19Z</time></trkpt><trkpt lat="43.38506744775588" lon="-0.5871972626868056"><ele>111.0</ele><time>2026-05-03T09:24:21Z</time></trkpt><trkpt lat="43.3850962620441" lon="-0.5872963495046406"><ele>111.0</ele><time>2026-05-03T09:24:23Z</time></trkpt><trkpt lat="43.385073601893644" lon="-0.5874107908497255"><ele>111.0</ele><time>2026-05-03T09:24:25Z</time></trkpt><trkpt lat="43.38501244360538" lon="-0.587534201861826"><ele>111.0</ele><time>2026-05-03T09:24:27Z</time></trkpt><trkpt lat="43.384968214382795" lon="-0.5876009079362755"><ele>111.0</ele><time>2026-05-03T09:24:28Z</time></trkpt><trkpt lat="43.384913117043986" lon="-0.5876504168893861"><ele>111.0</ele><time>2026-05-03T09:24:29Z</time></trkpt><trkpt lat="43.3848491407738" lon="-0.5877013543036433"><ele>111.0</ele><time>2026-05-03T09:24:30Z</time></trkpt><trkpt lat="43.38472295113437" lon="-0.5876364391826046"><ele>111.0</ele><time>2026-05-03T09:24:31Z</time></trkpt><trkpt lat="43.38467105605082" lon="-0.5876951789584497"><ele>111.0</ele><time>2026-05-03T09:24:32Z</time></trkpt><trkpt lat="43.3845754358943" lon="-0.5877724814369879"><ele>111.0</ele><time>2026-05-03T09:24:34Z</time></trkpt><trkpt lat="43.384520282926196" lon="-0.5878164514205784"><ele>110.0</ele><time>2026-05-03T09:24:35Z</time></trkpt><trkpt lat="43.384411238546875" lon="-0.5879033885409579"><ele>109.0</ele><time>2026-05-03T09:24:37Z</time></trkpt><trkpt lat="43.38430942995098" lon="-0.5879845568439103"><ele>108.0</ele><time>2026-05-03T09:24:39Z</time></trkpt><trkpt lat="43.38437567016057" lon="-0.5882812668462867"><ele>108.0</ele><time>2026-05-03T09:24:40Z</time></trkpt><trkpt lat="43.38430120725908" lon="-0.5884129023319921"><ele>108.00000000000001</ele><time>2026-05-03T09:24:42Z</time></trkpt><trkpt lat="43.38422443319497" lon="-0.5885347224709645"><ele>108.00000000000001</ele><time>2026-05-03T09:24:44Z</time></trkpt><trkpt lat="43.38418116708145" lon="-0.5886699963403996"><ele>108.0</ele><time>2026-05-03T09:24:46Z</time></trkpt><trkpt lat="43.38423175187609" lon="-0.5887779078724223"><ele>108.0</ele><time>2026-05-03T09:24:48Z</time></trkpt><trkpt lat="43.38431823887033" lon="-0.5888266179387948"><ele>107.80000000000001</ele><time>2026-05-03T09:24:50Z</time></trkpt><trkpt lat="43.384389872225206" lon="-0.5889089843498176"><ele>107.60000000000001</ele><time>2026-05-03T09:24:52Z</time></trkpt><trkpt lat="43.384480951378265" lon="-0.5889801333109377"><ele>107.39999999999999</ele><time>2026-05-03T09:24:54Z</time></trkpt><trkpt lat="43.384585744245335" lon="-0.5890647540559165"><ele>107.19999999999999</ele><time>2026-05-03T09:24:56Z</time></trkpt><trkpt lat="43.384639533341044" lon="-0.5891121692182127"><ele>107.0</ele><time>2026-05-03T09:24:57Z</time></trkpt><trkpt lat="43.38473741594332" lon="-0.5892120610284872"><ele>107.0</ele><time>2026-05-03T09:24:59Z</time></trkpt><trkpt lat="43.384851203011834" lon="-0.5892961927621119"><ele>106.99999999999999</ele><time>2026-05-03T09:25:01Z</time></trkpt><trkpt lat="43.384912330890806" lon="-0.5893431254265464"><ele>106.99999999999999</ele><time>2026-05-03T09:25:02Z</time></trkpt><trkpt lat="43.38497260889635" lon="-0.5893880230235037"><ele>107.0</ele><time>2026-05-03T09:25:03Z</time></trkpt><trkpt lat="43.38503542815639" lon="-0.5894336119378552"><ele>107.0</ele><time>2026-05-03T09:25:04Z</time></trkpt><trkpt lat="43.38514863995912" lon="-0.5895059463493306"><ele>107.16666666666666</ele><time>2026-05-03T09:25:06Z</time></trkpt><trkpt lat="43.38519419161559" lon="-0.5896228906388252"><ele>107.33333333333333</ele><time>2026-05-03T09:25:08Z</time></trkpt><trkpt lat="43.38517490713635" lon="-0.5897259847154434"><ele>107.5</ele><time>2026-05-03T09:25:10Z</time></trkpt><trkpt lat="43.38524630619138" lon="-0.5897385929907104"><ele>107.66666666666666</ele><time>2026-05-03T09:25:13Z</time></trkpt><trkpt lat="43.385258474476856" lon="-0.5896189160897739"><ele>107.83333333333333</ele><time>2026-05-03T09:25:16Z</time></trkpt><trkpt lat="43.38533503768786" lon="-0.5896816890047155"><ele>108.0</ele><time>2026-05-03T09:25:19Z</time></trkpt><trkpt lat="43.38533275586502" lon="-0.5898040445749687"><ele>108.0</ele><time>2026-05-03T09:25:21Z</time></trkpt><trkpt lat="43.385351172584684" lon="-0.5899346925685324"><ele>108.0</ele><time>2026-05-03T09:25:23Z</time></trkpt><trkpt lat="43.385359791933205" lon="-0.5900834424495188"><ele>108.0</ele><time>2026-05-03T09:25:25Z</time></trkpt><trkpt lat="43.38537147498199" lon="-0.5902590945594861"><ele>108.0</ele><time>2026-05-03T09:25:27Z</time></trkpt><trkpt lat="43.38539570716119" lon="-0.5904323012655797"><ele>108.28571428571428</ele><time>2026-05-03T09:25:29Z</time></trkpt><trkpt lat="43.38540244812678" lon="-0.5905256811898115"><ele>108.57142857142857</ele><time>2026-05-03T09:25:30Z</time></trkpt><trkpt lat="43.38541371533613" lon="-0.5906170846784927"><ele>108.85714285714286</ele><time>2026-05-03T09:25:31Z</time></trkpt><trkpt lat="43.38542198571346" lon="-0.5907111893767047"><ele>109.14285714285714</ele><time>2026-05-03T09:25:32Z</time></trkpt><trkpt lat="43.385430801911774" lon="-0.5907988671729489"><ele>109.42857142857143</ele><time>2026-05-03T09:25:33Z</time></trkpt><trkpt lat="43.385439530484774" lon="-0.5908885976964388"><ele>109.71428571428571</ele><time>2026-05-03T09:25:34Z</time></trkpt><trkpt lat="43.385443861892846" lon="-0.5909816819917042"><ele>110.0</ele><time>2026-05-03T09:25:35Z</time></trkpt><trkpt lat="43.38544635034379" lon="-0.5910739584034913"><ele>109.99999999999999</ele><time>2026-05-03T09:25:36Z</time></trkpt><trkpt lat="43.38544069720833" lon="-0.5911661534980427"><ele>110.0</ele><time>2026-05-03T09:25:37Z</time></trkpt><trkpt lat="43.38543023327025" lon="-0.5912567522665229"><ele>110.0</ele><time>2026-05-03T09:25:38Z</time></trkpt><trkpt lat="43.38541941989618" lon="-0.5913493110794869"><ele>110.0</ele><time>2026-05-03T09:25:39Z</time></trkpt><trkpt lat="43.38538855122259" lon="-0.591530136623098"><ele>109.99999999999999</ele><time>2026-05-03T09:25:41Z</time></trkpt><trkpt lat="43.385374003762934" lon="-0.5916174609821262"><ele>110.0</ele><time>2026-05-03T09:25:42Z</time></trkpt><trkpt lat="43.385382120271004" lon="-0.5917100924401175"><ele>109.99999999999999</ele><time>2026-05-03T09:25:43Z</time></trkpt><trkpt lat="43.38540570718965" lon="-0.5917969664036619"><ele>110.0</ele><time>2026-05-03T09:25:44Z</time></trkpt><trkpt lat="43.385442409641165" lon="-0.5918777589308395"><ele>110.0</ele><time>2026-05-03T09:25:45Z</time></trkpt><trkpt lat="43.38543260154127" lon="-0.5920056744608807"><ele>110.0</ele><time>2026-05-03T09:25:46Z</time></trkpt><trkpt lat="43.385474482093905" lon="-0.5920923962327324"><ele>109.99999999999999</ele><time>2026-05-03T09:25:47Z</time></trkpt><trkpt lat="43.38558610714378" lon="-0.5920920685949462"><ele>110.0</ele><time>2026-05-03T09:25:48Z</time></trkpt><trkpt lat="43.38565057494154" lon="-0.5921317650779846"><ele>110.14285714285714</ele><time>2026-05-03T09:25:49Z</time></trkpt><trkpt lat="43.385713974437664" lon="-0.5921825978111198"><ele>110.28571428571428</ele><time>2026-05-03T09:25:50Z</time></trkpt><trkpt lat="43.385772732130576" lon="-0.5922380390769858"><ele>110.42857142857142</ele><time>2026-05-03T09:25:51Z</time></trkpt><trkpt lat="43.385832019104264" lon="-0.5923023420478682"><ele>110.57142857142857</ele><time>2026-05-03T09:25:52Z</time></trkpt><trkpt lat="43.385876766685755" lon="-0.592382011654312"><ele>110.71428571428572</ele><time>2026-05-03T09:25:53Z</time></trkpt><trkpt lat="43.38593994602692" lon="-0.5924363973055966"><ele>110.85714285714285</ele><time>2026-05-03T09:25:54Z</time></trkpt><trkpt lat="43.385993875753734" lon="-0.5925089068579833"><ele>111.0</ele><time>2026-05-03T09:25:55Z</time></trkpt><trkpt lat="43.38604754073564" lon="-0.5925805697876321"><ele>111.0</ele><time>2026-05-03T09:25:56Z</time></trkpt><trkpt lat="43.38609749629011" lon="-0.5926558399273385"><ele>111.0</ele><time>2026-05-03T09:25:57Z</time></trkpt><trkpt lat="43.386146118181394" lon="-0.592736225644151"><ele>111.0</ele><time>2026-05-03T09:25:58Z</time></trkpt><trkpt lat="43.38619257589249" lon="-0.5928199242854214"><ele>111.0</ele><time>2026-05-03T09:25:59Z</time></trkpt><trkpt lat="43.38623743133502" lon="-0.5929081922821873"><ele>111.0</ele><time>2026-05-03T09:26:00Z</time></trkpt><trkpt lat="43.386278147864665" lon="-0.5929963405660185"><ele>111.0</ele><time>2026-05-03T09:26:01Z</time></trkpt><trkpt lat="43.386321850383105" lon="-0.59307974199045"><ele>110.83333333333333</ele><time>2026-05-03T09:26:02Z</time></trkpt><trkpt lat="43.386365812434484" lon="-0.5931681427820866"><ele>110.66666666666666</ele><time>2026-05-03T09:26:03Z</time></trkpt><trkpt lat="43.3864080391486" lon="-0.5932588704172799"><ele>110.5</ele><time>2026-05-03T09:26:04Z</time></trkpt><trkpt lat="43.38644941466914" lon="-0.593348764618004"><ele>110.33333333333333</ele><time>2026-05-03T09:26:05Z</time></trkpt><trkpt lat="43.38649253109778" lon="-0.5934408886957208"><ele>110.16666666666666</ele><time>2026-05-03T09:26:06Z</time></trkpt><trkpt lat="43.38653987956964" lon="-0.593525888947224"><ele>110.0</ele><time>2026-05-03T09:26:07Z</time></trkpt><trkpt lat="43.386587824708904" lon="-0.5936202929703519"><ele>109.83333333333333</ele><time>2026-05-03T09:26:08Z</time></trkpt><trkpt lat="43.38663079854655" lon="-0.5937032163209709"><ele>109.66666666666666</ele><time>2026-05-03T09:26:09Z</time></trkpt><trkpt lat="43.386680646038386" lon="-0.5937857071149882"><ele>109.5</ele><time>2026-05-03T09:26:10Z</time></trkpt><trkpt lat="43.38673188387056" lon="-0.5938692759615631"><ele>109.33333333333334</ele><time>2026-05-03T09:26:10.999Z</time></trkpt><trkpt lat="43.38679052001192" lon="-0.5939435990369311"><ele>109.16666666666667</ele><time>2026-05-03T09:26:11.999Z</time></trkpt><trkpt lat="43.386855904460894" lon="-0.5940066711941218"><ele>109.0</ele><time>2026-05-03T09:26:12.999Z</time></trkpt><trkpt lat="43.38692511692774" lon="-0.5940704803290187"><ele>109.00000000000001</ele><time>2026-05-03T09:26:13.999Z</time></trkpt><trkpt lat="43.38700156020929" lon="-0.5941151400472799"><ele>109.0</ele><time>2026-05-03T09:26:14.999Z</time></trkpt><trkpt lat="43.387077866327544" lon="-0.5941467921088951"><ele>109.0</ele><time>2026-05-03T09:26:15.999Z</time></trkpt><trkpt lat="43.38715176311533" lon="-0.5941846530985585"><ele>109.0</ele><time>2026-05-03T09:26:16.999Z</time></trkpt><trkpt lat="43.38722715734696" lon="-0.5942185384441434"><ele>109.00000000000001</ele><time>2026-05-03T09:26:17.999Z</time></trkpt><trkpt lat="43.387302665445596" lon="-0.5942502364476215"><ele>109.0</ele><time>2026-05-03T09:26:18.999Z</time></trkpt><trkpt lat="43.38738057503471" lon="-0.5942758510253707"><ele>109.00000000000001</ele><time>2026-05-03T09:26:19.999Z</time></trkpt><trkpt lat="43.387459604504265" lon="-0.5943110389606994"><ele>109.0</ele><time>2026-05-03T09:26:20.999Z</time></trkpt><trkpt lat="43.38753352166505" lon="-0.5943498603619778"><ele>109.0</ele><time>2026-05-03T09:26:21.999Z</time></trkpt><trkpt lat="43.38761140953213" lon="-0.5943905651909952"><ele>109.0</ele><time>2026-05-03T09:26:22.999Z</time></trkpt><trkpt lat="43.38768425270662" lon="-0.5944329712993585"><ele>109.00000000000001</ele><time>2026-05-03T09:26:23.999Z</time></trkpt><trkpt lat="43.38775782472073" lon="-0.5944766003672353"><ele>109.0</ele><time>2026-05-03T09:26:24.999Z</time></trkpt><trkpt lat="43.38783015248475" lon="-0.594525830631044"><ele>109.00000000000001</ele><time>2026-05-03T09:26:25.999Z</time></trkpt><trkpt lat="43.38789911517896" lon="-0.5945854180312732"><ele>109.0</ele><time>2026-05-03T09:26:27Z</time></trkpt><trkpt lat="43.38797042344713" lon="-0.5946482688271855"><ele>109.0</ele><time>2026-05-03T09:26:28Z</time></trkpt><trkpt lat="43.388038452322895" lon="-0.5947093601507573"><ele>109.0</ele><time>2026-05-03T09:26:29Z</time></trkpt><trkpt lat="43.388114289998505" lon="-0.5947691504130784"><ele>109.00000000000001</ele><time>2026-05-03T09:26:30Z</time></trkpt><trkpt lat="43.388184982984924" lon="-0.5948256458744355"><ele>109.0</ele><time>2026-05-03T09:26:31Z</time></trkpt><trkpt lat="43.388258950942905" lon="-0.5948771038273533"><ele>109.33333333333334</ele><time>2026-05-03T09:26:32Z</time></trkpt><trkpt lat="43.388334114956265" lon="-0.5949270515074074"><ele>109.66666666666667</ele><time>2026-05-03T09:26:33Z</time></trkpt><trkpt lat="43.38841019895143" lon="-0.5949809899552438"><ele>110.0</ele><time>2026-05-03T09:26:34Z</time></trkpt><trkpt lat="43.38848261530681" lon="-0.5950426316935317"><ele>110.33333333333334</ele><time>2026-05-03T09:26:35Z</time></trkpt><trkpt lat="43.388553565788605" lon="-0.5951087889458064"><ele>110.66666666666667</ele><time>2026-05-03T09:26:36Z</time></trkpt><trkpt lat="43.38862179041688" lon="-0.5951790960687261"><ele>111.0</ele><time>2026-05-03T09:26:37Z</time></trkpt><trkpt lat="43.38868273682501" lon="-0.5952589960004774"><ele>110.66666666666667</ele><time>2026-05-03T09:26:38Z</time></trkpt><trkpt lat="43.3887414406382" lon="-0.5953502079227372"><ele>110.33333333333334</ele><time>2026-05-03T09:26:39Z</time></trkpt><trkpt lat="43.38879123350878" lon="-0.5954510767848541"><ele>110.0</ele><time>2026-05-03T09:26:40Z</time></trkpt><trkpt lat="43.38883268558667" lon="-0.5955558359120978"><ele>109.66666666666667</ele><time>2026-05-03T09:26:41Z</time></trkpt><trkpt lat="43.38886930017299" lon="-0.5956656857803584"><ele>109.33333333333334</ele><time>2026-05-03T09:26:42Z</time></trkpt><trkpt lat="43.38890386992016" lon="-0.5957731069605863"><ele>109.0</ele><time>2026-05-03T09:26:43Z</time></trkpt><trkpt lat="43.38893627272544" lon="-0.5958817390719657"><ele>109.00000000000001</ele><time>2026-05-03T09:26:44Z</time></trkpt><trkpt lat="43.38896294095435" lon="-0.5960007327618445"><ele>109.0</ele><time>2026-05-03T09:26:45Z</time></trkpt><trkpt lat="43.38898914178413" lon="-0.5961152780402607"><ele>109.0</ele><time>2026-05-03T09:26:46Z</time></trkpt><trkpt lat="43.389017107442655" lon="-0.5962290162509553"><ele>109.0</ele><time>2026-05-03T09:26:47Z</time></trkpt><trkpt lat="43.38905095715271" lon="-0.5963410954726355"><ele>109.00000000000001</ele><time>2026-05-03T09:26:48Z</time></trkpt><trkpt lat="43.389086731361495" lon="-0.596446964637157"><ele>109.0</ele><time>2026-05-03T09:26:49Z</time></trkpt><trkpt lat="43.38913404527031" lon="-0.5965515081253816"><ele>108.66666666666667</ele><time>2026-05-03T09:26:50Z</time></trkpt><trkpt lat="43.38918741798947" lon="-0.5966430796956886"><ele>108.33333333333334</ele><time>2026-05-03T09:26:51Z</time></trkpt><trkpt lat="43.389245492838896" lon="-0.5967311980376414"><ele>108.0</ele><time>2026-05-03T09:26:52Z</time></trkpt><trkpt lat="43.389311152572155" lon="-0.5968101673214949"><ele>107.66666666666666</ele><time>2026-05-03T09:26:53Z</time></trkpt><trkpt lat="43.389379906934536" lon="-0.5968819242950967"><ele>107.33333333333333</ele><time>2026-05-03T09:26:54Z</time></trkpt><trkpt lat="43.389447517032195" lon="-0.5969472975614346"><ele>107.0</ele><time>2026-05-03T09:26:55Z</time></trkpt><trkpt lat="43.38951705035441" lon="-0.59702283778275"><ele>106.99999999999999</ele><time>2026-05-03T09:26:56Z</time></trkpt><trkpt lat="43.389571159146655" lon="-0.5970987035906269"><ele>107.0</ele><time>2026-05-03T09:26:57Z</time></trkpt><trkpt lat="43.38963513296118" lon="-0.5971587934310452"><ele>107.0</ele><time>2026-05-03T09:26:58Z</time></trkpt><trkpt lat="43.38969202821994" lon="-0.5972131584885126"><ele>107.0</ele><time>2026-05-03T09:26:59Z</time></trkpt><trkpt lat="43.38976496170531" lon="-0.5972716635446229"><ele>106.99999999999999</ele><time>2026-05-03T09:27:00Z</time></trkpt><trkpt lat="43.38984664716773" lon="-0.5973016068373433"><ele>107.0</ele><time>2026-05-03T09:27:01Z</time></trkpt><trkpt lat="43.38992481258478" lon="-0.5973397105513587"><ele>106.83333333333333</ele><time>2026-05-03T09:27:02Z</time></trkpt><trkpt lat="43.390001423784184" lon="-0.5973747179666652"><ele>106.66666666666666</ele><time>2026-05-03T09:27:03Z</time></trkpt><trkpt lat="43.39007157712696" lon="-0.597426272789295"><ele>106.5</ele><time>2026-05-03T09:27:04Z</time></trkpt><trkpt lat="43.39013318215718" lon="-0.5974935936326601"><ele>106.33333333333334</ele><time>2026-05-03T09:27:05Z</time></trkpt><trkpt lat="43.39019761572324" lon="-0.5975680097749527"><ele>106.16666666666667</ele><time>2026-05-03T09:27:06Z</time></trkpt><trkpt lat="43.39025053580093" lon="-0.5976375795970215"><ele>106.0</ele><time>2026-05-03T09:27:07Z</time></trkpt><trkpt lat="43.390306351921545" lon="-0.5977125814984444"><ele>106.00000000000001</ele><time>2026-05-03T09:27:08Z</time></trkpt><trkpt lat="43.3903545010496" lon="-0.5977986367193642"><ele>106.0</ele><time>2026-05-03T09:27:09Z</time></trkpt><trkpt lat="43.39038771643177" lon="-0.5978927587081543"><ele>106.0</ele><time>2026-05-03T09:27:10Z</time></trkpt><trkpt lat="43.39040550648632" lon="-0.5979995913685753"><ele>106.0</ele><time>2026-05-03T09:27:11Z</time></trkpt><trkpt lat="43.39042034018137" lon="-0.5981021672499522"><ele>106.00000000000001</ele><time>2026-05-03T09:27:12Z</time></trkpt><trkpt lat="43.3904306474363" lon="-0.5982053144068628"><ele>106.0</ele><time>2026-05-03T09:27:13Z</time></trkpt><trkpt lat="43.39043960517335" lon="-0.5983104144210509"><ele>106.14285714285715</ele><time>2026-05-03T09:27:14Z</time></trkpt><trkpt lat="43.39045490344954" lon="-0.5984109759381444"><ele>106.28571428571428</ele><time>2026-05-03T09:27:15Z</time></trkpt><trkpt lat="43.39046999861386" lon="-0.598510645236287"><ele>106.42857142857143</ele><time>2026-05-03T09:27:16Z</time></trkpt><trkpt lat="43.390491521772645" lon="-0.598607641239631"><ele>106.57142857142858</ele><time>2026-05-03T09:27:17Z</time></trkpt><trkpt lat="43.390508634672464" lon="-0.5987054387746963"><ele>106.71428571428572</ele><time>2026-05-03T09:27:18Z</time></trkpt><trkpt lat="43.39053333638702" lon="-0.5987990429660546"><ele>106.85714285714286</ele><time>2026-05-03T09:27:19Z</time></trkpt><trkpt lat="43.390561591744785" lon="-0.5988912435601131"><ele>107.0</ele><time>2026-05-03T09:27:20Z</time></trkpt><trkpt lat="43.390590750863744" lon="-0.5989842158902798"><ele>106.99999999999999</ele><time>2026-05-03T09:27:21Z</time></trkpt><trkpt lat="43.3906195732475" lon="-0.5990776261446759"><ele>107.0</ele><time>2026-05-03T09:27:22Z</time></trkpt><trkpt lat="43.39065011081846" lon="-0.599174257397607"><ele>107.0</ele><time>2026-05-03T09:27:23Z</time></trkpt><trkpt lat="43.39067625996421" lon="-0.5992787067365191"><ele>107.0</ele><time>2026-05-03T09:27:24Z</time></trkpt><trkpt lat="43.39070204727803" lon="-0.5993776952535753"><ele>106.99999999999999</ele><time>2026-05-03T09:27:25Z</time></trkpt><trkpt lat="43.390735919993496" lon="-0.599474484334022"><ele>107.0</ele><time>2026-05-03T09:27:26Z</time></trkpt><trkpt lat="43.390764355419826" lon="-0.5995743784884298"><ele>106.83333333333333</ele><time>2026-05-03T09:27:27Z</time></trkpt><trkpt lat="43.39079112106574" lon="-0.5996746325352367"><ele>106.66666666666666</ele><time>2026-05-03T09:27:28Z</time></trkpt><trkpt lat="43.39083593042494" lon="-0.5997682206382365"><ele>106.5</ele><time>2026-05-03T09:27:29Z</time></trkpt><trkpt lat="43.39085980568615" lon="-0.5998633906281188"><ele>106.33333333333334</ele><time>2026-05-03T09:27:30Z</time></trkpt><trkpt lat="43.39091000543322" lon="-0.5999585178688925"><ele>106.16666666666667</ele><time>2026-05-03T09:27:31Z</time></trkpt><trkpt lat="43.3909385368689" lon="-0.600052962753314"><ele>106.0</ele><time>2026-05-03T09:27:32Z</time></trkpt><trkpt lat="43.390977755680616" lon="-0.6001400417399031"><ele>106.00000000000001</ele><time>2026-05-03T09:27:33Z</time></trkpt><trkpt lat="43.39102350192611" lon="-0.6002274998924327"><ele>106.0</ele><time>2026-05-03T09:27:34Z</time></trkpt><trkpt lat="43.39105904247414" lon="-0.6003161005031605"><ele>106.0</ele><time>2026-05-03T09:27:35Z</time></trkpt><trkpt lat="43.39110280356257" lon="-0.6004084364061463"><ele>106.0</ele><time>2026-05-03T09:27:36Z</time></trkpt><trkpt lat="43.391126122795654" lon="-0.6005100167223576"><ele>106.00000000000001</ele><time>2026-05-03T09:27:37Z</time></trkpt><trkpt lat="43.3911660609675" lon="-0.6006011345480894"><ele>106.0</ele><time>2026-05-03T09:27:38Z</time></trkpt><trkpt lat="43.391191247133" lon="-0.6007022655055896"><ele>106.14285714285715</ele><time>2026-05-03T09:27:39Z</time></trkpt><trkpt lat="43.39121086540158" lon="-0.6008098047407215"><ele>106.28571428571428</ele><time>2026-05-03T09:27:40Z</time></trkpt><trkpt lat="43.39123370809853" lon="-0.6008966888925958"><ele>106.42857142857143</ele><time>2026-05-03T09:27:41Z</time></trkpt><trkpt lat="43.39125867808607" lon="-0.6009892651122911"><ele>106.57142857142858</ele><time>2026-05-03T09:27:42Z</time></trkpt><trkpt lat="43.391283650889974" lon="-0.6010841961153726"><ele>106.71428571428572</ele><time>2026-05-03T09:27:43Z</time></trkpt><trkpt lat="43.39129964704486" lon="-0.601181580041004"><ele>106.85714285714286</ele><time>2026-05-03T09:27:44Z</time></trkpt><trkpt lat="43.39129419217213" lon="-0.6012819032046435"><ele>107.0</ele><time>2026-05-03T09:27:45Z</time></trkpt><trkpt lat="43.39128131133936" lon="-0.6013794170324596"><ele>107.00000000000001</ele><time>2026-05-03T09:27:46Z</time></trkpt><trkpt lat="43.39125918815855" lon="-0.6014749352957687"><ele>107.0</ele><time>2026-05-03T09:27:47Z</time></trkpt><trkpt lat="43.391232561697386" lon="-0.6015707524461757"><ele>107.0</ele><time>2026-05-03T09:27:48Z</time></trkpt><trkpt lat="43.39121055649533" lon="-0.6016628398920097"><ele>107.0</ele><time>2026-05-03T09:27:49Z</time></trkpt><trkpt lat="43.39118254354971" lon="-0.6017535639830682"><ele>107.0</ele><time>2026-05-03T09:27:50Z</time></trkpt><trkpt lat="43.39115601932489" lon="-0.6018462193187846"><ele>107.00000000000001</ele><time>2026-05-03T09:27:51Z</time></trkpt><trkpt lat="43.391133273206016" lon="-0.6019421462898892"><ele>107.0</ele><time>2026-05-03T09:27:52Z</time></trkpt><trkpt lat="43.3911128921616" lon="-0.6020351246446948"><ele>107.00000000000001</ele><time>2026-05-03T09:27:53Z</time></trkpt><trkpt lat="43.39108797559406" lon="-0.6021334647796233"><ele>107.0</ele><time>2026-05-03T09:27:54Z</time></trkpt><trkpt lat="43.39106745423821" lon="-0.6022303992566226"><ele>107.0</ele><time>2026-05-03T09:27:55Z</time></trkpt><trkpt lat="43.39104338139707" lon="-0.6023254611227978"><ele>107.0</ele><time>2026-05-03T09:27:56Z</time></trkpt><trkpt lat="43.391025796086566" lon="-0.6024211659555334"><ele>107.0</ele><time>2026-05-03T09:27:57Z</time></trkpt><trkpt lat="43.391002248560376" lon="-0.6025170989999141"><ele>107.00000000000001</ele><time>2026-05-03T09:27:58Z</time></trkpt><trkpt lat="43.39098612154214" lon="-0.6026082934209414"><ele>107.0</ele><time>2026-05-03T09:27:59Z</time></trkpt><trkpt lat="43.390956204151934" lon="-0.6027062691266274"><ele>107.00000000000001</ele><time>2026-05-03T09:28:00Z</time></trkpt><trkpt lat="43.39093860330016" lon="-0.6028016206130459"><ele>107.0</ele><time>2026-05-03T09:28:01Z</time></trkpt><trkpt lat="43.390919983801425" lon="-0.6028993211801136"><ele>107.0</ele><time>2026-05-03T09:28:02Z</time></trkpt><trkpt lat="43.39089696691904" lon="-0.6029956251664375"><ele>107.0</ele><time>2026-05-03T09:28:03Z</time></trkpt><trkpt lat="43.39087738719517" lon="-0.603090225541516"><ele>107.0</ele><time>2026-05-03T09:28:04Z</time></trkpt><trkpt lat="43.390854575301255" lon="-0.6031856312367152"><ele>107.00000000000001</ele><time>2026-05-03T09:28:05Z</time></trkpt><trkpt lat="43.390836416740015" lon="-0.6032842609816661"><ele>107.0</ele><time>2026-05-03T09:28:06Z</time></trkpt><trkpt lat="43.390810396847876" lon="-0.6033786486123572"><ele>106.85714285714286</ele><time>2026-05-03T09:28:07Z</time></trkpt><trkpt lat="43.39078190046366" lon="-0.6034692549387772"><ele>106.71428571428572</ele><time>2026-05-03T09:28:08Z</time></trkpt><trkpt lat="43.39074687103864" lon="-0.6035634187484148"><ele>106.57142857142858</ele><time>2026-05-03T09:28:09Z</time></trkpt><trkpt lat="43.390718991059465" lon="-0.6036547323312017"><ele>106.42857142857143</ele><time>2026-05-03T09:28:10Z</time></trkpt><trkpt lat="43.39069038415339" lon="-0.6037462397583675"><ele>106.28571428571428</ele><time>2026-05-03T09:28:11Z</time></trkpt><trkpt lat="43.390660825708174" lon="-0.6038407020958074"><ele>106.14285714285715</ele><time>2026-05-03T09:28:12Z</time></trkpt><trkpt lat="43.39063344323378" lon="-0.603933842157866"><ele>106.0</ele><time>2026-05-03T09:28:13Z</time></trkpt><trkpt lat="43.39060369781241" lon="-0.6040267434727369"><ele>106.0</ele><time>2026-05-03T09:28:14Z</time></trkpt><trkpt lat="43.390573351659114" lon="-0.6041160899844347"><ele>106.0</ele><time>2026-05-03T09:28:15Z</time></trkpt><trkpt lat="43.390545525567234" lon="-0.604206845374268"><ele>106.0</ele><time>2026-05-03T09:28:16Z</time></trkpt><trkpt lat="43.3905148071844" lon="-0.6042955645244851"><ele>106.0</ele><time>2026-05-03T09:28:17Z</time></trkpt><trkpt lat="43.390481123612844" lon="-0.6043827541568682"><ele>106.0</ele><time>2026-05-03T09:28:18Z</time></trkpt><trkpt lat="43.390454437325374" lon="-0.604473540658758"><ele>106.0</ele><time>2026-05-03T09:28:19Z</time></trkpt><trkpt lat="43.39042642910326" lon="-0.6045653550638835"><ele>106.0</ele><time>2026-05-03T09:28:20Z</time></trkpt><trkpt lat="43.39039995488428" lon="-0.6046606048184084"><ele>105.33333333333334</ele><time>2026-05-03T09:28:21Z</time></trkpt><trkpt lat="43.39037490312499" lon="-0.6047591184977401"><ele>104.66666666666667</ele><time>2026-05-03T09:28:22Z</time></trkpt><trkpt lat="43.39035325952102" lon="-0.6048591284109532"><ele>104.0</ele><time>2026-05-03T09:28:23Z</time></trkpt><trkpt lat="43.39032803597071" lon="-0.6049621546964312"><ele>103.33333333333334</ele><time>2026-05-03T09:28:24Z</time></trkpt><trkpt lat="43.39030721404031" lon="-0.6050627230835013"><ele>102.66666666666667</ele><time>2026-05-03T09:28:25Z</time></trkpt><trkpt lat="43.39029414904944" lon="-0.6051650186755776"><ele>102.0</ele><time>2026-05-03T09:28:26Z</time></trkpt><trkpt lat="43.390283240966426" lon="-0.6052669127869534"><ele>101.66666666666667</ele><time>2026-05-03T09:28:27Z</time></trkpt><trkpt lat="43.39026904408153" lon="-0.6053710464765292"><ele>101.33333333333334</ele><time>2026-05-03T09:28:28Z</time></trkpt><trkpt lat="43.390260839382854" lon="-0.6054701618844374"><ele>101.0</ele><time>2026-05-03T09:28:29Z</time></trkpt><trkpt lat="43.3902514729325" lon="-0.6055745032266794"><ele>100.66666666666667</ele><time>2026-05-03T09:28:30Z</time></trkpt><trkpt lat="43.3902415416802" lon="-0.6056717519722131"><ele>100.33333333333334</ele><time>2026-05-03T09:28:31Z</time></trkpt><trkpt lat="43.390228908237496" lon="-0.6057775509760611"><ele>100.0</ele><time>2026-05-03T09:28:32Z</time></trkpt><trkpt lat="43.39020788432683" lon="-0.6058967959339339"><ele>100.00000000000001</ele><time>2026-05-03T09:28:33Z</time></trkpt><trkpt lat="43.39019365884515" lon="-0.6059962816169796"><ele>100.0</ele><time>2026-05-03T09:28:34Z</time></trkpt><trkpt lat="43.39018519935678" lon="-0.6060967010840486"><ele>100.0</ele><time>2026-05-03T09:28:35Z</time></trkpt><trkpt lat="43.390180657254774" lon="-0.6061981169210088"><ele>100.0</ele><time>2026-05-03T09:28:36Z</time></trkpt><trkpt lat="43.39017057498173" lon="-0.606299967158084"><ele>100.0</ele><time>2026-05-03T09:28:37Z</time></trkpt><trkpt lat="43.39016477575249" lon="-0.6064016859022977"><ele>100.00000000000001</ele><time>2026-05-03T09:28:38Z</time></trkpt><trkpt lat="43.39016401188184" lon="-0.6065035082034466"><ele>100.0</ele><time>2026-05-03T09:28:39Z</time></trkpt><trkpt lat="43.39014604046099" lon="-0.6066020539935981"><ele>100.42857142857143</ele><time>2026-05-03T09:28:40Z</time></trkpt><trkpt lat="43.39013795717841" lon="-0.6067021284683388"><ele>100.85714285714286</ele><time>2026-05-03T09:28:41Z</time></trkpt><trkpt lat="43.39013354213346" lon="-0.606804838042334"><ele>101.28571428571428</ele><time>2026-05-03T09:28:42Z</time></trkpt><trkpt lat="43.39012508083146" lon="-0.6069077041408049"><ele>101.71428571428572</ele><time>2026-05-03T09:28:43Z</time></trkpt><trkpt lat="43.3901116128483" lon="-0.6070087784198572"><ele>102.14285714285714</ele><time>2026-05-03T09:28:44Z</time></trkpt><trkpt lat="43.3901084934726" lon="-0.6071095101710565"><ele>102.57142857142857</ele><time>2026-05-03T09:28:45Z</time></trkpt><trkpt lat="43.39010424065" lon="-0.6072166531418907"><ele>103.0</ele><time>2026-05-03T09:28:46Z</time></trkpt><trkpt lat="43.39008514695393" lon="-0.6073157177380174"><ele>103.28571428571428</ele><time>2026-05-03T09:28:47Z</time></trkpt><trkpt lat="43.39007083122115" lon="-0.6074159576764315"><ele>103.57142857142857</ele><time>2026-05-03T09:28:48Z</time></trkpt><trkpt lat="43.39005559372935" lon="-0.6075173128460168"><ele>103.85714285714286</ele><time>2026-05-03T09:28:49Z</time></trkpt><trkpt lat="43.39004225806131" lon="-0.6076198611247052"><ele>104.14285714285714</ele><time>2026-05-03T09:28:50Z</time></trkpt><trkpt lat="43.3900286152772" lon="-0.6077224618259053"><ele>104.42857142857143</ele><time>2026-05-03T09:28:51Z</time></trkpt><trkpt lat="43.39003303842164" lon="-0.6078238243621493"><ele>104.71428571428571</ele><time>2026-05-03T09:28:52Z</time></trkpt><trkpt lat="43.39001851886677" lon="-0.6079223357133944"><ele>105.0</ele><time>2026-05-03T09:28:53Z</time></trkpt><trkpt lat="43.390002008771255" lon="-0.6080253637143131"><ele>105.0</ele><time>2026-05-03T09:28:54Z</time></trkpt><trkpt lat="43.389988998633825" lon="-0.608132160171525"><ele>105.0</ele><time>2026-05-03T09:28:55Z</time></trkpt><trkpt lat="43.389980429879664" lon="-0.6082324917813678"><ele>105.0</ele><time>2026-05-03T09:28:56Z</time></trkpt><trkpt lat="43.38997454559419" lon="-0.6083389136815731"><ele>105.0</ele><time>2026-05-03T09:28:57Z</time></trkpt><trkpt lat="43.38996480237523" lon="-0.6084392481456594"><ele>105.0</ele><time>2026-05-03T09:28:58Z</time></trkpt><trkpt lat="43.389952652061986" lon="-0.6085392864763037"><ele>105.0</ele><time>2026-05-03T09:28:59Z</time></trkpt><trkpt lat="43.38993628336941" lon="-0.6086395478454777"><ele>104.71428571428571</ele><time>2026-05-03T09:29:00Z</time></trkpt><trkpt lat="43.389922354889556" lon="-0.608738261894995"><ele>104.42857142857143</ele><time>2026-05-03T09:29:01Z</time></trkpt><trkpt lat="43.38990658417009" lon="-0.6088357693401816"><ele>104.14285714285714</ele><time>2026-05-03T09:29:02Z</time></trkpt><trkpt lat="43.38988612331941" lon="-0.6089309707535943"><ele>103.85714285714286</ele><time>2026-05-03T09:29:03Z</time></trkpt><trkpt lat="43.38985919680047" lon="-0.6090242523786106"><ele>103.57142857142857</ele><time>2026-05-03T09:29:04Z</time></trkpt><trkpt lat="43.38982972046581" lon="-0.6091149983058383"><ele>103.28571428571428</ele><time>2026-05-03T09:29:05Z</time></trkpt><trkpt lat="43.389812264679435" lon="-0.6092107632250932"><ele>103.0</ele><time>2026-05-03T09:29:06Z</time></trkpt><trkpt lat="43.389799092604726" lon="-0.6093045717147595"><ele>103.00000000000001</ele><time>2026-05-03T09:29:07Z</time></trkpt><trkpt lat="43.38978607371431" lon="-0.6094024828587673"><ele>103.0</ele><time>2026-05-03T09:29:08Z</time></trkpt><trkpt lat="43.38977322166969" lon="-0.6094939895991797"><ele>103.0</ele><time>2026-05-03T09:29:09Z</time></trkpt><trkpt lat="43.389756439405176" lon="-0.6095872521944243"><ele>103.0</ele><time>2026-05-03T09:29:10Z</time></trkpt><trkpt lat="43.389741694624696" lon="-0.6096715469348314"><ele>103.00000000000001</ele><time>2026-05-03T09:29:11Z</time></trkpt><trkpt lat="43.38973177945188" lon="-0.6098164402241039"><ele>103.0</ele><time>2026-05-03T09:29:13Z</time></trkpt><trkpt lat="43.389753142451255" lon="-0.6099138922202347"><ele>103.4</ele><time>2026-05-03T09:29:15Z</time></trkpt><trkpt lat="43.38986612246143" lon="-0.6099489049238748"><ele>103.80000000000001</ele><time>2026-05-03T09:29:18Z</time></trkpt><trkpt lat="43.38995576490482" lon="-0.6099449491750408"><ele>104.2</ele><time>2026-05-03T09:29:20Z</time></trkpt><trkpt lat="43.39005785026117" lon="-0.6099663669298755"><ele>104.6</ele><time>2026-05-03T09:29:22Z</time></trkpt><trkpt lat="43.39016468059143" lon="-0.6099941731519901"><ele>105.0</ele><time>2026-05-03T09:29:24Z</time></trkpt><trkpt lat="43.39027444382126" lon="-0.610007974655066"><ele>105.0</ele><time>2026-05-03T09:29:26Z</time></trkpt><trkpt lat="43.39034255411694" lon="-0.6100284829485808"><ele>105.0</ele><time>2026-05-03T09:29:27Z</time></trkpt><trkpt lat="43.39040471585294" lon="-0.6100426637572646"><ele>105.0</ele><time>2026-05-03T09:29:28Z</time></trkpt><trkpt lat="43.39046898208506" lon="-0.6100529640710948"><ele>105.0</ele><time>2026-05-03T09:29:29Z</time></trkpt><trkpt lat="43.39053658998179" lon="-0.6100659439630245"><ele>105.0</ele><time>2026-05-03T09:29:30Z</time></trkpt><trkpt lat="43.39060153465034" lon="-0.610076862794662"><ele>105.0</ele><time>2026-05-03T09:29:31Z</time></trkpt><trkpt lat="43.390670765956855" lon="-0.6100859589662821"><ele>105.0</ele><time>2026-05-03T09:29:32Z</time></trkpt><trkpt lat="43.39073947838977" lon="-0.6100901353288957"><ele>105.0</ele><time>2026-05-03T09:29:33Z</time></trkpt><trkpt lat="43.390808882324144" lon="-0.6100964305026416"><ele>105.0</ele><time>2026-05-03T09:29:34Z</time></trkpt><trkpt lat="43.390879733639096" lon="-0.6101114653838536"><ele>105.0</ele><time>2026-05-03T09:29:35Z</time></trkpt><trkpt lat="43.39094729025703" lon="-0.6101238744969738"><ele>105.0</ele><time>2026-05-03T09:29:36Z</time></trkpt><trkpt lat="43.39101821259309" lon="-0.6101294296656764"><ele>105.0</ele><time>2026-05-03T09:29:37Z</time></trkpt><trkpt lat="43.39108828111661" lon="-0.6101362921778324"><ele>105.0</ele><time>2026-05-03T09:29:38Z</time></trkpt><trkpt lat="43.39116024642978" lon="-0.6101464885881253"><ele>105.0</ele><time>2026-05-03T09:29:39Z</time></trkpt><trkpt lat="43.39123141541036" lon="-0.6101569798074525"><ele>105.0</ele><time>2026-05-03T09:29:40Z</time></trkpt><trkpt lat="43.39130370900999" lon="-0.6101717346016575"><ele>105.0</ele><time>2026-05-03T09:29:41Z</time></trkpt><trkpt lat="43.391376001970634" lon="-0.6101789103993899"><ele>105.0</ele><time>2026-05-03T09:29:42Z</time></trkpt><trkpt lat="43.391451462532736" lon="-0.6101903744572822"><ele>105.0</ele><time>2026-05-03T09:29:43Z</time></trkpt><trkpt lat="43.3915263615552" lon="-0.6102016657937736"><ele>105.0</ele><time>2026-05-03T09:29:44Z</time></trkpt><trkpt lat="43.39160142288582" lon="-0.6102106587476382"><ele>105.0</ele><time>2026-05-03T09:29:45Z</time></trkpt><trkpt lat="43.39167915557893" lon="-0.6102187018621497"><ele>105.33333333333333</ele><time>2026-05-03T09:29:46Z</time></trkpt><trkpt lat="43.391753666260755" lon="-0.6102283910272928"><ele>105.66666666666666</ele><time>2026-05-03T09:29:47Z</time></trkpt><trkpt lat="43.39183015374111" lon="-0.6102416379322962"><ele>106.0</ele><time>2026-05-03T09:29:48Z</time></trkpt><trkpt lat="43.391905578117814" lon="-0.6102535586928455"><ele>106.33333333333333</ele><time>2026-05-03T09:29:49Z</time></trkpt><trkpt lat="43.39198246434871" lon="-0.6102651964702419"><ele>106.66666666666666</ele><time>2026-05-03T09:29:50Z</time></trkpt><trkpt lat="43.39205809527684" lon="-0.6102684810881043"><ele>107.0</ele><time>2026-05-03T09:29:51Z</time></trkpt><trkpt lat="43.39213337190285" lon="-0.6102808625888438"><ele>106.99999999999999</ele><time>2026-05-03T09:29:52Z</time></trkpt><trkpt lat="43.392208776741604" lon="-0.6102910651160941"><ele>107.0</ele><time>2026-05-03T09:29:53Z</time></trkpt><trkpt lat="43.39228512573553" lon="-0.6103031380274686"><ele>107.0</ele><time>2026-05-03T09:29:54Z</time></trkpt><trkpt lat="43.392362031144096" lon="-0.6103092278223792"><ele>107.0</ele><time>2026-05-03T09:29:55Z</time></trkpt><trkpt lat="43.39243982830162" lon="-0.6103167798808654"><ele>106.99999999999999</ele><time>2026-05-03T09:29:56Z</time></trkpt><trkpt lat="43.392518166026235" lon="-0.6103314204038788"><ele>107.0</ele><time>2026-05-03T09:29:57Z</time></trkpt><trkpt lat="43.39259577326996" lon="-0.6103463571689157"><ele>106.83333333333333</ele><time>2026-05-03T09:29:58Z</time></trkpt><trkpt lat="43.39267241701062" lon="-0.6103548215324657"><ele>106.66666666666666</ele><time>2026-05-03T09:29:59Z</time></trkpt><trkpt lat="43.39274956289908" lon="-0.6103678490282093"><ele>106.5</ele><time>2026-05-03T09:30:00Z</time></trkpt><trkpt lat="43.39282710688057" lon="-0.610381874074837"><ele>106.33333333333334</ele><time>2026-05-03T09:30:01Z</time></trkpt><trkpt lat="43.39290332792068" lon="-0.610394708865526"><ele>106.16666666666667</ele><time>2026-05-03T09:30:02Z</time></trkpt><trkpt lat="43.392974378269514" lon="-0.61040595040837"><ele>106.0</ele><time>2026-05-03T09:30:03Z</time></trkpt><trkpt lat="43.39305356652281" lon="-0.6104240659602759"><ele>106.00000000000001</ele><time>2026-05-03T09:30:04Z</time></trkpt><trkpt lat="43.393129215927786" lon="-0.6104416501048858"><ele>106.0</ele><time>2026-05-03T09:30:05Z</time></trkpt><trkpt lat="43.39320613651929" lon="-0.6104638144705485"><ele>106.0</ele><time>2026-05-03T09:30:06Z</time></trkpt><trkpt lat="43.393281918234315" lon="-0.6104917754649213"><ele>106.0</ele><time>2026-05-03T09:30:07Z</time></trkpt><trkpt lat="43.39335661284221" lon="-0.6105226014588074"><ele>106.00000000000001</ele><time>2026-05-03T09:30:08Z</time></trkpt><trkpt lat="43.393430530990514" lon="-0.6105571658740925"><ele>106.0</ele><time>2026-05-03T09:30:09Z</time></trkpt><trkpt lat="43.393504509284426" lon="-0.6105955444605551"><ele>106.00000000000001</ele><time>2026-05-03T09:30:10Z</time></trkpt><trkpt lat="43.393580770863046" lon="-0.6106341988358566"><ele>106.0</ele><time>2026-05-03T09:30:11Z</time></trkpt><trkpt lat="43.39365201731238" lon="-0.6106729895304605"><ele>106.0</ele><time>2026-05-03T09:30:12Z</time></trkpt><trkpt lat="43.39372266888569" lon="-0.6107157684430222"><ele>106.0</ele><time>2026-05-03T09:30:13Z</time></trkpt><trkpt lat="43.39379631922192" lon="-0.6107659638009653"><ele>106.00000000000001</ele><time>2026-05-03T09:30:14Z</time></trkpt><trkpt lat="43.39386731740162" lon="-0.6108135217296726"><ele>106.0</ele><time>2026-05-03T09:30:15Z</time></trkpt><trkpt lat="43.39393826807682" lon="-0.6108701166202617"><ele>105.83333333333334</ele><time>2026-05-03T09:30:16Z</time></trkpt><trkpt lat="43.39400654201594" lon="-0.6109244602487378"><ele>105.66666666666667</ele><time>2026-05-03T09:30:17Z</time></trkpt><trkpt lat="43.39407471058643" lon="-0.6109805918396572"><ele>105.5</ele><time>2026-05-03T09:30:18Z</time></trkpt><trkpt lat="43.394142437527144" lon="-0.6110439292586508"><ele>105.33333333333334</ele><time>2026-05-03T09:30:19Z</time></trkpt><trkpt lat="43.394202335109746" lon="-0.6111095058727906"><ele>105.16666666666667</ele><time>2026-05-03T09:30:20Z</time></trkpt><trkpt lat="43.39426524767716" lon="-0.6111735399195118"><ele>105.0</ele><time>2026-05-03T09:30:21Z</time></trkpt><trkpt lat="43.394329501554026" lon="-0.6112384796714505"><ele>105.33333333333333</ele><time>2026-05-03T09:30:22Z</time></trkpt><trkpt lat="43.394389833726606" lon="-0.6113061523199997"><ele>105.66666666666666</ele><time>2026-05-03T09:30:23Z</time></trkpt><trkpt lat="43.39444905738981" lon="-0.6113823406895024"><ele>106.0</ele><time>2026-05-03T09:30:24Z</time></trkpt><trkpt lat="43.39450435078086" lon="-0.6114581398445047"><ele>106.33333333333333</ele><time>2026-05-03T09:30:25Z</time></trkpt><trkpt lat="43.394558955075155" lon="-0.6115358444818131"><ele>106.66666666666666</ele><time>2026-05-03T09:30:26Z</time></trkpt><trkpt lat="43.394611217387535" lon="-0.6116172359385518"><ele>107.0</ele><time>2026-05-03T09:30:27Z</time></trkpt><trkpt lat="43.39466418090272" lon="-0.611701684820768"><ele>106.49999999999999</ele><time>2026-05-03T09:30:28Z</time></trkpt><trkpt lat="43.39471156216856" lon="-0.6117862542678631"><ele>106.0</ele><time>2026-05-03T09:30:29Z</time></trkpt><trkpt lat="43.39475898661528" lon="-0.6118758008825226"><ele>105.5</ele><time>2026-05-03T09:30:30Z</time></trkpt><trkpt lat="43.39480806785149" lon="-0.611965197252929"><ele>105.0</ele><time>2026-05-03T09:30:31Z</time></trkpt><trkpt lat="43.394857984743695" lon="-0.6120542944864167"><ele>104.49999999999999</ele><time>2026-05-03T09:30:32Z</time></trkpt><trkpt lat="43.39490890235578" lon="-0.6121435972208901"><ele>104.0</ele><time>2026-05-03T09:30:33Z</time></trkpt><trkpt lat="43.394960016667305" lon="-0.6122342060414923"><ele>103.99999999999999</ele><time>2026-05-03T09:30:34Z</time></trkpt><trkpt lat="43.39501093324589" lon="-0.6123268883869777"><ele>104.0</ele><time>2026-05-03T09:30:35Z</time></trkpt><trkpt lat="43.39506135556186" lon="-0.6124188792744991"><ele>104.0</ele><time>2026-05-03T09:30:36Z</time></trkpt><trkpt lat="43.395109908210934" lon="-0.6125087475236201"><ele>104.0</ele><time>2026-05-03T09:30:37Z</time></trkpt><trkpt lat="43.395161204276455" lon="-0.6125979457389804"><ele>103.99999999999999</ele><time>2026-05-03T09:30:38Z</time></trkpt><trkpt lat="43.395211474801975" lon="-0.6126881859316708"><ele>104.0</ele><time>2026-05-03T09:30:39Z</time></trkpt><trkpt lat="43.39526038553118" lon="-0.6127812892749304"><ele>103.99999999999999</ele><time>2026-05-03T09:30:40Z</time></trkpt><trkpt lat="43.39531152992308" lon="-0.6128765047584204"><ele>104.0</ele><time>2026-05-03T09:30:41Z</time></trkpt><trkpt lat="43.39536251170855" lon="-0.612974455487675"><ele>104.0</ele><time>2026-05-03T09:30:42Z</time></trkpt><trkpt lat="43.395414904829096" lon="-0.6130571502463957"><ele>104.0</ele><time>2026-05-03T09:30:43Z</time></trkpt><trkpt lat="43.39546599274783" lon="-0.6131454836528134"><ele>103.99999999999999</ele><time>2026-05-03T09:30:44Z</time></trkpt><trkpt lat="43.39551734724257" lon="-0.6132319793827005"><ele>104.0</ele><time>2026-05-03T09:30:45Z</time></trkpt><trkpt lat="43.395566836369355" lon="-0.6133231478833727"><ele>103.99999999999999</ele><time>2026-05-03T09:30:46Z</time></trkpt><trkpt lat="43.39561836312074" lon="-0.6134129930437525"><ele>104.0</ele><time>2026-05-03T09:30:47Z</time></trkpt><trkpt lat="43.395669922261135" lon="-0.6135033989388572"><ele>104.0</ele><time>2026-05-03T09:30:48Z</time></trkpt><trkpt lat="43.39572163464737" lon="-0.6135943851387228"><ele>104.0</ele><time>2026-05-03T09:30:49Z</time></trkpt><trkpt lat="43.39577330909508" lon="-0.6136874195058546"><ele>103.99999999999999</ele><time>2026-05-03T09:30:50Z</time></trkpt><trkpt lat="43.395825972829016" lon="-0.6137746495552215"><ele>104.0</ele><time>2026-05-03T09:30:51Z</time></trkpt><trkpt lat="43.39587827340364" lon="-0.6138640522415453"><ele>104.16666666666666</ele><time>2026-05-03T09:30:52Z</time></trkpt><trkpt lat="43.395929023118725" lon="-0.6139569207716368"><ele>104.33333333333333</ele><time>2026-05-03T09:30:53Z</time></trkpt><trkpt lat="43.39597802073916" lon="-0.6140496408649762"><ele>104.5</ele><time>2026-05-03T09:30:54Z</time></trkpt><trkpt lat="43.39602908154559" lon="-0.6141400157273605"><ele>104.66666666666666</ele><time>2026-05-03T09:30:55Z</time></trkpt><trkpt lat="43.396077230590016" lon="-0.6142318010481074"><ele>104.83333333333333</ele><time>2026-05-03T09:30:56Z</time></trkpt><trkpt lat="43.396125727175836" lon="-0.614323732667735"><ele>105.0</ele><time>2026-05-03T09:30:57Z</time></trkpt><trkpt lat="43.39619025518435" lon="-0.6144251292701128"><ele>104.66666666666667</ele><time>2026-05-03T09:30:58Z</time></trkpt><trkpt lat="43.39622826932316" lon="-0.6145011286723554"><ele>104.33333333333334</ele><time>2026-05-03T09:30:59Z</time></trkpt><trkpt lat="43.39628123656407" lon="-0.6145877226562995"><ele>104.0</ele><time>2026-05-03T09:31:00Z</time></trkpt><trkpt lat="43.39632937369031" lon="-0.6146754686752569"><ele>103.66666666666667</ele><time>2026-05-03T09:31:01Z</time></trkpt><trkpt lat="43.396377975878444" lon="-0.6147625844705227"><ele>103.33333333333334</ele><time>2026-05-03T09:31:02Z</time></trkpt><trkpt lat="43.39642909836654" lon="-0.6148498438061388"><ele>103.0</ele><time>2026-05-03T09:31:03Z</time></trkpt><trkpt lat="43.39647658120843" lon="-0.614941316817141"><ele>102.83333333333334</ele><time>2026-05-03T09:31:04Z</time></trkpt><trkpt lat="43.39652819493404" lon="-0.615024893523521"><ele>102.66666666666667</ele><time>2026-05-03T09:31:05Z</time></trkpt><trkpt lat="43.39657860816666" lon="-0.6151141733148767"><ele>102.5</ele><time>2026-05-03T09:31:06Z</time></trkpt><trkpt lat="43.39663170747458" lon="-0.6152020801975434"><ele>102.33333333333334</ele><time>2026-05-03T09:31:07Z</time></trkpt><trkpt lat="43.39668060925119" lon="-0.6152895694427736"><ele>102.16666666666667</ele><time>2026-05-03T09:31:08Z</time></trkpt><trkpt lat="43.39672814411845" lon="-0.6153803788241724"><ele>102.0</ele><time>2026-05-03T09:31:09Z</time></trkpt><trkpt lat="43.396778142691254" lon="-0.6154671525511181"><ele>102.0</ele><time>2026-05-03T09:31:10Z</time></trkpt><trkpt lat="43.39682649358582" lon="-0.615556114967571"><ele>102.0</ele><time>2026-05-03T09:31:11Z</time></trkpt><trkpt lat="43.39687490812616" lon="-0.6156410694846944"><ele>102.0</ele><time>2026-05-03T09:31:12Z</time></trkpt><trkpt lat="43.39692881695974" lon="-0.6157173797481919"><ele>102.0</ele><time>2026-05-03T09:31:13Z</time></trkpt><trkpt lat="43.396975799414925" lon="-0.6158140830239749"><ele>102.0</ele><time>2026-05-03T09:31:14Z</time></trkpt><trkpt lat="43.39702457129846" lon="-0.6158990247805759"><ele>102.0</ele><time>2026-05-03T09:31:15Z</time></trkpt><trkpt lat="43.39707142650884" lon="-0.6159866504994911"><ele>102.0</ele><time>2026-05-03T09:31:16Z</time></trkpt><trkpt lat="43.39711748072792" lon="-0.6160758706438132"><ele>102.0</ele><time>2026-05-03T09:31:17Z</time></trkpt><trkpt lat="43.397163392136214" lon="-0.6161631991308029"><ele>102.0</ele><time>2026-05-03T09:31:18Z</time></trkpt><trkpt lat="43.39721241647184" lon="-0.6162487888594702"><ele>102.0</ele><time>2026-05-03T09:31:19Z</time></trkpt><trkpt lat="43.39725963426184" lon="-0.6163337908820948"><ele>102.0</ele><time>2026-05-03T09:31:20Z</time></trkpt><trkpt lat="43.397306911598925" lon="-0.6164230551650608"><ele>102.0</ele><time>2026-05-03T09:31:21Z</time></trkpt><trkpt lat="43.397352958936295" lon="-0.6165110605816913"><ele>101.83333333333333</ele><time>2026-05-03T09:31:22Z</time></trkpt><trkpt lat="43.397404136100114" lon="-0.6165948771547713"><ele>101.66666666666666</ele><time>2026-05-03T09:31:23Z</time></trkpt><trkpt lat="43.39744890758435" lon="-0.6166839721476317"><ele>101.5</ele><time>2026-05-03T09:31:24Z</time></trkpt><trkpt lat="43.39749736501453" lon="-0.6167693934070292"><ele>101.33333333333333</ele><time>2026-05-03T09:31:25Z</time></trkpt><trkpt lat="43.39754660474023" lon="-0.6168559276159913"><ele>101.16666666666666</ele><time>2026-05-03T09:31:26Z</time></trkpt><trkpt lat="43.39759770180308" lon="-0.6169395455379193"><ele>101.0</ele><time>2026-05-03T09:31:27Z</time></trkpt><trkpt lat="43.39764827595923" lon="-0.6170267359942558"><ele>100.99999999999999</ele><time>2026-05-03T09:31:28Z</time></trkpt><trkpt lat="43.397697578354816" lon="-0.617114637626249"><ele>101.0</ele><time>2026-05-03T09:31:29Z</time></trkpt><trkpt lat="43.397743449423544" lon="-0.6172042616171032"><ele>101.0</ele><time>2026-05-03T09:31:30Z</time></trkpt><trkpt lat="43.39779225122249" lon="-0.6172909882189199"><ele>101.0</ele><time>2026-05-03T09:31:31Z</time></trkpt><trkpt lat="43.397842967297834" lon="-0.6173750900729383"><ele>100.99999999999999</ele><time>2026-05-03T09:31:32Z</time></trkpt><trkpt lat="43.39789376414768" lon="-0.6174643057928115"><ele>101.0</ele><time>2026-05-03T09:31:33Z</time></trkpt><trkpt lat="43.39794535778223" lon="-0.617549037743517"><ele>100.99999999999999</ele><time>2026-05-03T09:31:34Z</time></trkpt><trkpt lat="43.39799570609519" lon="-0.6176404987663232"><ele>101.0</ele><time>2026-05-03T09:31:35Z</time></trkpt><trkpt lat="43.39804805679233" lon="-0.617729561552681"><ele>101.0</ele><time>2026-05-03T09:31:36Z</time></trkpt><trkpt lat="43.398100493405344" lon="-0.6178187176271794"><ele>101.0</ele><time>2026-05-03T09:31:37Z</time></trkpt><trkpt lat="43.39815502788891" lon="-0.6179050576869493"><ele>100.99999999999999</ele><time>2026-05-03T09:31:38Z</time></trkpt><trkpt lat="43.39821248749955" lon="-0.6179846890481556"><ele>101.0</ele><time>2026-05-03T09:31:39Z</time></trkpt><trkpt lat="43.39826884774131" lon="-0.618069475409066"><ele>100.99999999999999</ele><time>2026-05-03T09:31:40Z</time></trkpt><trkpt lat="43.398328523315165" lon="-0.6181479016995167"><ele>101.0</ele><time>2026-05-03T09:31:41Z</time></trkpt><trkpt lat="43.398393513397394" lon="-0.6182223771684698"><ele>101.0</ele><time>2026-05-03T09:31:42Z</time></trkpt><trkpt lat="43.39845840506155" lon="-0.61829971214038"><ele>101.0</ele><time>2026-05-03T09:31:43Z</time></trkpt><trkpt lat="43.39852555125068" lon="-0.6183711245731923"><ele>100.99999999999999</ele><time>2026-05-03T09:31:44Z</time></trkpt><trkpt lat="43.39859458881925" lon="-0.6184427773441233"><ele>101.0</ele><time>2026-05-03T09:31:45Z</time></trkpt><trkpt lat="43.398662278337376" lon="-0.6185128100772326"><ele>100.99999999999999</ele><time>2026-05-03T09:31:46Z</time></trkpt><trkpt lat="43.39873031368418" lon="-0.6185751767123607"><ele>101.0</ele><time>2026-05-03T09:31:47Z</time></trkpt><trkpt lat="43.398801438878216" lon="-0.6186399333266465"><ele>101.0</ele><time>2026-05-03T09:31:48Z</time></trkpt><trkpt lat="43.39887396887943" lon="-0.6187000259207138"><ele>101.0</ele><time>2026-05-03T09:31:49Z</time></trkpt><trkpt lat="43.39894745716326" lon="-0.6187636786020745"><ele>100.99999999999999</ele><time>2026-05-03T09:31:50Z</time></trkpt><trkpt lat="43.39901843538754" lon="-0.6188261511946022"><ele>101.0</ele><time>2026-05-03T09:31:51Z</time></trkpt><trkpt lat="43.39908945847749" lon="-0.6188879499774651"><ele>100.83333333333333</ele><time>2026-05-03T09:31:52Z</time></trkpt><trkpt lat="43.399157907322795" lon="-0.618948532748977"><ele>100.66666666666666</ele><time>2026-05-03T09:31:53Z</time></trkpt><trkpt lat="43.399228023184605" lon="-0.6190119498458299"><ele>100.5</ele><time>2026-05-03T09:31:54Z</time></trkpt><trkpt lat="43.399298725061826" lon="-0.6190744892709562"><ele>100.33333333333334</ele><time>2026-05-03T09:31:55Z</time></trkpt><trkpt lat="43.399368171542505" lon="-0.6191357334183215"><ele>100.16666666666667</ele><time>2026-05-03T09:31:56Z</time></trkpt><trkpt lat="43.3994373203405" lon="-0.6191993488739796"><ele>100.0</ele><time>2026-05-03T09:31:57Z</time></trkpt><trkpt lat="43.39950737739321" lon="-0.6192602327402943"><ele>100.00000000000001</ele><time>2026-05-03T09:31:58Z</time></trkpt><trkpt lat="43.3995765761395" lon="-0.6193203589048402"><ele>100.0</ele><time>2026-05-03T09:31:59Z</time></trkpt><trkpt lat="43.39964666156994" lon="-0.6193840370116065"><ele>100.0</ele><time>2026-05-03T09:32:00Z</time></trkpt><trkpt lat="43.39971694089572" lon="-0.619443722274459"><ele>100.0</ele><time>2026-05-03T09:32:01Z</time></trkpt><trkpt lat="43.39978493599405" lon="-0.6195038146600533"><ele>100.00000000000001</ele><time>2026-05-03T09:32:02Z</time></trkpt><trkpt lat="43.39985328534283" lon="-0.619565841174054"><ele>100.0</ele><time>2026-05-03T09:32:03Z</time></trkpt><trkpt lat="43.39992616076653" lon="-0.6196179221348185"><ele>99.83333333333334</ele><time>2026-05-03T09:32:04Z</time></trkpt><trkpt lat="43.399996783662736" lon="-0.6196752841379387"><ele>99.66666666666667</ele><time>2026-05-03T09:32:05Z</time></trkpt><trkpt lat="43.400067025168354" lon="-0.6197404883058546"><ele>99.5</ele><time>2026-05-03T09:32:06Z</time></trkpt><trkpt lat="43.40013960355686" lon="-0.6198099780466898"><ele>99.33333333333334</ele><time>2026-05-03T09:32:07Z</time></trkpt><trkpt lat="43.40020868950327" lon="-0.6198696288099372"><ele>99.16666666666667</ele><time>2026-05-03T09:32:08Z</time></trkpt><trkpt lat="43.400281404404055" lon="-0.6199363632832942"><ele>99.0</ele><time>2026-05-03T09:32:09Z</time></trkpt><trkpt lat="43.40034708971724" lon="-0.6200000612874019"><ele>99.0</ele><time>2026-05-03T09:32:10Z</time></trkpt><trkpt lat="43.400413064264995" lon="-0.6200736346358137"><ele>99.0</ele><time>2026-05-03T09:32:11Z</time></trkpt><trkpt lat="43.40047979288291" lon="-0.6201398994188703"><ele>99.0</ele><time>2026-05-03T09:32:12Z</time></trkpt><trkpt lat="43.40055145905833" lon="-0.6201959578310022"><ele>99.0</ele><time>2026-05-03T09:32:13.001Z</time></trkpt><trkpt lat="43.40062467219121" lon="-0.6202587824418722"><ele>99.0</ele><time>2026-05-03T09:32:14.001Z</time></trkpt><trkpt lat="43.40069698438814" lon="-0.6203103119290942"><ele>99.0</ele><time>2026-05-03T09:32:15.001Z</time></trkpt><trkpt lat="43.40076659924387" lon="-0.620370630847234"><ele>98.66666666666667</ele><time>2026-05-03T09:32:16.001Z</time></trkpt><trkpt lat="43.40083715332905" lon="-0.6204309697180116"><ele>98.33333333333334</ele><time>2026-05-03T09:32:17.001Z</time></trkpt><trkpt lat="43.4009070140833" lon="-0.6204931714406389"><ele>98.0</ele><time>2026-05-03T09:32:18.001Z</time></trkpt><trkpt lat="43.40097621680284" lon="-0.620552608191995"><ele>97.66666666666667</ele><time>2026-05-03T09:32:19.001Z</time></trkpt><trkpt lat="43.40104681156887" lon="-0.620617441429334"><ele>97.33333333333334</ele><time>2026-05-03T09:32:20.001Z</time></trkpt><trkpt lat="43.40111287772428" lon="-0.6206814403208317"><ele>97.0</ele><time>2026-05-03T09:32:21.001Z</time></trkpt><trkpt lat="43.40118194907776" lon="-0.6207433390691703"><ele>97.00000000000001</ele><time>2026-05-03T09:32:22.001Z</time></trkpt><trkpt lat="43.401250802319026" lon="-0.6208090976063764"><ele>97.0</ele><time>2026-05-03T09:32:23.001Z</time></trkpt><trkpt lat="43.4013133852692" lon="-0.6208725043633718"><ele>97.0</ele><time>2026-05-03T09:32:24.001Z</time></trkpt><trkpt lat="43.40137628636109" lon="-0.6209405458010916"><ele>97.0</ele><time>2026-05-03T09:32:25.001Z</time></trkpt><trkpt lat="43.40143892997871" lon="-0.6210110600452206"><ele>97.00000000000001</ele><time>2026-05-03T09:32:26.001Z</time></trkpt><trkpt lat="43.401500949197946" lon="-0.6210796917268399"><ele>97.0</ele><time>2026-05-03T09:32:27.001Z</time></trkpt><trkpt lat="43.401562951131325" lon="-0.6211485953226347"><ele>96.83333333333334</ele><time>2026-05-03T09:32:28.001Z</time></trkpt><trkpt lat="43.401624975386724" lon="-0.6212178561514088"><ele>96.66666666666667</ele><time>2026-05-03T09:32:29Z</time></trkpt><trkpt lat="43.40168511131305" lon="-0.6212898668531206"><ele>96.5</ele><time>2026-05-03T09:32:30Z</time></trkpt><trkpt lat="43.40174274192805" lon="-0.6213620163994609"><ele>96.33333333333334</ele><time>2026-05-03T09:32:31Z</time></trkpt><trkpt lat="43.401801594776586" lon="-0.6214370081253792"><ele>96.16666666666667</ele><time>2026-05-03T09:32:32Z</time></trkpt><trkpt lat="43.40185919279669" lon="-0.6214991327176154"><ele>96.0</ele><time>2026-05-03T09:32:33Z</time></trkpt><trkpt lat="43.401921892451476" lon="-0.6215772563816228"><ele>96.0</ele><time>2026-05-03T09:32:34Z</time></trkpt><trkpt lat="43.401979318934664" lon="-0.6216456205192036"><ele>96.0</ele><time>2026-05-03T09:32:35Z</time></trkpt><trkpt lat="43.402043233986646" lon="-0.6217063718225009"><ele>96.0</ele><time>2026-05-03T09:32:36Z</time></trkpt><trkpt lat="43.402103311554995" lon="-0.6217750487256226"><ele>96.0</ele><time>2026-05-03T09:32:37Z</time></trkpt><trkpt lat="43.402163835545444" lon="-0.6218469879991799"><ele>96.0</ele><time>2026-05-03T09:32:38Z</time></trkpt><trkpt lat="43.40222264807725" lon="-0.6219122071132995"><ele>96.0</ele><time>2026-05-03T09:32:39Z</time></trkpt><trkpt lat="43.40228694863543" lon="-0.6219778457058094"><ele>96.16666666666667</ele><time>2026-05-03T09:32:40Z</time></trkpt><trkpt lat="43.40234832696426" lon="-0.6220482262450753"><ele>96.33333333333334</ele><time>2026-05-03T09:32:41Z</time></trkpt><trkpt lat="43.40240902654061" lon="-0.6221125561924189"><ele>96.5</ele><time>2026-05-03T09:32:42Z</time></trkpt><trkpt lat="43.402466009673" lon="-0.62217913686427"><ele>96.66666666666667</ele><time>2026-05-03T09:32:43Z</time></trkpt><trkpt lat="43.4025258408217" lon="-0.6222489438986853"><ele>96.83333333333334</ele><time>2026-05-03T09:32:44Z</time></trkpt><trkpt lat="43.40258735607419" lon="-0.6223162386718413"><ele>97.0</ele><time>2026-05-03T09:32:45Z</time></trkpt><trkpt lat="43.40264849816713" lon="-0.6223808032340009"><ele>97.00000000000001</ele><time>2026-05-03T09:32:46Z</time></trkpt><trkpt lat="43.4027084779187" lon="-0.6224485708392323"><ele>97.0</ele><time>2026-05-03T09:32:47Z</time></trkpt><trkpt lat="43.40277017811146" lon="-0.622515604624271"><ele>97.0</ele><time>2026-05-03T09:32:48Z</time></trkpt><trkpt lat="43.40282844599508" lon="-0.6225845442269116"><ele>97.0</ele><time>2026-05-03T09:32:49Z</time></trkpt><trkpt lat="43.40289024136984" lon="-0.6226557977836814"><ele>97.00000000000001</ele><time>2026-05-03T09:32:50Z</time></trkpt><trkpt lat="43.40294823502111" lon="-0.622717578165202"><ele>97.0</ele><time>2026-05-03T09:32:51Z</time></trkpt><trkpt lat="43.4030105208375" lon="-0.6227872753956821"><ele>96.83333333333334</ele><time>2026-05-03T09:32:52Z</time></trkpt><trkpt lat="43.40307064946706" lon="-0.6228561075126429"><ele>96.66666666666667</ele><time>2026-05-03T09:32:53Z</time></trkpt><trkpt lat="43.403128884447696" lon="-0.6229244293271001"><ele>96.5</ele><time>2026-05-03T09:32:54Z</time></trkpt><trkpt lat="43.403183014198014" lon="-0.6229924923509189"><ele>96.33333333333334</ele><time>2026-05-03T09:32:55Z</time></trkpt><trkpt lat="43.40324037394402" lon="-0.6230648700254442"><ele>96.16666666666667</ele><time>2026-05-03T09:32:56Z</time></trkpt><trkpt lat="43.40329795050365" lon="-0.6231327477184986"><ele>96.0</ele><time>2026-05-03T09:32:57Z</time></trkpt><trkpt lat="43.40335370939558" lon="-0.6231968831857921"><ele>95.99999999999999</ele><time>2026-05-03T09:32:58Z</time></trkpt><trkpt lat="43.403409267176826" lon="-0.6232669296763881"><ele>96.0</ele><time>2026-05-03T09:32:59Z</time></trkpt><trkpt lat="43.40346471600981" lon="-0.6233306818886398"><ele>96.0</ele><time>2026-05-03T09:33:00Z</time></trkpt><trkpt lat="43.40351724496646" lon="-0.6233935168771931"><ele>96.0</ele><time>2026-05-03T09:33:01Z</time></trkpt><trkpt lat="43.403568628076485" lon="-0.6234641399604482"><ele>96.0</ele><time>2026-05-03T09:33:02Z</time></trkpt><trkpt lat="43.40362067764784" lon="-0.6235189423075733"><ele>95.99999999999999</ele><time>2026-05-03T09:33:03Z</time></trkpt><trkpt lat="43.40367723330467" lon="-0.6235774161380411"><ele>96.0</ele><time>2026-05-03T09:33:04Z</time></trkpt><trkpt lat="43.403729386597874" lon="-0.6236317667120551"><ele>95.85714285714285</ele><time>2026-05-03T09:33:05Z</time></trkpt><trkpt lat="43.40378069025939" lon="-0.6236866391270028"><ele>95.71428571428571</ele><time>2026-05-03T09:33:06Z</time></trkpt><trkpt lat="43.40383397430846" lon="-0.623747922207998"><ele>95.57142857142857</ele><time>2026-05-03T09:33:07Z</time></trkpt><trkpt lat="43.40388345228875" lon="-0.6238041582996448"><ele>95.42857142857142</ele><time>2026-05-03T09:33:08Z</time></trkpt><trkpt lat="43.40393566207445" lon="-0.6238634449537405"><ele>95.28571428571429</ele><time>2026-05-03T09:33:09Z</time></trkpt><trkpt lat="43.403990862296595" lon="-0.6239206390079479"><ele>95.14285714285714</ele><time>2026-05-03T09:33:10Z</time></trkpt><trkpt lat="43.4040437987694" lon="-0.6239813050560182"><ele>95.0</ele><time>2026-05-03T09:33:11Z</time></trkpt><trkpt lat="43.40409808874078" lon="-0.6240439269420269"><ele>95.0</ele><time>2026-05-03T09:33:12Z</time></trkpt><trkpt lat="43.40415449237748" lon="-0.6241006706089225"><ele>95.0</ele><time>2026-05-03T09:33:13Z</time></trkpt><trkpt lat="43.40420923070491" lon="-0.6241637858667543"><ele>95.0</ele><time>2026-05-03T09:33:14Z</time></trkpt><trkpt lat="43.404265056050015" lon="-0.6242286295968628"><ele>95.0</ele><time>2026-05-03T09:33:15Z</time></trkpt><trkpt lat="43.40432011924017" lon="-0.6242886891117138"><ele>95.0</ele><time>2026-05-03T09:33:16Z</time></trkpt><trkpt lat="43.4043764585398" lon="-0.6243508843135084"><ele>95.0</ele><time>2026-05-03T09:33:17Z</time></trkpt><trkpt lat="43.40443353395388" lon="-0.6244178660738108"><ele>95.0</ele><time>2026-05-03T09:33:18Z</time></trkpt><trkpt lat="43.40448999065585" lon="-0.6244824635554593"><ele>95.0</ele><time>2026-05-03T09:33:19Z</time></trkpt><trkpt lat="43.40455351765328" lon="-0.6245436800438146"><ele>95.0</ele><time>2026-05-03T09:33:20Z</time></trkpt><trkpt lat="43.40461276928623" lon="-0.6246092167103368"><ele>95.0</ele><time>2026-05-03T09:33:21Z</time></trkpt><trkpt lat="43.404675209715705" lon="-0.624676414406645"><ele>95.0</ele><time>2026-05-03T09:33:22Z</time></trkpt><trkpt lat="43.40473749546317" lon="-0.624736484629941"><ele>95.0</ele><time>2026-05-03T09:33:23Z</time></trkpt><trkpt lat="43.40480141676579" lon="-0.6247928278853311"><ele>95.0</ele><time>2026-05-03T09:33:24Z</time></trkpt><trkpt lat="43.40486777011728" lon="-0.6248477111180629"><ele>95.16666666666667</ele><time>2026-05-03T09:33:25Z</time></trkpt><trkpt lat="43.40493485389246" lon="-0.6248995453019943"><ele>95.33333333333334</ele><time>2026-05-03T09:33:26Z</time></trkpt><trkpt lat="43.40499926041487" lon="-0.6249591445301116"><ele>95.5</ele><time>2026-05-03T09:33:27Z</time></trkpt><trkpt lat="43.40506512388007" lon="-0.6250113751789204"><ele>95.66666666666667</ele><time>2026-05-03T09:33:28Z</time></trkpt><trkpt lat="43.40513352826979" lon="-0.6250652618721171"><ele>95.83333333333333</ele><time>2026-05-03T09:33:29Z</time></trkpt><trkpt lat="43.405199988340506" lon="-0.6251145297617607"><ele>96.0</ele><time>2026-05-03T09:33:30Z</time></trkpt><trkpt lat="43.405274583669126" lon="-0.6251581271609116"><ele>96.0</ele><time>2026-05-03T09:33:31Z</time></trkpt><trkpt lat="43.40534999919175" lon="-0.6251807559746806"><ele>96.0</ele><time>2026-05-03T09:33:32Z</time></trkpt><trkpt lat="43.40542974298927" lon="-0.6251940511553852"><ele>96.0</ele><time>2026-05-03T09:33:33Z</time></trkpt><trkpt lat="43.40550671172007" lon="-0.625202701243934"><ele>96.0</ele><time>2026-05-03T09:33:34Z</time></trkpt><trkpt lat="43.40558754514532" lon="-0.6252019341527612"><ele>96.0</ele><time>2026-05-03T09:33:35Z</time></trkpt><trkpt lat="43.405665460650205" lon="-0.6251947894347966"><ele>96.0</ele><time>2026-05-03T09:33:36Z</time></trkpt><trkpt lat="43.40574360028075" lon="-0.6251743364836259"><ele>95.66666666666667</ele><time>2026-05-03T09:33:37Z</time></trkpt><trkpt lat="43.405821318619275" lon="-0.6251425690498886"><ele>95.33333333333333</ele><time>2026-05-03T09:33:38Z</time></trkpt><trkpt lat="43.40589564013869" lon="-0.6251106113312327"><ele>95.0</ele><time>2026-05-03T09:33:39Z</time></trkpt><trkpt lat="43.40596617878335" lon="-0.6250660412934788"><ele>94.66666666666666</ele><time>2026-05-03T09:33:40Z</time></trkpt><trkpt lat="43.40603130025023" lon="-0.6250064627500904"><ele>94.33333333333333</ele><time>2026-05-03T09:33:41Z</time></trkpt><trkpt lat="43.40609567503578" lon="-0.6249453900691099"><ele>94.0</ele><time>2026-05-03T09:33:42Z</time></trkpt><trkpt lat="43.40615650521823" lon="-0.6248807835425542"><ele>94.0</ele><time>2026-05-03T09:33:43Z</time></trkpt><trkpt lat="43.406213054819226" lon="-0.6248095387207653"><ele>94.0</ele><time>2026-05-03T09:33:44Z</time></trkpt><trkpt lat="43.40626318232063" lon="-0.6247314147509497"><ele>94.0</ele><time>2026-05-03T09:33:45Z</time></trkpt><trkpt lat="43.40631251662489" lon="-0.6246506851897009"><ele>94.0</ele><time>2026-05-03T09:33:46Z</time></trkpt><trkpt lat="43.406360208784506" lon="-0.6245684934098501"><ele>94.0</ele><time>2026-05-03T09:33:47Z</time></trkpt><trkpt lat="43.406405557737706" lon="-0.6244884981309694"><ele>94.0</ele><time>2026-05-03T09:33:48Z</time></trkpt><trkpt lat="43.40645075180638" lon="-0.6244021368233854"><ele>94.33333333333333</ele><time>2026-05-03T09:33:49Z</time></trkpt><trkpt lat="43.406498502025634" lon="-0.6243219268844528"><ele>94.66666666666666</ele><time>2026-05-03T09:33:50Z</time></trkpt><trkpt lat="43.406543364557" lon="-0.6242390923252926"><ele>95.0</ele><time>2026-05-03T09:33:51Z</time></trkpt><trkpt lat="43.40659017951399" lon="-0.6241628158922979"><ele>95.33333333333333</ele><time>2026-05-03T09:33:52Z</time></trkpt><trkpt lat="43.40662961830548" lon="-0.6240736072455083"><ele>95.66666666666667</ele><time>2026-05-03T09:33:53Z</time></trkpt><trkpt lat="43.40667665253632" lon="-0.6239894062554313"><ele>96.0</ele><time>2026-05-03T09:33:54Z</time></trkpt><trkpt lat="43.4067195499621" lon="-0.6239008429982152"><ele>95.99999999999999</ele><time>2026-05-03T09:33:55Z</time></trkpt><trkpt lat="43.40676144984342" lon="-0.6238193213392806"><ele>96.0</ele><time>2026-05-03T09:33:56Z</time></trkpt><trkpt lat="43.40680632273859" lon="-0.6237313088605277"><ele>96.0</ele><time>2026-05-03T09:33:57Z</time></trkpt><trkpt lat="43.40685104400409" lon="-0.623648222680367"><ele>96.0</ele><time>2026-05-03T09:33:58Z</time></trkpt><trkpt lat="43.40690233901192" lon="-0.6235674052794161"><ele>96.0</ele><time>2026-05-03T09:33:59Z</time></trkpt><trkpt lat="43.406943822493275" lon="-0.6234868152858071"><ele>95.99999999999999</ele><time>2026-05-03T09:34:00Z</time></trkpt><trkpt lat="43.406990030056605" lon="-0.6234139287942517"><ele>96.0</ele><time>2026-05-03T09:34:01Z</time></trkpt><trkpt lat="43.40703388463963" lon="-0.6233320673465308"><ele>95.99999999999999</ele><time>2026-05-03T09:34:02Z</time></trkpt><trkpt lat="43.40707638276424" lon="-0.6232536402108675"><ele>96.0</ele><time>2026-05-03T09:34:03Z</time></trkpt><trkpt lat="43.4071153026259" lon="-0.623178691126704"><ele>96.0</ele><time>2026-05-03T09:34:04Z</time></trkpt><trkpt lat="43.4071588573787" lon="-0.6230985948514506"><ele>96.0</ele><time>2026-05-03T09:34:05Z</time></trkpt><trkpt lat="43.40719937483249" lon="-0.623029372428886"><ele>96.0</ele><time>2026-05-03T09:34:06Z</time></trkpt><trkpt lat="43.407241664596945" lon="-0.6229585384825836"><ele>95.99999999999999</ele><time>2026-05-03T09:34:07Z</time></trkpt><trkpt lat="43.4072823150519" lon="-0.6228880704708148"><ele>96.0</ele><time>2026-05-03T09:34:08Z</time></trkpt><trkpt lat="43.40731891446134" lon="-0.622812017765747"><ele>95.85714285714285</ele><time>2026-05-03T09:34:09Z</time></trkpt><trkpt lat="43.407361043966695" lon="-0.622731370890181"><ele>95.71428571428571</ele><time>2026-05-03T09:34:10Z</time></trkpt><trkpt lat="43.407400290535605" lon="-0.6226601592205753"><ele>95.57142857142857</ele><time>2026-05-03T09:34:11Z</time></trkpt><trkpt lat="43.40744306991064" lon="-0.6225903507653466"><ele>95.42857142857142</ele><time>2026-05-03T09:34:12Z</time></trkpt><trkpt lat="43.407488851917485" lon="-0.6225220350357539"><ele>95.28571428571429</ele><time>2026-05-03T09:34:13Z</time></trkpt><trkpt lat="43.407533846116195" lon="-0.6224516297061937"><ele>95.14285714285714</ele><time>2026-05-03T09:34:14Z</time></trkpt><trkpt lat="43.407579883859334" lon="-0.6223862397762887"><ele>95.0</ele><time>2026-05-03T09:34:15Z</time></trkpt><trkpt lat="43.40762803549603" lon="-0.6223271866837436"><ele>95.0</ele><time>2026-05-03T09:34:16Z</time></trkpt><trkpt lat="43.40767589765352" lon="-0.6222647951745165"><ele>95.0</ele><time>2026-05-03T09:34:17Z</time></trkpt><trkpt lat="43.407727012628285" lon="-0.6222044576965635"><ele>95.0</ele><time>2026-05-03T09:34:18Z</time></trkpt><trkpt lat="43.407777100224884" lon="-0.622144996445465"><ele>95.0</ele><time>2026-05-03T09:34:19Z</time></trkpt><trkpt lat="43.40783039588549" lon="-0.6220906327538249"><ele>95.0</ele><time>2026-05-03T09:34:20Z</time></trkpt><trkpt lat="43.407889994442684" lon="-0.6220211764310569"><ele>95.0</ele><time>2026-05-03T09:34:21Z</time></trkpt><trkpt lat="43.407992922090536" lon="-0.6219338063073736"><ele>95.33333333333334</ele><time>2026-05-03T09:34:23Z</time></trkpt><trkpt lat="43.40804622519248" lon="-0.6218876882712108"><ele>95.66666666666667</ele><time>2026-05-03T09:34:24Z</time></trkpt><trkpt lat="43.40815289591852" lon="-0.6217981936074888"><ele>96.0</ele><time>2026-05-03T09:34:26Z</time></trkpt><trkpt lat="43.40821119678917" lon="-0.6217594877966572"><ele>96.33333333333334</ele><time>2026-05-03T09:34:27Z</time></trkpt><trkpt lat="43.40826792280453" lon="-0.6217211210282011"><ele>96.66666666666667</ele><time>2026-05-03T09:34:28Z</time></trkpt><trkpt lat="43.408379124112024" lon="-0.6216514190464295"><ele>97.0</ele><time>2026-05-03T09:34:30Z</time></trkpt><trkpt lat="43.408491065488256" lon="-0.6215961699404196"><ele>97.0</ele><time>2026-05-03T09:34:32Z</time></trkpt><trkpt lat="43.40860191405275" lon="-0.6215503452703444"><ele>97.0</ele><time>2026-05-03T09:34:34.001Z</time></trkpt><trkpt lat="43.408708162289" lon="-0.6215072517083703"><ele>97.0</ele><time>2026-05-03T09:34:36Z</time></trkpt><trkpt lat="43.40880714753712" lon="-0.6214757528274306"><ele>97.0</ele><time>2026-05-03T09:34:38Z</time></trkpt><trkpt lat="43.408908460659276" lon="-0.621449680019841"><ele>97.0</ele><time>2026-05-03T09:34:40Z</time></trkpt><trkpt lat="43.40900156884189" lon="-0.6214364798837967"><ele>97.19999999999999</ele><time>2026-05-03T09:34:42Z</time></trkpt><trkpt lat="43.409094794228565" lon="-0.6214222347542758"><ele>97.4</ele><time>2026-05-03T09:34:44Z</time></trkpt><trkpt lat="43.40918858054024" lon="-0.6214215062713079"><ele>97.6</ele><time>2026-05-03T09:34:46Z</time></trkpt><trkpt lat="43.409278994258926" lon="-0.6214259258592754"><ele>97.80000000000001</ele><time>2026-05-03T09:34:48Z</time></trkpt><trkpt lat="43.409377048776065" lon="-0.6214257115709471"><ele>98.0</ele><time>2026-05-03T09:34:50Z</time></trkpt><trkpt lat="43.40947541210922" lon="-0.6214322409573947"><ele>98.0</ele><time>2026-05-03T09:34:52Z</time></trkpt><trkpt lat="43.40957209989298" lon="-0.6214632359238724"><ele>98.0</ele><time>2026-05-03T09:34:54Z</time></trkpt><trkpt lat="43.40966885833708" lon="-0.6214859026781653"><ele>98.0</ele><time>2026-05-03T09:34:56Z</time></trkpt><trkpt lat="43.40977064523781" lon="-0.6215144753089954"><ele>98.0</ele><time>2026-05-03T09:34:58Z</time></trkpt><trkpt lat="43.40986921309674" lon="-0.6215606260402595"><ele>98.0</ele><time>2026-05-03T09:35:00Z</time></trkpt><trkpt lat="43.4099311379559" lon="-0.6215806579382711"><ele>98.16666666666666</ele><time>2026-05-03T09:35:01Z</time></trkpt><trkpt lat="43.410043823741425" lon="-0.6216353598501824"><ele>98.33333333333333</ele><time>2026-05-03T09:35:03Z</time></trkpt><trkpt lat="43.41010549976756" lon="-0.6216691492940422"><ele>98.5</ele><time>2026-05-03T09:35:04Z</time></trkpt><trkpt lat="43.41016624928705" lon="-0.62170344399143"><ele>98.66666666666666</ele><time>2026-05-03T09:35:05Z</time></trkpt><trkpt lat="43.41028288311009" lon="-0.6217656267810494"><ele>98.83333333333333</ele><time>2026-05-03T09:35:07Z</time></trkpt><trkpt lat="43.41034156227917" lon="-0.6218027951050709"><ele>99.0</ele><time>2026-05-03T09:35:08Z</time></trkpt><trkpt lat="43.410452741426184" lon="-0.6218741306671863"><ele>99.0</ele><time>2026-05-03T09:35:10Z</time></trkpt><trkpt lat="43.41050802669097" lon="-0.6219180245866368"><ele>99.0</ele><time>2026-05-03T09:35:11Z</time></trkpt><trkpt lat="43.410561309951795" lon="-0.6219718433905423"><ele>99.0</ele><time>2026-05-03T09:35:12Z</time></trkpt><trkpt lat="43.41061127736046" lon="-0.6220302493721259"><ele>99.0</ele><time>2026-05-03T09:35:13Z</time></trkpt><trkpt lat="43.410660043772275" lon="-0.6220944667874282"><ele>99.0</ele><time>2026-05-03T09:35:14Z</time></trkpt><trkpt lat="43.41070966927681" lon="-0.6221661795239077"><ele>99.0</ele><time>2026-05-03T09:35:15Z</time></trkpt><trkpt lat="43.4107601949836" lon="-0.6222361561723887"><ele>99.0</ele><time>2026-05-03T09:35:16Z</time></trkpt><trkpt lat="43.41081073109119" lon="-0.6223097499906483"><ele>99.0</ele><time>2026-05-03T09:35:17Z</time></trkpt><trkpt lat="43.41085667601391" lon="-0.6223870712323777"><ele>99.0</ele><time>2026-05-03T09:35:18Z</time></trkpt><trkpt lat="43.41090368305269" lon="-0.6224692517632203"><ele>99.0</ele><time>2026-05-03T09:35:19Z</time></trkpt><trkpt lat="43.410949449976066" lon="-0.6225606250644576"><ele>99.0</ele><time>2026-05-03T09:35:20Z</time></trkpt><trkpt lat="43.41099589863218" lon="-0.6226490282185795"><ele>99.0</ele><time>2026-05-03T09:35:21Z</time></trkpt><trkpt lat="43.411041435201824" lon="-0.6227395159868712"><ele>99.0</ele><time>2026-05-03T09:35:22Z</time></trkpt><trkpt lat="43.41109005957356" lon="-0.622829456994773"><ele>98.66666666666667</ele><time>2026-05-03T09:35:23Z</time></trkpt><trkpt lat="43.41113950859466" lon="-0.6229262304222201"><ele>98.33333333333334</ele><time>2026-05-03T09:35:24Z</time></trkpt><trkpt lat="43.41118404013015" lon="-0.6230128748569403"><ele>98.0</ele><time>2026-05-03T09:35:25Z</time></trkpt><trkpt lat="43.41123883978837" lon="-0.6231073733314244"><ele>97.66666666666667</ele><time>2026-05-03T09:35:26Z</time></trkpt><trkpt lat="43.41128178205052" lon="-0.6232082481350474"><ele>97.33333333333334</ele><time>2026-05-03T09:35:27Z</time></trkpt><trkpt lat="43.411325794586006" lon="-0.6233193946422355"><ele>97.0</ele><time>2026-05-03T09:35:28Z</time></trkpt><trkpt lat="43.41136183999115" lon="-0.6234200495422825"><ele>97.16666666666667</ele><time>2026-05-03T09:35:29Z</time></trkpt><trkpt lat="43.41140501576307" lon="-0.6235190834654558"><ele>97.33333333333334</ele><time>2026-05-03T09:35:30Z</time></trkpt><trkpt lat="43.4114467328874" lon="-0.6236176195420615"><ele>97.5</ele><time>2026-05-03T09:35:31Z</time></trkpt><trkpt lat="43.411492886798186" lon="-0.6237157490078756"><ele>97.66666666666666</ele><time>2026-05-03T09:35:32Z</time></trkpt><trkpt lat="43.411538506276734" lon="-0.6238087597724659"><ele>97.83333333333333</ele><time>2026-05-03T09:35:33Z</time></trkpt><trkpt lat="43.41158286674008" lon="-0.6239071060898037"><ele>98.0</ele><time>2026-05-03T09:35:34Z</time></trkpt><trkpt lat="43.41162638433946" lon="-0.6240050989023626"><ele>97.99999999999999</ele><time>2026-05-03T09:35:35Z</time></trkpt><trkpt lat="43.41166674984837" lon="-0.6241006741491638"><ele>98.0</ele><time>2026-05-03T09:35:36Z</time></trkpt><trkpt lat="43.41170308849317" lon="-0.6241964019958699"><ele>98.0</ele><time>2026-05-03T09:35:37Z</time></trkpt><trkpt lat="43.41174019107561" lon="-0.6242964406859918"><ele>98.0</ele><time>2026-05-03T09:35:38Z</time></trkpt><trkpt lat="43.41178218284954" lon="-0.6243895783262612"><ele>97.99999999999999</ele><time>2026-05-03T09:35:39Z</time></trkpt><trkpt lat="43.411821905565006" lon="-0.6244895477428739"><ele>98.0</ele><time>2026-05-03T09:35:40Z</time></trkpt><trkpt lat="43.41186844136058" lon="-0.6245793572012448"><ele>97.83333333333333</ele><time>2026-05-03T09:35:41Z</time></trkpt><trkpt lat="43.411906060036" lon="-0.6246810161264827"><ele>97.66666666666666</ele><time>2026-05-03T09:35:42Z</time></trkpt><trkpt lat="43.411955643834695" lon="-0.6247781490188089"><ele>97.5</ele><time>2026-05-03T09:35:43Z</time></trkpt><trkpt lat="43.411994203458846" lon="-0.6248643219719188"><ele>97.33333333333334</ele><time>2026-05-03T09:35:44Z</time></trkpt><trkpt lat="43.412035161496036" lon="-0.6249585711730231"><ele>97.16666666666667</ele><time>2026-05-03T09:35:45Z</time></trkpt><trkpt lat="43.412075109553015" lon="-0.625054050893416"><ele>97.0</ele><time>2026-05-03T09:35:46Z</time></trkpt><trkpt lat="43.412110663649365" lon="-0.625154305790551"><ele>97.00000000000001</ele><time>2026-05-03T09:35:47Z</time></trkpt><trkpt lat="43.41214374012585" lon="-0.6252584722434279"><ele>97.0</ele><time>2026-05-03T09:35:48Z</time></trkpt><trkpt lat="43.41217634731101" lon="-0.6253620959632901"><ele>97.0</ele><time>2026-05-03T09:35:49Z</time></trkpt><trkpt lat="43.41220954749965" lon="-0.6254597632946762"><ele>97.0</ele><time>2026-05-03T09:35:50Z</time></trkpt><trkpt lat="43.41224374273579" lon="-0.6255576573777276"><ele>97.00000000000001</ele><time>2026-05-03T09:35:51Z</time></trkpt><trkpt lat="43.412275763152316" lon="-0.6256542231370792"><ele>97.0</ele><time>2026-05-03T09:35:52Z</time></trkpt><trkpt lat="43.41231730637836" lon="-0.6257554985513297"><ele>97.71428571428571</ele><time>2026-05-03T09:35:53Z</time></trkpt><trkpt lat="43.41234164561499" lon="-0.6258515663904625"><ele>98.42857142857143</ele><time>2026-05-03T09:35:54Z</time></trkpt><trkpt lat="43.41237646822032" lon="-0.6259473511907863"><ele>99.14285714285714</ele><time>2026-05-03T09:35:55Z</time></trkpt><trkpt lat="43.41241213042593" lon="-0.6260399876655063"><ele>99.85714285714286</ele><time>2026-05-03T09:35:56Z</time></trkpt><trkpt lat="43.412443146764204" lon="-0.6261313891187972"><ele>100.57142857142858</ele><time>2026-05-03T09:35:57Z</time></trkpt><trkpt lat="43.412475264032885" lon="-0.6262258525519379"><ele>101.28571428571429</ele><time>2026-05-03T09:35:58Z</time></trkpt><trkpt lat="43.412514098250604" lon="-0.6263088562823886"><ele>102.0</ele><time>2026-05-03T09:35:59Z</time></trkpt><trkpt lat="43.412546558429774" lon="-0.6264037495890257"><ele>102.0</ele><time>2026-05-03T09:36:00Z</time></trkpt><trkpt lat="43.412577763323874" lon="-0.6264952687362543"><ele>102.0</ele><time>2026-05-03T09:36:01Z</time></trkpt><trkpt lat="43.41261364342243" lon="-0.6265844171590234"><ele>102.0</ele><time>2026-05-03T09:36:02Z</time></trkpt><trkpt lat="43.4126511008818" lon="-0.6266752205915838"><ele>102.0</ele><time>2026-05-03T09:36:03Z</time></trkpt><trkpt lat="43.412688446154" lon="-0.626764462201344"><ele>102.0</ele><time>2026-05-03T09:36:04Z</time></trkpt><trkpt lat="43.41272700733856" lon="-0.6268555398709733"><ele>102.0</ele><time>2026-05-03T09:36:05Z</time></trkpt><trkpt lat="43.412770990948204" lon="-0.6269385038752269"><ele>102.0</ele><time>2026-05-03T09:36:06Z</time></trkpt><trkpt lat="43.41282712910967" lon="-0.6270082587210781"><ele>101.16666666666667</ele><time>2026-05-03T09:36:07Z</time></trkpt><trkpt lat="43.41288437760755" lon="-0.6270795932116426"><ele>100.33333333333334</ele><time>2026-05-03T09:36:08Z</time></trkpt><trkpt lat="43.41294964222828" lon="-0.6271354022468947"><ele>99.5</ele><time>2026-05-03T09:36:09Z</time></trkpt><trkpt lat="43.413020927053374" lon="-0.6271805662899277"><ele>98.66666666666667</ele><time>2026-05-03T09:36:10Z</time></trkpt><trkpt lat="43.41309469842937" lon="-0.6272209700220187"><ele>97.83333333333334</ele><time>2026-05-03T09:36:11Z</time></trkpt><trkpt lat="43.41316936415795" lon="-0.6272419291627171"><ele>97.0</ele><time>2026-05-03T09:36:12Z</time></trkpt><trkpt lat="43.41324563412189" lon="-0.6272612993641012"><ele>97.0</ele><time>2026-05-03T09:36:13Z</time></trkpt><trkpt lat="43.41332183001625" lon="-0.6272669471529829"><ele>97.0</ele><time>2026-05-03T09:36:14Z</time></trkpt><trkpt lat="43.413398292373174" lon="-0.6272556947401382"><ele>97.0</ele><time>2026-05-03T09:36:15Z</time></trkpt><trkpt lat="43.41346977646599" lon="-0.6272431754868222"><ele>97.0</ele><time>2026-05-03T09:36:16Z</time></trkpt><trkpt lat="43.41354279149621" lon="-0.6272161878817079"><ele>97.0</ele><time>2026-05-03T09:36:17Z</time></trkpt><trkpt lat="43.41360691648579" lon="-0.627181100799545"><ele>97.0</ele><time>2026-05-03T09:36:18Z</time></trkpt><trkpt lat="43.41367605184823" lon="-0.627130759952098"><ele>97.0</ele><time>2026-05-03T09:36:19Z</time></trkpt><trkpt lat="43.41374640503916" lon="-0.6270850683965095"><ele>97.0</ele><time>2026-05-03T09:36:20Z</time></trkpt><trkpt lat="43.41381125262132" lon="-0.6270383467290971"><ele>97.0</ele><time>2026-05-03T09:36:21Z</time></trkpt><trkpt lat="43.413881775747086" lon="-0.6270004117457904"><ele>97.0</ele><time>2026-05-03T09:36:22Z</time></trkpt><trkpt lat="43.413945722355265" lon="-0.6269577496362014"><ele>97.0</ele><time>2026-05-03T09:36:23Z</time></trkpt><trkpt lat="43.41401329898964" lon="-0.6269208630840261"><ele>97.0</ele><time>2026-05-03T09:36:24Z</time></trkpt><trkpt lat="43.41408148832848" lon="-0.6268963477294281"><ele>97.0</ele><time>2026-05-03T09:36:25Z</time></trkpt><trkpt lat="43.41415208415878" lon="-0.6268856525848636"><ele>97.0</ele><time>2026-05-03T09:36:26Z</time></trkpt><trkpt lat="43.41422009994376" lon="-0.6268849188480771"><ele>97.00000000000001</ele><time>2026-05-03T09:36:27Z</time></trkpt><trkpt lat="43.41428768291369" lon="-0.6269051465355684"><ele>97.0</ele><time>2026-05-03T09:36:28Z</time></trkpt><trkpt lat="43.414351024708346" lon="-0.6269392666380252"><ele>97.0</ele><time>2026-05-03T09:36:29Z</time></trkpt><trkpt lat="43.4144118394381" lon="-0.6269745560290702"><ele>97.0</ele><time>2026-05-03T09:36:30Z</time></trkpt><trkpt lat="43.41453362009287" lon="-0.6269912078930291"><ele>97.00000000000001</ele><time>2026-05-03T09:36:32Z</time></trkpt><trkpt lat="43.41460661147795" lon="-0.6269975555541465"><ele>97.0</ele><time>2026-05-03T09:36:33Z</time></trkpt><trkpt lat="43.41468012179405" lon="-0.6268806337022136"><ele>97.33333333333334</ele><time>2026-05-03T09:36:35Z</time></trkpt><trkpt lat="43.41474898983684" lon="-0.6267469905253875"><ele>97.66666666666667</ele><time>2026-05-03T09:36:37Z</time></trkpt><trkpt lat="43.41483992772846" lon="-0.6266531280743434"><ele>98.0</ele><time>2026-05-03T09:36:39Z</time></trkpt><trkpt lat="43.414904833134734" lon="-0.6266352034690276"><ele>98.33333333333334</ele><time>2026-05-03T09:36:40Z</time></trkpt><trkpt lat="43.4149711679484" lon="-0.6266529365494274"><ele>98.66666666666667</ele><time>2026-05-03T09:36:41Z</time></trkpt><trkpt lat="43.41503241328259" lon="-0.6267025446932974"><ele>99.0</ele><time>2026-05-03T09:36:42Z</time></trkpt><trkpt lat="43.41508059043326" lon="-0.6267726326918905"><ele>99.0</ele><time>2026-05-03T09:36:43Z</time></trkpt><trkpt lat="43.415118662218184" lon="-0.6268554848922938"><ele>99.0</ele><time>2026-05-03T09:36:44Z</time></trkpt><trkpt lat="43.41513531650447" lon="-0.6269519713801751"><ele>99.0</ele><time>2026-05-03T09:36:45Z</time></trkpt><trkpt lat="43.415137559169" lon="-0.6271655892346094"><ele>99.0</ele><time>2026-05-03T09:36:47Z</time></trkpt><trkpt lat="43.41512487422449" lon="-0.627262187266185"><ele>99.0</ele><time>2026-05-03T09:36:48Z</time></trkpt><trkpt lat="43.41511758573141" lon="-0.6273700178074352"><ele>99.0</ele><time>2026-05-03T09:36:49Z</time></trkpt><trkpt lat="43.41512747876075" lon="-0.6274774486508945"><ele>98.66666666666667</ele><time>2026-05-03T09:36:50Z</time></trkpt><trkpt lat="43.41514905489111" lon="-0.6275832899138295"><ele>98.33333333333334</ele><time>2026-05-03T09:36:51Z</time></trkpt><trkpt lat="43.415177054863754" lon="-0.6276937583297698"><ele>98.0</ele><time>2026-05-03T09:36:52Z</time></trkpt><trkpt lat="43.41519965994578" lon="-0.6278031795366817"><ele>97.66666666666667</ele><time>2026-05-03T09:36:53Z</time></trkpt><trkpt lat="43.41522072829728" lon="-0.6279066500250096"><ele>97.33333333333334</ele><time>2026-05-03T09:36:54Z</time></trkpt><trkpt lat="43.415242241292745" lon="-0.628017172646133"><ele>97.0</ele><time>2026-05-03T09:36:55Z</time></trkpt><trkpt lat="43.415261912472175" lon="-0.6281239770057739"><ele>96.83333333333334</ele><time>2026-05-03T09:36:56Z</time></trkpt><trkpt lat="43.4152855451626" lon="-0.6282279854454245"><ele>96.66666666666667</ele><time>2026-05-03T09:36:57Z</time></trkpt><trkpt lat="43.415309010113006" lon="-0.6283344887964583"><ele>96.5</ele><time>2026-05-03T09:36:58Z</time></trkpt><trkpt lat="43.41532852243556" lon="-0.6284372576373667"><ele>96.33333333333334</ele><time>2026-05-03T09:36:59Z</time></trkpt><trkpt lat="43.41534949240403" lon="-0.6285442116993575"><ele>96.16666666666667</ele><time>2026-05-03T09:37:00Z</time></trkpt><trkpt lat="43.41537166652753" lon="-0.628645076070893"><ele>96.0</ele><time>2026-05-03T09:37:01Z</time></trkpt><trkpt lat="43.4153932270243" lon="-0.6287514214698698"><ele>96.0</ele><time>2026-05-03T09:37:02Z</time></trkpt><trkpt lat="43.41541373347153" lon="-0.6288589842809997"><ele>96.0</ele><time>2026-05-03T09:37:03Z</time></trkpt><trkpt lat="43.41543699483346" lon="-0.6289613687039873"><ele>96.0</ele><time>2026-05-03T09:37:04Z</time></trkpt><trkpt lat="43.41545944936701" lon="-0.6290631093883386"><ele>96.0</ele><time>2026-05-03T09:37:05Z</time></trkpt><trkpt lat="43.415483587673485" lon="-0.6291685759898901"><ele>96.0</ele><time>2026-05-03T09:37:06Z</time></trkpt><trkpt lat="43.415509075685506" lon="-0.6292693842666669"><ele>96.0</ele><time>2026-05-03T09:37:07Z</time></trkpt><trkpt lat="43.415537430883695" lon="-0.629370931191347"><ele>96.0</ele><time>2026-05-03T09:37:08Z</time></trkpt><trkpt lat="43.41556332502457" lon="-0.6294726554881725"><ele>96.0</ele><time>2026-05-03T09:37:09Z</time></trkpt><trkpt lat="43.41558873528985" lon="-0.6295778298711272"><ele>96.0</ele><time>2026-05-03T09:37:10Z</time></trkpt><trkpt lat="43.41561583989669" lon="-0.6296810801110359"><ele>96.0</ele><time>2026-05-03T09:37:11Z</time></trkpt><trkpt lat="43.415641752523555" lon="-0.6297853345833977"><ele>96.0</ele><time>2026-05-03T09:37:12Z</time></trkpt><trkpt lat="43.415666004066416" lon="-0.629885216855169"><ele>96.0</ele><time>2026-05-03T09:37:13Z</time></trkpt><trkpt lat="43.415688485855675" lon="-0.6299921074462823"><ele>96.0</ele><time>2026-05-03T09:37:14Z</time></trkpt><trkpt lat="43.41571750653538" lon="-0.6300930087158217"><ele>96.0</ele><time>2026-05-03T09:37:15Z</time></trkpt><trkpt lat="43.41574237109394" lon="-0.6301991371714525"><ele>96.0</ele><time>2026-05-03T09:37:16Z</time></trkpt><trkpt lat="43.4157665888757" lon="-0.6303059343825584"><ele>96.0</ele><time>2026-05-03T09:37:17Z</time></trkpt><trkpt lat="43.41579558310703" lon="-0.630408561253346"><ele>96.0</ele><time>2026-05-03T09:37:18Z</time></trkpt><trkpt lat="43.41582271112939" lon="-0.6305129681602705"><ele>96.0</ele><time>2026-05-03T09:37:19Z</time></trkpt><trkpt lat="43.4158468083505" lon="-0.6306157704832223"><ele>96.0</ele><time>2026-05-03T09:37:20Z</time></trkpt><trkpt lat="43.41587132381813" lon="-0.6307176529902674"><ele>96.0</ele><time>2026-05-03T09:37:21Z</time></trkpt><trkpt lat="43.415896202820235" lon="-0.6308213990208478"><ele>96.0</ele><time>2026-05-03T09:37:22Z</time></trkpt><trkpt lat="43.415924145016085" lon="-0.6309283621992793"><ele>96.0</ele><time>2026-05-03T09:37:23Z</time></trkpt><trkpt lat="43.41595031177812" lon="-0.6310325992494714"><ele>96.0</ele><time>2026-05-03T09:37:24Z</time></trkpt><trkpt lat="43.41597266248056" lon="-0.6311553230349191"><ele>96.0</ele><time>2026-05-03T09:37:25Z</time></trkpt><trkpt lat="43.41600064132796" lon="-0.6312499864969227"><ele>95.66666666666667</ele><time>2026-05-03T09:37:26Z</time></trkpt><trkpt lat="43.41602734889246" lon="-0.6313571436930455"><ele>95.33333333333333</ele><time>2026-05-03T09:37:27Z</time></trkpt><trkpt lat="43.416055419574995" lon="-0.631459511992464"><ele>95.0</ele><time>2026-05-03T09:37:28Z</time></trkpt><trkpt lat="43.41607781408221" lon="-0.6315679918066247"><ele>94.66666666666666</ele><time>2026-05-03T09:37:29Z</time></trkpt><trkpt lat="43.416102121115266" lon="-0.63167654505679"><ele>94.33333333333333</ele><time>2026-05-03T09:37:30Z</time></trkpt><trkpt lat="43.416125238264804" lon="-0.6317792179282701"><ele>94.0</ele><time>2026-05-03T09:37:31Z</time></trkpt><trkpt lat="43.41615358052723" lon="-0.6318810873686495"><ele>94.0</ele><time>2026-05-03T09:37:32Z</time></trkpt><trkpt lat="43.41617997456325" lon="-0.6319866316570689"><ele>94.0</ele><time>2026-05-03T09:37:33Z</time></trkpt><trkpt lat="43.416202432041146" lon="-0.632087490867024"><ele>94.0</ele><time>2026-05-03T09:37:34Z</time></trkpt><trkpt lat="43.41622605604322" lon="-0.6321921197157764"><ele>94.0</ele><time>2026-05-03T09:37:35Z</time></trkpt><trkpt lat="43.41625127071206" lon="-0.632293541039103"><ele>94.0</ele><time>2026-05-03T09:37:36Z</time></trkpt><trkpt lat="43.416275875963315" lon="-0.6323934046528382"><ele>94.0</ele><time>2026-05-03T09:37:37Z</time></trkpt><trkpt lat="43.416300089846665" lon="-0.632495746750185"><ele>94.16666666666666</ele><time>2026-05-03T09:37:38Z</time></trkpt><trkpt lat="43.41632618500549" lon="-0.6325987937752943"><ele>94.33333333333333</ele><time>2026-05-03T09:37:39Z</time></trkpt><trkpt lat="43.41635163316825" lon="-0.6327007399063609"><ele>94.5</ele><time>2026-05-03T09:37:40Z</time></trkpt><trkpt lat="43.41637473267758" lon="-0.6328020579411422"><ele>94.66666666666667</ele><time>2026-05-03T09:37:41Z</time></trkpt><trkpt lat="43.41639947659655" lon="-0.6329035828919812"><ele>94.83333333333334</ele><time>2026-05-03T09:37:42Z</time></trkpt><trkpt lat="43.4164243263224" lon="-0.6330067591035622"><ele>95.0</ele><time>2026-05-03T09:37:43Z</time></trkpt><trkpt lat="43.416452041214605" lon="-0.6331119383097478"><ele>95.16666666666667</ele><time>2026-05-03T09:37:44Z</time></trkpt><trkpt lat="43.41647887239745" lon="-0.6332190458854947"><ele>95.33333333333334</ele><time>2026-05-03T09:37:45Z</time></trkpt><trkpt lat="43.416504565575295" lon="-0.6333218326522221"><ele>95.5</ele><time>2026-05-03T09:37:46Z</time></trkpt><trkpt lat="43.41652847220598" lon="-0.6334224037538012"><ele>95.66666666666667</ele><time>2026-05-03T09:37:47Z</time></trkpt><trkpt lat="43.416552182295185" lon="-0.6335247654554961"><ele>95.83333333333333</ele><time>2026-05-03T09:37:48Z</time></trkpt><trkpt lat="43.41657812248567" lon="-0.633627920608311"><ele>96.0</ele><time>2026-05-03T09:37:49Z</time></trkpt><trkpt lat="43.416604428384495" lon="-0.6337287459356603"><ele>96.0</ele><time>2026-05-03T09:37:50Z</time></trkpt><trkpt lat="43.41662899168193" lon="-0.633831606904603"><ele>96.0</ele><time>2026-05-03T09:37:51Z</time></trkpt><trkpt lat="43.416654378652446" lon="-0.6339327914778213"><ele>96.0</ele><time>2026-05-03T09:37:52Z</time></trkpt><trkpt lat="43.41668294923379" lon="-0.6340328904344924"><ele>96.0</ele><time>2026-05-03T09:37:53Z</time></trkpt><trkpt lat="43.41671263014957" lon="-0.6341347946906404"><ele>96.0</ele><time>2026-05-03T09:37:54Z</time></trkpt><trkpt lat="43.41673848060002" lon="-0.6342343757987199"><ele>96.0</ele><time>2026-05-03T09:37:55Z</time></trkpt><trkpt lat="43.416760636379465" lon="-0.634339197541637"><ele>96.0</ele><time>2026-05-03T09:37:56Z</time></trkpt><trkpt lat="43.416773208443644" lon="-0.6344270633125287"><ele>96.0</ele><time>2026-05-03T09:37:57Z</time></trkpt><trkpt lat="43.416813295430984" lon="-0.6345416432220912"><ele>96.0</ele><time>2026-05-03T09:37:58Z</time></trkpt><trkpt lat="43.416840334456204" lon="-0.6346490213735723"><ele>96.0</ele><time>2026-05-03T09:37:59Z</time></trkpt><trkpt lat="43.41686417813615" lon="-0.6347548593235732"><ele>96.0</ele><time>2026-05-03T09:38:00Z</time></trkpt><trkpt lat="43.4168917180916" lon="-0.6348576775933523"><ele>96.0</ele><time>2026-05-03T09:38:01Z</time></trkpt><trkpt lat="43.416916140222405" lon="-0.634966697513804"><ele>96.0</ele><time>2026-05-03T09:38:02Z</time></trkpt><trkpt lat="43.416943537259364" lon="-0.6350679066916602"><ele>96.0</ele><time>2026-05-03T09:38:03Z</time></trkpt><trkpt lat="43.41696983703203" lon="-0.6351770631126309"><ele>96.0</ele><time>2026-05-03T09:38:04Z</time></trkpt><trkpt lat="43.4169978392095" lon="-0.635278545694567"><ele>96.0</ele><time>2026-05-03T09:38:05Z</time></trkpt><trkpt lat="43.41702607742228" lon="-0.6353857471561363"><ele>96.0</ele><time>2026-05-03T09:38:06Z</time></trkpt><trkpt lat="43.4170514243967" lon="-0.635493612736277"><ele>96.0</ele><time>2026-05-03T09:38:07Z</time></trkpt><trkpt lat="43.41708253099384" lon="-0.635594786856986"><ele>95.83333333333333</ele><time>2026-05-03T09:38:08Z</time></trkpt><trkpt lat="43.41710829231312" lon="-0.6356983837953675"><ele>95.66666666666667</ele><time>2026-05-03T09:38:09Z</time></trkpt><trkpt lat="43.41713181356435" lon="-0.635801630259457"><ele>95.5</ele><time>2026-05-03T09:38:10Z</time></trkpt><trkpt lat="43.417157523141604" lon="-0.6359110838129232"><ele>95.33333333333334</ele><time>2026-05-03T09:38:11Z</time></trkpt><trkpt lat="43.41718272974189" lon="-0.6360153725998223"><ele>95.16666666666667</ele><time>2026-05-03T09:38:12Z</time></trkpt><trkpt lat="43.41720667122642" lon="-0.6361184026987535"><ele>95.0</ele><time>2026-05-03T09:38:13Z</time></trkpt><trkpt lat="43.41723379650175" lon="-0.636221720093611"><ele>95.0</ele><time>2026-05-03T09:38:14Z</time></trkpt><trkpt lat="43.41725873248685" lon="-0.6363270506827231"><ele>95.0</ele><time>2026-05-03T09:38:15Z</time></trkpt><trkpt lat="43.417285120301344" lon="-0.6364270292551633"><ele>95.0</ele><time>2026-05-03T09:38:16Z</time></trkpt><trkpt lat="43.41730926691739" lon="-0.6365289927557684"><ele>95.0</ele><time>2026-05-03T09:38:17Z</time></trkpt><trkpt lat="43.4173352561868" lon="-0.6366339923543466"><ele>95.0</ele><time>2026-05-03T09:38:18Z</time></trkpt><trkpt lat="43.41735943987599" lon="-0.6367405079659122"><ele>95.0</ele><time>2026-05-03T09:38:19Z</time></trkpt><trkpt lat="43.417386803219955" lon="-0.6368466616354924"><ele>95.0</ele><time>2026-05-03T09:38:20Z</time></trkpt><trkpt lat="43.417411084027016" lon="-0.6369515918279794"><ele>95.0</ele><time>2026-05-03T09:38:21Z</time></trkpt><trkpt lat="43.41743849097189" lon="-0.6370562825128752"><ele>95.0</ele><time>2026-05-03T09:38:22Z</time></trkpt><trkpt lat="43.417464510096636" lon="-0.6371592841826617"><ele>95.0</ele><time>2026-05-03T09:38:23Z</time></trkpt><trkpt lat="43.417487276702964" lon="-0.6372638636065677"><ele>95.0</ele><time>2026-05-03T09:38:24Z</time></trkpt><trkpt lat="43.41750739209367" lon="-0.6373681662726381"><ele>95.0</ele><time>2026-05-03T09:38:25Z</time></trkpt><trkpt lat="43.41753029218436" lon="-0.6374710468438647"><ele>94.66666666666667</ele><time>2026-05-03T09:38:26Z</time></trkpt><trkpt lat="43.417557363547" lon="-0.6375719309774773"><ele>94.33333333333334</ele><time>2026-05-03T09:38:27Z</time></trkpt><trkpt lat="43.417583781586025" lon="-0.6376739081527383"><ele>94.0</ele><time>2026-05-03T09:38:28Z</time></trkpt><trkpt lat="43.41760837063895" lon="-0.6377762754025875"><ele>93.66666666666667</ele><time>2026-05-03T09:38:29Z</time></trkpt><trkpt lat="43.417632942310874" lon="-0.6378752116474034"><ele>93.33333333333333</ele><time>2026-05-03T09:38:30Z</time></trkpt><trkpt lat="43.417655202755505" lon="-0.6379808102235457"><ele>93.0</ele><time>2026-05-03T09:38:31Z</time></trkpt><trkpt lat="43.41768252140971" lon="-0.6380794338954839"><ele>92.83333333333333</ele><time>2026-05-03T09:38:32Z</time></trkpt><trkpt lat="43.41770118440781" lon="-0.6381813258854172"><ele>92.66666666666667</ele><time>2026-05-03T09:38:33Z</time></trkpt><trkpt lat="43.41772379476632" lon="-0.6382861869315583"><ele>92.5</ele><time>2026-05-03T09:38:34Z</time></trkpt><trkpt lat="43.41774803556387" lon="-0.6383908351438692"><ele>92.33333333333334</ele><time>2026-05-03T09:38:35Z</time></trkpt><trkpt lat="43.417774587240686" lon="-0.6384889842767324"><ele>92.16666666666667</ele><time>2026-05-03T09:38:36Z</time></trkpt><trkpt lat="43.41780352454266" lon="-0.6385921077458343"><ele>92.0</ele><time>2026-05-03T09:38:37Z</time></trkpt><trkpt lat="43.417829928431516" lon="-0.6386933329692936"><ele>92.33333333333334</ele><time>2026-05-03T09:38:38Z</time></trkpt><trkpt lat="43.417856400336426" lon="-0.6387962327418717"><ele>92.66666666666667</ele><time>2026-05-03T09:38:39Z</time></trkpt><trkpt lat="43.41788236074588" lon="-0.6388994629122996"><ele>93.0</ele><time>2026-05-03T09:38:40Z</time></trkpt><trkpt lat="43.41790676820584" lon="-0.639002576040905"><ele>93.33333333333333</ele><time>2026-05-03T09:38:41Z</time></trkpt><trkpt lat="43.41793088685614" lon="-0.6391048413185956"><ele>93.66666666666666</ele><time>2026-05-03T09:38:42Z</time></trkpt><trkpt lat="43.4179583544296" lon="-0.6392109212972235"><ele>94.0</ele><time>2026-05-03T09:38:43Z</time></trkpt><trkpt lat="43.4179834320561" lon="-0.639310726734623"><ele>93.66666666666666</ele><time>2026-05-03T09:38:44Z</time></trkpt><trkpt lat="43.418008481423676" lon="-0.6394159518709309"><ele>93.33333333333333</ele><time>2026-05-03T09:38:45Z</time></trkpt><trkpt lat="43.418031807469" lon="-0.6395192213861127"><ele>93.0</ele><time>2026-05-03T09:38:46Z</time></trkpt><trkpt lat="43.41805601050573" lon="-0.639625384441366"><ele>92.66666666666667</ele><time>2026-05-03T09:38:47Z</time></trkpt><trkpt lat="43.41808058318779" lon="-0.6397304665011715"><ele>92.33333333333334</ele><time>2026-05-03T09:38:48Z</time></trkpt><trkpt lat="43.41810414690058" lon="-0.6398345070764206"><ele>92.0</ele><time>2026-05-03T09:38:49Z</time></trkpt><trkpt lat="43.418127108360615" lon="-0.6399389045173517"><ele>92.0</ele><time>2026-05-03T09:38:50Z</time></trkpt><trkpt lat="43.41815485407769" lon="-0.6400618678075871"><ele>92.0</ele><time>2026-05-03T09:38:51Z</time></trkpt><trkpt lat="43.41817637572925" lon="-0.6401486792861517"><ele>92.0</ele><time>2026-05-03T09:38:52Z</time></trkpt><trkpt lat="43.41819981426624" lon="-0.6402529527850364"><ele>92.0</ele><time>2026-05-03T09:38:53Z</time></trkpt><trkpt lat="43.4182241075918" lon="-0.6403582514512908"><ele>92.0</ele><time>2026-05-03T09:38:54Z</time></trkpt><trkpt lat="43.41825003448841" lon="-0.6404610267628117"><ele>92.0</ele><time>2026-05-03T09:38:55Z</time></trkpt><trkpt lat="43.41827438271447" lon="-0.6405622342462799"><ele>92.16666666666667</ele><time>2026-05-03T09:38:56Z</time></trkpt><trkpt lat="43.4182946879814" lon="-0.6406668890109632"><ele>92.33333333333334</ele><time>2026-05-03T09:38:57Z</time></trkpt><trkpt lat="43.41831929493836" lon="-0.6407681707611357"><ele>92.5</ele><time>2026-05-03T09:38:58Z</time></trkpt><trkpt lat="43.41834502202453" lon="-0.6408693553011993"><ele>92.66666666666667</ele><time>2026-05-03T09:38:59Z</time></trkpt><trkpt lat="43.418371507813156" lon="-0.6409719311368495"><ele>92.83333333333333</ele><time>2026-05-03T09:39:00Z</time></trkpt><trkpt lat="43.41839516968921" lon="-0.641070069072726"><ele>93.0</ele><time>2026-05-03T09:39:01Z</time></trkpt><trkpt lat="43.41841867049413" lon="-0.6411740659223549"><ele>93.16666666666667</ele><time>2026-05-03T09:39:02Z</time></trkpt><trkpt lat="43.41844184208342" lon="-0.6412768387460496"><ele>93.33333333333333</ele><time>2026-05-03T09:39:03Z</time></trkpt><trkpt lat="43.41846439853812" lon="-0.6413759751220975"><ele>93.5</ele><time>2026-05-03T09:39:04Z</time></trkpt><trkpt lat="43.418490442030006" lon="-0.6414773817979101"><ele>93.66666666666666</ele><time>2026-05-03T09:39:05Z</time></trkpt><trkpt lat="43.41851354961484" lon="-0.6415776260639804"><ele>93.83333333333333</ele><time>2026-05-03T09:39:06Z</time></trkpt><trkpt lat="43.41853543893254" lon="-0.6416814094683966"><ele>94.0</ele><time>2026-05-03T09:39:07Z</time></trkpt><trkpt lat="43.41855871539328" lon="-0.6417816444832195"><ele>94.0</ele><time>2026-05-03T09:39:08Z</time></trkpt><trkpt lat="43.41858200076593" lon="-0.6418821314642703"><ele>94.0</ele><time>2026-05-03T09:39:09Z</time></trkpt><trkpt lat="43.418605604374996" lon="-0.6419861278660798"><ele>94.0</ele><time>2026-05-03T09:39:10Z</time></trkpt><trkpt lat="43.4186303473837" lon="-0.6420832813557715"><ele>94.0</ele><time>2026-05-03T09:39:11Z</time></trkpt><trkpt lat="43.41865663352979" lon="-0.6421806809538839"><ele>94.0</ele><time>2026-05-03T09:39:12Z</time></trkpt><trkpt lat="43.41867928930345" lon="-0.6422784419304307"><ele>94.0</ele><time>2026-05-03T09:39:13Z</time></trkpt><trkpt lat="43.418703380717574" lon="-0.6423760499063398"><ele>94.0</ele><time>2026-05-03T09:39:14Z</time></trkpt><trkpt lat="43.418726406052244" lon="-0.6424751405590772"><ele>94.0</ele><time>2026-05-03T09:39:15Z</time></trkpt><trkpt lat="43.418750703317585" lon="-0.6425754827050094"><ele>94.0</ele><time>2026-05-03T09:39:16Z</time></trkpt><trkpt lat="43.4187756645324" lon="-0.6426727917701374"><ele>94.0</ele><time>2026-05-03T09:39:17Z</time></trkpt><trkpt lat="43.41880072246151" lon="-0.6427689302254948"><ele>94.0</ele><time>2026-05-03T09:39:18Z</time></trkpt><trkpt lat="43.41882636702449" lon="-0.6428669561435593"><ele>94.0</ele><time>2026-05-03T09:39:19Z</time></trkpt><trkpt lat="43.41885331362749" lon="-0.6429631049677685"><ele>94.28571428571428</ele><time>2026-05-03T09:39:20Z</time></trkpt><trkpt lat="43.418877678958495" lon="-0.6430595890916025"><ele>94.57142857142857</ele><time>2026-05-03T09:39:21Z</time></trkpt><trkpt lat="43.41891135171732" lon="-0.6431499147279679"><ele>94.85714285714286</ele><time>2026-05-03T09:39:22Z</time></trkpt><trkpt lat="43.41894348961577" lon="-0.6432450891844455"><ele>95.14285714285714</ele><time>2026-05-03T09:39:23Z</time></trkpt><trkpt lat="43.41897779270078" lon="-0.64333520738623"><ele>95.42857142857143</ele><time>2026-05-03T09:39:24Z</time></trkpt><trkpt lat="43.41901620031883" lon="-0.6434221239626544"><ele>95.71428571428571</ele><time>2026-05-03T09:39:25Z</time></trkpt><trkpt lat="43.41905694230182" lon="-0.6435070736287088"><ele>96.0</ele><time>2026-05-03T09:39:26Z</time></trkpt><trkpt lat="43.41909971466509" lon="-0.6435909986208266"><ele>95.66666666666667</ele><time>2026-05-03T09:39:27Z</time></trkpt><trkpt lat="43.419142178011384" lon="-0.6436746076762256"><ele>95.33333333333333</ele><time>2026-05-03T09:39:28Z</time></trkpt><trkpt lat="43.41919016989804" lon="-0.6437547017728446"><ele>95.0</ele><time>2026-05-03T09:39:29Z</time></trkpt><trkpt lat="43.419242962729605" lon="-0.6438209561927015"><ele>94.66666666666666</ele><time>2026-05-03T09:39:30Z</time></trkpt><trkpt lat="43.41935500640211" lon="-0.6439500769791549"><ele>94.33333333333333</ele><time>2026-05-03T09:39:32Z</time></trkpt><trkpt lat="43.419414245629234" lon="-0.6440045924861573"><ele>94.0</ele><time>2026-05-03T09:39:33Z</time></trkpt><trkpt lat="43.41947885337817" lon="-0.6440545649407196"><ele>94.0</ele><time>2026-05-03T09:39:34Z</time></trkpt><trkpt lat="43.41954700216763" lon="-0.6440877347896988"><ele>94.0</ele><time>2026-05-03T09:39:35Z</time></trkpt><trkpt lat="43.419616091144114" lon="-0.6441125955207803"><ele>94.0</ele><time>2026-05-03T09:39:36Z</time></trkpt><trkpt lat="43.419683158960794" lon="-0.6441356965884649"><ele>94.0</ele><time>2026-05-03T09:39:37Z</time></trkpt><trkpt lat="43.419745501790466" lon="-0.6441781607481877"><ele>94.0</ele><time>2026-05-03T09:39:38Z</time></trkpt><trkpt lat="43.419792834494146" lon="-0.6442511550945172"><ele>94.0</ele><time>2026-05-03T09:39:39Z</time></trkpt><trkpt lat="43.41981752545962" lon="-0.6443478849950539"><ele>94.0</ele><time>2026-05-03T09:39:40Z</time></trkpt><trkpt lat="43.419812601074476" lon="-0.6444510678917846"><ele>93.83333333333333</ele><time>2026-05-03T09:39:41Z</time></trkpt><trkpt lat="43.41978344582517" lon="-0.6445445805934962"><ele>93.66666666666666</ele><time>2026-05-03T09:39:42Z</time></trkpt><trkpt lat="43.41973285437251" lon="-0.6446140403808143"><ele>93.5</ele><time>2026-05-03T09:39:43Z</time></trkpt><trkpt lat="43.41966346161292" lon="-0.6446531823523471"><ele>93.33333333333333</ele><time>2026-05-03T09:39:44Z</time></trkpt><trkpt lat="43.419518639223334" lon="-0.6446407200047297"><ele>93.16666666666667</ele><time>2026-05-03T09:39:46Z</time></trkpt><trkpt lat="43.419457577580715" lon="-0.6445829727224488"><ele>93.0</ele><time>2026-05-03T09:39:47Z</time></trkpt><trkpt lat="43.41941278308382" lon="-0.6445126229538192"><ele>93.14285714285715</ele><time>2026-05-03T09:39:48Z</time></trkpt><trkpt lat="43.41937623826763" lon="-0.6444308653437203"><ele>93.28571428571429</ele><time>2026-05-03T09:39:49Z</time></trkpt><trkpt lat="43.41934759904828" lon="-0.6443416673866766"><ele>93.42857142857143</ele><time>2026-05-03T09:39:50Z</time></trkpt><trkpt lat="43.41932537160896" lon="-0.6442513938871032"><ele>93.57142857142858</ele><time>2026-05-03T09:39:51Z</time></trkpt><trkpt lat="43.419304364813364" lon="-0.6441588709500301"><ele>93.71428571428571</ele><time>2026-05-03T09:39:52Z</time></trkpt><trkpt lat="43.41926380314766" lon="-0.6440738510727971"><ele>93.85714285714286</ele><time>2026-05-03T09:39:53Z</time></trkpt><trkpt lat="43.41921337097603" lon="-0.6440056767957245"><ele>94.0</ele><time>2026-05-03T09:39:54Z</time></trkpt><trkpt lat="43.41916918692258" lon="-0.6439347183235152"><ele>94.0</ele><time>2026-05-03T09:39:55Z</time></trkpt><trkpt lat="43.4191230573663" lon="-0.6438630132206591"><ele>94.0</ele><time>2026-05-03T09:39:56Z</time></trkpt><trkpt lat="43.41908058123458" lon="-0.6437882152898344"><ele>94.0</ele><time>2026-05-03T09:39:57Z</time></trkpt><trkpt lat="43.41903924673333" lon="-0.6437079056380601"><ele>94.0</ele><time>2026-05-03T09:39:58Z</time></trkpt><trkpt lat="43.41899723664594" lon="-0.6436377306477653"><ele>94.0</ele><time>2026-05-03T09:39:59Z</time></trkpt><trkpt lat="43.41895571165289" lon="-0.6435529799726809"><ele>94.0</ele><time>2026-05-03T09:40:00Z</time></trkpt><trkpt lat="43.418918775257914" lon="-0.6434751479448326"><ele>94.0</ele><time>2026-05-03T09:40:01Z</time></trkpt><trkpt lat="43.418883007921266" lon="-0.6433990636424992"><ele>94.0</ele><time>2026-05-03T09:40:02Z</time></trkpt><trkpt lat="43.41884762462702" lon="-0.6433130349733408"><ele>94.0</ele><time>2026-05-03T09:40:03Z</time></trkpt><trkpt lat="43.418816778505146" lon="-0.643227681891953"><ele>94.0</ele><time>2026-05-03T09:40:04Z</time></trkpt><trkpt lat="43.41878975078058" lon="-0.6431372235503108"><ele>94.0</ele><time>2026-05-03T09:40:05Z</time></trkpt><trkpt lat="43.41876255270768" lon="-0.6430513158938371"><ele>94.0</ele><time>2026-05-03T09:40:06Z</time></trkpt><trkpt lat="43.41873576708205" lon="-0.642963367974173"><ele>94.0</ele><time>2026-05-03T09:40:07Z</time></trkpt><trkpt lat="43.41871323968733" lon="-0.6428733315048193"><ele>94.0</ele><time>2026-05-03T09:40:08Z</time></trkpt><trkpt lat="43.4186902355305" lon="-0.6427815888438413"><ele>94.0</ele><time>2026-05-03T09:40:09Z</time></trkpt><trkpt lat="43.418670562468584" lon="-0.6426860527959165"><ele>94.0</ele><time>2026-05-03T09:40:10Z</time></trkpt><trkpt lat="43.41865165686862" lon="-0.6425924684273461"><ele>94.0</ele><time>2026-05-03T09:40:11Z</time></trkpt><trkpt lat="43.41863552065916" lon="-0.6424960223964189"><ele>94.0</ele><time>2026-05-03T09:40:12Z</time></trkpt><trkpt lat="43.418613989844516" lon="-0.6424003526634269"><ele>94.0</ele><time>2026-05-03T09:40:13Z</time></trkpt><trkpt lat="43.41859556668031" lon="-0.6423048130943134"><ele>94.0</ele><time>2026-05-03T09:40:14Z</time></trkpt><trkpt lat="43.418576875631366" lon="-0.6422112438388086"><ele>94.0</ele><time>2026-05-03T09:40:15Z</time></trkpt><trkpt lat="43.41855806009332" lon="-0.6421146069556029"><ele>94.0</ele><time>2026-05-03T09:40:16Z</time></trkpt><trkpt lat="43.41853826174255" lon="-0.6420212605308675"><ele>94.0</ele><time>2026-05-03T09:40:17Z</time></trkpt><trkpt lat="43.418517595495246" lon="-0.6419262790297525"><ele>94.0</ele><time>2026-05-03T09:40:18Z</time></trkpt><trkpt lat="43.41849600383192" lon="-0.6418303331882582"><ele>94.0</ele><time>2026-05-03T09:40:19Z</time></trkpt><trkpt lat="43.418471824999486" lon="-0.6417357008170881"><ele>94.0</ele><time>2026-05-03T09:40:20Z</time></trkpt><trkpt lat="43.41845177759125" lon="-0.6416401443702934"><ele>94.0</ele><time>2026-05-03T09:40:21Z</time></trkpt><trkpt lat="43.41842896826485" lon="-0.6415442752287248"><ele>94.0</ele><time>2026-05-03T09:40:22Z</time></trkpt><trkpt lat="43.418404815502754" lon="-0.6414499782138742"><ele>94.0</ele><time>2026-05-03T09:40:23Z</time></trkpt><trkpt lat="43.418379750629754" lon="-0.6413548619002969"><ele>94.0</ele><time>2026-05-03T09:40:24Z</time></trkpt><trkpt lat="43.41835901042953" lon="-0.6412609795502271"><ele>94.0</ele><time>2026-05-03T09:40:25Z</time></trkpt><trkpt lat="43.41833747404937" lon="-0.6411639318551602"><ele>94.0</ele><time>2026-05-03T09:40:26Z</time></trkpt><trkpt lat="43.41831054286695" lon="-0.6410689672338139"><ele>94.0</ele><time>2026-05-03T09:40:27Z</time></trkpt><trkpt lat="43.41828555136206" lon="-0.6409744128115543"><ele>94.0</ele><time>2026-05-03T09:40:28Z</time></trkpt><trkpt lat="43.418262607154446" lon="-0.6408766528473965"><ele>94.0</ele><time>2026-05-03T09:40:29Z</time></trkpt><trkpt lat="43.41824066614624" lon="-0.6407808774205103"><ele>93.85714285714286</ele><time>2026-05-03T09:40:30Z</time></trkpt><trkpt lat="43.41821708165265" lon="-0.6406834728889909"><ele>93.71428571428571</ele><time>2026-05-03T09:40:31Z</time></trkpt><trkpt lat="43.41819363398013" lon="-0.640587843791866"><ele>93.57142857142858</ele><time>2026-05-03T09:40:32Z</time></trkpt><trkpt lat="43.41817006609627" lon="-0.6404946168579461"><ele>93.42857142857143</ele><time>2026-05-03T09:40:33Z</time></trkpt><trkpt lat="43.41814586070471" lon="-0.6404010324798006"><ele>93.28571428571429</ele><time>2026-05-03T09:40:34Z</time></trkpt><trkpt lat="43.41812183938117" lon="-0.640307329567111"><ele>93.14285714285715</ele><time>2026-05-03T09:40:35Z</time></trkpt><trkpt lat="43.41809616054088" lon="-0.6402139561139819"><ele>93.0</ele><time>2026-05-03T09:40:36Z</time></trkpt><trkpt lat="43.41807147226967" lon="-0.6401223965077741"><ele>92.85714285714286</ele><time>2026-05-03T09:40:37Z</time></trkpt><trkpt lat="43.4180508802541" lon="-0.6400261171915163"><ele>92.71428571428572</ele><time>2026-05-03T09:40:38Z</time></trkpt><trkpt lat="43.41802914268858" lon="-0.6399334999619929"><ele>92.57142857142858</ele><time>2026-05-03T09:40:39Z</time></trkpt><trkpt lat="43.41800709816231" lon="-0.6398416982551093"><ele>92.42857142857143</ele><time>2026-05-03T09:40:40Z</time></trkpt><trkpt lat="43.41798450595152" lon="-0.6397476064012472"><ele>92.28571428571428</ele><time>2026-05-03T09:40:41Z</time></trkpt><trkpt lat="43.41796011639026" lon="-0.6396594372065959"><ele>92.14285714285715</ele><time>2026-05-03T09:40:42Z</time></trkpt><trkpt lat="43.41793753144686" lon="-0.6395702246838477"><ele>92.0</ele><time>2026-05-03T09:40:43Z</time></trkpt><trkpt lat="43.417914626963125" lon="-0.6394823878861206"><ele>92.33333333333334</ele><time>2026-05-03T09:40:44Z</time></trkpt><trkpt lat="43.41787061804992" lon="-0.6393036553064921"><ele>92.66666666666667</ele><time>2026-05-03T09:40:46Z</time></trkpt><trkpt lat="43.41784858384763" lon="-0.6392147812089862"><ele>93.0</ele><time>2026-05-03T09:40:47Z</time></trkpt><trkpt lat="43.41782594690751" lon="-0.6391261419511733"><ele>93.33333333333333</ele><time>2026-05-03T09:40:48Z</time></trkpt><trkpt lat="43.41780206198604" lon="-0.6390383194161591"><ele>93.66666666666666</ele><time>2026-05-03T09:40:49Z</time></trkpt><trkpt lat="43.41777463539208" lon="-0.6389532049933005"><ele>94.0</ele><time>2026-05-03T09:40:50Z</time></trkpt><trkpt lat="43.41775015295178" lon="-0.638867951049251"><ele>94.0</ele><time>2026-05-03T09:40:51Z</time></trkpt><trkpt lat="43.41772704602668" lon="-0.6387792127541305"><ele>94.0</ele><time>2026-05-03T09:40:52Z</time></trkpt><trkpt lat="43.417704830837444" lon="-0.6386903833282251"><ele>94.0</ele><time>2026-05-03T09:40:52.999Z</time></trkpt><trkpt lat="43.417683673841964" lon="-0.6386025413550293"><ele>94.0</ele><time>2026-05-03T09:40:53.999Z</time></trkpt><trkpt lat="43.41766615187751" lon="-0.6385135153445416"><ele>94.0</ele><time>2026-05-03T09:40:54.999Z</time></trkpt><trkpt lat="43.41764883854771" lon="-0.6384251807149713"><ele>94.0</ele><time>2026-05-03T09:40:55.999Z</time></trkpt><trkpt lat="43.417630129456555" lon="-0.6383363582018526"><ele>94.0</ele><time>2026-05-03T09:40:56.999Z</time></trkpt><trkpt lat="43.41760543440883" lon="-0.6382508648229301"><ele>93.85714285714286</ele><time>2026-05-03T09:40:57.999Z</time></trkpt><trkpt lat="43.41758125966469" lon="-0.6381596250810744"><ele>93.71428571428571</ele><time>2026-05-03T09:40:58.999Z</time></trkpt><trkpt lat="43.417558104367856" lon="-0.6380699966751393"><ele>93.57142857142858</ele><time>2026-05-03T09:40:59.999Z</time></trkpt><trkpt lat="43.41753766617464" lon="-0.6379716500001663"><ele>93.42857142857143</ele><time>2026-05-03T09:41:00.999Z</time></trkpt><trkpt lat="43.417516710823776" lon="-0.6378832313315734"><ele>93.28571428571429</ele><time>2026-05-03T09:41:01.999Z</time></trkpt><trkpt lat="43.41748979345148" lon="-0.6377846085445853"><ele>93.14285714285715</ele><time>2026-05-03T09:41:02.999Z</time></trkpt><trkpt lat="43.41746659669507" lon="-0.6376946293258993"><ele>93.0</ele><time>2026-05-03T09:41:03.999Z</time></trkpt><trkpt lat="43.41744527471638" lon="-0.6376079625566545"><ele>93.00000000000001</ele><time>2026-05-03T09:41:04.999Z</time></trkpt><trkpt lat="43.417427961247284" lon="-0.6375128751335528"><ele>93.0</ele><time>2026-05-03T09:41:05.999Z</time></trkpt><trkpt lat="43.41740370621534" lon="-0.6374215703707292"><ele>93.0</ele><time>2026-05-03T09:41:06.999Z</time></trkpt><trkpt lat="43.41738185088557" lon="-0.6373286854244175"><ele>93.0</ele><time>2026-05-03T09:41:07.999Z</time></trkpt><trkpt lat="43.41735644931987" lon="-0.6372391185882404"><ele>93.0</ele><time>2026-05-03T09:41:09Z</time></trkpt><trkpt lat="43.41733589158321" lon="-0.637148715221094"><ele>93.00000000000001</ele><time>2026-05-03T09:41:10Z</time></trkpt><trkpt lat="43.41731755036091" lon="-0.6370557178635253"><ele>93.0</ele><time>2026-05-03T09:41:11Z</time></trkpt><trkpt lat="43.41729751262619" lon="-0.6369656485880579"><ele>93.14285714285715</ele><time>2026-05-03T09:41:12Z</time></trkpt><trkpt lat="43.41727949475562" lon="-0.6368765917740893"><ele>93.28571428571429</ele><time>2026-05-03T09:41:13Z</time></trkpt><trkpt lat="43.41725567209466" lon="-0.636791013748567"><ele>93.42857142857143</ele><time>2026-05-03T09:41:14Z</time></trkpt><trkpt lat="43.417227320480386" lon="-0.6367073604036327"><ele>93.57142857142858</ele><time>2026-05-03T09:41:15Z</time></trkpt><trkpt lat="43.41720520783917" lon="-0.6366201502315995"><ele>93.71428571428571</ele><time>2026-05-03T09:41:16Z</time></trkpt><trkpt lat="43.41718392613198" lon="-0.6365341196367592"><ele>93.85714285714286</ele><time>2026-05-03T09:41:17Z</time></trkpt><trkpt lat="43.41716013151569" lon="-0.6364468237008608"><ele>94.0</ele><time>2026-05-03T09:41:18Z</time></trkpt><trkpt lat="43.41713740713257" lon="-0.6363569799308163"><ele>94.0</ele><time>2026-05-03T09:41:19Z</time></trkpt><trkpt lat="43.417116865559244" lon="-0.6362659596915885"><ele>94.0</ele><time>2026-05-03T09:41:20Z</time></trkpt><trkpt lat="43.41709276310169" lon="-0.636179153086543"><ele>94.0</ele><time>2026-05-03T09:41:21Z</time></trkpt><trkpt lat="43.41706988477488" lon="-0.6360891154618415"><ele>94.0</ele><time>2026-05-03T09:41:22Z</time></trkpt><trkpt lat="43.417047131912426" lon="-0.6359996317894007"><ele>94.0</ele><time>2026-05-03T09:41:23Z</time></trkpt><trkpt lat="43.417025818986716" lon="-0.6359055735655109"><ele>94.0</ele><time>2026-05-03T09:41:24Z</time></trkpt><trkpt lat="43.41700471796375" lon="-0.6358177281158279"><ele>94.0</ele><time>2026-05-03T09:41:25Z</time></trkpt><trkpt lat="43.41698001359446" lon="-0.6357320698391091"><ele>94.14285714285714</ele><time>2026-05-03T09:41:26Z</time></trkpt><trkpt lat="43.416955733904885" lon="-0.6356450467126046"><ele>94.28571428571428</ele><time>2026-05-03T09:41:27Z</time></trkpt><trkpt lat="43.41693489441378" lon="-0.6355588291745567"><ele>94.42857142857143</ele><time>2026-05-03T09:41:28Z</time></trkpt><trkpt lat="43.41691197755894" lon="-0.6354713701343087"><ele>94.57142857142857</ele><time>2026-05-03T09:41:29Z</time></trkpt><trkpt lat="43.41689028775915" lon="-0.6353836794074535"><ele>94.71428571428572</ele><time>2026-05-03T09:41:30Z</time></trkpt><trkpt lat="43.41686914481855" lon="-0.6352968722930391"><ele>94.85714285714286</ele><time>2026-05-03T09:41:31Z</time></trkpt><trkpt lat="43.416848783066776" lon="-0.6352088835717158"><ele>95.0</ele><time>2026-05-03T09:41:32Z</time></trkpt><trkpt lat="43.416829714139666" lon="-0.6351244564824637"><ele>95.2</ele><time>2026-05-03T09:41:33Z</time></trkpt><trkpt lat="43.416811242479646" lon="-0.6350388369158074"><ele>95.4</ele><time>2026-05-03T09:41:34Z</time></trkpt><trkpt lat="43.41679578083169" lon="-0.6349498972639749"><ele>95.6</ele><time>2026-05-03T09:41:35Z</time></trkpt><trkpt lat="43.41677756724286" lon="-0.6348645887174436"><ele>95.8</ele><time>2026-05-03T09:41:36Z</time></trkpt><trkpt lat="43.4167327876761" lon="-0.6346975176500677"><ele>96.0</ele><time>2026-05-03T09:41:38Z</time></trkpt><trkpt lat="43.416692674803166" lon="-0.6345322144083291"><ele>95.99999999999999</ele><time>2026-05-03T09:41:40Z</time></trkpt><trkpt lat="43.416672220687325" lon="-0.634445502251448"><ele>96.0</ele><time>2026-05-03T09:41:41Z</time></trkpt><trkpt lat="43.41665195300955" lon="-0.6343545509297985"><ele>96.0</ele><time>2026-05-03T09:41:42Z</time></trkpt><trkpt lat="43.41663111751865" lon="-0.6342642903525295"><ele>96.0</ele><time>2026-05-03T09:41:43Z</time></trkpt><trkpt lat="43.41661198096279" lon="-0.634176759810403"><ele>96.0</ele><time>2026-05-03T09:41:44Z</time></trkpt><trkpt lat="43.4165917844074" lon="-0.6340904343381085"><ele>95.99999999999999</ele><time>2026-05-03T09:41:45Z</time></trkpt><trkpt lat="43.41657280078458" lon="-0.6339959910237174"><ele>96.0</ele><time>2026-05-03T09:41:46Z</time></trkpt><trkpt lat="43.41655369851981" lon="-0.6339053764783872"><ele>95.99999999999999</ele><time>2026-05-03T09:41:47Z</time></trkpt><trkpt lat="43.41653379123697" lon="-0.6338192023643606"><ele>96.0</ele><time>2026-05-03T09:41:48Z</time></trkpt><trkpt lat="43.41651110281491" lon="-0.6337318938289609"><ele>96.0</ele><time>2026-05-03T09:41:49Z</time></trkpt><trkpt lat="43.4164892473051" lon="-0.6336448841241227"><ele>96.0</ele><time>2026-05-03T09:41:50Z</time></trkpt><trkpt lat="43.41646933968691" lon="-0.6335548148577892"><ele>96.0</ele><time>2026-05-03T09:41:51Z</time></trkpt><trkpt lat="43.41644762808088" lon="-0.6334626823824984"><ele>95.99999999999999</ele><time>2026-05-03T09:41:52Z</time></trkpt><trkpt lat="43.41642697468054" lon="-0.6333742150769376"><ele>96.0</ele><time>2026-05-03T09:41:53Z</time></trkpt><trkpt lat="43.416409140300786" lon="-0.6332819190920768"><ele>96.14285714285714</ele><time>2026-05-03T09:41:54Z</time></trkpt><trkpt lat="43.41638750234722" lon="-0.6331959080427437"><ele>96.28571428571428</ele><time>2026-05-03T09:41:55Z</time></trkpt><trkpt lat="43.41637205632205" lon="-0.6331066888916574"><ele>96.42857142857142</ele><time>2026-05-03T09:41:56Z</time></trkpt><trkpt lat="43.41634763626496" lon="-0.6330221472510974"><ele>96.57142857142857</ele><time>2026-05-03T09:41:57Z</time></trkpt><trkpt lat="43.416323723079586" lon="-0.6329373148503016"><ele>96.71428571428572</ele><time>2026-05-03T09:41:58Z</time></trkpt><trkpt lat="43.416303897658715" lon="-0.6328491476404383"><ele>96.85714285714285</ele><time>2026-05-03T09:41:59Z</time></trkpt><trkpt lat="43.41628456193823" lon="-0.6327622574306008"><ele>97.0</ele><time>2026-05-03T09:42:00Z</time></trkpt><trkpt lat="43.41626466306856" lon="-0.6326750686010975"><ele>96.57142857142857</ele><time>2026-05-03T09:42:01Z</time></trkpt><trkpt lat="43.41624079204312" lon="-0.6325887589834498"><ele>96.14285714285715</ele><time>2026-05-03T09:42:02Z</time></trkpt><trkpt lat="43.41621694161926" lon="-0.6325048098042995"><ele>95.71428571428572</ele><time>2026-05-03T09:42:03Z</time></trkpt><trkpt lat="43.41619515640677" lon="-0.6324194452522227"><ele>95.28571428571428</ele><time>2026-05-03T09:42:04Z</time></trkpt><trkpt lat="43.41617978062644" lon="-0.6323343396550364"><ele>94.85714285714286</ele><time>2026-05-03T09:42:05Z</time></trkpt><trkpt lat="43.416159187024135" lon="-0.6322479221879288"><ele>94.42857142857143</ele><time>2026-05-03T09:42:06Z</time></trkpt><trkpt lat="43.4161352827258" lon="-0.6321634865847449"><ele>94.0</ele><time>2026-05-03T09:42:07Z</time></trkpt><trkpt lat="43.416115124558175" lon="-0.632077521905205"><ele>94.0</ele><time>2026-05-03T09:42:08Z</time></trkpt><trkpt lat="43.41609498323496" lon="-0.6319892958171469"><ele>94.0</ele><time>2026-05-03T09:42:09Z</time></trkpt><trkpt lat="43.41607357716409" lon="-0.631903757971689"><ele>94.0</ele><time>2026-05-03T09:42:10Z</time></trkpt><trkpt lat="43.41605333421941" lon="-0.6318190448643453"><ele>94.0</ele><time>2026-05-03T09:42:11Z</time></trkpt><trkpt lat="43.41603448277445" lon="-0.6317292779080248"><ele>94.0</ele><time>2026-05-03T09:42:12Z</time></trkpt><trkpt lat="43.41601429216595" lon="-0.6316405351535322"><ele>94.0</ele><time>2026-05-03T09:42:13Z</time></trkpt><trkpt lat="43.4159882092528" lon="-0.631550723138833"><ele>94.0</ele><time>2026-05-03T09:42:14Z</time></trkpt><trkpt lat="43.415964537261125" lon="-0.6314617211942966"><ele>94.0</ele><time>2026-05-03T09:42:15Z</time></trkpt><trkpt lat="43.41594438845252" lon="-0.6313693487539921"><ele>94.0</ele><time>2026-05-03T09:42:16Z</time></trkpt><trkpt lat="43.41592392285099" lon="-0.6312767874936892"><ele>94.0</ele><time>2026-05-03T09:42:17Z</time></trkpt><trkpt lat="43.41590297524222" lon="-0.6311871628506031"><ele>94.0</ele><time>2026-05-03T09:42:18Z</time></trkpt><trkpt lat="43.41587967431798" lon="-0.6310984197097318"><ele>94.0</ele><time>2026-05-03T09:42:19Z</time></trkpt><trkpt lat="43.41585699367204" lon="-0.6310082141138325"><ele>94.0</ele><time>2026-05-03T09:42:20Z</time></trkpt><trkpt lat="43.41583480146382" lon="-0.6309171243609873"><ele>94.0</ele><time>2026-05-03T09:42:21Z</time></trkpt><trkpt lat="43.415815109677276" lon="-0.6308245491872394"><ele>94.28571428571428</ele><time>2026-05-03T09:42:22Z</time></trkpt><trkpt lat="43.41579418580417" lon="-0.6307366424941949"><ele>94.57142857142857</ele><time>2026-05-03T09:42:23Z</time></trkpt><trkpt lat="43.41577174661937" lon="-0.6306433486357557"><ele>94.85714285714286</ele><time>2026-05-03T09:42:24Z</time></trkpt><trkpt lat="43.41574973514413" lon="-0.6305517084360667"><ele>95.14285714285714</ele><time>2026-05-03T09:42:25Z</time></trkpt><trkpt lat="43.41572734258333" lon="-0.630458837025292"><ele>95.42857142857143</ele><time>2026-05-03T09:42:26Z</time></trkpt><trkpt lat="43.415705203875795" lon="-0.6303658101318927"><ele>95.71428571428571</ele><time>2026-05-03T09:42:27Z</time></trkpt><trkpt lat="43.41568481538313" lon="-0.6302733119533462"><ele>96.0</ele><time>2026-05-03T09:42:28Z</time></trkpt><trkpt lat="43.41566144388949" lon="-0.6301794947078742"><ele>95.99999999999999</ele><time>2026-05-03T09:42:29Z</time></trkpt><trkpt lat="43.4156435916717" lon="-0.6300810869593653"><ele>96.0</ele><time>2026-05-03T09:42:30Z</time></trkpt><trkpt lat="43.41561763446228" lon="-0.6299891794049001"><ele>96.0</ele><time>2026-05-03T09:42:31Z</time></trkpt><trkpt lat="43.41559274732132" lon="-0.6298941954166931"><ele>96.0</ele><time>2026-05-03T09:42:32Z</time></trkpt><trkpt lat="43.41556673016128" lon="-0.6297991375242166"><ele>96.0</ele><time>2026-05-03T09:42:33Z</time></trkpt><trkpt lat="43.41554603934605" lon="-0.6297037766321522"><ele>95.99999999999999</ele><time>2026-05-03T09:42:34Z</time></trkpt><trkpt lat="43.41552375899014" lon="-0.6296099825750603"><ele>96.0</ele><time>2026-05-03T09:42:35Z</time></trkpt><trkpt lat="43.415500118266706" lon="-0.629515057195167"><ele>95.99999999999999</ele><time>2026-05-03T09:42:36Z</time></trkpt><trkpt lat="43.41547424729081" lon="-0.629418070678231"><ele>96.0</ele><time>2026-05-03T09:42:37Z</time></trkpt><trkpt lat="43.415447636895884" lon="-0.6293227301258617"><ele>96.0</ele><time>2026-05-03T09:42:38Z</time></trkpt><trkpt lat="43.41542054768495" lon="-0.6292289644142947"><ele>96.0</ele><time>2026-05-03T09:42:39Z</time></trkpt><trkpt lat="43.41539410488077" lon="-0.6291340115687557"><ele>96.0</ele><time>2026-05-03T09:42:40Z</time></trkpt><trkpt lat="43.41536742779338" lon="-0.629041582044093"><ele>95.99999999999999</ele><time>2026-05-03T09:42:41Z</time></trkpt><trkpt lat="43.4153411901375" lon="-0.6289441917297328"><ele>96.0</ele><time>2026-05-03T09:42:42Z</time></trkpt><trkpt lat="43.41531332849983" lon="-0.628849881612857"><ele>95.99999999999999</ele><time>2026-05-03T09:42:43Z</time></trkpt><trkpt lat="43.415294977290095" lon="-0.6287512758676308"><ele>96.0</ele><time>2026-05-03T09:42:44Z</time></trkpt><trkpt lat="43.415278335683794" lon="-0.6286496357538145"><ele>96.0</ele><time>2026-05-03T09:42:45Z</time></trkpt><trkpt lat="43.41526040529747" lon="-0.6285556056358128"><ele>96.0</ele><time>2026-05-03T09:42:46Z</time></trkpt><trkpt lat="43.41523819916122" lon="-0.6284596012418147"><ele>96.0</ele><time>2026-05-03T09:42:47Z</time></trkpt><trkpt lat="43.415217571964746" lon="-0.6283667378097153"><ele>95.99999999999999</ele><time>2026-05-03T09:42:48Z</time></trkpt><trkpt lat="43.41519599831966" lon="-0.6282730096499978"><ele>96.0</ele><time>2026-05-03T09:42:49Z</time></trkpt><trkpt lat="43.415171845998074" lon="-0.6281750200751661"><ele>95.85714285714285</ele><time>2026-05-03T09:42:50Z</time></trkpt><trkpt lat="43.415145903571045" lon="-0.6280799388452724"><ele>95.71428571428571</ele><time>2026-05-03T09:42:51Z</time></trkpt><trkpt lat="43.41512191386275" lon="-0.6279854636395453"><ele>95.57142857142857</ele><time>2026-05-03T09:42:52Z</time></trkpt><trkpt lat="43.4151011413779" lon="-0.6278948045060185"><ele>95.42857142857142</ele><time>2026-05-03T09:42:53Z</time></trkpt><trkpt lat="43.41508041742759" lon="-0.6278000327045061"><ele>95.28571428571429</ele><time>2026-05-03T09:42:54Z</time></trkpt><trkpt lat="43.415057839367456" lon="-0.6277074148144967"><ele>95.14285714285714</ele><time>2026-05-03T09:42:55Z</time></trkpt><trkpt lat="43.41503773228126" lon="-0.6276170109829263"><ele>95.0</ele><time>2026-05-03T09:42:56Z</time></trkpt><trkpt lat="43.415014158574" lon="-0.6275295156014793"><ele>95.33333333333334</ele><time>2026-05-03T09:42:57Z</time></trkpt><trkpt lat="43.41498454566799" lon="-0.6274481601855583"><ele>95.66666666666667</ele><time>2026-05-03T09:42:58Z</time></trkpt><trkpt lat="43.41494463063463" lon="-0.6273744858062239"><ele>96.0</ele><time>2026-05-03T09:42:59Z</time></trkpt><trkpt lat="43.41489334025174" lon="-0.627322179434351"><ele>96.33333333333334</ele><time>2026-05-03T09:43:00Z</time></trkpt><trkpt lat="43.414778549947364" lon="-0.6272707332877293"><ele>96.66666666666667</ele><time>2026-05-03T09:43:02Z</time></trkpt><trkpt lat="43.41473695949491" lon="-0.6272000369624547"><ele>97.0</ele><time>2026-05-03T09:43:03Z</time></trkpt><trkpt lat="43.414664244502156" lon="-0.6272078755414192"><ele>97.14285714285714</ele><time>2026-05-03T09:43:04Z</time></trkpt><trkpt lat="43.41460094999332" lon="-0.6272126067166084"><ele>97.28571428571429</ele><time>2026-05-03T09:43:05Z</time></trkpt><trkpt lat="43.41453512046987" lon="-0.6272076704872782"><ele>97.42857142857143</ele><time>2026-05-03T09:43:06Z</time></trkpt><trkpt lat="43.41447351899358" lon="-0.6271820915170462"><ele>97.57142857142857</ele><time>2026-05-03T09:43:07Z</time></trkpt><trkpt lat="43.414411335341185" lon="-0.6271383945727053"><ele>97.71428571428572</ele><time>2026-05-03T09:43:08Z</time></trkpt><trkpt lat="43.41435551609156" lon="-0.6270908523949098"><ele>97.85714285714286</ele><time>2026-05-03T09:43:09Z</time></trkpt><trkpt lat="43.41429842662646" lon="-0.627040013858613"><ele>98.0</ele><time>2026-05-03T09:43:10Z</time></trkpt><trkpt lat="43.41423601803802" lon="-0.6269997861549365"><ele>98.0</ele><time>2026-05-03T09:43:11Z</time></trkpt><trkpt lat="43.414168196464324" lon="-0.6269865500165573"><ele>98.0</ele><time>2026-05-03T09:43:12Z</time></trkpt><trkpt lat="43.41409684672877" lon="-0.6269955778270739"><ele>98.0</ele><time>2026-05-03T09:43:13Z</time></trkpt><trkpt lat="43.41402809081897" lon="-0.6270238343766155"><ele>98.0</ele><time>2026-05-03T09:43:14Z</time></trkpt><trkpt lat="43.41396127122" lon="-0.627060786658785"><ele>98.0</ele><time>2026-05-03T09:43:15Z</time></trkpt><trkpt lat="43.413898898367144" lon="-0.6271037690854696"><ele>98.0</ele><time>2026-05-03T09:43:16Z</time></trkpt><trkpt lat="43.41383225421498" lon="-0.6271470224533179"><ele>98.0</ele><time>2026-05-03T09:43:17Z</time></trkpt><trkpt lat="43.41376507291895" lon="-0.6271866961465078"><ele>97.85714285714286</ele><time>2026-05-03T09:43:18Z</time></trkpt><trkpt lat="43.41370059941738" lon="-0.6272246409411081"><ele>97.71428571428572</ele><time>2026-05-03T09:43:19Z</time></trkpt><trkpt lat="43.41363983818327" lon="-0.6272703080889966"><ele>97.57142857142857</ele><time>2026-05-03T09:43:20Z</time></trkpt><trkpt lat="43.41357410676816" lon="-0.6273138790764956"><ele>97.42857142857143</ele><time>2026-05-03T09:43:21Z</time></trkpt><trkpt lat="43.41350674465" lon="-0.6273557709354194"><ele>97.28571428571429</ele><time>2026-05-03T09:43:22Z</time></trkpt><trkpt lat="43.41343828788789" lon="-0.6273854775770918"><ele>97.14285714285714</ele><time>2026-05-03T09:43:23Z</time></trkpt><trkpt lat="43.41336706924272" lon="-0.6274052328690864"><ele>97.0</ele><time>2026-05-03T09:43:24Z</time></trkpt><trkpt lat="43.41329367212979" lon="-0.6274104273272024"><ele>97.0</ele><time>2026-05-03T09:43:25Z</time></trkpt><trkpt lat="43.41321901629487" lon="-0.627406159699063"><ele>97.0</ele><time>2026-05-03T09:43:26Z</time></trkpt><trkpt lat="43.41314462751283" lon="-0.6273973851426382"><ele>97.0</ele><time>2026-05-03T09:43:27Z</time></trkpt><trkpt lat="43.41307368028194" lon="-0.6273760808261352"><ele>97.0</ele><time>2026-05-03T09:43:28Z</time></trkpt><trkpt lat="43.413005044972614" lon="-0.6273368011803613"><ele>97.0</ele><time>2026-05-03T09:43:29Z</time></trkpt><trkpt lat="43.41293655867279" lon="-0.627290944167042"><ele>97.0</ele><time>2026-05-03T09:43:30Z</time></trkpt><trkpt lat="43.41286984048935" lon="-0.6272418644245866"><ele>97.0</ele><time>2026-05-03T09:43:31Z</time></trkpt><trkpt lat="43.412805577787545" lon="-0.6271836802389671"><ele>97.00000000000001</ele><time>2026-05-03T09:43:32Z</time></trkpt><trkpt lat="43.412752328929734" lon="-0.6271091544522275"><ele>97.0</ele><time>2026-05-03T09:43:33Z</time></trkpt><trkpt lat="43.41270344804042" lon="-0.6270276155000427"><ele>97.0</ele><time>2026-05-03T09:43:34Z</time></trkpt><trkpt lat="43.41266036588043" lon="-0.6269450711547881"><ele>97.0</ele><time>2026-05-03T09:43:35Z</time></trkpt><trkpt lat="43.41262410680193" lon="-0.626852312198746"><ele>97.00000000000001</ele><time>2026-05-03T09:43:36Z</time></trkpt><trkpt lat="43.41259348743485" lon="-0.6267531562275727"><ele>97.0</ele><time>2026-05-03T09:43:37Z</time></trkpt><trkpt lat="43.41255972417886" lon="-0.6266592229788973"><ele>97.71428571428571</ele><time>2026-05-03T09:43:38Z</time></trkpt><trkpt lat="43.4125245687405" lon="-0.6265675298222753"><ele>98.42857142857143</ele><time>2026-05-03T09:43:39Z</time></trkpt><trkpt lat="43.41249404676124" lon="-0.6264739073747015"><ele>99.14285714285714</ele><time>2026-05-03T09:43:40Z</time></trkpt><trkpt lat="43.41245881146375" lon="-0.6263846582378396"><ele>99.85714285714286</ele><time>2026-05-03T09:43:41Z</time></trkpt><trkpt lat="43.41242310445644" lon="-0.6262927094484662"><ele>100.57142857142858</ele><time>2026-05-03T09:43:42Z</time></trkpt><trkpt lat="43.41239278554623" lon="-0.626197856396454"><ele>101.28571428571429</ele><time>2026-05-03T09:43:43Z</time></trkpt><trkpt lat="43.41236019080704" lon="-0.6261066060928463"><ele>102.0</ele><time>2026-05-03T09:43:44Z</time></trkpt><trkpt lat="43.41232884892452" lon="-0.6260116462897009"><ele>102.0</ele><time>2026-05-03T09:43:45Z</time></trkpt><trkpt lat="43.41229725524054" lon="-0.6259227958930148"><ele>102.0</ele><time>2026-05-03T09:43:46Z</time></trkpt><trkpt lat="43.41226646327201" lon="-0.6258299668846862"><ele>102.0</ele><time>2026-05-03T09:43:47Z</time></trkpt><trkpt lat="43.41224022069201" lon="-0.62573904073369"><ele>102.0</ele><time>2026-05-03T09:43:48Z</time></trkpt><trkpt lat="43.41220596240074" lon="-0.6256469700221602"><ele>102.0</ele><time>2026-05-03T09:43:49Z</time></trkpt><trkpt lat="43.41217276171581" lon="-0.6255492669907364"><ele>102.0</ele><time>2026-05-03T09:43:50Z</time></trkpt><trkpt lat="43.412136166411614" lon="-0.6254604678408796"><ele>102.0</ele><time>2026-05-03T09:43:51Z</time></trkpt><trkpt lat="43.41210534564121" lon="-0.6253618008090284"><ele>101.16666666666667</ele><time>2026-05-03T09:43:52Z</time></trkpt><trkpt lat="43.41206941291052" lon="-0.6252741602387684"><ele>100.33333333333334</ele><time>2026-05-03T09:43:53Z</time></trkpt><trkpt lat="43.412035918441575" lon="-0.6251793616245185"><ele>99.5</ele><time>2026-05-03T09:43:54Z</time></trkpt><trkpt lat="43.4120041493704" lon="-0.6250883792877125"><ele>98.66666666666667</ele><time>2026-05-03T09:43:55Z</time></trkpt><trkpt lat="43.411937199797876" lon="-0.6249166642641466"><ele>97.83333333333334</ele><time>2026-05-03T09:43:57Z</time></trkpt><trkpt lat="43.41189850832966" lon="-0.6248282243452205"><ele>97.0</ele><time>2026-05-03T09:43:58Z</time></trkpt><trkpt lat="43.411865694210285" lon="-0.6247387635207567"><ele>97.0</ele><time>2026-05-03T09:43:59Z</time></trkpt><trkpt lat="43.411830557678385" lon="-0.6246529855333108"><ele>97.0</ele><time>2026-05-03T09:44:00Z</time></trkpt><trkpt lat="43.41179250796787" lon="-0.6245691665157563"><ele>97.0</ele><time>2026-05-03T09:44:01Z</time></trkpt><trkpt lat="43.41175315502426" lon="-0.6244882012163889"><ele>97.0</ele><time>2026-05-03T09:44:02Z</time></trkpt><trkpt lat="43.41171565966605" lon="-0.6244061273596602"><ele>97.0</ele><time>2026-05-03T09:44:03Z</time></trkpt><trkpt lat="43.41168266348135" lon="-0.6243255432394316"><ele>97.0</ele><time>2026-05-03T09:44:04Z</time></trkpt><trkpt lat="43.41165169053092" lon="-0.6242416024827177"><ele>97.0</ele><time>2026-05-03T09:44:05Z</time></trkpt><trkpt lat="43.41161768648807" lon="-0.624157464643445"><ele>97.25</ele><time>2026-05-03T09:44:06Z</time></trkpt><trkpt lat="43.41154733799158" lon="-0.6240045769494983"><ele>97.5</ele><time>2026-05-03T09:44:08Z</time></trkpt><trkpt lat="43.41148030902634" lon="-0.6238592888755413"><ele>97.75</ele><time>2026-05-03T09:44:10Z</time></trkpt><trkpt lat="43.41139268997896" lon="-0.6237759063381529"><ele>98.0</ele><time>2026-05-03T09:44:12Z</time></trkpt><trkpt lat="43.41129149815307" lon="-0.6237594206658861"><ele>98.5</ele><time>2026-05-03T09:44:14Z</time></trkpt><trkpt lat="43.41122472534137" lon="-0.6236901333323107"><ele>99.0</ele><time>2026-05-03T09:44:16Z</time></trkpt><trkpt lat="43.410036819320894" lon="-0.6217066694455906"><ele>99.0</ele><time>2026-05-03T09:52:16Z</time></trkpt><trkpt lat="43.40993879423946" lon="-0.621676746221086"><ele>99.0</ele><time>2026-05-03T09:52:18Z</time></trkpt><trkpt lat="43.40983080585737" lon="-0.6216449888773176"><ele>99.0</ele><time>2026-05-03T09:52:20Z</time></trkpt><trkpt lat="43.40972001443438" lon="-0.6216027958316607"><ele>99.0</ele><time>2026-05-03T09:52:22Z</time></trkpt><trkpt lat="43.40960171253745" lon="-0.6215703931661164"><ele>99.0</ele><time>2026-05-03T09:52:24Z</time></trkpt><trkpt lat="43.409539540397724" lon="-0.6215566259401062"><ele>98.85714285714286</ele><time>2026-05-03T09:52:25Z</time></trkpt><trkpt lat="43.40947365886391" lon="-0.6215468672215807"><ele>98.71428571428571</ele><time>2026-05-03T09:52:26Z</time></trkpt><trkpt lat="43.40940518672758" lon="-0.6215371004693769"><ele>98.57142857142857</ele><time>2026-05-03T09:52:27Z</time></trkpt><trkpt lat="43.409333657724744" lon="-0.6215294996055092"><ele>98.42857142857143</ele><time>2026-05-03T09:52:28Z</time></trkpt><trkpt lat="43.40926030802703" lon="-0.6215291745302921"><ele>98.28571428571428</ele><time>2026-05-03T09:52:29Z</time></trkpt><trkpt lat="43.40918176206511" lon="-0.6215290873661282"><ele>98.14285714285714</ele><time>2026-05-03T09:52:30Z</time></trkpt><trkpt lat="43.40910603235054" lon="-0.621526720371427"><ele>98.0</ele><time>2026-05-03T09:52:31Z</time></trkpt><trkpt lat="43.40902264263949" lon="-0.6215326717416852"><ele>97.99999999999999</ele><time>2026-05-03T09:52:32Z</time></trkpt><trkpt lat="43.408940654946385" lon="-0.6215439466723853"><ele>98.0</ele><time>2026-05-03T09:52:33Z</time></trkpt><trkpt lat="43.408855087756095" lon="-0.6215598226761809"><ele>98.0</ele><time>2026-05-03T09:52:34Z</time></trkpt><trkpt lat="43.408766389450626" lon="-0.6215835940807459"><ele>98.0</ele><time>2026-05-03T09:52:35Z</time></trkpt><trkpt lat="43.40867528691334" lon="-0.6216136081997924"><ele>97.99999999999999</ele><time>2026-05-03T09:52:36Z</time></trkpt><trkpt lat="43.408586427979145" lon="-0.6216547318604122"><ele>98.0</ele><time>2026-05-03T09:52:37Z</time></trkpt><trkpt lat="43.408500090811" lon="-0.6216947928732177"><ele>97.80000000000001</ele><time>2026-05-03T09:52:38Z</time></trkpt><trkpt lat="43.408412138000145" lon="-0.6217386648096587"><ele>97.6</ele><time>2026-05-03T09:52:39Z</time></trkpt><trkpt lat="43.408327951393375" lon="-0.6217881408063157"><ele>97.4</ele><time>2026-05-03T09:52:40Z</time></trkpt><trkpt lat="43.408244540349905" lon="-0.6218369852117381"><ele>97.19999999999999</ele><time>2026-05-03T09:52:41Z</time></trkpt><trkpt lat="43.40816808482511" lon="-0.6218990348740576"><ele>97.0</ele><time>2026-05-03T09:52:42Z</time></trkpt><trkpt lat="43.40809382450291" lon="-0.6219600080579711"><ele>96.83333333333334</ele><time>2026-05-03T09:52:43Z</time></trkpt><trkpt lat="43.40801792532092" lon="-0.6220277439412912"><ele>96.66666666666667</ele><time>2026-05-03T09:52:44Z</time></trkpt><trkpt lat="43.40794574294434" lon="-0.6220937225727984"><ele>96.5</ele><time>2026-05-03T09:52:45Z</time></trkpt><trkpt lat="43.40787959823628" lon="-0.6221718774720745"><ele>96.33333333333334</ele><time>2026-05-03T09:52:46Z</time></trkpt><trkpt lat="43.40781021056677" lon="-0.6222418725734696"><ele>96.16666666666667</ele><time>2026-05-03T09:52:47Z</time></trkpt><trkpt lat="43.40774494892902" lon="-0.6223163602510872"><ele>96.0</ele><time>2026-05-03T09:52:48Z</time></trkpt><trkpt lat="43.40768087036167" lon="-0.6223970650976525"><ele>96.0</ele><time>2026-05-03T09:52:49Z</time></trkpt><trkpt lat="43.40762077418524" lon="-0.6224802586742496"><ele>96.0</ele><time>2026-05-03T09:52:50Z</time></trkpt><trkpt lat="43.40756172753905" lon="-0.6225652529846665"><ele>96.0</ele><time>2026-05-03T09:52:51Z</time></trkpt><trkpt lat="43.407506333568406" lon="-0.6226531194087309"><ele>96.0</ele><time>2026-05-03T09:52:52Z</time></trkpt><trkpt lat="43.40745242017907" lon="-0.6227422088387818"><ele>96.0</ele><time>2026-05-03T09:52:53Z</time></trkpt><trkpt lat="43.407404489749126" lon="-0.62283795723013"><ele>96.0</ele><time>2026-05-03T09:52:54Z</time></trkpt><trkpt lat="43.40735373075077" lon="-0.6229303376710961"><ele>96.0</ele><time>2026-05-03T09:52:55Z</time></trkpt><trkpt lat="43.4073030565437" lon="-0.623023355512163"><ele>96.0</ele><time>2026-05-03T09:52:56Z</time></trkpt><trkpt lat="43.407252272884776" lon="-0.623115704717594"><ele>96.0</ele><time>2026-05-03T09:52:57Z</time></trkpt><trkpt lat="43.407202923936126" lon="-0.6232072623712663"><ele>96.0</ele><time>2026-05-03T09:52:58Z</time></trkpt><trkpt lat="43.407152134387594" lon="-0.6232991308927439"><ele>96.0</ele><time>2026-05-03T09:52:59Z</time></trkpt><trkpt lat="43.40710372674028" lon="-0.6233941322860952"><ele>96.0</ele><time>2026-05-03T09:53:00Z</time></trkpt><trkpt lat="43.407055866704624" lon="-0.6234876902905858"><ele>96.0</ele><time>2026-05-03T09:53:01Z</time></trkpt><trkpt lat="43.40701347569637" lon="-0.6235819770700474"><ele>96.0</ele><time>2026-05-03T09:53:02Z</time></trkpt><trkpt lat="43.40695956298428" lon="-0.6236758773500249"><ele>96.0</ele><time>2026-05-03T09:53:03Z</time></trkpt><trkpt lat="43.406910243282475" lon="-0.6237700734353564"><ele>96.0</ele><time>2026-05-03T09:53:04Z</time></trkpt><trkpt lat="43.406862673569016" lon="-0.6238646009370041"><ele>96.0</ele><time>2026-05-03T09:53:05Z</time></trkpt><trkpt lat="43.406814231643104" lon="-0.6239584159371879"><ele>96.0</ele><time>2026-05-03T09:53:06Z</time></trkpt><trkpt lat="43.40676852345473" lon="-0.6240535028563525"><ele>96.0</ele><time>2026-05-03T09:53:07Z</time></trkpt><trkpt lat="43.40672530345144" lon="-0.6241448753637924"><ele>96.0</ele><time>2026-05-03T09:53:08Z</time></trkpt><trkpt lat="43.406672402581464" lon="-0.624240160518589"><ele>96.0</ele><time>2026-05-03T09:53:09Z</time></trkpt><trkpt lat="43.406618605771456" lon="-0.6243261287465932"><ele>96.0</ele><time>2026-05-03T09:53:10Z</time></trkpt><trkpt lat="43.40657884702523" lon="-0.6244255504904285"><ele>96.0</ele><time>2026-05-03T09:53:11Z</time></trkpt><trkpt lat="43.406530587418665" lon="-0.6245162333667145"><ele>96.0</ele><time>2026-05-03T09:53:12Z</time></trkpt><trkpt lat="43.40648268010207" lon="-0.6246060368434961"><ele>95.83333333333333</ele><time>2026-05-03T09:53:13Z</time></trkpt><trkpt lat="43.40643564786069" lon="-0.6246867147859186"><ele>95.66666666666667</ele><time>2026-05-03T09:53:14Z</time></trkpt><trkpt lat="43.40638271823852" lon="-0.6247754935295904"><ele>95.5</ele><time>2026-05-03T09:53:15Z</time></trkpt><trkpt lat="43.40633059350742" lon="-0.6248532816835326"><ele>95.33333333333334</ele><time>2026-05-03T09:53:16Z</time></trkpt><trkpt lat="43.40627180913277" lon="-0.6249311782712436"><ele>95.16666666666667</ele><time>2026-05-03T09:53:17.001Z</time></trkpt><trkpt lat="43.406216643124495" lon="-0.62500055436139"><ele>95.0</ele><time>2026-05-03T09:53:18.001Z</time></trkpt><trkpt lat="43.40615731382513" lon="-0.6250661520532038"><ele>94.83333333333334</ele><time>2026-05-03T09:53:19.001Z</time></trkpt><trkpt lat="43.40609686896014" lon="-0.6251275565434317"><ele>94.66666666666667</ele><time>2026-05-03T09:53:20.001Z</time></trkpt><trkpt lat="43.40603351868438" lon="-0.6251844853412444"><ele>94.5</ele><time>2026-05-03T09:53:21.001Z</time></trkpt><trkpt lat="43.40596618263257" lon="-0.625232402155199"><ele>94.33333333333333</ele><time>2026-05-03T09:53:22.001Z</time></trkpt><trkpt lat="43.40589423818847" lon="-0.6252710619865985"><ele>94.16666666666666</ele><time>2026-05-03T09:53:23.001Z</time></trkpt><trkpt lat="43.40582279290701" lon="-0.6252999843942648"><ele>94.0</ele><time>2026-05-03T09:53:24.001Z</time></trkpt><trkpt lat="43.40574910434795" lon="-0.6253243068463724"><ele>94.0</ele><time>2026-05-03T09:53:25.001Z</time></trkpt><trkpt lat="43.405674842801" lon="-0.6253404863551408"><ele>94.0</ele><time>2026-05-03T09:53:26.001Z</time></trkpt><trkpt lat="43.40559997666202" lon="-0.625353017985328"><ele>94.0</ele><time>2026-05-03T09:53:27.001Z</time></trkpt><trkpt lat="43.40552396405514" lon="-0.6253560925262022"><ele>94.0</ele><time>2026-05-03T09:53:28.001Z</time></trkpt><trkpt lat="43.40544957452923" lon="-0.6253502215800706"><ele>94.0</ele><time>2026-05-03T09:53:29.001Z</time></trkpt><trkpt lat="43.405374788672894" lon="-0.6253344482682202"><ele>94.0</ele><time>2026-05-03T09:53:30.001Z</time></trkpt><trkpt lat="43.405307398747624" lon="-0.6253180336126299"><ele>94.0</ele><time>2026-05-03T09:53:31.001Z</time></trkpt><trkpt lat="43.405234421834884" lon="-0.6252916609130502"><ele>94.28571428571428</ele><time>2026-05-03T09:53:32.001Z</time></trkpt><trkpt lat="43.40516320160352" lon="-0.6252529853597529"><ele>94.57142857142857</ele><time>2026-05-03T09:53:33Z</time></trkpt><trkpt lat="43.40509747576139" lon="-0.6252120348594756"><ele>94.85714285714286</ele><time>2026-05-03T09:53:34Z</time></trkpt><trkpt lat="43.40503241894293" lon="-0.6251657184256106"><ele>95.14285714285714</ele><time>2026-05-03T09:53:35Z</time></trkpt><trkpt lat="43.40497134606285" lon="-0.6251126960982433"><ele>95.42857142857143</ele><time>2026-05-03T09:53:36Z</time></trkpt><trkpt lat="43.40491339692508" lon="-0.6250449006184425"><ele>95.71428571428571</ele><time>2026-05-03T09:53:37Z</time></trkpt><trkpt lat="43.40485792240884" lon="-0.6249756054782516"><ele>96.0</ele><time>2026-05-03T09:53:38Z</time></trkpt><trkpt lat="43.40479969406285" lon="-0.6249110016216658"><ele>95.99999999999999</ele><time>2026-05-03T09:53:39Z</time></trkpt><trkpt lat="43.404740410337475" lon="-0.6248495841250192"><ele>96.0</ele><time>2026-05-03T09:53:40Z</time></trkpt><trkpt lat="43.40468233550845" lon="-0.6247838020026666"><ele>96.0</ele><time>2026-05-03T09:53:41Z</time></trkpt><trkpt lat="43.404627027033236" lon="-0.6247175056492137"><ele>96.0</ele><time>2026-05-03T09:53:42Z</time></trkpt><trkpt lat="43.40456797691385" lon="-0.6246482561778849"><ele>96.0</ele><time>2026-05-03T09:53:43Z</time></trkpt><trkpt lat="43.404510042701475" lon="-0.624584051223591"><ele>95.99999999999999</ele><time>2026-05-03T09:53:44Z</time></trkpt><trkpt lat="43.40445277245275" lon="-0.6245179931619479"><ele>96.0</ele><time>2026-05-03T09:53:45Z</time></trkpt><trkpt lat="43.40439989647575" lon="-0.6244398580154283"><ele>95.85714285714285</ele><time>2026-05-03T09:53:46Z</time></trkpt><trkpt lat="43.40433802080122" lon="-0.624387543317837"><ele>95.71428571428571</ele><time>2026-05-03T09:53:47Z</time></trkpt><trkpt lat="43.404281105992844" lon="-0.624324050866834"><ele>95.57142857142857</ele><time>2026-05-03T09:53:48Z</time></trkpt><trkpt lat="43.40422468112425" lon="-0.6242592053050416"><ele>95.42857142857142</ele><time>2026-05-03T09:53:49Z</time></trkpt><trkpt lat="43.40416926702492" lon="-0.6241950089383801"><ele>95.28571428571429</ele><time>2026-05-03T09:53:50Z</time></trkpt><trkpt lat="43.40411262411238" lon="-0.6241311858223694"><ele>95.14285714285714</ele><time>2026-05-03T09:53:51Z</time></trkpt><trkpt lat="43.4040583188994" lon="-0.6240685170203922"><ele>95.0</ele><time>2026-05-03T09:53:52Z</time></trkpt><trkpt lat="43.403998491226595" lon="-0.6240091544988932"><ele>95.0</ele><time>2026-05-03T09:53:53Z</time></trkpt><trkpt lat="43.403943655375194" lon="-0.6239456616974927"><ele>95.0</ele><time>2026-05-03T09:53:54Z</time></trkpt><trkpt lat="43.40388712550578" lon="-0.6238814883622412"><ele>95.0</ele><time>2026-05-03T09:53:55Z</time></trkpt><trkpt lat="43.40382873800362" lon="-0.6238007702057371"><ele>95.0</ele><time>2026-05-03T09:53:56Z</time></trkpt><trkpt lat="43.403769425153236" lon="-0.6237512671988661"><ele>95.0</ele><time>2026-05-03T09:53:57Z</time></trkpt><trkpt lat="43.40370718093628" lon="-0.6236941558434246"><ele>95.0</ele><time>2026-05-03T09:53:58Z</time></trkpt><trkpt lat="43.403647789266266" lon="-0.6236263516976627"><ele>95.0</ele><time>2026-05-03T09:53:59Z</time></trkpt><trkpt lat="43.40358729804467" lon="-0.6235550033402835"><ele>95.16666666666667</ele><time>2026-05-03T09:54:00Z</time></trkpt><trkpt lat="43.403523201449744" lon="-0.6234815793896283"><ele>95.33333333333334</ele><time>2026-05-03T09:54:01Z</time></trkpt><trkpt lat="43.40346006599648" lon="-0.6234161472202906"><ele>95.5</ele><time>2026-05-03T09:54:02Z</time></trkpt><trkpt lat="43.403395583271745" lon="-0.6233499656578053"><ele>95.66666666666667</ele><time>2026-05-03T09:54:03Z</time></trkpt><trkpt lat="43.40333094972997" lon="-0.6232827236648991"><ele>95.83333333333333</ele><time>2026-05-03T09:54:04Z</time></trkpt><trkpt lat="43.40326290651614" lon="-0.6232172322458034"><ele>96.0</ele><time>2026-05-03T09:54:05Z</time></trkpt><trkpt lat="43.403196359426026" lon="-0.6231445433747357"><ele>96.0</ele><time>2026-05-03T09:54:06Z</time></trkpt><trkpt lat="43.403133515129234" lon="-0.6230761000738405"><ele>96.0</ele><time>2026-05-03T09:54:07Z</time></trkpt><trkpt lat="43.403070976916744" lon="-0.6230077505166732"><ele>96.0</ele><time>2026-05-03T09:54:08Z</time></trkpt><trkpt lat="43.40300781200151" lon="-0.6229385783497243"><ele>96.0</ele><time>2026-05-03T09:54:09Z</time></trkpt><trkpt lat="43.4029481496495" lon="-0.6228680612895695"><ele>96.0</ele><time>2026-05-03T09:54:10Z</time></trkpt><trkpt lat="43.40288817298733" lon="-0.6227998635713604"><ele>96.0</ele><time>2026-05-03T09:54:11Z</time></trkpt><trkpt lat="43.40282984847619" lon="-0.6227293153394394"><ele>96.16666666666667</ele><time>2026-05-03T09:54:12Z</time></trkpt><trkpt lat="43.40276918445198" lon="-0.6226666697895662"><ele>96.33333333333334</ele><time>2026-05-03T09:54:13Z</time></trkpt><trkpt lat="43.402707562807166" lon="-0.6225989073302941"><ele>96.5</ele><time>2026-05-03T09:54:14Z</time></trkpt><trkpt lat="43.40264931189881" lon="-0.6225304677737101"><ele>96.66666666666667</ele><time>2026-05-03T09:54:15Z</time></trkpt><trkpt lat="43.40258988864104" lon="-0.6224623971472193"><ele>96.83333333333334</ele><time>2026-05-03T09:54:16Z</time></trkpt><trkpt lat="43.40252766576463" lon="-0.6223992124216168"><ele>97.0</ele><time>2026-05-03T09:54:17Z</time></trkpt><trkpt lat="43.402469305705125" lon="-0.6223291193595797"><ele>97.00000000000001</ele><time>2026-05-03T09:54:18Z</time></trkpt><trkpt lat="43.402410677119896" lon="-0.622265047634244"><ele>97.0</ele><time>2026-05-03T09:54:19Z</time></trkpt><trkpt lat="43.40235293690599" lon="-0.6221992222905137"><ele>97.0</ele><time>2026-05-03T09:54:20Z</time></trkpt><trkpt lat="43.40229235010141" lon="-0.6221344434318021"><ele>97.0</ele><time>2026-05-03T09:54:21Z</time></trkpt><trkpt lat="43.402234782045426" lon="-0.6220678456116222"><ele>97.00000000000001</ele><time>2026-05-03T09:54:22Z</time></trkpt><trkpt lat="43.40217469025609" lon="-0.6220024812153744"><ele>97.0</ele><time>2026-05-03T09:54:23Z</time></trkpt><trkpt lat="43.402116778644555" lon="-0.6219374378891052"><ele>96.83333333333334</ele><time>2026-05-03T09:54:24Z</time></trkpt><trkpt lat="43.402057033617524" lon="-0.621872407706739"><ele>96.66666666666667</ele><time>2026-05-03T09:54:25Z</time></trkpt><trkpt lat="43.40199907433509" lon="-0.6218048755428132"><ele>96.5</ele><time>2026-05-03T09:54:26Z</time></trkpt><trkpt lat="43.40194122311165" lon="-0.6217395773784186"><ele>96.33333333333334</ele><time>2026-05-03T09:54:27Z</time></trkpt><trkpt lat="43.401882083700514" lon="-0.6216740456114215"><ele>96.16666666666667</ele><time>2026-05-03T09:54:28Z</time></trkpt><trkpt lat="43.40182298967605" lon="-0.6216096554086685"><ele>96.0</ele><time>2026-05-03T09:54:29Z</time></trkpt><trkpt lat="43.401762464545406" lon="-0.6215452095993659"><ele>96.0</ele><time>2026-05-03T09:54:30Z</time></trkpt><trkpt lat="43.40170102175606" lon="-0.6214790079735564"><ele>96.0</ele><time>2026-05-03T09:54:31Z</time></trkpt><trkpt lat="43.401642617221654" lon="-0.6214100112642483"><ele>96.0</ele><time>2026-05-03T09:54:32Z</time></trkpt><trkpt lat="43.401585078531994" lon="-0.6213438803925274"><ele>96.0</ele><time>2026-05-03T09:54:33Z</time></trkpt><trkpt lat="43.401524546885774" lon="-0.6212817574808314"><ele>96.0</ele><time>2026-05-03T09:54:34Z</time></trkpt><trkpt lat="43.401464027193356" lon="-0.6212170054009823"><ele>96.0</ele><time>2026-05-03T09:54:35Z</time></trkpt><trkpt lat="43.40140388695248" lon="-0.6211532656905544"><ele>96.0</ele><time>2026-05-03T09:54:36Z</time></trkpt><trkpt lat="43.40134672531849" lon="-0.6210864951971903"><ele>96.0</ele><time>2026-05-03T09:54:37Z</time></trkpt><trkpt lat="43.40128707166111" lon="-0.6210245604799014"><ele>96.0</ele><time>2026-05-03T09:54:38Z</time></trkpt><trkpt lat="43.401227769791554" lon="-0.6209583640422675"><ele>96.0</ele><time>2026-05-03T09:54:39Z</time></trkpt><trkpt lat="43.4011698713737" lon="-0.6208926310894074"><ele>96.0</ele><time>2026-05-03T09:54:40Z</time></trkpt><trkpt lat="43.40110824731053" lon="-0.6208323440987719"><ele>96.0</ele><time>2026-05-03T09:54:41Z</time></trkpt><trkpt lat="43.401045882640645" lon="-0.6207760913913276"><ele>96.16666666666667</ele><time>2026-05-03T09:54:42Z</time></trkpt><trkpt lat="43.400980311478605" lon="-0.6207195422352455"><ele>96.33333333333334</ele><time>2026-05-03T09:54:43Z</time></trkpt><trkpt lat="43.40091540256973" lon="-0.620668461274299"><ele>96.5</ele><time>2026-05-03T09:54:44Z</time></trkpt><trkpt lat="43.40084813450147" lon="-0.620618766155436"><ele>96.66666666666667</ele><time>2026-05-03T09:54:45Z</time></trkpt><trkpt lat="43.40078771559302" lon="-0.620562875628878"><ele>96.83333333333334</ele><time>2026-05-03T09:54:46Z</time></trkpt><trkpt lat="43.40072894366825" lon="-0.620503196682693"><ele>97.0</ele><time>2026-05-03T09:54:47Z</time></trkpt><trkpt lat="43.400665831345776" lon="-0.6204452879825189"><ele>97.0</ele><time>2026-05-03T09:54:48Z</time></trkpt><trkpt lat="43.4006044448966" lon="-0.6203933852380935"><ele>97.0</ele><time>2026-05-03T09:54:49Z</time></trkpt><trkpt lat="43.40054752135801" lon="-0.6203410090921785"><ele>97.0</ele><time>2026-05-03T09:54:50Z</time></trkpt><trkpt lat="43.40048817694494" lon="-0.6202896384815632"><ele>97.0</ele><time>2026-05-03T09:54:51Z</time></trkpt><trkpt lat="43.400428740036254" lon="-0.620239675345697"><ele>97.0</ele><time>2026-05-03T09:54:52Z</time></trkpt><trkpt lat="43.400369562516715" lon="-0.620189723366994"><ele>97.0</ele><time>2026-05-03T09:54:53Z</time></trkpt><trkpt lat="43.400311607025216" lon="-0.6201406596325457"><ele>97.0</ele><time>2026-05-03T09:54:54Z</time></trkpt><trkpt lat="43.400251893553346" lon="-0.6200917289178595"><ele>97.28571428571428</ele><time>2026-05-03T09:54:55Z</time></trkpt><trkpt lat="43.400193561169196" lon="-0.6200426915970599"><ele>97.57142857142858</ele><time>2026-05-03T09:54:56Z</time></trkpt><trkpt lat="43.40013858570794" lon="-0.6199902792428054"><ele>97.85714285714286</ele><time>2026-05-03T09:54:57Z</time></trkpt><trkpt lat="43.40008110353606" lon="-0.6199377554826785"><ele>98.14285714285714</ele><time>2026-05-03T09:54:58Z</time></trkpt><trkpt lat="43.40002144303759" lon="-0.6198895194032388"><ele>98.42857142857142</ele><time>2026-05-03T09:54:59Z</time></trkpt><trkpt lat="43.39996663767674" lon="-0.619839551060004"><ele>98.71428571428572</ele><time>2026-05-03T09:55:00Z</time></trkpt><trkpt lat="43.399909485030925" lon="-0.6197935410156493"><ele>99.0</ele><time>2026-05-03T09:55:01Z</time></trkpt><trkpt lat="43.399853903247326" lon="-0.6197443497592823"><ele>99.0</ele><time>2026-05-03T09:55:02Z</time></trkpt><trkpt lat="43.3997982980033" lon="-0.6196969486226039"><ele>99.0</ele><time>2026-05-03T09:55:03Z</time></trkpt><trkpt lat="43.39974501833476" lon="-0.619649255296529"><ele>99.0</ele><time>2026-05-03T09:55:04Z</time></trkpt><trkpt lat="43.39969063220769" lon="-0.6196032663520049"><ele>99.0</ele><time>2026-05-03T09:55:05Z</time></trkpt><trkpt lat="43.39958143040453" lon="-0.6195073486659476"><ele>99.0</ele><time>2026-05-03T09:55:07Z</time></trkpt><trkpt lat="43.39952663910646" lon="-0.619458370038269"><ele>99.0</ele><time>2026-05-03T09:55:08Z</time></trkpt><trkpt lat="43.39947259943055" lon="-0.6194106509647341"><ele>99.14285714285715</ele><time>2026-05-03T09:55:09Z</time></trkpt><trkpt lat="43.3994157171371" lon="-0.6193639135374741"><ele>99.28571428571428</ele><time>2026-05-03T09:55:10Z</time></trkpt><trkpt lat="43.399361643945774" lon="-0.6193097646053831"><ele>99.42857142857143</ele><time>2026-05-03T09:55:11Z</time></trkpt><trkpt lat="43.39930654345626" lon="-0.6192596498180503"><ele>99.57142857142858</ele><time>2026-05-03T09:55:12Z</time></trkpt><trkpt lat="43.399251643123264" lon="-0.6192110022356833"><ele>99.71428571428572</ele><time>2026-05-03T09:55:13Z</time></trkpt><trkpt lat="43.39919301953844" lon="-0.6191695444997921"><ele>99.85714285714286</ele><time>2026-05-03T09:55:14Z</time></trkpt><trkpt lat="43.39913370462585" lon="-0.6191193774899532"><ele>100.0</ele><time>2026-05-03T09:55:15Z</time></trkpt><trkpt lat="43.3990766942988" lon="-0.6190680158948945"><ele>100.00000000000001</ele><time>2026-05-03T09:55:16Z</time></trkpt><trkpt lat="43.39902085595271" lon="-0.6190118565814982"><ele>100.0</ele><time>2026-05-03T09:55:17Z</time></trkpt><trkpt lat="43.398965875551546" lon="-0.6189578079520862"><ele>100.0</ele><time>2026-05-03T09:55:18Z</time></trkpt><trkpt lat="43.39890735437932" lon="-0.6189086822455417"><ele>100.0</ele><time>2026-05-03T09:55:19Z</time></trkpt><trkpt lat="43.39884533073765" lon="-0.6188617966367784"><ele>100.0</ele><time>2026-05-03T09:55:20Z</time></trkpt><trkpt lat="43.39879362735719" lon="-0.6188040896361189"><ele>100.00000000000001</ele><time>2026-05-03T09:55:21Z</time></trkpt><trkpt lat="43.398740522780344" lon="-0.6187525613352568"><ele>100.0</ele><time>2026-05-03T09:55:22Z</time></trkpt><trkpt lat="43.39869132533115" lon="-0.6186971077380908"><ele>100.00000000000001</ele><time>2026-05-03T09:55:23Z</time></trkpt><trkpt lat="43.39862601808974" lon="-0.6186533883244889"><ele>100.0</ele><time>2026-05-03T09:55:24Z</time></trkpt><trkpt lat="43.398569978924094" lon="-0.6185991237693539"><ele>100.0</ele><time>2026-05-03T09:55:25Z</time></trkpt><trkpt lat="43.3985146979131" lon="-0.6185458619200077"><ele>100.0</ele><time>2026-05-03T09:55:26Z</time></trkpt><trkpt lat="43.398460146452216" lon="-0.6184893466946865"><ele>100.0</ele><time>2026-05-03T09:55:27Z</time></trkpt><trkpt lat="43.3984077007304" lon="-0.6184283351250244"><ele>100.00000000000001</ele><time>2026-05-03T09:55:28Z</time></trkpt><trkpt lat="43.39834800245074" lon="-0.618365463261857"><ele>100.0</ele><time>2026-05-03T09:55:29Z</time></trkpt><trkpt lat="43.3983001014984" lon="-0.6183039992893264"><ele>100.14285714285715</ele><time>2026-05-03T09:55:30Z</time></trkpt><trkpt lat="43.398245040748634" lon="-0.618249876916357"><ele>100.28571428571429</ele><time>2026-05-03T09:55:31Z</time></trkpt><trkpt lat="43.39819614687795" lon="-0.6181842314135608"><ele>100.42857142857143</ele><time>2026-05-03T09:55:32Z</time></trkpt><trkpt lat="43.398154054059916" lon="-0.6181087726933308"><ele>100.57142857142858</ele><time>2026-05-03T09:55:33Z</time></trkpt><trkpt lat="43.39810690785331" lon="-0.6180385439776411"><ele>100.71428571428571</ele><time>2026-05-03T09:55:34Z</time></trkpt><trkpt lat="43.39806007745904" lon="-0.6179683286668491"><ele>100.85714285714286</ele><time>2026-05-03T09:55:35Z</time></trkpt><trkpt lat="43.39801338718209" lon="-0.6178964423328428"><ele>101.0</ele><time>2026-05-03T09:55:36Z</time></trkpt><trkpt lat="43.39796557448072" lon="-0.6178240294160148"><ele>100.99999999999999</ele><time>2026-05-03T09:55:37Z</time></trkpt><trkpt lat="43.39792094976976" lon="-0.6177477667255629"><ele>101.0</ele><time>2026-05-03T09:55:38Z</time></trkpt><trkpt lat="43.397879381892054" lon="-0.6176722903474974"><ele>101.0</ele><time>2026-05-03T09:55:39Z</time></trkpt><trkpt lat="43.39783519933405" lon="-0.617592474851241"><ele>101.0</ele><time>2026-05-03T09:55:40Z</time></trkpt><trkpt lat="43.39779286807542" lon="-0.6175097286635164"><ele>100.99999999999999</ele><time>2026-05-03T09:55:41Z</time></trkpt><trkpt lat="43.39770137824872" lon="-0.6173646252823867"><ele>101.0</ele><time>2026-05-03T09:55:43Z</time></trkpt><trkpt lat="43.397655212406804" lon="-0.6172873712687037"><ele>101.0</ele><time>2026-05-03T09:55:44Z</time></trkpt><trkpt lat="43.3976102935167" lon="-0.6172095935353835"><ele>101.0</ele><time>2026-05-03T09:55:45Z</time></trkpt><trkpt lat="43.39756477740991" lon="-0.6171329691634944"><ele>101.0</ele><time>2026-05-03T09:55:46Z</time></trkpt><trkpt lat="43.39752030445349" lon="-0.617053839305552"><ele>101.0</ele><time>2026-05-03T09:55:47Z</time></trkpt><trkpt lat="43.39748227738155" lon="-0.6169717130706264"><ele>101.0</ele><time>2026-05-03T09:55:48Z</time></trkpt><trkpt lat="43.39744304044482" lon="-0.6168900444724685"><ele>101.0</ele><time>2026-05-03T09:55:49Z</time></trkpt><trkpt lat="43.39740474433043" lon="-0.6168085182875513"><ele>101.0</ele><time>2026-05-03T09:55:50Z</time></trkpt><trkpt lat="43.39736646300056" lon="-0.6167271263608981"><ele>100.85714285714286</ele><time>2026-05-03T09:55:51Z</time></trkpt><trkpt lat="43.397328358903366" lon="-0.6166495198871479"><ele>100.71428571428571</ele><time>2026-05-03T09:55:52Z</time></trkpt><trkpt lat="43.39729181504465" lon="-0.6165748990772693"><ele>100.57142857142858</ele><time>2026-05-03T09:55:53Z</time></trkpt><trkpt lat="43.39725129869126" lon="-0.6164990281349446"><ele>100.42857142857143</ele><time>2026-05-03T09:55:54Z</time></trkpt><trkpt lat="43.39720716001649" lon="-0.6164227722625475"><ele>100.28571428571429</ele><time>2026-05-03T09:55:55Z</time></trkpt><trkpt lat="43.39716329897165" lon="-0.616350212088015"><ele>100.14285714285715</ele><time>2026-05-03T09:55:56Z</time></trkpt><trkpt lat="43.39711898098942" lon="-0.6162734319065627"><ele>100.0</ele><time>2026-05-03T09:55:57Z</time></trkpt><trkpt lat="43.39707605636804" lon="-0.616198058298947"><ele>100.28571428571429</ele><time>2026-05-03T09:55:58Z</time></trkpt><trkpt lat="43.397034076453366" lon="-0.6161198457504615"><ele>100.57142857142857</ele><time>2026-05-03T09:55:59Z</time></trkpt><trkpt lat="43.39699172268927" lon="-0.6160403187834315"><ele>100.85714285714286</ele><time>2026-05-03T09:56:00Z</time></trkpt><trkpt lat="43.39694740257292" lon="-0.6159609932359612"><ele>101.14285714285714</ele><time>2026-05-03T09:56:01Z</time></trkpt><trkpt lat="43.39690446385352" lon="-0.6158850986028059"><ele>101.42857142857143</ele><time>2026-05-03T09:56:02Z</time></trkpt><trkpt lat="43.39686269674412" lon="-0.6158037382744282"><ele>101.71428571428572</ele><time>2026-05-03T09:56:03Z</time></trkpt><trkpt lat="43.39681882419663" lon="-0.6157287078692765"><ele>102.0</ele><time>2026-05-03T09:56:04Z</time></trkpt><trkpt lat="43.39677459003083" lon="-0.615647724934289"><ele>102.0</ele><time>2026-05-03T09:56:05Z</time></trkpt><trkpt lat="43.39672930280849" lon="-0.615567023471495"><ele>102.0</ele><time>2026-05-03T09:56:06Z</time></trkpt><trkpt lat="43.396682846723095" lon="-0.6154892482670313"><ele>102.0</ele><time>2026-05-03T09:56:07Z</time></trkpt><trkpt lat="43.39663838739698" lon="-0.6154076442871014"><ele>102.0</ele><time>2026-05-03T09:56:08Z</time></trkpt><trkpt lat="43.396595018982985" lon="-0.6153255522886811"><ele>102.0</ele><time>2026-05-03T09:56:09Z</time></trkpt><trkpt lat="43.396549414983056" lon="-0.6152468403904895"><ele>102.0</ele><time>2026-05-03T09:56:10Z</time></trkpt><trkpt lat="43.3965029155503" lon="-0.6151704266604947"><ele>102.0</ele><time>2026-05-03T09:56:11Z</time></trkpt><trkpt lat="43.39645734671975" lon="-0.6150908412302958"><ele>102.14285714285714</ele><time>2026-05-03T09:56:12Z</time></trkpt><trkpt lat="43.39641599129558" lon="-0.6150087528245549"><ele>102.28571428571429</ele><time>2026-05-03T09:56:13Z</time></trkpt><trkpt lat="43.396367944966244" lon="-0.6149303838918954"><ele>102.42857142857142</ele><time>2026-05-03T09:56:14Z</time></trkpt><trkpt lat="43.396325325536615" lon="-0.6148495819798739"><ele>102.57142857142857</ele><time>2026-05-03T09:56:15Z</time></trkpt><trkpt lat="43.39628247847451" lon="-0.614770800864319"><ele>102.71428571428571</ele><time>2026-05-03T09:56:16Z</time></trkpt><trkpt lat="43.3962416867072" lon="-0.6146812837591755"><ele>102.85714285714285</ele><time>2026-05-03T09:56:17Z</time></trkpt><trkpt lat="43.396197137642176" lon="-0.6145980429415517"><ele>103.0</ele><time>2026-05-03T09:56:18Z</time></trkpt><trkpt lat="43.39614643096942" lon="-0.6145210734128073"><ele>103.33333333333334</ele><time>2026-05-03T09:56:19Z</time></trkpt><trkpt lat="43.3961014233124" lon="-0.6144351235227945"><ele>103.66666666666667</ele><time>2026-05-03T09:56:20Z</time></trkpt><trkpt lat="43.39605974982493" lon="-0.6143566715627387"><ele>104.0</ele><time>2026-05-03T09:56:21Z</time></trkpt><trkpt lat="43.396008810554285" lon="-0.6142721624227774"><ele>104.33333333333334</ele><time>2026-05-03T09:56:22Z</time></trkpt><trkpt lat="43.39595989341776" lon="-0.6141913946702922"><ele>104.66666666666667</ele><time>2026-05-03T09:56:23Z</time></trkpt><trkpt lat="43.395912824602036" lon="-0.6141060360297316"><ele>105.0</ele><time>2026-05-03T09:56:24Z</time></trkpt><trkpt lat="43.395864763890046" lon="-0.614023422133029"><ele>105.0</ele><time>2026-05-03T09:56:25Z</time></trkpt><trkpt lat="43.3958192640419" lon="-0.6139387742473557"><ele>105.0</ele><time>2026-05-03T09:56:26Z</time></trkpt><trkpt lat="43.39577056447073" lon="-0.61385819656784"><ele>105.0</ele><time>2026-05-03T09:56:27Z</time></trkpt><trkpt lat="43.395723278096874" lon="-0.6137758066644492"><ele>105.0</ele><time>2026-05-03T09:56:28Z</time></trkpt><trkpt lat="43.39567903408591" lon="-0.6136919855284882"><ele>105.0</ele><time>2026-05-03T09:56:29Z</time></trkpt><trkpt lat="43.39563341285743" lon="-0.6136076910088988"><ele>105.0</ele><time>2026-05-03T09:56:30Z</time></trkpt><trkpt lat="43.39558487797675" lon="-0.6135249246395089"><ele>104.85714285714286</ele><time>2026-05-03T09:56:31Z</time></trkpt><trkpt lat="43.39553982442393" lon="-0.6134424408177325"><ele>104.71428571428572</ele><time>2026-05-03T09:56:32Z</time></trkpt><trkpt lat="43.39549439269065" lon="-0.6133600896337911"><ele>104.57142857142857</ele><time>2026-05-03T09:56:33Z</time></trkpt><trkpt lat="43.395448847758054" lon="-0.6132808074658679"><ele>104.42857142857143</ele><time>2026-05-03T09:56:34Z</time></trkpt><trkpt lat="43.39540370351569" lon="-0.6131960793801997"><ele>104.28571428571429</ele><time>2026-05-03T09:56:35Z</time></trkpt><trkpt lat="43.39535428884085" lon="-0.6131196682868325"><ele>104.14285714285714</ele><time>2026-05-03T09:56:36Z</time></trkpt><trkpt lat="43.39531218191437" lon="-0.613039227381032"><ele>104.0</ele><time>2026-05-03T09:56:37Z</time></trkpt><trkpt lat="43.39526444227556" lon="-0.6129567933971699"><ele>103.99999999999999</ele><time>2026-05-03T09:56:38Z</time></trkpt><trkpt lat="43.39522124259252" lon="-0.6128715925709789"><ele>104.0</ele><time>2026-05-03T09:56:38.999Z</time></trkpt><trkpt lat="43.39517583420692" lon="-0.612787702823822"><ele>104.0</ele><time>2026-05-03T09:56:39.999Z</time></trkpt><trkpt lat="43.395128219283244" lon="-0.612706698748381"><ele>104.0</ele><time>2026-05-03T09:56:40.999Z</time></trkpt><trkpt lat="43.39508047073635" lon="-0.6126232018374295"><ele>103.99999999999999</ele><time>2026-05-03T09:56:41.999Z</time></trkpt><trkpt lat="43.39503515839306" lon="-0.6125392889111968"><ele>104.0</ele><time>2026-05-03T09:56:42.999Z</time></trkpt><trkpt lat="43.39498908714462" lon="-0.6124531222038754"><ele>103.99999999999999</ele><time>2026-05-03T09:56:43.999Z</time></trkpt><trkpt lat="43.39494382685635" lon="-0.6123697076457494"><ele>104.0</ele><time>2026-05-03T09:56:44.999Z</time></trkpt><trkpt lat="43.39489554387539" lon="-0.6122876364567194"><ele>104.0</ele><time>2026-05-03T09:56:45.999Z</time></trkpt><trkpt lat="43.39484503189833" lon="-0.612203800774243"><ele>104.0</ele><time>2026-05-03T09:56:46.999Z</time></trkpt><trkpt lat="43.39479774674846" lon="-0.6121214064098793"><ele>103.99999999999999</ele><time>2026-05-03T09:56:47.999Z</time></trkpt><trkpt lat="43.39475187877028" lon="-0.6120368470734452"><ele>104.0</ele><time>2026-05-03T09:56:48.999Z</time></trkpt><trkpt lat="43.394704950593045" lon="-0.611954445257787"><ele>104.49999999999999</ele><time>2026-05-03T09:56:49.999Z</time></trkpt><trkpt lat="43.39465772294823" lon="-0.6118707719237017"><ele>105.0</ele><time>2026-05-03T09:56:50.999Z</time></trkpt><trkpt lat="43.394608873790176" lon="-0.611786490736612"><ele>105.5</ele><time>2026-05-03T09:56:51.999Z</time></trkpt><trkpt lat="43.39455859737634" lon="-0.6117031637249256"><ele>106.0</ele><time>2026-05-03T09:56:52.999Z</time></trkpt><trkpt lat="43.39450754325289" lon="-0.6116235148381137"><ele>106.49999999999999</ele><time>2026-05-03T09:56:53.999Z</time></trkpt><trkpt lat="43.39445503278512" lon="-0.6115487664877826"><ele>107.0</ele><time>2026-05-03T09:56:54.999Z</time></trkpt><trkpt lat="43.39440383719687" lon="-0.6114722200876087"><ele>106.99999999999999</ele><time>2026-05-03T09:56:55.999Z</time></trkpt><trkpt lat="43.394346256834886" lon="-0.6114041804313938"><ele>107.0</ele><time>2026-05-03T09:56:56.999Z</time></trkpt><trkpt lat="43.39428798452183" lon="-0.6113369838923801"><ele>107.0</ele><time>2026-05-03T09:56:57.999Z</time></trkpt><trkpt lat="43.3942284434127" lon="-0.6112709277485363"><ele>107.0</ele><time>2026-05-03T09:56:58.999Z</time></trkpt><trkpt lat="43.39417138922339" lon="-0.6112020085180239"><ele>106.99999999999999</ele><time>2026-05-03T09:56:59.999Z</time></trkpt><trkpt lat="43.39410987328755" lon="-0.6111440003632902"><ele>107.0</ele><time>2026-05-03T09:57:00.999Z</time></trkpt><trkpt lat="43.394046957812925" lon="-0.6110864156065374"><ele>106.85714285714286</ele><time>2026-05-03T09:57:01.999Z</time></trkpt><trkpt lat="43.39398337214381" lon="-0.611021765037441"><ele>106.71428571428572</ele><time>2026-05-03T09:57:02.999Z</time></trkpt><trkpt lat="43.393924307828044" lon="-0.6109731679206114"><ele>106.57142857142858</ele><time>2026-05-03T09:57:03.999Z</time></trkpt><trkpt lat="43.393857941235225" lon="-0.6109228585705629"><ele>106.42857142857143</ele><time>2026-05-03T09:57:04.999Z</time></trkpt><trkpt lat="43.39379195740752" lon="-0.6108739981428658"><ele>106.28571428571428</ele><time>2026-05-03T09:57:05.999Z</time></trkpt><trkpt lat="43.39372704737581" lon="-0.6108248337879312"><ele>106.14285714285715</ele><time>2026-05-03T09:57:06.999Z</time></trkpt><trkpt lat="43.393659988867405" lon="-0.6107808245875022"><ele>106.0</ele><time>2026-05-03T09:57:07.999Z</time></trkpt><trkpt lat="43.3935912505438" lon="-0.6107438354716342"><ele>106.00000000000001</ele><time>2026-05-03T09:57:08.999Z</time></trkpt><trkpt lat="43.393518397825126" lon="-0.6107084015964821"><ele>106.0</ele><time>2026-05-03T09:57:09.999Z</time></trkpt><trkpt lat="43.39344911567484" lon="-0.6106701869336761"><ele>106.0</ele><time>2026-05-03T09:57:10.999Z</time></trkpt><trkpt lat="43.39337883259618" lon="-0.610642346673239"><ele>106.0</ele><time>2026-05-03T09:57:11.999Z</time></trkpt><trkpt lat="43.39330801914573" lon="-0.6106121024452625"><ele>106.00000000000001</ele><time>2026-05-03T09:57:12.999Z</time></trkpt><trkpt lat="43.39323564943581" lon="-0.6105802272182258"><ele>106.0</ele><time>2026-05-03T09:57:13.999Z</time></trkpt><trkpt lat="43.39316334876838" lon="-0.6105466267463174"><ele>106.00000000000001</ele><time>2026-05-03T09:57:14.999Z</time></trkpt><trkpt lat="43.39309087883626" lon="-0.6105236998785133"><ele>106.0</ele><time>2026-05-03T09:57:15.999Z</time></trkpt><trkpt lat="43.39301790083508" lon="-0.6105079043414192"><ele>106.0</ele><time>2026-05-03T09:57:16.999Z</time></trkpt><trkpt lat="43.392944405827706" lon="-0.6104924912701593"><ele>106.0</ele><time>2026-05-03T09:57:17.999Z</time></trkpt><trkpt lat="43.392870349185415" lon="-0.6104790264362566"><ele>106.00000000000001</ele><time>2026-05-03T09:57:18.999Z</time></trkpt><trkpt lat="43.39279660882776" lon="-0.6104683683117949"><ele>106.0</ele><time>2026-05-03T09:57:19.999Z</time></trkpt><trkpt lat="43.39271362221861" lon="-0.6104536784775786"><ele>105.57142857142857</ele><time>2026-05-03T09:57:20.999Z</time></trkpt><trkpt lat="43.392646003343124" lon="-0.6104512870508796"><ele>105.14285714285714</ele><time>2026-05-03T09:57:21.999Z</time></trkpt><trkpt lat="43.392570196514015" lon="-0.6104366614718381"><ele>104.71428571428571</ele><time>2026-05-03T09:57:22.999Z</time></trkpt><trkpt lat="43.392494750464536" lon="-0.6104238872378913"><ele>104.28571428571428</ele><time>2026-05-03T09:57:23.999Z</time></trkpt><trkpt lat="43.392419455802035" lon="-0.6104148990698562"><ele>103.85714285714286</ele><time>2026-05-03T09:57:24.999Z</time></trkpt><trkpt lat="43.39234664341339" lon="-0.6104027746581859"><ele>103.42857142857142</ele><time>2026-05-03T09:57:25.999Z</time></trkpt><trkpt lat="43.39227173551342" lon="-0.6103910050856488"><ele>103.0</ele><time>2026-05-03T09:57:26.999Z</time></trkpt><trkpt lat="43.392197110866974" lon="-0.6103845932958182"><ele>102.99999999999999</ele><time>2026-05-03T09:57:27.999Z</time></trkpt><trkpt lat="43.39212739548646" lon="-0.6103762148650592"><ele>103.0</ele><time>2026-05-03T09:57:28.999Z</time></trkpt><trkpt lat="43.39204824199212" lon="-0.6103680347863026"><ele>103.0</ele><time>2026-05-03T09:57:29.999Z</time></trkpt><trkpt lat="43.39197495081252" lon="-0.6103626632929499"><ele>103.0</ele><time>2026-05-03T09:57:30.999Z</time></trkpt><trkpt lat="43.39190045673669" lon="-0.610351407339337"><ele>103.0</ele><time>2026-05-03T09:57:32Z</time></trkpt><trkpt lat="43.39182588383601" lon="-0.6103348826992542"><ele>102.99999999999999</ele><time>2026-05-03T09:57:33Z</time></trkpt><trkpt lat="43.39175052839645" lon="-0.6103234920153915"><ele>103.0</ele><time>2026-05-03T09:57:34Z</time></trkpt><trkpt lat="43.3916720720018" lon="-0.6103169839166023"><ele>103.33333333333334</ele><time>2026-05-03T09:57:35Z</time></trkpt><trkpt lat="43.39159889654077" lon="-0.6103033599762756"><ele>103.66666666666667</ele><time>2026-05-03T09:57:36Z</time></trkpt><trkpt lat="43.39152407083984" lon="-0.6102937887466676"><ele>104.0</ele><time>2026-05-03T09:57:37Z</time></trkpt><trkpt lat="43.39144887549402" lon="-0.6102869426408839"><ele>104.33333333333334</ele><time>2026-05-03T09:57:38Z</time></trkpt><trkpt lat="43.39137279362946" lon="-0.6102756853884237"><ele>104.66666666666667</ele><time>2026-05-03T09:57:39Z</time></trkpt><trkpt lat="43.3912994478646" lon="-0.6102673663102541"><ele>105.0</ele><time>2026-05-03T09:57:40Z</time></trkpt><trkpt lat="43.391224227564024" lon="-0.6102592823638258"><ele>105.0</ele><time>2026-05-03T09:57:41Z</time></trkpt><trkpt lat="43.391134689507155" lon="-0.6102559304482773"><ele>105.0</ele><time>2026-05-03T09:57:42Z</time></trkpt><trkpt lat="43.39100584025464" lon="-0.6102270344411374"><ele>105.0</ele><time>2026-05-03T09:57:44Z</time></trkpt><trkpt lat="43.390933579139706" lon="-0.6102192725841905"><ele>105.0</ele><time>2026-05-03T09:57:45Z</time></trkpt><trkpt lat="43.390862402121186" lon="-0.6102059478845687"><ele>105.0</ele><time>2026-05-03T09:57:46Z</time></trkpt><trkpt lat="43.3907916247859" lon="-0.610195231289106"><ele>105.0</ele><time>2026-05-03T09:57:47Z</time></trkpt><trkpt lat="43.39071954542038" lon="-0.6101882011105736"><ele>105.0</ele><time>2026-05-03T09:57:48Z</time></trkpt><trkpt lat="43.39064863801824" lon="-0.6101858161368923"><ele>105.0</ele><time>2026-05-03T09:57:49Z</time></trkpt><trkpt lat="43.3905762939363" lon="-0.6101753779569391"><ele>105.0</ele><time>2026-05-03T09:57:50Z</time></trkpt><trkpt lat="43.39050636288456" lon="-0.610162092019819"><ele>105.0</ele><time>2026-05-03T09:57:51Z</time></trkpt><trkpt lat="43.39043730745199" lon="-0.6101486961674013"><ele>105.0</ele><time>2026-05-03T09:57:52Z</time></trkpt><trkpt lat="43.39037116834202" lon="-0.6101398761719199"><ele>105.0</ele><time>2026-05-03T09:57:53Z</time></trkpt><trkpt lat="43.39030351156086" lon="-0.6101286096682217"><ele>105.0</ele><time>2026-05-03T09:57:54Z</time></trkpt><trkpt lat="43.39024032912431" lon="-0.610111807815087"><ele>105.0</ele><time>2026-05-03T09:57:55Z</time></trkpt><trkpt lat="43.39017745374806" lon="-0.6100960254236476"><ele>105.0</ele><time>2026-05-03T09:57:56Z</time></trkpt><trkpt lat="43.39011358039007" lon="-0.6100785634923175"><ele>105.0</ele><time>2026-05-03T09:57:57Z</time></trkpt><trkpt lat="43.39001137152292" lon="-0.6100716793032143"><ele>105.0</ele><time>2026-05-03T09:57:59Z</time></trkpt><trkpt lat="43.389944822636295" lon="-0.6100612436159302"><ele>105.0</ele><time>2026-05-03T09:58:01Z</time></trkpt><trkpt lat="43.38986053176142" lon="-0.6100480257702733"><ele>105.0</ele><time>2026-05-03T09:58:04Z</time></trkpt><trkpt lat="43.38977788843022" lon="-0.6099762453989303"><ele>105.0</ele><time>2026-05-03T09:58:07Z</time></trkpt><trkpt lat="43.38971658910908" lon="-0.6099247449620446"><ele>105.0</ele><time>2026-05-03T09:58:09Z</time></trkpt><trkpt lat="43.38968797277154" lon="-0.6097895706860705"><ele>105.0</ele><time>2026-05-03T09:58:11Z</time></trkpt><trkpt lat="43.38970349974918" lon="-0.6096485035443602"><ele>105.0</ele><time>2026-05-03T09:58:13Z</time></trkpt><trkpt lat="43.389732843983154" lon="-0.6095078911744758"><ele>105.0</ele><time>2026-05-03T09:58:15Z</time></trkpt><trkpt lat="43.38975493096488" lon="-0.609366885286734"><ele>104.5</ele><time>2026-05-03T09:58:17Z</time></trkpt><trkpt lat="43.389773825375784" lon="-0.609212333512149"><ele>104.0</ele><time>2026-05-03T09:58:19Z</time></trkpt><trkpt lat="43.38979387137737" lon="-0.6090551371589391"><ele>103.5</ele><time>2026-05-03T09:58:21Z</time></trkpt><trkpt lat="43.389829079403526" lon="-0.6088982338267597"><ele>103.0</ele><time>2026-05-03T09:58:23Z</time></trkpt><trkpt lat="43.389851132850424" lon="-0.6087320510812516"><ele>103.28571428571428</ele><time>2026-05-03T09:58:25Z</time></trkpt><trkpt lat="43.38986583145607" lon="-0.6086423156591418"><ele>103.57142857142857</ele><time>2026-05-03T09:58:26Z</time></trkpt><trkpt lat="43.38987939893047" lon="-0.6085535944904391"><ele>103.85714285714286</ele><time>2026-05-03T09:58:27Z</time></trkpt><trkpt lat="43.389890425831794" lon="-0.6084626551415371"><ele>104.14285714285714</ele><time>2026-05-03T09:58:28Z</time></trkpt><trkpt lat="43.38990444798629" lon="-0.608375982796106"><ele>104.42857142857143</ele><time>2026-05-03T09:58:29Z</time></trkpt><trkpt lat="43.3899199111948" lon="-0.6082769278379869"><ele>104.71428571428571</ele><time>2026-05-03T09:58:30Z</time></trkpt><trkpt lat="43.38993813912868" lon="-0.6081874440973897"><ele>105.0</ele><time>2026-05-03T09:58:31Z</time></trkpt><trkpt lat="43.38995011444479" lon="-0.6080931064425497"><ele>105.0</ele><time>2026-05-03T09:58:31.999Z</time></trkpt><trkpt lat="43.38996415005549" lon="-0.6079962672852056"><ele>105.0</ele><time>2026-05-03T09:58:32.999Z</time></trkpt><trkpt lat="43.38997637381234" lon="-0.6079029027976386"><ele>105.0</ele><time>2026-05-03T09:58:33.999Z</time></trkpt><trkpt lat="43.38998611005948" lon="-0.6078099656334154"><ele>105.0</ele><time>2026-05-03T09:58:34.999Z</time></trkpt><trkpt lat="43.38999645333715" lon="-0.6077219628272497"><ele>105.0</ele><time>2026-05-03T09:58:35.999Z</time></trkpt><trkpt lat="43.39000964680541" lon="-0.6076307941646234"><ele>105.0</ele><time>2026-05-03T09:58:36.999Z</time></trkpt><trkpt lat="43.39002568216864" lon="-0.6075437010614253"><ele>105.0</ele><time>2026-05-03T09:58:37.999Z</time></trkpt><trkpt lat="43.39003997865587" lon="-0.6074569265422174"><ele>105.14285714285714</ele><time>2026-05-03T09:58:38.999Z</time></trkpt><trkpt lat="43.39005067716201" lon="-0.607369318362178"><ele>105.28571428571428</ele><time>2026-05-03T09:58:39.999Z</time></trkpt><trkpt lat="43.39005844350861" lon="-0.6072799825704932"><ele>105.42857142857143</ele><time>2026-05-03T09:58:40.999Z</time></trkpt><trkpt lat="43.390069798088646" lon="-0.6071881093171035"><ele>105.57142857142857</ele><time>2026-05-03T09:58:41.999Z</time></trkpt><trkpt lat="43.39007949469923" lon="-0.6070957428385578"><ele>105.71428571428571</ele><time>2026-05-03T09:58:42.999Z</time></trkpt><trkpt lat="43.390088823786044" lon="-0.6070056878200145"><ele>105.85714285714286</ele><time>2026-05-03T09:58:43.999Z</time></trkpt><trkpt lat="43.39009531363026" lon="-0.6069146999863405"><ele>106.0</ele><time>2026-05-03T09:58:44.999Z</time></trkpt><trkpt lat="43.39009911544197" lon="-0.6068229345414488"><ele>105.57142857142857</ele><time>2026-05-03T09:58:45.999Z</time></trkpt><trkpt lat="43.390104760502865" lon="-0.6067321890573111"><ele>105.14285714285714</ele><time>2026-05-03T09:58:46.999Z</time></trkpt><trkpt lat="43.39011052846138" lon="-0.6066433044349102"><ele>104.71428571428571</ele><time>2026-05-03T09:58:47.999Z</time></trkpt><trkpt lat="43.390118387358385" lon="-0.6065542127217688"><ele>104.28571428571428</ele><time>2026-05-03T09:58:48.999Z</time></trkpt><trkpt lat="43.390125848107566" lon="-0.6064621862259574"><ele>103.85714285714286</ele><time>2026-05-03T09:58:49.999Z</time></trkpt><trkpt lat="43.39013515780417" lon="-0.6063721191181308"><ele>103.42857142857142</ele><time>2026-05-03T09:58:50.999Z</time></trkpt><trkpt lat="43.39014027812102" lon="-0.6062809678528268"><ele>103.0</ele><time>2026-05-03T09:58:51.999Z</time></trkpt><trkpt lat="43.390148953277475" lon="-0.6061921569392246"><ele>102.57142857142857</ele><time>2026-05-03T09:58:52.999Z</time></trkpt><trkpt lat="43.39016301112581" lon="-0.6061059826390381"><ele>102.14285714285714</ele><time>2026-05-03T09:58:53.999Z</time></trkpt><trkpt lat="43.39017030109272" lon="-0.6060186876206392"><ele>101.71428571428572</ele><time>2026-05-03T09:58:54.999Z</time></trkpt><trkpt lat="43.39017642402967" lon="-0.6059287891957588"><ele>101.28571428571428</ele><time>2026-05-03T09:58:55.999Z</time></trkpt><trkpt lat="43.390188957086984" lon="-0.6058398003309238"><ele>100.85714285714286</ele><time>2026-05-03T09:58:56.999Z</time></trkpt><trkpt lat="43.3902017556537" lon="-0.6057491544691818"><ele>100.42857142857143</ele><time>2026-05-03T09:58:57.999Z</time></trkpt><trkpt lat="43.390195593010894" lon="-0.6056578282138247"><ele>100.0</ele><time>2026-05-03T09:58:58.999Z</time></trkpt><trkpt lat="43.390220861661575" lon="-0.6055690816322494"><ele>100.00000000000001</ele><time>2026-05-03T09:58:59.999Z</time></trkpt><trkpt lat="43.39022606777586" lon="-0.6054775544987121"><ele>100.0</ele><time>2026-05-03T09:59:00.999Z</time></trkpt><trkpt lat="43.3902396120535" lon="-0.6053842624147191"><ele>100.0</ele><time>2026-05-03T09:59:01.999Z</time></trkpt><trkpt lat="43.39025424189501" lon="-0.6052929250014348"><ele>100.0</ele><time>2026-05-03T09:59:02.999Z</time></trkpt><trkpt lat="43.39026452299726" lon="-0.605201435441525"><ele>100.0</ele><time>2026-05-03T09:59:03.999Z</time></trkpt><trkpt lat="43.39027650624633" lon="-0.6051069465122072"><ele>100.00000000000001</ele><time>2026-05-03T09:59:04.999Z</time></trkpt><trkpt lat="43.39028818416786" lon="-0.6050114221687819"><ele>100.0</ele><time>2026-05-03T09:59:05.999Z</time></trkpt><trkpt lat="43.39030378526975" lon="-0.6049193661109579"><ele>100.14285714285715</ele><time>2026-05-03T09:59:06.999Z</time></trkpt><trkpt lat="43.390318796645566" lon="-0.6048305663349003"><ele>100.28571428571429</ele><time>2026-05-03T09:59:07.999Z</time></trkpt><trkpt lat="43.390336756161375" lon="-0.6047406646848148"><ele>100.42857142857143</ele><time>2026-05-03T09:59:08.999Z</time></trkpt><trkpt lat="43.39036308239804" lon="-0.6046582974524214"><ele>100.57142857142858</ele><time>2026-05-03T09:59:09.999Z</time></trkpt><trkpt lat="43.39038493264404" lon="-0.6045715702887778"><ele>100.71428571428571</ele><time>2026-05-03T09:59:10.999Z</time></trkpt><trkpt lat="43.3904162095912" lon="-0.6044863887095865"><ele>100.85714285714286</ele><time>2026-05-03T09:59:11.999Z</time></trkpt><trkpt lat="43.390444939757835" lon="-0.6044019306522553"><ele>101.0</ele><time>2026-05-03T09:59:12.999Z</time></trkpt><trkpt lat="43.390471099011826" lon="-0.6043192720532289"><ele>101.0</ele><time>2026-05-03T09:59:13.999Z</time></trkpt><trkpt lat="43.390501057595316" lon="-0.6042385619015226"><ele>101.0</ele><time>2026-05-03T09:59:14.999Z</time></trkpt><trkpt lat="43.39052618743487" lon="-0.6041494266783834"><ele>101.0</ele><time>2026-05-03T09:59:15.999Z</time></trkpt><trkpt lat="43.39054959753491" lon="-0.6040673326717371"><ele>101.0</ele><time>2026-05-03T09:59:16.999Z</time></trkpt><trkpt lat="43.39057473970572" lon="-0.6039834876914402"><ele>101.0</ele><time>2026-05-03T09:59:17.999Z</time></trkpt><trkpt lat="43.390604703043806" lon="-0.603900530271929"><ele>101.0</ele><time>2026-05-03T09:59:18.999Z</time></trkpt><trkpt lat="43.39063283664649" lon="-0.6038157031411734"><ele>101.0</ele><time>2026-05-03T09:59:19.999Z</time></trkpt><trkpt lat="43.39065954275099" lon="-0.6037299454381463"><ele>101.71428571428571</ele><time>2026-05-03T09:59:20.999Z</time></trkpt><trkpt lat="43.390687097774965" lon="-0.6036439034944613"><ele>102.42857142857142</ele><time>2026-05-03T09:59:21.999Z</time></trkpt><trkpt lat="43.39071308841728" lon="-0.6035548244860722"><ele>103.14285714285714</ele><time>2026-05-03T09:59:22.999Z</time></trkpt><trkpt lat="43.39074013559605" lon="-0.6034710821516829"><ele>103.85714285714286</ele><time>2026-05-03T09:59:23.999Z</time></trkpt><trkpt lat="43.390764461348134" lon="-0.6033828986736759"><ele>104.57142857142857</ele><time>2026-05-03T09:59:24.999Z</time></trkpt><trkpt lat="43.39078770995296" lon="-0.6032980081209122"><ele>105.28571428571429</ele><time>2026-05-03T09:59:25.999Z</time></trkpt><trkpt lat="43.390809031498605" lon="-0.6032107630813427"><ele>106.0</ele><time>2026-05-03T09:59:26.999Z</time></trkpt><trkpt lat="43.39083084437029" lon="-0.6031215363349048"><ele>106.0</ele><time>2026-05-03T09:59:27.999Z</time></trkpt><trkpt lat="43.39085196692044" lon="-0.6030280638402358"><ele>106.0</ele><time>2026-05-03T09:59:28.999Z</time></trkpt><trkpt lat="43.39086842666608" lon="-0.6029443106923675"><ele>106.0</ele><time>2026-05-03T09:59:29.999Z</time></trkpt><trkpt lat="43.39089075790169" lon="-0.6028555092760816"><ele>106.0</ele><time>2026-05-03T09:59:30.999Z</time></trkpt><trkpt lat="43.39091162653537" lon="-0.6027683537125146"><ele>106.0</ele><time>2026-05-03T09:59:31.999Z</time></trkpt><trkpt lat="43.390929956816024" lon="-0.6026838184954413"><ele>106.0</ele><time>2026-05-03T09:59:32.999Z</time></trkpt><trkpt lat="43.390947429532034" lon="-0.602590471703602"><ele>106.0</ele><time>2026-05-03T09:59:33.999Z</time></trkpt><trkpt lat="43.3909652298345" lon="-0.6025038041211871"><ele>106.14285714285715</ele><time>2026-05-03T09:59:34.999Z</time></trkpt><trkpt lat="43.390982292206026" lon="-0.6024117850906058"><ele>106.28571428571428</ele><time>2026-05-03T09:59:35.999Z</time></trkpt><trkpt lat="43.390998579981954" lon="-0.602320452305309"><ele>106.42857142857143</ele><time>2026-05-03T09:59:36.999Z</time></trkpt><trkpt lat="43.391020924085815" lon="-0.602232510323692"><ele>106.57142857142858</ele><time>2026-05-03T09:59:37.999Z</time></trkpt><trkpt lat="43.39104746569476" lon="-0.6021448906224225"><ele>106.71428571428572</ele><time>2026-05-03T09:59:38.999Z</time></trkpt><trkpt lat="43.39106857585975" lon="-0.60205660139153"><ele>106.85714285714286</ele><time>2026-05-03T09:59:39.999Z</time></trkpt><trkpt lat="43.39109030120256" lon="-0.6019681791123657"><ele>107.0</ele><time>2026-05-03T09:59:40.999Z</time></trkpt><trkpt lat="43.391109433024916" lon="-0.6018799061879175"><ele>107.00000000000001</ele><time>2026-05-03T09:59:41.999Z</time></trkpt><trkpt lat="43.39112728429706" lon="-0.601793045574775"><ele>107.0</ele><time>2026-05-03T09:59:42.999Z</time></trkpt><trkpt lat="43.39114627049157" lon="-0.6017047895194746"><ele>107.0</ele><time>2026-05-03T09:59:43.999Z</time></trkpt><trkpt lat="43.39116598058056" lon="-0.601619083846779"><ele>107.0</ele><time>2026-05-03T09:59:44.999Z</time></trkpt><trkpt lat="43.391189910358655" lon="-0.6015304477573273"><ele>107.0</ele><time>2026-05-03T09:59:45.999Z</time></trkpt><trkpt lat="43.3912095238319" lon="-0.601439084198573"><ele>107.00000000000001</ele><time>2026-05-03T09:59:46.999Z</time></trkpt><trkpt lat="43.39123221879108" lon="-0.6013481582918002"><ele>107.0</ele><time>2026-05-03T09:59:47.999Z</time></trkpt><trkpt lat="43.391249079993486" lon="-0.6012582587586393"><ele>107.00000000000001</ele><time>2026-05-03T09:59:48.999Z</time></trkpt><trkpt lat="43.39126086342902" lon="-0.6011694174000953"><ele>107.0</ele><time>2026-05-03T09:59:49.999Z</time></trkpt><trkpt lat="43.39125832804007" lon="-0.601072374898456"><ele>107.0</ele><time>2026-05-03T09:59:50.999Z</time></trkpt><trkpt lat="43.39122139397438" lon="-0.6009849460151174"><ele>107.0</ele><time>2026-05-03T09:59:51.999Z</time></trkpt><trkpt lat="43.39119938210599" lon="-0.6008928459550094"><ele>107.0</ele><time>2026-05-03T09:59:52.999Z</time></trkpt><trkpt lat="43.39119230280541" lon="-0.6007964958685031"><ele>107.00000000000001</ele><time>2026-05-03T09:59:53.999Z</time></trkpt><trkpt lat="43.39116241631041" lon="-0.6007046441017585"><ele>107.0</ele><time>2026-05-03T09:59:54.999Z</time></trkpt><trkpt lat="43.39114110201325" lon="-0.6006148696030666"><ele>107.00000000000001</ele><time>2026-05-03T09:59:55.999Z</time></trkpt><trkpt lat="43.39111473895022" lon="-0.6005224273144468"><ele>107.0</ele><time>2026-05-03T09:59:56.999Z</time></trkpt><trkpt lat="43.391076992895776" lon="-0.6004410488141118"><ele>107.0</ele><time>2026-05-03T09:59:57.999Z</time></trkpt><trkpt lat="43.39104502943516" lon="-0.600359292367465"><ele>107.0</ele><time>2026-05-03T09:59:58.999Z</time></trkpt><trkpt lat="43.39101070302071" lon="-0.6002793833968518"><ele>107.0</ele><time>2026-05-03T09:59:59.999Z</time></trkpt><trkpt lat="43.39097224890474" lon="-0.6001912235388506"><ele>107.00000000000001</ele><time>2026-05-03T10:00:00.999Z</time></trkpt><trkpt lat="43.39093759589429" lon="-0.60011315029766"><ele>107.0</ele><time>2026-05-03T10:00:01.999Z</time></trkpt><trkpt lat="43.39089990392847" lon="-0.600017880864613"><ele>107.00000000000001</ele><time>2026-05-03T10:00:02.999Z</time></trkpt><trkpt lat="43.390867316117195" lon="-0.5999283106390582"><ele>107.0</ele><time>2026-05-03T10:00:03.999Z</time></trkpt><trkpt lat="43.39083311909414" lon="-0.5998413497006608"><ele>107.0</ele><time>2026-05-03T10:00:04.999Z</time></trkpt><trkpt lat="43.39080632762458" lon="-0.5997487653710798"><ele>107.0</ele><time>2026-05-03T10:00:05.999Z</time></trkpt><trkpt lat="43.39077199250449" lon="-0.5996603796779836"><ele>107.0</ele><time>2026-05-03T10:00:06.999Z</time></trkpt><trkpt lat="43.39073944623232" lon="-0.5995776114078708"><ele>107.00000000000001</ele><time>2026-05-03T10:00:07.999Z</time></trkpt><trkpt lat="43.39071003365658" lon="-0.599485614580029"><ele>107.0</ele><time>2026-05-03T10:00:08.999Z</time></trkpt><trkpt lat="43.39067852055066" lon="-0.5993963229475328"><ele>107.00000000000001</ele><time>2026-05-03T10:00:09.999Z</time></trkpt><trkpt lat="43.39064761743891" lon="-0.5993095111157997"><ele>107.0</ele><time>2026-05-03T10:00:10.999Z</time></trkpt><trkpt lat="43.390618787648" lon="-0.5992193130025069"><ele>107.0</ele><time>2026-05-03T10:00:11.999Z</time></trkpt><trkpt lat="43.39059829356778" lon="-0.5991221240241684"><ele>107.0</ele><time>2026-05-03T10:00:12.999Z</time></trkpt><trkpt lat="43.39058132448261" lon="-0.5990357347362808"><ele>107.0</ele><time>2026-05-03T10:00:13.999Z</time></trkpt><trkpt lat="43.390551344524326" lon="-0.5989376915853808"><ele>107.00000000000001</ele><time>2026-05-03T10:00:14.999Z</time></trkpt><trkpt lat="43.39052821601" lon="-0.5988536141932457"><ele>107.0</ele><time>2026-05-03T10:00:15.999Z</time></trkpt><trkpt lat="43.3905051507443" lon="-0.598760387842834"><ele>107.00000000000001</ele><time>2026-05-03T10:00:16.999Z</time></trkpt><trkpt lat="43.3904862961017" lon="-0.5986704497222382"><ele>107.0</ele><time>2026-05-03T10:00:17.999Z</time></trkpt><trkpt lat="43.39047083750363" lon="-0.598580908655235"><ele>107.0</ele><time>2026-05-03T10:00:18.999Z</time></trkpt><trkpt lat="43.39045784857512" lon="-0.5984830298725303"><ele>107.0</ele><time>2026-05-03T10:00:19.999Z</time></trkpt><trkpt lat="43.39044028479396" lon="-0.5983869642510166"><ele>107.0</ele><time>2026-05-03T10:00:20.999Z</time></trkpt><trkpt lat="43.390420074203405" lon="-0.5982963071287967"><ele>107.00000000000001</ele><time>2026-05-03T10:00:21.999Z</time></trkpt><trkpt lat="43.39040619881074" lon="-0.5982072151645896"><ele>107.0</ele><time>2026-05-03T10:00:22.999Z</time></trkpt><trkpt lat="43.39038500259631" lon="-0.5981057138501993"><ele>107.00000000000001</ele><time>2026-05-03T10:00:23.999Z</time></trkpt><trkpt lat="43.39036424991497" lon="-0.5980120062238836"><ele>107.0</ele><time>2026-05-03T10:00:24.999Z</time></trkpt><trkpt lat="43.39034320823615" lon="-0.5979258503587382"><ele>107.0</ele><time>2026-05-03T10:00:25.999Z</time></trkpt><trkpt lat="43.390315690245615" lon="-0.5978382002048993"><ele>107.0</ele><time>2026-05-03T10:00:26.999Z</time></trkpt><trkpt lat="43.390280200852374" lon="-0.5977492510888285"><ele>107.0</ele><time>2026-05-03T10:00:27.999Z</time></trkpt><trkpt lat="43.39022894936466" lon="-0.5976714333500377"><ele>107.00000000000001</ele><time>2026-05-03T10:00:28.999Z</time></trkpt><trkpt lat="43.39017470360822" lon="-0.5976035248359125"><ele>107.0</ele><time>2026-05-03T10:00:29.999Z</time></trkpt><trkpt lat="43.39011136581382" lon="-0.5975413904549405"><ele>107.00000000000001</ele><time>2026-05-03T10:00:30.999Z</time></trkpt><trkpt lat="43.39005206855198" lon="-0.5974871887357066"><ele>107.0</ele><time>2026-05-03T10:00:31.999Z</time></trkpt><trkpt lat="43.38998960149064" lon="-0.5974291042434151"><ele>107.0</ele><time>2026-05-03T10:00:32.999Z</time></trkpt><trkpt lat="43.38992540853516" lon="-0.5973778026717241"><ele>107.0</ele><time>2026-05-03T10:00:33.999Z</time></trkpt><trkpt lat="43.389854090506475" lon="-0.5973511890561716"><ele>107.0</ele><time>2026-05-03T10:00:34.999Z</time></trkpt><trkpt lat="43.38978317999611" lon="-0.597317825225702"><ele>107.00000000000001</ele><time>2026-05-03T10:00:35.999Z</time></trkpt><trkpt lat="43.389715023261274" lon="-0.5972816306200871"><ele>107.0</ele><time>2026-05-03T10:00:36.999Z</time></trkpt><trkpt lat="43.38965062716642" lon="-0.5972295697327118"><ele>107.0</ele><time>2026-05-03T10:00:37.999Z</time></trkpt><trkpt lat="43.38960304790515" lon="-0.5971463682466605"><ele>106.99999999999999</ele><time>2026-05-03T10:00:38.999Z</time></trkpt><trkpt lat="43.38954174645427" lon="-0.5971037006537965"><ele>106.99999999999999</ele><time>2026-05-03T10:00:39.999Z</time></trkpt><trkpt lat="43.38944460785782" lon="-0.597001072991387"><ele>107.0</ele><time>2026-05-03T10:00:41.999Z</time></trkpt><trkpt lat="43.38935145869064" lon="-0.5968952537889769"><ele>107.0</ele><time>2026-05-03T10:00:43.999Z</time></trkpt><trkpt lat="43.38929474214116" lon="-0.5968366016223725"><ele>106.8</ele><time>2026-05-03T10:00:44.999Z</time></trkpt><trkpt lat="43.389208493088056" lon="-0.5967321921320234"><ele>106.6</ele><time>2026-05-03T10:00:46.999Z</time></trkpt><trkpt lat="43.38912740370942" lon="-0.5966119393097481"><ele>106.39999999999999</ele><time>2026-05-03T10:00:48.999Z</time></trkpt><trkpt lat="43.38909163461091" lon="-0.5965391609562104"><ele>106.19999999999999</ele><time>2026-05-03T10:00:49.999Z</time></trkpt><trkpt lat="43.389061610157135" lon="-0.5964626757089668"><ele>106.0</ele><time>2026-05-03T10:00:50.999Z</time></trkpt><trkpt lat="43.38901039341178" lon="-0.5963158540473406"><ele>106.6</ele><time>2026-05-03T10:00:52.999Z</time></trkpt><trkpt lat="43.38896448420755" lon="-0.5961566484202614"><ele>107.19999999999999</ele><time>2026-05-03T10:00:54.999Z</time></trkpt><trkpt lat="43.38892554189507" lon="-0.5959981192507502"><ele>107.80000000000001</ele><time>2026-05-03T10:00:56.999Z</time></trkpt><trkpt lat="43.38890623388965" lon="-0.595913038795682"><ele>108.4</ele><time>2026-05-03T10:00:57.999Z</time></trkpt><trkpt lat="43.38887037434778" lon="-0.5957498015664531"><ele>109.0</ele><time>2026-05-03T10:00:59.999Z</time></trkpt><trkpt lat="43.388843908677686" lon="-0.595667554588439"><ele>108.66666666666667</ele><time>2026-05-03T10:01:00.999Z</time></trkpt><trkpt lat="43.388802213907795" lon="-0.5955842132635226"><ele>108.33333333333334</ele><time>2026-05-03T10:01:01.999Z</time></trkpt><trkpt lat="43.38874998528309" lon="-0.5954407333800574"><ele>108.0</ele><time>2026-05-03T10:01:03.999Z</time></trkpt><trkpt lat="43.38867262957408" lon="-0.595305363941063"><ele>107.66666666666666</ele><time>2026-05-03T10:01:05.999Z</time></trkpt><trkpt lat="43.38862761919691" lon="-0.5952337169674896"><ele>107.33333333333333</ele><time>2026-05-03T10:01:06.999Z</time></trkpt><trkpt lat="43.38857806296187" lon="-0.5951755231480027"><ele>107.0</ele><time>2026-05-03T10:01:07.999Z</time></trkpt><trkpt lat="43.388526326542596" lon="-0.5951255776775229"><ele>107.57142857142858</ele><time>2026-05-03T10:01:08.999Z</time></trkpt><trkpt lat="43.388472154692586" lon="-0.5950790319591935"><ele>108.14285714285714</ele><time>2026-05-03T10:01:09.999Z</time></trkpt><trkpt lat="43.388413290277526" lon="-0.5950264339182503"><ele>108.71428571428572</ele><time>2026-05-03T10:01:10.999Z</time></trkpt><trkpt lat="43.38835813527139" lon="-0.5949790403114585"><ele>109.28571428571429</ele><time>2026-05-03T10:01:11.999Z</time></trkpt><trkpt lat="43.388297269190616" lon="-0.5949336073913118"><ele>109.85714285714286</ele><time>2026-05-03T10:01:12.999Z</time></trkpt><trkpt lat="43.388238528611375" lon="-0.594891961716538"><ele>110.42857142857143</ele><time>2026-05-03T10:01:13.999Z</time></trkpt><trkpt lat="43.38817169472123" lon="-0.5948560540481929"><ele>111.0</ele><time>2026-05-03T10:01:14.999Z</time></trkpt><trkpt lat="43.38811103192188" lon="-0.5948135708799743"><ele>111.0</ele><time>2026-05-03T10:01:15.999Z</time></trkpt><trkpt lat="43.38805268023501" lon="-0.594764337924716"><ele>111.0</ele><time>2026-05-03T10:01:16.999Z</time></trkpt><trkpt lat="43.38799403878176" lon="-0.5947163032442548"><ele>111.0</ele><time>2026-05-03T10:01:17.999Z</time></trkpt><trkpt lat="43.38793670644564" lon="-0.5946656739684383"><ele>111.0</ele><time>2026-05-03T10:01:18.999Z</time></trkpt><trkpt lat="43.38787660620068" lon="-0.5946178286907445"><ele>111.0</ele><time>2026-05-03T10:01:19.999Z</time></trkpt><trkpt lat="43.38781745476158" lon="-0.5945679003557197"><ele>111.0</ele><time>2026-05-03T10:01:20.999Z</time></trkpt><trkpt lat="43.38775568520877" lon="-0.5945250143993885"><ele>111.0</ele><time>2026-05-03T10:01:21.999Z</time></trkpt><trkpt lat="43.38769203935964" lon="-0.5944825915956358"><ele>110.57142857142857</ele><time>2026-05-03T10:01:22.999Z</time></trkpt><trkpt lat="43.38762926980875" lon="-0.5944401993683176"><ele>110.14285714285715</ele><time>2026-05-03T10:01:23.999Z</time></trkpt><trkpt lat="43.38756382719765" lon="-0.5944094717112594"><ele>109.71428571428572</ele><time>2026-05-03T10:01:24.999Z</time></trkpt><trkpt lat="43.387496769147766" lon="-0.5943775741256891"><ele>109.28571428571428</ele><time>2026-05-03T10:01:25.999Z</time></trkpt><trkpt lat="43.38743296759258" lon="-0.5943454254317038"><ele>108.85714285714286</ele><time>2026-05-03T10:01:26.999Z</time></trkpt><trkpt lat="43.3873670459848" lon="-0.5943153695063988"><ele>108.42857142857143</ele><time>2026-05-03T10:01:27.999Z</time></trkpt><trkpt lat="43.38730290127348" lon="-0.594284469804923"><ele>108.0</ele><time>2026-05-03T10:01:28.999Z</time></trkpt><trkpt lat="43.38723718422032" lon="-0.5942517831655919"><ele>108.14285714285714</ele><time>2026-05-03T10:01:29.999Z</time></trkpt><trkpt lat="43.38717125118401" lon="-0.5942256045422843"><ele>108.28571428571428</ele><time>2026-05-03T10:01:30.999Z</time></trkpt><trkpt lat="43.38710712133299" lon="-0.5941925194290191"><ele>108.42857142857143</ele><time>2026-05-03T10:01:31.999Z</time></trkpt><trkpt lat="43.38704244058386" lon="-0.5941571079196913"><ele>108.57142857142857</ele><time>2026-05-03T10:01:32.999Z</time></trkpt><trkpt lat="43.38697595187747" lon="-0.5941232329766619"><ele>108.71428571428572</ele><time>2026-05-03T10:01:33.999Z</time></trkpt><trkpt lat="43.38691010986598" lon="-0.5940884071791143"><ele>108.85714285714286</ele><time>2026-05-03T10:01:34.999Z</time></trkpt><trkpt lat="43.38684740127248" lon="-0.5940431511481591"><ele>109.0</ele><time>2026-05-03T10:01:35.999Z</time></trkpt><trkpt lat="43.38678834777552" lon="-0.5939907855741363"><ele>109.0</ele><time>2026-05-03T10:01:36.999Z</time></trkpt><trkpt lat="43.38673745460585" lon="-0.5939243199799217"><ele>109.0</ele><time>2026-05-03T10:01:37.999Z</time></trkpt><trkpt lat="43.38668876571961" lon="-0.5938544204121335"><ele>109.0</ele><time>2026-05-03T10:01:38.999Z</time></trkpt><trkpt lat="43.38664377823594" lon="-0.5937846900156737"><ele>109.0</ele><time>2026-05-03T10:01:39.999Z</time></trkpt><trkpt lat="43.38659530429969" lon="-0.5937136085978694"><ele>109.0</ele><time>2026-05-03T10:01:40.999Z</time></trkpt><trkpt lat="43.3865528139766" lon="-0.5936388459793933"><ele>109.0</ele><time>2026-05-03T10:01:41.999Z</time></trkpt><trkpt lat="43.38651019642459" lon="-0.5935603051827667"><ele>109.0</ele><time>2026-05-03T10:01:42.999Z</time></trkpt><trkpt lat="43.386470497259275" lon="-0.5934876305547931"><ele>109.14285714285714</ele><time>2026-05-03T10:01:43.999Z</time></trkpt><trkpt lat="43.38643014031232" lon="-0.5934162103216286"><ele>109.28571428571429</ele><time>2026-05-03T10:01:44.999Z</time></trkpt><trkpt lat="43.38639387484493" lon="-0.5933384890157505"><ele>109.42857142857142</ele><time>2026-05-03T10:01:45.999Z</time></trkpt><trkpt lat="43.38636430121798" lon="-0.5932598577309616"><ele>109.57142857142857</ele><time>2026-05-03T10:01:46.999Z</time></trkpt><trkpt lat="43.38633133921612" lon="-0.5931807814095301"><ele>109.71428571428571</ele><time>2026-05-03T10:01:47.999Z</time></trkpt><trkpt lat="43.386296672134" lon="-0.5931040640749276"><ele>109.85714285714285</ele><time>2026-05-03T10:01:48.999Z</time></trkpt><trkpt lat="43.38626133621877" lon="-0.5930294255458943"><ele>110.0</ele><time>2026-05-03T10:01:49.999Z</time></trkpt><trkpt lat="43.38622115527085" lon="-0.5929573256243407"><ele>110.14285714285714</ele><time>2026-05-03T10:01:50.999Z</time></trkpt><trkpt lat="43.38618116788293" lon="-0.5928840229338632"><ele>110.28571428571428</ele><time>2026-05-03T10:01:51.999Z</time></trkpt><trkpt lat="43.386138249466505" lon="-0.5928148944282509"><ele>110.42857142857142</ele><time>2026-05-03T10:01:52.999Z</time></trkpt><trkpt lat="43.386097118531055" lon="-0.5927439893607711"><ele>110.57142857142857</ele><time>2026-05-03T10:01:53.999Z</time></trkpt><trkpt lat="43.38605445508552" lon="-0.5926706432880441"><ele>110.71428571428572</ele><time>2026-05-03T10:01:54.999Z</time></trkpt><trkpt lat="43.38601198297857" lon="-0.5926012239889821"><ele>110.85714285714285</ele><time>2026-05-03T10:01:55.999Z</time></trkpt><trkpt lat="43.385967141593746" lon="-0.5925380176850249"><ele>111.0</ele><time>2026-05-03T10:01:56.999Z</time></trkpt><trkpt lat="43.38591800650502" lon="-0.5924772202763704"><ele>111.0</ele><time>2026-05-03T10:01:57.999Z</time></trkpt><trkpt lat="43.38587213751072" lon="-0.59241480939818"><ele>111.0</ele><time>2026-05-03T10:01:58.999Z</time></trkpt><trkpt lat="43.38582285396759" lon="-0.5923530260731802"><ele>111.0</ele><time>2026-05-03T10:01:59.999Z</time></trkpt><trkpt lat="43.385721649463385" lon="-0.5922457915153514"><ele>111.0</ele><time>2026-05-03T10:02:01.999Z</time></trkpt><trkpt lat="43.385665932908886" lon="-0.5921970957798189"><ele>111.0</ele><time>2026-05-03T10:02:02.999Z</time></trkpt><trkpt lat="43.38561298252364" lon="-0.5921423076536423"><ele>111.0</ele><time>2026-05-03T10:02:03.999Z</time></trkpt><trkpt lat="43.38555574447826" lon="-0.5921006142162832"><ele>110.75</ele><time>2026-05-03T10:02:04.999Z</time></trkpt><trkpt lat="43.38545189292474" lon="-0.5920021115890387"><ele>110.5</ele><time>2026-05-03T10:02:06.999Z</time></trkpt><trkpt lat="43.38537151963297" lon="-0.5919270057048535"><ele>110.25</ele><time>2026-05-03T10:02:09Z</time></trkpt><trkpt lat="43.38529228369836" lon="-0.5918530893751964"><ele>110.0</ele><time>2026-05-03T10:02:11Z</time></trkpt><trkpt lat="43.38529494064061" lon="-0.5914793806752321"><ele>110.0</ele><time>2026-05-03T10:02:13Z</time></trkpt><trkpt lat="43.385306771137344" lon="-0.5913554447629578"><ele>110.0</ele><time>2026-05-03T10:02:15Z</time></trkpt><trkpt lat="43.38532632034176" lon="-0.5912063288554209"><ele>110.0</ele><time>2026-05-03T10:02:17Z</time></trkpt><trkpt lat="43.38533281759326" lon="-0.5910597235518762"><ele>110.0</ele><time>2026-05-03T10:02:19Z</time></trkpt><trkpt lat="43.38532538519092" lon="-0.5909071481696829"><ele>110.0</ele><time>2026-05-03T10:02:21Z</time></trkpt><trkpt lat="43.38531452685317" lon="-0.5907455988340544"><ele>110.0</ele><time>2026-05-03T10:02:23Z</time></trkpt><trkpt lat="43.385301125902984" lon="-0.590581960087153"><ele>110.0</ele><time>2026-05-03T10:02:25Z</time></trkpt><trkpt lat="43.38528790724916" lon="-0.5904205473445538"><ele>110.0</ele><time>2026-05-03T10:02:27Z</time></trkpt><trkpt lat="43.38537426677122" lon="-0.5902474867218829"><ele>110.0</ele><time>2026-05-03T10:02:29Z</time></trkpt><trkpt lat="43.3853499085919" lon="-0.5901164464390181"><ele>109.66666666666666</ele><time>2026-05-03T10:02:31Z</time></trkpt><trkpt lat="43.3853535220662" lon="-0.5899611810148303"><ele>109.33333333333333</ele><time>2026-05-03T10:02:33Z</time></trkpt><trkpt lat="43.38535849156067" lon="-0.5898410487536514"><ele>109.0</ele><time>2026-05-03T10:02:35Z</time></trkpt><trkpt lat="43.38533369585756" lon="-0.5897229985889215"><ele>108.66666666666666</ele><time>2026-05-03T10:02:37Z</time></trkpt><trkpt lat="43.385314103123356" lon="-0.5896326356496927"><ele>108.33333333333333</ele><time>2026-05-03T10:02:39Z</time></trkpt><trkpt lat="43.38525083510354" lon="-0.5896569631964118"><ele>108.0</ele><time>2026-05-03T10:02:42Z</time></trkpt><trkpt lat="43.38522666800572" lon="-0.5897638708123129"><ele>108.0</ele><time>2026-05-03T10:02:45Z</time></trkpt><trkpt lat="43.38516387874903" lon="-0.5896976926744528"><ele>108.0</ele><time>2026-05-03T10:02:47Z</time></trkpt><trkpt lat="43.3851688727875" lon="-0.5895838006940792"><ele>108.0</ele><time>2026-05-03T10:02:49Z</time></trkpt><trkpt lat="43.38514332678521" lon="-0.5894898851058635"><ele>108.0</ele><time>2026-05-03T10:02:51Z</time></trkpt><trkpt lat="43.38505884821689" lon="-0.5894499226391622"><ele>108.0</ele><time>2026-05-03T10:02:53Z</time></trkpt><trkpt lat="43.38496742383346" lon="-0.5893962768139337"><ele>108.0</ele><time>2026-05-03T10:02:55Z</time></trkpt><trkpt lat="43.38487382138245" lon="-0.5893176304763468"><ele>107.80000000000001</ele><time>2026-05-03T10:02:57Z</time></trkpt><trkpt lat="43.384786166324126" lon="-0.5892408243875121"><ele>107.60000000000001</ele><time>2026-05-03T10:02:59Z</time></trkpt><trkpt lat="43.384702941619416" lon="-0.5891728506851343"><ele>107.39999999999999</ele><time>2026-05-03T10:03:01Z</time></trkpt><trkpt lat="43.38462152871672" lon="-0.5890985951096097"><ele>107.19999999999999</ele><time>2026-05-03T10:03:03Z</time></trkpt><trkpt lat="43.38454595737017" lon="-0.589031686226169"><ele>107.0</ele><time>2026-05-03T10:03:05Z</time></trkpt><trkpt lat="43.38445852410444" lon="-0.5889563500894917"><ele>107.19999999999999</ele><time>2026-05-03T10:03:07Z</time></trkpt><trkpt lat="43.38436851494556" lon="-0.5888778417366044"><ele>107.39999999999999</ele><time>2026-05-03T10:03:09Z</time></trkpt><trkpt lat="43.38431198795976" lon="-0.5888262351445842"><ele>107.60000000000001</ele><time>2026-05-03T10:03:10Z</time></trkpt><trkpt lat="43.38423219523866" lon="-0.5887654036714559"><ele>107.80000000000001</ele><time>2026-05-03T10:03:12Z</time></trkpt><trkpt lat="43.3841742547725" lon="-0.5886676297077384"><ele>108.0</ele><time>2026-05-03T10:03:14Z</time></trkpt><trkpt lat="43.38420386363481" lon="-0.5885431031800081"><ele>108.0</ele><time>2026-05-03T10:03:16Z</time></trkpt><trkpt lat="43.38427667584978" lon="-0.5884274121020413"><ele>108.00000000000001</ele><time>2026-05-03T10:03:18Z</time></trkpt><trkpt lat="43.38433919669153" lon="-0.588301493207349"><ele>108.00000000000001</ele><time>2026-05-03T10:03:20Z</time></trkpt><trkpt lat="43.38441841984223" lon="-0.588196070909813"><ele>108.0</ele><time>2026-05-03T10:03:22Z</time></trkpt><trkpt lat="43.384506222531776" lon="-0.5880903440681706"><ele>108.0</ele><time>2026-05-03T10:03:24Z</time></trkpt><trkpt lat="43.38459469413335" lon="-0.587975180206516"><ele>107.75</ele><time>2026-05-03T10:03:26Z</time></trkpt><trkpt lat="43.38468644019029" lon="-0.5878708813856977"><ele>107.5</ele><time>2026-05-03T10:03:28Z</time></trkpt><trkpt lat="43.38477664233122" lon="-0.587774935768185"><ele>107.25</ele><time>2026-05-03T10:03:30Z</time></trkpt><trkpt lat="43.38486464951575" lon="-0.5876754737562111"><ele>107.0</ele><time>2026-05-03T10:03:32Z</time></trkpt><trkpt lat="43.38496135564614" lon="-0.5875728446464342"><ele>107.8</ele><time>2026-05-03T10:03:34Z</time></trkpt><trkpt lat="43.385039365124825" lon="-0.5874585774636536"><ele>108.6</ele><time>2026-05-03T10:03:36Z</time></trkpt><trkpt lat="43.3850862156558" lon="-0.5873390005167652"><ele>109.39999999999999</ele><time>2026-05-03T10:03:38Z</time></trkpt><trkpt lat="43.38512977818949" lon="-0.5872565310762539"><ele>110.19999999999999</ele><time>2026-05-03T10:03:40Z</time></trkpt><trkpt lat="43.3850023058148" lon="-0.5872019294298594"><ele>111.0</ele><time>2026-05-03T10:03:42Z</time></trkpt><trkpt lat="43.38494587332563" lon="-0.5872821155096145"><ele>111.0</ele><time>2026-05-03T10:03:44Z</time></trkpt><trkpt lat="43.384886249400466" lon="-0.5873847000347909"><ele>111.0</ele><time>2026-05-03T10:03:46Z</time></trkpt><trkpt lat="43.384816870108665" lon="-0.5874892905250283"><ele>111.0</ele><time>2026-05-03T10:03:47.999Z</time></trkpt><trkpt lat="43.384749089886476" lon="-0.5875702000871829"><ele>111.0</ele><time>2026-05-03T10:03:49.999Z</time></trkpt><trkpt lat="43.38467073816446" lon="-0.5876665505956696"><ele>111.0</ele><time>2026-05-03T10:03:51.999Z</time></trkpt><trkpt lat="43.38454341595458" lon="-0.587699757516759"><ele>111.0</ele><time>2026-05-03T10:03:53.999Z</time></trkpt><trkpt lat="43.384437769273255" lon="-0.5877794182259177"><ele>111.0</ele><time>2026-05-03T10:03:55.999Z</time></trkpt><trkpt lat="43.3843170354715" lon="-0.5878114852702858"><ele>111.0</ele><time>2026-05-03T10:03:57.999Z</time></trkpt><trkpt lat="43.38419494564077" lon="-0.5878092717350798"><ele>111.0</ele><time>2026-05-03T10:03:59.999Z</time></trkpt><trkpt lat="43.38413124074144" lon="-0.5878040181179688"><ele>111.0</ele><time>2026-05-03T10:04:00.999Z</time></trkpt><trkpt lat="43.384066691435216" lon="-0.5877907010861396"><ele>111.0</ele><time>2026-05-03T10:04:01.999Z</time></trkpt><trkpt lat="43.3840027088756" lon="-0.5877680435519692"><ele>111.0</ele><time>2026-05-03T10:04:03Z</time></trkpt><trkpt lat="43.38393786808322" lon="-0.587745541205533"><ele>111.0</ele><time>2026-05-03T10:04:04Z</time></trkpt><trkpt lat="43.38387645347351" lon="-0.5877041652464763"><ele>111.0</ele><time>2026-05-03T10:04:05Z</time></trkpt><trkpt lat="43.3838076944693" lon="-0.587647920230208"><ele>111.0</ele><time>2026-05-03T10:04:06Z</time></trkpt><trkpt lat="43.38369644206455" lon="-0.5875602111232153"><ele>111.0</ele><time>2026-05-03T10:04:08Z</time></trkpt><trkpt lat="43.38364725403014" lon="-0.5874926115469784"><ele>111.42857142857142</ele><time>2026-05-03T10:04:09Z</time></trkpt><trkpt lat="43.38359205896873" lon="-0.5874248388460358"><ele>111.85714285714286</ele><time>2026-05-03T10:04:10Z</time></trkpt><trkpt lat="43.383545961751935" lon="-0.5873469220968807"><ele>112.28571428571428</ele><time>2026-05-03T10:04:11Z</time></trkpt><trkpt lat="43.38349627159078" lon="-0.5872728563902657"><ele>112.71428571428571</ele><time>2026-05-03T10:04:12Z</time></trkpt><trkpt lat="43.383442427713874" lon="-0.5872063793532737"><ele>113.14285714285714</ele><time>2026-05-03T10:04:13Z</time></trkpt><trkpt lat="43.38339443225907" lon="-0.5871283997689779"><ele>113.57142857142857</ele><time>2026-05-03T10:04:14Z</time></trkpt><trkpt lat="43.383346967214976" lon="-0.5870534239622711"><ele>114.0</ele><time>2026-05-03T10:04:15Z</time></trkpt><trkpt lat="43.38330109782724" lon="-0.5869755515647767"><ele>114.0</ele><time>2026-05-03T10:04:16Z</time></trkpt><trkpt lat="43.38324323851874" lon="-0.5869070799294621"><ele>114.0</ele><time>2026-05-03T10:04:17Z</time></trkpt><trkpt lat="43.38319048872356" lon="-0.5868369234285047"><ele>114.0</ele><time>2026-05-03T10:04:18Z</time></trkpt><trkpt lat="43.38314076058968" lon="-0.5867586982830836"><ele>114.0</ele><time>2026-05-03T10:04:19Z</time></trkpt><trkpt lat="43.38308986494928" lon="-0.5866842039507754"><ele>114.0</ele><time>2026-05-03T10:04:20Z</time></trkpt><trkpt lat="43.38298203601224" lon="-0.5865663177406101"><ele>114.0</ele><time>2026-05-03T10:04:22Z</time></trkpt><trkpt lat="43.38295047388983" lon="-0.5864748347848113"><ele>113.85714285714285</ele><time>2026-05-03T10:04:23Z</time></trkpt><trkpt lat="43.38289489060856" lon="-0.5863995745150247"><ele>113.7142857142857</ele><time>2026-05-03T10:04:24Z</time></trkpt><trkpt lat="43.3828442872414" lon="-0.5863261783070434"><ele>113.57142857142857</ele><time>2026-05-03T10:04:25Z</time></trkpt><trkpt lat="43.38279390733213" lon="-0.5862508411198315"><ele>113.42857142857142</ele><time>2026-05-03T10:04:26Z</time></trkpt><trkpt lat="43.382742504105835" lon="-0.5861771099921527"><ele>113.28571428571428</ele><time>2026-05-03T10:04:27Z</time></trkpt><trkpt lat="43.382690683878415" lon="-0.5861027299620276"><ele>113.14285714285714</ele><time>2026-05-03T10:04:28Z</time></trkpt><trkpt lat="43.38264116942954" lon="-0.5860279264600868"><ele>113.0</ele><time>2026-05-03T10:04:29Z</time></trkpt><trkpt lat="43.38259162020069" lon="-0.5859537375447982"><ele>113.0</ele><time>2026-05-03T10:04:30Z</time></trkpt><trkpt lat="43.38255121971372" lon="-0.5858658981468198"><ele>113.0</ele><time>2026-05-03T10:04:31Z</time></trkpt><trkpt lat="43.382497182614976" lon="-0.5857961763562192"><ele>113.0</ele><time>2026-05-03T10:04:32Z</time></trkpt><trkpt lat="43.38244466474537" lon="-0.5857332488434871"><ele>113.0</ele><time>2026-05-03T10:04:33Z</time></trkpt><trkpt lat="43.382392339274574" lon="-0.5856606139387699"><ele>113.0</ele><time>2026-05-03T10:04:34Z</time></trkpt><trkpt lat="43.382339613978296" lon="-0.5855960102199783"><ele>113.0</ele><time>2026-05-03T10:04:35Z</time></trkpt><trkpt lat="43.38228651395953" lon="-0.5855286099395722"><ele>113.0</ele><time>2026-05-03T10:04:36Z</time></trkpt><trkpt lat="43.38223531709402" lon="-0.5854641625236163"><ele>113.0</ele><time>2026-05-03T10:04:37Z</time></trkpt><trkpt lat="43.38218132776565" lon="-0.5854019065630588"><ele>113.0</ele><time>2026-05-03T10:04:38Z</time></trkpt><trkpt lat="43.382124636680075" lon="-0.585340378452104"><ele>113.0</ele><time>2026-05-03T10:04:39Z</time></trkpt><trkpt lat="43.382071091919975" lon="-0.5852768483431419"><ele>113.0</ele><time>2026-05-03T10:04:40Z</time></trkpt><trkpt lat="43.38201650771423" lon="-0.5852231544480684"><ele>113.0</ele><time>2026-05-03T10:04:41Z</time></trkpt><trkpt lat="43.381961577462924" lon="-0.5851447494771465"><ele>113.0</ele><time>2026-05-03T10:04:42Z</time></trkpt><trkpt lat="43.3819063085742" lon="-0.5850880938409899"><ele>113.0</ele><time>2026-05-03T10:04:43Z</time></trkpt><trkpt lat="43.38185128949408" lon="-0.5850195629357554"><ele>113.0</ele><time>2026-05-03T10:04:44Z</time></trkpt><trkpt lat="43.381804587917365" lon="-0.5849524211399527"><ele>113.0</ele><time>2026-05-03T10:04:45Z</time></trkpt><trkpt lat="43.381744296023165" lon="-0.5848793102683759"><ele>113.0</ele><time>2026-05-03T10:04:46Z</time></trkpt><trkpt lat="43.38169061477947" lon="-0.5848141260088134"><ele>113.0</ele><time>2026-05-03T10:04:47Z</time></trkpt><trkpt lat="43.38163014338973" lon="-0.5847527701775318"><ele>113.0</ele><time>2026-05-03T10:04:48Z</time></trkpt><trkpt lat="43.38157321002482" lon="-0.5846974845150316"><ele>113.0</ele><time>2026-05-03T10:04:49Z</time></trkpt><trkpt lat="43.38151617509045" lon="-0.5846247308551991"><ele>113.0</ele><time>2026-05-03T10:04:50Z</time></trkpt><trkpt lat="43.38146276115283" lon="-0.5845585520823419"><ele>113.0</ele><time>2026-05-03T10:04:51Z</time></trkpt><trkpt lat="43.38141299979584" lon="-0.584487266894517"><ele>113.0</ele><time>2026-05-03T10:04:52Z</time></trkpt><trkpt lat="43.38135949294348" lon="-0.5844138589583932"><ele>113.0</ele><time>2026-05-03T10:04:53Z</time></trkpt><trkpt lat="43.38130396588808" lon="-0.584350054499739"><ele>113.0</ele><time>2026-05-03T10:04:54Z</time></trkpt><trkpt lat="43.381249094052315" lon="-0.5842836182117694"><ele>113.0</ele><time>2026-05-03T10:04:55Z</time></trkpt><trkpt lat="43.381191443915505" lon="-0.5842254089100443"><ele>113.0</ele><time>2026-05-03T10:04:56Z</time></trkpt><trkpt lat="43.38112959837956" lon="-0.5841564678580587"><ele>113.0</ele><time>2026-05-03T10:04:57Z</time></trkpt><trkpt lat="43.381082693624315" lon="-0.5840957632444789"><ele>113.0</ele><time>2026-05-03T10:04:58Z</time></trkpt><trkpt lat="43.38103105385084" lon="-0.5840328489784241"><ele>113.0</ele><time>2026-05-03T10:04:59Z</time></trkpt><trkpt lat="43.380975124289115" lon="-0.5839601238497899"><ele>113.0</ele><time>2026-05-03T10:05:00Z</time></trkpt><trkpt lat="43.38091998852106" lon="-0.5839041628889627"><ele>113.0</ele><time>2026-05-03T10:05:01Z</time></trkpt><trkpt lat="43.38086453658437" lon="-0.5838376712598033"><ele>113.0</ele><time>2026-05-03T10:05:02Z</time></trkpt><trkpt lat="43.380810330166625" lon="-0.5837663456792043"><ele>113.0</ele><time>2026-05-03T10:05:03Z</time></trkpt><trkpt lat="43.38075461501643" lon="-0.5837151111508593"><ele>113.0</ele><time>2026-05-03T10:05:04Z</time></trkpt><trkpt lat="43.38069194094298" lon="-0.5836592272576796"><ele>112.99999999999999</ele><time>2026-05-03T10:05:05Z</time></trkpt><trkpt lat="43.38063268907778" lon="-0.5835951995976404"><ele>113.0</ele><time>2026-05-03T10:05:06Z</time></trkpt><trkpt lat="43.38051252076414" lon="-0.5835277457196695"><ele>113.0</ele><time>2026-05-03T10:05:08Z</time></trkpt><trkpt lat="43.3804471809023" lon="-0.5834928548633112"><ele>113.0</ele><time>2026-05-03T10:05:09Z</time></trkpt><trkpt lat="43.38038058371922" lon="-0.5834718162120683"><ele>112.99999999999999</ele><time>2026-05-03T10:05:10Z</time></trkpt><trkpt lat="43.3803135296714" lon="-0.5834503621625726"><ele>113.0</ele><time>2026-05-03T10:05:11Z</time></trkpt><trkpt lat="43.38024449788775" lon="-0.5834303612708264"><ele>112.85714285714286</ele><time>2026-05-03T10:05:12Z</time></trkpt><trkpt lat="43.3801761318446" lon="-0.5834128561097737"><ele>112.71428571428571</ele><time>2026-05-03T10:05:13Z</time></trkpt><trkpt lat="43.38011304818832" lon="-0.5833779768341554"><ele>112.57142857142857</ele><time>2026-05-03T10:05:14Z</time></trkpt><trkpt lat="43.38002032768411" lon="-0.5834077296615076"><ele>112.42857142857143</ele><time>2026-05-03T10:05:15Z</time></trkpt><trkpt lat="43.37996976895332" lon="-0.5833525737578343"><ele>112.28571428571428</ele><time>2026-05-03T10:05:16Z</time></trkpt><trkpt lat="43.37990432555717" lon="-0.5833245872310249"><ele>112.14285714285714</ele><time>2026-05-03T10:05:17Z</time></trkpt><trkpt lat="43.379840725567426" lon="-0.5832784672413047"><ele>112.0</ele><time>2026-05-03T10:05:18Z</time></trkpt><trkpt lat="43.379780254636636" lon="-0.5832264668078353"><ele>112.0</ele><time>2026-05-03T10:05:19Z</time></trkpt><trkpt lat="43.37972190968455" lon="-0.583172703007625"><ele>112.0</ele><time>2026-05-03T10:05:20Z</time></trkpt><trkpt lat="43.379661445531184" lon="-0.5831120928920588"><ele>112.0</ele><time>2026-05-03T10:05:21Z</time></trkpt><trkpt lat="43.37960612790358" lon="-0.5830480484356276"><ele>112.0</ele><time>2026-05-03T10:05:22Z</time></trkpt><trkpt lat="43.37955682941465" lon="-0.5829742046842616"><ele>112.0</ele><time>2026-05-03T10:05:23Z</time></trkpt><trkpt lat="43.379513469315555" lon="-0.5828913552487833"><ele>112.0</ele><time>2026-05-03T10:05:24Z</time></trkpt><trkpt lat="43.3794725922988" lon="-0.582804947330151"><ele>112.0</ele><time>2026-05-03T10:05:25Z</time></trkpt><trkpt lat="43.379443849190274" lon="-0.5827105794734465"><ele>112.28571428571428</ele><time>2026-05-03T10:05:26Z</time></trkpt><trkpt lat="43.37941646502029" lon="-0.5826173894832075"><ele>112.57142857142857</ele><time>2026-05-03T10:05:27Z</time></trkpt><trkpt lat="43.37938607348062" lon="-0.58252622586187"><ele>112.85714285714286</ele><time>2026-05-03T10:05:28Z</time></trkpt><trkpt lat="43.37935410339066" lon="-0.5824400821010761"><ele>113.14285714285714</ele><time>2026-05-03T10:05:29Z</time></trkpt><trkpt lat="43.37932227857347" lon="-0.5823508178451956"><ele>113.42857142857142</ele><time>2026-05-03T10:05:30Z</time></trkpt><trkpt lat="43.379291975387225" lon="-0.5822648771679968"><ele>113.71428571428571</ele><time>2026-05-03T10:05:31Z</time></trkpt><trkpt lat="43.379263018142176" lon="-0.5821765635227497"><ele>114.0</ele><time>2026-05-03T10:05:32Z</time></trkpt><trkpt lat="43.379235848345964" lon="-0.582086622943682"><ele>114.14285714285714</ele><time>2026-05-03T10:05:33Z</time></trkpt><trkpt lat="43.37920928937325" lon="-0.5820021264030845"><ele>114.28571428571428</ele><time>2026-05-03T10:05:34Z</time></trkpt><trkpt lat="43.379181460086635" lon="-0.5819107027079771"><ele>114.42857142857142</ele><time>2026-05-03T10:05:35Z</time></trkpt><trkpt lat="43.37914984398739" lon="-0.5818275103109958"><ele>114.57142857142856</ele><time>2026-05-03T10:05:36Z</time></trkpt><trkpt lat="43.37911935909395" lon="-0.5817383346678551"><ele>114.71428571428571</ele><time>2026-05-03T10:05:37Z</time></trkpt><trkpt lat="43.37909579918519" lon="-0.5816474146684427"><ele>114.85714285714283</ele><time>2026-05-03T10:05:38Z</time></trkpt><trkpt lat="43.37906290697934" lon="-0.5815570609014298"><ele>114.99999999999999</ele><time>2026-05-03T10:05:39Z</time></trkpt><trkpt lat="43.37902952557851" lon="-0.5814727913357751"><ele>115.00000000000001</ele><time>2026-05-03T10:05:40Z</time></trkpt><trkpt lat="43.3789985708614" lon="-0.5813812552444418"><ele>115.0</ele><time>2026-05-03T10:05:41Z</time></trkpt><trkpt lat="43.378961847989224" lon="-0.5812807719667313"><ele>115.0</ele><time>2026-05-03T10:05:42Z</time></trkpt><trkpt lat="43.37893522701767" lon="-0.5811954203669314"><ele>115.0</ele><time>2026-05-03T10:05:43Z</time></trkpt><trkpt lat="43.37890622332074" lon="-0.581101578195538"><ele>115.00000000000001</ele><time>2026-05-03T10:05:44Z</time></trkpt><trkpt lat="43.378883766468235" lon="-0.581011468557463"><ele>115.0</ele><time>2026-05-03T10:05:45Z</time></trkpt><trkpt lat="43.37882454592761" lon="-0.5808285449990268"><ele>114.99999999999999</ele><time>2026-05-03T10:05:47Z</time></trkpt><trkpt lat="43.378789045384984" lon="-0.5807417905123345"><ele>115.0</ele><time>2026-05-03T10:05:48Z</time></trkpt><trkpt lat="43.378760133743945" lon="-0.5806475076852885"><ele>114.99999999999999</ele><time>2026-05-03T10:05:49Z</time></trkpt><trkpt lat="43.37873053508333" lon="-0.5805635876641302"><ele>114.99999999999999</ele><time>2026-05-03T10:05:50Z</time></trkpt><trkpt lat="43.37869811158129" lon="-0.5804769981342067"><ele>115.0</ele><time>2026-05-03T10:05:51Z</time></trkpt><trkpt lat="43.37866672281727" lon="-0.5803873609315334"><ele>114.99999999999999</ele><time>2026-05-03T10:05:52Z</time></trkpt><trkpt lat="43.37863928467432" lon="-0.5802933244457855"><ele>114.99999999999999</ele><time>2026-05-03T10:05:52.999Z</time></trkpt><trkpt lat="43.37860988094006" lon="-0.5802077595237983"><ele>114.99999999999999</ele><time>2026-05-03T10:05:53.999Z</time></trkpt><trkpt lat="43.37857574644755" lon="-0.5801232771360747"><ele>115.0</ele><time>2026-05-03T10:05:54.999Z</time></trkpt><trkpt lat="43.378548450111715" lon="-0.5800330970889119"><ele>114.99999999999999</ele><time>2026-05-03T10:05:55.999Z</time></trkpt><trkpt lat="43.37852284205953" lon="-0.579940876926294"><ele>114.99999999999999</ele><time>2026-05-03T10:05:56.999Z</time></trkpt><trkpt lat="43.37849550067112" lon="-0.5798566206766521"><ele>115.0</ele><time>2026-05-03T10:05:57.999Z</time></trkpt><trkpt lat="43.37846744753549" lon="-0.5797671715678405"><ele>114.99999999999999</ele><time>2026-05-03T10:05:58.999Z</time></trkpt><trkpt lat="43.37843698030672" lon="-0.5796862258451232"><ele>114.99999999999999</ele><time>2026-05-03T10:05:59.999Z</time></trkpt><trkpt lat="43.37840110136881" lon="-0.5795993933193515"><ele>115.14285714285712</ele><time>2026-05-03T10:06:00.999Z</time></trkpt><trkpt lat="43.37837520823155" lon="-0.5795146742431911"><ele>115.28571428571428</ele><time>2026-05-03T10:06:01.999Z</time></trkpt><trkpt lat="43.37834745762471" lon="-0.5794202096294965"><ele>115.42857142857143</ele><time>2026-05-03T10:06:02.999Z</time></trkpt><trkpt lat="43.37832118944432" lon="-0.5793276182951898"><ele>115.57142857142857</ele><time>2026-05-03T10:06:03.999Z</time></trkpt><trkpt lat="43.378287319396975" lon="-0.5792471479684063"><ele>115.71428571428572</ele><time>2026-05-03T10:06:04.999Z</time></trkpt><trkpt lat="43.37825661642863" lon="-0.5791629333814976"><ele>115.85714285714288</ele><time>2026-05-03T10:06:05.999Z</time></trkpt><trkpt lat="43.37822712842239" lon="-0.5790738709452953"><ele>116.00000000000001</ele><time>2026-05-03T10:06:06.999Z</time></trkpt><trkpt lat="43.378198789674414" lon="-0.5789906794781281"><ele>116.00000000000001</ele><time>2026-05-03T10:06:07.999Z</time></trkpt><trkpt lat="43.378165533714544" lon="-0.5789058634719244"><ele>116.0</ele><time>2026-05-03T10:06:09Z</time></trkpt><trkpt lat="43.378135174426085" lon="-0.578814045811441"><ele>116.00000000000001</ele><time>2026-05-03T10:06:10Z</time></trkpt><trkpt lat="43.37810865806672" lon="-0.5787290379073519"><ele>116.00000000000001</ele><time>2026-05-03T10:06:11Z</time></trkpt><trkpt lat="43.37808131003491" lon="-0.578645949587234"><ele>116.0</ele><time>2026-05-03T10:06:12Z</time></trkpt><trkpt lat="43.37805314690806" lon="-0.5785596982935567"><ele>116.00000000000001</ele><time>2026-05-03T10:06:13Z</time></trkpt><trkpt lat="43.37802432009751" lon="-0.5784718793540867"><ele>116.00000000000001</ele><time>2026-05-03T10:06:14Z</time></trkpt><trkpt lat="43.37799463783503" lon="-0.5783842569068356"><ele>116.00000000000001</ele><time>2026-05-03T10:06:15Z</time></trkpt><trkpt lat="43.37796421889852" lon="-0.5783025890335184"><ele>116.0</ele><time>2026-05-03T10:06:16Z</time></trkpt><trkpt lat="43.37793613633312" lon="-0.5782158964553111"><ele>116.00000000000001</ele><time>2026-05-03T10:06:17Z</time></trkpt><trkpt lat="43.37790339532343" lon="-0.5781245151199211"><ele>116.00000000000001</ele><time>2026-05-03T10:06:18Z</time></trkpt><trkpt lat="43.37787555811855" lon="-0.5780439943201954"><ele>116.0</ele><time>2026-05-03T10:06:19Z</time></trkpt><trkpt lat="43.37784877493437" lon="-0.5779540573646351"><ele>116.00000000000001</ele><time>2026-05-03T10:06:20Z</time></trkpt><trkpt lat="43.37781612471757" lon="-0.5778693090921605"><ele>116.00000000000001</ele><time>2026-05-03T10:06:21Z</time></trkpt><trkpt lat="43.37778564210345" lon="-0.5777825876154081"><ele>116.2857142857143</ele><time>2026-05-03T10:06:22Z</time></trkpt><trkpt lat="43.377759530296665" lon="-0.5776947620953253"><ele>116.57142857142858</ele><time>2026-05-03T10:06:23Z</time></trkpt><trkpt lat="43.37773016894271" lon="-0.5776009769975579"><ele>116.85714285714286</ele><time>2026-05-03T10:06:24Z</time></trkpt><trkpt lat="43.37770266601017" lon="-0.5775162233266274"><ele>117.14285714285715</ele><time>2026-05-03T10:06:25Z</time></trkpt><trkpt lat="43.37766753009113" lon="-0.5774245132277648"><ele>117.42857142857144</ele><time>2026-05-03T10:06:26Z</time></trkpt><trkpt lat="43.37763958374894" lon="-0.577342424276414"><ele>117.71428571428571</ele><time>2026-05-03T10:06:27Z</time></trkpt><trkpt lat="43.37762291161566" lon="-0.5772587631482425"><ele>118.0</ele><time>2026-05-03T10:06:28Z</time></trkpt><trkpt lat="43.37758508979743" lon="-0.5771719143909252"><ele>118.0</ele><time>2026-05-03T10:06:29Z</time></trkpt><trkpt lat="43.37755225190659" lon="-0.5770893950967665"><ele>118.0</ele><time>2026-05-03T10:06:30Z</time></trkpt><trkpt lat="43.377521335786334" lon="-0.5770052932591988"><ele>118.0</ele><time>2026-05-03T10:06:31Z</time></trkpt><trkpt lat="43.37748851076773" lon="-0.5769238770148913"><ele>118.0</ele><time>2026-05-03T10:06:32Z</time></trkpt><trkpt lat="43.377449164381524" lon="-0.5768485271731244"><ele>118.0</ele><time>2026-05-03T10:06:33Z</time></trkpt><trkpt lat="43.37741164880299" lon="-0.576770730546127"><ele>118.0</ele><time>2026-05-03T10:06:34Z</time></trkpt><trkpt lat="43.37736577382625" lon="-0.5766971960362122"><ele>118.0</ele><time>2026-05-03T10:06:35Z</time></trkpt><trkpt lat="43.37732391201952" lon="-0.5766238159949001"><ele>117.66666666666667</ele><time>2026-05-03T10:06:36Z</time></trkpt><trkpt lat="43.37728011882636" lon="-0.576553675188954"><ele>117.33333333333334</ele><time>2026-05-03T10:06:37Z</time></trkpt><trkpt lat="43.37724006738907" lon="-0.5764847251343207"><ele>117.0</ele><time>2026-05-03T10:06:38Z</time></trkpt><trkpt lat="43.377153507979166" lon="-0.5763389963420484"><ele>116.66666666666666</ele><time>2026-05-03T10:06:40Z</time></trkpt><trkpt lat="43.377113200798966" lon="-0.5762666380008221"><ele>116.33333333333333</ele><time>2026-05-03T10:06:41Z</time></trkpt><trkpt lat="43.37706716876579" lon="-0.5761933167956663"><ele>116.0</ele><time>2026-05-03T10:06:42Z</time></trkpt><trkpt lat="43.37702391555724" lon="-0.5761226631313371"><ele>115.85714285714288</ele><time>2026-05-03T10:06:43Z</time></trkpt><trkpt lat="43.37698070105016" lon="-0.5760504474828414"><ele>115.71428571428572</ele><time>2026-05-03T10:06:44Z</time></trkpt><trkpt lat="43.37693584521121" lon="-0.5759781076246431"><ele>115.57142857142857</ele><time>2026-05-03T10:06:45Z</time></trkpt><trkpt lat="43.37689111284183" lon="-0.5759139260944585"><ele>115.42857142857143</ele><time>2026-05-03T10:06:46Z</time></trkpt><trkpt lat="43.37684858081785" lon="-0.5758402560225295"><ele>115.28571428571428</ele><time>2026-05-03T10:06:47Z</time></trkpt><trkpt lat="43.376800579624984" lon="-0.575770070888447"><ele>115.14285714285712</ele><time>2026-05-03T10:06:48Z</time></trkpt><trkpt lat="43.37675833501939" lon="-0.575696458362841"><ele>114.99999999999999</ele><time>2026-05-03T10:06:49Z</time></trkpt><trkpt lat="43.37671548199932" lon="-0.5756207682339255"><ele>114.99999999999999</ele><time>2026-05-03T10:06:50Z</time></trkpt><trkpt lat="43.37667272984895" lon="-0.5755502806033849"><ele>115.0</ele><time>2026-05-03T10:06:51Z</time></trkpt><trkpt lat="43.37663089441924" lon="-0.5754729250150229"><ele>114.99999999999999</ele><time>2026-05-03T10:06:52Z</time></trkpt><trkpt lat="43.37658744275791" lon="-0.5754021074351595"><ele>114.99999999999999</ele><time>2026-05-03T10:06:53Z</time></trkpt><trkpt lat="43.37654237971031" lon="-0.5753267795683087"><ele>115.0</ele><time>2026-05-03T10:06:54Z</time></trkpt><trkpt lat="43.37649979763358" lon="-0.5752570217856593"><ele>114.99999999999999</ele><time>2026-05-03T10:06:55Z</time></trkpt><trkpt lat="43.37645903913436" lon="-0.5751808946096085"><ele>114.99999999999999</ele><time>2026-05-03T10:06:56Z</time></trkpt><trkpt lat="43.376416592448514" lon="-0.5751037091369391"><ele>114.99999999999999</ele><time>2026-05-03T10:06:57Z</time></trkpt><trkpt lat="43.37637149100138" lon="-0.5750289847763105"><ele>115.0</ele><time>2026-05-03T10:06:58Z</time></trkpt><trkpt lat="43.376325839150745" lon="-0.574951753151368"><ele>114.99999999999999</ele><time>2026-05-03T10:06:59Z</time></trkpt><trkpt lat="43.37627799384913" lon="-0.5748759936150046"><ele>114.99999999999999</ele><time>2026-05-03T10:07:00Z</time></trkpt><trkpt lat="43.376231712071714" lon="-0.5748067074618619"><ele>115.0</ele><time>2026-05-03T10:07:01Z</time></trkpt><trkpt lat="43.37618425799933" lon="-0.5747280814198333"><ele>114.99999999999999</ele><time>2026-05-03T10:07:02Z</time></trkpt><trkpt lat="43.37614086632196" lon="-0.574650398917783"><ele>114.99999999999999</ele><time>2026-05-03T10:07:03Z</time></trkpt><trkpt lat="43.37609692934016" lon="-0.5745685089763183"><ele>115.28571428571428</ele><time>2026-05-03T10:07:04Z</time></trkpt><trkpt lat="43.37605137364365" lon="-0.5744941975534382"><ele>115.57142857142857</ele><time>2026-05-03T10:07:05Z</time></trkpt><trkpt lat="43.376011600586686" lon="-0.5744121323985232"><ele>115.85714285714286</ele><time>2026-05-03T10:07:06Z</time></trkpt><trkpt lat="43.3759585274555" lon="-0.5743373848752329"><ele>116.14285714285714</ele><time>2026-05-03T10:07:07Z</time></trkpt><trkpt lat="43.37591000844795" lon="-0.5742656877419046"><ele>116.42857142857144</ele><time>2026-05-03T10:07:08Z</time></trkpt><trkpt lat="43.37586760487431" lon="-0.5741863201003897"><ele>116.71428571428572</ele><time>2026-05-03T10:07:09Z</time></trkpt><trkpt lat="43.37581498137185" lon="-0.5741135114338229"><ele>117.0</ele><time>2026-05-03T10:07:10Z</time></trkpt><trkpt lat="43.37577100544881" lon="-0.5740401591592753"><ele>117.0</ele><time>2026-05-03T10:07:11Z</time></trkpt><trkpt lat="43.375730305784565" lon="-0.5739579338988205"><ele>117.00000000000001</ele><time>2026-05-03T10:07:12Z</time></trkpt><trkpt lat="43.37568604767118" lon="-0.5738825890090247"><ele>117.0</ele><time>2026-05-03T10:07:13Z</time></trkpt><trkpt lat="43.3756405294913" lon="-0.5738018516634852"><ele>117.0</ele><time>2026-05-03T10:07:14Z</time></trkpt><trkpt lat="43.375592138468285" lon="-0.5737294602864825"><ele>117.00000000000001</ele><time>2026-05-03T10:07:15Z</time></trkpt><trkpt lat="43.37554979217901" lon="-0.573653181085916"><ele>117.0</ele><time>2026-05-03T10:07:16Z</time></trkpt><trkpt lat="43.375504225730865" lon="-0.5735805015816231"><ele>117.0</ele><time>2026-05-03T10:07:17Z</time></trkpt><trkpt lat="43.375461216226626" lon="-0.5735039644799181"><ele>117.42857142857143</ele><time>2026-05-03T10:07:18Z</time></trkpt><trkpt lat="43.37541651353386" lon="-0.5734292508567603"><ele>117.85714285714286</ele><time>2026-05-03T10:07:19Z</time></trkpt><trkpt lat="43.37536744080097" lon="-0.5733559772969817"><ele>118.28571428571429</ele><time>2026-05-03T10:07:20Z</time></trkpt><trkpt lat="43.37532324038651" lon="-0.5732838868503902"><ele>118.71428571428572</ele><time>2026-05-03T10:07:21Z</time></trkpt><trkpt lat="43.375280629641644" lon="-0.573208192064845"><ele>119.14285714285714</ele><time>2026-05-03T10:07:22Z</time></trkpt><trkpt lat="43.375235871015626" lon="-0.5731355444481029"><ele>119.57142857142858</ele><time>2026-05-03T10:07:23Z</time></trkpt><trkpt lat="43.37518960820863" lon="-0.5730633977912217"><ele>120.0</ele><time>2026-05-03T10:07:24Z</time></trkpt><trkpt lat="43.37514651045682" lon="-0.5729918387599701"><ele>120.0</ele><time>2026-05-03T10:07:25Z</time></trkpt><trkpt lat="43.375103591580746" lon="-0.5729162402956909"><ele>120.0</ele><time>2026-05-03T10:07:26Z</time></trkpt><trkpt lat="43.37506108641411" lon="-0.5728457241614208"><ele>120.0</ele><time>2026-05-03T10:07:27Z</time></trkpt><trkpt lat="43.37501462147784" lon="-0.5727781887437479"><ele>120.0</ele><time>2026-05-03T10:07:28Z</time></trkpt><trkpt lat="43.37497288227772" lon="-0.572706165396409"><ele>120.0</ele><time>2026-05-03T10:07:29Z</time></trkpt><trkpt lat="43.374931238143574" lon="-0.5726357210267323"><ele>120.0</ele><time>2026-05-03T10:07:30Z</time></trkpt><trkpt lat="43.374884936078615" lon="-0.5725669551851581"><ele>120.0</ele><time>2026-05-03T10:07:31Z</time></trkpt><trkpt lat="43.374840545699406" lon="-0.5724965249541721"><ele>119.85714285714286</ele><time>2026-05-03T10:07:32Z</time></trkpt><trkpt lat="43.37479739638761" lon="-0.5724253632106433"><ele>119.71428571428571</ele><time>2026-05-03T10:07:33Z</time></trkpt><trkpt lat="43.37475262926004" lon="-0.5723524430979303"><ele>119.57142857142857</ele><time>2026-05-03T10:07:34Z</time></trkpt><trkpt lat="43.374704357178146" lon="-0.5722838912255627"><ele>119.42857142857143</ele><time>2026-05-03T10:07:35Z</time></trkpt><trkpt lat="43.37465246435705" lon="-0.5722199080015677"><ele>119.28571428571428</ele><time>2026-05-03T10:07:36Z</time></trkpt><trkpt lat="43.37459627244113" lon="-0.5721601747287045"><ele>119.14285714285714</ele><time>2026-05-03T10:07:37Z</time></trkpt><trkpt lat="43.37454014682005" lon="-0.5721120378461422"><ele>119.0</ele><time>2026-05-03T10:07:38Z</time></trkpt><trkpt lat="43.3744833033875" lon="-0.5720576297944981"><ele>118.71428571428572</ele><time>2026-05-03T10:07:39Z</time></trkpt><trkpt lat="43.37442889528613" lon="-0.5719990376044533"><ele>118.42857142857143</ele><time>2026-05-03T10:07:40Z</time></trkpt><trkpt lat="43.37437692147618" lon="-0.571932213574781"><ele>118.14285714285714</ele><time>2026-05-03T10:07:41Z</time></trkpt><trkpt lat="43.374324873924714" lon="-0.5718745343992283"><ele>117.85714285714286</ele><time>2026-05-03T10:07:42Z</time></trkpt><trkpt lat="43.37427142082851" lon="-0.5718193753844271"><ele>117.57142857142858</ele><time>2026-05-03T10:07:43Z</time></trkpt><trkpt lat="43.37421729435199" lon="-0.5717618866783406"><ele>117.28571428571429</ele><time>2026-05-03T10:07:44Z</time></trkpt><trkpt lat="43.374164275001405" lon="-0.5717039248369223"><ele>117.0</ele><time>2026-05-03T10:07:45Z</time></trkpt><trkpt lat="43.374109374416264" lon="-0.5716464191739055"><ele>117.0</ele><time>2026-05-03T10:07:46Z</time></trkpt><trkpt lat="43.374054152447066" lon="-0.571587369749972"><ele>117.0</ele><time>2026-05-03T10:07:47Z</time></trkpt><trkpt lat="43.37399595087526" lon="-0.571535669712208"><ele>117.0</ele><time>2026-05-03T10:07:48Z</time></trkpt><trkpt lat="43.37394220017694" lon="-0.5714765954535427"><ele>117.0</ele><time>2026-05-03T10:07:49Z</time></trkpt><trkpt lat="43.37387620516255" lon="-0.5713586518915124"><ele>117.0</ele><time>2026-05-03T10:07:51Z</time></trkpt><trkpt lat="43.37380134313987" lon="-0.5713056987753984"><ele>117.0</ele><time>2026-05-03T10:07:52Z</time></trkpt><trkpt lat="43.373746740005004" lon="-0.5712522210891554"><ele>116.6</ele><time>2026-05-03T10:07:53Z</time></trkpt><trkpt lat="43.3736476668089" lon="-0.5711482268859177"><ele>116.19999999999999</ele><time>2026-05-03T10:07:55Z</time></trkpt><trkpt lat="43.37350236625341" lon="-0.5710979716324659"><ele>115.8</ele><time>2026-05-03T10:07:57Z</time></trkpt><trkpt lat="43.373448752794204" lon="-0.5710322694698436"><ele>115.4</ele><time>2026-05-03T10:07:58Z</time></trkpt><trkpt lat="43.37339333639575" lon="-0.5709608160597492"><ele>115.0</ele><time>2026-05-03T10:07:58.999Z</time></trkpt><trkpt lat="43.373309947695105" lon="-0.5708428826952731"><ele>115.0</ele><time>2026-05-03T10:08:00.999Z</time></trkpt><trkpt lat="43.37323237480712" lon="-0.5707122872986833"><ele>115.0</ele><time>2026-05-03T10:08:02.999Z</time></trkpt><trkpt lat="43.37321465006969" lon="-0.5706281367586803"><ele>115.0</ele><time>2026-05-03T10:08:03.999Z</time></trkpt><trkpt lat="43.373167783057696" lon="-0.5705592158966926"><ele>115.0</ele><time>2026-05-03T10:08:04.999Z</time></trkpt><trkpt lat="43.37312086276687" lon="-0.5704094251947804"><ele>115.0</ele><time>2026-05-03T10:08:06.999Z</time></trkpt><trkpt lat="43.373066775304544" lon="-0.5702714887073652"><ele>115.0</ele><time>2026-05-03T10:08:08.999Z</time></trkpt><trkpt lat="43.3729903240294" lon="-0.5701575820049124"><ele>115.0</ele><time>2026-05-03T10:08:10.999Z</time></trkpt><trkpt lat="43.372902409008844" lon="-0.5701146634448705"><ele>115.0</ele><time>2026-05-03T10:08:12.999Z</time></trkpt><trkpt lat="43.37283970789758" lon="-0.5700133478137398"><ele>115.0</ele><time>2026-05-03T10:08:15Z</time></trkpt><trkpt lat="43.37285179569419" lon="-0.5698679085414169"><ele>115.0</ele><time>2026-05-03T10:08:17Z</time></trkpt><trkpt lat="43.37288219092551" lon="-0.5697308623354048"><ele>115.0</ele><time>2026-05-03T10:08:19Z</time></trkpt><trkpt lat="43.37284039480951" lon="-0.5695502339091557"><ele>115.0</ele><time>2026-05-03T10:08:22Z</time></trkpt><trkpt lat="43.37280424155712" lon="-0.5694094323295698"><ele>115.0</ele><time>2026-05-03T10:08:24Z</time></trkpt><trkpt lat="43.372761784538575" lon="-0.5692675982507157"><ele>115.0</ele><time>2026-05-03T10:08:26Z</time></trkpt><trkpt lat="43.37270955288123" lon="-0.569123049360858"><ele>115.0</ele><time>2026-05-03T10:08:28Z</time></trkpt><trkpt lat="43.37266302182283" lon="-0.5689701332580057"><ele>115.0</ele><time>2026-05-03T10:08:30Z</time></trkpt><trkpt lat="43.37263774305279" lon="-0.5688870589271952"><ele>115.0</ele><time>2026-05-03T10:08:31Z</time></trkpt><trkpt lat="43.372590815012096" lon="-0.56873283819621"><ele>115.0</ele><time>2026-05-03T10:08:33Z</time></trkpt><trkpt lat="43.37256450559367" lon="-0.5686463769036673"><ele>115.0</ele><time>2026-05-03T10:08:34Z</time></trkpt><trkpt lat="43.37252244907289" lon="-0.5685097870714021"><ele>115.0</ele><time>2026-05-03T10:08:36Z</time></trkpt><trkpt lat="43.372492305071006" lon="-0.5683593675297488"><ele>115.0</ele><time>2026-05-03T10:08:38Z</time></trkpt><trkpt lat="43.372448798611416" lon="-0.5682109419534529"><ele>115.0</ele><time>2026-05-03T10:08:40Z</time></trkpt><trkpt lat="43.37240443857928" lon="-0.5681269972386211"><ele>115.0</ele><time>2026-05-03T10:08:41Z</time></trkpt><trkpt lat="43.37237701169967" lon="-0.5679751598969531"><ele>115.0</ele><time>2026-05-03T10:08:43Z</time></trkpt><trkpt lat="43.37236802798687" lon="-0.567833799260803"><ele>115.16666666666667</ele><time>2026-05-03T10:08:45Z</time></trkpt><trkpt lat="43.37235253011265" lon="-0.5676640949792543"><ele>115.33333333333334</ele><time>2026-05-03T10:08:47Z</time></trkpt><trkpt lat="43.37231061295608" lon="-0.5675802222846628"><ele>115.5</ele><time>2026-05-03T10:08:48Z</time></trkpt><trkpt lat="43.37227426036815" lon="-0.5674989480107906"><ele>115.66666666666666</ele><time>2026-05-03T10:08:49Z</time></trkpt><trkpt lat="43.37221945076219" lon="-0.5674461962417291"><ele>115.83333333333333</ele><time>2026-05-03T10:08:50Z</time></trkpt><trkpt lat="43.372159782364065" lon="-0.5673843795278003"><ele>116.0</ele><time>2026-05-03T10:08:51Z</time></trkpt><trkpt lat="43.37210001237533" lon="-0.5673336531590107"><ele>115.99999999999999</ele><time>2026-05-03T10:08:52Z</time></trkpt><trkpt lat="43.3720392251414" lon="-0.5672724961849039"><ele>116.0</ele><time>2026-05-03T10:08:53Z</time></trkpt><trkpt lat="43.3719966561916" lon="-0.5671997640069717"><ele>116.0</ele><time>2026-05-03T10:08:54Z</time></trkpt><trkpt lat="43.37194007741563" lon="-0.5671494297974662"><ele>116.0</ele><time>2026-05-03T10:08:55Z</time></trkpt><trkpt lat="43.37189772254524" lon="-0.567082925890079"><ele>115.99999999999999</ele><time>2026-05-03T10:08:56Z</time></trkpt><trkpt lat="43.37185647155979" lon="-0.5670152381041553"><ele>116.0</ele><time>2026-05-03T10:08:57Z</time></trkpt><trkpt lat="43.37176634289116" lon="-0.5669020787015816"><ele>115.66666666666666</ele><time>2026-05-03T10:08:59Z</time></trkpt><trkpt lat="43.371716273364356" lon="-0.5668471632148118"><ele>115.33333333333333</ele><time>2026-05-03T10:09:00Z</time></trkpt><trkpt lat="43.37162799257904" lon="-0.5667356391682262"><ele>115.0</ele><time>2026-05-03T10:09:02Z</time></trkpt><trkpt lat="43.371583768423804" lon="-0.5666666363424195"><ele>114.66666666666666</ele><time>2026-05-03T10:09:03Z</time></trkpt><trkpt lat="43.37148711461278" lon="-0.5665669094572976"><ele>114.33333333333333</ele><time>2026-05-03T10:09:05Z</time></trkpt><trkpt lat="43.37144391787045" lon="-0.5665027453698508"><ele>114.0</ele><time>2026-05-03T10:09:06Z</time></trkpt><trkpt lat="43.37138679071404" lon="-0.5664557146190768"><ele>114.28571428571428</ele><time>2026-05-03T10:09:07Z</time></trkpt><trkpt lat="43.37134120987697" lon="-0.5663873687547126"><ele>114.57142857142856</ele><time>2026-05-03T10:09:08Z</time></trkpt><trkpt lat="43.3712898089403" lon="-0.5663363293542234"><ele>114.85714285714286</ele><time>2026-05-03T10:09:09Z</time></trkpt><trkpt lat="43.37123499688357" lon="-0.5662890710326368"><ele>115.14285714285714</ele><time>2026-05-03T10:09:10Z</time></trkpt><trkpt lat="43.37118058570702" lon="-0.5662425077715798"><ele>115.42857142857143</ele><time>2026-05-03T10:09:11Z</time></trkpt><trkpt lat="43.37112868427254" lon="-0.5661870910325973"><ele>115.71428571428572</ele><time>2026-05-03T10:09:12Z</time></trkpt><trkpt lat="43.371025180352746" lon="-0.5660934078410289"><ele>116.00000000000001</ele><time>2026-05-03T10:09:14Z</time></trkpt><trkpt lat="43.37097315057966" lon="-0.5660315704258986"><ele>115.99999999999999</ele><time>2026-05-03T10:09:15Z</time></trkpt><trkpt lat="43.370919454668126" lon="-0.5659732238110442"><ele>116.0</ele><time>2026-05-03T10:09:16Z</time></trkpt><trkpt lat="43.370876544758566" lon="-0.5658986860830252"><ele>116.0</ele><time>2026-05-03T10:09:17Z</time></trkpt><trkpt lat="43.37083951515964" lon="-0.5658253840899853"><ele>116.0</ele><time>2026-05-03T10:09:18Z</time></trkpt><trkpt lat="43.37077285775691" lon="-0.56569194998375"><ele>115.99999999999999</ele><time>2026-05-03T10:09:20Z</time></trkpt><trkpt lat="43.37072016527004" lon="-0.5655450873079461"><ele>116.0</ele><time>2026-05-03T10:09:22Z</time></trkpt><trkpt lat="43.37067849690129" lon="-0.5653826826667743"><ele>115.6</ele><time>2026-05-03T10:09:24Z</time></trkpt><trkpt lat="43.37067846430243" lon="-0.5652189608506851"><ele>115.19999999999999</ele><time>2026-05-03T10:09:26Z</time></trkpt><trkpt lat="43.37067512765722" lon="-0.5650524353139394"><ele>114.80000000000001</ele><time>2026-05-03T10:09:28Z</time></trkpt><trkpt lat="43.37069206081585" lon="-0.5648826511473177"><ele>114.4</ele><time>2026-05-03T10:09:30Z</time></trkpt><trkpt lat="43.37070260062794" lon="-0.5647930443343534"><ele>114.0</ele><time>2026-05-03T10:09:31Z</time></trkpt><trkpt lat="43.370726467526296" lon="-0.5646323396236252"><ele>114.0</ele><time>2026-05-03T10:09:33Z</time></trkpt><trkpt lat="43.37073674251968" lon="-0.5645312075047879"><ele>114.0</ele><time>2026-05-03T10:09:34Z</time></trkpt><trkpt lat="43.37074786841994" lon="-0.5644430767669685"><ele>114.0</ele><time>2026-05-03T10:09:35Z</time></trkpt><trkpt lat="43.370761662109835" lon="-0.5643531100488365"><ele>114.0</ele><time>2026-05-03T10:09:36Z</time></trkpt><trkpt lat="43.37078416770262" lon="-0.5641801058207407"><ele>114.0</ele><time>2026-05-03T10:09:38Z</time></trkpt><trkpt lat="43.37080537059179" lon="-0.5640147350907626"><ele>114.2</ele><time>2026-05-03T10:09:40Z</time></trkpt><trkpt lat="43.37081368809517" lon="-0.5639259375966489"><ele>114.4</ele><time>2026-05-03T10:09:41Z</time></trkpt><trkpt lat="43.370817220496505" lon="-0.5638285492584137"><ele>114.6</ele><time>2026-05-03T10:09:42Z</time></trkpt><trkpt lat="43.370798942921176" lon="-0.5636533093273187"><ele>114.8</ele><time>2026-05-03T10:09:44Z</time></trkpt><trkpt lat="43.37079306259703" lon="-0.5634817618938185"><ele>115.0</ele><time>2026-05-03T10:09:46Z</time></trkpt><trkpt lat="43.370796300884805" lon="-0.5633941744359569"><ele>114.99999999999999</ele><time>2026-05-03T10:09:47Z</time></trkpt><trkpt lat="43.37079706291632" lon="-0.5633068127105287"><ele>115.0</ele><time>2026-05-03T10:09:48Z</time></trkpt><trkpt lat="43.370791982571426" lon="-0.5632181589559865"><ele>114.99999999999999</ele><time>2026-05-03T10:09:49Z</time></trkpt><trkpt lat="43.370787390472316" lon="-0.5631293530384266"><ele>114.99999999999999</ele><time>2026-05-03T10:09:50Z</time></trkpt><trkpt lat="43.37075279227121" lon="-0.5630418170764311"><ele>115.0</ele><time>2026-05-03T10:09:51Z</time></trkpt><trkpt lat="43.37077135176962" lon="-0.5629502982685398"><ele>114.99999999999999</ele><time>2026-05-03T10:09:52Z</time></trkpt><trkpt lat="43.37076670645328" lon="-0.5628594837383643"><ele>114.99999999999999</ele><time>2026-05-03T10:09:53Z</time></trkpt><trkpt lat="43.37076265204235" lon="-0.5627687317730833"><ele>114.99999999999999</ele><time>2026-05-03T10:09:54Z</time></trkpt><trkpt lat="43.37076660598451" lon="-0.5626789072831013"><ele>115.0</ele><time>2026-05-03T10:09:55Z</time></trkpt><trkpt lat="43.37076635360265" lon="-0.562586480477848"><ele>114.99999999999999</ele><time>2026-05-03T10:09:56Z</time></trkpt><trkpt lat="43.37076451466963" lon="-0.562496947848417"><ele>114.99999999999999</ele><time>2026-05-03T10:09:57Z</time></trkpt><trkpt lat="43.3707634295195" lon="-0.562407758983003"><ele>115.0</ele><time>2026-05-03T10:09:58Z</time></trkpt><trkpt lat="43.37075878251846" lon="-0.5623209764653516"><ele>114.99999999999999</ele><time>2026-05-03T10:09:59Z</time></trkpt><trkpt lat="43.370733099848835" lon="-0.5621555003812931"><ele>114.99999999999999</ele><time>2026-05-03T10:10:01Z</time></trkpt><trkpt lat="43.37069263723885" lon="-0.5619943415160075"><ele>115.33333333333334</ele><time>2026-05-03T10:10:03Z</time></trkpt><trkpt lat="43.37065273222395" lon="-0.5618311234728487"><ele>115.66666666666667</ele><time>2026-05-03T10:10:05Z</time></trkpt><trkpt lat="43.37062537772947" lon="-0.5617520084747426"><ele>116.0</ele><time>2026-05-03T10:10:06Z</time></trkpt><trkpt lat="43.37059660036562" lon="-0.5616749305430071"><ele>116.33333333333334</ele><time>2026-05-03T10:10:07Z</time></trkpt><trkpt lat="43.370565392047375" lon="-0.5615943582787609"><ele>116.66666666666667</ele><time>2026-05-03T10:10:08Z</time></trkpt><trkpt lat="43.37052522917395" lon="-0.5615231229882782"><ele>117.0</ele><time>2026-05-03T10:10:09Z</time></trkpt><trkpt lat="43.370479025469976" lon="-0.5614534004366435"><ele>117.14285714285715</ele><time>2026-05-03T10:10:10Z</time></trkpt><trkpt lat="43.37043526490331" lon="-0.5613819829843041"><ele>117.2857142857143</ele><time>2026-05-03T10:10:11Z</time></trkpt><trkpt lat="43.37039112277016" lon="-0.5613150505185448"><ele>117.42857142857143</ele><time>2026-05-03T10:10:12Z</time></trkpt><trkpt lat="43.37034179790889" lon="-0.5612540453140965"><ele>117.57142857142858</ele><time>2026-05-03T10:10:13Z</time></trkpt><trkpt lat="43.37030195502694" lon="-0.5611791132135356"><ele>117.71428571428572</ele><time>2026-05-03T10:10:14Z</time></trkpt><trkpt lat="43.3702697345586" lon="-0.5610887141288268"><ele>117.85714285714286</ele><time>2026-05-03T10:10:15Z</time></trkpt><trkpt lat="43.37022703492046" lon="-0.5610190898029093"><ele>118.0</ele><time>2026-05-03T10:10:16Z</time></trkpt><trkpt lat="43.370184167561305" lon="-0.5609456735507156"><ele>118.0</ele><time>2026-05-03T10:10:17Z</time></trkpt><trkpt lat="43.370139929043894" lon="-0.5608795919590633"><ele>118.0</ele><time>2026-05-03T10:10:18Z</time></trkpt><trkpt lat="43.37009279739417" lon="-0.5608089358419105"><ele>118.0</ele><time>2026-05-03T10:10:19Z</time></trkpt><trkpt lat="43.37004420495084" lon="-0.5607376877063809"><ele>118.0</ele><time>2026-05-03T10:10:20Z</time></trkpt><trkpt lat="43.36999867162375" lon="-0.5606692331221419"><ele>118.0</ele><time>2026-05-03T10:10:21Z</time></trkpt><trkpt lat="43.36995397311316" lon="-0.5606042792019796"><ele>118.0</ele><time>2026-05-03T10:10:22Z</time></trkpt><trkpt lat="43.36991335504765" lon="-0.5605361404212919"><ele>118.0</ele><time>2026-05-03T10:10:23Z</time></trkpt><trkpt lat="43.36983756149121" lon="-0.560401196391455"><ele>117.83333333333334</ele><time>2026-05-03T10:10:25Z</time></trkpt><trkpt lat="43.36979071338995" lon="-0.5603384914443015"><ele>117.66666666666667</ele><time>2026-05-03T10:10:26Z</time></trkpt><trkpt lat="43.369707514939584" lon="-0.5602057406241612"><ele>117.5</ele><time>2026-05-03T10:10:28Z</time></trkpt><trkpt lat="43.369663828565834" lon="-0.5601350464075374"><ele>117.33333333333334</ele><time>2026-05-03T10:10:29Z</time></trkpt><trkpt lat="43.36962578218035" lon="-0.5600610790938529"><ele>117.16666666666667</ele><time>2026-05-03T10:10:30Z</time></trkpt><trkpt lat="43.36958748898437" lon="-0.5599879083076039"><ele>117.0</ele><time>2026-05-03T10:10:31Z</time></trkpt><trkpt lat="43.369547526878605" lon="-0.5599170016002725"><ele>117.0</ele><time>2026-05-03T10:10:32Z</time></trkpt><trkpt lat="43.369523292899586" lon="-0.559833267041128"><ele>116.99999999999999</ele><time>2026-05-03T10:10:33Z</time></trkpt><trkpt lat="43.369470207927016" lon="-0.5596774900584744"><ele>116.99999999999999</ele><time>2026-05-03T10:10:35Z</time></trkpt><trkpt lat="43.369433836974785" lon="-0.5595972329690785"><ele>117.0</ele><time>2026-05-03T10:10:36Z</time></trkpt><trkpt lat="43.369370066907294" lon="-0.5594475208200714"><ele>117.0</ele><time>2026-05-03T10:10:38Z</time></trkpt><trkpt lat="43.36931993469758" lon="-0.5593808158429564"><ele>117.28571428571429</ele><time>2026-05-03T10:10:39Z</time></trkpt><trkpt lat="43.369303654434894" lon="-0.5592907432478219"><ele>117.57142857142858</ele><time>2026-05-03T10:10:40Z</time></trkpt><trkpt lat="43.369259074858434" lon="-0.5592176714965952"><ele>117.85714285714286</ele><time>2026-05-03T10:10:41Z</time></trkpt><trkpt lat="43.369239594974886" lon="-0.559123857416943"><ele>118.14285714285714</ele><time>2026-05-03T10:10:42Z</time></trkpt><trkpt lat="43.36920698846543" lon="-0.5590370412816795"><ele>118.42857142857143</ele><time>2026-05-03T10:10:43Z</time></trkpt><trkpt lat="43.36917876678356" lon="-0.558950471767765"><ele>118.71428571428572</ele><time>2026-05-03T10:10:44Z</time></trkpt><trkpt lat="43.36914831000846" lon="-0.5588669048561942"><ele>119.0</ele><time>2026-05-03T10:10:45Z</time></trkpt><trkpt lat="43.369113976286265" lon="-0.5587843915083052"><ele>119.0</ele><time>2026-05-03T10:10:46Z</time></trkpt><trkpt lat="43.369082067027996" lon="-0.5587009432634523"><ele>119.0</ele><time>2026-05-03T10:10:47Z</time></trkpt><trkpt lat="43.36904851377721" lon="-0.5586192342546306"><ele>119.0</ele><time>2026-05-03T10:10:48Z</time></trkpt><trkpt lat="43.36901603721548" lon="-0.558539445446477"><ele>119.0</ele><time>2026-05-03T10:10:49Z</time></trkpt><trkpt lat="43.36898005722467" lon="-0.5584600154853918"><ele>119.0</ele><time>2026-05-03T10:10:50Z</time></trkpt><trkpt lat="43.368943548960125" lon="-0.5583834173801063"><ele>119.0</ele><time>2026-05-03T10:10:51Z</time></trkpt><trkpt lat="43.36890336198445" lon="-0.558309887793097"><ele>119.0</ele><time>2026-05-03T10:10:52Z</time></trkpt><trkpt lat="43.36885888691366" lon="-0.5582408816351212"><ele>119.0</ele><time>2026-05-03T10:10:53Z</time></trkpt><trkpt lat="43.36880798759101" lon="-0.5581824507947777"><ele>119.0</ele><time>2026-05-03T10:10:54Z</time></trkpt><trkpt lat="43.36874846039274" lon="-0.5581523371244506"><ele>119.0</ele><time>2026-05-03T10:10:55Z</time></trkpt><trkpt lat="43.368682158731126" lon="-0.5581608023165577"><ele>119.0</ele><time>2026-05-03T10:10:56Z</time></trkpt><trkpt lat="43.36861867030967" lon="-0.5581969573024043"><ele>119.0</ele><time>2026-05-03T10:10:57Z</time></trkpt><trkpt lat="43.36856225217195" lon="-0.5582467346644043"><ele>119.0</ele><time>2026-05-03T10:10:58Z</time></trkpt><trkpt lat="43.368504863099794" lon="-0.5582844235120009"><ele>119.0</ele><time>2026-05-03T10:10:59Z</time></trkpt><trkpt lat="43.368437561756515" lon="-0.5582919197327332"><ele>119.0</ele><time>2026-05-03T10:11:00Z</time></trkpt><trkpt lat="43.36837586835258" lon="-0.5582536075422326"><ele>119.0</ele><time>2026-05-03T10:11:01Z</time></trkpt><trkpt lat="43.36831550662439" lon="-0.5582068493686445"><ele>119.0</ele><time>2026-05-03T10:11:02Z</time></trkpt><trkpt lat="43.36825874555307" lon="-0.5581560453979262"><ele>119.0</ele><time>2026-05-03T10:11:03Z</time></trkpt><trkpt lat="43.3681994413559" lon="-0.5581111859189389"><ele>119.0</ele><time>2026-05-03T10:11:04Z</time></trkpt><trkpt lat="43.368142038778636" lon="-0.5580562686746801"><ele>119.0</ele><time>2026-05-03T10:11:05Z</time></trkpt><trkpt lat="43.36808631570969" lon="-0.5580079326724695"><ele>119.0</ele><time>2026-05-03T10:11:06Z</time></trkpt><trkpt lat="43.36802922180682" lon="-0.5579610489509631"><ele>118.99999999999999</ele><time>2026-05-03T10:11:07Z</time></trkpt><trkpt lat="43.36797509189673" lon="-0.5579147253287108"><ele>119.0</ele><time>2026-05-03T10:11:08Z</time></trkpt><trkpt lat="43.367918584049754" lon="-0.5578622560883782"><ele>119.0</ele><time>2026-05-03T10:11:09Z</time></trkpt><trkpt lat="43.367863427711264" lon="-0.557816643370871"><ele>119.0</ele><time>2026-05-03T10:11:10Z</time></trkpt><trkpt lat="43.3678023528005" lon="-0.5577642094356187"><ele>118.99999999999999</ele><time>2026-05-03T10:11:11Z</time></trkpt><trkpt lat="43.36774567796889" lon="-0.5577160331130238"><ele>119.0</ele><time>2026-05-03T10:11:12Z</time></trkpt><trkpt lat="43.3676367003411" lon="-0.5576195998546291"><ele>118.99999999999999</ele><time>2026-05-03T10:11:14Z</time></trkpt><trkpt lat="43.367581494653784" lon="-0.5575721493927804"><ele>119.0</ele><time>2026-05-03T10:11:15Z</time></trkpt><trkpt lat="43.367514063535" lon="-0.5575412719719066"><ele>119.0</ele><time>2026-05-03T10:11:16Z</time></trkpt><trkpt lat="43.367404377950095" lon="-0.5574515563496698"><ele>119.0</ele><time>2026-05-03T10:11:18Z</time></trkpt><trkpt lat="43.36734941937859" lon="-0.5574067106487416"><ele>118.99999999999999</ele><time>2026-05-03T10:11:19Z</time></trkpt><trkpt lat="43.36729411388555" lon="-0.5573615817342159"><ele>119.0</ele><time>2026-05-03T10:11:20Z</time></trkpt><trkpt lat="43.36723762766463" lon="-0.5573154894616613"><ele>118.85714285714286</ele><time>2026-05-03T10:11:21Z</time></trkpt><trkpt lat="43.36718129141792" lon="-0.5572695194973711"><ele>118.71428571428572</ele><time>2026-05-03T10:11:22Z</time></trkpt><trkpt lat="43.36712378569075" lon="-0.5572225952624839"><ele>118.57142857142857</ele><time>2026-05-03T10:11:23Z</time></trkpt><trkpt lat="43.367066993779034" lon="-0.5571748588050323"><ele>118.42857142857143</ele><time>2026-05-03T10:11:24Z</time></trkpt><trkpt lat="43.367021897595635" lon="-0.5571097297515262"><ele>118.28571428571429</ele><time>2026-05-03T10:11:25Z</time></trkpt><trkpt lat="43.36696444518441" lon="-0.5570619176525697"><ele>118.14285714285714</ele><time>2026-05-03T10:11:26Z</time></trkpt><trkpt lat="43.36690793675716" lon="-0.5570104899970246"><ele>118.0</ele><time>2026-05-03T10:11:27Z</time></trkpt><trkpt lat="43.36684296584234" lon="-0.5569839313108277"><ele>118.28571428571428</ele><time>2026-05-03T10:11:28Z</time></trkpt><trkpt lat="43.36680298280259" lon="-0.5569017981164325"><ele>118.57142857142858</ele><time>2026-05-03T10:11:29Z</time></trkpt><trkpt lat="43.36676092268091" lon="-0.5568332772159472"><ele>118.85714285714286</ele><time>2026-05-03T10:11:30Z</time></trkpt><trkpt lat="43.36671120260104" lon="-0.5567770951521228"><ele>119.14285714285714</ele><time>2026-05-03T10:11:31Z</time></trkpt><trkpt lat="43.36666920245277" lon="-0.5567081448749824"><ele>119.42857142857142</ele><time>2026-05-03T10:11:32Z</time></trkpt><trkpt lat="43.3666275543041" lon="-0.5566397729097816"><ele>119.71428571428572</ele><time>2026-05-03T10:11:33Z</time></trkpt><trkpt lat="43.36658699046084" lon="-0.5565713471774989"><ele>120.0</ele><time>2026-05-03T10:11:34Z</time></trkpt><trkpt lat="43.36650692599996" lon="-0.5564370788066209"><ele>120.0</ele><time>2026-05-03T10:11:36Z</time></trkpt><trkpt lat="43.36644272047866" lon="-0.5562935809200237"><ele>120.0</ele><time>2026-05-03T10:11:38Z</time></trkpt><trkpt lat="43.36639475766842" lon="-0.5562347511911717"><ele>120.0</ele><time>2026-05-03T10:11:39Z</time></trkpt><trkpt lat="43.36631821021844" lon="-0.5561090995256942"><ele>120.0</ele><time>2026-05-03T10:11:41Z</time></trkpt><trkpt lat="43.366281547215436" lon="-0.5560351112065413"><ele>120.0</ele><time>2026-05-03T10:11:42Z</time></trkpt><trkpt lat="43.36622648627098" lon="-0.555890100054518"><ele>120.4</ele><time>2026-05-03T10:11:44Z</time></trkpt><trkpt lat="43.36615159875838" lon="-0.5557624620235003"><ele>120.8</ele><time>2026-05-03T10:11:46Z</time></trkpt><trkpt lat="43.36611855914211" lon="-0.555685042173655"><ele>121.19999999999999</ele><time>2026-05-03T10:11:47Z</time></trkpt><trkpt lat="43.36605599690152" lon="-0.5555369275702345"><ele>121.6</ele><time>2026-05-03T10:11:49Z</time></trkpt><trkpt lat="43.365988354447886" lon="-0.5553949225621274"><ele>122.0</ele><time>2026-05-03T10:11:51Z</time></trkpt><trkpt lat="43.36591859110759" lon="-0.5552576466707811"><ele>122.16666666666666</ele><time>2026-05-03T10:11:53Z</time></trkpt><trkpt lat="43.36588400378367" lon="-0.5551837785876591"><ele>122.33333333333333</ele><time>2026-05-03T10:11:54Z</time></trkpt><trkpt lat="43.36581407600601" lon="-0.5550393810797419"><ele>122.5</ele><time>2026-05-03T10:11:56Z</time></trkpt><trkpt lat="43.36576921880015" lon="-0.5549734451112808"><ele>122.66666666666666</ele><time>2026-05-03T10:11:57Z</time></trkpt><trkpt lat="43.36569724445781" lon="-0.5548287628794194"><ele>122.83333333333333</ele><time>2026-05-03T10:11:59Z</time></trkpt><trkpt lat="43.36566906171192" lon="-0.5547461701774263"><ele>123.0</ele><time>2026-05-03T10:12:00Z</time></trkpt><trkpt lat="43.365632143046064" lon="-0.5546735997911243"><ele>123.0</ele><time>2026-05-03T10:12:01Z</time></trkpt><trkpt lat="43.365550603757924" lon="-0.5545415566871255"><ele>123.00000000000001</ele><time>2026-05-03T10:12:03Z</time></trkpt><trkpt lat="43.36551242780111" lon="-0.554467281261244"><ele>123.00000000000001</ele><time>2026-05-03T10:12:04Z</time></trkpt><trkpt lat="43.36547335569141" lon="-0.5543911874428151"><ele>123.0</ele><time>2026-05-03T10:12:05Z</time></trkpt><trkpt lat="43.3654117265142" lon="-0.5542332905558379"><ele>123.0</ele><time>2026-05-03T10:12:07Z</time></trkpt><trkpt lat="43.36537004800808" lon="-0.5541579233446617"><ele>122.71428571428572</ele><time>2026-05-03T10:12:08Z</time></trkpt><trkpt lat="43.36533255033602" lon="-0.5540817011252137"><ele>122.42857142857143</ele><time>2026-05-03T10:12:09.001Z</time></trkpt><trkpt lat="43.36528061291875" lon="-0.5540153866851787"><ele>122.14285714285714</ele><time>2026-05-03T10:12:10.001Z</time></trkpt><trkpt lat="43.36524175808939" lon="-0.553939656416263"><ele>121.85714285714286</ele><time>2026-05-03T10:12:11Z</time></trkpt><trkpt lat="43.36520248110706" lon="-0.5538632317440931"><ele>121.57142857142856</ele><time>2026-05-03T10:12:12Z</time></trkpt><trkpt lat="43.36516306530722" lon="-0.5537865369860628"><ele>121.28571428571428</ele><time>2026-05-03T10:12:13Z</time></trkpt><trkpt lat="43.36512503281559" lon="-0.553712533807691"><ele>121.0</ele><time>2026-05-03T10:12:14Z</time></trkpt><trkpt lat="43.365098716844294" lon="-0.553626391362109"><ele>120.4</ele><time>2026-05-03T10:12:15Z</time></trkpt><trkpt lat="43.36505584222422" lon="-0.5535558018735148"><ele>119.8</ele><time>2026-05-03T10:12:16Z</time></trkpt><trkpt lat="43.365012583421496" lon="-0.5534712992016458"><ele>119.20000000000002</ele><time>2026-05-03T10:12:17Z</time></trkpt><trkpt lat="43.36491792268742" lon="-0.5533549689881115"><ele>118.60000000000001</ele><time>2026-05-03T10:12:19Z</time></trkpt><trkpt lat="43.364834546895054" lon="-0.5532361103927284"><ele>118.0</ele><time>2026-05-03T10:12:21Z</time></trkpt><trkpt lat="43.364756319107954" lon="-0.553103043043761"><ele>118.0</ele><time>2026-05-03T10:12:23Z</time></trkpt><trkpt lat="43.364658914348894" lon="-0.5530101674653403"><ele>118.0</ele><time>2026-05-03T10:12:25Z</time></trkpt><trkpt lat="43.36456858920118" lon="-0.5529117612489075"><ele>118.0</ele><time>2026-05-03T10:12:27Z</time></trkpt><trkpt lat="43.364482434974455" lon="-0.5528031115276636"><ele>118.0</ele><time>2026-05-03T10:12:29Z</time></trkpt><trkpt lat="43.3643886666787" lon="-0.5527176469047497"><ele>118.4</ele><time>2026-05-03T10:12:31Z</time></trkpt><trkpt lat="43.3642877534741" lon="-0.5526559783395867"><ele>118.80000000000001</ele><time>2026-05-03T10:12:33Z</time></trkpt><trkpt lat="43.364196280270974" lon="-0.5525708778678332"><ele>119.2</ele><time>2026-05-03T10:12:35Z</time></trkpt><trkpt lat="43.364116631414504" lon="-0.5524587220316797"><ele>119.6</ele><time>2026-05-03T10:12:37Z</time></trkpt><trkpt lat="43.36403203098735" lon="-0.5523660164035563"><ele>120.0</ele><time>2026-05-03T10:12:39Z</time></trkpt><trkpt lat="43.36397375218026" lon="-0.5523219816476334"><ele>120.0</ele><time>2026-05-03T10:12:40Z</time></trkpt><trkpt lat="43.36390419138482" lon="-0.5522089030640734"><ele>120.0</ele><time>2026-05-03T10:12:42Z</time></trkpt><trkpt lat="43.36382006635786" lon="-0.5520895506463434"><ele>120.0</ele><time>2026-05-03T10:12:44Z</time></trkpt><trkpt lat="43.36372120832582" lon="-0.5519815257103797"><ele>120.0</ele><time>2026-05-03T10:12:46Z</time></trkpt><trkpt lat="43.363633479585964" lon="-0.5518766506993718"><ele>120.0</ele><time>2026-05-03T10:12:48Z</time></trkpt><trkpt lat="43.36358310843806" lon="-0.5518240839072215"><ele>120.0</ele><time>2026-05-03T10:12:49Z</time></trkpt><trkpt lat="43.363532358772765" lon="-0.5517714932766679"><ele>120.0</ele><time>2026-05-03T10:12:50Z</time></trkpt><trkpt lat="43.363435846066864" lon="-0.5516671057838043"><ele>120.0</ele><time>2026-05-03T10:12:52Z</time></trkpt><trkpt lat="43.36333910978345" lon="-0.5515732997990754"><ele>120.0</ele><time>2026-05-03T10:12:54Z</time></trkpt><trkpt lat="43.363247391300185" lon="-0.5514553589603033"><ele>120.0</ele><time>2026-05-03T10:12:56Z</time></trkpt><trkpt lat="43.36315172095071" lon="-0.5513463006184892"><ele>120.0</ele><time>2026-05-03T10:12:58Z</time></trkpt><trkpt lat="43.363110226508425" lon="-0.5512787735132821"><ele>120.0</ele><time>2026-05-03T10:12:59Z</time></trkpt><trkpt lat="43.36307170422853" lon="-0.551208657447448"><ele>120.0</ele><time>2026-05-03T10:13:00Z</time></trkpt><trkpt lat="43.363029761469626" lon="-0.551142928809895"><ele>120.0</ele><time>2026-05-03T10:13:01Z</time></trkpt><trkpt lat="43.36298991897556" lon="-0.5510728158745013"><ele>120.0</ele><time>2026-05-03T10:13:02Z</time></trkpt><trkpt lat="43.36294504175317" lon="-0.5510117951650889"><ele>120.0</ele><time>2026-05-03T10:13:03Z</time></trkpt><trkpt lat="43.362905730016166" lon="-0.5509421476510503"><ele>120.0</ele><time>2026-05-03T10:13:04Z</time></trkpt><trkpt lat="43.36284899001708" lon="-0.550899751679255"><ele>120.0</ele><time>2026-05-03T10:13:05Z</time></trkpt><trkpt lat="43.36279284542642" lon="-0.5507498189381017"><ele>120.0</ele><time>2026-05-03T10:13:07Z</time></trkpt><trkpt lat="43.36272113466913" lon="-0.5506189324071076"><ele>120.0</ele><time>2026-05-03T10:13:09Z</time></trkpt><trkpt lat="43.362680361513064" lon="-0.5504608964024026"><ele>120.0</ele><time>2026-05-03T10:13:11Z</time></trkpt><trkpt lat="43.36263273498201" lon="-0.5503016590799148"><ele>120.0</ele><time>2026-05-03T10:13:13Z</time></trkpt><trkpt lat="43.362595995638095" lon="-0.5501423881667205"><ele>120.0</ele><time>2026-05-03T10:13:15Z</time></trkpt><trkpt lat="43.362583347836186" lon="-0.5500552391933146"><ele>120.0</ele><time>2026-05-03T10:13:16Z</time></trkpt><trkpt lat="43.36256840882553" lon="-0.5499705961542766"><ele>120.0</ele><time>2026-05-03T10:13:17Z</time></trkpt><trkpt lat="43.3625832228495" lon="-0.5498811437054741"><ele>120.0</ele><time>2026-05-03T10:13:18Z</time></trkpt><trkpt lat="43.36258856138468" lon="-0.5497932012992361"><ele>120.0</ele><time>2026-05-03T10:13:19Z</time></trkpt><trkpt lat="43.36259181329242" lon="-0.5497030836077872"><ele>120.0</ele><time>2026-05-03T10:13:20Z</time></trkpt><trkpt lat="43.362608821658675" lon="-0.5495447549691956"><ele>120.25</ele><time>2026-05-03T10:13:22Z</time></trkpt><trkpt lat="43.36261091188302" lon="-0.5493760886440993"><ele>120.5</ele><time>2026-05-03T10:13:24Z</time></trkpt><trkpt lat="43.362612328837606" lon="-0.5492137355668932"><ele>120.75</ele><time>2026-05-03T10:13:26Z</time></trkpt><trkpt lat="43.36260499273994" lon="-0.5490591292197288"><ele>121.0</ele><time>2026-05-03T10:13:28Z</time></trkpt><trkpt lat="43.362589935151966" lon="-0.5489037655535217"><ele>121.0</ele><time>2026-05-03T10:13:30Z</time></trkpt><trkpt lat="43.36256518160847" lon="-0.5487583512467862"><ele>121.0</ele><time>2026-05-03T10:13:32Z</time></trkpt><trkpt lat="43.3625231519579" lon="-0.5486238270246234"><ele>121.0</ele><time>2026-05-03T10:13:34Z</time></trkpt><trkpt lat="43.3624672465711" lon="-0.5484812843543326"><ele>121.0</ele><time>2026-05-03T10:13:36Z</time></trkpt><trkpt lat="43.36241141826649" lon="-0.5483463501321245"><ele>121.0</ele><time>2026-05-03T10:13:38Z</time></trkpt><trkpt lat="43.36235118369428" lon="-0.5482008129855941"><ele>121.19999999999999</ele><time>2026-05-03T10:13:40.001Z</time></trkpt><trkpt lat="43.36231400871355" lon="-0.5480649436429791"><ele>121.39999999999999</ele><time>2026-05-03T10:13:42.001Z</time></trkpt><trkpt lat="43.36225652139366" lon="-0.5479312679637771"><ele>121.6</ele><time>2026-05-03T10:13:44.001Z</time></trkpt><trkpt lat="43.36221359212107" lon="-0.5477863476083373"><ele>121.8</ele><time>2026-05-03T10:13:46.001Z</time></trkpt><trkpt lat="43.36217992195299" lon="-0.5477122934135074"><ele>122.0</ele><time>2026-05-03T10:13:47.001Z</time></trkpt><trkpt lat="43.36215101737501" lon="-0.5475576367908236"><ele>122.39999999999999</ele><time>2026-05-03T10:13:49.001Z</time></trkpt><trkpt lat="43.36214020716065" lon="-0.547391624778487"><ele>122.79999999999998</ele><time>2026-05-03T10:13:51.001Z</time></trkpt><trkpt lat="43.3621154168616" lon="-0.5473018957519182"><ele>123.2</ele><time>2026-05-03T10:13:52.001Z</time></trkpt><trkpt lat="43.36209874505375" lon="-0.5472116394640483"><ele>123.6</ele><time>2026-05-03T10:13:53.001Z</time></trkpt><trkpt lat="43.36208197698777" lon="-0.547047170232434"><ele>124.0</ele><time>2026-05-03T10:13:55.001Z</time></trkpt><trkpt lat="43.362099480998694" lon="-0.5468909441149968"><ele>124.25</ele><time>2026-05-03T10:13:57.001Z</time></trkpt><trkpt lat="43.36209490770351" lon="-0.5467199481506265"><ele>124.5</ele><time>2026-05-03T10:13:59.001Z</time></trkpt><trkpt lat="43.362107945818096" lon="-0.5465589539400639"><ele>124.75</ele><time>2026-05-03T10:14:01.001Z</time></trkpt><trkpt lat="43.3621062188049" lon="-0.5464123237931141"><ele>125.0</ele><time>2026-05-03T10:14:03.001Z</time></trkpt><trkpt lat="43.36209879851614" lon="-0.546273780591689"><ele>124.8</ele><time>2026-05-03T10:14:05.001Z</time></trkpt><trkpt lat="43.36208873296305" lon="-0.5461376940573631"><ele>124.6</ele><time>2026-05-03T10:14:07.001Z</time></trkpt><trkpt lat="43.362086088748214" lon="-0.5460121384787526"><ele>124.4</ele><time>2026-05-03T10:14:09.001Z</time></trkpt><trkpt lat="43.36206736582774" lon="-0.5458737162354631"><ele>124.2</ele><time>2026-05-03T10:14:11.001Z</time></trkpt><trkpt lat="43.3620442020659" lon="-0.5457213149663124"><ele>124.0</ele><time>2026-05-03T10:14:13.001Z</time></trkpt><trkpt lat="43.36202887973905" lon="-0.5455656177206569"><ele>124.0</ele><time>2026-05-03T10:14:15.001Z</time></trkpt><trkpt lat="43.36201380731278" lon="-0.5453982016034364"><ele>124.0</ele><time>2026-05-03T10:14:17Z</time></trkpt><trkpt lat="43.36198856728098" lon="-0.5453148869344454"><ele>124.0</ele><time>2026-05-03T10:14:18Z</time></trkpt><trkpt lat="43.36198001653937" lon="-0.5452262614996063"><ele>124.0</ele><time>2026-05-03T10:14:19Z</time></trkpt><trkpt lat="43.36193927801723" lon="-0.5450609247188093"><ele>124.0</ele><time>2026-05-03T10:14:21Z</time></trkpt><trkpt lat="43.361895271051154" lon="-0.5449861848550872"><ele>123.6</ele><time>2026-05-03T10:14:22Z</time></trkpt><trkpt lat="43.36184497545862" lon="-0.5449216079799607"><ele>123.2</ele><time>2026-05-03T10:14:23Z</time></trkpt><trkpt lat="43.36176397755362" lon="-0.5449399491324616"><ele>122.79999999999998</ele><time>2026-05-03T10:14:24Z</time></trkpt><trkpt lat="43.36165198495511" lon="-0.5448568948868652"><ele>122.39999999999999</ele><time>2026-05-03T10:14:26Z</time></trkpt><trkpt lat="43.361596134208405" lon="-0.5448086412921883"><ele>122.0</ele><time>2026-05-03T10:14:27Z</time></trkpt><trkpt lat="43.36150005922406" lon="-0.5446945566359832"><ele>122.0</ele><time>2026-05-03T10:14:29Z</time></trkpt><trkpt lat="43.36141982635854" lon="-0.5445712243426828"><ele>122.0</ele><time>2026-05-03T10:14:31Z</time></trkpt><trkpt lat="43.36134617250478" lon="-0.5444421145441645"><ele>122.0</ele><time>2026-05-03T10:14:33Z</time></trkpt><trkpt lat="43.361281018324526" lon="-0.5443166247877631"><ele>122.0</ele><time>2026-05-03T10:14:35Z</time></trkpt><trkpt lat="43.361213572139555" lon="-0.5441820440633222"><ele>121.75</ele><time>2026-05-03T10:14:37Z</time></trkpt><trkpt lat="43.361155226140696" lon="-0.5440409503566302"><ele>121.5</ele><time>2026-05-03T10:14:39Z</time></trkpt><trkpt lat="43.361076986646154" lon="-0.5439149770496923"><ele>121.25</ele><time>2026-05-03T10:14:41Z</time></trkpt><trkpt lat="43.36100045503316" lon="-0.5437890123780749"><ele>121.0</ele><time>2026-05-03T10:14:43Z</time></trkpt><trkpt lat="43.36091760956263" lon="-0.5436548061152356"><ele>121.5</ele><time>2026-05-03T10:14:45Z</time></trkpt><trkpt lat="43.360831580112624" lon="-0.5435285682049434"><ele>122.0</ele><time>2026-05-03T10:14:47Z</time></trkpt><trkpt lat="43.360763104039" lon="-0.5433981207416677"><ele>122.5</ele><time>2026-05-03T10:14:49Z</time></trkpt><trkpt lat="43.360674516892196" lon="-0.5432725558367809"><ele>123.0</ele><time>2026-05-03T10:14:51Z</time></trkpt><trkpt lat="43.360590239335686" lon="-0.5431496937777365"><ele>123.0</ele><time>2026-05-03T10:14:53Z</time></trkpt><trkpt lat="43.360506127597425" lon="-0.5430303411053473"><ele>123.00000000000001</ele><time>2026-05-03T10:14:55Z</time></trkpt><trkpt lat="43.36045606861982" lon="-0.5429654773068595"><ele>123.00000000000001</ele><time>2026-05-03T10:14:56Z</time></trkpt><trkpt lat="43.360368498139096" lon="-0.5428423613588558"><ele>123.0</ele><time>2026-05-03T10:14:58Z</time></trkpt><trkpt lat="43.36032457158913" lon="-0.5427757699280291"><ele>123.0</ele><time>2026-05-03T10:14:59Z</time></trkpt><trkpt lat="43.360219317772845" lon="-0.5426916272672169"><ele>122.85714285714288</ele><time>2026-05-03T10:15:01Z</time></trkpt><trkpt lat="43.36019423496108" lon="-0.5425898906721178"><ele>122.71428571428572</ele><time>2026-05-03T10:15:02Z</time></trkpt><trkpt lat="43.360163526058564" lon="-0.5425110927070496"><ele>122.57142857142857</ele><time>2026-05-03T10:15:03Z</time></trkpt><trkpt lat="43.36013887424957" lon="-0.5424264011875093"><ele>122.42857142857143</ele><time>2026-05-03T10:15:04Z</time></trkpt><trkpt lat="43.36010655199719" lon="-0.542339404278863"><ele>122.28571428571428</ele><time>2026-05-03T10:15:05Z</time></trkpt><trkpt lat="43.36005503634701" lon="-0.5422736050937447"><ele>122.14285714285712</ele><time>2026-05-03T10:15:06Z</time></trkpt><trkpt lat="43.36000841833387" lon="-0.5421994529541814"><ele>121.99999999999999</ele><time>2026-05-03T10:15:07Z</time></trkpt><trkpt lat="43.35996141591131" lon="-0.5421362748020642"><ele>121.99999999999999</ele><time>2026-05-03T10:15:08Z</time></trkpt><trkpt lat="43.35991597487728" lon="-0.5420653542985602"><ele>122.0</ele><time>2026-05-03T10:15:09Z</time></trkpt><trkpt lat="43.35986913199581" lon="-0.5419980754771744"><ele>121.99999999999999</ele><time>2026-05-03T10:15:10Z</time></trkpt><trkpt lat="43.35982199088256" lon="-0.5419330597448107"><ele>121.99999999999999</ele><time>2026-05-03T10:15:11Z</time></trkpt><trkpt lat="43.35977544223452" lon="-0.5418677855053505"><ele>122.0</ele><time>2026-05-03T10:15:12Z</time></trkpt><trkpt lat="43.35973481481538" lon="-0.5417869180073708"><ele>121.99999999999999</ele><time>2026-05-03T10:15:13Z</time></trkpt><trkpt lat="43.35967687784789" lon="-0.5417392500675632"><ele>121.99999999999999</ele><time>2026-05-03T10:15:14Z</time></trkpt><trkpt lat="43.359526473092096" lon="-0.5415569652759745"><ele>122.39999999999999</ele><time>2026-05-03T10:15:17Z</time></trkpt><trkpt lat="43.35946652630088" lon="-0.5415145782572526"><ele>122.79999999999998</ele><time>2026-05-03T10:15:18Z</time></trkpt><trkpt lat="43.35940922124187" lon="-0.5414767593897624"><ele>123.2</ele><time>2026-05-03T10:15:19Z</time></trkpt><trkpt lat="43.35929880437003" lon="-0.5413941608423749"><ele>123.6</ele><time>2026-05-03T10:15:21Z</time></trkpt><trkpt lat="43.35918706866791" lon="-0.54131279969745"><ele>124.0</ele><time>2026-05-03T10:15:23Z</time></trkpt><trkpt lat="43.35914115499151" lon="-0.5412440033530391"><ele>124.0</ele><time>2026-05-03T10:15:24Z</time></trkpt><trkpt lat="43.35905189142374" lon="-0.5411187205355756"><ele>124.0</ele><time>2026-05-03T10:15:26Z</time></trkpt><trkpt lat="43.35898159070121" lon="-0.5409646236557359"><ele>124.0</ele><time>2026-05-03T10:15:28Z</time></trkpt><trkpt lat="43.358952846603536" lon="-0.5408827776385733"><ele>124.0</ele><time>2026-05-03T10:15:29Z</time></trkpt><trkpt lat="43.358889978979064" lon="-0.5407226824102525"><ele>124.00000000000001</ele><time>2026-05-03T10:15:31Z</time></trkpt><trkpt lat="43.358862487308706" lon="-0.540643127234831"><ele>124.0</ele><time>2026-05-03T10:15:32Z</time></trkpt><trkpt lat="43.35884958331035" lon="-0.5405470961255868"><ele>124.0</ele><time>2026-05-03T10:15:33Z</time></trkpt><trkpt lat="43.35883813580352" lon="-0.5404545934074271"><ele>124.0</ele><time>2026-05-03T10:15:34Z</time></trkpt><trkpt lat="43.35882332788713" lon="-0.5403652350190562"><ele>124.00000000000001</ele><time>2026-05-03T10:15:35Z</time></trkpt><trkpt lat="43.35880071053398" lon="-0.5401861229681838"><ele>124.0</ele><time>2026-05-03T10:15:37Z</time></trkpt><trkpt lat="43.358785227030396" lon="-0.5400912620756497"><ele>124.00000000000001</ele><time>2026-05-03T10:15:38Z</time></trkpt><trkpt lat="43.35876154743202" lon="-0.5400080422687865"><ele>124.0</ele><time>2026-05-03T10:15:39Z</time></trkpt><trkpt lat="43.35874943732116" lon="-0.5399174568808953"><ele>124.0</ele><time>2026-05-03T10:15:40Z</time></trkpt><trkpt lat="43.35869188192765" lon="-0.5397533671926742"><ele>124.0</ele><time>2026-05-03T10:15:42Z</time></trkpt><trkpt lat="43.358664404918684" lon="-0.5396648770485465"><ele>124.00000000000001</ele><time>2026-05-03T10:15:43Z</time></trkpt><trkpt lat="43.35863201247747" lon="-0.5395858918751534"><ele>124.0</ele><time>2026-05-03T10:15:44Z</time></trkpt><trkpt lat="43.358608061693474" lon="-0.5394988005737097"><ele>124.0</ele><time>2026-05-03T10:15:45Z</time></trkpt><trkpt lat="43.35857608644454" lon="-0.5394179697350884"><ele>124.00000000000001</ele><time>2026-05-03T10:15:46Z</time></trkpt><trkpt lat="43.358543305602744" lon="-0.53933748889385"><ele>124.0</ele><time>2026-05-03T10:15:47Z</time></trkpt><trkpt lat="43.358513523567375" lon="-0.5392508743413522"><ele>124.0</ele><time>2026-05-03T10:15:48Z</time></trkpt><trkpt lat="43.35845772850763" lon="-0.5391955440299219"><ele>124.00000000000001</ele><time>2026-05-03T10:15:49Z</time></trkpt><trkpt lat="43.35842151318139" lon="-0.5391104612217883"><ele>124.0</ele><time>2026-05-03T10:15:50Z</time></trkpt><trkpt lat="43.358362936458015" lon="-0.5390616784000735"><ele>124.0</ele><time>2026-05-03T10:15:51Z</time></trkpt><trkpt lat="43.35831299306513" lon="-0.5389936331387517"><ele>124.0</ele><time>2026-05-03T10:15:52Z</time></trkpt><trkpt lat="43.35826329281383" lon="-0.5389327459199531"><ele>124.00000000000001</ele><time>2026-05-03T10:15:53Z</time></trkpt><trkpt lat="43.358215938280125" lon="-0.5388742965294679"><ele>124.0</ele><time>2026-05-03T10:15:54Z</time></trkpt><trkpt lat="43.35816804090609" lon="-0.538816175216822"><ele>124.0</ele><time>2026-05-03T10:15:55Z</time></trkpt><trkpt lat="43.35811747576502" lon="-0.5387570400133875"><ele>124.00000000000001</ele><time>2026-05-03T10:15:56Z</time></trkpt><trkpt lat="43.35806876876173" lon="-0.5387000793232652"><ele>124.0</ele><time>2026-05-03T10:15:57Z</time></trkpt><trkpt lat="43.35801494278417" lon="-0.5386355426424596"><ele>124.0</ele><time>2026-05-03T10:15:58Z</time></trkpt><trkpt lat="43.35796674148595" lon="-0.5385761187186004"><ele>124.00000000000001</ele><time>2026-05-03T10:15:59Z</time></trkpt><trkpt lat="43.35791465649345" lon="-0.5385108042018759"><ele>124.0</ele><time>2026-05-03T10:16:00Z</time></trkpt><trkpt lat="43.35782596013938" lon="-0.5383889440001641"><ele>124.0</ele><time>2026-05-03T10:16:02.001Z</time></trkpt><trkpt lat="43.357780421252016" lon="-0.5383181855034381"><ele>124.0</ele><time>2026-05-03T10:16:03.001Z</time></trkpt><trkpt lat="43.35775348733594" lon="-0.5382378835280216"><ele>124.00000000000001</ele><time>2026-05-03T10:16:04.001Z</time></trkpt><trkpt lat="43.35770107709853" lon="-0.5381830462466657"><ele>124.0</ele><time>2026-05-03T10:16:05.001Z</time></trkpt><trkpt lat="43.35767536396421" lon="-0.5380999075043276"><ele>124.0</ele><time>2026-05-03T10:16:06.001Z</time></trkpt><trkpt lat="43.3575867047239" lon="-0.5379740865648153"><ele>124.0</ele><time>2026-05-03T10:16:08.001Z</time></trkpt><trkpt lat="43.35750949288187" lon="-0.5378304643044091"><ele>124.0</ele><time>2026-05-03T10:16:10.001Z</time></trkpt><trkpt lat="43.35746820776471" lon="-0.5377543033287963"><ele>124.0</ele><time>2026-05-03T10:16:11.001Z</time></trkpt><trkpt lat="43.35739823837386" lon="-0.5375965986178035"><ele>124.14285714285715</ele><time>2026-05-03T10:16:13.001Z</time></trkpt><trkpt lat="43.35735374573335" lon="-0.5375266307557531"><ele>124.2857142857143</ele><time>2026-05-03T10:16:14.001Z</time></trkpt><trkpt lat="43.357311872489205" lon="-0.5374409197579858"><ele>124.42857142857143</ele><time>2026-05-03T10:16:15.001Z</time></trkpt><trkpt lat="43.35727162491374" lon="-0.5373678648670819"><ele>124.57142857142858</ele><time>2026-05-03T10:16:16.001Z</time></trkpt><trkpt lat="43.35723444174262" lon="-0.5372823538072177"><ele>124.71428571428572</ele><time>2026-05-03T10:16:17.001Z</time></trkpt><trkpt lat="43.357180965971494" lon="-0.5372117514275908"><ele>124.85714285714286</ele><time>2026-05-03T10:16:18.001Z</time></trkpt><trkpt lat="43.35715265478946" lon="-0.5371166385137465"><ele>125.0</ele><time>2026-05-03T10:16:19.001Z</time></trkpt><trkpt lat="43.357132444319205" lon="-0.5370177696777293"><ele>125.0</ele><time>2026-05-03T10:16:20.001Z</time></trkpt><trkpt lat="43.357129780923124" lon="-0.5369248399603829"><ele>125.0</ele><time>2026-05-03T10:16:21.001Z</time></trkpt><trkpt lat="43.357118924451456" lon="-0.5368225842416101"><ele>125.0</ele><time>2026-05-03T10:16:22.001Z</time></trkpt><trkpt lat="43.35711207944927" lon="-0.5367279751511675"><ele>125.0</ele><time>2026-05-03T10:16:23Z</time></trkpt><trkpt lat="43.357106134602645" lon="-0.5366338452137395"><ele>125.0</ele><time>2026-05-03T10:16:24Z</time></trkpt><trkpt lat="43.357097852639974" lon="-0.5365422348529983"><ele>125.0</ele><time>2026-05-03T10:16:25Z</time></trkpt><trkpt lat="43.357091308687764" lon="-0.5364520423544871"><ele>125.0</ele><time>2026-05-03T10:16:26Z</time></trkpt><trkpt lat="43.357099766134674" lon="-0.5363545330630126"><ele>125.0</ele><time>2026-05-03T10:16:27Z</time></trkpt><trkpt lat="43.35708152164777" lon="-0.536269955281021"><ele>125.0</ele><time>2026-05-03T10:16:28Z</time></trkpt><trkpt lat="43.35707153959563" lon="-0.5361764966533477"><ele>125.0</ele><time>2026-05-03T10:16:29Z</time></trkpt><trkpt lat="43.35707047287529" lon="-0.5360793767204433"><ele>125.0</ele><time>2026-05-03T10:16:30Z</time></trkpt><trkpt lat="43.35706934227269" lon="-0.535985984799409"><ele>125.0</ele><time>2026-05-03T10:16:31Z</time></trkpt><trkpt lat="43.357054966445816" lon="-0.5358975423852411"><ele>125.0</ele><time>2026-05-03T10:16:32Z</time></trkpt><trkpt lat="43.35703975708647" lon="-0.5358120222328396"><ele>125.0</ele><time>2026-05-03T10:16:33Z</time></trkpt><trkpt lat="43.357031436308105" lon="-0.5357215623910399"><ele>125.4</ele><time>2026-05-03T10:16:34Z</time></trkpt><trkpt lat="43.35702204313491" lon="-0.5356327494969391"><ele>125.8</ele><time>2026-05-03T10:16:35Z</time></trkpt><trkpt lat="43.357011757904246" lon="-0.535529182541362"><ele>126.19999999999999</ele><time>2026-05-03T10:16:36Z</time></trkpt><trkpt lat="43.35699533353078" lon="-0.5353544086041501"><ele>126.6</ele><time>2026-05-03T10:16:38Z</time></trkpt><trkpt lat="43.356979658961436" lon="-0.5351814618232041"><ele>127.0</ele><time>2026-05-03T10:16:40Z</time></trkpt><trkpt lat="43.35695149832936" lon="-0.5351033283043418"><ele>127.00000000000001</ele><time>2026-05-03T10:16:41Z</time></trkpt><trkpt lat="43.3569248019244" lon="-0.535020885819644"><ele>127.0</ele><time>2026-05-03T10:16:42Z</time></trkpt><trkpt lat="43.356896979106224" lon="-0.5349390756575936"><ele>127.0</ele><time>2026-05-03T10:16:43Z</time></trkpt><trkpt lat="43.35683260102065" lon="-0.5347939473638719"><ele>127.0</ele><time>2026-05-03T10:16:45Z</time></trkpt><trkpt lat="43.356803087847545" lon="-0.534716411412036"><ele>127.00000000000001</ele><time>2026-05-03T10:16:46Z</time></trkpt><trkpt lat="43.35673929220061" lon="-0.5345753820619885"><ele>127.0</ele><time>2026-05-03T10:16:48Z</time></trkpt><trkpt lat="43.35667549113592" lon="-0.5344398871261188"><ele>126.8</ele><time>2026-05-03T10:16:50Z</time></trkpt><trkpt lat="43.35659836784889" lon="-0.5343077515504567"><ele>126.6</ele><time>2026-05-03T10:16:52Z</time></trkpt><trkpt lat="43.356526263062214" lon="-0.5341797276156136"><ele>126.39999999999999</ele><time>2026-05-03T10:16:54Z</time></trkpt><trkpt lat="43.356453390628346" lon="-0.5340536627955735"><ele>126.19999999999999</ele><time>2026-05-03T10:16:56Z</time></trkpt><trkpt lat="43.35641952526536" lon="-0.5339627155647901"><ele>126.0</ele><time>2026-05-03T10:16:57Z</time></trkpt><trkpt lat="43.35637751145421" lon="-0.5338936155160129"><ele>126.0</ele><time>2026-05-03T10:16:58Z</time></trkpt><trkpt lat="43.356277302626154" lon="-0.5337679876124726"><ele>126.0</ele><time>2026-05-03T10:17:00Z</time></trkpt><trkpt lat="43.35620883312176" lon="-0.533622084260912"><ele>126.0</ele><time>2026-05-03T10:17:02Z</time></trkpt><trkpt lat="43.35616955415503" lon="-0.5335521243095361"><ele>126.0</ele><time>2026-05-03T10:17:03Z</time></trkpt><trkpt lat="43.356130891369084" lon="-0.5334832618223074"><ele>126.0</ele><time>2026-05-03T10:17:04Z</time></trkpt><trkpt lat="43.35605660142734" lon="-0.5333509436679864"><ele>126.0</ele><time>2026-05-03T10:17:06Z</time></trkpt><trkpt lat="43.35601599786333" lon="-0.5332786244605869"><ele>126.0</ele><time>2026-05-03T10:17:07Z</time></trkpt><trkpt lat="43.355990512156" lon="-0.5331958311566517"><ele>126.0</ele><time>2026-05-03T10:17:08Z</time></trkpt><trkpt lat="43.35595219536028" lon="-0.5331266008382941"><ele>126.0</ele><time>2026-05-03T10:17:09Z</time></trkpt><trkpt lat="43.35587321549099" lon="-0.532992013296171"><ele>126.0</ele><time>2026-05-03T10:17:11Z</time></trkpt><trkpt lat="43.35580480893558" lon="-0.5328428600912753"><ele>126.0</ele><time>2026-05-03T10:17:13Z</time></trkpt><trkpt lat="43.35574935892964" lon="-0.5326820230596908"><ele>126.19999999999999</ele><time>2026-05-03T10:17:15Z</time></trkpt><trkpt lat="43.35570282898965" lon="-0.5325259470644457"><ele>126.39999999999999</ele><time>2026-05-03T10:17:17Z</time></trkpt><trkpt lat="43.35566210042795" lon="-0.5323638030419059"><ele>126.6</ele><time>2026-05-03T10:17:19Z</time></trkpt><trkpt lat="43.35564660179432" lon="-0.5322796103233068"><ele>126.8</ele><time>2026-05-03T10:17:20Z</time></trkpt><trkpt lat="43.3556105420799" lon="-0.5321166565871395"><ele>127.0</ele><time>2026-05-03T10:17:22Z</time></trkpt><trkpt lat="43.35557739463054" lon="-0.5319590714395123"><ele>127.0</ele><time>2026-05-03T10:17:24Z</time></trkpt><trkpt lat="43.35554902915863" lon="-0.5317955024511717"><ele>127.0</ele><time>2026-05-03T10:17:26Z</time></trkpt><trkpt lat="43.35551813386687" lon="-0.5316293324297393"><ele>127.0</ele><time>2026-05-03T10:17:28Z</time></trkpt><trkpt lat="43.35548711700496" lon="-0.5314661141189732"><ele>127.0</ele><time>2026-05-03T10:17:30Z</time></trkpt><trkpt lat="43.355453045608705" lon="-0.531307130508851"><ele>126.8</ele><time>2026-05-03T10:17:32Z</time></trkpt><trkpt lat="43.355434828091134" lon="-0.5312162260938922"><ele>126.6</ele><time>2026-05-03T10:17:33Z</time></trkpt><trkpt lat="43.355401354339925" lon="-0.5310527317228475"><ele>126.39999999999999</ele><time>2026-05-03T10:17:35Z</time></trkpt><trkpt lat="43.355383548345856" lon="-0.5308934970751791"><ele>126.19999999999999</ele><time>2026-05-03T10:17:37Z</time></trkpt><trkpt lat="43.35534697554117" lon="-0.530736910663274"><ele>126.0</ele><time>2026-05-03T10:17:39Z</time></trkpt><trkpt lat="43.35529600638135" lon="-0.5305929190154308"><ele>126.0</ele><time>2026-05-03T10:17:41Z</time></trkpt><trkpt lat="43.35523524051412" lon="-0.5304390894766082"><ele>126.0</ele><time>2026-05-03T10:17:43Z</time></trkpt><trkpt lat="43.35516522962572" lon="-0.5302878789778832"><ele>126.0</ele><time>2026-05-03T10:17:45Z</time></trkpt><trkpt lat="43.355121293094896" lon="-0.530203992809024"><ele>126.0</ele><time>2026-05-03T10:17:46Z</time></trkpt><trkpt lat="43.3550755295535" lon="-0.5301353267194712"><ele>126.0</ele><time>2026-05-03T10:17:47Z</time></trkpt><trkpt lat="43.35503233987839" lon="-0.5300702190840125"><ele>126.0</ele><time>2026-05-03T10:17:48Z</time></trkpt><trkpt lat="43.35498250904972" lon="-0.5300032103869702"><ele>126.0</ele><time>2026-05-03T10:17:49Z</time></trkpt><trkpt lat="43.35492339528142" lon="-0.5299538534848837"><ele>126.0</ele><time>2026-05-03T10:17:50Z</time></trkpt><trkpt lat="43.35487498737803" lon="-0.5298907695069305"><ele>126.0</ele><time>2026-05-03T10:17:51Z</time></trkpt><trkpt lat="43.354826004074376" lon="-0.5298269357201475"><ele>126.0</ele><time>2026-05-03T10:17:52Z</time></trkpt><trkpt lat="43.354775527662824" lon="-0.5297611561536132"><ele>126.0</ele><time>2026-05-03T10:17:53Z</time></trkpt><trkpt lat="43.35472453047735" lon="-0.5296946979141607"><ele>126.0</ele><time>2026-05-03T10:17:54Z</time></trkpt><trkpt lat="43.35467719126817" lon="-0.529633006651757"><ele>126.14285714285714</ele><time>2026-05-03T10:17:55Z</time></trkpt><trkpt lat="43.35462966355118" lon="-0.5295697950525926"><ele>126.28571428571428</ele><time>2026-05-03T10:17:56Z</time></trkpt><trkpt lat="43.35459143707915" lon="-0.5294870664432879"><ele>126.42857142857143</ele><time>2026-05-03T10:17:57Z</time></trkpt><trkpt lat="43.35453195381618" lon="-0.5294387526923293"><ele>126.57142857142857</ele><time>2026-05-03T10:17:58Z</time></trkpt><trkpt lat="43.3544863888813" lon="-0.5293776437545303"><ele>126.71428571428571</ele><time>2026-05-03T10:17:59Z</time></trkpt><trkpt lat="43.35443759242604" lon="-0.5293122009406942"><ele>126.85714285714286</ele><time>2026-05-03T10:18:00Z</time></trkpt><trkpt lat="43.354403613651996" lon="-0.5292349174780353"><ele>127.0</ele><time>2026-05-03T10:18:01Z</time></trkpt><trkpt lat="43.35435192530144" lon="-0.5291758278911158"><ele>127.0</ele><time>2026-05-03T10:18:02Z</time></trkpt><trkpt lat="43.354305193551575" lon="-0.5291092102733568"><ele>127.0</ele><time>2026-05-03T10:18:03Z</time></trkpt><trkpt lat="43.35424794458254" lon="-0.5290603278402485"><ele>127.0</ele><time>2026-05-03T10:18:04Z</time></trkpt><trkpt lat="43.35420021598144" lon="-0.5289973944154313"><ele>127.0</ele><time>2026-05-03T10:18:05Z</time></trkpt><trkpt lat="43.354153670340885" lon="-0.5289360209062833"><ele>127.0</ele><time>2026-05-03T10:18:06Z</time></trkpt><trkpt lat="43.35411659044213" lon="-0.5288603637805508"><ele>127.0</ele><time>2026-05-03T10:18:07Z</time></trkpt><trkpt lat="43.35406643391946" lon="-0.5288045604247191"><ele>127.0</ele><time>2026-05-03T10:18:08Z</time></trkpt><trkpt lat="43.35397451991144" lon="-0.5286867166902596"><ele>127.19999999999999</ele><time>2026-05-03T10:18:10Z</time></trkpt><trkpt lat="43.35388896017943" lon="-0.5285644591758295"><ele>127.39999999999999</ele><time>2026-05-03T10:18:12Z</time></trkpt><trkpt lat="43.35383358879465" lon="-0.52851801370598"><ele>127.60000000000001</ele><time>2026-05-03T10:18:13Z</time></trkpt><trkpt lat="43.3537441467467" lon="-0.5284022881194818"><ele>127.80000000000001</ele><time>2026-05-03T10:18:15Z</time></trkpt><trkpt lat="43.3536553707578" lon="-0.5282874241860563"><ele>128.0</ele><time>2026-05-03T10:18:17Z</time></trkpt><trkpt lat="43.35361971662269" lon="-0.5282159481811126"><ele>128.20000000000002</ele><time>2026-05-03T10:18:18Z</time></trkpt><trkpt lat="43.35352442409306" lon="-0.528100475239919"><ele>128.4</ele><time>2026-05-03T10:18:20Z</time></trkpt><trkpt lat="43.35347680440101" lon="-0.5280367516225125"><ele>128.60000000000002</ele><time>2026-05-03T10:18:21Z</time></trkpt><trkpt lat="43.353384980442186" lon="-0.5279166509762958"><ele>128.8</ele><time>2026-05-03T10:18:23Z</time></trkpt><trkpt lat="43.353340695851536" lon="-0.5278527744108003"><ele>129.0</ele><time>2026-05-03T10:18:24Z</time></trkpt><trkpt lat="43.35325294856518" lon="-0.5277452160029739"><ele>129.0</ele><time>2026-05-03T10:18:26Z</time></trkpt><trkpt lat="43.35320826251765" lon="-0.5276801049085104"><ele>129.0</ele><time>2026-05-03T10:18:27Z</time></trkpt><trkpt lat="43.35311625111039" lon="-0.5275682818633829"><ele>129.0</ele><time>2026-05-03T10:18:29Z</time></trkpt><trkpt lat="43.353029063649515" lon="-0.527448478876079"><ele>129.0</ele><time>2026-05-03T10:18:31Z</time></trkpt><trkpt lat="43.35293947108827" lon="-0.5273261298283592"><ele>129.0</ele><time>2026-05-03T10:18:33Z</time></trkpt><trkpt lat="43.35284883202845" lon="-0.5272150099621193"><ele>129.0</ele><time>2026-05-03T10:18:35Z</time></trkpt><trkpt lat="43.35276429393176" lon="-0.5270998196493144"><ele>129.0</ele><time>2026-05-03T10:18:37Z</time></trkpt><trkpt lat="43.352665554271155" lon="-0.5269973673516145"><ele>129.0</ele><time>2026-05-03T10:18:39Z</time></trkpt><trkpt lat="43.352579935027855" lon="-0.5268868792524747"><ele>129.0</ele><time>2026-05-03T10:18:41Z</time></trkpt><trkpt lat="43.352494970252664" lon="-0.5267749502650423"><ele>129.0</ele><time>2026-05-03T10:18:43Z</time></trkpt><trkpt lat="43.35241024690441" lon="-0.526662945304175"><ele>129.0</ele><time>2026-05-03T10:18:45Z</time></trkpt><trkpt lat="43.35231945975977" lon="-0.5265429239960863"><ele>129.0</ele><time>2026-05-03T10:18:47Z</time></trkpt><trkpt lat="43.35227373525904" lon="-0.5264824758420812"><ele>129.0</ele><time>2026-05-03T10:18:48Z</time></trkpt><trkpt lat="43.352188436151145" lon="-0.5263659327532648"><ele>129.0</ele><time>2026-05-03T10:18:50Z</time></trkpt><trkpt lat="43.352115395533474" lon="-0.5262318612131542"><ele>129.0</ele><time>2026-05-03T10:18:52Z</time></trkpt><trkpt lat="43.35201871148718" lon="-0.5261321350477072"><ele>129.0</ele><time>2026-05-03T10:18:54Z</time></trkpt><trkpt lat="43.35197021570767" lon="-0.5260734036499652"><ele>129.0</ele><time>2026-05-03T10:18:55Z</time></trkpt><trkpt lat="43.351873254929366" lon="-0.5259802454566844"><ele>129.0</ele><time>2026-05-03T10:18:57Z</time></trkpt><trkpt lat="43.351765523692244" lon="-0.5259383587453308"><ele>129.0</ele><time>2026-05-03T10:18:59Z</time></trkpt><trkpt lat="43.351659032690556" lon="-0.5260319070874242"><ele>128.99999999999997</ele><time>2026-05-03T10:19:01Z</time></trkpt><trkpt lat="43.35162281286344" lon="-0.5261048523545133"><ele>129.0</ele><time>2026-05-03T10:19:02Z</time></trkpt><trkpt lat="43.35158478972485" lon="-0.526181563607157"><ele>129.0</ele><time>2026-05-03T10:19:03Z</time></trkpt><trkpt lat="43.351530115086845" lon="-0.5262276543903192"><ele>129.0</ele><time>2026-05-03T10:19:04Z</time></trkpt><trkpt lat="43.351467716763224" lon="-0.5262421047597464"><ele>129.0</ele><time>2026-05-03T10:19:05Z</time></trkpt><trkpt lat="43.35140408567667" lon="-0.5262200598294634"><ele>128.99999999999997</ele><time>2026-05-03T10:19:06Z</time></trkpt><trkpt lat="43.351347052456894" lon="-0.5261654077931673"><ele>129.0</ele><time>2026-05-03T10:19:07Z</time></trkpt><trkpt lat="43.351304320930794" lon="-0.5260919605864283"><ele>129.0</ele><time>2026-05-03T10:19:08Z</time></trkpt><trkpt lat="43.3512839646304" lon="-0.5260037530808086"><ele>129.0</ele><time>2026-05-03T10:19:09Z</time></trkpt><trkpt lat="43.35126847545312" lon="-0.5259171211297413"><ele>129.0</ele><time>2026-05-03T10:19:10Z</time></trkpt><trkpt lat="43.35126494443134" lon="-0.5258279590951753"><ele>129.0</ele><time>2026-05-03T10:19:11Z</time></trkpt><trkpt lat="43.35128696097981" lon="-0.5257353847615368"><ele>129.0</ele><time>2026-05-03T10:19:12Z</time></trkpt><trkpt lat="43.35125137818794" lon="-0.5255621322497935"><ele>129.0</ele><time>2026-05-03T10:19:14Z</time></trkpt><trkpt lat="43.35121453715511" lon="-0.5253955127947146"><ele>129.14285714285714</ele><time>2026-05-03T10:19:16Z</time></trkpt><trkpt lat="43.35115377371092" lon="-0.5253266974758377"><ele>129.28571428571428</ele><time>2026-05-03T10:19:17Z</time></trkpt><trkpt lat="43.35112253959758" lon="-0.5252415564018967"><ele>129.42857142857144</ele><time>2026-05-03T10:19:18Z</time></trkpt><trkpt lat="43.351090395441375" lon="-0.5251530534187935"><ele>129.57142857142856</ele><time>2026-05-03T10:19:19Z</time></trkpt><trkpt lat="43.35105328100293" lon="-0.525083047969853"><ele>129.71428571428572</ele><time>2026-05-03T10:19:20Z</time></trkpt><trkpt lat="43.351015301195034" lon="-0.525007248240957"><ele>129.85714285714286</ele><time>2026-05-03T10:19:21Z</time></trkpt><trkpt lat="43.35097819115614" lon="-0.5249300522053514"><ele>130.0</ele><time>2026-05-03T10:19:22Z</time></trkpt><trkpt lat="43.350939000856066" lon="-0.5248524786768657"><ele>130.00000000000003</ele><time>2026-05-03T10:19:23Z</time></trkpt><trkpt lat="43.35089724466182" lon="-0.5247784560026221"><ele>130.0</ele><time>2026-05-03T10:19:24Z</time></trkpt><trkpt lat="43.35085153052677" lon="-0.5247024751738832"><ele>130.0</ele><time>2026-05-03T10:19:25Z</time></trkpt><trkpt lat="43.35080640776891" lon="-0.5246334246804629"><ele>130.0</ele><time>2026-05-03T10:19:26Z</time></trkpt><trkpt lat="43.3507617309528" lon="-0.5245598342488537"><ele>130.0</ele><time>2026-05-03T10:19:27Z</time></trkpt><trkpt lat="43.35071626383116" lon="-0.5244934355884997"><ele>130.00000000000003</ele><time>2026-05-03T10:19:28Z</time></trkpt><trkpt lat="43.35066975965504" lon="-0.5244242343883035"><ele>130.0</ele><time>2026-05-03T10:19:29Z</time></trkpt><trkpt lat="43.35061931771777" lon="-0.524368339993989"><ele>130.00000000000003</ele><time>2026-05-03T10:19:30Z</time></trkpt><trkpt lat="43.350575193534965" lon="-0.5242979571370304"><ele>130.0</ele><time>2026-05-03T10:19:31Z</time></trkpt><trkpt lat="43.350530161999636" lon="-0.5242298023391074"><ele>130.0</ele><time>2026-05-03T10:19:32Z</time></trkpt><trkpt lat="43.35048296880997" lon="-0.5241657564476834"><ele>130.0</ele><time>2026-05-03T10:19:33Z</time></trkpt><trkpt lat="43.350432156808964" lon="-0.5241071620408225"><ele>130.0</ele><time>2026-05-03T10:19:34Z</time></trkpt><trkpt lat="43.35038460322311" lon="-0.5240433832942042"><ele>130.00000000000003</ele><time>2026-05-03T10:19:35Z</time></trkpt><trkpt lat="43.35033431202373" lon="-0.5239778569224325"><ele>130.0</ele><time>2026-05-03T10:19:36Z</time></trkpt><trkpt lat="43.350287972546774" lon="-0.5239166447782208"><ele>130.0</ele><time>2026-05-03T10:19:37Z</time></trkpt><trkpt lat="43.350237902138616" lon="-0.5238526084498284"><ele>130.0</ele><time>2026-05-03T10:19:38Z</time></trkpt><trkpt lat="43.35019119386352" lon="-0.5237858154054655"><ele>130.0</ele><time>2026-05-03T10:19:39Z</time></trkpt><trkpt lat="43.35009126899752" lon="-0.5236732821479338"><ele>130.0</ele><time>2026-05-03T10:19:41Z</time></trkpt><trkpt lat="43.35004128968024" lon="-0.5236074047731303"><ele>130.0</ele><time>2026-05-03T10:19:42Z</time></trkpt><trkpt lat="43.34999387447503" lon="-0.5235391305548179"><ele>130.0</ele><time>2026-05-03T10:19:43Z</time></trkpt><trkpt lat="43.34994427082866" lon="-0.5234809362586397"><ele>130.00000000000003</ele><time>2026-05-03T10:19:44Z</time></trkpt><trkpt lat="43.34989394871206" lon="-0.5234113352939829"><ele>130.0</ele><time>2026-05-03T10:19:45Z</time></trkpt><trkpt lat="43.34984816190046" lon="-0.523346359252535"><ele>130.0</ele><time>2026-05-03T10:19:46Z</time></trkpt><trkpt lat="43.34979729756204" lon="-0.5232799692237591"><ele>130.0</ele><time>2026-05-03T10:19:47Z</time></trkpt><trkpt lat="43.34974883931509" lon="-0.52321494066773"><ele>130.0</ele><time>2026-05-03T10:19:48Z</time></trkpt><trkpt lat="43.349699121408584" lon="-0.5231461218467296"><ele>130.00000000000003</ele><time>2026-05-03T10:19:49Z</time></trkpt><trkpt lat="43.349653255457135" lon="-0.5230732607990127"><ele>130.0</ele><time>2026-05-03T10:19:50Z</time></trkpt><trkpt lat="43.34960250599321" lon="-0.52301538936052"><ele>130.00000000000003</ele><time>2026-05-03T10:19:51Z</time></trkpt><trkpt lat="43.34955047773365" lon="-0.5229457458311811"><ele>130.0</ele><time>2026-05-03T10:19:52Z</time></trkpt><trkpt lat="43.34949909384966" lon="-0.5228852205975436"><ele>130.0</ele><time>2026-05-03T10:19:53Z</time></trkpt><trkpt lat="43.34945006651668" lon="-0.5228172110220337"><ele>130.0</ele><time>2026-05-03T10:19:54Z</time></trkpt><trkpt lat="43.3494009768533" lon="-0.5227535825027516"><ele>130.0</ele><time>2026-05-03T10:19:55Z</time></trkpt><trkpt lat="43.34935166004074" lon="-0.5226895303252151"><ele>130.00000000000003</ele><time>2026-05-03T10:19:56Z</time></trkpt><trkpt lat="43.349305371640995" lon="-0.5226212225723088"><ele>130.0</ele><time>2026-05-03T10:19:57Z</time></trkpt><trkpt lat="43.34925309127561" lon="-0.5225538925026465"><ele>130.0</ele><time>2026-05-03T10:19:58Z</time></trkpt><trkpt lat="43.349198362181646" lon="-0.52248185890548"><ele>130.0</ele><time>2026-05-03T10:19:59Z</time></trkpt><trkpt lat="43.349150370902976" lon="-0.5224074090652997"><ele>130.0</ele><time>2026-05-03T10:20:00Z</time></trkpt><trkpt lat="43.349055558908404" lon="-0.5222870564721735"><ele>130.0</ele><time>2026-05-03T10:20:02Z</time></trkpt><trkpt lat="43.34900408282803" lon="-0.522222634935741"><ele>130.0</ele><time>2026-05-03T10:20:03Z</time></trkpt><trkpt lat="43.348949939012265" lon="-0.522158189884748"><ele>130.0</ele><time>2026-05-03T10:20:04Z</time></trkpt><trkpt lat="43.34889879337072" lon="-0.5220932400251208"><ele>130.14285714285717</ele><time>2026-05-03T10:20:05Z</time></trkpt><trkpt lat="43.348848087604004" lon="-0.5220272521085249"><ele>130.28571428571428</ele><time>2026-05-03T10:20:06Z</time></trkpt><trkpt lat="43.34879886889385" lon="-0.5219612679708627"><ele>130.42857142857144</ele><time>2026-05-03T10:20:07Z</time></trkpt><trkpt lat="43.348752254482605" lon="-0.5218946769939058"><ele>130.57142857142858</ele><time>2026-05-03T10:20:08Z</time></trkpt><trkpt lat="43.34870256928353" lon="-0.5218264002572519"><ele>130.71428571428572</ele><time>2026-05-03T10:20:09Z</time></trkpt><trkpt lat="43.3486499117069" lon="-0.5217623256468198"><ele>130.85714285714286</ele><time>2026-05-03T10:20:10Z</time></trkpt><trkpt lat="43.34859753302965" lon="-0.521701503586747"><ele>131.0</ele><time>2026-05-03T10:20:11Z</time></trkpt><trkpt lat="43.34854830776309" lon="-0.5216385728640008"><ele>131.0</ele><time>2026-05-03T10:20:12Z</time></trkpt><trkpt lat="43.348497534832305" lon="-0.5215701964532311"><ele>131.0</ele><time>2026-05-03T10:20:13Z</time></trkpt><trkpt lat="43.34844691653452" lon="-0.5215020810084218"><ele>131.0</ele><time>2026-05-03T10:20:14Z</time></trkpt><trkpt lat="43.34839729437406" lon="-0.5214386785878323"><ele>131.0</ele><time>2026-05-03T10:20:15Z</time></trkpt><trkpt lat="43.348345642106366" lon="-0.521375818501483"><ele>131.0</ele><time>2026-05-03T10:20:16Z</time></trkpt><trkpt lat="43.34829628473859" lon="-0.5213161433137259"><ele>131.0</ele><time>2026-05-03T10:20:17Z</time></trkpt><trkpt lat="43.348245772285445" lon="-0.5212556422961224"><ele>131.0</ele><time>2026-05-03T10:20:18Z</time></trkpt><trkpt lat="43.34819890695908" lon="-0.5211895274040694"><ele>131.0</ele><time>2026-05-03T10:20:19Z</time></trkpt><trkpt lat="43.34815007588108" lon="-0.5211227313795735"><ele>131.0</ele><time>2026-05-03T10:20:20Z</time></trkpt><trkpt lat="43.34810277256958" lon="-0.5210546263011608"><ele>131.0</ele><time>2026-05-03T10:20:21Z</time></trkpt><trkpt lat="43.34805788781408" lon="-0.5209922319709581"><ele>131.0</ele><time>2026-05-03T10:20:22Z</time></trkpt><trkpt lat="43.34800758062332" lon="-0.5209244056727346"><ele>131.0</ele><time>2026-05-03T10:20:23Z</time></trkpt><trkpt lat="43.34796021773058" lon="-0.5208654531628621"><ele>131.0</ele><time>2026-05-03T10:20:24Z</time></trkpt><trkpt lat="43.34791083704916" lon="-0.5208051202731067"><ele>131.0</ele><time>2026-05-03T10:20:25Z</time></trkpt><trkpt lat="43.34785910260747" lon="-0.5207440916624536"><ele>131.0</ele><time>2026-05-03T10:20:26Z</time></trkpt><trkpt lat="43.34781009334504" lon="-0.5206751223784071"><ele>131.0</ele><time>2026-05-03T10:20:27Z</time></trkpt><trkpt lat="43.347765203107265" lon="-0.5206126343426563"><ele>131.0</ele><time>2026-05-03T10:20:28Z</time></trkpt><trkpt lat="43.34771436469628" lon="-0.5205472368131274"><ele>131.0</ele><time>2026-05-03T10:20:29Z</time></trkpt><trkpt lat="43.34766433378284" lon="-0.5204829022732405"><ele>131.0</ele><time>2026-05-03T10:20:30Z</time></trkpt><trkpt lat="43.347613865165606" lon="-0.5204160934012555"><ele>131.0</ele><time>2026-05-03T10:20:31Z</time></trkpt><trkpt lat="43.347568142805734" lon="-0.5203518491459477"><ele>131.0</ele><time>2026-05-03T10:20:32Z</time></trkpt><trkpt lat="43.34751816611123" lon="-0.5202833240341264"><ele>131.0</ele><time>2026-05-03T10:20:33Z</time></trkpt><trkpt lat="43.34746793675416" lon="-0.5202171540280813"><ele>131.0</ele><time>2026-05-03T10:20:34Z</time></trkpt><trkpt lat="43.347416841483266" lon="-0.520152918868168"><ele>131.0</ele><time>2026-05-03T10:20:35Z</time></trkpt><trkpt lat="43.3473665903228" lon="-0.520088729677106"><ele>131.0</ele><time>2026-05-03T10:20:36Z</time></trkpt><trkpt lat="43.347317250249645" lon="-0.5200220622444124"><ele>131.0</ele><time>2026-05-03T10:20:37Z</time></trkpt><trkpt lat="43.34726693809781" lon="-0.5199619428804355"><ele>131.0</ele><time>2026-05-03T10:20:38Z</time></trkpt><trkpt lat="43.347214560253136" lon="-0.5199035892124225"><ele>131.0</ele><time>2026-05-03T10:20:39Z</time></trkpt><trkpt lat="43.34716587165211" lon="-0.5198415167325126"><ele>131.0</ele><time>2026-05-03T10:20:40Z</time></trkpt><trkpt lat="43.34712077717808" lon="-0.519771154886154"><ele>131.0</ele><time>2026-05-03T10:20:41Z</time></trkpt><trkpt lat="43.347078080159726" lon="-0.5197074830999109"><ele>131.0</ele><time>2026-05-03T10:20:42Z</time></trkpt><trkpt lat="43.34700222696519" lon="-0.519661708549283"><ele>131.0</ele><time>2026-05-03T10:20:43Z</time></trkpt><trkpt lat="43.34697098127068" lon="-0.5195848783302386"><ele>131.0</ele><time>2026-05-03T10:20:44Z</time></trkpt><trkpt lat="43.346920135759994" lon="-0.5195181235162851"><ele>131.0</ele><time>2026-05-03T10:20:45Z</time></trkpt><trkpt lat="43.34686899937146" lon="-0.5194559494431751"><ele>131.0</ele><time>2026-05-03T10:20:46Z</time></trkpt><trkpt lat="43.34681831527489" lon="-0.5193890665920726"><ele>131.14285714285714</ele><time>2026-05-03T10:20:47Z</time></trkpt><trkpt lat="43.34677018593277" lon="-0.5193201209957585"><ele>131.2857142857143</ele><time>2026-05-03T10:20:48Z</time></trkpt><trkpt lat="43.34671942288253" lon="-0.5192469154829411"><ele>131.42857142857144</ele><time>2026-05-03T10:20:49Z</time></trkpt><trkpt lat="43.34666685817186" lon="-0.5191859576868475"><ele>131.57142857142858</ele><time>2026-05-03T10:20:50Z</time></trkpt><trkpt lat="43.34661437869561" lon="-0.5191239583142699"><ele>131.71428571428572</ele><time>2026-05-03T10:20:51Z</time></trkpt><trkpt lat="43.34656045864733" lon="-0.5190519897944852"><ele>131.85714285714286</ele><time>2026-05-03T10:20:52Z</time></trkpt><trkpt lat="43.34650966408166" lon="-0.5189818052166422"><ele>132.0</ele><time>2026-05-03T10:20:53Z</time></trkpt><trkpt lat="43.34646123193276" lon="-0.5189042503667273"><ele>132.0</ele><time>2026-05-03T10:20:54Z</time></trkpt><trkpt lat="43.346413903092795" lon="-0.518845051069712"><ele>132.0</ele><time>2026-05-03T10:20:55Z</time></trkpt><trkpt lat="43.34635850268981" lon="-0.518776098164591"><ele>132.0</ele><time>2026-05-03T10:20:56Z</time></trkpt><trkpt lat="43.34630761674964" lon="-0.5187133180491662"><ele>132.0</ele><time>2026-05-03T10:20:57Z</time></trkpt><trkpt lat="43.3462554586426" lon="-0.5186464726760526"><ele>132.0</ele><time>2026-05-03T10:20:58Z</time></trkpt><trkpt lat="43.34620602162164" lon="-0.5185819208764417"><ele>132.0</ele><time>2026-05-03T10:20:59Z</time></trkpt><trkpt lat="43.34615431936593" lon="-0.518508607191483"><ele>132.0</ele><time>2026-05-03T10:21:00Z</time></trkpt><trkpt lat="43.346103918262195" lon="-0.5184422279554798"><ele>132.14285714285714</ele><time>2026-05-03T10:21:01Z</time></trkpt><trkpt lat="43.346055889217226" lon="-0.518373405802309"><ele>132.28571428571428</ele><time>2026-05-03T10:21:02Z</time></trkpt><trkpt lat="43.34600425762477" lon="-0.5183000043742482"><ele>132.42857142857144</ele><time>2026-05-03T10:21:03Z</time></trkpt><trkpt lat="43.345951880938806" lon="-0.5182424737398775"><ele>132.57142857142856</ele><time>2026-05-03T10:21:04Z</time></trkpt><trkpt lat="43.345900928827334" lon="-0.5181731003146122"><ele>132.71428571428572</ele><time>2026-05-03T10:21:05Z</time></trkpt><trkpt lat="43.34584843812643" lon="-0.5181088277801472"><ele>132.85714285714286</ele><time>2026-05-03T10:21:06Z</time></trkpt><trkpt lat="43.34579488107749" lon="-0.518040426060598"><ele>133.0</ele><time>2026-05-03T10:21:07Z</time></trkpt><trkpt lat="43.345747686488785" lon="-0.5179802294246034"><ele>133.0</ele><time>2026-05-03T10:21:08Z</time></trkpt><trkpt lat="43.34569891221064" lon="-0.5179097051068572"><ele>133.0</ele><time>2026-05-03T10:21:09Z</time></trkpt><trkpt lat="43.34564930930513" lon="-0.5178437095339881"><ele>133.0</ele><time>2026-05-03T10:21:10Z</time></trkpt><trkpt lat="43.34560062303067" lon="-0.517775694758333"><ele>133.0</ele><time>2026-05-03T10:21:11Z</time></trkpt><trkpt lat="43.34555209806976" lon="-0.5177054649803094"><ele>133.0</ele><time>2026-05-03T10:21:12Z</time></trkpt><trkpt lat="43.345500277890764" lon="-0.5176447316382178"><ele>133.0</ele><time>2026-05-03T10:21:13Z</time></trkpt><trkpt lat="43.34544781594813" lon="-0.5175817224792859"><ele>133.0</ele><time>2026-05-03T10:21:14Z</time></trkpt><trkpt lat="43.345395424581675" lon="-0.5175178333546562"><ele>133.0</ele><time>2026-05-03T10:21:15Z</time></trkpt><trkpt lat="43.34534389970189" lon="-0.5174520001544737"><ele>133.0</ele><time>2026-05-03T10:21:16Z</time></trkpt><trkpt lat="43.34529585642271" lon="-0.5173859890309903"><ele>133.0</ele><time>2026-05-03T10:21:17Z</time></trkpt><trkpt lat="43.34524692592752" lon="-0.5173155708650617"><ele>133.0</ele><time>2026-05-03T10:21:18Z</time></trkpt><trkpt lat="43.3451991360438" lon="-0.5172427153517414"><ele>133.0</ele><time>2026-05-03T10:21:19Z</time></trkpt><trkpt lat="43.345147336850815" lon="-0.5171801182056411"><ele>133.0</ele><time>2026-05-03T10:21:20Z</time></trkpt><trkpt lat="43.34509489975767" lon="-0.5171186248685374"><ele>133.0</ele><time>2026-05-03T10:21:21Z</time></trkpt><trkpt lat="43.3450456719837" lon="-0.5170598419997668"><ele>133.0</ele><time>2026-05-03T10:21:22Z</time></trkpt><trkpt lat="43.34499405017728" lon="-0.5169926321935199"><ele>133.0</ele><time>2026-05-03T10:21:23Z</time></trkpt><trkpt lat="43.34494557674686" lon="-0.5169270415156471"><ele>133.0</ele><time>2026-05-03T10:21:24Z</time></trkpt><trkpt lat="43.34489764528805" lon="-0.5168595086027271"><ele>133.0</ele><time>2026-05-03T10:21:25Z</time></trkpt><trkpt lat="43.34484998552151" lon="-0.5167940474398418"><ele>133.0</ele><time>2026-05-03T10:21:26Z</time></trkpt><trkpt lat="43.34480137394658" lon="-0.5167295406012372"><ele>133.0</ele><time>2026-05-03T10:21:27Z</time></trkpt><trkpt lat="43.34475280474674" lon="-0.516667614831636"><ele>133.0</ele><time>2026-05-03T10:21:28Z</time></trkpt><trkpt lat="43.344703827401766" lon="-0.5166022894422749"><ele>132.83333333333334</ele><time>2026-05-03T10:21:29Z</time></trkpt><trkpt lat="43.34465342058761" lon="-0.5165414234574831"><ele>132.66666666666669</ele><time>2026-05-03T10:21:30Z</time></trkpt><trkpt lat="43.34460440716655" lon="-0.5164795434320085"><ele>132.5</ele><time>2026-05-03T10:21:31Z</time></trkpt><trkpt lat="43.34455765986761" lon="-0.5164169511261965"><ele>132.33333333333334</ele><time>2026-05-03T10:21:32Z</time></trkpt><trkpt lat="43.34446186215564" lon="-0.5162902418831168"><ele>132.16666666666666</ele><time>2026-05-03T10:21:34Z</time></trkpt><trkpt lat="43.344412711649575" lon="-0.516229107118328"><ele>132.0</ele><time>2026-05-03T10:21:35Z</time></trkpt><trkpt lat="43.3443627766674" lon="-0.5161681897629026"><ele>131.85714285714286</ele><time>2026-05-03T10:21:36Z</time></trkpt><trkpt lat="43.34431570887327" lon="-0.516101994472017"><ele>131.71428571428572</ele><time>2026-05-03T10:21:37Z</time></trkpt><trkpt lat="43.34426676908401" lon="-0.5160401257010527"><ele>131.57142857142858</ele><time>2026-05-03T10:21:38Z</time></trkpt><trkpt lat="43.34421978981978" lon="-0.5159769618446489"><ele>131.42857142857144</ele><time>2026-05-03T10:21:39Z</time></trkpt><trkpt lat="43.34417257266101" lon="-0.5159155393471976"><ele>131.2857142857143</ele><time>2026-05-03T10:21:40Z</time></trkpt><trkpt lat="43.34412724277395" lon="-0.515854732973723"><ele>131.14285714285714</ele><time>2026-05-03T10:21:41Z</time></trkpt><trkpt lat="43.344079147952904" lon="-0.5157918678439803"><ele>131.0</ele><time>2026-05-03T10:21:42Z</time></trkpt><trkpt lat="43.343993806391026" lon="-0.5156739196726019"><ele>131.0</ele><time>2026-05-03T10:21:44Z</time></trkpt><trkpt lat="43.34394984671529" lon="-0.5156117715493286"><ele>131.0</ele><time>2026-05-03T10:21:45Z</time></trkpt><trkpt lat="43.34390775971851" lon="-0.515546427956464"><ele>131.0</ele><time>2026-05-03T10:21:46Z</time></trkpt><trkpt lat="43.3438636019913" lon="-0.515481352072067"><ele>131.0</ele><time>2026-05-03T10:21:47Z</time></trkpt><trkpt lat="43.34381650139579" lon="-0.5154200055795861"><ele>131.0</ele><time>2026-05-03T10:21:48Z</time></trkpt><trkpt lat="43.34372644541557" lon="-0.515293732030713"><ele>131.0</ele><time>2026-05-03T10:21:50Z</time></trkpt><trkpt lat="43.34368322627384" lon="-0.5152270380835335"><ele>131.33333333333331</ele><time>2026-05-03T10:21:51Z</time></trkpt><trkpt lat="43.34363501163847" lon="-0.5151589957136873"><ele>131.66666666666666</ele><time>2026-05-03T10:21:52Z</time></trkpt><trkpt lat="43.34358045646316" lon="-0.5151073447907275"><ele>132.0</ele><time>2026-05-03T10:21:53Z</time></trkpt><trkpt lat="43.34351687186126" lon="-0.5150541555502274"><ele>132.33333333333334</ele><time>2026-05-03T10:21:54Z</time></trkpt><trkpt lat="43.343421041262054" lon="-0.514922399319678"><ele>132.66666666666669</ele><time>2026-05-03T10:21:56Z</time></trkpt><trkpt lat="43.34336702076105" lon="-0.5148521507468932"><ele>133.0</ele><time>2026-05-03T10:21:57Z</time></trkpt><trkpt lat="43.34331695190071" lon="-0.5147862856584918"><ele>133.0</ele><time>2026-05-03T10:21:58Z</time></trkpt><trkpt lat="43.34326633087404" lon="-0.5147224311595716"><ele>133.0</ele><time>2026-05-03T10:21:59Z</time></trkpt><trkpt lat="43.34321169003261" lon="-0.5146454159355426"><ele>133.0</ele><time>2026-05-03T10:22:00Z</time></trkpt><trkpt lat="43.343161786872486" lon="-0.5145861515285985"><ele>133.0</ele><time>2026-05-03T10:22:01Z</time></trkpt><trkpt lat="43.34311233275752" lon="-0.514521262426006"><ele>133.0</ele><time>2026-05-03T10:22:02Z</time></trkpt><trkpt lat="43.343065435882785" lon="-0.514452087601224"><ele>133.0</ele><time>2026-05-03T10:22:03Z</time></trkpt><trkpt lat="43.34301529675819" lon="-0.5143873043529588"><ele>133.0</ele><time>2026-05-03T10:22:04Z</time></trkpt><trkpt lat="43.34296519379475" lon="-0.5143239170768038"><ele>132.85714285714286</ele><time>2026-05-03T10:22:05Z</time></trkpt><trkpt lat="43.342914410042894" lon="-0.5142609079498198"><ele>132.71428571428572</ele><time>2026-05-03T10:22:06Z</time></trkpt><trkpt lat="43.34286229439462" lon="-0.5141950630633831"><ele>132.57142857142856</ele><time>2026-05-03T10:22:07Z</time></trkpt><trkpt lat="43.342812599826146" lon="-0.5141285425497427"><ele>132.42857142857144</ele><time>2026-05-03T10:22:08Z</time></trkpt><trkpt lat="43.34276275280023" lon="-0.5140607693718071"><ele>132.28571428571428</ele><time>2026-05-03T10:22:09Z</time></trkpt><trkpt lat="43.342714855840796" lon="-0.5139981278911224"><ele>132.14285714285714</ele><time>2026-05-03T10:22:10Z</time></trkpt><trkpt lat="43.34266490610325" lon="-0.5139299751333504"><ele>132.0</ele><time>2026-05-03T10:22:11Z</time></trkpt><trkpt lat="43.342615959429565" lon="-0.5138677767344205"><ele>132.0</ele><time>2026-05-03T10:22:12Z</time></trkpt><trkpt lat="43.342565144997074" lon="-0.513805860638747"><ele>132.0</ele><time>2026-05-03T10:22:13Z</time></trkpt><trkpt lat="43.342515115736084" lon="-0.5137460635161192"><ele>132.0</ele><time>2026-05-03T10:22:14Z</time></trkpt><trkpt lat="43.342471291632954" lon="-0.5136831850522722"><ele>132.0</ele><time>2026-05-03T10:22:15Z</time></trkpt><trkpt lat="43.342421003123086" lon="-0.5136150644394009"><ele>132.0</ele><time>2026-05-03T10:22:16Z</time></trkpt><trkpt lat="43.34237328615415" lon="-0.513554184375662"><ele>132.0</ele><time>2026-05-03T10:22:17Z</time></trkpt><trkpt lat="43.34232334873181" lon="-0.5134892123368662"><ele>132.0</ele><time>2026-05-03T10:22:18Z</time></trkpt><trkpt lat="43.342275530867646" lon="-0.5134240865788369"><ele>132.28571428571428</ele><time>2026-05-03T10:22:19Z</time></trkpt><trkpt lat="43.34222727036437" lon="-0.5133616067506422"><ele>132.57142857142858</ele><time>2026-05-03T10:22:20Z</time></trkpt><trkpt lat="43.34217547502871" lon="-0.5132981314121917"><ele>132.85714285714286</ele><time>2026-05-03T10:22:21Z</time></trkpt><trkpt lat="43.34212729353657" lon="-0.5132361235195553"><ele>133.14285714285714</ele><time>2026-05-03T10:22:22Z</time></trkpt><trkpt lat="43.342078327129585" lon="-0.5131723071587968"><ele>133.42857142857142</ele><time>2026-05-03T10:22:23Z</time></trkpt><trkpt lat="43.342029190727985" lon="-0.5131067246604935"><ele>133.71428571428572</ele><time>2026-05-03T10:22:24Z</time></trkpt><trkpt lat="43.34198028658167" lon="-0.5130500480128631"><ele>134.0</ele><time>2026-05-03T10:22:25Z</time></trkpt><trkpt lat="43.341931194508845" lon="-0.5129785044420853"><ele>134.0</ele><time>2026-05-03T10:22:26Z</time></trkpt><trkpt lat="43.341884133904195" lon="-0.5129171189649512"><ele>134.0</ele><time>2026-05-03T10:22:27Z</time></trkpt><trkpt lat="43.3418365936967" lon="-0.512852536962769"><ele>134.0</ele><time>2026-05-03T10:22:28Z</time></trkpt><trkpt lat="43.34178883735978" lon="-0.512792417085324"><ele>134.0</ele><time>2026-05-03T10:22:29Z</time></trkpt><trkpt lat="43.34173843926596" lon="-0.5127313706238307"><ele>134.0</ele><time>2026-05-03T10:22:30Z</time></trkpt><trkpt lat="43.34169029083031" lon="-0.5126661154417709"><ele>134.0</ele><time>2026-05-03T10:22:31Z</time></trkpt><trkpt lat="43.34164343805508" lon="-0.5125986198952515"><ele>134.0</ele><time>2026-05-03T10:22:32Z</time></trkpt><trkpt lat="43.34160043835692" lon="-0.5125262626805462"><ele>134.0</ele><time>2026-05-03T10:22:33Z</time></trkpt><trkpt lat="43.34150265190034" lon="-0.5124135121290572"><ele>134.0</ele><time>2026-05-03T10:22:35Z</time></trkpt><trkpt lat="43.34145163007348" lon="-0.5123527260135645"><ele>134.0</ele><time>2026-05-03T10:22:36Z</time></trkpt><trkpt lat="43.34140551084389" lon="-0.512292374933946"><ele>134.0</ele><time>2026-05-03T10:22:37Z</time></trkpt><trkpt lat="43.34135877739475" lon="-0.5122266706063237"><ele>134.0</ele><time>2026-05-03T10:22:38Z</time></trkpt><trkpt lat="43.341308462719205" lon="-0.5121665316508893"><ele>134.0</ele><time>2026-05-03T10:22:39Z</time></trkpt><trkpt lat="43.34125945333178" lon="-0.5121052142000867"><ele>133.71428571428572</ele><time>2026-05-03T10:22:40Z</time></trkpt><trkpt lat="43.34121344599126" lon="-0.5120433557819775"><ele>133.42857142857142</ele><time>2026-05-03T10:22:40.999Z</time></trkpt><trkpt lat="43.3411664661214" lon="-0.5119770947848765"><ele>133.14285714285714</ele><time>2026-05-03T10:22:41.999Z</time></trkpt><trkpt lat="43.34111846508184" lon="-0.5119115807299818"><ele>132.85714285714286</ele><time>2026-05-03T10:22:42.999Z</time></trkpt><trkpt lat="43.34107306949066" lon="-0.5118494548831571"><ele>132.57142857142858</ele><time>2026-05-03T10:22:43.999Z</time></trkpt><trkpt lat="43.34102419366873" lon="-0.5117867864073665"><ele>132.28571428571428</ele><time>2026-05-03T10:22:44.999Z</time></trkpt><trkpt lat="43.34097297289931" lon="-0.5117239348769215"><ele>132.0</ele><time>2026-05-03T10:22:45.999Z</time></trkpt><trkpt lat="43.3409243689808" lon="-0.5116593821098984"><ele>132.0</ele><time>2026-05-03T10:22:46.999Z</time></trkpt><trkpt lat="43.34087846295981" lon="-0.5115927670244022"><ele>132.0</ele><time>2026-05-03T10:22:47.999Z</time></trkpt><trkpt lat="43.34083009873041" lon="-0.5115323177824388"><ele>132.0</ele><time>2026-05-03T10:22:49Z</time></trkpt><trkpt lat="43.34078021953517" lon="-0.5114754227224254"><ele>132.0</ele><time>2026-05-03T10:22:50Z</time></trkpt><trkpt lat="43.340731553146426" lon="-0.5114088200633814"><ele>132.0</ele><time>2026-05-03T10:22:51Z</time></trkpt><trkpt lat="43.34068563660118" lon="-0.5113446163155193"><ele>132.0</ele><time>2026-05-03T10:22:52Z</time></trkpt><trkpt lat="43.340638189514785" lon="-0.5112808558769396"><ele>132.0</ele><time>2026-05-03T10:22:53Z</time></trkpt><trkpt lat="43.340543686637844" lon="-0.511160448574955"><ele>132.0</ele><time>2026-05-03T10:22:55Z</time></trkpt><trkpt lat="43.34049728832826" lon="-0.5110987616018609"><ele>132.0</ele><time>2026-05-03T10:22:56Z</time></trkpt><trkpt lat="43.340404536543446" lon="-0.5109819856431699"><ele>132.0</ele><time>2026-05-03T10:22:58Z</time></trkpt><trkpt lat="43.34031530723765" lon="-0.5108636907613625"><ele>132.0</ele><time>2026-05-03T10:23:00Z</time></trkpt><trkpt lat="43.34026946565869" lon="-0.5108032877448845"><ele>132.0</ele><time>2026-05-03T10:23:01Z</time></trkpt><trkpt lat="43.34017892145167" lon="-0.5106963851207204"><ele>132.0</ele><time>2026-05-03T10:23:03Z</time></trkpt><trkpt lat="43.34008782169426" lon="-0.5105852916986947"><ele>132.0</ele><time>2026-05-03T10:23:05Z</time></trkpt><trkpt lat="43.3399951314805" lon="-0.5104710548230071"><ele>132.0</ele><time>2026-05-03T10:23:07Z</time></trkpt><trkpt lat="43.339902657273676" lon="-0.5103632679043691"><ele>132.0</ele><time>2026-05-03T10:23:09Z</time></trkpt><trkpt lat="43.339814820657" lon="-0.5102487160777168"><ele>132.25</ele><time>2026-05-03T10:23:11Z</time></trkpt><trkpt lat="43.3397250105542" lon="-0.5101340775965064"><ele>132.5</ele><time>2026-05-03T10:23:13Z</time></trkpt><trkpt lat="43.339638475240505" lon="-0.5100191624934433"><ele>132.75</ele><time>2026-05-03T10:23:15Z</time></trkpt><trkpt lat="43.33955373349184" lon="-0.5099071184910148"><ele>133.0</ele><time>2026-05-03T10:23:17Z</time></trkpt><trkpt lat="43.339467149551155" lon="-0.5098009536008561"><ele>133.0</ele><time>2026-05-03T10:23:19Z</time></trkpt><trkpt lat="43.33938358452901" lon="-0.5096879491741099"><ele>133.0</ele><time>2026-05-03T10:23:21Z</time></trkpt><trkpt lat="43.33930046553367" lon="-0.5095800339972372"><ele>133.0</ele><time>2026-05-03T10:23:23Z</time></trkpt><trkpt lat="43.339224960920255" lon="-0.50946003672271"><ele>133.0</ele><time>2026-05-03T10:23:25Z</time></trkpt><trkpt lat="43.33915390282781" lon="-0.5093312395421304"><ele>133.75</ele><time>2026-05-03T10:23:27Z</time></trkpt><trkpt lat="43.339075171433194" lon="-0.5092071608854961"><ele>134.5</ele><time>2026-05-03T10:23:29Z</time></trkpt><trkpt lat="43.338999819199934" lon="-0.5090791396290059"><ele>135.25</ele><time>2026-05-03T10:23:31Z</time></trkpt><trkpt lat="43.338926931702666" lon="-0.5089474899116558"><ele>136.0</ele><time>2026-05-03T10:23:33Z</time></trkpt><trkpt lat="43.33885748427859" lon="-0.5088119780949245"><ele>136.2</ele><time>2026-05-03T10:23:35Z</time></trkpt><trkpt lat="43.33879166067443" lon="-0.5086793553293105"><ele>136.39999999999998</ele><time>2026-05-03T10:23:37Z</time></trkpt><trkpt lat="43.33873269002768" lon="-0.5085427757540695"><ele>136.6</ele><time>2026-05-03T10:23:39Z</time></trkpt><trkpt lat="43.33866843956041" lon="-0.5084032825039796"><ele>136.79999999999998</ele><time>2026-05-03T10:23:41Z</time></trkpt><trkpt lat="43.33863111245869" lon="-0.5083272994946332"><ele>137.0</ele><time>2026-05-03T10:23:42Z</time></trkpt><trkpt lat="43.33857463222911" lon="-0.5081783922573321"><ele>137.0</ele><time>2026-05-03T10:23:44Z</time></trkpt><trkpt lat="43.33854048807435" lon="-0.5081013545000617"><ele>137.0</ele><time>2026-05-03T10:23:45Z</time></trkpt><trkpt lat="43.33850785573811" lon="-0.5080262213782629"><ele>137.0</ele><time>2026-05-03T10:23:46Z</time></trkpt><trkpt lat="43.33848052979747" lon="-0.5079474242229268"><ele>137.0</ele><time>2026-05-03T10:23:47Z</time></trkpt><trkpt lat="43.33845087372337" lon="-0.5078654894182999"><ele>137.0</ele><time>2026-05-03T10:23:48Z</time></trkpt><trkpt lat="43.33840622848937" lon="-0.507701398566519"><ele>137.0</ele><time>2026-05-03T10:23:50Z</time></trkpt><trkpt lat="43.338375868227615" lon="-0.5076191705525739"><ele>137.00000000000003</ele><time>2026-05-03T10:23:51Z</time></trkpt><trkpt lat="43.33834886281697" lon="-0.5075378808779105"><ele>137.0</ele><time>2026-05-03T10:23:52Z</time></trkpt><trkpt lat="43.338324337611645" lon="-0.5074502545848036"><ele>137.0</ele><time>2026-05-03T10:23:53Z</time></trkpt><trkpt lat="43.33830019266586" lon="-0.5073642910119796"><ele>137.0</ele><time>2026-05-03T10:23:54Z</time></trkpt><trkpt lat="43.33827501007395" lon="-0.5072793338948349"><ele>137.0</ele><time>2026-05-03T10:23:55Z</time></trkpt><trkpt lat="43.338250824677694" lon="-0.5071924286056229"><ele>137.00000000000003</ele><time>2026-05-03T10:23:56Z</time></trkpt><trkpt lat="43.338231010440815" lon="-0.5071053667225969"><ele>137.0</ele><time>2026-05-03T10:23:57Z</time></trkpt><trkpt lat="43.338211527921864" lon="-0.5070189889719033"><ele>137.00000000000003</ele><time>2026-05-03T10:23:58Z</time></trkpt><trkpt lat="43.33819033848821" lon="-0.5069296970105459"><ele>137.0</ele><time>2026-05-03T10:23:59Z</time></trkpt><trkpt lat="43.33816427626489" lon="-0.5068368957045566"><ele>137.0</ele><time>2026-05-03T10:24:00Z</time></trkpt><trkpt lat="43.338137267891376" lon="-0.5067556266159782"><ele>137.0</ele><time>2026-05-03T10:24:01Z</time></trkpt><trkpt lat="43.33811755207213" lon="-0.5066701100956852"><ele>137.0</ele><time>2026-05-03T10:24:02Z</time></trkpt><trkpt lat="43.33810275550188" lon="-0.5065804714060171"><ele>137.00000000000003</ele><time>2026-05-03T10:24:03Z</time></trkpt><trkpt lat="43.33808629150286" lon="-0.5064925320250038"><ele>137.0</ele><time>2026-05-03T10:24:04Z</time></trkpt><trkpt lat="43.3380692885708" lon="-0.5064028226314395"><ele>137.00000000000003</ele><time>2026-05-03T10:24:05Z</time></trkpt><trkpt lat="43.33805492964272" lon="-0.5063159159758234"><ele>137.0</ele><time>2026-05-03T10:24:06Z</time></trkpt><trkpt lat="43.33803926706015" lon="-0.5062283820746005"><ele>137.0</ele><time>2026-05-03T10:24:07Z</time></trkpt><trkpt lat="43.338025220777304" lon="-0.5061433682607498"><ele>137.0</ele><time>2026-05-03T10:24:08Z</time></trkpt><trkpt lat="43.338010318335186" lon="-0.5060554893631819"><ele>137.0</ele><time>2026-05-03T10:24:09Z</time></trkpt><trkpt lat="43.338003420865974" lon="-0.5059652489537061"><ele>137.00000000000003</ele><time>2026-05-03T10:24:10Z</time></trkpt><trkpt lat="43.33797621215678" lon="-0.5058132917298532"><ele>137.0</ele><time>2026-05-03T10:24:12Z</time></trkpt><trkpt lat="43.33796270627619" lon="-0.5057113022134034"><ele>136.85714285714286</ele><time>2026-05-03T10:24:13Z</time></trkpt><trkpt lat="43.337954710566926" lon="-0.5056227037410704"><ele>136.71428571428572</ele><time>2026-05-03T10:24:14Z</time></trkpt><trkpt lat="43.337948699595515" lon="-0.5055360947569394"><ele>136.57142857142856</ele><time>2026-05-03T10:24:15Z</time></trkpt><trkpt lat="43.337943679029344" lon="-0.5054481973230306"><ele>136.42857142857144</ele><time>2026-05-03T10:24:16Z</time></trkpt><trkpt lat="43.33793933201207" lon="-0.5053592898556966"><ele>136.28571428571428</ele><time>2026-05-03T10:24:17Z</time></trkpt><trkpt lat="43.33792922624541" lon="-0.5052686166587583"><ele>136.14285714285714</ele><time>2026-05-03T10:24:18Z</time></trkpt><trkpt lat="43.337916933558176" lon="-0.5051778720378532"><ele>136.0</ele><time>2026-05-03T10:24:19Z</time></trkpt><trkpt lat="43.33790760451515" lon="-0.5050884605630591"><ele>135.85714285714283</ele><time>2026-05-03T10:24:20Z</time></trkpt><trkpt lat="43.337899723910425" lon="-0.5049933469716221"><ele>135.71428571428572</ele><time>2026-05-03T10:24:21Z</time></trkpt><trkpt lat="43.33789640585681" lon="-0.504900196373504"><ele>135.57142857142856</ele><time>2026-05-03T10:24:22Z</time></trkpt><trkpt lat="43.33789157827789" lon="-0.504806979229092"><ele>135.42857142857142</ele><time>2026-05-03T10:24:23Z</time></trkpt><trkpt lat="43.33788447076499" lon="-0.5047126742561525"><ele>135.28571428571428</ele><time>2026-05-03T10:24:24Z</time></trkpt><trkpt lat="43.337876821925555" lon="-0.5046187799011884"><ele>135.14285714285714</ele><time>2026-05-03T10:24:25Z</time></trkpt><trkpt lat="43.33786715849122" lon="-0.5045224941847992"><ele>135.0</ele><time>2026-05-03T10:24:26Z</time></trkpt><trkpt lat="43.33785737512908" lon="-0.504427002536672"><ele>134.85714285714286</ele><time>2026-05-03T10:24:27Z</time></trkpt><trkpt lat="43.33784860973019" lon="-0.5043296216349555"><ele>134.7142857142857</ele><time>2026-05-03T10:24:28Z</time></trkpt><trkpt lat="43.3378400443714" lon="-0.504234300897502"><ele>134.57142857142856</ele><time>2026-05-03T10:24:29Z</time></trkpt><trkpt lat="43.337833477626674" lon="-0.5041406918759604"><ele>134.42857142857142</ele><time>2026-05-03T10:24:30Z</time></trkpt><trkpt lat="43.337826079394056" lon="-0.5040449203098717"><ele>134.28571428571428</ele><time>2026-05-03T10:24:31Z</time></trkpt><trkpt lat="43.33781964320644" lon="-0.5039498852729979"><ele>134.14285714285714</ele><time>2026-05-03T10:24:32Z</time></trkpt><trkpt lat="43.33781205616393" lon="-0.5038543024667342"><ele>134.0</ele><time>2026-05-03T10:24:33Z</time></trkpt><trkpt lat="43.33780198421999" lon="-0.5037611438743043"><ele>134.28571428571428</ele><time>2026-05-03T10:24:34Z</time></trkpt><trkpt lat="43.33779370610349" lon="-0.5036654603033386"><ele>134.57142857142856</ele><time>2026-05-03T10:24:35Z</time></trkpt><trkpt lat="43.33778424009083" lon="-0.5035699656241961"><ele>134.85714285714283</ele><time>2026-05-03T10:24:36Z</time></trkpt><trkpt lat="43.33777835698341" lon="-0.5034764316951706"><ele>135.14285714285714</ele><time>2026-05-03T10:24:37Z</time></trkpt><trkpt lat="43.33777351016823" lon="-0.503382260458438"><ele>135.42857142857142</ele><time>2026-05-03T10:24:38Z</time></trkpt><trkpt lat="43.337766156632085" lon="-0.5032888159268502"><ele>135.7142857142857</ele><time>2026-05-03T10:24:39Z</time></trkpt><trkpt lat="43.33775724398693" lon="-0.5031968459354873"><ele>136.0</ele><time>2026-05-03T10:24:40Z</time></trkpt><trkpt lat="43.337749870013575" lon="-0.5031046408796749"><ele>135.99999999999997</ele><time>2026-05-03T10:24:41Z</time></trkpt><trkpt lat="43.33774010259784" lon="-0.5030136670950105"><ele>136.0</ele><time>2026-05-03T10:24:42Z</time></trkpt><trkpt lat="43.33773691854802" lon="-0.5029183837232535"><ele>136.0</ele><time>2026-05-03T10:24:43Z</time></trkpt><trkpt lat="43.33773192474603" lon="-0.5028242162506846"><ele>136.0</ele><time>2026-05-03T10:24:44Z</time></trkpt><trkpt lat="43.33772280338684" lon="-0.502732200865916"><ele>136.0</ele><time>2026-05-03T10:24:45Z</time></trkpt><trkpt lat="43.33771405519261" lon="-0.5026379582716535"><ele>135.99999999999997</ele><time>2026-05-03T10:24:46Z</time></trkpt><trkpt lat="43.33770367645773" lon="-0.5025442719815137"><ele>136.0</ele><time>2026-05-03T10:24:46.999Z</time></trkpt><trkpt lat="43.33769432425401" lon="-0.5024499373562816"><ele>135.99999999999997</ele><time>2026-05-03T10:24:47.999Z</time></trkpt><trkpt lat="43.337688531480914" lon="-0.5023539259064916"><ele>136.0</ele><time>2026-05-03T10:24:48.999Z</time></trkpt><trkpt lat="43.337680552464015" lon="-0.502260004922915"><ele>136.0</ele><time>2026-05-03T10:24:49.999Z</time></trkpt><trkpt lat="43.33767327496662" lon="-0.5021665194694731"><ele>136.0</ele><time>2026-05-03T10:24:50.999Z</time></trkpt><trkpt lat="43.3376636044161" lon="-0.5020743672329534"><ele>136.0</ele><time>2026-05-03T10:24:51.999Z</time></trkpt><trkpt lat="43.33765720762904" lon="-0.5019810674489488"><ele>135.99999999999997</ele><time>2026-05-03T10:24:52.999Z</time></trkpt><trkpt lat="43.33765071847999" lon="-0.5018878004494115"><ele>136.0</ele><time>2026-05-03T10:24:53.999Z</time></trkpt><trkpt lat="43.33764390775999" lon="-0.5017908969329938"><ele>136.14285714285714</ele><time>2026-05-03T10:24:55Z</time></trkpt><trkpt lat="43.3376388582968" lon="-0.5016962769592628"><ele>136.28571428571428</ele><time>2026-05-03T10:24:56Z</time></trkpt><trkpt lat="43.33763257137303" lon="-0.5016000178163316"><ele>136.42857142857144</ele><time>2026-05-03T10:24:57Z</time></trkpt><trkpt lat="43.337624326739785" lon="-0.5015075863902636"><ele>136.57142857142856</ele><time>2026-05-03T10:24:58Z</time></trkpt><trkpt lat="43.337613646893786" lon="-0.5014099420054021"><ele>136.71428571428572</ele><time>2026-05-03T10:24:59Z</time></trkpt><trkpt lat="43.33760073173555" lon="-0.5013128071851733"><ele>136.85714285714286</ele><time>2026-05-03T10:25:00Z</time></trkpt><trkpt lat="43.33759128658531" lon="-0.5012164142173764"><ele>137.0</ele><time>2026-05-03T10:25:01Z</time></trkpt><trkpt lat="43.337584112372035" lon="-0.5011199515694286"><ele>137.00000000000003</ele><time>2026-05-03T10:25:02Z</time></trkpt><trkpt lat="43.337576847251995" lon="-0.5010229644169722"><ele>137.0</ele><time>2026-05-03T10:25:03Z</time></trkpt><trkpt lat="43.33756982769312" lon="-0.5009255035118143"><ele>137.0</ele><time>2026-05-03T10:25:04Z</time></trkpt><trkpt lat="43.33755654095638" lon="-0.5008274845018212"><ele>137.0</ele><time>2026-05-03T10:25:05Z</time></trkpt><trkpt lat="43.33754204067016" lon="-0.5007316757556526"><ele>137.0</ele><time>2026-05-03T10:25:06Z</time></trkpt><trkpt lat="43.33753085516622" lon="-0.5006369494499854"><ele>137.00000000000003</ele><time>2026-05-03T10:25:07Z</time></trkpt><trkpt lat="43.33751453514819" lon="-0.5005421042824987"><ele>137.0</ele><time>2026-05-03T10:25:08Z</time></trkpt><trkpt lat="43.33749700908471" lon="-0.500448752391457"><ele>136.85714285714286</ele><time>2026-05-03T10:25:09Z</time></trkpt><trkpt lat="43.33747892959627" lon="-0.5003545208781303"><ele>136.71428571428572</ele><time>2026-05-03T10:25:10Z</time></trkpt><trkpt lat="43.33746557599226" lon="-0.500259219823482"><ele>136.57142857142856</ele><time>2026-05-03T10:25:11Z</time></trkpt><trkpt lat="43.33745038960909" lon="-0.5001642314191336"><ele>136.42857142857144</ele><time>2026-05-03T10:25:12Z</time></trkpt><trkpt lat="43.33743536706782" lon="-0.5000709069090846"><ele>136.28571428571428</ele><time>2026-05-03T10:25:13Z</time></trkpt><trkpt lat="43.33741741716275" lon="-0.499976304662924"><ele>136.14285714285714</ele><time>2026-05-03T10:25:14Z</time></trkpt><trkpt lat="43.33739741278561" lon="-0.49988430827311425"><ele>136.0</ele><time>2026-05-03T10:25:15Z</time></trkpt><trkpt lat="43.33737513415694" lon="-0.4997930113028679"><ele>135.99999999999997</ele><time>2026-05-03T10:25:16Z</time></trkpt><trkpt lat="43.33735066290642" lon="-0.4997019187615541"><ele>136.0</ele><time>2026-05-03T10:25:17Z</time></trkpt><trkpt lat="43.33732574885639" lon="-0.49961026815700726"><ele>136.0</ele><time>2026-05-03T10:25:18Z</time></trkpt><trkpt lat="43.337306173461016" lon="-0.49952034501757153"><ele>136.0</ele><time>2026-05-03T10:25:19Z</time></trkpt><trkpt lat="43.337282099313356" lon="-0.4994303419648526"><ele>136.0</ele><time>2026-05-03T10:25:20Z</time></trkpt><trkpt lat="43.337257938112835" lon="-0.499345680011539"><ele>135.99999999999997</ele><time>2026-05-03T10:25:21Z</time></trkpt><trkpt lat="43.337229913091896" lon="-0.4992583694514662"><ele>136.0</ele><time>2026-05-03T10:25:22Z</time></trkpt><trkpt lat="43.33720218203687" lon="-0.4991709201138448"><ele>135.99999999999997</ele><time>2026-05-03T10:25:23Z</time></trkpt><trkpt lat="43.33717632711428" lon="-0.49908570676142405"><ele>136.0</ele><time>2026-05-03T10:25:24Z</time></trkpt><trkpt lat="43.33714814056307" lon="-0.49899902306439464"><ele>136.0</ele><time>2026-05-03T10:25:25Z</time></trkpt><trkpt lat="43.337119421819246" lon="-0.49891264470720037"><ele>136.0</ele><time>2026-05-03T10:25:26Z</time></trkpt><trkpt lat="43.33709322907367" lon="-0.4988263346069951"><ele>136.0</ele><time>2026-05-03T10:25:27Z</time></trkpt><trkpt lat="43.3370635439108" lon="-0.49874378314097884"><ele>135.99999999999997</ele><time>2026-05-03T10:25:28Z</time></trkpt><trkpt lat="43.337028793373015" lon="-0.4986633997499977"><ele>136.0</ele><time>2026-05-03T10:25:29Z</time></trkpt><trkpt lat="43.33699593160071" lon="-0.4985765784358204"><ele>135.85714285714283</ele><time>2026-05-03T10:25:30Z</time></trkpt><trkpt lat="43.336967982295604" lon="-0.4984927273583374"><ele>135.71428571428572</ele><time>2026-05-03T10:25:31Z</time></trkpt><trkpt lat="43.336936606975975" lon="-0.4984111944658127"><ele>135.57142857142856</ele><time>2026-05-03T10:25:32Z</time></trkpt><trkpt lat="43.336898647207626" lon="-0.4983346991994155"><ele>135.42857142857142</ele><time>2026-05-03T10:25:33Z</time></trkpt><trkpt lat="43.33686573116847" lon="-0.49825422961124316"><ele>135.28571428571428</ele><time>2026-05-03T10:25:34Z</time></trkpt><trkpt lat="43.336828981988084" lon="-0.4981736873084977"><ele>135.14285714285714</ele><time>2026-05-03T10:25:35Z</time></trkpt><trkpt lat="43.336796499006965" lon="-0.4980944297073597"><ele>135.0</ele><time>2026-05-03T10:25:36Z</time></trkpt><trkpt lat="43.33675847499699" lon="-0.49801245734616884"><ele>135.0</ele><time>2026-05-03T10:25:37Z</time></trkpt><trkpt lat="43.33672478748451" lon="-0.4979306831165591"><ele>135.0</ele><time>2026-05-03T10:25:38Z</time></trkpt><trkpt lat="43.33667859432618" lon="-0.4978561655764476"><ele>135.0</ele><time>2026-05-03T10:25:39Z</time></trkpt><trkpt lat="43.33663830502097" lon="-0.49778060753152703"><ele>135.0</ele><time>2026-05-03T10:25:40Z</time></trkpt><trkpt lat="43.33659896487937" lon="-0.49770018758178197"><ele>135.0</ele><time>2026-05-03T10:25:41Z</time></trkpt><trkpt lat="43.33655878463985" lon="-0.4976171870920895"><ele>135.0</ele><time>2026-05-03T10:25:42Z</time></trkpt><trkpt lat="43.33651687063493" lon="-0.49754230728287074"><ele>135.0</ele><time>2026-05-03T10:25:43Z</time></trkpt><trkpt lat="43.33647134165102" lon="-0.49747379107298784"><ele>135.14285714285714</ele><time>2026-05-03T10:25:44Z</time></trkpt><trkpt lat="43.33642814494883" lon="-0.49739777286213277"><ele>135.28571428571428</ele><time>2026-05-03T10:25:45Z</time></trkpt><trkpt lat="43.33638564813224" lon="-0.4973272713777071"><ele>135.42857142857142</ele><time>2026-05-03T10:25:46Z</time></trkpt><trkpt lat="43.3363427607623" lon="-0.49726134048882464"><ele>135.57142857142856</ele><time>2026-05-03T10:25:47Z</time></trkpt><trkpt lat="43.33629613188811" lon="-0.49719229635971096"><ele>135.71428571428572</ele><time>2026-05-03T10:25:48Z</time></trkpt><trkpt lat="43.33625298930713" lon="-0.49712153296738903"><ele>135.85714285714283</ele><time>2026-05-03T10:25:49Z</time></trkpt><trkpt lat="43.33620649932668" lon="-0.4970537454378993"><ele>136.0</ele><time>2026-05-03T10:25:50Z</time></trkpt><trkpt lat="43.33615943855541" lon="-0.49698956813329465"><ele>136.28571428571428</ele><time>2026-05-03T10:25:51Z</time></trkpt><trkpt lat="43.336112099203774" lon="-0.4969247740609416"><ele>136.57142857142856</ele><time>2026-05-03T10:25:52Z</time></trkpt><trkpt lat="43.33606449989425" lon="-0.49685969410266395"><ele>136.85714285714286</ele><time>2026-05-03T10:25:53Z</time></trkpt><trkpt lat="43.33601841668444" lon="-0.4967928116339897"><ele>137.14285714285714</ele><time>2026-05-03T10:25:54Z</time></trkpt><trkpt lat="43.33597070692099" lon="-0.4967291072936055"><ele>137.42857142857144</ele><time>2026-05-03T10:25:55Z</time></trkpt><trkpt lat="43.33592319020248" lon="-0.49666726209040973"><ele>137.71428571428572</ele><time>2026-05-03T10:25:56Z</time></trkpt><trkpt lat="43.33587498439212" lon="-0.49660410517472375"><ele>138.0</ele><time>2026-05-03T10:25:57Z</time></trkpt><trkpt lat="43.335830590788746" lon="-0.49653740679230346"><ele>138.0</ele><time>2026-05-03T10:25:58Z</time></trkpt><trkpt lat="43.3357816039396" lon="-0.4964792686804795"><ele>138.0</ele><time>2026-05-03T10:25:59Z</time></trkpt><trkpt lat="43.33573109750705" lon="-0.49641967108827395"><ele>138.0</ele><time>2026-05-03T10:26:00Z</time></trkpt><trkpt lat="43.335683587833955" lon="-0.49635640222571187"><ele>138.0</ele><time>2026-05-03T10:26:01Z</time></trkpt><trkpt lat="43.335636554079436" lon="-0.49629134099570665"><ele>138.0</ele><time>2026-05-03T10:26:02Z</time></trkpt><trkpt lat="43.33558755655487" lon="-0.49622891667133084"><ele>138.0</ele><time>2026-05-03T10:26:03Z</time></trkpt><trkpt lat="43.3355359990401" lon="-0.49616837584546064"><ele>138.0</ele><time>2026-05-03T10:26:04Z</time></trkpt><trkpt lat="43.33548509726677" lon="-0.49610230275298683"><ele>138.0</ele><time>2026-05-03T10:26:05Z</time></trkpt><trkpt lat="43.3354341389441" lon="-0.496036498002215"><ele>138.0</ele><time>2026-05-03T10:26:06Z</time></trkpt><trkpt lat="43.335382586648436" lon="-0.4959703126284348"><ele>138.0</ele><time>2026-05-03T10:26:07Z</time></trkpt><trkpt lat="43.33533244308884" lon="-0.4959034717050747"><ele>138.0</ele><time>2026-05-03T10:26:08Z</time></trkpt><trkpt lat="43.33527952747245" lon="-0.49583727315489157"><ele>138.0</ele><time>2026-05-03T10:26:09Z</time></trkpt><trkpt lat="43.3352290809923" lon="-0.49577176207994017"><ele>138.0</ele><time>2026-05-03T10:26:10Z</time></trkpt><trkpt lat="43.33517742879288" lon="-0.49570290199011435"><ele>138.0</ele><time>2026-05-03T10:26:11Z</time></trkpt><trkpt lat="43.33512707182623" lon="-0.4956424195610869"><ele>138.0</ele><time>2026-05-03T10:26:12Z</time></trkpt><trkpt lat="43.3350762616167" lon="-0.49557108282906986"><ele>138.0</ele><time>2026-05-03T10:26:13Z</time></trkpt><trkpt lat="43.33502493625562" lon="-0.4955017309202313"><ele>138.0</ele><time>2026-05-03T10:26:14Z</time></trkpt><trkpt lat="43.33497355285431" lon="-0.4954330482885611"><ele>138.0</ele><time>2026-05-03T10:26:15Z</time></trkpt><trkpt lat="43.334919105230156" lon="-0.4953670063560899"><ele>138.0</ele><time>2026-05-03T10:26:16Z</time></trkpt><trkpt lat="43.33486346488899" lon="-0.4953076676053095"><ele>138.0</ele><time>2026-05-03T10:26:17Z</time></trkpt><trkpt lat="43.33481167141433" lon="-0.4952344019439587"><ele>138.0</ele><time>2026-05-03T10:26:18Z</time></trkpt><trkpt lat="43.33476362648424" lon="-0.49515895127110127"><ele>137.85714285714286</ele><time>2026-05-03T10:26:19Z</time></trkpt><trkpt lat="43.33471334521259" lon="-0.49509213015628833"><ele>137.71428571428572</ele><time>2026-05-03T10:26:20Z</time></trkpt><trkpt lat="43.3346589408688" lon="-0.4950228723644659"><ele>137.57142857142858</ele><time>2026-05-03T10:26:21Z</time></trkpt><trkpt lat="43.334608498324314" lon="-0.4949601102440878"><ele>137.42857142857144</ele><time>2026-05-03T10:26:22Z</time></trkpt><trkpt lat="43.334556199523945" lon="-0.49489077770776796"><ele>137.28571428571428</ele><time>2026-05-03T10:26:23Z</time></trkpt><trkpt lat="43.334506867043196" lon="-0.4948211328114961"><ele>137.14285714285717</ele><time>2026-05-03T10:26:24Z</time></trkpt><trkpt lat="43.33445670598597" lon="-0.49475710578117144"><ele>137.0</ele><time>2026-05-03T10:26:25Z</time></trkpt><trkpt lat="43.33440856561981" lon="-0.49468675325525246"><ele>137.00000000000003</ele><time>2026-05-03T10:26:26Z</time></trkpt><trkpt lat="43.334357027021625" lon="-0.4946204795399865"><ele>137.0</ele><time>2026-05-03T10:26:27Z</time></trkpt><trkpt lat="43.33430876892113" lon="-0.4945534548982783"><ele>137.0</ele><time>2026-05-03T10:26:28Z</time></trkpt><trkpt lat="43.334256641117484" lon="-0.49448823397207464"><ele>137.0</ele><time>2026-05-03T10:26:29Z</time></trkpt><trkpt lat="43.33420549493344" lon="-0.49441693958423794"><ele>137.0</ele><time>2026-05-03T10:26:30Z</time></trkpt><trkpt lat="43.33415861352074" lon="-0.49435096655669225"><ele>137.00000000000003</ele><time>2026-05-03T10:26:31Z</time></trkpt><trkpt lat="43.334111550513725" lon="-0.494280460362697"><ele>137.0</ele><time>2026-05-03T10:26:32Z</time></trkpt><trkpt lat="43.334057712499934" lon="-0.49421535600234706"><ele>137.14285714285717</ele><time>2026-05-03T10:26:33Z</time></trkpt><trkpt lat="43.33400917328741" lon="-0.49414814850069316"><ele>137.28571428571428</ele><time>2026-05-03T10:26:34Z</time></trkpt><trkpt lat="43.33396304870371" lon="-0.49407696151146907"><ele>137.42857142857144</ele><time>2026-05-03T10:26:35Z</time></trkpt><trkpt lat="43.33391761421715" lon="-0.4940065963990607"><ele>137.57142857142858</ele><time>2026-05-03T10:26:36Z</time></trkpt><trkpt lat="43.33386960539213" lon="-0.4939419798822092"><ele>137.71428571428572</ele><time>2026-05-03T10:26:37.001Z</time></trkpt><trkpt lat="43.33381774150309" lon="-0.4938775203996299"><ele>137.85714285714286</ele><time>2026-05-03T10:26:38.001Z</time></trkpt><trkpt lat="43.33376941483979" lon="-0.4938076062155916"><ele>138.0</ele><time>2026-05-03T10:26:39.001Z</time></trkpt><trkpt lat="43.33372129705063" lon="-0.49373884570567905"><ele>137.71428571428572</ele><time>2026-05-03T10:26:40.001Z</time></trkpt><trkpt lat="43.33367718240371" lon="-0.4936697365886"><ele>137.42857142857144</ele><time>2026-05-03T10:26:41.001Z</time></trkpt><trkpt lat="43.33363074254005" lon="-0.49359619705038266"><ele>137.14285714285714</ele><time>2026-05-03T10:26:42.001Z</time></trkpt><trkpt lat="43.333585471056175" lon="-0.4935247973869279"><ele>136.85714285714286</ele><time>2026-05-03T10:26:43.001Z</time></trkpt><trkpt lat="43.33353724952486" lon="-0.49345417416422205"><ele>136.57142857142856</ele><time>2026-05-03T10:26:44.001Z</time></trkpt><trkpt lat="43.33349291858375" lon="-0.49338081274480045"><ele>136.28571428571428</ele><time>2026-05-03T10:26:45.001Z</time></trkpt><trkpt lat="43.33344928432042" lon="-0.49330373033244174"><ele>136.0</ele><time>2026-05-03T10:26:46.001Z</time></trkpt><trkpt lat="43.333404197159076" lon="-0.4932270641358166"><ele>135.99999999999997</ele><time>2026-05-03T10:26:47.001Z</time></trkpt><trkpt lat="43.33336396968657" lon="-0.49314958556034627"><ele>136.0</ele><time>2026-05-03T10:26:48.001Z</time></trkpt><trkpt lat="43.333321816493466" lon="-0.4930718437059527"><ele>136.0</ele><time>2026-05-03T10:26:49.001Z</time></trkpt><trkpt lat="43.33327935637156" lon="-0.49299560859769304"><ele>136.0</ele><time>2026-05-03T10:26:50.001Z</time></trkpt><trkpt lat="43.33323417375017" lon="-0.4929217689351115"><ele>136.0</ele><time>2026-05-03T10:26:51.001Z</time></trkpt><trkpt lat="43.333194532451" lon="-0.4928448700843875"><ele>135.99999999999997</ele><time>2026-05-03T10:26:52.001Z</time></trkpt><trkpt lat="43.33315485217213" lon="-0.492763497779845"><ele>136.0</ele><time>2026-05-03T10:26:52.999Z</time></trkpt><trkpt lat="43.333114876347594" lon="-0.49268475165248843"><ele>136.14285714285714</ele><time>2026-05-03T10:26:53.999Z</time></trkpt><trkpt lat="43.333073380414795" lon="-0.49260667709671146"><ele>136.28571428571428</ele><time>2026-05-03T10:26:54.999Z</time></trkpt><trkpt lat="43.333035636229425" lon="-0.49252491607769666"><ele>136.42857142857144</ele><time>2026-05-03T10:26:55.999Z</time></trkpt><trkpt lat="43.332999526340174" lon="-0.49244170180967584"><ele>136.57142857142856</ele><time>2026-05-03T10:26:56.999Z</time></trkpt><trkpt lat="43.33296435389994" lon="-0.49235867843264575"><ele>136.71428571428572</ele><time>2026-05-03T10:26:57.999Z</time></trkpt><trkpt lat="43.33292926362161" lon="-0.4922740188888973"><ele>136.85714285714286</ele><time>2026-05-03T10:26:58.999Z</time></trkpt><trkpt lat="43.33289575614251" lon="-0.49219376835004314"><ele>137.0</ele><time>2026-05-03T10:26:59.999Z</time></trkpt><trkpt lat="43.33286013886318" lon="-0.4921180137512246"><ele>137.2857142857143</ele><time>2026-05-03T10:27:00.999Z</time></trkpt><trkpt lat="43.332823478977176" lon="-0.49203599412437865"><ele>137.57142857142858</ele><time>2026-05-03T10:27:01.999Z</time></trkpt><trkpt lat="43.332792612281246" lon="-0.49195325214748103"><ele>137.85714285714286</ele><time>2026-05-03T10:27:02.999Z</time></trkpt><trkpt lat="43.332760089329334" lon="-0.491867513541511"><ele>138.14285714285717</ele><time>2026-05-03T10:27:03.999Z</time></trkpt><trkpt lat="43.33272812918049" lon="-0.4917783531018562"><ele>138.42857142857144</ele><time>2026-05-03T10:27:04.999Z</time></trkpt><trkpt lat="43.33269742622437" lon="-0.491694873628592"><ele>138.71428571428572</ele><time>2026-05-03T10:27:05.999Z</time></trkpt><trkpt lat="43.3326649068368" lon="-0.49161574323592894"><ele>139.0</ele><time>2026-05-03T10:27:06.999Z</time></trkpt><trkpt lat="43.33263146580391" lon="-0.4915311527460514"><ele>139.0</ele><time>2026-05-03T10:27:07.999Z</time></trkpt><trkpt lat="43.33260326280033" lon="-0.491441154742107"><ele>139.0</ele><time>2026-05-03T10:27:09Z</time></trkpt><trkpt lat="43.33257386003467" lon="-0.49135263496631065"><ele>139.0</ele><time>2026-05-03T10:27:10Z</time></trkpt><trkpt lat="43.33254266619133" lon="-0.49126233120503515"><ele>139.0</ele><time>2026-05-03T10:27:11Z</time></trkpt><trkpt lat="43.33251472887601" lon="-0.4911761490838584"><ele>139.0</ele><time>2026-05-03T10:27:12Z</time></trkpt><trkpt lat="43.3324905559214" lon="-0.4910789057098874"><ele>139.0</ele><time>2026-05-03T10:27:13Z</time></trkpt><trkpt lat="43.33246199694996" lon="-0.49098974368287635"><ele>139.0</ele><time>2026-05-03T10:27:14Z</time></trkpt><trkpt lat="43.332433509558655" lon="-0.49090001454439636"><ele>139.0</ele><time>2026-05-03T10:27:15Z</time></trkpt><trkpt lat="43.332408720826095" lon="-0.4908102403445805"><ele>139.0</ele><time>2026-05-03T10:27:16Z</time></trkpt><trkpt lat="43.332387572866395" lon="-0.49071617347909674"><ele>139.0</ele><time>2026-05-03T10:27:17Z</time></trkpt><trkpt lat="43.33236156764113" lon="-0.49062753792912056"><ele>139.0</ele><time>2026-05-03T10:27:18Z</time></trkpt><trkpt lat="43.33233466481202" lon="-0.4905397330511904"><ele>139.0</ele><time>2026-05-03T10:27:19Z</time></trkpt><trkpt lat="43.33230936512947" lon="-0.4904470497704437"><ele>139.0</ele><time>2026-05-03T10:27:20Z</time></trkpt><trkpt lat="43.332287861956615" lon="-0.4903567672490285"><ele>139.0</ele><time>2026-05-03T10:27:21Z</time></trkpt><trkpt lat="43.332263904958985" lon="-0.4902649777531123"><ele>139.14285714285714</ele><time>2026-05-03T10:27:22Z</time></trkpt><trkpt lat="43.33223775687645" lon="-0.4901739890226406"><ele>139.28571428571428</ele><time>2026-05-03T10:27:23Z</time></trkpt><trkpt lat="43.332214661568386" lon="-0.49008220576911504"><ele>139.42857142857144</ele><time>2026-05-03T10:27:24Z</time></trkpt><trkpt lat="43.33218859382502" lon="-0.4899931834644217"><ele>139.57142857142856</ele><time>2026-05-03T10:27:25Z</time></trkpt><trkpt lat="43.332163848401954" lon="-0.48990320570098417"><ele>139.71428571428572</ele><time>2026-05-03T10:27:26Z</time></trkpt><trkpt lat="43.332144492016795" lon="-0.4898114354490836"><ele>139.85714285714286</ele><time>2026-05-03T10:27:27Z</time></trkpt><trkpt lat="43.332123693563105" lon="-0.48972068792139983"><ele>140.0</ele><time>2026-05-03T10:27:28Z</time></trkpt><trkpt lat="43.33209877381034" lon="-0.4896330544273291"><ele>139.85714285714286</ele><time>2026-05-03T10:27:29Z</time></trkpt><trkpt lat="43.332074905292615" lon="-0.48954358025978006"><ele>139.71428571428572</ele><time>2026-05-03T10:27:30Z</time></trkpt><trkpt lat="43.332054845085736" lon="-0.4894517129376161"><ele>139.57142857142856</ele><time>2026-05-03T10:27:31Z</time></trkpt><trkpt lat="43.33203450246331" lon="-0.4893613077920921"><ele>139.42857142857144</ele><time>2026-05-03T10:27:32Z</time></trkpt><trkpt lat="43.33201114443906" lon="-0.4892710304789687"><ele>139.28571428571428</ele><time>2026-05-03T10:27:33Z</time></trkpt><trkpt lat="43.33198609407751" lon="-0.48918130129967724"><ele>139.14285714285714</ele><time>2026-05-03T10:27:34Z</time></trkpt><trkpt lat="43.33196185646461" lon="-0.48909188181058105"><ele>139.0</ele><time>2026-05-03T10:27:35Z</time></trkpt><trkpt lat="43.33193987992839" lon="-0.4890009542973602"><ele>139.0</ele><time>2026-05-03T10:27:36Z</time></trkpt><trkpt lat="43.33191722801513" lon="-0.48891256988540244"><ele>139.0</ele><time>2026-05-03T10:27:37Z</time></trkpt><trkpt lat="43.33189555224265" lon="-0.48882110594281375"><ele>139.0</ele><time>2026-05-03T10:27:38Z</time></trkpt><trkpt lat="43.33187463115516" lon="-0.48873106486719725"><ele>139.0</ele><time>2026-05-03T10:27:39Z</time></trkpt><trkpt lat="43.33185196725271" lon="-0.4886403618875128"><ele>139.0</ele><time>2026-05-03T10:27:40Z</time></trkpt><trkpt lat="43.33182650121903" lon="-0.48855173429970383"><ele>139.0</ele><time>2026-05-03T10:27:41Z</time></trkpt><trkpt lat="43.33179949747258" lon="-0.48846399454406075"><ele>139.0</ele><time>2026-05-03T10:27:42Z</time></trkpt><trkpt lat="43.33178444835886" lon="-0.48836771023647574"><ele>139.0</ele><time>2026-05-03T10:27:43Z</time></trkpt><trkpt lat="43.33175745657773" lon="-0.48828312627831266"><ele>139.0</ele><time>2026-05-03T10:27:44Z</time></trkpt><trkpt lat="43.3317347799141" lon="-0.4881953169524027"><ele>139.0</ele><time>2026-05-03T10:27:45Z</time></trkpt><trkpt lat="43.33171140859725" lon="-0.4881046362997835"><ele>139.0</ele><time>2026-05-03T10:27:46Z</time></trkpt><trkpt lat="43.33169384924557" lon="-0.48801270328805346"><ele>139.0</ele><time>2026-05-03T10:27:47Z</time></trkpt><trkpt lat="43.33167338091618" lon="-0.4879227595351603"><ele>139.0</ele><time>2026-05-03T10:27:48Z</time></trkpt><trkpt lat="43.33164918824626" lon="-0.48783227756371356"><ele>139.0</ele><time>2026-05-03T10:27:49Z</time></trkpt><trkpt lat="43.33161972157667" lon="-0.48774609448507666"><ele>139.28571428571428</ele><time>2026-05-03T10:27:50Z</time></trkpt><trkpt lat="43.33159282758514" lon="-0.48765849302420194"><ele>139.57142857142858</ele><time>2026-05-03T10:27:51Z</time></trkpt><trkpt lat="43.33156689914621" lon="-0.4875690511679134"><ele>139.85714285714286</ele><time>2026-05-03T10:27:52Z</time></trkpt><trkpt lat="43.3315463848482" lon="-0.4874783122753653"><ele>140.14285714285714</ele><time>2026-05-03T10:27:53Z</time></trkpt><trkpt lat="43.33152736568975" lon="-0.4873896580751123"><ele>140.42857142857142</ele><time>2026-05-03T10:27:54Z</time></trkpt><trkpt lat="43.331503439707824" lon="-0.4873005869182962"><ele>140.71428571428572</ele><time>2026-05-03T10:27:55Z</time></trkpt><trkpt lat="43.331480857380576" lon="-0.4872115754988331"><ele>141.0</ele><time>2026-05-03T10:27:56Z</time></trkpt><trkpt lat="43.331456776338555" lon="-0.4871221151043607"><ele>141.14285714285714</ele><time>2026-05-03T10:27:57Z</time></trkpt><trkpt lat="43.331433873890106" lon="-0.48703007549117516"><ele>141.28571428571428</ele><time>2026-05-03T10:27:58Z</time></trkpt><trkpt lat="43.331408741795386" lon="-0.48693885872230086"><ele>141.42857142857142</ele><time>2026-05-03T10:27:59Z</time></trkpt><trkpt lat="43.3313831624949" lon="-0.4868480155587344"><ele>141.57142857142856</ele><time>2026-05-03T10:28:00Z</time></trkpt><trkpt lat="43.331361953020405" lon="-0.48675664503414073"><ele>141.7142857142857</ele><time>2026-05-03T10:28:01Z</time></trkpt><trkpt lat="43.33134008056856" lon="-0.48666453893157036"><ele>141.85714285714286</ele><time>2026-05-03T10:28:02Z</time></trkpt><trkpt lat="43.33131578806846" lon="-0.4865703957598652"><ele>142.0</ele><time>2026-05-03T10:28:03Z</time></trkpt><trkpt lat="43.33129249991299" lon="-0.48647687662433375"><ele>142.0</ele><time>2026-05-03T10:28:04Z</time></trkpt><trkpt lat="43.331269427521775" lon="-0.4863828475647886"><ele>142.0</ele><time>2026-05-03T10:28:05Z</time></trkpt><trkpt lat="43.33124156996837" lon="-0.4862943429993878"><ele>142.0</ele><time>2026-05-03T10:28:06Z</time></trkpt><trkpt lat="43.33121402582339" lon="-0.486203238589723"><ele>142.0</ele><time>2026-05-03T10:28:07Z</time></trkpt><trkpt lat="43.331192033116544" lon="-0.4861099442818754"><ele>142.0</ele><time>2026-05-03T10:28:08Z</time></trkpt><trkpt lat="43.33117067334696" lon="-0.4860180744156185"><ele>142.0</ele><time>2026-05-03T10:28:09Z</time></trkpt><trkpt lat="43.33114890320122" lon="-0.48592963489744373"><ele>142.0</ele><time>2026-05-03T10:28:10Z</time></trkpt><trkpt lat="43.33112799668431" lon="-0.48584518558352424"><ele>142.4</ele><time>2026-05-03T10:28:11Z</time></trkpt><trkpt lat="43.33110445684395" lon="-0.4857529950430808"><ele>142.79999999999998</ele><time>2026-05-03T10:28:12Z</time></trkpt><trkpt lat="43.33105977804154" lon="-0.48558368853291334"><ele>143.2</ele><time>2026-05-03T10:28:14Z</time></trkpt><trkpt lat="43.33103808560424" lon="-0.48549679453546973"><ele>143.6</ele><time>2026-05-03T10:28:15Z</time></trkpt><trkpt lat="43.33101210083246" lon="-0.48540828072068987"><ele>144.0</ele><time>2026-05-03T10:28:16Z</time></trkpt><trkpt lat="43.33097937813256" lon="-0.4852493595940611"><ele>144.2</ele><time>2026-05-03T10:28:18Z</time></trkpt><trkpt lat="43.330928450546885" lon="-0.48509265684469133"><ele>144.4</ele><time>2026-05-03T10:28:20Z</time></trkpt><trkpt lat="43.330885748830276" lon="-0.4849309660136871"><ele>144.6</ele><time>2026-05-03T10:28:22Z</time></trkpt><trkpt lat="43.330863104874155" lon="-0.4848484905508005"><ele>144.8</ele><time>2026-05-03T10:28:23Z</time></trkpt><trkpt lat="43.33082925022463" lon="-0.48468399394325745"><ele>145.0</ele><time>2026-05-03T10:28:25Z</time></trkpt><trkpt lat="43.33080765489572" lon="-0.484595377906696"><ele>144.6</ele><time>2026-05-03T10:28:26Z</time></trkpt><trkpt lat="43.33077102033092" lon="-0.4844218891826139"><ele>144.2</ele><time>2026-05-03T10:28:28Z</time></trkpt><trkpt lat="43.33074495223213" lon="-0.4843404534694752"><ele>143.8</ele><time>2026-05-03T10:28:29Z</time></trkpt><trkpt lat="43.33071957498534" lon="-0.48424968906104005"><ele>143.4</ele><time>2026-05-03T10:28:30Z</time></trkpt><trkpt lat="43.33067275190911" lon="-0.4840818672477975"><ele>143.0</ele><time>2026-05-03T10:28:32Z</time></trkpt><trkpt lat="43.33065003644781" lon="-0.48399083339743143"><ele>143.0</ele><time>2026-05-03T10:28:33.001Z</time></trkpt><trkpt lat="43.33062816701116" lon="-0.4839080784326992"><ele>143.0</ele><time>2026-05-03T10:28:34.001Z</time></trkpt><trkpt lat="43.330581865624936" lon="-0.48373773691383226"><ele>143.0</ele><time>2026-05-03T10:28:36.001Z</time></trkpt><trkpt lat="43.33055823542213" lon="-0.4836507369561584"><ele>143.0</ele><time>2026-05-03T10:28:37.001Z</time></trkpt><trkpt lat="43.33053486888158" lon="-0.4835637012853912"><ele>143.0</ele><time>2026-05-03T10:28:38.001Z</time></trkpt><trkpt lat="43.33051148523495" lon="-0.4834788769060323"><ele>143.0</ele><time>2026-05-03T10:28:39.001Z</time></trkpt><trkpt lat="43.3304896687155" lon="-0.48338499522040396"><ele>142.99999999999997</ele><time>2026-05-03T10:28:40.001Z</time></trkpt><trkpt lat="43.330466579509164" lon="-0.48329996978754347"><ele>143.0</ele><time>2026-05-03T10:28:41.001Z</time></trkpt><trkpt lat="43.33044483141196" lon="-0.48321321951027124"><ele>143.0</ele><time>2026-05-03T10:28:42.001Z</time></trkpt><trkpt lat="43.33042394648546" lon="-0.4831288719227384"><ele>143.0</ele><time>2026-05-03T10:28:43.001Z</time></trkpt><trkpt lat="43.33040335190943" lon="-0.48304564583824705"><ele>143.0</ele><time>2026-05-03T10:28:44.001Z</time></trkpt><trkpt lat="43.33038141511578" lon="-0.48295940373856694"><ele>142.99999999999997</ele><time>2026-05-03T10:28:45.001Z</time></trkpt><trkpt lat="43.33034519679189" lon="-0.48288368953479455"><ele>143.0</ele><time>2026-05-03T10:28:46.001Z</time></trkpt><trkpt lat="43.33033433907653" lon="-0.48279259103399613"><ele>142.99999999999997</ele><time>2026-05-03T10:28:47.001Z</time></trkpt><trkpt lat="43.33031354444452" lon="-0.4827080980909415"><ele>143.0</ele><time>2026-05-03T10:28:48.001Z</time></trkpt><trkpt lat="43.33029308077093" lon="-0.4826251140836311"><ele>143.0</ele><time>2026-05-03T10:28:49.001Z</time></trkpt><trkpt lat="43.330270845273894" lon="-0.48254186859877707"><ele>143.0</ele><time>2026-05-03T10:28:50.001Z</time></trkpt><trkpt lat="43.330245327441034" lon="-0.48245613855018704"><ele>143.0</ele><time>2026-05-03T10:28:51.001Z</time></trkpt><trkpt lat="43.33022819578977" lon="-0.4823722094196452"><ele>142.99999999999997</ele><time>2026-05-03T10:28:52.001Z</time></trkpt><trkpt lat="43.33020591261821" lon="-0.48228527033710544"><ele>143.0</ele><time>2026-05-03T10:28:53.001Z</time></trkpt><trkpt lat="43.33017873512655" lon="-0.4821964306817108"><ele>142.99999999999997</ele><time>2026-05-03T10:28:54.001Z</time></trkpt><trkpt lat="43.33015656863672" lon="-0.4821092045018877"><ele>143.0</ele><time>2026-05-03T10:28:55.001Z</time></trkpt><trkpt lat="43.3301344584836" lon="-0.4820190401654019"><ele>143.0</ele><time>2026-05-03T10:28:56.001Z</time></trkpt><trkpt lat="43.33011210052055" lon="-0.48193333603700733"><ele>143.0</ele><time>2026-05-03T10:28:57.001Z</time></trkpt><trkpt lat="43.33008940811572" lon="-0.4818450863332631"><ele>143.0</ele><time>2026-05-03T10:28:58.001Z</time></trkpt><trkpt lat="43.330069619692544" lon="-0.48175754404287346"><ele>142.99999999999997</ele><time>2026-05-03T10:28:58.999Z</time></trkpt><trkpt lat="43.330043865902965" lon="-0.48166343111597265"><ele>143.0</ele><time>2026-05-03T10:28:59.999Z</time></trkpt><trkpt lat="43.33002009322625" lon="-0.48157331582839447"><ele>142.99999999999997</ele><time>2026-05-03T10:29:00.999Z</time></trkpt><trkpt lat="43.32999611018745" lon="-0.4814824478990838"><ele>143.0</ele><time>2026-05-03T10:29:01.999Z</time></trkpt><trkpt lat="43.329973797057555" lon="-0.4813869976181326"><ele>143.0</ele><time>2026-05-03T10:29:02.999Z</time></trkpt><trkpt lat="43.32994881743797" lon="-0.48129729289263684"><ele>143.0</ele><time>2026-05-03T10:29:03.999Z</time></trkpt><trkpt lat="43.32992567740455" lon="-0.48120415962685376"><ele>143.0</ele><time>2026-05-03T10:29:04.999Z</time></trkpt><trkpt lat="43.329901057757056" lon="-0.48111318553991284"><ele>142.99999999999997</ele><time>2026-05-03T10:29:05.999Z</time></trkpt><trkpt lat="43.32987835225584" lon="-0.48102063267430184"><ele>143.0</ele><time>2026-05-03T10:29:07Z</time></trkpt><trkpt lat="43.329853661906895" lon="-0.48093056091080144"><ele>142.99999999999997</ele><time>2026-05-03T10:29:08Z</time></trkpt><trkpt lat="43.329823805645816" lon="-0.48084131087877763"><ele>143.0</ele><time>2026-05-03T10:29:09Z</time></trkpt><trkpt lat="43.32979751288619" lon="-0.48075541263296306"><ele>143.0</ele><time>2026-05-03T10:29:10Z</time></trkpt><trkpt lat="43.329776895707" lon="-0.48066449856060606"><ele>143.0</ele><time>2026-05-03T10:29:11Z</time></trkpt><trkpt lat="43.32975343830386" lon="-0.48057442418157387"><ele>143.0</ele><time>2026-05-03T10:29:12Z</time></trkpt><trkpt lat="43.329719256116846" lon="-0.48049070776876096"><ele>142.99999999999997</ele><time>2026-05-03T10:29:13Z</time></trkpt><trkpt lat="43.329689919563805" lon="-0.48040551640391393"><ele>143.0</ele><time>2026-05-03T10:29:14Z</time></trkpt><trkpt lat="43.32966367274173" lon="-0.4803183962249312"><ele>143.28571428571428</ele><time>2026-05-03T10:29:15Z</time></trkpt><trkpt lat="43.32963740774091" lon="-0.48023063858521664"><ele>143.57142857142856</ele><time>2026-05-03T10:29:16Z</time></trkpt><trkpt lat="43.3296079832712" lon="-0.4801480029362556"><ele>143.85714285714286</ele><time>2026-05-03T10:29:17Z</time></trkpt><trkpt lat="43.329579435066734" lon="-0.4800635754334725"><ele>144.14285714285714</ele><time>2026-05-03T10:29:18Z</time></trkpt><trkpt lat="43.3295492480779" lon="-0.4799823311675874"><ele>144.42857142857144</ele><time>2026-05-03T10:29:19Z</time></trkpt><trkpt lat="43.329518139508494" lon="-0.47990363418592075"><ele>144.71428571428572</ele><time>2026-05-03T10:29:20Z</time></trkpt><trkpt lat="43.32949158533745" lon="-0.4798182025993113"><ele>145.0</ele><time>2026-05-03T10:29:21Z</time></trkpt><trkpt lat="43.32946308710035" lon="-0.4797342727082237"><ele>145.0</ele><time>2026-05-03T10:29:22Z</time></trkpt><trkpt lat="43.32943320928754" lon="-0.4796512697543925"><ele>145.0</ele><time>2026-05-03T10:29:23Z</time></trkpt><trkpt lat="43.3294028436458" lon="-0.4795671213340018"><ele>145.0</ele><time>2026-05-03T10:29:24Z</time></trkpt><trkpt lat="43.32937472770474" lon="-0.4794808286814983"><ele>145.0</ele><time>2026-05-03T10:29:25Z</time></trkpt><trkpt lat="43.329345264753705" lon="-0.4793974314619082"><ele>145.0</ele><time>2026-05-03T10:29:26Z</time></trkpt><trkpt lat="43.3293137428065" lon="-0.4793155090959699"><ele>145.0</ele><time>2026-05-03T10:29:27Z</time></trkpt><trkpt lat="43.329284335492716" lon="-0.4792290846032697"><ele>145.0</ele><time>2026-05-03T10:29:28Z</time></trkpt><trkpt lat="43.329256682438796" lon="-0.47914310426168266"><ele>145.0</ele><time>2026-05-03T10:29:29Z</time></trkpt><trkpt lat="43.32922561621753" lon="-0.47905734621596696"><ele>145.0</ele><time>2026-05-03T10:29:30Z</time></trkpt><trkpt lat="43.32919219682378" lon="-0.4789771523267547"><ele>145.0</ele><time>2026-05-03T10:29:31Z</time></trkpt><trkpt lat="43.32916296705205" lon="-0.47889137597525433"><ele>145.0</ele><time>2026-05-03T10:29:32Z</time></trkpt><trkpt lat="43.32913491109777" lon="-0.47880669723366"><ele>145.0</ele><time>2026-05-03T10:29:33Z</time></trkpt><trkpt lat="43.32910873508855" lon="-0.4787188282339389"><ele>145.0</ele><time>2026-05-03T10:29:34Z</time></trkpt><trkpt lat="43.329083998354506" lon="-0.47863545011072317"><ele>145.0</ele><time>2026-05-03T10:29:35Z</time></trkpt><trkpt lat="43.32905200985279" lon="-0.4785529910982752"><ele>145.0</ele><time>2026-05-03T10:29:36Z</time></trkpt><trkpt lat="43.32902505766752" lon="-0.47846815867944176"><ele>145.0</ele><time>2026-05-03T10:29:37Z</time></trkpt><trkpt lat="43.32899557223767" lon="-0.47838616671072587"><ele>145.0</ele><time>2026-05-03T10:29:38Z</time></trkpt><trkpt lat="43.328965167152106" lon="-0.4783026739320917"><ele>145.0</ele><time>2026-05-03T10:29:39Z</time></trkpt><trkpt lat="43.32893232381456" lon="-0.4782220449389337"><ele>145.0</ele><time>2026-05-03T10:29:40Z</time></trkpt><trkpt lat="43.328902516844664" lon="-0.47814354881550597"><ele>145.0</ele><time>2026-05-03T10:29:41Z</time></trkpt><trkpt lat="43.3288743717719" lon="-0.4780604999073705"><ele>145.0</ele><time>2026-05-03T10:29:42Z</time></trkpt><trkpt lat="43.32884310188688" lon="-0.47797521901421575"><ele>145.16666666666669</ele><time>2026-05-03T10:29:43Z</time></trkpt><trkpt lat="43.32878648108812" lon="-0.47781748653460976"><ele>145.33333333333334</ele><time>2026-05-03T10:29:45Z</time></trkpt><trkpt lat="43.32875979613325" lon="-0.47773299123229435"><ele>145.5</ele><time>2026-05-03T10:29:46Z</time></trkpt><trkpt lat="43.32873358026448" lon="-0.47764581491734837"><ele>145.66666666666666</ele><time>2026-05-03T10:29:47Z</time></trkpt><trkpt lat="43.328701641827166" lon="-0.47756799971772185"><ele>145.83333333333331</ele><time>2026-05-03T10:29:48Z</time></trkpt><trkpt lat="43.32867276618064" lon="-0.4774805055329715"><ele>146.0</ele><time>2026-05-03T10:29:49Z</time></trkpt><trkpt lat="43.328645434533456" lon="-0.47740221134662797"><ele>146.0</ele><time>2026-05-03T10:29:50Z</time></trkpt><trkpt lat="43.32861440030185" lon="-0.47731916850019307"><ele>146.0</ele><time>2026-05-03T10:29:51Z</time></trkpt><trkpt lat="43.328591430207" lon="-0.4772323838511648"><ele>146.0</ele><time>2026-05-03T10:29:52Z</time></trkpt><trkpt lat="43.328565356077384" lon="-0.4771499109143579"><ele>146.0</ele><time>2026-05-03T10:29:53Z</time></trkpt><trkpt lat="43.32853406139695" lon="-0.47707057154713883"><ele>146.0</ele><time>2026-05-03T10:29:54Z</time></trkpt><trkpt lat="43.328503847965614" lon="-0.4769917203666554"><ele>146.0</ele><time>2026-05-03T10:29:55Z</time></trkpt><trkpt lat="43.32847927409103" lon="-0.47690945215967573"><ele>146.0</ele><time>2026-05-03T10:29:56Z</time></trkpt><trkpt lat="43.328421178080866" lon="-0.4767568940141262"><ele>146.0</ele><time>2026-05-03T10:29:58Z</time></trkpt><trkpt lat="43.32839202317676" lon="-0.4766784939391453"><ele>146.0</ele><time>2026-05-03T10:29:59Z</time></trkpt><trkpt lat="43.32836749547244" lon="-0.47659825865086053"><ele>146.0</ele><time>2026-05-03T10:30:00Z</time></trkpt><trkpt lat="43.32834198603016" lon="-0.4765153095677127"><ele>146.0</ele><time>2026-05-03T10:30:01Z</time></trkpt><trkpt lat="43.3283143526979" lon="-0.4764360588834796"><ele>146.0</ele><time>2026-05-03T10:30:02Z</time></trkpt><trkpt lat="43.32828526200711" lon="-0.47635768965273506"><ele>146.0</ele><time>2026-05-03T10:30:03Z</time></trkpt><trkpt lat="43.3282528520052" lon="-0.47627504659814396"><ele>146.0</ele><time>2026-05-03T10:30:04Z</time></trkpt><trkpt lat="43.328197302990176" lon="-0.4761082869309256"><ele>146.0</ele><time>2026-05-03T10:30:06Z</time></trkpt><trkpt lat="43.32817237046244" lon="-0.47602510536783826"><ele>146.0</ele><time>2026-05-03T10:30:07Z</time></trkpt><trkpt lat="43.328141276918494" lon="-0.47593952701113257"><ele>146.0</ele><time>2026-05-03T10:30:08Z</time></trkpt><trkpt lat="43.32811166068876" lon="-0.4758543405541654"><ele>146.0</ele><time>2026-05-03T10:30:09Z</time></trkpt><trkpt lat="43.32808435035826" lon="-0.4757697076834815"><ele>146.0</ele><time>2026-05-03T10:30:10Z</time></trkpt><trkpt lat="43.32805514848169" lon="-0.47569207949654513"><ele>146.0</ele><time>2026-05-03T10:30:11Z</time></trkpt><trkpt lat="43.32802933240007" lon="-0.47559864037674543"><ele>146.0</ele><time>2026-05-03T10:30:12Z</time></trkpt><trkpt lat="43.327967024393885" lon="-0.47543710488151103"><ele>146.0</ele><time>2026-05-03T10:30:14Z</time></trkpt><trkpt lat="43.32793528668673" lon="-0.4753524835756974"><ele>146.0</ele><time>2026-05-03T10:30:15Z</time></trkpt><trkpt lat="43.327906010581664" lon="-0.4752719053724212"><ele>146.0</ele><time>2026-05-03T10:30:16.001Z</time></trkpt><trkpt lat="43.32787457058386" lon="-0.4751866043854354"><ele>146.0</ele><time>2026-05-03T10:30:17.001Z</time></trkpt><trkpt lat="43.327844438528565" lon="-0.4751031002555965"><ele>146.0</ele><time>2026-05-03T10:30:18.001Z</time></trkpt><trkpt lat="43.32781543398535" lon="-0.47502209022807"><ele>146.0</ele><time>2026-05-03T10:30:19.001Z</time></trkpt><trkpt lat="43.3277850387321" lon="-0.4749362068107231"><ele>146.0</ele><time>2026-05-03T10:30:20.001Z</time></trkpt><trkpt lat="43.32775781135279" lon="-0.47485299423427374"><ele>146.0</ele><time>2026-05-03T10:30:21.001Z</time></trkpt><trkpt lat="43.327729204444374" lon="-0.4747685099905178"><ele>146.0</ele><time>2026-05-03T10:30:22.001Z</time></trkpt><trkpt lat="43.32770111246143" lon="-0.47468155317678495"><ele>146.0</ele><time>2026-05-03T10:30:23.001Z</time></trkpt><trkpt lat="43.3276717443821" lon="-0.4745936538539486"><ele>146.0</ele><time>2026-05-03T10:30:24.001Z</time></trkpt><trkpt lat="43.327610325117675" lon="-0.4744298757544644"><ele>146.0</ele><time>2026-05-03T10:30:26.001Z</time></trkpt><trkpt lat="43.327582257877204" lon="-0.4743489948093444"><ele>146.0</ele><time>2026-05-03T10:30:27.001Z</time></trkpt><trkpt lat="43.32755088011167" lon="-0.4742632398112605"><ele>146.0</ele><time>2026-05-03T10:30:28.001Z</time></trkpt><trkpt lat="43.32749565526914" lon="-0.4740870184712343"><ele>146.0</ele><time>2026-05-03T10:30:30.001Z</time></trkpt><trkpt lat="43.32746480123363" lon="-0.47400604859105727"><ele>146.0</ele><time>2026-05-03T10:30:31.001Z</time></trkpt><trkpt lat="43.32743061280301" lon="-0.4739213012709118"><ele>146.0</ele><time>2026-05-03T10:30:32.001Z</time></trkpt><trkpt lat="43.32740663942233" lon="-0.47383485473114756"><ele>146.0</ele><time>2026-05-03T10:30:33.001Z</time></trkpt><trkpt lat="43.327376564658266" lon="-0.4737538630549435"><ele>146.0</ele><time>2026-05-03T10:30:34.001Z</time></trkpt><trkpt lat="43.32734343018317" lon="-0.4736703694568701"><ele>146.0</ele><time>2026-05-03T10:30:35.001Z</time></trkpt><trkpt lat="43.32731734699138" lon="-0.4735869076089776"><ele>146.0</ele><time>2026-05-03T10:30:36.001Z</time></trkpt><trkpt lat="43.32728764286024" lon="-0.47350342718006205"><ele>146.0</ele><time>2026-05-03T10:30:37.001Z</time></trkpt><trkpt lat="43.327259105343245" lon="-0.473422077047771"><ele>146.0</ele><time>2026-05-03T10:30:38.001Z</time></trkpt><trkpt lat="43.327230291217084" lon="-0.47334345027850994"><ele>146.0</ele><time>2026-05-03T10:30:39.001Z</time></trkpt><trkpt lat="43.327200850672305" lon="-0.47326302111646495"><ele>146.0</ele><time>2026-05-03T10:30:40.001Z</time></trkpt><trkpt lat="43.32717325167436" lon="-0.4731832993636674"><ele>146.0</ele><time>2026-05-03T10:30:41.001Z</time></trkpt><trkpt lat="43.327144681668244" lon="-0.47310154760140133"><ele>145.83333333333331</ele><time>2026-05-03T10:30:42.001Z</time></trkpt><trkpt lat="43.32711832278241" lon="-0.4730189378550107"><ele>145.66666666666666</ele><time>2026-05-03T10:30:43.001Z</time></trkpt><trkpt lat="43.327085116336285" lon="-0.4729394342919403"><ele>145.5</ele><time>2026-05-03T10:30:44.001Z</time></trkpt><trkpt lat="43.327026569592235" lon="-0.4727849172346732"><ele>145.33333333333334</ele><time>2026-05-03T10:30:46.001Z</time></trkpt><trkpt lat="43.326972653071266" lon="-0.47263495984946735"><ele>145.16666666666669</ele><time>2026-05-03T10:30:48.001Z</time></trkpt><trkpt lat="43.326941264023354" lon="-0.47255201315920087"><ele>145.0</ele><time>2026-05-03T10:30:49.001Z</time></trkpt><trkpt lat="43.32691108555904" lon="-0.472472334129721"><ele>145.0</ele><time>2026-05-03T10:30:50.001Z</time></trkpt><trkpt lat="43.32687323702706" lon="-0.47240119584712237"><ele>145.0</ele><time>2026-05-03T10:30:51.001Z</time></trkpt><trkpt lat="43.326840892749466" lon="-0.47231874023431575"><ele>145.0</ele><time>2026-05-03T10:30:52.001Z</time></trkpt><trkpt lat="43.326807085963985" lon="-0.4722384163436092"><ele>145.0</ele><time>2026-05-03T10:30:53.001Z</time></trkpt><trkpt lat="43.32677426816643" lon="-0.4721600339945874"><ele>145.0</ele><time>2026-05-03T10:30:54.001Z</time></trkpt><trkpt lat="43.32674181144063" lon="-0.4720794990949394"><ele>145.0</ele><time>2026-05-03T10:30:55.001Z</time></trkpt><trkpt lat="43.326703924540986" lon="-0.47200668588051664"><ele>145.0</ele><time>2026-05-03T10:30:56.001Z</time></trkpt><trkpt lat="43.32667248801969" lon="-0.4719317092354657"><ele>145.28571428571428</ele><time>2026-05-03T10:30:57.001Z</time></trkpt><trkpt lat="43.32663837018323" lon="-0.47185841802001877"><ele>145.57142857142858</ele><time>2026-05-03T10:30:58.001Z</time></trkpt><trkpt lat="43.32660294930389" lon="-0.4717835450879359"><ele>145.85714285714286</ele><time>2026-05-03T10:30:59.001Z</time></trkpt><trkpt lat="43.32656884960665" lon="-0.4717090746820168"><ele>146.14285714285714</ele><time>2026-05-03T10:31:00.001Z</time></trkpt><trkpt lat="43.32653436764499" lon="-0.4716357694361297"><ele>146.42857142857144</ele><time>2026-05-03T10:31:01.001Z</time></trkpt><trkpt lat="43.32649946522176" lon="-0.4715603169779569"><ele>146.71428571428572</ele><time>2026-05-03T10:31:02.001Z</time></trkpt><trkpt lat="43.32646372795578" lon="-0.4714840181067506"><ele>147.0</ele><time>2026-05-03T10:31:03.001Z</time></trkpt><trkpt lat="43.32642614245685" lon="-0.4714079785527467"><ele>146.79999999999998</ele><time>2026-05-03T10:31:04.001Z</time></trkpt><trkpt lat="43.3263853540149" lon="-0.4713352225858802"><ele>146.6</ele><time>2026-05-03T10:31:05Z</time></trkpt><trkpt lat="43.32632156655004" lon="-0.4711999456678359"><ele>146.39999999999998</ele><time>2026-05-03T10:31:07Z</time></trkpt><trkpt lat="43.326247874231015" lon="-0.47107391522392367"><ele>146.2</ele><time>2026-05-03T10:31:09Z</time></trkpt><trkpt lat="43.32619018012625" lon="-0.47097882231921295"><ele>146.0</ele><time>2026-05-03T10:31:11Z</time></trkpt><trkpt lat="43.326129968967635" lon="-0.4708750678199411"><ele>146.4</ele><time>2026-05-03T10:31:13Z</time></trkpt><trkpt lat="43.326065847317004" lon="-0.47076451987958284"><ele>146.8</ele><time>2026-05-03T10:31:15Z</time></trkpt><trkpt lat="43.325978819290675" lon="-0.4706919243214893"><ele>147.20000000000002</ele><time>2026-05-03T10:31:17Z</time></trkpt><trkpt lat="43.32587662826599" lon="-0.47064155815336484"><ele>147.6</ele><time>2026-05-03T10:31:19Z</time></trkpt><trkpt lat="43.32579119053017" lon="-0.47054818791308656"><ele>148.0</ele><time>2026-05-03T10:31:21Z</time></trkpt><trkpt lat="43.3257228771676" lon="-0.4704110302230416"><ele>148.0</ele><time>2026-05-03T10:31:23Z</time></trkpt><trkpt lat="43.32571782346631" lon="-0.4702492650919657"><ele>148.0</ele><time>2026-05-03T10:31:25Z</time></trkpt><trkpt lat="43.32575691773724" lon="-0.4700881881789879"><ele>148.0</ele><time>2026-05-03T10:31:27Z</time></trkpt><trkpt lat="43.325788378390136" lon="-0.4700090720453671"><ele>148.0</ele><time>2026-05-03T10:31:28Z</time></trkpt><trkpt lat="43.32583267239413" lon="-0.4699394371158942"><ele>148.0</ele><time>2026-05-03T10:31:29Z</time></trkpt><trkpt lat="43.325883909294454" lon="-0.46988346115388047"><ele>148.0</ele><time>2026-05-03T10:31:30Z</time></trkpt><trkpt lat="43.32594582549249" lon="-0.4698454234228619"><ele>148.0</ele><time>2026-05-03T10:31:31Z</time></trkpt><trkpt lat="43.32600823207234" lon="-0.4698214739201034"><ele>148.0</ele><time>2026-05-03T10:31:32Z</time></trkpt><trkpt lat="43.326077756852634" lon="-0.4698168990841618"><ele>148.0</ele><time>2026-05-03T10:31:33Z</time></trkpt><trkpt lat="43.326148421093315" lon="-0.4698232975064574"><ele>148.0</ele><time>2026-05-03T10:31:34Z</time></trkpt><trkpt lat="43.32621454768158" lon="-0.4698131303458336"><ele>148.0</ele><time>2026-05-03T10:31:35Z</time></trkpt><trkpt lat="43.326279405684815" lon="-0.4697823067658174"><ele>148.0</ele><time>2026-05-03T10:31:36Z</time></trkpt><trkpt lat="43.32633579864589" lon="-0.46971176098674966"><ele>148.0</ele><time>2026-05-03T10:31:37Z</time></trkpt><trkpt lat="43.326383163387845" lon="-0.4696466058146762"><ele>148.5</ele><time>2026-05-03T10:31:38Z</time></trkpt><trkpt lat="43.326443762073104" lon="-0.4695908313376351"><ele>149.0</ele><time>2026-05-03T10:31:39Z</time></trkpt><trkpt lat="43.326503408367664" lon="-0.4695436659106726"><ele>149.5</ele><time>2026-05-03T10:31:40Z</time></trkpt><trkpt lat="43.326582550001326" lon="-0.46956096298989836"><ele>150.0</ele><time>2026-05-03T10:31:41Z</time></trkpt><trkpt lat="43.32664305054475" lon="-0.4695364576677937"><ele>150.5</ele><time>2026-05-03T10:31:42Z</time></trkpt><trkpt lat="43.326705917522105" lon="-0.4695089171799084"><ele>151.0</ele><time>2026-05-03T10:31:43Z</time></trkpt><trkpt lat="43.326746908656794" lon="-0.4693770095434834"><ele>151.0</ele><time>2026-05-03T10:31:44Z</time></trkpt><trkpt lat="43.32680741150769" lon="-0.46934022668938385"><ele>151.0</ele><time>2026-05-03T10:31:45Z</time></trkpt><trkpt lat="43.32686656416572" lon="-0.4693040592986286"><ele>151.0</ele><time>2026-05-03T10:31:46Z</time></trkpt><trkpt lat="43.326927538507874" lon="-0.46927392271406326"><ele>151.0</ele><time>2026-05-03T10:31:47Z</time></trkpt><trkpt lat="43.32703424316286" lon="-0.4692031899847802"><ele>151.0</ele><time>2026-05-03T10:31:49Z</time></trkpt><trkpt lat="43.32709858922284" lon="-0.4691688099489003"><ele>151.0</ele><time>2026-05-03T10:31:50Z</time></trkpt><trkpt lat="43.32716067474483" lon="-0.4691334348648582"><ele>150.5</ele><time>2026-05-03T10:31:51Z</time></trkpt><trkpt lat="43.327278870333046" lon="-0.46907591355857053"><ele>150.0</ele><time>2026-05-03T10:31:53Z</time></trkpt><trkpt lat="43.327339158985026" lon="-0.4690431761648487"><ele>149.5</ele><time>2026-05-03T10:31:54Z</time></trkpt><trkpt lat="43.32739767626416" lon="-0.46900611645643275"><ele>149.0</ele><time>2026-05-03T10:31:55Z</time></trkpt><trkpt lat="43.32745564584381" lon="-0.4689607954850064"><ele>148.5</ele><time>2026-05-03T10:31:56Z</time></trkpt><trkpt lat="43.32757054365734" lon="-0.4688846384307378"><ele>148.0</ele><time>2026-05-03T10:31:58Z</time></trkpt><trkpt lat="43.327633727041025" lon="-0.4688459926287923"><ele>148.6</ele><time>2026-05-03T10:31:59Z</time></trkpt><trkpt lat="43.3277442050267" lon="-0.4687701666583552"><ele>149.20000000000002</ele><time>2026-05-03T10:32:01Z</time></trkpt><trkpt lat="43.327796971418714" lon="-0.468714187047114"><ele>149.8</ele><time>2026-05-03T10:32:02Z</time></trkpt><trkpt lat="43.327857568289105" lon="-0.4686722728229859"><ele>150.4</ele><time>2026-05-03T10:32:03Z</time></trkpt><trkpt lat="43.327969701074416" lon="-0.4685771670296849"><ele>151.0</ele><time>2026-05-03T10:32:05Z</time></trkpt><trkpt lat="43.32802260357863" lon="-0.4685243199624336"><ele>150.83333333333334</ele><time>2026-05-03T10:32:06Z</time></trkpt><trkpt lat="43.328128509833455" lon="-0.46842041643812043"><ele>150.66666666666669</ele><time>2026-05-03T10:32:08Z</time></trkpt><trkpt lat="43.32818295463047" lon="-0.4683699986983295"><ele>150.5</ele><time>2026-05-03T10:32:09Z</time></trkpt><trkpt lat="43.328278237683875" lon="-0.4682831382969278"><ele>150.33333333333334</ele><time>2026-05-03T10:32:11Z</time></trkpt><trkpt lat="43.328329645218425" lon="-0.46822087422019393"><ele>150.16666666666666</ele><time>2026-05-03T10:32:12Z</time></trkpt><trkpt lat="43.32838405871195" lon="-0.4681660404523206"><ele>150.0</ele><time>2026-05-03T10:32:13Z</time></trkpt><trkpt lat="43.32843603199005" lon="-0.4681104477602173"><ele>149.99999999999997</ele><time>2026-05-03T10:32:14Z</time></trkpt><trkpt lat="43.32848679728446" lon="-0.4680559665702802"><ele>150.0</ele><time>2026-05-03T10:32:15Z</time></trkpt><trkpt lat="43.32854229401902" lon="-0.46800207147667733"><ele>150.0</ele><time>2026-05-03T10:32:16Z</time></trkpt><trkpt lat="43.3285929457539" lon="-0.46795044611223974"><ele>150.0</ele><time>2026-05-03T10:32:17.001Z</time></trkpt><trkpt lat="43.32864115584245" lon="-0.46788483575099343"><ele>150.0</ele><time>2026-05-03T10:32:18.001Z</time></trkpt><trkpt lat="43.32869369862448" lon="-0.46783097512378635"><ele>149.99999999999997</ele><time>2026-05-03T10:32:19.001Z</time></trkpt><trkpt lat="43.32874794049538" lon="-0.4677759939241488"><ele>150.0</ele><time>2026-05-03T10:32:20.001Z</time></trkpt><trkpt lat="43.32884460706405" lon="-0.4676677973851999"><ele>150.16666666666666</ele><time>2026-05-03T10:32:22.001Z</time></trkpt><trkpt lat="43.328897860879295" lon="-0.46761094107998463"><ele>150.33333333333334</ele><time>2026-05-03T10:32:23.001Z</time></trkpt><trkpt lat="43.32895113429071" lon="-0.467553589197409"><ele>150.5</ele><time>2026-05-03T10:32:24.001Z</time></trkpt><trkpt lat="43.32900412205125" lon="-0.4674952719173607"><ele>150.66666666666669</ele><time>2026-05-03T10:32:25.001Z</time></trkpt><trkpt lat="43.329056791808505" lon="-0.4674398980847525"><ele>150.83333333333334</ele><time>2026-05-03T10:32:26.001Z</time></trkpt><trkpt lat="43.32911164785866" lon="-0.4673875405535281"><ele>151.0</ele><time>2026-05-03T10:32:27.001Z</time></trkpt><trkpt lat="43.32922140425469" lon="-0.4672751359374612"><ele>151.0</ele><time>2026-05-03T10:32:29.001Z</time></trkpt><trkpt lat="43.32927446056831" lon="-0.4672129833084183"><ele>151.0</ele><time>2026-05-03T10:32:30.001Z</time></trkpt><trkpt lat="43.329325838109526" lon="-0.46715020765862664"><ele>151.0</ele><time>2026-05-03T10:32:31.001Z</time></trkpt><trkpt lat="43.32942640307843" lon="-0.4670515643151682"><ele>151.0</ele><time>2026-05-03T10:32:33.001Z</time></trkpt><trkpt lat="43.32952613550344" lon="-0.4669449645187657"><ele>151.0</ele><time>2026-05-03T10:32:35.001Z</time></trkpt><trkpt lat="43.32957726726431" lon="-0.4668919571519351"><ele>151.2</ele><time>2026-05-03T10:32:36.001Z</time></trkpt><trkpt lat="43.32967312257127" lon="-0.46678216197211847"><ele>151.39999999999998</ele><time>2026-05-03T10:32:38.001Z</time></trkpt><trkpt lat="43.32972833180193" lon="-0.4667356554777841"><ele>151.6</ele><time>2026-05-03T10:32:39.001Z</time></trkpt><trkpt lat="43.32982217527329" lon="-0.46662850718916704"><ele>151.79999999999998</ele><time>2026-05-03T10:32:41.001Z</time></trkpt><trkpt lat="43.3299119914963" lon="-0.4665223726974193"><ele>152.0</ele><time>2026-05-03T10:32:43.001Z</time></trkpt><trkpt lat="43.330003934398576" lon="-0.46642891178351914"><ele>151.5</ele><time>2026-05-03T10:32:45.001Z</time></trkpt><trkpt lat="43.330093625236586" lon="-0.4663299204297275"><ele>151.0</ele><time>2026-05-03T10:32:47.001Z</time></trkpt><trkpt lat="43.33018639047485" lon="-0.4662350627945454"><ele>150.5</ele><time>2026-05-03T10:32:49.001Z</time></trkpt><trkpt lat="43.33028573284977" lon="-0.4661457182632829"><ele>150.0</ele><time>2026-05-03T10:32:51.001Z</time></trkpt><trkpt lat="43.3303858505593" lon="-0.4660592002343795"><ele>150.0</ele><time>2026-05-03T10:32:53.001Z</time></trkpt><trkpt lat="43.33048713281487" lon="-0.46596640116404414"><ele>150.0</ele><time>2026-05-03T10:32:55.001Z</time></trkpt><trkpt lat="43.330593000319276" lon="-0.46588290679671823"><ele>150.0</ele><time>2026-05-03T10:32:57.001Z</time></trkpt><trkpt lat="43.33064754791015" lon="-0.4658370068667055"><ele>150.0</ele><time>2026-05-03T10:32:58.001Z</time></trkpt><trkpt lat="43.33075220824355" lon="-0.46575328956581963"><ele>150.0</ele><time>2026-05-03T10:33:00.001Z</time></trkpt><trkpt lat="43.33081018236066" lon="-0.46571854445218547"><ele>149.66666666666666</ele><time>2026-05-03T10:33:01.001Z</time></trkpt><trkpt lat="43.33086588025594" lon="-0.4656756484941826"><ele>149.33333333333334</ele><time>2026-05-03T10:33:02.001Z</time></trkpt><trkpt lat="43.33097421959173" lon="-0.4656004243922351"><ele>149.0</ele><time>2026-05-03T10:33:04.001Z</time></trkpt><trkpt lat="43.33103173431459" lon="-0.46556029508989"><ele>148.66666666666669</ele><time>2026-05-03T10:33:05.001Z</time></trkpt><trkpt lat="43.33114049166867" lon="-0.46547891016221254"><ele>148.33333333333334</ele><time>2026-05-03T10:33:07.001Z</time></trkpt><trkpt lat="43.33119506632683" lon="-0.46543387563254"><ele>148.0</ele><time>2026-05-03T10:33:08.001Z</time></trkpt><trkpt lat="43.33125086987936" lon="-0.46539297462944457"><ele>147.6</ele><time>2026-05-03T10:33:09.001Z</time></trkpt><trkpt lat="43.33136010287675" lon="-0.46531456576387786"><ele>147.20000000000002</ele><time>2026-05-03T10:33:11Z</time></trkpt><trkpt lat="43.33141682026763" lon="-0.4652750676234837"><ele>146.8</ele><time>2026-05-03T10:33:12Z</time></trkpt><trkpt lat="43.3315255989172" lon="-0.46518827555920267"><ele>146.4</ele><time>2026-05-03T10:33:14Z</time></trkpt><trkpt lat="43.33162936070957" lon="-0.46511070862401394"><ele>146.0</ele><time>2026-05-03T10:33:16Z</time></trkpt><trkpt lat="43.3317395962341" lon="-0.46503087556982414"><ele>146.0</ele><time>2026-05-03T10:33:18Z</time></trkpt><trkpt lat="43.331846379197266" lon="-0.46494745764054635"><ele>146.0</ele><time>2026-05-03T10:33:20Z</time></trkpt><trkpt lat="43.33195719100934" lon="-0.4648662458699082"><ele>146.0</ele><time>2026-05-03T10:33:22Z</time></trkpt><trkpt lat="43.33206570677245" lon="-0.4647800162656712"><ele>146.0</ele><time>2026-05-03T10:33:24Z</time></trkpt><trkpt lat="43.33217391589025" lon="-0.46469744649935646"><ele>146.5</ele><time>2026-05-03T10:33:26Z</time></trkpt><trkpt lat="43.332280450161" lon="-0.46461252769719635"><ele>147.0</ele><time>2026-05-03T10:33:28Z</time></trkpt><trkpt lat="43.33238721191059" lon="-0.4645308006068163"><ele>147.5</ele><time>2026-05-03T10:33:30Z</time></trkpt><trkpt lat="43.33249264048774" lon="-0.46444718387411676"><ele>148.0</ele><time>2026-05-03T10:33:32Z</time></trkpt><trkpt lat="43.33259637128195" lon="-0.4643579008052527"><ele>148.0</ele><time>2026-05-03T10:33:34Z</time></trkpt><trkpt lat="43.33265077285037" lon="-0.4643135284477807"><ele>148.0</ele><time>2026-05-03T10:33:35Z</time></trkpt><trkpt lat="43.33270406274776" lon="-0.4642630760169334"><ele>148.0</ele><time>2026-05-03T10:33:36Z</time></trkpt><trkpt lat="43.33275732154383" lon="-0.46420867902822666"><ele>148.0</ele><time>2026-05-03T10:33:37Z</time></trkpt><trkpt lat="43.332810019082295" lon="-0.4641526290791054"><ele>148.0</ele><time>2026-05-03T10:33:38Z</time></trkpt><trkpt lat="43.33286343055279" lon="-0.464093570366142"><ele>148.0</ele><time>2026-05-03T10:33:39Z</time></trkpt><trkpt lat="43.33291535359586" lon="-0.4640358153660989"><ele>148.0</ele><time>2026-05-03T10:33:40Z</time></trkpt><trkpt lat="43.33296850794375" lon="-0.46397780030621083"><ele>148.0</ele><time>2026-05-03T10:33:41Z</time></trkpt><trkpt lat="43.333019518743384" lon="-0.4639153033724082"><ele>148.0</ele><time>2026-05-03T10:33:42Z</time></trkpt><trkpt lat="43.33307365603582" lon="-0.46385127638253876"><ele>148.0</ele><time>2026-05-03T10:33:43Z</time></trkpt><trkpt lat="43.33312821456841" lon="-0.4637895281364192"><ele>148.0</ele><time>2026-05-03T10:33:44Z</time></trkpt><trkpt lat="43.333183128455964" lon="-0.463727615594045"><ele>148.0</ele><time>2026-05-03T10:33:45Z</time></trkpt><trkpt lat="43.33323885884841" lon="-0.46366106983539523"><ele>148.0</ele><time>2026-05-03T10:33:46Z</time></trkpt><trkpt lat="43.33329192219997" lon="-0.4635936078867226"><ele>148.0</ele><time>2026-05-03T10:33:47Z</time></trkpt><trkpt lat="43.333345956602244" lon="-0.46352814484277827"><ele>148.16666666666669</ele><time>2026-05-03T10:33:48Z</time></trkpt><trkpt lat="43.33340547286745" lon="-0.4634593785004673"><ele>148.33333333333334</ele><time>2026-05-03T10:33:49Z</time></trkpt><trkpt lat="43.33346358296714" lon="-0.46339067226396785"><ele>148.5</ele><time>2026-05-03T10:33:50Z</time></trkpt><trkpt lat="43.3335186366112" lon="-0.463320589879245"><ele>148.66666666666666</ele><time>2026-05-03T10:33:51Z</time></trkpt><trkpt lat="43.333576242781525" lon="-0.46325413926128517"><ele>148.83333333333331</ele><time>2026-05-03T10:33:52Z</time></trkpt><trkpt lat="43.333635837821554" lon="-0.4631880910785261"><ele>149.0</ele><time>2026-05-03T10:33:53Z</time></trkpt><trkpt lat="43.33369256174878" lon="-0.4631182604901266"><ele>149.0</ele><time>2026-05-03T10:33:54Z</time></trkpt><trkpt lat="43.33375113158814" lon="-0.463048927555603"><ele>149.0</ele><time>2026-05-03T10:33:55Z</time></trkpt><trkpt lat="43.33380602250466" lon="-0.4629752101829665"><ele>149.0</ele><time>2026-05-03T10:33:56Z</time></trkpt><trkpt lat="43.33386593802142" lon="-0.46290564465612305"><ele>149.0</ele><time>2026-05-03T10:33:57Z</time></trkpt><trkpt lat="43.33398579259402" lon="-0.462765514768303"><ele>149.0</ele><time>2026-05-03T10:33:59Z</time></trkpt><trkpt lat="43.33404568740065" lon="-0.46269160131539483"><ele>148.66666666666666</ele><time>2026-05-03T10:34:00Z</time></trkpt><trkpt lat="43.33410790641266" lon="-0.46261966280135364"><ele>148.33333333333331</ele><time>2026-05-03T10:34:01Z</time></trkpt><trkpt lat="43.334171328887905" lon="-0.46254773690178747"><ele>148.0</ele><time>2026-05-03T10:34:02Z</time></trkpt><trkpt lat="43.334234755891465" lon="-0.4624769889980721"><ele>147.66666666666666</ele><time>2026-05-03T10:34:03Z</time></trkpt><trkpt lat="43.33429702625796" lon="-0.4624053907728919"><ele>147.33333333333334</ele><time>2026-05-03T10:34:04Z</time></trkpt><trkpt lat="43.33435943868221" lon="-0.46233408353865424"><ele>147.0</ele><time>2026-05-03T10:34:05Z</time></trkpt><trkpt lat="43.33442478661407" lon="-0.46226390995799943"><ele>147.0</ele><time>2026-05-03T10:34:06Z</time></trkpt><trkpt lat="43.334488985440025" lon="-0.4621925444111554"><ele>147.0</ele><time>2026-05-03T10:34:07Z</time></trkpt><trkpt lat="43.334550470470546" lon="-0.46211967444038454"><ele>147.0</ele><time>2026-05-03T10:34:08Z</time></trkpt><trkpt lat="43.334617580178374" lon="-0.4620525885138188"><ele>147.0</ele><time>2026-05-03T10:34:09Z</time></trkpt><trkpt lat="43.334682361117274" lon="-0.4619860084658998"><ele>147.0</ele><time>2026-05-03T10:34:10Z</time></trkpt><trkpt lat="43.334747674997416" lon="-0.46191819522242306"><ele>147.0</ele><time>2026-05-03T10:34:11Z</time></trkpt><trkpt lat="43.33481308954779" lon="-0.46185102927152666"><ele>146.83333333333334</ele><time>2026-05-03T10:34:12.001Z</time></trkpt><trkpt lat="43.334880063340115" lon="-0.46178890929028843"><ele>146.66666666666666</ele><time>2026-05-03T10:34:13.001Z</time></trkpt><trkpt lat="43.33494799622553" lon="-0.4617209462910289"><ele>146.5</ele><time>2026-05-03T10:34:14.001Z</time></trkpt><trkpt lat="43.335015654980275" lon="-0.4616604327791384"><ele>146.33333333333331</ele><time>2026-05-03T10:34:15.001Z</time></trkpt><trkpt lat="43.335084535296936" lon="-0.4615959329634253"><ele>146.16666666666666</ele><time>2026-05-03T10:34:16.001Z</time></trkpt><trkpt lat="43.335152322641775" lon="-0.4615330822235803"><ele>146.0</ele><time>2026-05-03T10:34:17.001Z</time></trkpt><trkpt lat="43.33522263095566" lon="-0.4614730252808935"><ele>146.0</ele><time>2026-05-03T10:34:18.001Z</time></trkpt><trkpt lat="43.33529693274916" lon="-0.4614117526575689"><ele>146.0</ele><time>2026-05-03T10:34:19.001Z</time></trkpt><trkpt lat="43.335375596117785" lon="-0.4613417920380905"><ele>146.0</ele><time>2026-05-03T10:34:20.001Z</time></trkpt><trkpt lat="43.33543179061661" lon="-0.46129269640180426"><ele>146.0</ele><time>2026-05-03T10:34:21.001Z</time></trkpt><trkpt lat="43.33549773875479" lon="-0.46124339353393107"><ele>146.0</ele><time>2026-05-03T10:34:22.001Z</time></trkpt><trkpt lat="43.3355644487211" lon="-0.46118086219383186"><ele>146.0</ele><time>2026-05-03T10:34:23.001Z</time></trkpt><trkpt lat="43.33563332257597" lon="-0.4611259862084157"><ele>146.0</ele><time>2026-05-03T10:34:24.001Z</time></trkpt><trkpt lat="43.33569897062297" lon="-0.4610727876256356"><ele>146.0</ele><time>2026-05-03T10:34:25.001Z</time></trkpt><trkpt lat="43.33576562860689" lon="-0.4610229297288128"><ele>146.0</ele><time>2026-05-03T10:34:26.001Z</time></trkpt><trkpt lat="43.33583381108466" lon="-0.46097831561407115"><ele>146.0</ele><time>2026-05-03T10:34:27.001Z</time></trkpt><trkpt lat="43.335896526266424" lon="-0.4609310036155356"><ele>146.0</ele><time>2026-05-03T10:34:28.001Z</time></trkpt><trkpt lat="43.33596187966054" lon="-0.4608869990741577"><ele>146.0</ele><time>2026-05-03T10:34:29.001Z</time></trkpt><trkpt lat="43.336046216828876" lon="-0.46088366888356275"><ele>146.0</ele><time>2026-05-03T10:34:30.001Z</time></trkpt><trkpt lat="43.33610281277694" lon="-0.4608308297006906"><ele>146.0</ele><time>2026-05-03T10:34:31.001Z</time></trkpt><trkpt lat="43.336162323335536" lon="-0.4607746515473915"><ele>146.0</ele><time>2026-05-03T10:34:32.001Z</time></trkpt><trkpt lat="43.33621113960717" lon="-0.46070133142643"><ele>146.0</ele><time>2026-05-03T10:34:33.001Z</time></trkpt><trkpt lat="43.33627232024691" lon="-0.4606579167947924"><ele>146.0</ele><time>2026-05-03T10:34:34.001Z</time></trkpt><trkpt lat="43.33632829236447" lon="-0.4605993519947521"><ele>146.0</ele><time>2026-05-03T10:34:35.001Z</time></trkpt><trkpt lat="43.33638268496813" lon="-0.4605489963232673"><ele>146.0</ele><time>2026-05-03T10:34:36.001Z</time></trkpt><trkpt lat="43.33646500507119" lon="-0.4604144482734794"><ele>145.83333333333331</ele><time>2026-05-03T10:34:38.001Z</time></trkpt><trkpt lat="43.336493789497716" lon="-0.46033160031052106"><ele>145.66666666666666</ele><time>2026-05-03T10:34:39.001Z</time></trkpt><trkpt lat="43.33651453163834" lon="-0.4602494869191115"><ele>145.5</ele><time>2026-05-03T10:34:40.001Z</time></trkpt><trkpt lat="43.33655470413076" lon="-0.46010291972556633"><ele>145.33333333333334</ele><time>2026-05-03T10:34:42.001Z</time></trkpt><trkpt lat="43.33650778282587" lon="-0.45998610533794315"><ele>145.16666666666669</ele><time>2026-05-03T10:34:43.001Z</time></trkpt><trkpt lat="43.33647881472513" lon="-0.45990321381256805"><ele>145.0</ele><time>2026-05-03T10:34:44.001Z</time></trkpt><trkpt lat="43.33644785648095" lon="-0.4598210310056433"><ele>145.0</ele><time>2026-05-03T10:34:45.001Z</time></trkpt><trkpt lat="43.33641828034919" lon="-0.4597396306819028"><ele>145.0</ele><time>2026-05-03T10:34:46.001Z</time></trkpt><trkpt lat="43.33639008242005" lon="-0.4596506437255566"><ele>145.0</ele><time>2026-05-03T10:34:47.001Z</time></trkpt><trkpt lat="43.33633992847632" lon="-0.45949051594834206"><ele>145.0</ele><time>2026-05-03T10:34:49.001Z</time></trkpt><trkpt lat="43.33629991028234" lon="-0.45933323930996595"><ele>145.0</ele><time>2026-05-03T10:34:51.001Z</time></trkpt><trkpt lat="43.336266754253145" lon="-0.459170797539141"><ele>144.75</ele><time>2026-05-03T10:34:53.001Z</time></trkpt><trkpt lat="43.33622463494305" lon="-0.459017548066837"><ele>144.5</ele><time>2026-05-03T10:34:55.001Z</time></trkpt><trkpt lat="43.336176660931876" lon="-0.45886939475279387"><ele>144.25</ele><time>2026-05-03T10:34:57.001Z</time></trkpt><trkpt lat="43.33611129721857" lon="-0.45873088998592815"><ele>144.0</ele><time>2026-05-03T10:34:59.001Z</time></trkpt><trkpt lat="43.336034706347625" lon="-0.45859910034645984"><ele>144.00000000000003</ele><time>2026-05-03T10:35:01.001Z</time></trkpt><trkpt lat="43.335993707345025" lon="-0.45853141610182585"><ele>144.0</ele><time>2026-05-03T10:35:02.001Z</time></trkpt><trkpt lat="43.33595272633844" lon="-0.45846451442096203"><ele>144.0</ele><time>2026-05-03T10:35:03.001Z</time></trkpt><trkpt lat="43.33591431492811" lon="-0.45839444255505263"><ele>144.0</ele><time>2026-05-03T10:35:04.001Z</time></trkpt><trkpt lat="43.33584311349359" lon="-0.4582486060408625"><ele>144.0</ele><time>2026-05-03T10:35:06.001Z</time></trkpt><trkpt lat="43.33580274337581" lon="-0.45818061891821293"><ele>144.00000000000003</ele><time>2026-05-03T10:35:07.001Z</time></trkpt><trkpt lat="43.33576130805807" lon="-0.45811073883884823"><ele>144.0</ele><time>2026-05-03T10:35:08.001Z</time></trkpt><trkpt lat="43.33572052767786" lon="-0.4580378484142236"><ele>144.00000000000003</ele><time>2026-05-03T10:35:09.001Z</time></trkpt><trkpt lat="43.3356812105654" lon="-0.4579657811960454"><ele>144.0</ele><time>2026-05-03T10:35:10.001Z</time></trkpt><trkpt lat="43.335642023870456" lon="-0.4578921912155448"><ele>144.0</ele><time>2026-05-03T10:35:11.001Z</time></trkpt><trkpt lat="43.33560426420797" lon="-0.45781928419411266"><ele>144.0</ele><time>2026-05-03T10:35:12.001Z</time></trkpt><trkpt lat="43.33556418146504" lon="-0.45774808464950656"><ele>144.0</ele><time>2026-05-03T10:35:13.001Z</time></trkpt><trkpt lat="43.335522561940586" lon="-0.457679083990776"><ele>144.00000000000003</ele><time>2026-05-03T10:35:14.001Z</time></trkpt><trkpt lat="43.33548258850304" lon="-0.457610197746793"><ele>144.0</ele><time>2026-05-03T10:35:15.001Z</time></trkpt><trkpt lat="43.3354436193388" lon="-0.45753281467455004"><ele>144.83333333333334</ele><time>2026-05-03T10:35:16.001Z</time></trkpt><trkpt lat="43.33540562017022" lon="-0.4574587467391223"><ele>145.66666666666666</ele><time>2026-05-03T10:35:17Z</time></trkpt><trkpt lat="43.33536425200034" lon="-0.4573893267422189"><ele>146.5</ele><time>2026-05-03T10:35:18Z</time></trkpt><trkpt lat="43.3353256932375" lon="-0.4573138084661734"><ele>147.33333333333331</ele><time>2026-05-03T10:35:19Z</time></trkpt><trkpt lat="43.33524658153554" lon="-0.45716801420915637"><ele>148.16666666666666</ele><time>2026-05-03T10:35:21Z</time></trkpt><trkpt lat="43.33520585926242" lon="-0.4570932082705579"><ele>149.0</ele><time>2026-05-03T10:35:22Z</time></trkpt><trkpt lat="43.33516817947651" lon="-0.4570197366041113"><ele>149.0</ele><time>2026-05-03T10:35:23Z</time></trkpt><trkpt lat="43.33512648688613" lon="-0.4569503457432633"><ele>149.0</ele><time>2026-05-03T10:35:24Z</time></trkpt><trkpt lat="43.335088142172474" lon="-0.456876126381559"><ele>149.0</ele><time>2026-05-03T10:35:25Z</time></trkpt><trkpt lat="43.33504797047905" lon="-0.45680358813787464"><ele>149.0</ele><time>2026-05-03T10:35:26Z</time></trkpt><trkpt lat="43.33501025351076" lon="-0.45673236518896915"><ele>149.0</ele><time>2026-05-03T10:35:27Z</time></trkpt><trkpt lat="43.33497029809515" lon="-0.4566616457813309"><ele>149.0</ele><time>2026-05-03T10:35:28Z</time></trkpt><trkpt lat="43.334929476031235" lon="-0.4565904901070776"><ele>149.0</ele><time>2026-05-03T10:35:29Z</time></trkpt><trkpt lat="43.33485544163103" lon="-0.4564462767291691"><ele>149.0</ele><time>2026-05-03T10:35:31Z</time></trkpt><trkpt lat="43.33481589878916" lon="-0.45637840241369987"><ele>149.0</ele><time>2026-05-03T10:35:32Z</time></trkpt><trkpt lat="43.33477823853599" lon="-0.4563068335468901"><ele>149.0</ele><time>2026-05-03T10:35:33Z</time></trkpt><trkpt lat="43.33473763868433" lon="-0.4562332011061371"><ele>149.0</ele><time>2026-05-03T10:35:34Z</time></trkpt><trkpt lat="43.334699983382755" lon="-0.4561620912331861"><ele>149.0</ele><time>2026-05-03T10:35:35Z</time></trkpt><trkpt lat="43.33466197487436" lon="-0.4560926256790298"><ele>149.0</ele><time>2026-05-03T10:35:36Z</time></trkpt><trkpt lat="43.33462263001831" lon="-0.4560239579462044"><ele>149.0</ele><time>2026-05-03T10:35:37Z</time></trkpt><trkpt lat="43.33455174393106" lon="-0.455892830812138"><ele>148.75</ele><time>2026-05-03T10:35:39Z</time></trkpt><trkpt lat="43.33447698712902" lon="-0.45576099144622134"><ele>148.5</ele><time>2026-05-03T10:35:41Z</time></trkpt><trkpt lat="43.33441377256437" lon="-0.45562840673545346"><ele>148.25</ele><time>2026-05-03T10:35:43Z</time></trkpt><trkpt lat="43.33434074086091" lon="-0.4555009187554256"><ele>148.0</ele><time>2026-05-03T10:35:45Z</time></trkpt><trkpt lat="43.334272917046945" lon="-0.45536611241276304"><ele>148.0</ele><time>2026-05-03T10:35:47Z</time></trkpt><trkpt lat="43.33420302293156" lon="-0.4552386511677502"><ele>148.0</ele><time>2026-05-03T10:35:49Z</time></trkpt><trkpt lat="43.33413231914573" lon="-0.45511419054488783"><ele>148.0</ele><time>2026-05-03T10:35:51Z</time></trkpt><trkpt lat="43.33406282647732" lon="-0.45498635610596105"><ele>148.0</ele><time>2026-05-03T10:35:53Z</time></trkpt><trkpt lat="43.333991924252324" lon="-0.45485077862879736"><ele>148.0</ele><time>2026-05-03T10:35:55Z</time></trkpt><trkpt lat="43.33391747221185" lon="-0.4547189650028668"><ele>148.0</ele><time>2026-05-03T10:35:57Z</time></trkpt><trkpt lat="43.3338441658992" lon="-0.45458579419327544"><ele>148.0</ele><time>2026-05-03T10:35:59Z</time></trkpt><trkpt lat="43.333770046515276" lon="-0.4544484572215182"><ele>148.0</ele><time>2026-05-03T10:36:01Z</time></trkpt><trkpt lat="43.33369520776342" lon="-0.45431069158182885"><ele>148.75</ele><time>2026-05-03T10:36:03Z</time></trkpt><trkpt lat="43.33361639919364" lon="-0.45417501440450736"><ele>149.5</ele><time>2026-05-03T10:36:05Z</time></trkpt><trkpt lat="43.333543959359865" lon="-0.45403710924078006"><ele>150.25</ele><time>2026-05-03T10:36:07Z</time></trkpt><trkpt lat="43.33346886119676" lon="-0.45390173731269956"><ele>151.0</ele><time>2026-05-03T10:36:09Z</time></trkpt><trkpt lat="43.33340181011147" lon="-0.4537620125136246"><ele>151.75</ele><time>2026-05-03T10:36:11Z</time></trkpt><trkpt lat="43.333335889698176" lon="-0.45363386518990123"><ele>152.5</ele><time>2026-05-03T10:36:13Z</time></trkpt><trkpt lat="43.33326842991152" lon="-0.45350381863314443"><ele>153.25</ele><time>2026-05-03T10:36:15Z</time></trkpt><trkpt lat="43.33319982867822" lon="-0.45337075980138253"><ele>154.0</ele><time>2026-05-03T10:36:17Z</time></trkpt><trkpt lat="43.333130681084654" lon="-0.4532399347194789"><ele>154.0</ele><time>2026-05-03T10:36:19.001Z</time></trkpt><trkpt lat="43.33314002698288" lon="-0.4530491483739211"><ele>154.0</ele><time>2026-05-03T10:36:21.001Z</time></trkpt><trkpt lat="43.33316559271682" lon="-0.4528752331603059"><ele>154.0</ele><time>2026-05-03T10:36:23.001Z</time></trkpt><trkpt lat="43.33320251817315" lon="-0.4527161113845317"><ele>154.0</ele><time>2026-05-03T10:36:25.001Z</time></trkpt><trkpt lat="43.333213205553996" lon="-0.45262579926339563"><ele>154.5</ele><time>2026-05-03T10:36:26.001Z</time></trkpt><trkpt lat="43.333242085369605" lon="-0.45245652942055115"><ele>155.0</ele><time>2026-05-03T10:36:28.001Z</time></trkpt><trkpt lat="43.33325580152161" lon="-0.45237030049136967"><ele>155.5</ele><time>2026-05-03T10:36:29.001Z</time></trkpt><trkpt lat="43.33327355862575" lon="-0.45228602424555925"><ele>156.0</ele><time>2026-05-03T10:36:30.001Z</time></trkpt><trkpt lat="43.333299422450665" lon="-0.45211947998538876"><ele>156.5</ele><time>2026-05-03T10:36:32.001Z</time></trkpt><trkpt lat="43.33331379756724" lon="-0.45203255729668246"><ele>157.0</ele><time>2026-05-03T10:36:33.001Z</time></trkpt><trkpt lat="43.333336567756376" lon="-0.45192447005913094"><ele>157.0</ele><time>2026-05-03T10:36:34.001Z</time></trkpt><trkpt lat="43.333348467399375" lon="-0.4517765748409629"><ele>157.0</ele><time>2026-05-03T10:36:36.001Z</time></trkpt><trkpt lat="43.33336090661454" lon="-0.4516856419282991"><ele>157.0</ele><time>2026-05-03T10:36:37.001Z</time></trkpt><trkpt lat="43.33337588463145" lon="-0.451518138583341"><ele>157.0</ele><time>2026-05-03T10:36:39.001Z</time></trkpt><trkpt lat="43.333388508350055" lon="-0.45143077021553896"><ele>157.0</ele><time>2026-05-03T10:36:40.001Z</time></trkpt><trkpt lat="43.33339690942892" lon="-0.45126248212115333"><ele>156.2</ele><time>2026-05-03T10:36:42.001Z</time></trkpt><trkpt lat="43.333397939224405" lon="-0.4511756414318064"><ele>155.39999999999998</ele><time>2026-05-03T10:36:43.001Z</time></trkpt><trkpt lat="43.333402276429005" lon="-0.45100678466502625"><ele>154.60000000000002</ele><time>2026-05-03T10:36:45.001Z</time></trkpt><trkpt lat="43.333405619494926" lon="-0.45084239069848414"><ele>153.8</ele><time>2026-05-03T10:36:47.001Z</time></trkpt><trkpt lat="43.33341670232986" lon="-0.45067856742510354"><ele>153.0</ele><time>2026-05-03T10:36:49.001Z</time></trkpt><trkpt lat="43.33341848642458" lon="-0.4505214017400239"><ele>152.75</ele><time>2026-05-03T10:36:51.001Z</time></trkpt><trkpt lat="43.33341143128159" lon="-0.45036174282557523"><ele>152.5</ele><time>2026-05-03T10:36:53.001Z</time></trkpt><trkpt lat="43.33341745226867" lon="-0.45020452707688036"><ele>152.25</ele><time>2026-05-03T10:36:55.001Z</time></trkpt><trkpt lat="43.33341843536387" lon="-0.4500399123994454"><ele>152.0</ele><time>2026-05-03T10:36:57.001Z</time></trkpt><trkpt lat="43.33343129862666" lon="-0.44988237902999495"><ele>152.0</ele><time>2026-05-03T10:36:59.001Z</time></trkpt><trkpt lat="43.333428740801885" lon="-0.449794524226239"><ele>152.0</ele><time>2026-05-03T10:37:00.001Z</time></trkpt><trkpt lat="43.33342566561519" lon="-0.4497050883579108"><ele>152.0</ele><time>2026-05-03T10:37:01.001Z</time></trkpt><trkpt lat="43.33341874182791" lon="-0.44953657405149977"><ele>152.0</ele><time>2026-05-03T10:37:03.001Z</time></trkpt><trkpt lat="43.3334157263384" lon="-0.4494492438096991"><ele>152.0</ele><time>2026-05-03T10:37:04.001Z</time></trkpt><trkpt lat="43.3334090517068" lon="-0.4493623535237592"><ele>152.0</ele><time>2026-05-03T10:37:05.001Z</time></trkpt><trkpt lat="43.33339466936635" lon="-0.44919808262052696"><ele>152.0</ele><time>2026-05-03T10:37:07.001Z</time></trkpt><trkpt lat="43.33339050666115" lon="-0.4490297253225631"><ele>152.0</ele><time>2026-05-03T10:37:09.001Z</time></trkpt><trkpt lat="43.333384890847185" lon="-0.44893601775096287"><ele>152.0</ele><time>2026-05-03T10:37:10.001Z</time></trkpt><trkpt lat="43.3333836989665" lon="-0.44877920038086255"><ele>152.0</ele><time>2026-05-03T10:37:12.001Z</time></trkpt><trkpt lat="43.33338523537738" lon="-0.4486211035962878"><ele>152.0</ele><time>2026-05-03T10:37:14.001Z</time></trkpt><trkpt lat="43.33338381120532" lon="-0.4484684536538917"><ele>151.83333333333331</ele><time>2026-05-03T10:37:16.001Z</time></trkpt><trkpt lat="43.333386553386575" lon="-0.4483120713990666"><ele>151.66666666666666</ele><time>2026-05-03T10:37:18.001Z</time></trkpt><trkpt lat="43.33338795743379" lon="-0.44822546281435527"><ele>151.5</ele><time>2026-05-03T10:37:19.001Z</time></trkpt><trkpt lat="43.33338441783965" lon="-0.44804658275362114"><ele>151.33333333333334</ele><time>2026-05-03T10:37:21.001Z</time></trkpt><trkpt lat="43.333382994833784" lon="-0.4479534635070635"><ele>151.16666666666669</ele><time>2026-05-03T10:37:22.001Z</time></trkpt><trkpt lat="43.33338350820458" lon="-0.4478602623360069"><ele>151.0</ele><time>2026-05-03T10:37:22.999Z</time></trkpt><trkpt lat="43.33338637009032" lon="-0.44776787866543705"><ele>150.85714285714286</ele><time>2026-05-03T10:37:23.999Z</time></trkpt><trkpt lat="43.333386313837934" lon="-0.4476755829774722"><ele>150.71428571428572</ele><time>2026-05-03T10:37:25Z</time></trkpt><trkpt lat="43.33339111287272" lon="-0.44757947891157474"><ele>150.57142857142856</ele><time>2026-05-03T10:37:26Z</time></trkpt><trkpt lat="43.33339324308199" lon="-0.44748819150921254"><ele>150.42857142857144</ele><time>2026-05-03T10:37:27Z</time></trkpt><trkpt lat="43.33339325077006" lon="-0.4473944413516627"><ele>150.28571428571428</ele><time>2026-05-03T10:37:28Z</time></trkpt><trkpt lat="43.333392028494764" lon="-0.4473015815732398"><ele>150.14285714285714</ele><time>2026-05-03T10:37:29Z</time></trkpt><trkpt lat="43.3333966744803" lon="-0.44720778043176096"><ele>150.0</ele><time>2026-05-03T10:37:30Z</time></trkpt><trkpt lat="43.33339692782711" lon="-0.4471144343318862"><ele>150.4</ele><time>2026-05-03T10:37:31Z</time></trkpt><trkpt lat="43.3333968501887" lon="-0.4469388282519812"><ele>150.8</ele><time>2026-05-03T10:37:33Z</time></trkpt><trkpt lat="43.333395677116556" lon="-0.4468516336310253"><ele>151.2</ele><time>2026-05-03T10:37:34Z</time></trkpt><trkpt lat="43.333411293573675" lon="-0.44667400795935963"><ele>151.6</ele><time>2026-05-03T10:37:36Z</time></trkpt><trkpt lat="43.333427687152984" lon="-0.44651165392658326"><ele>152.0</ele><time>2026-05-03T10:37:38Z</time></trkpt><trkpt lat="43.33344609428962" lon="-0.44635116339771846"><ele>152.25</ele><time>2026-05-03T10:37:40Z</time></trkpt><trkpt lat="43.33345390995262" lon="-0.44618954595484084"><ele>152.5</ele><time>2026-05-03T10:37:42Z</time></trkpt><trkpt lat="43.33347155114204" lon="-0.44603026769391607"><ele>152.75</ele><time>2026-05-03T10:37:44Z</time></trkpt><trkpt lat="43.33348409153708" lon="-0.44586541714750433"><ele>153.0</ele><time>2026-05-03T10:37:46Z</time></trkpt><trkpt lat="43.33349549304055" lon="-0.4456902432933607"><ele>153.0</ele><time>2026-05-03T10:37:48Z</time></trkpt><trkpt lat="43.33351020643844" lon="-0.44552361616157216"><ele>153.0</ele><time>2026-05-03T10:37:50Z</time></trkpt><trkpt lat="43.33351556285781" lon="-0.44535278393338673"><ele>153.0</ele><time>2026-05-03T10:37:52Z</time></trkpt><trkpt lat="43.333505397915026" lon="-0.44518154503261187"><ele>153.0</ele><time>2026-05-03T10:37:54Z</time></trkpt><trkpt lat="43.33348119215395" lon="-0.4450200378371086"><ele>153.0</ele><time>2026-05-03T10:37:56Z</time></trkpt><trkpt lat="43.3334598325082" lon="-0.4449361151404255"><ele>153.0</ele><time>2026-05-03T10:37:57Z</time></trkpt><trkpt lat="43.3334239554045" lon="-0.4447683681241455"><ele>153.0</ele><time>2026-05-03T10:37:59Z</time></trkpt><trkpt lat="43.33340558551771" lon="-0.4446813726972316"><ele>153.0</ele><time>2026-05-03T10:38:00Z</time></trkpt><trkpt lat="43.33338819191687" lon="-0.44459564270135665"><ele>153.0</ele><time>2026-05-03T10:38:01Z</time></trkpt><trkpt lat="43.33337065285192" lon="-0.4445079100728171"><ele>153.0</ele><time>2026-05-03T10:38:02Z</time></trkpt><trkpt lat="43.33335221587698" lon="-0.4444217371499161"><ele>153.0</ele><time>2026-05-03T10:38:03Z</time></trkpt><trkpt lat="43.33334340322906" lon="-0.44433026346631377"><ele>153.0</ele><time>2026-05-03T10:38:04Z</time></trkpt><trkpt lat="43.33332685264844" lon="-0.44423904515916407"><ele>153.0</ele><time>2026-05-03T10:38:05Z</time></trkpt><trkpt lat="43.33330948456823" lon="-0.44414739667204584"><ele>153.0</ele><time>2026-05-03T10:38:06Z</time></trkpt><trkpt lat="43.33328937887793" lon="-0.44405724773515176"><ele>153.0</ele><time>2026-05-03T10:38:07Z</time></trkpt><trkpt lat="43.33327226375288" lon="-0.4439614650282469"><ele>153.0</ele><time>2026-05-03T10:38:08Z</time></trkpt><trkpt lat="43.33325163849162" lon="-0.44387103562418273"><ele>153.0</ele><time>2026-05-03T10:38:09Z</time></trkpt><trkpt lat="43.33323249519134" lon="-0.4437790372939457"><ele>152.71428571428572</ele><time>2026-05-03T10:38:10Z</time></trkpt><trkpt lat="43.333213298508866" lon="-0.44368967813228494"><ele>152.42857142857144</ele><time>2026-05-03T10:38:11Z</time></trkpt><trkpt lat="43.3332060447447" lon="-0.4435977454526277"><ele>152.14285714285717</ele><time>2026-05-03T10:38:12Z</time></trkpt><trkpt lat="43.333196641572826" lon="-0.44350091453475327"><ele>151.85714285714286</ele><time>2026-05-03T10:38:13Z</time></trkpt><trkpt lat="43.333180402984354" lon="-0.4434134972373045"><ele>151.57142857142858</ele><time>2026-05-03T10:38:14Z</time></trkpt><trkpt lat="43.333167578778486" lon="-0.44332160804094806"><ele>151.2857142857143</ele><time>2026-05-03T10:38:15Z</time></trkpt><trkpt lat="43.333158215939605" lon="-0.4432316909936168"><ele>151.0</ele><time>2026-05-03T10:38:16Z</time></trkpt><trkpt lat="43.33315079343149" lon="-0.4431431715980515"><ele>151.0</ele><time>2026-05-03T10:38:17Z</time></trkpt><trkpt lat="43.33314357320379" lon="-0.44305539419591616"><ele>151.0</ele><time>2026-05-03T10:38:18Z</time></trkpt><trkpt lat="43.3331347483703" lon="-0.4429685521567647"><ele>151.0</ele><time>2026-05-03T10:38:19Z</time></trkpt><trkpt lat="43.33312635995966" lon="-0.44288088832762545"><ele>151.0</ele><time>2026-05-03T10:38:20.001Z</time></trkpt><trkpt lat="43.333106710137024" lon="-0.44271635033365325"><ele>151.0</ele><time>2026-05-03T10:38:22.001Z</time></trkpt><trkpt lat="43.3330905027756" lon="-0.44255738810418516"><ele>151.0</ele><time>2026-05-03T10:38:24.001Z</time></trkpt><trkpt lat="43.333072116374495" lon="-0.4424054263582864"><ele>151.8</ele><time>2026-05-03T10:38:26.001Z</time></trkpt><trkpt lat="43.333043982966295" lon="-0.44227068426945565"><ele>152.6</ele><time>2026-05-03T10:38:28.001Z</time></trkpt><trkpt lat="43.33301880536095" lon="-0.4421468196184574"><ele>153.4</ele><time>2026-05-03T10:38:30.001Z</time></trkpt><trkpt lat="43.332939131684455" lon="-0.4420986545700195"><ele>154.2</ele><time>2026-05-03T10:38:32.001Z</time></trkpt><trkpt lat="43.33289427309428" lon="-0.4421842244463489"><ele>155.0</ele><time>2026-05-03T10:38:33.001Z</time></trkpt><trkpt lat="43.33280188854999" lon="-0.4421729719051781"><ele>155.0</ele><time>2026-05-03T10:38:35.001Z</time></trkpt><trkpt lat="43.3326941985378" lon="-0.44222736376257255"><ele>155.0</ele><time>2026-05-03T10:38:37.001Z</time></trkpt><trkpt lat="43.3325774955129" lon="-0.44221595785907414"><ele>155.0</ele><time>2026-05-03T10:38:39.001Z</time></trkpt><trkpt lat="43.33251346457022" lon="-0.44219667462612594"><ele>155.0</ele><time>2026-05-03T10:38:40.001Z</time></trkpt><trkpt lat="43.33240079163834" lon="-0.44213170728888834"><ele>155.0</ele><time>2026-05-03T10:38:42.001Z</time></trkpt><trkpt lat="43.33229848691206" lon="-0.4420501944053183"><ele>155.2</ele><time>2026-05-03T10:38:44.001Z</time></trkpt><trkpt lat="43.33219342515145" lon="-0.44196136104146044"><ele>155.4</ele><time>2026-05-03T10:38:46.001Z</time></trkpt><trkpt lat="43.33213650429601" lon="-0.4419090707225923"><ele>155.6</ele><time>2026-05-03T10:38:47.001Z</time></trkpt><trkpt lat="43.332041839727786" lon="-0.4418197768547697"><ele>155.8</ele><time>2026-05-03T10:38:49.001Z</time></trkpt><trkpt lat="43.331938352922776" lon="-0.4417420653494803"><ele>156.0</ele><time>2026-05-03T10:38:51.001Z</time></trkpt><trkpt lat="43.33188072987974" lon="-0.4416800028989386"><ele>156.0</ele><time>2026-05-03T10:38:52.001Z</time></trkpt><trkpt lat="43.331825245224046" lon="-0.4416365393710803"><ele>156.0</ele><time>2026-05-03T10:38:53.001Z</time></trkpt><trkpt lat="43.33176506702347" lon="-0.44159554702914655"><ele>156.0</ele><time>2026-05-03T10:38:54.001Z</time></trkpt><trkpt lat="43.33171132807119" lon="-0.4415473941500937"><ele>156.0</ele><time>2026-05-03T10:38:55.001Z</time></trkpt><trkpt lat="43.331655044523366" lon="-0.44150157283164726"><ele>156.0</ele><time>2026-05-03T10:38:56.001Z</time></trkpt><trkpt lat="43.331540245246096" lon="-0.44141884113051727"><ele>156.0</ele><time>2026-05-03T10:38:58.001Z</time></trkpt><trkpt lat="43.33148703736794" lon="-0.4413671276700946"><ele>156.0</ele><time>2026-05-03T10:38:59.001Z</time></trkpt><trkpt lat="43.33143070112167" lon="-0.4413273424356947"><ele>156.0</ele><time>2026-05-03T10:39:00.001Z</time></trkpt><trkpt lat="43.3313772122842" lon="-0.44128161898898854"><ele>156.0</ele><time>2026-05-03T10:39:01.001Z</time></trkpt><trkpt lat="43.331273892093094" lon="-0.44119517366661704"><ele>156.0</ele><time>2026-05-03T10:39:03.001Z</time></trkpt><trkpt lat="43.33121998723191" lon="-0.44114639250502596"><ele>156.0</ele><time>2026-05-03T10:39:04.001Z</time></trkpt><trkpt lat="43.331119605813576" lon="-0.44106774508289853"><ele>156.0</ele><time>2026-05-03T10:39:06.001Z</time></trkpt><trkpt lat="43.331065962390724" lon="-0.44102116190136775"><ele>155.5</ele><time>2026-05-03T10:39:07.001Z</time></trkpt><trkpt lat="43.33097648553856" lon="-0.4409096033960489"><ele>155.0</ele><time>2026-05-03T10:39:09.001Z</time></trkpt><trkpt lat="43.3308874106823" lon="-0.4408097402773275"><ele>154.5</ele><time>2026-05-03T10:39:11.001Z</time></trkpt><trkpt lat="43.33079798462178" lon="-0.44071227214089725"><ele>154.0</ele><time>2026-05-03T10:39:13.001Z</time></trkpt><trkpt lat="43.33070860211725" lon="-0.44061361623908346"><ele>154.0</ele><time>2026-05-03T10:39:15.001Z</time></trkpt><trkpt lat="43.33062512797657" lon="-0.44053897374361095"><ele>154.0</ele><time>2026-05-03T10:39:17.001Z</time></trkpt><trkpt lat="43.330548915156925" lon="-0.44048304908816355"><ele>154.0</ele><time>2026-05-03T10:39:19.001Z</time></trkpt><trkpt lat="43.33047926508154" lon="-0.44043194012876496"><ele>154.0</ele><time>2026-05-03T10:39:21.001Z</time></trkpt><trkpt lat="43.330414642148746" lon="-0.4403845200378102"><ele>154.0</ele><time>2026-05-03T10:39:23.002Z</time></trkpt><trkpt lat="43.33048435670027" lon="-0.44009585105466137"><ele>154.25</ele><time>2026-05-03T10:39:24.002Z</time></trkpt><trkpt lat="43.330458041921915" lon="-0.4399512505707787"><ele>154.5</ele><time>2026-05-03T10:39:26.002Z</time></trkpt><trkpt lat="43.3304123258424" lon="-0.43981231872316695"><ele>154.75</ele><time>2026-05-03T10:39:28.002Z</time></trkpt><trkpt lat="43.3303709099198" lon="-0.4396660450962981"><ele>155.0</ele><time>2026-05-03T10:39:30Z</time></trkpt><trkpt lat="43.33033052647766" lon="-0.4395163069686848"><ele>155.0</ele><time>2026-05-03T10:39:32Z</time></trkpt><trkpt lat="43.330285850583245" lon="-0.4393678979693824"><ele>155.0</ele><time>2026-05-03T10:39:34Z</time></trkpt><trkpt lat="43.33023170140953" lon="-0.4392430458669193"><ele>155.0</ele><time>2026-05-03T10:39:36Z</time></trkpt><trkpt lat="43.3301881355425" lon="-0.4391265517051283"><ele>155.0</ele><time>2026-05-03T10:39:38Z</time></trkpt><trkpt lat="43.33014593589841" lon="-0.43900320999479087"><ele>155.0</ele><time>2026-05-03T10:39:40Z</time></trkpt><trkpt lat="43.330095834446205" lon="-0.4388719511251681"><ele>155.2</ele><time>2026-05-03T10:39:42Z</time></trkpt><trkpt lat="43.33004742169368" lon="-0.4387457860062608"><ele>155.4</ele><time>2026-05-03T10:39:44Z</time></trkpt><trkpt lat="43.32999980848243" lon="-0.4386243197217275"><ele>155.6</ele><time>2026-05-03T10:39:46Z</time></trkpt><trkpt lat="43.329950287823415" lon="-0.43851018789894924"><ele>155.8</ele><time>2026-05-03T10:39:48Z</time></trkpt><trkpt lat="43.32989787861031" lon="-0.43839212696655244"><ele>156.0</ele><time>2026-05-03T10:39:50Z</time></trkpt><trkpt lat="43.32984122808291" lon="-0.4382605057742267"><ele>156.0</ele><time>2026-05-03T10:39:52Z</time></trkpt><trkpt lat="43.32978467510852" lon="-0.43812463472598534"><ele>156.0</ele><time>2026-05-03T10:39:54Z</time></trkpt><trkpt lat="43.329732366229855" lon="-0.43799072228216146"><ele>156.0</ele><time>2026-05-03T10:39:56Z</time></trkpt><trkpt lat="43.329678285728065" lon="-0.4378565814627071"><ele>156.0</ele><time>2026-05-03T10:39:58Z</time></trkpt><trkpt lat="43.329630936135125" lon="-0.43772557336748263"><ele>156.0</ele><time>2026-05-03T10:40:00Z</time></trkpt><trkpt lat="43.32958144780118" lon="-0.43760166295430636"><ele>156.0</ele><time>2026-05-03T10:40:02Z</time></trkpt><trkpt lat="43.32953127153406" lon="-0.43749676840151464"><ele>156.0</ele><time>2026-05-03T10:40:04Z</time></trkpt><trkpt lat="43.32949455515531" lon="-0.43740410186013784"><ele>156.0</ele><time>2026-05-03T10:40:06Z</time></trkpt><trkpt lat="43.32946661929145" lon="-0.4373046896988081"><ele>156.0</ele><time>2026-05-03T10:40:10Z</time></trkpt><trkpt lat="43.3295161107973" lon="-0.43723937986576306"><ele>156.0</ele><time>2026-05-03T10:40:12Z</time></trkpt><trkpt lat="43.32959251879292" lon="-0.43720604521404105"><ele>156.0</ele><time>2026-05-03T10:40:14Z</time></trkpt><trkpt lat="43.32967394835535" lon="-0.4371521836016674"><ele>156.0</ele><time>2026-05-03T10:40:16Z</time></trkpt><trkpt lat="43.32975858860295" lon="-0.4371044746078619"><ele>156.0</ele><time>2026-05-03T10:40:18Z</time></trkpt><trkpt lat="43.32984588214277" lon="-0.43706564951985116"><ele>156.0</ele><time>2026-05-03T10:40:20Z</time></trkpt><trkpt lat="43.329922387150596" lon="-0.43703701113399523"><ele>156.0</ele><time>2026-05-03T10:40:22Z</time></trkpt><trkpt lat="43.33001177780828" lon="-0.4370009824320392"><ele>156.0</ele><time>2026-05-03T10:40:24.001Z</time></trkpt><trkpt lat="43.330083006479406" lon="-0.4369688639033244"><ele>156.0</ele><time>2026-05-03T10:40:25.001Z</time></trkpt><trkpt lat="43.330199912694205" lon="-0.43690273161037213"><ele>156.0</ele><time>2026-05-03T10:40:27.001Z</time></trkpt><trkpt lat="43.33031217116144" lon="-0.43684616907993007"><ele>156.0</ele><time>2026-05-03T10:40:29.001Z</time></trkpt><trkpt lat="43.33037399170244" lon="-0.4368151523825932"><ele>156.0</ele><time>2026-05-03T10:40:30.001Z</time></trkpt><trkpt lat="43.33043861775161" lon="-0.4367882811799659"><ele>156.0</ele><time>2026-05-03T10:40:31.001Z</time></trkpt><trkpt lat="43.330548388986294" lon="-0.4367638305547182"><ele>156.0</ele><time>2026-05-03T10:40:33.001Z</time></trkpt><trkpt lat="43.33063555207593" lon="-0.43674301886414046"><ele>156.0</ele><time>2026-05-03T10:40:35.001Z</time></trkpt><trkpt lat="43.33063320787497" lon="-0.4366339257428604"><ele>156.0</ele><time>2026-05-03T10:40:37.001Z</time></trkpt><trkpt lat="43.33060963472833" lon="-0.4365168006336349"><ele>156.0</ele><time>2026-05-03T10:40:39.001Z</time></trkpt><trkpt lat="43.33060432294282" lon="-0.4364073259136565"><ele>156.0</ele><time>2026-05-03T10:40:41.001Z</time></trkpt><trkpt lat="43.33058946934306" lon="-0.4362849788047501"><ele>156.0</ele><time>2026-05-03T10:40:43.001Z</time></trkpt><trkpt lat="43.330574933102916" lon="-0.4361579812667016"><ele>156.0</ele><time>2026-05-03T10:40:45.001Z</time></trkpt><trkpt lat="43.33056195484224" lon="-0.43602396083237527"><ele>156.0</ele><time>2026-05-03T10:40:47.001Z</time></trkpt><trkpt lat="43.33054981855669" lon="-0.4358912027585216"><ele>156.0</ele><time>2026-05-03T10:40:49.001Z</time></trkpt><trkpt lat="43.33056159806172" lon="-0.4357388741106406"><ele>156.0</ele><time>2026-05-03T10:40:51.001Z</time></trkpt><trkpt lat="43.33056327528703" lon="-0.4355750111529382"><ele>156.0</ele><time>2026-05-03T10:40:53.001Z</time></trkpt><trkpt lat="43.33056468007736" lon="-0.4354155614300304"><ele>156.0</ele><time>2026-05-03T10:40:55.001Z</time></trkpt><trkpt lat="43.33056525784032" lon="-0.43532798666065764"><ele>156.0</ele><time>2026-05-03T10:40:56.001Z</time></trkpt><trkpt lat="43.33056859299378" lon="-0.4351592867641016"><ele>156.0</ele><time>2026-05-03T10:40:58.001Z</time></trkpt><trkpt lat="43.330578949345835" lon="-0.4349906966776857"><ele>156.0</ele><time>2026-05-03T10:41:00.001Z</time></trkpt><trkpt lat="43.33057141855827" lon="-0.43490364360802697"><ele>156.0</ele><time>2026-05-03T10:41:01.001Z</time></trkpt><trkpt lat="43.33056749765781" lon="-0.4348134425749549"><ele>156.0</ele><time>2026-05-03T10:41:02.001Z</time></trkpt><trkpt lat="43.33056834602553" lon="-0.4347260941706999"><ele>156.0</ele><time>2026-05-03T10:41:03.001Z</time></trkpt><trkpt lat="43.3305707391016" lon="-0.4346365519532465"><ele>156.0</ele><time>2026-05-03T10:41:04.001Z</time></trkpt><trkpt lat="43.33056869113348" lon="-0.4345454276851141"><ele>156.0</ele><time>2026-05-03T10:41:05.001Z</time></trkpt><trkpt lat="43.33056666688786" lon="-0.4344540064967928"><ele>156.0</ele><time>2026-05-03T10:41:06.001Z</time></trkpt><trkpt lat="43.33056872404763" lon="-0.4343607067942786"><ele>156.0</ele><time>2026-05-03T10:41:07.001Z</time></trkpt><trkpt lat="43.33057074476564" lon="-0.43427120915044987"><ele>156.0</ele><time>2026-05-03T10:41:08.001Z</time></trkpt><trkpt lat="43.330571789397254" lon="-0.43417765304952466"><ele>156.0</ele><time>2026-05-03T10:41:09.001Z</time></trkpt><trkpt lat="43.33057167176719" lon="-0.43408681969402635"><ele>156.0</ele><time>2026-05-03T10:41:10.001Z</time></trkpt><trkpt lat="43.330571279894166" lon="-0.43399338919712377"><ele>156.0</ele><time>2026-05-03T10:41:11.001Z</time></trkpt><trkpt lat="43.33057707376705" lon="-0.43381797263495203"><ele>156.0</ele><time>2026-05-03T10:41:13.001Z</time></trkpt><trkpt lat="43.330573284153296" lon="-0.4337244233332048"><ele>156.0</ele><time>2026-05-03T10:41:14.001Z</time></trkpt><trkpt lat="43.33057516910039" lon="-0.4336351457843475"><ele>156.0</ele><time>2026-05-03T10:41:15.001Z</time></trkpt><trkpt lat="43.33057624181635" lon="-0.4334573779078674"><ele>156.0</ele><time>2026-05-03T10:41:17.001Z</time></trkpt><trkpt lat="43.33057291098742" lon="-0.43336690671025363"><ele>155.85714285714286</ele><time>2026-05-03T10:41:18.001Z</time></trkpt><trkpt lat="43.33057479388523" lon="-0.4332776236227401"><ele>155.7142857142857</ele><time>2026-05-03T10:41:19.001Z</time></trkpt><trkpt lat="43.33057969011519" lon="-0.43318650122884406"><ele>155.57142857142856</ele><time>2026-05-03T10:41:20.001Z</time></trkpt><trkpt lat="43.33058665352681" lon="-0.4330953666525156"><ele>155.42857142857144</ele><time>2026-05-03T10:41:21.001Z</time></trkpt><trkpt lat="43.33058953558693" lon="-0.4330087709901068"><ele>155.28571428571428</ele><time>2026-05-03T10:41:22.001Z</time></trkpt><trkpt lat="43.33059596712122" lon="-0.43291870902008006"><ele>155.14285714285714</ele><time>2026-05-03T10:41:23.002Z</time></trkpt><trkpt lat="43.330609778260744" lon="-0.4328334537864999"><ele>155.0</ele><time>2026-05-03T10:41:24.002Z</time></trkpt><trkpt lat="43.33063233073644" lon="-0.4327486336846197"><ele>155.8</ele><time>2026-05-03T10:41:25.002Z</time></trkpt><trkpt lat="43.330674307795114" lon="-0.4325890780937474"><ele>156.6</ele><time>2026-05-03T10:41:27.002Z</time></trkpt><trkpt lat="43.33069269785048" lon="-0.43250344196037493"><ele>157.4</ele><time>2026-05-03T10:41:28.002Z</time></trkpt><trkpt lat="43.33071044832013" lon="-0.4324194384644275"><ele>158.2</ele><time>2026-05-03T10:41:29.002Z</time></trkpt><trkpt lat="43.330741497944324" lon="-0.4322529746430814"><ele>159.0</ele><time>2026-05-03T10:41:31.002Z</time></trkpt><trkpt lat="43.33078404233202" lon="-0.43210299048628426"><ele>159.6</ele><time>2026-05-03T10:41:33.002Z</time></trkpt><trkpt lat="43.33082863456179" lon="-0.43196074572541127"><ele>160.2</ele><time>2026-05-03T10:41:34.999Z</time></trkpt><trkpt lat="43.330912258662494" lon="-0.43187765731656724"><ele>160.79999999999998</ele><time>2026-05-03T10:41:36.999Z</time></trkpt><trkpt lat="43.330983182779924" lon="-0.43180062903080996"><ele>161.4</ele><time>2026-05-03T10:41:38.999Z</time></trkpt><trkpt lat="43.33105383493514" lon="-0.43175790318884893"><ele>162.0</ele><time>2026-05-03T10:41:40.999Z</time></trkpt><trkpt lat="43.331034680751124" lon="-0.43165865056530034"><ele>162.0</ele><time>2026-05-03T10:41:41.999Z</time></trkpt><trkpt lat="43.33100738034839" lon="-0.43153470129913796"><ele>162.0</ele><time>2026-05-03T10:41:43.999Z</time></trkpt><trkpt lat="43.331005403501784" lon="-0.4313842213303174"><ele>162.0</ele><time>2026-05-03T10:41:45.999Z</time></trkpt><trkpt lat="43.33100127769991" lon="-0.4312273278096692"><ele>162.0</ele><time>2026-05-03T10:41:47.999Z</time></trkpt><trkpt lat="43.330978424623" lon="-0.4310784746175894"><ele>162.0</ele><time>2026-05-03T10:41:49.999Z</time></trkpt><trkpt lat="43.33094734004003" lon="-0.4309170580564965"><ele>162.25</ele><time>2026-05-03T10:41:51.999Z</time></trkpt><trkpt lat="43.330912009080016" lon="-0.43075423650309613"><ele>162.5</ele><time>2026-05-03T10:41:54Z</time></trkpt><trkpt lat="43.330882044529446" lon="-0.4305919691931159"><ele>162.75</ele><time>2026-05-03T10:41:56Z</time></trkpt><trkpt lat="43.33085273932692" lon="-0.43044467323020175"><ele>163.0</ele><time>2026-05-03T10:41:58Z</time></trkpt><trkpt lat="43.33081880098708" lon="-0.4303153941591648"><ele>163.60000000000002</ele><time>2026-05-03T10:42:00Z</time></trkpt><trkpt lat="43.33078007214773" lon="-0.4301864004576989"><ele>164.20000000000002</ele><time>2026-05-03T10:42:02Z</time></trkpt><trkpt lat="43.330765740432945" lon="-0.43003392614310604"><ele>164.8</ele><time>2026-05-03T10:42:04Z</time></trkpt><trkpt lat="43.33071254325302" lon="-0.42992047740601336"><ele>165.4</ele><time>2026-05-03T10:42:06Z</time></trkpt><trkpt lat="43.330651153555976" lon="-0.42986098538470974"><ele>166.0</ele><time>2026-05-03T10:42:08Z</time></trkpt><trkpt lat="43.33049459278242" lon="-0.42991990727172114"><ele>165.0</ele><time>2026-05-03T10:42:11Z</time></trkpt><trkpt lat="43.330382793415765" lon="-0.4299343745907185"><ele>164.0</ele><time>2026-05-03T10:42:13Z</time></trkpt><trkpt lat="43.33031838453123" lon="-0.42994123360345515"><ele>163.0</ele><time>2026-05-03T10:42:14Z</time></trkpt><trkpt lat="43.33026174436586" lon="-0.4299813492873699"><ele>162.0</ele><time>2026-05-03T10:42:15Z</time></trkpt><trkpt lat="43.330197914757264" lon="-0.4299937709862187"><ele>161.0</ele><time>2026-05-03T10:42:16Z</time></trkpt><trkpt lat="43.33007999850872" lon="-0.43005045374518397"><ele>160.0</ele><time>2026-05-03T10:42:18Z</time></trkpt><trkpt lat="43.32997182838423" lon="-0.43006287378807045"><ele>160.0</ele><time>2026-05-03T10:42:20Z</time></trkpt><trkpt lat="43.32986483215564" lon="-0.4300266571506894"><ele>160.0</ele><time>2026-05-03T10:42:22Z</time></trkpt><trkpt lat="43.32975181642243" lon="-0.429990102626693"><ele>160.0</ele><time>2026-05-03T10:42:24Z</time></trkpt><trkpt lat="43.32968983528875" lon="-0.4299714377342726"><ele>160.0</ele><time>2026-05-03T10:42:25Z</time></trkpt><trkpt lat="43.329569961603575" lon="-0.4299367659047436"><ele>160.0</ele><time>2026-05-03T10:42:27Z</time></trkpt><trkpt lat="43.32945833594083" lon="-0.42989516406775724"><ele>159.66666666666669</ele><time>2026-05-03T10:42:29Z</time></trkpt><trkpt lat="43.329350821229205" lon="-0.42987343406650746"><ele>159.33333333333334</ele><time>2026-05-03T10:42:31Z</time></trkpt><trkpt lat="43.32925286272612" lon="-0.429847009452943"><ele>159.0</ele><time>2026-05-03T10:42:33Z</time></trkpt><trkpt lat="43.32932007540251" lon="-0.4298779108861909"><ele>158.66666666666666</ele><time>2026-05-03T10:42:40.001Z</time></trkpt><trkpt lat="43.32939334664729" lon="-0.42989741494138745"><ele>158.33333333333331</ele><time>2026-05-03T10:42:42.001Z</time></trkpt><trkpt lat="43.32947782833299" lon="-0.42992291197942595"><ele>158.0</ele><time>2026-05-03T10:42:44.001Z</time></trkpt><trkpt lat="43.32957279799233" lon="-0.4299497568794626"><ele>158.0</ele><time>2026-05-03T10:42:46.001Z</time></trkpt><trkpt lat="43.32980044330103" lon="-0.43028246424042843"><ele>158.0</ele><time>2026-05-03T10:42:47.001Z</time></trkpt><trkpt lat="43.32968747301621" lon="-0.42991897677919017"><ele>158.5</ele><time>2026-05-03T10:42:48.001Z</time></trkpt><trkpt lat="43.32979142011339" lon="-0.42995020698596126"><ele>159.0</ele><time>2026-05-03T10:42:50.001Z</time></trkpt><trkpt lat="43.32990575686309" lon="-0.42999422259536685"><ele>159.5</ele><time>2026-05-03T10:42:52.001Z</time></trkpt><trkpt lat="43.330019071738654" lon="-0.430019094555779"><ele>160.0</ele><time>2026-05-03T10:42:54.001Z</time></trkpt><trkpt lat="43.330141180956645" lon="-0.4299943295288495"><ele>160.0</ele><time>2026-05-03T10:42:56.001Z</time></trkpt><trkpt lat="43.330207116802605" lon="-0.4299598558663776"><ele>160.0</ele><time>2026-05-03T10:42:57.001Z</time></trkpt><trkpt lat="43.330275945359396" lon="-0.4299281991417579"><ele>160.0</ele><time>2026-05-03T10:42:58.001Z</time></trkpt><trkpt lat="43.33033974665775" lon="-0.4299038338706181"><ele>160.0</ele><time>2026-05-03T10:42:59.001Z</time></trkpt><trkpt lat="43.33047032312205" lon="-0.4298864305994574"><ele>160.0</ele><time>2026-05-03T10:43:01.001Z</time></trkpt><trkpt lat="43.330538743608905" lon="-0.4298781261285765"><ele>160.0</ele><time>2026-05-03T10:43:02.001Z</time></trkpt><trkpt lat="43.33060530485093" lon="-0.42986093512022017"><ele>161.2</ele><time>2026-05-03T10:43:03.001Z</time></trkpt><trkpt lat="43.33067192962919" lon="-0.4298620623335076"><ele>162.4</ele><time>2026-05-03T10:43:04.001Z</time></trkpt><trkpt lat="43.33073787714075" lon="-0.42987464873536907"><ele>163.60000000000002</ele><time>2026-05-03T10:43:05.001Z</time></trkpt><trkpt lat="43.33082260346633" lon="-0.4299867193311147"><ele>164.8</ele><time>2026-05-03T10:43:07.001Z</time></trkpt><trkpt lat="43.33086188791921" lon="-0.4301332563632607"><ele>166.0</ele><time>2026-05-03T10:43:09.001Z</time></trkpt><trkpt lat="43.33090188988639" lon="-0.4302491293592361"><ele>166.0</ele><time>2026-05-03T10:43:11.001Z</time></trkpt><trkpt lat="43.33094298418063" lon="-0.43035382469182404"><ele>166.0</ele><time>2026-05-03T10:43:13.001Z</time></trkpt><trkpt lat="43.33097620209379" lon="-0.4304529379669858"><ele>166.0</ele><time>2026-05-03T10:43:15.001Z</time></trkpt><trkpt lat="43.33101319400921" lon="-0.4305490325590503"><ele>166.0</ele><time>2026-05-03T10:43:17.001Z</time></trkpt><trkpt lat="43.331040680813395" lon="-0.43064726083014254"><ele>166.0</ele><time>2026-05-03T10:43:19.001Z</time></trkpt><trkpt lat="43.3310804516298" lon="-0.4307622888661427"><ele>166.0</ele><time>2026-05-03T10:43:22.001Z</time></trkpt><trkpt lat="43.3311034774871" lon="-0.43084821152353403"><ele>165.57142857142856</ele><time>2026-05-03T10:43:24.001Z</time></trkpt><trkpt lat="43.331128438607585" lon="-0.43092917109178663"><ele>165.14285714285717</ele><time>2026-05-03T10:43:26.001Z</time></trkpt><trkpt lat="43.33116769228596" lon="-0.43103293858055225"><ele>164.71428571428572</ele><time>2026-05-03T10:43:29.001Z</time></trkpt><trkpt lat="43.33119816878928" lon="-0.4311377778624844"><ele>164.28571428571428</ele><time>2026-05-03T10:43:32.002Z</time></trkpt><trkpt lat="43.33123076751465" lon="-0.4312183639678668"><ele>163.85714285714283</ele><time>2026-05-03T10:43:35.002Z</time></trkpt><trkpt lat="43.33126445656353" lon="-0.43130092935166753"><ele>163.42857142857144</ele><time>2026-05-03T10:43:38.002Z</time></trkpt><trkpt lat="43.331316307667215" lon="-0.4313736082157342"><ele>163.0</ele><time>2026-05-03T10:43:40.999Z</time></trkpt><trkpt lat="43.33138699060806" lon="-0.4314393163070091"><ele>165.0</ele><time>2026-05-03T10:43:43.999Z</time></trkpt><trkpt lat="43.33145844378059" lon="-0.4314710372625651"><ele>167.0</ele><time>2026-05-03T10:43:46.999Z</time></trkpt><trkpt lat="43.33152418860084" lon="-0.43147888436208265"><ele>169.0</ele><time>2026-05-03T10:43:49.999Z</time></trkpt><trkpt lat="43.33158699202508" lon="-0.4314535880796576"><ele>171.0</ele><time>2026-05-03T10:43:52.999Z</time></trkpt><trkpt lat="43.331649340863564" lon="-0.43141673400162134"><ele>173.0</ele><time>2026-05-03T10:43:55.999Z</time></trkpt><trkpt lat="43.33171060984588" lon="-0.43137322169273623"><ele>175.0</ele><time>2026-05-03T10:43:58.999Z</time></trkpt><trkpt lat="43.3317719108514" lon="-0.43133345851882976"><ele>177.0</ele><time>2026-05-03T10:44:01.999Z</time></trkpt><trkpt lat="43.331842850304945" lon="-0.43129998570102684"><ele>177.2857142857143</ele><time>2026-05-03T10:44:05Z</time></trkpt><trkpt lat="43.33190666957012" lon="-0.43125893273112537"><ele>177.57142857142856</ele><time>2026-05-03T10:44:08Z</time></trkpt><trkpt lat="43.331966952738135" lon="-0.43122078479120535"><ele>177.85714285714286</ele><time>2026-05-03T10:44:11Z</time></trkpt><trkpt lat="43.33202168480863" lon="-0.43117264954796497"><ele>178.14285714285717</ele><time>2026-05-03T10:44:14Z</time></trkpt><trkpt lat="43.33209240784256" lon="-0.43114828492230944"><ele>178.42857142857144</ele><time>2026-05-03T10:44:17Z</time></trkpt><trkpt lat="43.332161237204275" lon="-0.4310961652003473"><ele>178.71428571428572</ele><time>2026-05-03T10:44:21Z</time></trkpt><trkpt lat="43.33222037034778" lon="-0.43104155158542695"><ele>179.0</ele><time>2026-05-03T10:44:24Z</time></trkpt><trkpt lat="43.33227551271001" lon="-0.43098176462499077"><ele>179.5</ele><time>2026-05-03T10:44:27Z</time></trkpt><trkpt lat="43.33232130477084" lon="-0.43092174291814156"><ele>180.0</ele><time>2026-05-03T10:44:30Z</time></trkpt><trkpt lat="43.33237113609273" lon="-0.4308491950959637"><ele>180.5</ele><time>2026-05-03T10:44:33Z</time></trkpt><trkpt lat="43.33242429874153" lon="-0.43076394705653964"><ele>181.0</ele><time>2026-05-03T10:44:36Z</time></trkpt><trkpt lat="43.332480943091596" lon="-0.4306752969663968"><ele>181.5</ele><time>2026-05-03T10:44:39.001Z</time></trkpt><trkpt lat="43.332517129641" lon="-0.4305743092185059"><ele>182.0</ele><time>2026-05-03T10:44:42.001Z</time></trkpt><trkpt lat="43.332529800549935" lon="-0.4304469728708027"><ele>182.5</ele><time>2026-05-03T10:44:45.001Z</time></trkpt><trkpt lat="43.33257541029326" lon="-0.43035499153966766"><ele>183.0</ele><time>2026-05-03T10:44:47.001Z</time></trkpt><trkpt lat="43.33259647823801" lon="-0.4302495603441984"><ele>183.5</ele><time>2026-05-03T10:44:49.001Z</time></trkpt><trkpt lat="43.33259403494941" lon="-0.43014925039318147"><ele>184.0</ele><time>2026-05-03T10:44:51.001Z</time></trkpt><trkpt lat="43.332583032505944" lon="-0.4300284995267604"><ele>184.5</ele><time>2026-05-03T10:44:53.001Z</time></trkpt><trkpt lat="43.33254614754979" lon="-0.4299496950252101"><ele>185.0</ele><time>2026-05-03T10:44:55.001Z</time></trkpt><trkpt lat="43.332482614946244" lon="-0.4298438761252899"><ele>185.0</ele><time>2026-05-03T10:44:57.001Z</time></trkpt><trkpt lat="43.33242486771727" lon="-0.4297534652672702"><ele>185.0</ele><time>2026-05-03T10:44:59.001Z</time></trkpt><trkpt lat="43.33237836861727" lon="-0.4296512644857806"><ele>185.0</ele><time>2026-05-03T10:45:01.001Z</time></trkpt><trkpt lat="43.33231474570905" lon="-0.42954759165324535"><ele>185.0</ele><time>2026-05-03T10:45:03.001Z</time></trkpt><trkpt lat="43.33225572397992" lon="-0.4294325440969015"><ele>185.0</ele><time>2026-05-03T10:45:05.001Z</time></trkpt><trkpt lat="43.332198455397005" lon="-0.4293043477489997"><ele>185.5</ele><time>2026-05-03T10:45:07.001Z</time></trkpt><trkpt lat="43.33214203087629" lon="-0.4291596703772434"><ele>186.0</ele><time>2026-05-03T10:45:09.001Z</time></trkpt><trkpt lat="43.33208683090528" lon="-0.4290087164059108"><ele>186.5</ele><time>2026-05-03T10:45:11.001Z</time></trkpt><trkpt lat="43.33203043260874" lon="-0.42886276727691003"><ele>187.0</ele><time>2026-05-03T10:45:13.001Z</time></trkpt><trkpt lat="43.3319693143184" lon="-0.4287236670766745"><ele>187.0</ele><time>2026-05-03T10:45:15.001Z</time></trkpt><trkpt lat="43.33190136593219" lon="-0.4285877507264641"><ele>187.0</ele><time>2026-05-03T10:45:17.001Z</time></trkpt><trkpt lat="43.33182375550037" lon="-0.42846671578317236"><ele>187.0</ele><time>2026-05-03T10:45:19.001Z</time></trkpt><trkpt lat="43.331749355526846" lon="-0.4283393039544485"><ele>187.0</ele><time>2026-05-03T10:45:21.001Z</time></trkpt><trkpt lat="43.33170798893069" lon="-0.428271190842753"><ele>187.0</ele><time>2026-05-03T10:45:22.001Z</time></trkpt><trkpt lat="43.33164324125387" lon="-0.42812544080939346"><ele>186.6</ele><time>2026-05-03T10:45:24.002Z</time></trkpt><trkpt lat="43.331584800735435" lon="-0.4279762261745045"><ele>186.2</ele><time>2026-05-03T10:45:26.002Z</time></trkpt><trkpt lat="43.331518712337385" lon="-0.4278321281995093"><ele>185.8</ele><time>2026-05-03T10:45:28.002Z</time></trkpt><trkpt lat="43.33144823104758" lon="-0.427691048886732"><ele>185.4</ele><time>2026-05-03T10:45:30.002Z</time></trkpt><trkpt lat="43.331409366904204" lon="-0.42762292152969733"><ele>185.0</ele><time>2026-05-03T10:45:31.002Z</time></trkpt><trkpt lat="43.331325965669954" lon="-0.427497673104709"><ele>185.0</ele><time>2026-05-03T10:45:33.002Z</time></trkpt><trkpt lat="43.33128938556345" lon="-0.427423650382716"><ele>185.0</ele><time>2026-05-03T10:45:34.002Z</time></trkpt><trkpt lat="43.33125652561868" lon="-0.42734771203419475"><ele>185.0</ele><time>2026-05-03T10:45:35.002Z</time></trkpt><trkpt lat="43.33122143980813" lon="-0.42727516735614757"><ele>185.0</ele><time>2026-05-03T10:45:36.002Z</time></trkpt><trkpt lat="43.33115644947574" lon="-0.42713554921771807"><ele>185.0</ele><time>2026-05-03T10:45:38.002Z</time></trkpt><trkpt lat="43.331088742554776" lon="-0.4269959946942781"><ele>185.0</ele><time>2026-05-03T10:45:40.002Z</time></trkpt><trkpt lat="43.331013166464565" lon="-0.42685596269729764"><ele>185.0</ele><time>2026-05-03T10:45:42.002Z</time></trkpt><trkpt lat="43.33094617684216" lon="-0.4267097496884155"><ele>185.0</ele><time>2026-05-03T10:45:44.002Z</time></trkpt><trkpt lat="43.33091112453562" lon="-0.4266330612841918"><ele>185.0</ele><time>2026-05-03T10:45:45.002Z</time></trkpt><trkpt lat="43.33088031220456" lon="-0.4265528155057907"><ele>185.0</ele><time>2026-05-03T10:45:46.002Z</time></trkpt><trkpt lat="43.330856368837296" lon="-0.4264667842663776"><ele>185.0</ele><time>2026-05-03T10:45:46.999Z</time></trkpt><trkpt lat="43.33083793701518" lon="-0.4263755087814062"><ele>185.0</ele><time>2026-05-03T10:45:47.999Z</time></trkpt><trkpt lat="43.33082282681629" lon="-0.4262873563078838"><ele>185.28571428571428</ele><time>2026-05-03T10:45:48.999Z</time></trkpt><trkpt lat="43.33080140597312" lon="-0.42619791257509926"><ele>185.57142857142856</ele><time>2026-05-03T10:45:49.999Z</time></trkpt><trkpt lat="43.330786094587644" lon="-0.4261083445137697"><ele>185.85714285714283</ele><time>2026-05-03T10:45:50.999Z</time></trkpt><trkpt lat="43.33076867683047" lon="-0.4260180234504812"><ele>186.14285714285714</ele><time>2026-05-03T10:45:51.999Z</time></trkpt><trkpt lat="43.330748540814696" lon="-0.4259275959081861"><ele>186.42857142857144</ele><time>2026-05-03T10:45:52.999Z</time></trkpt><trkpt lat="43.33073202280773" lon="-0.4258393814438947"><ele>186.7142857142857</ele><time>2026-05-03T10:45:53.999Z</time></trkpt><trkpt lat="43.330717437751645" lon="-0.4257449062869321"><ele>187.0</ele><time>2026-05-03T10:45:54.999Z</time></trkpt><trkpt lat="43.33070197705594" lon="-0.4256509071295883"><ele>187.0</ele><time>2026-05-03T10:45:55.999Z</time></trkpt><trkpt lat="43.33068609714765" lon="-0.4255622758803101"><ele>187.0</ele><time>2026-05-03T10:45:56.999Z</time></trkpt><trkpt lat="43.33066903072941" lon="-0.42546852534501056"><ele>187.0</ele><time>2026-05-03T10:45:57.999Z</time></trkpt><trkpt lat="43.33065150341364" lon="-0.42538479331744994"><ele>187.0</ele><time>2026-05-03T10:45:58.999Z</time></trkpt><trkpt lat="43.330634177563105" lon="-0.4252914786433531"><ele>187.0</ele><time>2026-05-03T10:45:59.999Z</time></trkpt><trkpt lat="43.33061803240083" lon="-0.4252030746383189"><ele>187.0</ele><time>2026-05-03T10:46:00.999Z</time></trkpt><trkpt lat="43.330602811168106" lon="-0.4251167934753473"><ele>187.0</ele><time>2026-05-03T10:46:01.999Z</time></trkpt><trkpt lat="43.330568599825234" lon="-0.42495209361655517"><ele>187.2</ele><time>2026-05-03T10:46:03.999Z</time></trkpt><trkpt lat="43.33055628379628" lon="-0.42485960118282273"><ele>187.39999999999998</ele><time>2026-05-03T10:46:04.999Z</time></trkpt><trkpt lat="43.33054147971811" lon="-0.4247673988397036"><ele>187.60000000000002</ele><time>2026-05-03T10:46:05.999Z</time></trkpt><trkpt lat="43.33051197106789" lon="-0.4245926197575686"><ele>187.8</ele><time>2026-05-03T10:46:07.999Z</time></trkpt><trkpt lat="43.33047964427767" lon="-0.4244230522595713"><ele>188.0</ele><time>2026-05-03T10:46:10Z</time></trkpt><trkpt lat="43.33045089004712" lon="-0.42425871884484223"><ele>188.0</ele><time>2026-05-03T10:46:12Z</time></trkpt><trkpt lat="43.33043871274112" lon="-0.4241697171389995"><ele>188.0</ele><time>2026-05-03T10:46:13Z</time></trkpt><trkpt lat="43.330417908944824" lon="-0.424001611500636"><ele>188.0</ele><time>2026-05-03T10:46:15Z</time></trkpt><trkpt lat="43.33040721075394" lon="-0.42391555566720346"><ele>188.0</ele><time>2026-05-03T10:46:16Z</time></trkpt><trkpt lat="43.33039766437946" lon="-0.4238299081675945"><ele>188.0</ele><time>2026-05-03T10:46:17Z</time></trkpt><trkpt lat="43.33038770492459" lon="-0.4237433757410683"><ele>188.0</ele><time>2026-05-03T10:46:18Z</time></trkpt><trkpt lat="43.33037904067563" lon="-0.42365461292269846"><ele>188.0</ele><time>2026-05-03T10:46:19Z</time></trkpt><trkpt lat="43.33036791182441" lon="-0.4235686094787867"><ele>188.0</ele><time>2026-05-03T10:46:20Z</time></trkpt><trkpt lat="43.33035303438291" lon="-0.42347855436356463"><ele>188.0</ele><time>2026-05-03T10:46:21Z</time></trkpt><trkpt lat="43.33033542965062" lon="-0.42330633820277436"><ele>188.0</ele><time>2026-05-03T10:46:23Z</time></trkpt><trkpt lat="43.330327933148865" lon="-0.42321960233869776"><ele>188.0</ele><time>2026-05-03T10:46:24Z</time></trkpt><trkpt lat="43.33030151357607" lon="-0.4230585454151233"><ele>188.0</ele><time>2026-05-03T10:46:26Z</time></trkpt><trkpt lat="43.33029156172786" lon="-0.42296689466430604"><ele>188.0</ele><time>2026-05-03T10:46:27Z</time></trkpt><trkpt lat="43.33027989504562" lon="-0.42288140037262767"><ele>187.8</ele><time>2026-05-03T10:46:28Z</time></trkpt><trkpt lat="43.33027155198069" lon="-0.42279531771245166"><ele>187.60000000000002</ele><time>2026-05-03T10:46:29Z</time></trkpt><trkpt lat="43.33024868459207" lon="-0.4226273857824947"><ele>187.39999999999998</ele><time>2026-05-03T10:46:31Z</time></trkpt><trkpt lat="43.330229366635145" lon="-0.42246929817937884"><ele>187.2</ele><time>2026-05-03T10:46:33Z</time></trkpt><trkpt lat="43.33020780858554" lon="-0.4223034243031464"><ele>187.0</ele><time>2026-05-03T10:46:35Z</time></trkpt><trkpt lat="43.33019525803051" lon="-0.42221509282747344"><ele>186.8</ele><time>2026-05-03T10:46:36Z</time></trkpt><trkpt lat="43.33018507153968" lon="-0.42212763228357514"><ele>186.6</ele><time>2026-05-03T10:46:37Z</time></trkpt><trkpt lat="43.33016131950472" lon="-0.42195644166262747"><ele>186.4</ele><time>2026-05-03T10:46:39Z</time></trkpt><trkpt lat="43.33013755363177" lon="-0.4217877752230911"><ele>186.20000000000002</ele><time>2026-05-03T10:46:41.001Z</time></trkpt><trkpt lat="43.33012102108037" lon="-0.42162084005781914"><ele>186.0</ele><time>2026-05-03T10:46:43.001Z</time></trkpt><trkpt lat="43.330109594611635" lon="-0.4215313840825032"><ele>186.0</ele><time>2026-05-03T10:46:44.001Z</time></trkpt><trkpt lat="43.3300712597489" lon="-0.4213629038243275"><ele>186.0</ele><time>2026-05-03T10:46:46.001Z</time></trkpt><trkpt lat="43.33002771496826" lon="-0.4211986231243573"><ele>186.0</ele><time>2026-05-03T10:46:48.001Z</time></trkpt><trkpt lat="43.33000822132598" lon="-0.42111352634694577"><ele>186.0</ele><time>2026-05-03T10:46:49.001Z</time></trkpt><trkpt lat="43.329989212077265" lon="-0.42102612729194716"><ele>186.0</ele><time>2026-05-03T10:46:50.001Z</time></trkpt><trkpt lat="43.32996934373223" lon="-0.4209326261970728"><ele>186.0</ele><time>2026-05-03T10:46:51.001Z</time></trkpt><trkpt lat="43.32994783514219" lon="-0.42084135704945874"><ele>186.0</ele><time>2026-05-03T10:46:52.001Z</time></trkpt><trkpt lat="43.32992965533943" lon="-0.4207512952101163"><ele>186.0</ele><time>2026-05-03T10:46:53.001Z</time></trkpt><trkpt lat="43.32990791786594" lon="-0.42066308755446036"><ele>186.0</ele><time>2026-05-03T10:46:54.001Z</time></trkpt><trkpt lat="43.32988877950268" lon="-0.42057266324280085"><ele>186.0</ele><time>2026-05-03T10:46:55.001Z</time></trkpt><trkpt lat="43.32986784635705" lon="-0.4204746936953155"><ele>186.0</ele><time>2026-05-03T10:46:56.001Z</time></trkpt><trkpt lat="43.3298337684429" lon="-0.4202890413219736"><ele>186.0</ele><time>2026-05-03T10:46:58.001Z</time></trkpt><trkpt lat="43.329832468032606" lon="-0.420196753767348"><ele>186.0</ele><time>2026-05-03T10:46:59.001Z</time></trkpt><trkpt lat="43.329833749950545" lon="-0.4200950228945467"><ele>186.0</ele><time>2026-05-03T10:47:00.001Z</time></trkpt><trkpt lat="43.3298452414858" lon="-0.4199159637183657"><ele>186.0</ele><time>2026-05-03T10:47:02.001Z</time></trkpt><trkpt lat="43.32985938023395" lon="-0.4198234470429574"><ele>186.0</ele><time>2026-05-03T10:47:03.001Z</time></trkpt><trkpt lat="43.32987501450754" lon="-0.41972807689163755"><ele>186.0</ele><time>2026-05-03T10:47:04.001Z</time></trkpt><trkpt lat="43.3298886774923" lon="-0.4196384256022544"><ele>186.14285714285717</ele><time>2026-05-03T10:47:05.001Z</time></trkpt><trkpt lat="43.32990072871533" lon="-0.41954761417175546"><ele>186.28571428571428</ele><time>2026-05-03T10:47:06.001Z</time></trkpt><trkpt lat="43.32990250619306" lon="-0.41945357384995524"><ele>186.42857142857144</ele><time>2026-05-03T10:47:07.001Z</time></trkpt><trkpt lat="43.32991161975298" lon="-0.41936648970535445"><ele>186.57142857142858</ele><time>2026-05-03T10:47:08.001Z</time></trkpt><trkpt lat="43.32990175489102" lon="-0.41927600768502254"><ele>186.71428571428572</ele><time>2026-05-03T10:47:09.001Z</time></trkpt><trkpt lat="43.32989278146031" lon="-0.4191895242839565"><ele>186.85714285714286</ele><time>2026-05-03T10:47:10.001Z</time></trkpt><trkpt lat="43.32988461000254" lon="-0.4190980385359744"><ele>187.0</ele><time>2026-05-03T10:47:11.001Z</time></trkpt><trkpt lat="43.32987807517027" lon="-0.41900586473073365"><ele>187.0</ele><time>2026-05-03T10:47:12.001Z</time></trkpt><trkpt lat="43.32987514928058" lon="-0.4189089606014265"><ele>187.0</ele><time>2026-05-03T10:47:13.001Z</time></trkpt><trkpt lat="43.329864347901506" lon="-0.4188202976018492"><ele>187.0</ele><time>2026-05-03T10:47:14.001Z</time></trkpt><trkpt lat="43.329857141735" lon="-0.4187289698685212"><ele>187.0</ele><time>2026-05-03T10:47:15.001Z</time></trkpt><trkpt lat="43.3298501485491" lon="-0.41863310182674063"><ele>187.0</ele><time>2026-05-03T10:47:16.001Z</time></trkpt><trkpt lat="43.32984637393958" lon="-0.41853813298535886"><ele>187.0</ele><time>2026-05-03T10:47:17.001Z</time></trkpt><trkpt lat="43.32983867602378" lon="-0.4184448180660977"><ele>187.0</ele><time>2026-05-03T10:47:18.001Z</time></trkpt><trkpt lat="43.329828559433565" lon="-0.41834947327164423"><ele>187.0</ele><time>2026-05-03T10:47:19.001Z</time></trkpt><trkpt lat="43.329821832049475" lon="-0.4182527584508275"><ele>187.0</ele><time>2026-05-03T10:47:20.002Z</time></trkpt><trkpt lat="43.329816570000865" lon="-0.4181543510528984"><ele>187.0</ele><time>2026-05-03T10:47:21.002Z</time></trkpt><trkpt lat="43.329812675050725" lon="-0.4180565148410758"><ele>187.0</ele><time>2026-05-03T10:47:22.002Z</time></trkpt><trkpt lat="43.32980637294045" lon="-0.4179588304534766"><ele>187.0</ele><time>2026-05-03T10:47:23.002Z</time></trkpt><trkpt lat="43.32979229608316" lon="-0.41786197484360355"><ele>187.0</ele><time>2026-05-03T10:47:24.002Z</time></trkpt><trkpt lat="43.329788883327886" lon="-0.41776262726402524"><ele>187.0</ele><time>2026-05-03T10:47:25.002Z</time></trkpt><trkpt lat="43.32977919811977" lon="-0.41766273009259813"><ele>187.0</ele><time>2026-05-03T10:47:26.002Z</time></trkpt><trkpt lat="43.32977270896673" lon="-0.4175652430406294"><ele>187.0</ele><time>2026-05-03T10:47:27.002Z</time></trkpt><trkpt lat="43.32976901447207" lon="-0.41746541149474886"><ele>187.0</ele><time>2026-05-03T10:47:28.002Z</time></trkpt><trkpt lat="43.32976672033631" lon="-0.41736721836339197"><ele>187.0</ele><time>2026-05-03T10:47:29.002Z</time></trkpt><trkpt lat="43.32976350134262" lon="-0.4172716516325688"><ele>187.0</ele><time>2026-05-03T10:47:30.002Z</time></trkpt><trkpt lat="43.32975562656745" lon="-0.417173990975813"><ele>187.0</ele><time>2026-05-03T10:47:31.002Z</time></trkpt><trkpt lat="43.3297546041083" lon="-0.4170789351424682"><ele>187.0</ele><time>2026-05-03T10:47:32.002Z</time></trkpt><trkpt lat="43.32974748788676" lon="-0.4169810460687461"><ele>187.0</ele><time>2026-05-03T10:47:33.002Z</time></trkpt><trkpt lat="43.329752490219796" lon="-0.41688267010664815"><ele>187.0</ele><time>2026-05-03T10:47:34.002Z</time></trkpt><trkpt lat="43.329753829895964" lon="-0.4167871407490823"><ele>187.0</ele><time>2026-05-03T10:47:35.002Z</time></trkpt><trkpt lat="43.32975385086053" lon="-0.416685042432851"><ele>187.0</ele><time>2026-05-03T10:47:36.002Z</time></trkpt><trkpt lat="43.32975315736416" lon="-0.41659035940523814"><ele>187.0</ele><time>2026-05-03T10:47:37.002Z</time></trkpt><trkpt lat="43.32975184065851" lon="-0.41649214800708007"><ele>187.0</ele><time>2026-05-03T10:47:38.002Z</time></trkpt><trkpt lat="43.32975037616668" lon="-0.4163946032642089"><ele>187.0</ele><time>2026-05-03T10:47:39.002Z</time></trkpt><trkpt lat="43.32974597350198" lon="-0.41629338427021567"><ele>187.0</ele><time>2026-05-03T10:47:40.002Z</time></trkpt><trkpt lat="43.329741273433775" lon="-0.4161998440555155"><ele>187.0</ele><time>2026-05-03T10:47:41.002Z</time></trkpt><trkpt lat="43.32974088943347" lon="-0.4161024538520728"><ele>187.0</ele><time>2026-05-03T10:47:42.002Z</time></trkpt><trkpt lat="43.32974082780734" lon="-0.4160081459601274"><ele>187.0</ele><time>2026-05-03T10:47:43.002Z</time></trkpt><trkpt lat="43.32973746148887" lon="-0.4159124534692601"><ele>187.0</ele><time>2026-05-03T10:47:44.002Z</time></trkpt><trkpt lat="43.32973529601465" lon="-0.4158193581631577"><ele>187.0</ele><time>2026-05-03T10:47:45.002Z</time></trkpt><trkpt lat="43.329739505535414" lon="-0.41563265879253275"><ele>187.0</ele><time>2026-05-03T10:47:47.002Z</time></trkpt><trkpt lat="43.32972940354515" lon="-0.41547627405496623"><ele>187.0</ele><time>2026-05-03T10:47:49.002Z</time></trkpt><trkpt lat="43.32971010917381" lon="-0.41536467924361126"><ele>187.0</ele><time>2026-05-03T10:47:51.002Z</time></trkpt><trkpt lat="43.3295999576997" lon="-0.4153956189539589"><ele>187.0</ele><time>2026-05-03T10:47:52.002Z</time></trkpt><trkpt lat="43.32948961634492" lon="-0.4153625428036846"><ele>187.0</ele><time>2026-05-03T10:47:53.999Z</time></trkpt><trkpt lat="43.329373566270384" lon="-0.4153277554504238"><ele>187.0</ele><time>2026-05-03T10:47:55.999Z</time></trkpt><trkpt lat="43.32930917931082" lon="-0.4152976505423028"><ele>187.0</ele><time>2026-05-03T10:47:56.999Z</time></trkpt><trkpt lat="43.329248431995964" lon="-0.4152722902839392"><ele>187.0</ele><time>2026-05-03T10:47:57.999Z</time></trkpt><trkpt lat="43.329126756784056" lon="-0.4152579231114508"><ele>187.0</ele><time>2026-05-03T10:47:59.999Z</time></trkpt><trkpt lat="43.329009496977385" lon="-0.4152795340238681"><ele>187.0</ele><time>2026-05-03T10:48:02Z</time></trkpt><trkpt lat="43.328905593335094" lon="-0.41533404033796373"><ele>187.0</ele><time>2026-05-03T10:48:04Z</time></trkpt><trkpt lat="43.328812153956875" lon="-0.41542478029896474"><ele>187.0</ele><time>2026-05-03T10:48:06Z</time></trkpt><trkpt lat="43.32872564999264" lon="-0.4155005648863783"><ele>187.0</ele><time>2026-05-03T10:48:08Z</time></trkpt><trkpt lat="43.328653488755926" lon="-0.4156042196273625"><ele>187.0</ele><time>2026-05-03T10:48:10Z</time></trkpt><trkpt lat="43.328614712916426" lon="-0.41568785865712904"><ele>187.0</ele><time>2026-05-03T10:48:12Z</time></trkpt><trkpt lat="43.328455743519335" lon="-0.4155473417315892"><ele>187.0</ele><time>2026-05-03T10:48:14Z</time></trkpt><trkpt lat="43.32838682745429" lon="-0.41545203673298636"><ele>187.0</ele><time>2026-05-03T10:48:16Z</time></trkpt><trkpt lat="43.32830460136206" lon="-0.41538136022022254"><ele>187.0</ele><time>2026-05-03T10:48:18Z</time></trkpt><trkpt lat="43.328205233613254" lon="-0.41536597073306775"><ele>187.0</ele><time>2026-05-03T10:48:20Z</time></trkpt><trkpt lat="43.32812018424735" lon="-0.4153834187136129"><ele>187.0</ele><time>2026-05-03T10:48:22Z</time></trkpt><trkpt lat="43.32812018424735" lon="-0.4153834187136129"><ele>187.0</ele><time>2026-05-03T10:48:22Z</time></trkpt></trkseg></trk></gpx>